<?xml version='1.0' encoding='UTF-8'?><gpx version="1.1" creator="JPX - https://github.com/jenetics/jpx" xmlns="http://www.topografix.com/GPX/1/1"><trk><trkseg><trkpt lat="47.321832838776906" lon="-1.7498934569443658"><ele>82.0</ele><time>2026-03-22T08:10:54.991Z</time></trkpt><trkpt lat="47.32178573373152" lon="-1.7498199089881339"><ele>82.0</ele><time>2026-03-22T08:11:09.991Z</time></trkpt><trkpt lat="47.32173025226137" lon="-1.7497733024652626"><ele>82.0</ele><time>2026-03-22T08:11:12.991Z</time></trkpt><trkpt lat="47.32167807392682" lon="-1.7496976846818546"><ele>82.0</ele><time>2026-03-22T08:11:14.991Z</time></trkpt><trkpt lat="47.32161104319993" lon="-1.749588331917909"><ele>82.0</ele><time>2026-03-22T08:11:16.991Z</time></trkpt><trkpt lat="47.3215437925376" lon="-1.7494621107397812"><ele>82.0</ele><time>2026-03-22T08:11:19.991Z</time></trkpt><trkpt lat="47.321492294017425" lon="-1.749391499400376"><ele>81.83333333333333</ele><time>2026-03-22T08:11:20.991Z</time></trkpt><trkpt lat="47.32143630518" lon="-1.749315341641006"><ele>81.66666666666666</ele><time>2026-03-22T08:11:21.991Z</time></trkpt><trkpt lat="47.321351208554745" lon="-1.7491845542381557"><ele>81.5</ele><time>2026-03-22T08:11:23.991Z</time></trkpt><trkpt lat="47.32130263605959" lon="-1.7491153797053427"><ele>81.33333333333333</ele><time>2026-03-22T08:11:24.991Z</time></trkpt><trkpt lat="47.32125403195127" lon="-1.7490510716604295"><ele>81.16666666666667</ele><time>2026-03-22T08:11:25.991Z</time></trkpt><trkpt lat="47.32119453891897" lon="-1.7489916612936982"><ele>81.0</ele><time>2026-03-22T08:11:26.991Z</time></trkpt><trkpt lat="47.32113365003824" lon="-1.7489440946475387"><ele>81.0</ele><time>2026-03-22T08:11:27.991Z</time></trkpt><trkpt lat="47.32107021057581" lon="-1.7488951603274745"><ele>81.0</ele><time>2026-03-22T08:11:28.991Z</time></trkpt><trkpt lat="47.32095834873122" lon="-1.7488295713493325"><ele>81.0</ele><time>2026-03-22T08:11:30.991Z</time></trkpt><trkpt lat="47.32088973955552" lon="-1.7487979047616573"><ele>81.0</ele><time>2026-03-22T08:11:31.991Z</time></trkpt><trkpt lat="47.32082575712436" lon="-1.748762982395583"><ele>81.0</ele><time>2026-03-22T08:11:32.991Z</time></trkpt><trkpt lat="47.320752453791016" lon="-1.7487268370640425"><ele>81.0</ele><time>2026-03-22T08:11:33.991Z</time></trkpt><trkpt lat="47.32066790658449" lon="-1.7486913819835856"><ele>81.0</ele><time>2026-03-22T08:11:34.991Z</time></trkpt><trkpt lat="47.32059816530445" lon="-1.7486570685916856"><ele>81.0</ele><time>2026-03-22T08:11:35.991Z</time></trkpt><trkpt lat="47.32053606322823" lon="-1.7486205279106655"><ele>81.0</ele><time>2026-03-22T08:11:36.991Z</time></trkpt><trkpt lat="47.32045822537386" lon="-1.7485897514742486"><ele>81.0</ele><time>2026-03-22T08:11:37.991Z</time></trkpt><trkpt lat="47.3203792208583" lon="-1.7485472411287746"><ele>81.0</ele><time>2026-03-22T08:11:38.991Z</time></trkpt><trkpt lat="47.32030230366237" lon="-1.7485092982770967"><ele>81.0</ele><time>2026-03-22T08:11:39.991Z</time></trkpt><trkpt lat="47.32022862316982" lon="-1.7484747755286731"><ele>80.83333333333333</ele><time>2026-03-22T08:11:40.992Z</time></trkpt><trkpt lat="47.32014893115492" lon="-1.7484469364189563"><ele>80.66666666666667</ele><time>2026-03-22T08:11:41.992Z</time></trkpt><trkpt lat="47.32006799145174" lon="-1.748410795016448"><ele>80.5</ele><time>2026-03-22T08:11:42.991Z</time></trkpt><trkpt lat="47.31998227406325" lon="-1.7483707896028617"><ele>80.33333333333334</ele><time>2026-03-22T08:11:43.991Z</time></trkpt><trkpt lat="47.31989940645061" lon="-1.7483334931723464"><ele>80.16666666666667</ele><time>2026-03-22T08:11:44.991Z</time></trkpt><trkpt lat="47.31982578123748" lon="-1.7482917713113828"><ele>80.0</ele><time>2026-03-22T08:11:45.991Z</time></trkpt><trkpt lat="47.31973499694237" lon="-1.7482543987766446"><ele>79.83333333333334</ele><time>2026-03-22T08:11:46.991Z</time></trkpt><trkpt lat="47.31966468811162" lon="-1.748241562871751"><ele>79.66666666666667</ele><time>2026-03-22T08:11:47.991Z</time></trkpt><trkpt lat="47.3195768422784" lon="-1.7482405245182235"><ele>79.5</ele><time>2026-03-22T08:11:48.991Z</time></trkpt><trkpt lat="47.31948003858395" lon="-1.7482373394858406"><ele>79.33333333333333</ele><time>2026-03-22T08:11:49.992Z</time></trkpt><trkpt lat="47.31938934861998" lon="-1.7482314531097063"><ele>79.16666666666666</ele><time>2026-03-22T08:11:50.992Z</time></trkpt><trkpt lat="47.319300461378326" lon="-1.7482359158365615"><ele>79.0</ele><time>2026-03-22T08:11:51.992Z</time></trkpt><trkpt lat="47.31921615687973" lon="-1.7482587996641632"><ele>79.0</ele><time>2026-03-22T08:11:52.992Z</time></trkpt><trkpt lat="47.319119543704645" lon="-1.7482601591023021"><ele>79.0</ele><time>2026-03-22T08:11:53.992Z</time></trkpt><trkpt lat="47.319035816521065" lon="-1.7482825527415502"><ele>79.0</ele><time>2026-03-22T08:11:54.992Z</time></trkpt><trkpt lat="47.31894950912556" lon="-1.7483051099686695"><ele>79.0</ele><time>2026-03-22T08:11:55.992Z</time></trkpt><trkpt lat="47.31886777258104" lon="-1.7483375112891548"><ele>79.0</ele><time>2026-03-22T08:11:56.992Z</time></trkpt><trkpt lat="47.31878293044751" lon="-1.7483870172532465"><ele>79.0</ele><time>2026-03-22T08:11:57.992Z</time></trkpt><trkpt lat="47.318715262559095" lon="-1.7484560740192074"><ele>79.16666666666666</ele><time>2026-03-22T08:11:58.992Z</time></trkpt><trkpt lat="47.31865355062214" lon="-1.7485603263552734"><ele>79.33333333333333</ele><time>2026-03-22T08:11:59.992Z</time></trkpt><trkpt lat="47.31861785918054" lon="-1.74867919430352"><ele>79.5</ele><time>2026-03-22T08:12:00.992Z</time></trkpt><trkpt lat="47.31859084966188" lon="-1.7487885974089081"><ele>79.66666666666667</ele><time>2026-03-22T08:12:01.992Z</time></trkpt><trkpt lat="47.31854698719224" lon="-1.748881767732696"><ele>79.83333333333334</ele><time>2026-03-22T08:12:02.992Z</time></trkpt><trkpt lat="47.3184801400323" lon="-1.7489468557287189"><ele>80.0</ele><time>2026-03-22T08:12:03.992Z</time></trkpt><trkpt lat="47.31839617490385" lon="-1.7489932720454235"><ele>80.0</ele><time>2026-03-22T08:12:04.992Z</time></trkpt><trkpt lat="47.31832487113566" lon="-1.7490381109025632"><ele>80.0</ele><time>2026-03-22T08:12:05.992Z</time></trkpt><trkpt lat="47.31824598228046" lon="-1.7490748697397707"><ele>80.0</ele><time>2026-03-22T08:12:06.992Z</time></trkpt><trkpt lat="47.31816614585438" lon="-1.7491190970645956"><ele>80.0</ele><time>2026-03-22T08:12:07.992Z</time></trkpt><trkpt lat="47.31808558680652" lon="-1.749155830240208"><ele>80.0</ele><time>2026-03-22T08:12:08.992Z</time></trkpt><trkpt lat="47.31801350615512" lon="-1.7491982857301034"><ele>80.0</ele><time>2026-03-22T08:12:09.992Z</time></trkpt><trkpt lat="47.31793282331663" lon="-1.7492502542953132"><ele>80.16666666666667</ele><time>2026-03-22T08:12:10.992Z</time></trkpt><trkpt lat="47.31785568793372" lon="-1.7492810542060175"><ele>80.33333333333334</ele><time>2026-03-22T08:12:11.992Z</time></trkpt><trkpt lat="47.31777301996036" lon="-1.7493173402314046"><ele>80.5</ele><time>2026-03-22T08:12:12.992Z</time></trkpt><trkpt lat="47.31769286019331" lon="-1.749356967617147"><ele>80.66666666666667</ele><time>2026-03-22T08:12:13.992Z</time></trkpt><trkpt lat="47.31761025516201" lon="-1.7493816340729815"><ele>80.83333333333333</ele><time>2026-03-22T08:12:14.992Z</time></trkpt><trkpt lat="47.31753381337813" lon="-1.7494095545555106"><ele>81.0</ele><time>2026-03-22T08:12:15.992Z</time></trkpt><trkpt lat="47.31746518276437" lon="-1.7494495721472687"><ele>81.0</ele><time>2026-03-22T08:12:16.992Z</time></trkpt><trkpt lat="47.3173763050532" lon="-1.749467834088168"><ele>81.0</ele><time>2026-03-22T08:12:17.992Z</time></trkpt><trkpt lat="47.31730269453318" lon="-1.74948099119806"><ele>81.0</ele><time>2026-03-22T08:12:18.992Z</time></trkpt><trkpt lat="47.31721590482456" lon="-1.749517382073486"><ele>81.0</ele><time>2026-03-22T08:12:19.992Z</time></trkpt><trkpt lat="47.31713029318853" lon="-1.7495328754541748"><ele>81.0</ele><time>2026-03-22T08:12:20.992Z</time></trkpt><trkpt lat="47.317039910465084" lon="-1.7495684270478955"><ele>81.0</ele><time>2026-03-22T08:12:21.992Z</time></trkpt><trkpt lat="47.31694260857426" lon="-1.7495990493147962"><ele>80.6</ele><time>2026-03-22T08:12:22.992Z</time></trkpt><trkpt lat="47.31685515732202" lon="-1.7496213808796905"><ele>80.19999999999999</ele><time>2026-03-22T08:12:23.992Z</time></trkpt><trkpt lat="47.3167664206955" lon="-1.749642302667272"><ele>79.80000000000001</ele><time>2026-03-22T08:12:24.992Z</time></trkpt><trkpt lat="47.3166802820297" lon="-1.749669273373859"><ele>79.4</ele><time>2026-03-22T08:12:25.992Z</time></trkpt><trkpt lat="47.316585492223126" lon="-1.7496800183397165"><ele>79.0</ele><time>2026-03-22T08:12:26.992Z</time></trkpt><trkpt lat="47.31649153444259" lon="-1.7496903233965209"><ele>78.2</ele><time>2026-03-22T08:12:27.992Z</time></trkpt><trkpt lat="47.31639608514164" lon="-1.7496893301334933"><ele>77.4</ele><time>2026-03-22T08:12:28.992Z</time></trkpt><trkpt lat="47.316309425434575" lon="-1.7496891411079933"><ele>76.6</ele><time>2026-03-22T08:12:29.992Z</time></trkpt><trkpt lat="47.31621673599078" lon="-1.7496830633586904"><ele>75.8</ele><time>2026-03-22T08:12:30.992Z</time></trkpt><trkpt lat="47.31612365977408" lon="-1.74969186191503"><ele>75.0</ele><time>2026-03-22T08:12:31.992Z</time></trkpt><trkpt lat="47.3160336996256" lon="-1.7496836389787052"><ele>75.0</ele><time>2026-03-22T08:12:32.992Z</time></trkpt><trkpt lat="47.31594545663832" lon="-1.7496677026314655"><ele>75.0</ele><time>2026-03-22T08:12:33.992Z</time></trkpt><trkpt lat="47.31585627037087" lon="-1.7496659828403498"><ele>75.0</ele><time>2026-03-22T08:12:34.992Z</time></trkpt><trkpt lat="47.3157715956208" lon="-1.749655609145134"><ele>75.0</ele><time>2026-03-22T08:12:35.992Z</time></trkpt><trkpt lat="47.31568471005696" lon="-1.7496423979320128"><ele>75.0</ele><time>2026-03-22T08:12:36.992Z</time></trkpt><trkpt lat="47.31560279713053" lon="-1.749627899546573"><ele>75.0</ele><time>2026-03-22T08:12:37.992Z</time></trkpt><trkpt lat="47.315514333113214" lon="-1.7496280027984479"><ele>74.83333333333333</ele><time>2026-03-22T08:12:38.992Z</time></trkpt><trkpt lat="47.3154349341535" lon="-1.7496302220277058"><ele>74.66666666666667</ele><time>2026-03-22T08:12:39.992Z</time></trkpt><trkpt lat="47.31535626032264" lon="-1.7496421067541854"><ele>74.5</ele><time>2026-03-22T08:12:40.992Z</time></trkpt><trkpt lat="47.31528452103205" lon="-1.7496936138590928"><ele>74.33333333333334</ele><time>2026-03-22T08:12:41.992Z</time></trkpt><trkpt lat="47.31522610044603" lon="-1.7497897727173761"><ele>74.16666666666667</ele><time>2026-03-22T08:12:42.992Z</time></trkpt><trkpt lat="47.315195406367984" lon="-1.7499124164150721"><ele>74.0</ele><time>2026-03-22T08:12:43.992Z</time></trkpt><trkpt lat="47.315193745371225" lon="-1.7500415424487392"><ele>74.0</ele><time>2026-03-22T08:12:44.992Z</time></trkpt><trkpt lat="47.31520600931697" lon="-1.7501632820498194"><ele>74.0</ele><time>2026-03-22T08:12:45.991Z</time></trkpt><trkpt lat="47.31522205270068" lon="-1.7502853423538776"><ele>74.0</ele><time>2026-03-22T08:12:46.991Z</time></trkpt><trkpt lat="47.31523430823285" lon="-1.7503990097606237"><ele>74.0</ele><time>2026-03-22T08:12:47.991Z</time></trkpt><trkpt lat="47.31525459729407" lon="-1.7505080485593787"><ele>74.0</ele><time>2026-03-22T08:12:48.991Z</time></trkpt><trkpt lat="47.3152513637954" lon="-1.7506247677705014"><ele>74.0</ele><time>2026-03-22T08:12:49.991Z</time></trkpt><trkpt lat="47.31525925655913" lon="-1.7507306450166653"><ele>74.14285714285714</ele><time>2026-03-22T08:12:50.991Z</time></trkpt><trkpt lat="47.31527168743081" lon="-1.7508363006699843"><ele>74.28571428571428</ele><time>2026-03-22T08:12:51.991Z</time></trkpt><trkpt lat="47.315282870117045" lon="-1.75094582179294"><ele>74.42857142857142</ele><time>2026-03-22T08:12:52.991Z</time></trkpt><trkpt lat="47.315290564996815" lon="-1.7510566708261213"><ele>74.57142857142857</ele><time>2026-03-22T08:12:53.991Z</time></trkpt><trkpt lat="47.315298908700306" lon="-1.7511665551340372"><ele>74.71428571428571</ele><time>2026-03-22T08:12:54.991Z</time></trkpt><trkpt lat="47.31530507604287" lon="-1.7512776681575661"><ele>74.85714285714285</ele><time>2026-03-22T08:12:55.991Z</time></trkpt><trkpt lat="47.315315106132545" lon="-1.7513858628343852"><ele>75.0</ele><time>2026-03-22T08:12:56.991Z</time></trkpt><trkpt lat="47.31532755406274" lon="-1.7514949397332031"><ele>74.99999999999999</ele><time>2026-03-22T08:12:57.991Z</time></trkpt><trkpt lat="47.31533608256465" lon="-1.751598514902515"><ele>75.0</ele><time>2026-03-22T08:12:58.991Z</time></trkpt><trkpt lat="47.31533724385797" lon="-1.7516988976058463"><ele>75.0</ele><time>2026-03-22T08:12:59.991Z</time></trkpt><trkpt lat="47.31532666221818" lon="-1.7517988423593864"><ele>75.0</ele><time>2026-03-22T08:13:00.991Z</time></trkpt><trkpt lat="47.31530753693611" lon="-1.7518902752716579"><ele>75.0</ele><time>2026-03-22T08:13:01.991Z</time></trkpt><trkpt lat="47.31526879027546" lon="-1.751981458539968"><ele>74.99999999999999</ele><time>2026-03-22T08:13:02.991Z</time></trkpt><trkpt lat="47.31522079374533" lon="-1.7520589137533207"><ele>75.0</ele><time>2026-03-22T08:13:03.991Z</time></trkpt><trkpt lat="47.31516542465367" lon="-1.7521301747756388"><ele>74.85714285714285</ele><time>2026-03-22T08:13:04.991Z</time></trkpt><trkpt lat="47.31510572076825" lon="-1.7521755054681882"><ele>74.71428571428571</ele><time>2026-03-22T08:13:05.991Z</time></trkpt><trkpt lat="47.31503912477921" lon="-1.7522222154352043"><ele>74.57142857142857</ele><time>2026-03-22T08:13:06.991Z</time></trkpt><trkpt lat="47.31497900827795" lon="-1.752263112261122"><ele>74.42857142857142</ele><time>2026-03-22T08:13:07.991Z</time></trkpt><trkpt lat="47.31491388559067" lon="-1.7523033871233116"><ele>74.28571428571428</ele><time>2026-03-22T08:13:08.991Z</time></trkpt><trkpt lat="47.31484657637836" lon="-1.7523494288450345"><ele>74.14285714285714</ele><time>2026-03-22T08:13:09.991Z</time></trkpt><trkpt lat="47.31478462383035" lon="-1.7523857248917865"><ele>74.0</ele><time>2026-03-22T08:13:10.991Z</time></trkpt><trkpt lat="47.314724131113664" lon="-1.7524243286658105"><ele>74.0</ele><time>2026-03-22T08:13:11.991Z</time></trkpt><trkpt lat="47.31466157851831" lon="-1.7524638813232234"><ele>74.0</ele><time>2026-03-22T08:13:12.991Z</time></trkpt><trkpt lat="47.31460008145819" lon="-1.7525092674415412"><ele>74.0</ele><time>2026-03-22T08:13:13.991Z</time></trkpt><trkpt lat="47.314538099938495" lon="-1.752550861920867"><ele>74.0</ele><time>2026-03-22T08:13:14.991Z</time></trkpt><trkpt lat="47.31448212974862" lon="-1.7526036132817522"><ele>74.0</ele><time>2026-03-22T08:13:15.991Z</time></trkpt><trkpt lat="47.314417336105706" lon="-1.7526373991031394"><ele>74.0</ele><time>2026-03-22T08:13:16.991Z</time></trkpt><trkpt lat="47.314353996836" lon="-1.7526855596450692"><ele>74.0</ele><time>2026-03-22T08:13:17.991Z</time></trkpt><trkpt lat="47.31429305525764" lon="-1.7527251645812827"><ele>74.28571428571429</ele><time>2026-03-22T08:13:18.991Z</time></trkpt><trkpt lat="47.31422982952499" lon="-1.7527705083303733"><ele>74.57142857142857</ele><time>2026-03-22T08:13:19.991Z</time></trkpt><trkpt lat="47.31416881085223" lon="-1.7528154038134918"><ele>74.85714285714286</ele><time>2026-03-22T08:13:20.991Z</time></trkpt><trkpt lat="47.31410963758212" lon="-1.7528584021711462"><ele>75.14285714285714</ele><time>2026-03-22T08:13:21.991Z</time></trkpt><trkpt lat="47.31405023979481" lon="-1.7529053863610613"><ele>75.42857142857143</ele><time>2026-03-22T08:13:22.991Z</time></trkpt><trkpt lat="47.3139939329525" lon="-1.7529581487452461"><ele>75.71428571428571</ele><time>2026-03-22T08:13:23.991Z</time></trkpt><trkpt lat="47.31393385612109" lon="-1.7530110263051601"><ele>76.0</ele><time>2026-03-22T08:13:24.991Z</time></trkpt><trkpt lat="47.313875426970164" lon="-1.7530687204602788"><ele>76.0</ele><time>2026-03-22T08:13:25.991Z</time></trkpt><trkpt lat="47.313822691801406" lon="-1.7531434324460409"><ele>76.0</ele><time>2026-03-22T08:13:26.991Z</time></trkpt><trkpt lat="47.31377226006905" lon="-1.753213593360913"><ele>76.0</ele><time>2026-03-22T08:13:27.991Z</time></trkpt><trkpt lat="47.31372804044304" lon="-1.7532885989118197"><ele>76.0</ele><time>2026-03-22T08:13:28.991Z</time></trkpt><trkpt lat="47.31368187101747" lon="-1.7533617141763331"><ele>76.0</ele><time>2026-03-22T08:13:29.991Z</time></trkpt><trkpt lat="47.31363652649085" lon="-1.7534362867164779"><ele>76.0</ele><time>2026-03-22T08:13:30.991Z</time></trkpt><trkpt lat="47.31359683354908" lon="-1.753510036758521"><ele>76.0</ele><time>2026-03-22T08:13:31.991Z</time></trkpt><trkpt lat="47.313514592703385" lon="-1.7536516746941753"><ele>76.16666666666666</ele><time>2026-03-22T08:13:33.991Z</time></trkpt><trkpt lat="47.31347464860512" lon="-1.7537282468971616"><ele>76.33333333333333</ele><time>2026-03-22T08:13:34.991Z</time></trkpt><trkpt lat="47.31343418204186" lon="-1.75381124629611"><ele>76.5</ele><time>2026-03-22T08:13:35.991Z</time></trkpt><trkpt lat="47.31339320521498" lon="-1.7538860076143516"><ele>76.66666666666667</ele><time>2026-03-22T08:13:36.991Z</time></trkpt><trkpt lat="47.31330694491551" lon="-1.7540304471970003"><ele>76.83333333333334</ele><time>2026-03-22T08:13:38.991Z</time></trkpt><trkpt lat="47.313263252552105" lon="-1.7541051938488927"><ele>77.0</ele><time>2026-03-22T08:13:39.991Z</time></trkpt><trkpt lat="47.313218110053015" lon="-1.7541759356623365"><ele>77.0</ele><time>2026-03-22T08:13:40.991Z</time></trkpt><trkpt lat="47.3131280824717" lon="-1.754312336084955"><ele>77.0</ele><time>2026-03-22T08:13:42.991Z</time></trkpt><trkpt lat="47.31304444457679" lon="-1.7544395287231447"><ele>77.0</ele><time>2026-03-22T08:13:44.991Z</time></trkpt><trkpt lat="47.31295994425697" lon="-1.754533801293483"><ele>77.0</ele><time>2026-03-22T08:13:46.991Z</time></trkpt><trkpt lat="47.31290581032272" lon="-1.7545846841143211"><ele>77.0</ele><time>2026-03-22T08:13:47.991Z</time></trkpt><trkpt lat="47.3128202785957" lon="-1.754666142446752"><ele>77.25</ele><time>2026-03-22T08:13:49.991Z</time></trkpt><trkpt lat="47.31271283877057" lon="-1.7547427270624445"><ele>77.5</ele><time>2026-03-22T08:13:51.991Z</time></trkpt><trkpt lat="47.31261274926188" lon="-1.7548249237717681"><ele>77.75</ele><time>2026-03-22T08:13:53.991Z</time></trkpt><trkpt lat="47.312518378804214" lon="-1.7548965858892074"><ele>78.0</ele><time>2026-03-22T08:13:55.991Z</time></trkpt><trkpt lat="47.312407874938415" lon="-1.7549790295548904"><ele>78.0</ele><time>2026-03-22T08:13:57.991Z</time></trkpt><trkpt lat="47.31230557248904" lon="-1.7550802559099403"><ele>78.0</ele><time>2026-03-22T08:13:59.991Z</time></trkpt><trkpt lat="47.3122520711668" lon="-1.7551360579581148"><ele>78.0</ele><time>2026-03-22T08:14:00.991Z</time></trkpt><trkpt lat="47.31219876530196" lon="-1.7551929850552952"><ele>78.0</ele><time>2026-03-22T08:14:01.991Z</time></trkpt><trkpt lat="47.312142887806196" lon="-1.7552484891447273"><ele>78.0</ele><time>2026-03-22T08:14:02.991Z</time></trkpt><trkpt lat="47.31208743019461" lon="-1.7553040101427153"><ele>78.0</ele><time>2026-03-22T08:14:03.991Z</time></trkpt><trkpt lat="47.31198788165568" lon="-1.75541608134008"><ele>78.5</ele><time>2026-03-22T08:14:05.991Z</time></trkpt><trkpt lat="47.31194349942577" lon="-1.7554892099124164"><ele>79.0</ele><time>2026-03-22T08:14:06.991Z</time></trkpt><trkpt lat="47.311905155552616" lon="-1.7555646704578352"><ele>79.5</ele><time>2026-03-22T08:14:07.991Z</time></trkpt><trkpt lat="47.31188606176002" lon="-1.7557487204699422"><ele>80.0</ele><time>2026-03-22T08:14:09.991Z</time></trkpt><trkpt lat="47.31189703918706" lon="-1.7558471079379352"><ele>80.5</ele><time>2026-03-22T08:14:10.991Z</time></trkpt><trkpt lat="47.31192087108896" lon="-1.7559360504288113"><ele>81.0</ele><time>2026-03-22T08:14:11.991Z</time></trkpt><trkpt lat="47.31195395329939" lon="-1.7560193628734189"><ele>81.19999999999999</ele><time>2026-03-22T08:14:12.991Z</time></trkpt><trkpt lat="47.311994568192354" lon="-1.7560982830773841"><ele>81.39999999999999</ele><time>2026-03-22T08:14:13.991Z</time></trkpt><trkpt lat="47.312035474239515" lon="-1.7561745663747919"><ele>81.6</ele><time>2026-03-22T08:14:14.991Z</time></trkpt><trkpt lat="47.31208789346645" lon="-1.7563346386278071"><ele>81.8</ele><time>2026-03-22T08:14:16.991Z</time></trkpt><trkpt lat="47.31209917831117" lon="-1.7565157493424697"><ele>82.0</ele><time>2026-03-22T08:14:18.991Z</time></trkpt><trkpt lat="47.31205814795247" lon="-1.7566048628614184"><ele>82.0</ele><time>2026-03-22T08:14:19.991Z</time></trkpt><trkpt lat="47.31196077721471" lon="-1.7567174175184683"><ele>82.0</ele><time>2026-03-22T08:14:21.991Z</time></trkpt><trkpt lat="47.311847277785496" lon="-1.7567784085052585"><ele>82.0</ele><time>2026-03-22T08:14:23.991Z</time></trkpt><trkpt lat="47.31178404949816" lon="-1.7568042626444005"><ele>82.0</ele><time>2026-03-22T08:14:24.991Z</time></trkpt><trkpt lat="47.31168703791781" lon="-1.7568538610839617"><ele>82.0</ele><time>2026-03-22T08:14:26.991Z</time></trkpt><trkpt lat="47.31159532716068" lon="-1.756901972470679"><ele>82.19999999999999</ele><time>2026-03-22T08:14:28.991Z</time></trkpt><trkpt lat="47.31153574184019" lon="-1.7569402411848203"><ele>82.4</ele><time>2026-03-22T08:14:29.991Z</time></trkpt><trkpt lat="47.31142633179598" lon="-1.7569944762865726"><ele>82.6</ele><time>2026-03-22T08:14:31.991Z</time></trkpt><trkpt lat="47.31132119785464" lon="-1.7570389913963644"><ele>82.80000000000001</ele><time>2026-03-22T08:14:33.991Z</time></trkpt><trkpt lat="47.31121647569339" lon="-1.757103417769512"><ele>83.0</ele><time>2026-03-22T08:14:35.991Z</time></trkpt><trkpt lat="47.31111055061856" lon="-1.7571692562566"><ele>83.0</ele><time>2026-03-22T08:14:37.991Z</time></trkpt><trkpt lat="47.31101081920749" lon="-1.7572382325192515"><ele>83.0</ele><time>2026-03-22T08:14:39.991Z</time></trkpt><trkpt lat="47.31090848636825" lon="-1.7572943272119659"><ele>83.0</ele><time>2026-03-22T08:14:41.991Z</time></trkpt><trkpt lat="47.31080616159826" lon="-1.7573572555750414"><ele>83.0</ele><time>2026-03-22T08:14:43.991Z</time></trkpt><trkpt lat="47.31071324114905" lon="-1.7574413412963379"><ele>83.0</ele><time>2026-03-22T08:14:45.991Z</time></trkpt><trkpt lat="47.31062588445325" lon="-1.7575172505365768"><ele>83.4</ele><time>2026-03-22T08:14:47.991Z</time></trkpt><trkpt lat="47.310533672448464" lon="-1.7575945830264692"><ele>83.80000000000001</ele><time>2026-03-22T08:14:49.991Z</time></trkpt><trkpt lat="47.310429113623385" lon="-1.7576535961452617"><ele>84.2</ele><time>2026-03-22T08:14:51.991Z</time></trkpt><trkpt lat="47.310337759328235" lon="-1.7577241989097208"><ele>84.6</ele><time>2026-03-22T08:14:53.991Z</time></trkpt><trkpt lat="47.310231034327074" lon="-1.7577484454566217"><ele>85.0</ele><time>2026-03-22T08:14:55.991Z</time></trkpt><trkpt lat="47.310117628654396" lon="-1.7577619472781563"><ele>85.4</ele><time>2026-03-22T08:14:57.991Z</time></trkpt><trkpt lat="47.31000921221305" lon="-1.7577726295253204"><ele>85.8</ele><time>2026-03-22T08:14:59.991Z</time></trkpt><trkpt lat="47.309895559949375" lon="-1.757799285540708"><ele>86.19999999999999</ele><time>2026-03-22T08:15:01.991Z</time></trkpt><trkpt lat="47.30978983228767" lon="-1.7578151694554496"><ele>86.6</ele><time>2026-03-22T08:15:03.99Z</time></trkpt><trkpt lat="47.30969841812371" lon="-1.7578226997069102"><ele>87.0</ele><time>2026-03-22T08:15:05.99Z</time></trkpt><trkpt lat="47.309596633585684" lon="-1.7578206293349339"><ele>87.0</ele><time>2026-03-22T08:15:07.99Z</time></trkpt><trkpt lat="47.30949171185251" lon="-1.7578451737002099"><ele>87.0</ele><time>2026-03-22T08:15:09.99Z</time></trkpt><trkpt lat="47.309389607338474" lon="-1.7578650777465858"><ele>87.0</ele><time>2026-03-22T08:15:11.99Z</time></trkpt><trkpt lat="47.30928587263364" lon="-1.7579002200934737"><ele>87.0</ele><time>2026-03-22T08:15:13.99Z</time></trkpt><trkpt lat="47.3091679995484" lon="-1.757944591960232"><ele>87.0</ele><time>2026-03-22T08:15:15.99Z</time></trkpt><trkpt lat="47.3090607358478" lon="-1.7579978659093365"><ele>87.0</ele><time>2026-03-22T08:15:17.99Z</time></trkpt><trkpt lat="47.3089580495486" lon="-1.758079044252071"><ele>87.0</ele><time>2026-03-22T08:15:19.99Z</time></trkpt><trkpt lat="47.30885762743434" lon="-1.7581521328362562"><ele>87.0</ele><time>2026-03-22T08:15:21.99Z</time></trkpt><trkpt lat="47.30875729214491" lon="-1.758228537577113"><ele>87.0</ele><time>2026-03-22T08:15:23.99Z</time></trkpt><trkpt lat="47.30866153757446" lon="-1.7583043602836985"><ele>87.19999999999999</ele><time>2026-03-22T08:15:25.99Z</time></trkpt><trkpt lat="47.308571033210754" lon="-1.7583575866819448"><ele>87.4</ele><time>2026-03-22T08:15:27.99Z</time></trkpt><trkpt lat="47.30848477977405" lon="-1.7583956113968158"><ele>87.6</ele><time>2026-03-22T08:15:29.99Z</time></trkpt><trkpt lat="47.30839238028951" lon="-1.7584700310845818"><ele>87.80000000000001</ele><time>2026-03-22T08:15:31.99Z</time></trkpt><trkpt lat="47.30830076003962" lon="-1.7585298528155529"><ele>88.0</ele><time>2026-03-22T08:15:33.99Z</time></trkpt><trkpt lat="47.308212541326924" lon="-1.758596685782024"><ele>88.0</ele><time>2026-03-22T08:15:35.99Z</time></trkpt><trkpt lat="47.308126828570046" lon="-1.758691871437458"><ele>88.0</ele><time>2026-03-22T08:15:37.99Z</time></trkpt><trkpt lat="47.30808320460381" lon="-1.7588573619821197"><ele>88.0</ele><time>2026-03-22T08:15:39.99Z</time></trkpt><trkpt lat="47.30805819013748" lon="-1.7590249426816995"><ele>88.0</ele><time>2026-03-22T08:15:41.99Z</time></trkpt><trkpt lat="47.30803746123418" lon="-1.7591909488100117"><ele>88.0</ele><time>2026-03-22T08:15:43.99Z</time></trkpt><trkpt lat="47.30802309241963" lon="-1.7593524719958964"><ele>88.0</ele><time>2026-03-22T08:15:45.99Z</time></trkpt><trkpt lat="47.30801752162309" lon="-1.7595143801237758"><ele>88.0</ele><time>2026-03-22T08:15:47.99Z</time></trkpt><trkpt lat="47.30799835326572" lon="-1.7596675892004905"><ele>88.0</ele><time>2026-03-22T08:15:49.99Z</time></trkpt><trkpt lat="47.30793864813265" lon="-1.7597828437205938"><ele>88.0</ele><time>2026-03-22T08:15:51.991Z</time></trkpt><trkpt lat="47.307875893080926" lon="-1.7599080936446698"><ele>88.0</ele><time>2026-03-22T08:15:53.991Z</time></trkpt><trkpt lat="47.3078140774715" lon="-1.7600295648462845"><ele>88.0</ele><time>2026-03-22T08:15:55.991Z</time></trkpt><trkpt lat="47.3077570703873" lon="-1.7601354347762002"><ele>88.0</ele><time>2026-03-22T08:15:57.991Z</time></trkpt><trkpt lat="47.30768749155765" lon="-1.7602563287145312"><ele>88.0</ele><time>2026-03-22T08:15:59.991Z</time></trkpt><trkpt lat="47.30762210564046" lon="-1.7603663005054015"><ele>88.0</ele><time>2026-03-22T08:16:01.991Z</time></trkpt><trkpt lat="47.30755729412981" lon="-1.760498930547787"><ele>88.0</ele><time>2026-03-22T08:16:03.991Z</time></trkpt><trkpt lat="47.30748020720156" lon="-1.7606277920679196"><ele>88.0</ele><time>2026-03-22T08:16:05.991Z</time></trkpt><trkpt lat="47.30741473439422" lon="-1.7607687642102425"><ele>88.0</ele><time>2026-03-22T08:16:07.991Z</time></trkpt><trkpt lat="47.30734415461186" lon="-1.7608991751179301"><ele>88.0</ele><time>2026-03-22T08:16:09.991Z</time></trkpt><trkpt lat="47.30728844317278" lon="-1.7610475350757313"><ele>88.4</ele><time>2026-03-22T08:16:11.991Z</time></trkpt><trkpt lat="47.307291325338554" lon="-1.7612078122836794"><ele>88.80000000000001</ele><time>2026-03-22T08:16:13.991Z</time></trkpt><trkpt lat="47.307337633770906" lon="-1.761373810638813"><ele>89.2</ele><time>2026-03-22T08:16:15.991Z</time></trkpt><trkpt lat="47.307381819359605" lon="-1.7615041637343132"><ele>89.6</ele><time>2026-03-22T08:16:17.991Z</time></trkpt><trkpt lat="47.30741075277329" lon="-1.7616490123708137"><ele>90.0</ele><time>2026-03-22T08:16:19.991Z</time></trkpt><trkpt lat="47.3074074009454" lon="-1.7617852209855545"><ele>89.66666666666667</ele><time>2026-03-22T08:16:21.991Z</time></trkpt><trkpt lat="47.30737701040391" lon="-1.7619086152848524"><ele>89.33333333333333</ele><time>2026-03-22T08:16:23.991Z</time></trkpt><trkpt lat="47.30733102397793" lon="-1.7619986737354891"><ele>89.0</ele><time>2026-03-22T08:16:25.991Z</time></trkpt><trkpt lat="47.307258433777974" lon="-1.7621097107350547"><ele>88.66666666666666</ele><time>2026-03-22T08:16:28.991Z</time></trkpt><trkpt lat="47.30722740414677" lon="-1.7621925267571328"><ele>88.33333333333333</ele><time>2026-03-22T08:16:30.991Z</time></trkpt><trkpt lat="47.30719051888653" lon="-1.76230276223141"><ele>88.0</ele><time>2026-03-22T08:16:34.991Z</time></trkpt><trkpt lat="47.307118520013155" lon="-1.762444746355725"><ele>87.60000000000001</ele><time>2026-03-22T08:16:37.991Z</time></trkpt><trkpt lat="47.30703987866288" lon="-1.7625825051208355"><ele>87.2</ele><time>2026-03-22T08:16:38.991Z</time></trkpt><trkpt lat="47.30699645110283" lon="-1.7626546663805656"><ele>86.8</ele><time>2026-03-22T08:16:39.991Z</time></trkpt><trkpt lat="47.30690903186047" lon="-1.762769521488064"><ele>86.4</ele><time>2026-03-22T08:16:41.991Z</time></trkpt><trkpt lat="47.30681627826507" lon="-1.7628710284967422"><ele>86.0</ele><time>2026-03-22T08:16:43.991Z</time></trkpt><trkpt lat="47.30672249151585" lon="-1.762989293500115"><ele>86.00000000000001</ele><time>2026-03-22T08:16:45.991Z</time></trkpt><trkpt lat="47.30667297434208" lon="-1.7630486976329791"><ele>86.0</ele><time>2026-03-22T08:16:46.991Z</time></trkpt><trkpt lat="47.30662439546653" lon="-1.763108101014489"><ele>86.0</ele><time>2026-03-22T08:16:47.991Z</time></trkpt><trkpt lat="47.306574086610645" lon="-1.7631682297060722"><ele>86.0</ele><time>2026-03-22T08:16:48.991Z</time></trkpt><trkpt lat="47.306513020491835" lon="-1.7632161883309583"><ele>86.0</ele><time>2026-03-22T08:16:49.991Z</time></trkpt><trkpt lat="47.30645103966007" lon="-1.7632682213595565"><ele>86.00000000000001</ele><time>2026-03-22T08:16:50.991Z</time></trkpt><trkpt lat="47.306386941698925" lon="-1.763322028914631"><ele>86.0</ele><time>2026-03-22T08:16:51.991Z</time></trkpt><trkpt lat="47.306324287139105" lon="-1.7633811035685412"><ele>85.83333333333334</ele><time>2026-03-22T08:16:52.991Z</time></trkpt><trkpt lat="47.30626178214333" lon="-1.763440337826595"><ele>85.66666666666667</ele><time>2026-03-22T08:16:53.991Z</time></trkpt><trkpt lat="47.30619630164622" lon="-1.7634978939486106"><ele>85.5</ele><time>2026-03-22T08:16:54.991Z</time></trkpt><trkpt lat="47.306129130906406" lon="-1.763546318383911"><ele>85.33333333333333</ele><time>2026-03-22T08:16:55.991Z</time></trkpt><trkpt lat="47.30606622705871" lon="-1.7636055571998304"><ele>85.16666666666666</ele><time>2026-03-22T08:16:56.991Z</time></trkpt><trkpt lat="47.30599926450947" lon="-1.7636645374988238"><ele>85.0</ele><time>2026-03-22T08:16:57.991Z</time></trkpt><trkpt lat="47.30593224669942" lon="-1.7637150705267775"><ele>85.0</ele><time>2026-03-22T08:16:58.991Z</time></trkpt><trkpt lat="47.305865130125454" lon="-1.763773610163228"><ele>85.0</ele><time>2026-03-22T08:16:59.991Z</time></trkpt><trkpt lat="47.30579865019176" lon="-1.7638365034812378"><ele>85.0</ele><time>2026-03-22T08:17:00.991Z</time></trkpt><trkpt lat="47.30573448142511" lon="-1.763907273492794"><ele>85.0</ele><time>2026-03-22T08:17:01.991Z</time></trkpt><trkpt lat="47.30567280080205" lon="-1.763984389285368"><ele>85.0</ele><time>2026-03-22T08:17:02.991Z</time></trkpt><trkpt lat="47.30561628316565" lon="-1.7640656519790507"><ele>85.0</ele><time>2026-03-22T08:17:03.991Z</time></trkpt><trkpt lat="47.3055581791519" lon="-1.7641501367013328"><ele>84.66666666666666</ele><time>2026-03-22T08:17:04.991Z</time></trkpt><trkpt lat="47.305499820315596" lon="-1.7642365561596114"><ele>84.33333333333333</ele><time>2026-03-22T08:17:05.991Z</time></trkpt><trkpt lat="47.305443656282954" lon="-1.7643253291686256"><ele>84.0</ele><time>2026-03-22T08:17:06.991Z</time></trkpt><trkpt lat="47.30538606514587" lon="-1.76441685697335"><ele>83.66666666666667</ele><time>2026-03-22T08:17:07.991Z</time></trkpt><trkpt lat="47.305328613876505" lon="-1.7645030497189869"><ele>83.33333333333334</ele><time>2026-03-22T08:17:08.991Z</time></trkpt><trkpt lat="47.30527297970329" lon="-1.7645938071058656"><ele>83.0</ele><time>2026-03-22T08:17:09.991Z</time></trkpt><trkpt lat="47.30521690946082" lon="-1.7646848268217163"><ele>82.83333333333334</ele><time>2026-03-22T08:17:10.991Z</time></trkpt><trkpt lat="47.305158393849105" lon="-1.7647767675174915"><ele>82.66666666666667</ele><time>2026-03-22T08:17:11.991Z</time></trkpt><trkpt lat="47.30509996095976" lon="-1.7648737466084814"><ele>82.5</ele><time>2026-03-22T08:17:12.991Z</time></trkpt><trkpt lat="47.30504071222795" lon="-1.7649643649555142"><ele>82.33333333333333</ele><time>2026-03-22T08:17:13.992Z</time></trkpt><trkpt lat="47.30498340107278" lon="-1.7650664028522853"><ele>82.16666666666666</ele><time>2026-03-22T08:17:14.991Z</time></trkpt><trkpt lat="47.304924424291976" lon="-1.7651528668265148"><ele>82.0</ele><time>2026-03-22T08:17:15.991Z</time></trkpt><trkpt lat="47.30486685552372" lon="-1.7652498683256634"><ele>81.83333333333333</ele><time>2026-03-22T08:17:16.991Z</time></trkpt><trkpt lat="47.30481471827858" lon="-1.7653504290546902"><ele>81.66666666666666</ele><time>2026-03-22T08:17:17.991Z</time></trkpt><trkpt lat="47.304763345724915" lon="-1.7654514704162354"><ele>81.5</ele><time>2026-03-22T08:17:18.991Z</time></trkpt><trkpt lat="47.30471877923873" lon="-1.7655612428815095"><ele>81.33333333333333</ele><time>2026-03-22T08:17:19.991Z</time></trkpt><trkpt lat="47.30467428166859" lon="-1.7656602291375638"><ele>81.16666666666667</ele><time>2026-03-22T08:17:20.991Z</time></trkpt><trkpt lat="47.30462829393028" lon="-1.7657666292296816"><ele>81.0</ele><time>2026-03-22T08:17:21.991Z</time></trkpt><trkpt lat="47.30458263956422" lon="-1.7658616644159684"><ele>81.0</ele><time>2026-03-22T08:17:22.991Z</time></trkpt><trkpt lat="47.30453643512228" lon="-1.765954956444091"><ele>81.0</ele><time>2026-03-22T08:17:23.991Z</time></trkpt><trkpt lat="47.30449303296636" lon="-1.766038142924654"><ele>81.0</ele><time>2026-03-22T08:17:24.991Z</time></trkpt><trkpt lat="47.30444648854372" lon="-1.7661137474227526"><ele>81.0</ele><time>2026-03-22T08:17:25.991Z</time></trkpt><trkpt lat="47.30440389696301" lon="-1.766218676670719"><ele>81.0</ele><time>2026-03-22T08:17:26.991Z</time></trkpt><trkpt lat="47.304362931301355" lon="-1.7663170327114126"><ele>81.0</ele><time>2026-03-22T08:17:27.991Z</time></trkpt><trkpt lat="47.30431439669822" lon="-1.766412213704638"><ele>81.0</ele><time>2026-03-22T08:17:28.991Z</time></trkpt><trkpt lat="47.3042781997892" lon="-1.7665173484914056"><ele>81.0</ele><time>2026-03-22T08:17:29.991Z</time></trkpt><trkpt lat="47.30425089554006" lon="-1.7666217781792986"><ele>81.0</ele><time>2026-03-22T08:17:30.991Z</time></trkpt><trkpt lat="47.304239471186314" lon="-1.766732846593348"><ele>81.0</ele><time>2026-03-22T08:17:31.991Z</time></trkpt><trkpt lat="47.30424102700733" lon="-1.7668554745290073"><ele>81.0</ele><time>2026-03-22T08:17:32.991Z</time></trkpt><trkpt lat="47.30424817565714" lon="-1.7669651035645655"><ele>81.0</ele><time>2026-03-22T08:17:33.991Z</time></trkpt><trkpt lat="47.304272423509595" lon="-1.7670668761476194"><ele>81.0</ele><time>2026-03-22T08:17:34.991Z</time></trkpt><trkpt lat="47.304295088949715" lon="-1.7671707006872788"><ele>81.0</ele><time>2026-03-22T08:17:35.991Z</time></trkpt><trkpt lat="47.304330437676484" lon="-1.7672708495168563"><ele>81.0</ele><time>2026-03-22T08:17:36.991Z</time></trkpt><trkpt lat="47.30435971930667" lon="-1.7673760706301311"><ele>81.0</ele><time>2026-03-22T08:17:37.991Z</time></trkpt><trkpt lat="47.30437758812218" lon="-1.7674799769675147"><ele>81.0</ele><time>2026-03-22T08:17:38.991Z</time></trkpt><trkpt lat="47.30440038273756" lon="-1.7675835400941113"><ele>81.0</ele><time>2026-03-22T08:17:39.991Z</time></trkpt><trkpt lat="47.304406256561045" lon="-1.767688173416534"><ele>81.0</ele><time>2026-03-22T08:17:40.991Z</time></trkpt><trkpt lat="47.30440541567461" lon="-1.7678022262832283"><ele>80.83333333333333</ele><time>2026-03-22T08:17:41.991Z</time></trkpt><trkpt lat="47.30439715386355" lon="-1.7679153213542398"><ele>80.66666666666667</ele><time>2026-03-22T08:17:42.991Z</time></trkpt><trkpt lat="47.30438646892546" lon="-1.7680261323895394"><ele>80.5</ele><time>2026-03-22T08:17:43.991Z</time></trkpt><trkpt lat="47.30437806042488" lon="-1.7681421348203235"><ele>80.33333333333334</ele><time>2026-03-22T08:17:44.991Z</time></trkpt><trkpt lat="47.3043662105154" lon="-1.7682574989445556"><ele>80.16666666666667</ele><time>2026-03-22T08:17:45.991Z</time></trkpt><trkpt lat="47.30435252031253" lon="-1.7683735554600981"><ele>80.0</ele><time>2026-03-22T08:17:46.991Z</time></trkpt><trkpt lat="47.30434213157423" lon="-1.7684901197828549"><ele>79.66666666666667</ele><time>2026-03-22T08:17:47.991Z</time></trkpt><trkpt lat="47.304330966044176" lon="-1.7686071603807791"><ele>79.33333333333334</ele><time>2026-03-22T08:17:48.991Z</time></trkpt><trkpt lat="47.304323355573935" lon="-1.7687103164044962"><ele>79.0</ele><time>2026-03-22T08:17:49.991Z</time></trkpt><trkpt lat="47.30433685543761" lon="-1.768819623810413"><ele>78.66666666666667</ele><time>2026-03-22T08:17:50.991Z</time></trkpt><trkpt lat="47.30436590282529" lon="-1.7689245634257849"><ele>78.33333333333333</ele><time>2026-03-22T08:17:51.991Z</time></trkpt><trkpt lat="47.30440017930213" lon="-1.7690240843108425"><ele>78.0</ele><time>2026-03-22T08:17:52.991Z</time></trkpt><trkpt lat="47.3044267822256" lon="-1.7691234983782682"><ele>78.0</ele><time>2026-03-22T08:17:53.991Z</time></trkpt><trkpt lat="47.304464622442936" lon="-1.7692190920750643"><ele>78.0</ele><time>2026-03-22T08:17:54.991Z</time></trkpt><trkpt lat="47.304482885819745" lon="-1.7693233363168417"><ele>78.0</ele><time>2026-03-22T08:17:55.991Z</time></trkpt><trkpt lat="47.30451244766456" lon="-1.7694181745935151"><ele>78.0</ele><time>2026-03-22T08:17:56.992Z</time></trkpt><trkpt lat="47.30454174512663" lon="-1.7695213906650533"><ele>78.0</ele><time>2026-03-22T08:17:57.992Z</time></trkpt><trkpt lat="47.30457310807908" lon="-1.7696215129587016"><ele>78.0</ele><time>2026-03-22T08:17:58.992Z</time></trkpt><trkpt lat="47.30460620843308" lon="-1.7697185718971955"><ele>78.0</ele><time>2026-03-22T08:17:59.992Z</time></trkpt><trkpt lat="47.30463731426076" lon="-1.7698194120295068"><ele>78.0</ele><time>2026-03-22T08:18:00.991Z</time></trkpt><trkpt lat="47.30465852678775" lon="-1.7699226873400618"><ele>78.0</ele><time>2026-03-22T08:18:01.991Z</time></trkpt><trkpt lat="47.30466719345416" lon="-1.7700351081692713"><ele>78.0</ele><time>2026-03-22T08:18:02.992Z</time></trkpt><trkpt lat="47.304662764538584" lon="-1.7701498266766837"><ele>78.0</ele><time>2026-03-22T08:18:03.991Z</time></trkpt><trkpt lat="47.304651553122426" lon="-1.7702650814448915"><ele>78.0</ele><time>2026-03-22T08:18:04.991Z</time></trkpt><trkpt lat="47.3046547122918" lon="-1.7703861369871166"><ele>78.0</ele><time>2026-03-22T08:18:05.992Z</time></trkpt><trkpt lat="47.30466693088552" lon="-1.7705009649219978"><ele>78.0</ele><time>2026-03-22T08:18:06.991Z</time></trkpt><trkpt lat="47.30467375653875" lon="-1.7706189651405546"><ele>78.0</ele><time>2026-03-22T08:18:07.991Z</time></trkpt><trkpt lat="47.30467903626417" lon="-1.7707368617433341"><ele>78.0</ele><time>2026-03-22T08:18:08.992Z</time></trkpt><trkpt lat="47.30468337834092" lon="-1.7708523952565045"><ele>78.0</ele><time>2026-03-22T08:18:09.991Z</time></trkpt><trkpt lat="47.304694458837005" lon="-1.7709647519223939"><ele>78.0</ele><time>2026-03-22T08:18:10.991Z</time></trkpt><trkpt lat="47.304707241447474" lon="-1.7710803013351166"><ele>78.0</ele><time>2026-03-22T08:18:11.991Z</time></trkpt><trkpt lat="47.30470963107894" lon="-1.7711966919345057"><ele>78.0</ele><time>2026-03-22T08:18:12.991Z</time></trkpt><trkpt lat="47.304719960748045" lon="-1.771311916586567"><ele>78.0</ele><time>2026-03-22T08:18:13.991Z</time></trkpt><trkpt lat="47.30472950185258" lon="-1.7714235106525489"><ele>78.0</ele><time>2026-03-22T08:18:14.991Z</time></trkpt><trkpt lat="47.304737181081606" lon="-1.771534916266513"><ele>78.0</ele><time>2026-03-22T08:18:15.991Z</time></trkpt><trkpt lat="47.3047465817494" lon="-1.7716472214328272"><ele>78.0</ele><time>2026-03-22T08:18:16.991Z</time></trkpt><trkpt lat="47.30475893881043" lon="-1.7717550508144533"><ele>78.0</ele><time>2026-03-22T08:18:17.991Z</time></trkpt><trkpt lat="47.304773090499324" lon="-1.7718654423085702"><ele>77.42857142857143</ele><time>2026-03-22T08:18:18.991Z</time></trkpt><trkpt lat="47.3047841360916" lon="-1.7719686871606317"><ele>76.85714285714285</ele><time>2026-03-22T08:18:19.991Z</time></trkpt><trkpt lat="47.30480084483284" lon="-1.7720742836807986"><ele>76.28571428571428</ele><time>2026-03-22T08:18:20.991Z</time></trkpt><trkpt lat="47.304819067981484" lon="-1.7721836619820293"><ele>75.71428571428572</ele><time>2026-03-22T08:18:21.991Z</time></trkpt><trkpt lat="47.30483681148138" lon="-1.7722874210445996"><ele>75.14285714285714</ele><time>2026-03-22T08:18:22.991Z</time></trkpt><trkpt lat="47.30485787783047" lon="-1.7723950199316778"><ele>74.57142857142857</ele><time>2026-03-22T08:18:23.991Z</time></trkpt><trkpt lat="47.3048815646291" lon="-1.7725027740353094"><ele>74.0</ele><time>2026-03-22T08:18:24.991Z</time></trkpt><trkpt lat="47.30490560960392" lon="-1.7726142784787577"><ele>74.0</ele><time>2026-03-22T08:18:25.991Z</time></trkpt><trkpt lat="47.30492710383926" lon="-1.772725039235432"><ele>74.0</ele><time>2026-03-22T08:18:26.991Z</time></trkpt><trkpt lat="47.30495733264963" lon="-1.772839468458345"><ele>74.0</ele><time>2026-03-22T08:18:27.991Z</time></trkpt><trkpt lat="47.304984945835876" lon="-1.7729545046852817"><ele>74.0</ele><time>2026-03-22T08:18:28.991Z</time></trkpt><trkpt lat="47.30501555708759" lon="-1.7730751931056148"><ele>74.0</ele><time>2026-03-22T08:18:29.991Z</time></trkpt><trkpt lat="47.30503805337149" lon="-1.773193691608122"><ele>74.0</ele><time>2026-03-22T08:18:30.991Z</time></trkpt><trkpt lat="47.30506127472356" lon="-1.7733189255845774"><ele>74.0</ele><time>2026-03-22T08:18:31.991Z</time></trkpt><trkpt lat="47.305085089518904" lon="-1.7734448986983053"><ele>74.0</ele><time>2026-03-22T08:18:32.991Z</time></trkpt><trkpt lat="47.30511109042069" lon="-1.7735703520123933"><ele>74.0</ele><time>2026-03-22T08:18:33.991Z</time></trkpt><trkpt lat="47.305141423660686" lon="-1.7736995962827093"><ele>74.0</ele><time>2026-03-22T08:18:34.991Z</time></trkpt><trkpt lat="47.30516460428346" lon="-1.7738334953415216"><ele>74.0</ele><time>2026-03-22T08:18:35.991Z</time></trkpt><trkpt lat="47.3051897275626" lon="-1.7739682620782555"><ele>73.8</ele><time>2026-03-22T08:18:36.991Z</time></trkpt><trkpt lat="47.30522288904288" lon="-1.7741015017666395"><ele>73.60000000000001</ele><time>2026-03-22T08:18:37.991Z</time></trkpt><trkpt lat="47.30524373581791" lon="-1.7742385001741912"><ele>73.4</ele><time>2026-03-22T08:18:38.991Z</time></trkpt><trkpt lat="47.30526684093953" lon="-1.7743695487758337"><ele>73.2</ele><time>2026-03-22T08:18:39.991Z</time></trkpt><trkpt lat="47.30529866100973" lon="-1.774492901438001"><ele>73.0</ele><time>2026-03-22T08:18:40.991Z</time></trkpt><trkpt lat="47.30532631422151" lon="-1.7746165223473602"><ele>73.0</ele><time>2026-03-22T08:18:41.991Z</time></trkpt><trkpt lat="47.3053483196184" lon="-1.7747349736132143"><ele>73.0</ele><time>2026-03-22T08:18:42.991Z</time></trkpt><trkpt lat="47.305370755748974" lon="-1.7748509186013808"><ele>73.0</ele><time>2026-03-22T08:18:43.991Z</time></trkpt><trkpt lat="47.30538782904842" lon="-1.77495964065566"><ele>73.0</ele><time>2026-03-22T08:18:44.991Z</time></trkpt><trkpt lat="47.30540494302185" lon="-1.7750679199070205"><ele>73.0</ele><time>2026-03-22T08:18:45.991Z</time></trkpt><trkpt lat="47.30542900925394" lon="-1.7751767644525889"><ele>73.0</ele><time>2026-03-22T08:18:46.991Z</time></trkpt><trkpt lat="47.30544867214047" lon="-1.7752753751778347"><ele>73.0</ele><time>2026-03-22T08:18:47.991Z</time></trkpt><trkpt lat="47.30546494028645" lon="-1.7753769626776572"><ele>73.0</ele><time>2026-03-22T08:18:48.991Z</time></trkpt><trkpt lat="47.30548552292269" lon="-1.7754706463960448"><ele>73.0</ele><time>2026-03-22T08:18:49.991Z</time></trkpt><trkpt lat="47.30550630772236" lon="-1.7755664932776962"><ele>73.0</ele><time>2026-03-22T08:18:50.991Z</time></trkpt><trkpt lat="47.30552734826084" lon="-1.7756639952875883"><ele>73.0</ele><time>2026-03-22T08:18:51.991Z</time></trkpt><trkpt lat="47.30554312459966" lon="-1.7757637632730323"><ele>73.0</ele><time>2026-03-22T08:18:52.991Z</time></trkpt><trkpt lat="47.30556036784539" lon="-1.7758607096304622"><ele>73.0</ele><time>2026-03-22T08:18:53.991Z</time></trkpt><trkpt lat="47.30557727672169" lon="-1.7759584132312338"><ele>73.57142857142857</ele><time>2026-03-22T08:18:54.991Z</time></trkpt><trkpt lat="47.305597437494384" lon="-1.776056650375748"><ele>74.14285714285714</ele><time>2026-03-22T08:18:55.991Z</time></trkpt><trkpt lat="47.30561736597998" lon="-1.7761538811209083"><ele>74.71428571428572</ele><time>2026-03-22T08:18:56.991Z</time></trkpt><trkpt lat="47.30564235953003" lon="-1.776248467891524"><ele>75.28571428571428</ele><time>2026-03-22T08:18:57.991Z</time></trkpt><trkpt lat="47.30566134803977" lon="-1.7763421509713395"><ele>75.85714285714286</ele><time>2026-03-22T08:18:58.991Z</time></trkpt><trkpt lat="47.30567488718739" lon="-1.7764368818774634"><ele>76.42857142857143</ele><time>2026-03-22T08:18:59.991Z</time></trkpt><trkpt lat="47.30568941572356" lon="-1.7765288943556938"><ele>77.0</ele><time>2026-03-22T08:19:00.991Z</time></trkpt><trkpt lat="47.305716700657584" lon="-1.7767101979721407"><ele>77.0</ele><time>2026-03-22T08:19:02.991Z</time></trkpt><trkpt lat="47.30572752305677" lon="-1.776805711348344"><ele>77.0</ele><time>2026-03-22T08:19:03.991Z</time></trkpt><trkpt lat="47.30573895404533" lon="-1.776987398755574"><ele>77.0</ele><time>2026-03-22T08:19:05.991Z</time></trkpt><trkpt lat="47.305744834540135" lon="-1.7770858552013584"><ele>77.0</ele><time>2026-03-22T08:19:06.991Z</time></trkpt><trkpt lat="47.3057530946558" lon="-1.7771832134319174"><ele>77.0</ele><time>2026-03-22T08:19:07.991Z</time></trkpt><trkpt lat="47.30576257512782" lon="-1.7773693145313882"><ele>77.0</ele><time>2026-03-22T08:19:09.991Z</time></trkpt><trkpt lat="47.305770361317556" lon="-1.7774648931405954"><ele>77.5</ele><time>2026-03-22T08:19:10.991Z</time></trkpt><trkpt lat="47.30577949485042" lon="-1.7776405599373544"><ele>78.0</ele><time>2026-03-22T08:19:12.991Z</time></trkpt><trkpt lat="47.30578655851735" lon="-1.777820481814556"><ele>78.5</ele><time>2026-03-22T08:19:14.991Z</time></trkpt><trkpt lat="47.305794782706904" lon="-1.7779984118894832"><ele>79.0</ele><time>2026-03-22T08:19:16.991Z</time></trkpt><trkpt lat="47.30580343916964" lon="-1.7781806301234968"><ele>79.0</ele><time>2026-03-22T08:19:18.991Z</time></trkpt><trkpt lat="47.30581005022534" lon="-1.7783635048631297"><ele>79.0</ele><time>2026-03-22T08:19:20.991Z</time></trkpt><trkpt lat="47.305809444605" lon="-1.7785344045414562"><ele>79.0</ele><time>2026-03-22T08:19:22.991Z</time></trkpt><trkpt lat="47.30581109506844" lon="-1.7786296726397237"><ele>79.0</ele><time>2026-03-22T08:19:23.991Z</time></trkpt><trkpt lat="47.30581506390565" lon="-1.7787260920537826"><ele>79.0</ele><time>2026-03-22T08:19:24.991Z</time></trkpt><trkpt lat="47.30583872806803" lon="-1.778906257175421"><ele>79.0</ele><time>2026-03-22T08:19:26.991Z</time></trkpt><trkpt lat="47.305845604485974" lon="-1.779002434247108"><ele>79.0</ele><time>2026-03-22T08:19:27.991Z</time></trkpt><trkpt lat="47.30584183210678" lon="-1.7790986321835776"><ele>79.0</ele><time>2026-03-22T08:19:28.991Z</time></trkpt><trkpt lat="47.30584096897426" lon="-1.7791988337427909"><ele>79.0</ele><time>2026-03-22T08:19:29.991Z</time></trkpt><trkpt lat="47.30583051128873" lon="-1.7793867368192597"><ele>79.0</ele><time>2026-03-22T08:19:31.991Z</time></trkpt><trkpt lat="47.305822669442165" lon="-1.7794804573742358"><ele>79.0</ele><time>2026-03-22T08:19:32.991Z</time></trkpt><trkpt lat="47.30581618911457" lon="-1.7795835213175366"><ele>79.00000000000001</ele><time>2026-03-22T08:19:33.991Z</time></trkpt><trkpt lat="47.30579916940454" lon="-1.7796761750816268"><ele>79.0</ele><time>2026-03-22T08:19:34.991Z</time></trkpt><trkpt lat="47.30578441779813" lon="-1.779769115589203"><ele>79.0</ele><time>2026-03-22T08:19:35.991Z</time></trkpt><trkpt lat="47.30576768468085" lon="-1.7798722646405083"><ele>79.0</ele><time>2026-03-22T08:19:36.991Z</time></trkpt><trkpt lat="47.305746954235865" lon="-1.7799725833122928"><ele>79.0</ele><time>2026-03-22T08:19:37.991Z</time></trkpt><trkpt lat="47.3057299393024" lon="-1.780075057872904"><ele>79.00000000000001</ele><time>2026-03-22T08:19:38.991Z</time></trkpt><trkpt lat="47.30570752780678" lon="-1.7801747191437503"><ele>79.0</ele><time>2026-03-22T08:19:39.991Z</time></trkpt><trkpt lat="47.3056861834711" lon="-1.7802764370922035"><ele>79.14285714285715</ele><time>2026-03-22T08:19:40.991Z</time></trkpt><trkpt lat="47.305666907323946" lon="-1.7803790231261398"><ele>79.28571428571429</ele><time>2026-03-22T08:19:41.991Z</time></trkpt><trkpt lat="47.305645231342545" lon="-1.7804821586765063"><ele>79.42857142857143</ele><time>2026-03-22T08:19:42.991Z</time></trkpt><trkpt lat="47.30562557331535" lon="-1.7805910078110923"><ele>79.57142857142858</ele><time>2026-03-22T08:19:43.991Z</time></trkpt><trkpt lat="47.30560403357423" lon="-1.7806915793898894"><ele>79.71428571428572</ele><time>2026-03-22T08:19:44.991Z</time></trkpt><trkpt lat="47.305580287029024" lon="-1.7807969911318609"><ele>79.85714285714286</ele><time>2026-03-22T08:19:45.991Z</time></trkpt><trkpt lat="47.30555533693645" lon="-1.780900844781704"><ele>80.0</ele><time>2026-03-22T08:19:46.991Z</time></trkpt><trkpt lat="47.30553246881964" lon="-1.7810046772512362"><ele>79.5</ele><time>2026-03-22T08:19:47.991Z</time></trkpt><trkpt lat="47.30551942608291" lon="-1.7811145587808155"><ele>79.0</ele><time>2026-03-22T08:19:48.991Z</time></trkpt><trkpt lat="47.30549651317887" lon="-1.7812192179091162"><ele>78.5</ele><time>2026-03-22T08:19:49.991Z</time></trkpt><trkpt lat="47.30547283538371" lon="-1.7813218376312727"><ele>78.0</ele><time>2026-03-22T08:19:50.991Z</time></trkpt><trkpt lat="47.30545447239774" lon="-1.7814238249603729"><ele>77.5</ele><time>2026-03-22T08:19:51.991Z</time></trkpt><trkpt lat="47.30543198245266" lon="-1.781531463623737"><ele>77.0</ele><time>2026-03-22T08:19:52.991Z</time></trkpt><trkpt lat="47.30541635038566" lon="-1.7816534245038547"><ele>77.0</ele><time>2026-03-22T08:19:53.991Z</time></trkpt><trkpt lat="47.305392087141385" lon="-1.781752384621162"><ele>77.0</ele><time>2026-03-22T08:19:54.991Z</time></trkpt><trkpt lat="47.30537282805296" lon="-1.7818621272808859"><ele>77.0</ele><time>2026-03-22T08:19:55.991Z</time></trkpt><trkpt lat="47.30534840419542" lon="-1.7819793678796931"><ele>77.0</ele><time>2026-03-22T08:19:56.991Z</time></trkpt><trkpt lat="47.305328214003154" lon="-1.782081937106185"><ele>77.0</ele><time>2026-03-22T08:19:57.991Z</time></trkpt><trkpt lat="47.305303542490606" lon="-1.7822001643361576"><ele>77.0</ele><time>2026-03-22T08:19:58.991Z</time></trkpt><trkpt lat="47.30528340781455" lon="-1.7823147608431176"><ele>76.66666666666667</ele><time>2026-03-22T08:19:59.991Z</time></trkpt><trkpt lat="47.305257402943894" lon="-1.782428637871415"><ele>76.33333333333334</ele><time>2026-03-22T08:20:00.991Z</time></trkpt><trkpt lat="47.30523632839431" lon="-1.7825497636341858"><ele>76.0</ele><time>2026-03-22T08:20:01.991Z</time></trkpt><trkpt lat="47.30521138650166" lon="-1.7826714491270177"><ele>75.66666666666667</ele><time>2026-03-22T08:20:02.992Z</time></trkpt><trkpt lat="47.305187764714844" lon="-1.7827978911830782"><ele>75.33333333333333</ele><time>2026-03-22T08:20:03.991Z</time></trkpt><trkpt lat="47.30516315691913" lon="-1.7829126747967794"><ele>75.0</ele><time>2026-03-22T08:20:04.991Z</time></trkpt><trkpt lat="47.30513755355175" lon="-1.7830329603181023"><ele>75.0</ele><time>2026-03-22T08:20:05.992Z</time></trkpt><trkpt lat="47.305111314730986" lon="-1.7831547515983683"><ele>75.0</ele><time>2026-03-22T08:20:06.991Z</time></trkpt><trkpt lat="47.305083632817876" lon="-1.7832741313595757"><ele>75.0</ele><time>2026-03-22T08:20:07.991Z</time></trkpt><trkpt lat="47.30505938443389" lon="-1.7834017487100697"><ele>75.0</ele><time>2026-03-22T08:20:08.992Z</time></trkpt><trkpt lat="47.305036871025656" lon="-1.7835189864523135"><ele>75.0</ele><time>2026-03-22T08:20:09.991Z</time></trkpt><trkpt lat="47.30501470148198" lon="-1.7836470516880987"><ele>75.0</ele><time>2026-03-22T08:20:10.991Z</time></trkpt><trkpt lat="47.30498660444946" lon="-1.7837595667429764"><ele>75.0</ele><time>2026-03-22T08:20:11.992Z</time></trkpt><trkpt lat="47.30496183111234" lon="-1.783880566932248"><ele>75.0</ele><time>2026-03-22T08:20:12.992Z</time></trkpt><trkpt lat="47.30493632754211" lon="-1.7840012979097322"><ele>75.0</ele><time>2026-03-22T08:20:13.992Z</time></trkpt><trkpt lat="47.30491209491484" lon="-1.7841194625121894"><ele>75.0</ele><time>2026-03-22T08:20:14.991Z</time></trkpt><trkpt lat="47.30488772178573" lon="-1.7842414438100564"><ele>75.0</ele><time>2026-03-22T08:20:15.991Z</time></trkpt><trkpt lat="47.30486557719247" lon="-1.784362093963937"><ele>75.0</ele><time>2026-03-22T08:20:16.991Z</time></trkpt><trkpt lat="47.30484553461168" lon="-1.7844653354262023"><ele>75.0</ele><time>2026-03-22T08:20:17.991Z</time></trkpt><trkpt lat="47.30483020052836" lon="-1.7845942917921576"><ele>75.0</ele><time>2026-03-22T08:20:18.991Z</time></trkpt><trkpt lat="47.30480563976548" lon="-1.7847071226135391"><ele>75.0</ele><time>2026-03-22T08:20:19.991Z</time></trkpt><trkpt lat="47.30479058759448" lon="-1.7848239974349662"><ele>75.0</ele><time>2026-03-22T08:20:20.991Z</time></trkpt><trkpt lat="47.304771170644315" lon="-1.7849375769008269"><ele>75.0</ele><time>2026-03-22T08:20:21.991Z</time></trkpt><trkpt lat="47.304757908929524" lon="-1.7850441137948874"><ele>75.0</ele><time>2026-03-22T08:20:22.991Z</time></trkpt><trkpt lat="47.304747719851285" lon="-1.7851512549914532"><ele>75.28571428571428</ele><time>2026-03-22T08:20:23.991Z</time></trkpt><trkpt lat="47.304743182388805" lon="-1.7852578391342802"><ele>75.57142857142857</ele><time>2026-03-22T08:20:24.991Z</time></trkpt><trkpt lat="47.30474399462157" lon="-1.785359499897943"><ele>75.85714285714286</ele><time>2026-03-22T08:20:25.991Z</time></trkpt><trkpt lat="47.30474421591384" lon="-1.7854587316260484"><ele>76.14285714285714</ele><time>2026-03-22T08:20:26.991Z</time></trkpt><trkpt lat="47.304742598854524" lon="-1.7855568661615862"><ele>76.42857142857143</ele><time>2026-03-22T08:20:27.991Z</time></trkpt><trkpt lat="47.304745546908975" lon="-1.7856537434937223"><ele>76.71428571428571</ele><time>2026-03-22T08:20:28.991Z</time></trkpt><trkpt lat="47.304743111691664" lon="-1.7857471013526214"><ele>77.0</ele><time>2026-03-22T08:20:29.991Z</time></trkpt><trkpt lat="47.3047441705323" lon="-1.7859212741033466"><ele>77.0</ele><time>2026-03-22T08:20:31.991Z</time></trkpt><trkpt lat="47.304737026907915" lon="-1.7860860566256425"><ele>77.0</ele><time>2026-03-22T08:20:33.991Z</time></trkpt><trkpt lat="47.304746243480416" lon="-1.7862483295395655"><ele>77.0</ele><time>2026-03-22T08:20:35.991Z</time></trkpt><trkpt lat="47.30475383098822" lon="-1.786418536096976"><ele>77.0</ele><time>2026-03-22T08:20:37.991Z</time></trkpt><trkpt lat="47.30476382890999" lon="-1.7865917469451797"><ele>77.2</ele><time>2026-03-22T08:20:39.991Z</time></trkpt><trkpt lat="47.30476190949929" lon="-1.7867538657192168"><ele>77.4</ele><time>2026-03-22T08:20:41.991Z</time></trkpt><trkpt lat="47.30476292840629" lon="-1.7869210798080646"><ele>77.6</ele><time>2026-03-22T08:20:43.991Z</time></trkpt><trkpt lat="47.3047601508974" lon="-1.7870693121502261"><ele>77.8</ele><time>2026-03-22T08:20:45.991Z</time></trkpt><trkpt lat="47.30476196146378" lon="-1.7872118076186585"><ele>78.0</ele><time>2026-03-22T08:20:47.991Z</time></trkpt><trkpt lat="47.30478015422901" lon="-1.787343861532663"><ele>78.0</ele><time>2026-03-22T08:20:49.991Z</time></trkpt><trkpt lat="47.30474798429221" lon="-1.7874605653878715"><ele>78.0</ele><time>2026-03-22T08:20:51.991Z</time></trkpt><trkpt lat="47.30464146882283" lon="-1.7875249723728999"><ele>78.0</ele><time>2026-03-22T08:20:53.991Z</time></trkpt><trkpt lat="47.30451966347456" lon="-1.787524009268816"><ele>78.0</ele><time>2026-03-22T08:20:55.991Z</time></trkpt><trkpt lat="47.30445405998352" lon="-1.7875251665638618"><ele>78.0</ele><time>2026-03-22T08:20:56.991Z</time></trkpt><trkpt lat="47.30438953281383" lon="-1.787530846085357"><ele>77.85714285714286</ele><time>2026-03-22T08:20:57.991Z</time></trkpt><trkpt lat="47.30432498021404" lon="-1.787539145988878"><ele>77.71428571428571</ele><time>2026-03-22T08:20:58.991Z</time></trkpt><trkpt lat="47.30425668257118" lon="-1.7875467425437381"><ele>77.57142857142857</ele><time>2026-03-22T08:20:59.991Z</time></trkpt><trkpt lat="47.30419080616012" lon="-1.7875548758606552"><ele>77.42857142857143</ele><time>2026-03-22T08:21:00.991Z</time></trkpt><trkpt lat="47.304127857714555" lon="-1.7875576375577653"><ele>77.28571428571428</ele><time>2026-03-22T08:21:01.991Z</time></trkpt><trkpt lat="47.30406215648221" lon="-1.787567570531058"><ele>77.14285714285714</ele><time>2026-03-22T08:21:02.991Z</time></trkpt><trkpt lat="47.30399145206909" lon="-1.7875743211721524"><ele>77.0</ele><time>2026-03-22T08:21:03.991Z</time></trkpt><trkpt lat="47.303918618446154" lon="-1.7875852985186853"><ele>77.0</ele><time>2026-03-22T08:21:04.991Z</time></trkpt><trkpt lat="47.30384828125045" lon="-1.7875965116847707"><ele>77.0</ele><time>2026-03-22T08:21:05.991Z</time></trkpt><trkpt lat="47.30377733538577" lon="-1.7876064162718148"><ele>77.0</ele><time>2026-03-22T08:21:06.991Z</time></trkpt><trkpt lat="47.30370692154442" lon="-1.7876102421443942"><ele>77.0</ele><time>2026-03-22T08:21:07.991Z</time></trkpt><trkpt lat="47.303635427637765" lon="-1.7876143120785197"><ele>77.0</ele><time>2026-03-22T08:21:08.991Z</time></trkpt><trkpt lat="47.30356733128351" lon="-1.7876280639510562"><ele>77.0</ele><time>2026-03-22T08:21:09.991Z</time></trkpt><trkpt lat="47.30348955095337" lon="-1.7876348257490786"><ele>77.0</ele><time>2026-03-22T08:21:10.991Z</time></trkpt><trkpt lat="47.3034229424517" lon="-1.7876472061333881"><ele>77.0</ele><time>2026-03-22T08:21:11.991Z</time></trkpt><trkpt lat="47.30335225348276" lon="-1.787654905489158"><ele>77.0</ele><time>2026-03-22T08:21:12.991Z</time></trkpt><trkpt lat="47.303273576802724" lon="-1.7876600587652804"><ele>77.0</ele><time>2026-03-22T08:21:13.991Z</time></trkpt><trkpt lat="47.30319563944048" lon="-1.7876699405873187"><ele>77.0</ele><time>2026-03-22T08:21:14.991Z</time></trkpt><trkpt lat="47.303123797687746" lon="-1.787677036858164"><ele>77.0</ele><time>2026-03-22T08:21:15.991Z</time></trkpt><trkpt lat="47.30305894366365" lon="-1.787685701000069"><ele>77.0</ele><time>2026-03-22T08:21:16.991Z</time></trkpt><trkpt lat="47.30297766397502" lon="-1.7876732462968"><ele>77.0</ele><time>2026-03-22T08:21:17.991Z</time></trkpt><trkpt lat="47.30289737725261" lon="-1.787668747266463"><ele>77.0</ele><time>2026-03-22T08:21:18.991Z</time></trkpt><trkpt lat="47.30281437121405" lon="-1.7876660197923546"><ele>77.0</ele><time>2026-03-22T08:21:19.991Z</time></trkpt><trkpt lat="47.30273451868606" lon="-1.7876673163695376"><ele>77.0</ele><time>2026-03-22T08:21:20.991Z</time></trkpt><trkpt lat="47.302655103360735" lon="-1.7876797005777998"><ele>77.0</ele><time>2026-03-22T08:21:21.991Z</time></trkpt><trkpt lat="47.30257460178249" lon="-1.787716755575961"><ele>77.0</ele><time>2026-03-22T08:21:22.991Z</time></trkpt><trkpt lat="47.302496095337645" lon="-1.7877615913566232"><ele>77.0</ele><time>2026-03-22T08:21:23.991Z</time></trkpt><trkpt lat="47.30242272826199" lon="-1.7878073965908006"><ele>77.0</ele><time>2026-03-22T08:21:24.991Z</time></trkpt><trkpt lat="47.30234608503368" lon="-1.7878548712169755"><ele>77.0</ele><time>2026-03-22T08:21:25.991Z</time></trkpt><trkpt lat="47.30227061942288" lon="-1.7879117428292095"><ele>77.0</ele><time>2026-03-22T08:21:26.991Z</time></trkpt><trkpt lat="47.30219284599588" lon="-1.7879595886501076"><ele>77.0</ele><time>2026-03-22T08:21:27.991Z</time></trkpt><trkpt lat="47.30211631368551" lon="-1.788017283065344"><ele>77.0</ele><time>2026-03-22T08:21:28.991Z</time></trkpt><trkpt lat="47.30204311560825" lon="-1.7880759417094878"><ele>77.0</ele><time>2026-03-22T08:21:29.991Z</time></trkpt><trkpt lat="47.301961121855925" lon="-1.7881316776996068"><ele>76.5</ele><time>2026-03-22T08:21:30.99Z</time></trkpt><trkpt lat="47.30188217235626" lon="-1.7881775530466761"><ele>76.0</ele><time>2026-03-22T08:21:31.99Z</time></trkpt><trkpt lat="47.30180192908968" lon="-1.7882334482669906"><ele>75.5</ele><time>2026-03-22T08:21:32.99Z</time></trkpt><trkpt lat="47.30172113380109" lon="-1.7882881580024446"><ele>75.0</ele><time>2026-03-22T08:21:33.99Z</time></trkpt><trkpt lat="47.30164580889081" lon="-1.7883581489013267"><ele>74.5</ele><time>2026-03-22T08:21:34.99Z</time></trkpt><trkpt lat="47.301565424608214" lon="-1.7884169429761385"><ele>74.0</ele><time>2026-03-22T08:21:35.99Z</time></trkpt><trkpt lat="47.301482540666235" lon="-1.7884743366795985"><ele>74.2</ele><time>2026-03-22T08:21:36.99Z</time></trkpt><trkpt lat="47.301401124681554" lon="-1.7885308571287828"><ele>74.4</ele><time>2026-03-22T08:21:37.99Z</time></trkpt><trkpt lat="47.30132311158114" lon="-1.7886076853045232"><ele>74.6</ele><time>2026-03-22T08:21:38.99Z</time></trkpt><trkpt lat="47.30124747148033" lon="-1.788683706740509"><ele>74.8</ele><time>2026-03-22T08:21:39.99Z</time></trkpt><trkpt lat="47.301178269111226" lon="-1.7887654609263355"><ele>75.0</ele><time>2026-03-22T08:21:40.99Z</time></trkpt><trkpt lat="47.30111433324297" lon="-1.788858627985534"><ele>75.0</ele><time>2026-03-22T08:21:41.99Z</time></trkpt><trkpt lat="47.301057669562034" lon="-1.7889473665501152"><ele>75.0</ele><time>2026-03-22T08:21:42.99Z</time></trkpt><trkpt lat="47.30100774204767" lon="-1.7890369948986256"><ele>75.0</ele><time>2026-03-22T08:21:43.99Z</time></trkpt><trkpt lat="47.30096716055807" lon="-1.7891464460378617"><ele>75.0</ele><time>2026-03-22T08:21:44.99Z</time></trkpt><trkpt lat="47.30093687097983" lon="-1.7892583330099368"><ele>75.0</ele><time>2026-03-22T08:21:45.99Z</time></trkpt><trkpt lat="47.300922104848205" lon="-1.7893763452487887"><ele>75.0</ele><time>2026-03-22T08:21:46.99Z</time></trkpt><trkpt lat="47.30091536972901" lon="-1.789492287696881"><ele>75.0</ele><time>2026-03-22T08:21:47.99Z</time></trkpt><trkpt lat="47.300921840792576" lon="-1.789611036201428"><ele>75.0</ele><time>2026-03-22T08:21:48.99Z</time></trkpt><trkpt lat="47.30092441217869" lon="-1.7897207441130731"><ele>75.0</ele><time>2026-03-22T08:21:49.99Z</time></trkpt><trkpt lat="47.3009209879829" lon="-1.7898264554086427"><ele>75.0</ele><time>2026-03-22T08:21:50.99Z</time></trkpt><trkpt lat="47.3009139778922" lon="-1.7899241969895947"><ele>75.0</ele><time>2026-03-22T08:21:51.99Z</time></trkpt><trkpt lat="47.3009016186037" lon="-1.7900182746381672"><ele>75.0</ele><time>2026-03-22T08:21:52.99Z</time></trkpt><trkpt lat="47.300839114403644" lon="-1.7901766207516827"><ele>74.8</ele><time>2026-03-22T08:21:54.99Z</time></trkpt><trkpt lat="47.30077523180471" lon="-1.790325499655631"><ele>74.6</ele><time>2026-03-22T08:21:56.99Z</time></trkpt><trkpt lat="47.30069649309031" lon="-1.7904469185715972"><ele>74.4</ele><time>2026-03-22T08:21:58.99Z</time></trkpt><trkpt lat="47.30064779229646" lon="-1.7905534032639243"><ele>74.2</ele><time>2026-03-22T08:22:00.99Z</time></trkpt><trkpt lat="47.300633779224114" lon="-1.7906750758893488"><ele>74.0</ele><time>2026-03-22T08:22:04.99Z</time></trkpt><trkpt lat="47.30053599740621" lon="-1.7906630714379557"><ele>73.60000000000001</ele><time>2026-03-22T08:22:06.99Z</time></trkpt><trkpt lat="47.30043806275135" lon="-1.790642372646385"><ele>73.2</ele><time>2026-03-22T08:22:08.991Z</time></trkpt><trkpt lat="47.300327208052046" lon="-1.790596510271654"><ele>72.80000000000001</ele><time>2026-03-22T08:22:10.991Z</time></trkpt><trkpt lat="47.30020661110911" lon="-1.7905505276642852"><ele>72.4</ele><time>2026-03-22T08:22:12.992Z</time></trkpt><trkpt lat="47.300143235064475" lon="-1.7905311823541754"><ele>72.0</ele><time>2026-03-22T08:22:13.992Z</time></trkpt><trkpt lat="47.30007694915381" lon="-1.7905150955080638"><ele>72.00000000000001</ele><time>2026-03-22T08:22:14.991Z</time></trkpt><trkpt lat="47.30000987792076" lon="-1.7904952446350628"><ele>72.0</ele><time>2026-03-22T08:22:15.991Z</time></trkpt><trkpt lat="47.29994384123055" lon="-1.7904751522734996"><ele>72.0</ele><time>2026-03-22T08:22:16.991Z</time></trkpt><trkpt lat="47.299877854335215" lon="-1.7904548914512366"><ele>72.0</ele><time>2026-03-22T08:22:17.991Z</time></trkpt><trkpt lat="47.29981143838401" lon="-1.7904343068231314"><ele>72.0</ele><time>2026-03-22T08:22:18.991Z</time></trkpt><trkpt lat="47.29974186863833" lon="-1.7904085807643757"><ele>72.00000000000001</ele><time>2026-03-22T08:22:19.991Z</time></trkpt><trkpt lat="47.29967278193321" lon="-1.7903695009670033"><ele>72.0</ele><time>2026-03-22T08:22:20.991Z</time></trkpt><trkpt lat="47.299606156669086" lon="-1.7903502494620716"><ele>72.16666666666667</ele><time>2026-03-22T08:22:21.991Z</time></trkpt><trkpt lat="47.29953964781676" lon="-1.790328102606319"><ele>72.33333333333333</ele><time>2026-03-22T08:22:22.991Z</time></trkpt><trkpt lat="47.29947814950842" lon="-1.790298216478786"><ele>72.5</ele><time>2026-03-22T08:22:23.991Z</time></trkpt><trkpt lat="47.299358838387775" lon="-1.7902991386255451"><ele>72.66666666666666</ele><time>2026-03-22T08:22:25.991Z</time></trkpt><trkpt lat="47.29930471979531" lon="-1.7903492732651218"><ele>72.83333333333333</ele><time>2026-03-22T08:22:26.991Z</time></trkpt><trkpt lat="47.29926746329455" lon="-1.7904467089001255"><ele>73.0</ele><time>2026-03-22T08:22:27.991Z</time></trkpt><trkpt lat="47.29924742025272" lon="-1.7905440787267832"><ele>73.0</ele><time>2026-03-22T08:22:28.991Z</time></trkpt><trkpt lat="47.29923235215213" lon="-1.7906423005101222"><ele>73.0</ele><time>2026-03-22T08:22:29.991Z</time></trkpt><trkpt lat="47.299203886719084" lon="-1.7907361453551223"><ele>73.0</ele><time>2026-03-22T08:22:30.991Z</time></trkpt><trkpt lat="47.29917195073623" lon="-1.7908291703188028"><ele>73.0</ele><time>2026-03-22T08:22:31.991Z</time></trkpt><trkpt lat="47.29913937485999" lon="-1.7909182445776088"><ele>73.0</ele><time>2026-03-22T08:22:32.991Z</time></trkpt><trkpt lat="47.299111358024675" lon="-1.79100338684164"><ele>73.0</ele><time>2026-03-22T08:22:33.991Z</time></trkpt><trkpt lat="47.29908564278179" lon="-1.7910932342037953"><ele>73.0</ele><time>2026-03-22T08:22:34.991Z</time></trkpt><trkpt lat="47.29905732193123" lon="-1.7911785001964098"><ele>73.0</ele><time>2026-03-22T08:22:35.991Z</time></trkpt><trkpt lat="47.299021930163384" lon="-1.7912598749506057"><ele>73.0</ele><time>2026-03-22T08:22:36.991Z</time></trkpt><trkpt lat="47.29898363446152" lon="-1.7913343646518225"><ele>73.0</ele><time>2026-03-22T08:22:37.991Z</time></trkpt><trkpt lat="47.29894645067206" lon="-1.7914236286582945"><ele>73.0</ele><time>2026-03-22T08:22:38.991Z</time></trkpt><trkpt lat="47.29890991244967" lon="-1.7915070588694757"><ele>73.0</ele><time>2026-03-22T08:22:39.991Z</time></trkpt><trkpt lat="47.298870308901954" lon="-1.7915872276065103"><ele>73.0</ele><time>2026-03-22T08:22:40.991Z</time></trkpt><trkpt lat="47.29883238566146" lon="-1.791670452022283"><ele>73.0</ele><time>2026-03-22T08:22:41.991Z</time></trkpt><trkpt lat="47.2987938756262" lon="-1.791749213809469"><ele>73.0</ele><time>2026-03-22T08:22:42.991Z</time></trkpt><trkpt lat="47.29874826612511" lon="-1.7918232965058196"><ele>73.0</ele><time>2026-03-22T08:22:43.991Z</time></trkpt><trkpt lat="47.298707825293235" lon="-1.7919106742787891"><ele>73.0</ele><time>2026-03-22T08:22:44.991Z</time></trkpt><trkpt lat="47.298658486086055" lon="-1.7919864333866216"><ele>73.0</ele><time>2026-03-22T08:22:45.991Z</time></trkpt><trkpt lat="47.298618017446124" lon="-1.7920663831909927"><ele>73.0</ele><time>2026-03-22T08:22:46.991Z</time></trkpt><trkpt lat="47.29858228899524" lon="-1.7921579634171345"><ele>73.0</ele><time>2026-03-22T08:22:47.991Z</time></trkpt><trkpt lat="47.29853931010649" lon="-1.7922456130301756"><ele>73.0</ele><time>2026-03-22T08:22:48.991Z</time></trkpt><trkpt lat="47.298503968481235" lon="-1.7923388768661006"><ele>73.0</ele><time>2026-03-22T08:22:49.991Z</time></trkpt><trkpt lat="47.29847317489123" lon="-1.7924389809352606"><ele>73.0</ele><time>2026-03-22T08:22:50.991Z</time></trkpt><trkpt lat="47.298442816806244" lon="-1.7925300007149159"><ele>73.0</ele><time>2026-03-22T08:22:51.991Z</time></trkpt><trkpt lat="47.29841779145534" lon="-1.7926306996203072"><ele>73.0</ele><time>2026-03-22T08:22:52.991Z</time></trkpt><trkpt lat="47.298393382646424" lon="-1.792736385275242"><ele>73.0</ele><time>2026-03-22T08:22:53.991Z</time></trkpt><trkpt lat="47.298373220980125" lon="-1.7928413227077362"><ele>73.0</ele><time>2026-03-22T08:22:54.991Z</time></trkpt><trkpt lat="47.298364559876376" lon="-1.792953244623144"><ele>73.0</ele><time>2026-03-22T08:22:55.991Z</time></trkpt><trkpt lat="47.29836000092826" lon="-1.7930678100727857"><ele>73.0</ele><time>2026-03-22T08:22:56.991Z</time></trkpt><trkpt lat="47.2983522406603" lon="-1.793174875813916"><ele>73.0</ele><time>2026-03-22T08:22:57.991Z</time></trkpt><trkpt lat="47.29834294424896" lon="-1.7932821855630068"><ele>73.0</ele><time>2026-03-22T08:22:58.991Z</time></trkpt><trkpt lat="47.298336273672895" lon="-1.793387825810772"><ele>73.0</ele><time>2026-03-22T08:22:59.991Z</time></trkpt><trkpt lat="47.29833196201902" lon="-1.793497567641964"><ele>73.0</ele><time>2026-03-22T08:23:00.991Z</time></trkpt><trkpt lat="47.298326751941154" lon="-1.793603601002844"><ele>73.0</ele><time>2026-03-22T08:23:01.991Z</time></trkpt><trkpt lat="47.29831894068463" lon="-1.7937073692146384"><ele>73.0</ele><time>2026-03-22T08:23:02.991Z</time></trkpt><trkpt lat="47.298309071548296" lon="-1.793813023403153"><ele>72.85714285714286</ele><time>2026-03-22T08:23:03.991Z</time></trkpt><trkpt lat="47.2983016541994" lon="-1.7939205590778229"><ele>72.71428571428572</ele><time>2026-03-22T08:23:04.991Z</time></trkpt><trkpt lat="47.29829410585303" lon="-1.794024180211059"><ele>72.57142857142858</ele><time>2026-03-22T08:23:05.991Z</time></trkpt><trkpt lat="47.29829350084275" lon="-1.7941219146064975"><ele>72.42857142857143</ele><time>2026-03-22T08:23:06.991Z</time></trkpt><trkpt lat="47.29828426339369" lon="-1.7942274196248862"><ele>72.28571428571429</ele><time>2026-03-22T08:23:07.991Z</time></trkpt><trkpt lat="47.298277568933024" lon="-1.7943362552554614"><ele>72.14285714285715</ele><time>2026-03-22T08:23:08.991Z</time></trkpt><trkpt lat="47.29827246702109" lon="-1.7944451718454504"><ele>72.0</ele><time>2026-03-22T08:23:09.991Z</time></trkpt><trkpt lat="47.298267929816106" lon="-1.7945544431135498"><ele>72.28571428571429</ele><time>2026-03-22T08:23:10.991Z</time></trkpt><trkpt lat="47.2982635629817" lon="-1.7946615097113194"><ele>72.57142857142857</ele><time>2026-03-22T08:23:11.991Z</time></trkpt><trkpt lat="47.29825871321993" lon="-1.7947704306472552"><ele>72.85714285714286</ele><time>2026-03-22T08:23:12.991Z</time></trkpt><trkpt lat="47.298250358802285" lon="-1.7948787542110967"><ele>73.14285714285714</ele><time>2026-03-22T08:23:13.991Z</time></trkpt><trkpt lat="47.29824459605545" lon="-1.794990105109874"><ele>73.42857142857143</ele><time>2026-03-22T08:23:14.991Z</time></trkpt><trkpt lat="47.29824425682417" lon="-1.7951029592313243"><ele>73.71428571428572</ele><time>2026-03-22T08:23:15.991Z</time></trkpt><trkpt lat="47.29823845440771" lon="-1.7952091331391988"><ele>74.0</ele><time>2026-03-22T08:23:16.991Z</time></trkpt><trkpt lat="47.29823158100851" lon="-1.7953198962249353"><ele>74.83333333333334</ele><time>2026-03-22T08:23:17.991Z</time></trkpt><trkpt lat="47.2982373114136" lon="-1.7954279897894188"><ele>75.66666666666667</ele><time>2026-03-22T08:23:18.991Z</time></trkpt><trkpt lat="47.29824811377685" lon="-1.7955434110020165"><ele>76.5</ele><time>2026-03-22T08:23:19.991Z</time></trkpt><trkpt lat="47.298259686866615" lon="-1.7956615531368318"><ele>77.33333333333333</ele><time>2026-03-22T08:23:20.991Z</time></trkpt><trkpt lat="47.29827684458896" lon="-1.795767693737251"><ele>78.16666666666666</ele><time>2026-03-22T08:23:21.991Z</time></trkpt><trkpt lat="47.29829357873979" lon="-1.7958652347557693"><ele>79.0</ele><time>2026-03-22T08:23:22.991Z</time></trkpt><trkpt lat="47.29834767763181" lon="-1.7960325206103485"><ele>79.6</ele><time>2026-03-22T08:23:24.991Z</time></trkpt><trkpt lat="47.2983814556285" lon="-1.796214732389857"><ele>80.2</ele><time>2026-03-22T08:23:26.991Z</time></trkpt><trkpt lat="47.29841781438077" lon="-1.7963763911548116"><ele>80.8</ele><time>2026-03-22T08:23:28.991Z</time></trkpt><trkpt lat="47.29844201650597" lon="-1.7964650464788035"><ele>81.39999999999999</ele><time>2026-03-22T08:23:29.991Z</time></trkpt><trkpt lat="47.29848770775353" lon="-1.796647732043291"><ele>82.0</ele><time>2026-03-22T08:23:31.991Z</time></trkpt><trkpt lat="47.29853771019643" lon="-1.7968130066740375"><ele>82.19999999999999</ele><time>2026-03-22T08:23:33.991Z</time></trkpt><trkpt lat="47.298574534599865" lon="-1.796965775150772"><ele>82.4</ele><time>2026-03-22T08:23:35.991Z</time></trkpt><trkpt lat="47.29861335297158" lon="-1.7971432195294492"><ele>82.6</ele><time>2026-03-22T08:23:37.991Z</time></trkpt><trkpt lat="47.29862890240515" lon="-1.797235179335585"><ele>82.80000000000001</ele><time>2026-03-22T08:23:38.991Z</time></trkpt><trkpt lat="47.29864838135158" lon="-1.7973887800746544"><ele>83.0</ele><time>2026-03-22T08:23:40.99Z</time></trkpt><trkpt lat="47.298665517964636" lon="-1.7975456834917303"><ele>81.5</ele><time>2026-03-22T08:23:42.99Z</time></trkpt><trkpt lat="47.298682984967456" lon="-1.7977134683780491"><ele>80.0</ele><time>2026-03-22T08:23:44.99Z</time></trkpt><trkpt lat="47.2986844678493" lon="-1.797886642138486"><ele>78.5</ele><time>2026-03-22T08:23:46.99Z</time></trkpt><trkpt lat="47.2986916648976" lon="-1.7980636885282109"><ele>77.0</ele><time>2026-03-22T08:23:48.99Z</time></trkpt><trkpt lat="47.29870401437146" lon="-1.7982482888954203"><ele>77.0</ele><time>2026-03-22T08:23:50.99Z</time></trkpt><trkpt lat="47.298704040607824" lon="-1.7983565893128488"><ele>77.0</ele><time>2026-03-22T08:23:51.99Z</time></trkpt><trkpt lat="47.298713401512316" lon="-1.7984739655323192"><ele>77.0</ele><time>2026-03-22T08:23:52.99Z</time></trkpt><trkpt lat="47.298722938223385" lon="-1.7985778657160454"><ele>77.0</ele><time>2026-03-22T08:23:53.99Z</time></trkpt><trkpt lat="47.298730760483686" lon="-1.7986814407561484"><ele>77.0</ele><time>2026-03-22T08:23:54.99Z</time></trkpt><trkpt lat="47.29874637015779" lon="-1.7987873042966485"><ele>77.0</ele><time>2026-03-22T08:23:55.99Z</time></trkpt><trkpt lat="47.2987552454543" lon="-1.798897378750882"><ele>77.0</ele><time>2026-03-22T08:23:56.99Z</time></trkpt><trkpt lat="47.29876583693574" lon="-1.7990046994233364"><ele>76.71428571428571</ele><time>2026-03-22T08:23:57.99Z</time></trkpt><trkpt lat="47.29877976030111" lon="-1.7991090608881966"><ele>76.42857142857143</ele><time>2026-03-22T08:23:58.99Z</time></trkpt><trkpt lat="47.298799564117544" lon="-1.799210280493669"><ele>76.14285714285714</ele><time>2026-03-22T08:23:59.99Z</time></trkpt><trkpt lat="47.29882222142057" lon="-1.799311334047959"><ele>75.85714285714286</ele><time>2026-03-22T08:24:00.99Z</time></trkpt><trkpt lat="47.298847856220526" lon="-1.799412035752814"><ele>75.57142857142857</ele><time>2026-03-22T08:24:01.99Z</time></trkpt><trkpt lat="47.29887287208966" lon="-1.7995170794942794"><ele>75.28571428571428</ele><time>2026-03-22T08:24:02.99Z</time></trkpt><trkpt lat="47.29890206425262" lon="-1.799614769965863"><ele>75.0</ele><time>2026-03-22T08:24:03.99Z</time></trkpt><trkpt lat="47.29893067189232" lon="-1.7997106401322611"><ele>74.99999999999999</ele><time>2026-03-22T08:24:04.99Z</time></trkpt><trkpt lat="47.29895908063208" lon="-1.7998053806812315"><ele>75.0</ele><time>2026-03-22T08:24:05.99Z</time></trkpt><trkpt lat="47.29898604028766" lon="-1.7999034345921139"><ele>75.0</ele><time>2026-03-22T08:24:06.99Z</time></trkpt><trkpt lat="47.29901259280577" lon="-1.8000010999995464"><ele>75.0</ele><time>2026-03-22T08:24:07.99Z</time></trkpt><trkpt lat="47.299027936048816" lon="-1.8000985481953402"><ele>75.0</ele><time>2026-03-22T08:24:08.99Z</time></trkpt><trkpt lat="47.29904011495239" lon="-1.8002012143766437"><ele>74.99999999999999</ele><time>2026-03-22T08:24:09.99Z</time></trkpt><trkpt lat="47.299049066162645" lon="-1.8003056938474535"><ele>75.0</ele><time>2026-03-22T08:24:10.99Z</time></trkpt><trkpt lat="47.299051855684624" lon="-1.800411859004701"><ele>75.0</ele><time>2026-03-22T08:24:11.99Z</time></trkpt><trkpt lat="47.299046199383184" lon="-1.8005251686658945"><ele>75.0</ele><time>2026-03-22T08:24:12.99Z</time></trkpt><trkpt lat="47.29903809829372" lon="-1.800632511061552"><ele>75.0</ele><time>2026-03-22T08:24:13.99Z</time></trkpt><trkpt lat="47.29901830765541" lon="-1.8007466155922587"><ele>75.0</ele><time>2026-03-22T08:24:14.991Z</time></trkpt><trkpt lat="47.29900044389613" lon="-1.8008550078959964"><ele>75.0</ele><time>2026-03-22T08:24:15.991Z</time></trkpt><trkpt lat="47.29897368032667" lon="-1.800961194062189"><ele>75.0</ele><time>2026-03-22T08:24:16.991Z</time></trkpt><trkpt lat="47.29893914416862" lon="-1.8010712452380404"><ele>74.33333333333333</ele><time>2026-03-22T08:24:17.991Z</time></trkpt><trkpt lat="47.298893769384506" lon="-1.8011787230171765"><ele>73.66666666666667</ele><time>2026-03-22T08:24:18.991Z</time></trkpt><trkpt lat="47.29885762207492" lon="-1.8012730699261037"><ele>73.0</ele><time>2026-03-22T08:24:19.991Z</time></trkpt><trkpt lat="47.29880891624821" lon="-1.8013728179085366"><ele>72.33333333333334</ele><time>2026-03-22T08:24:20.991Z</time></trkpt><trkpt lat="47.2987623718886" lon="-1.8014697250270575"><ele>71.66666666666667</ele><time>2026-03-22T08:24:21.991Z</time></trkpt><trkpt lat="47.29871300274765" lon="-1.8015807456926036"><ele>71.0</ele><time>2026-03-22T08:24:22.991Z</time></trkpt><trkpt lat="47.298666873208795" lon="-1.801679932828048"><ele>71.0</ele><time>2026-03-22T08:24:23.991Z</time></trkpt><trkpt lat="47.29861789935504" lon="-1.801777247622639"><ele>71.0</ele><time>2026-03-22T08:24:24.991Z</time></trkpt><trkpt lat="47.298571855049836" lon="-1.80188285368912"><ele>71.0</ele><time>2026-03-22T08:24:25.991Z</time></trkpt><trkpt lat="47.29852030159362" lon="-1.8019858992771607"><ele>71.0</ele><time>2026-03-22T08:24:26.991Z</time></trkpt><trkpt lat="47.29847136823561" lon="-1.8020917169442863"><ele>71.0</ele><time>2026-03-22T08:24:27.991Z</time></trkpt><trkpt lat="47.29842144594794" lon="-1.8022009590763346"><ele>71.0</ele><time>2026-03-22T08:24:28.991Z</time></trkpt><trkpt lat="47.29836963696833" lon="-1.802309137667416"><ele>70.6</ele><time>2026-03-22T08:24:29.991Z</time></trkpt><trkpt lat="47.298316627102075" lon="-1.8024184342679206"><ele>70.19999999999999</ele><time>2026-03-22T08:24:30.991Z</time></trkpt><trkpt lat="47.29826354298328" lon="-1.802527024946404"><ele>69.80000000000001</ele><time>2026-03-22T08:24:31.991Z</time></trkpt><trkpt lat="47.29821246283432" lon="-1.80263772790648"><ele>69.4</ele><time>2026-03-22T08:24:32.991Z</time></trkpt><trkpt lat="47.298160700918274" lon="-1.8027511674822003"><ele>69.0</ele><time>2026-03-22T08:24:33.991Z</time></trkpt><trkpt lat="47.29810938497459" lon="-1.8028681275489749"><ele>68.60000000000001</ele><time>2026-03-22T08:24:34.991Z</time></trkpt><trkpt lat="47.2980566783" lon="-1.8029822950714207"><ele>68.2</ele><time>2026-03-22T08:24:35.991Z</time></trkpt><trkpt lat="47.298002867321216" lon="-1.8030942078610144"><ele>67.80000000000001</ele><time>2026-03-22T08:24:36.991Z</time></trkpt><trkpt lat="47.29794714637084" lon="-1.8032003677438457"><ele>67.4</ele><time>2026-03-22T08:24:37.991Z</time></trkpt><trkpt lat="47.29789598902174" lon="-1.8033121516657036"><ele>67.0</ele><time>2026-03-22T08:24:38.991Z</time></trkpt><trkpt lat="47.29784388695402" lon="-1.803425025174903"><ele>66.4</ele><time>2026-03-22T08:24:39.991Z</time></trkpt><trkpt lat="47.29779115288367" lon="-1.803540977763901"><ele>65.80000000000001</ele><time>2026-03-22T08:24:40.991Z</time></trkpt><trkpt lat="47.297739776883155" lon="-1.8036554195109038"><ele>65.2</ele><time>2026-03-22T08:24:41.991Z</time></trkpt><trkpt lat="47.29768818824045" lon="-1.803766195297274"><ele>64.60000000000001</ele><time>2026-03-22T08:24:42.991Z</time></trkpt><trkpt lat="47.29765088395388" lon="-1.8038931659112407"><ele>64.0</ele><time>2026-03-22T08:24:43.991Z</time></trkpt><trkpt lat="47.29761640761673" lon="-1.8040172604837736"><ele>63.99999999999999</ele><time>2026-03-22T08:24:44.991Z</time></trkpt><trkpt lat="47.297586636709596" lon="-1.8041447129100434"><ele>64.0</ele><time>2026-03-22T08:24:45.991Z</time></trkpt><trkpt lat="47.29756662241255" lon="-1.8042776391417898"><ele>64.0</ele><time>2026-03-22T08:24:46.991Z</time></trkpt><trkpt lat="47.29755712465086" lon="-1.8044030556569295"><ele>64.0</ele><time>2026-03-22T08:24:47.991Z</time></trkpt><trkpt lat="47.297549194255176" lon="-1.8045427615216818"><ele>63.99999999999999</ele><time>2026-03-22T08:24:48.991Z</time></trkpt><trkpt lat="47.29754349370106" lon="-1.8046675672146653"><ele>64.0</ele><time>2026-03-22T08:24:49.991Z</time></trkpt><trkpt lat="47.29753627045034" lon="-1.8047887595376306"><ele>63.99999999999999</ele><time>2026-03-22T08:24:50.991Z</time></trkpt><trkpt lat="47.297526891876025" lon="-1.8049136601381421"><ele>64.0</ele><time>2026-03-22T08:24:51.991Z</time></trkpt><trkpt lat="47.29751741258787" lon="-1.8050383247328476"><ele>64.0</ele><time>2026-03-22T08:24:52.991Z</time></trkpt><trkpt lat="47.297501152626474" lon="-1.8051599404220262"><ele>64.0</ele><time>2026-03-22T08:24:53.991Z</time></trkpt><trkpt lat="47.297486040062445" lon="-1.80527782292842"><ele>63.99999999999999</ele><time>2026-03-22T08:24:54.991Z</time></trkpt><trkpt lat="47.29747172819614" lon="-1.8053981862870385"><ele>64.0</ele><time>2026-03-22T08:24:55.991Z</time></trkpt><trkpt lat="47.29745336578284" lon="-1.8055117989239755"><ele>63.99999999999999</ele><time>2026-03-22T08:24:56.991Z</time></trkpt><trkpt lat="47.29744266163884" lon="-1.8056321150112924"><ele>64.0</ele><time>2026-03-22T08:24:57.991Z</time></trkpt><trkpt lat="47.2974312454933" lon="-1.8057528538354928"><ele>64.0</ele><time>2026-03-22T08:24:58.991Z</time></trkpt><trkpt lat="47.29741550129222" lon="-1.8058677040572904"><ele>64.0</ele><time>2026-03-22T08:24:59.991Z</time></trkpt><trkpt lat="47.297398529110765" lon="-1.8059851913940728"><ele>63.99999999999999</ele><time>2026-03-22T08:25:00.991Z</time></trkpt><trkpt lat="47.297386315655" lon="-1.8061011827376117"><ele>64.0</ele><time>2026-03-22T08:25:01.991Z</time></trkpt><trkpt lat="47.297370866471866" lon="-1.8062135622505304"><ele>63.99999999999999</ele><time>2026-03-22T08:25:02.991Z</time></trkpt><trkpt lat="47.29735790546225" lon="-1.8063268695219803"><ele>64.0</ele><time>2026-03-22T08:25:03.991Z</time></trkpt><trkpt lat="47.297346037036576" lon="-1.8064372529275614"><ele>64.0</ele><time>2026-03-22T08:25:04.991Z</time></trkpt><trkpt lat="47.297335432310874" lon="-1.8065484792784994"><ele>64.0</ele><time>2026-03-22T08:25:05.991Z</time></trkpt><trkpt lat="47.2973191730284" lon="-1.8066583563180876"><ele>63.99999999999999</ele><time>2026-03-22T08:25:06.991Z</time></trkpt><trkpt lat="47.29730446655984" lon="-1.8067728310359166"><ele>64.0</ele><time>2026-03-22T08:25:07.991Z</time></trkpt><trkpt lat="47.297290377951825" lon="-1.8068834415960806"><ele>63.666666666666664</ele><time>2026-03-22T08:25:08.991Z</time></trkpt><trkpt lat="47.297274946876556" lon="-1.806995542147759"><ele>63.33333333333333</ele><time>2026-03-22T08:25:09.991Z</time></trkpt><trkpt lat="47.297258558846956" lon="-1.8071117842798112"><ele>63.0</ele><time>2026-03-22T08:25:10.991Z</time></trkpt><trkpt lat="47.29724570800613" lon="-1.8072295667008549"><ele>62.66666666666667</ele><time>2026-03-22T08:25:11.991Z</time></trkpt><trkpt lat="47.29723312730285" lon="-1.8073501726412946"><ele>62.333333333333336</ele><time>2026-03-22T08:25:12.991Z</time></trkpt><trkpt lat="47.2972171044997" lon="-1.8074775622500727"><ele>62.0</ele><time>2026-03-22T08:25:13.991Z</time></trkpt><trkpt lat="47.29720140425877" lon="-1.8076007356706392"><ele>62.2</ele><time>2026-03-22T08:25:14.991Z</time></trkpt><trkpt lat="47.29718659337408" lon="-1.8077307629040424"><ele>62.400000000000006</ele><time>2026-03-22T08:25:15.991Z</time></trkpt><trkpt lat="47.29716837232567" lon="-1.8078688992037317"><ele>62.599999999999994</ele><time>2026-03-22T08:25:16.991Z</time></trkpt><trkpt lat="47.297147766484535" lon="-1.8080081500680425"><ele>62.8</ele><time>2026-03-22T08:25:17.991Z</time></trkpt><trkpt lat="47.297133577685166" lon="-1.8081533815176174"><ele>63.0</ele><time>2026-03-22T08:25:18.991Z</time></trkpt><trkpt lat="47.29711465784471" lon="-1.8082906220521011"><ele>63.0</ele><time>2026-03-22T08:25:19.991Z</time></trkpt><trkpt lat="47.29710036323987" lon="-1.8084411237624916"><ele>63.0</ele><time>2026-03-22T08:25:20.991Z</time></trkpt><trkpt lat="47.2970808055793" lon="-1.8085902054633016"><ele>63.0</ele><time>2026-03-22T08:25:21.991Z</time></trkpt><trkpt lat="47.29706071135583" lon="-1.8087376000440374"><ele>63.0</ele><time>2026-03-22T08:25:22.991Z</time></trkpt><trkpt lat="47.297041073536576" lon="-1.8088900307797167"><ele>63.0</ele><time>2026-03-22T08:25:23.991Z</time></trkpt><trkpt lat="47.29702023786264" lon="-1.8090405161620084"><ele>62.2</ele><time>2026-03-22T08:25:24.991Z</time></trkpt><trkpt lat="47.29700086715727" lon="-1.8091957250071136"><ele>61.4</ele><time>2026-03-22T08:25:25.991Z</time></trkpt><trkpt lat="47.29697922755186" lon="-1.8093546436060084"><ele>60.60000000000001</ele><time>2026-03-22T08:25:26.991Z</time></trkpt><trkpt lat="47.296960441039516" lon="-1.809508851532539"><ele>59.800000000000004</ele><time>2026-03-22T08:25:27.991Z</time></trkpt><trkpt lat="47.29694475917256" lon="-1.8096683355241423"><ele>59.0</ele><time>2026-03-22T08:25:28.991Z</time></trkpt><trkpt lat="47.29692440787718" lon="-1.8098253544247933"><ele>59.0</ele><time>2026-03-22T08:25:29.991Z</time></trkpt><trkpt lat="47.29690587879466" lon="-1.8099855603431951"><ele>59.00000000000001</ele><time>2026-03-22T08:25:30.991Z</time></trkpt><trkpt lat="47.29688672096483" lon="-1.810144402869889"><ele>59.00000000000001</ele><time>2026-03-22T08:25:31.991Z</time></trkpt><trkpt lat="47.29686590253838" lon="-1.8102979118716669"><ele>59.0</ele><time>2026-03-22T08:25:32.991Z</time></trkpt><trkpt lat="47.296847299997715" lon="-1.8104555552787838"><ele>59.0</ele><time>2026-03-22T08:25:33.991Z</time></trkpt><trkpt lat="47.29679806316442" lon="-1.8107667708621116"><ele>58.0</ele><time>2026-03-22T08:25:35.991Z</time></trkpt><trkpt lat="47.29677332393058" lon="-1.8109252198615489"><ele>57.00000000000001</ele><time>2026-03-22T08:25:36.991Z</time></trkpt><trkpt lat="47.296750088295624" lon="-1.8110827278167236"><ele>56.00000000000001</ele><time>2026-03-22T08:25:37.991Z</time></trkpt><trkpt lat="47.29671978169347" lon="-1.8112404098511279"><ele>55.0</ele><time>2026-03-22T08:25:38.991Z</time></trkpt><trkpt lat="47.29669678173639" lon="-1.8113944162376954"><ele>54.0</ele><time>2026-03-22T08:25:39.991Z</time></trkpt><trkpt lat="47.29667804942198" lon="-1.8115612345997583"><ele>53.0</ele><time>2026-03-22T08:25:40.991Z</time></trkpt><trkpt lat="47.29665881664749" lon="-1.8117229705750666"><ele>52.00000000000001</ele><time>2026-03-22T08:25:41.991Z</time></trkpt><trkpt lat="47.29663405812682" lon="-1.8118840570728072"><ele>51.0</ele><time>2026-03-22T08:25:42.991Z</time></trkpt><trkpt lat="47.2966102467543" lon="-1.8120430174859026"><ele>50.0</ele><time>2026-03-22T08:25:43.991Z</time></trkpt><trkpt lat="47.296588693126736" lon="-1.812206290757474"><ele>49.0</ele><time>2026-03-22T08:25:44.991Z</time></trkpt><trkpt lat="47.2965744137805" lon="-1.8123732026122685"><ele>47.75</ele><time>2026-03-22T08:25:45.991Z</time></trkpt><trkpt lat="47.2965606814764" lon="-1.8125403327375598"><ele>46.5</ele><time>2026-03-22T08:25:46.991Z</time></trkpt><trkpt lat="47.29654764480059" lon="-1.812703886159796"><ele>45.25</ele><time>2026-03-22T08:25:47.991Z</time></trkpt><trkpt lat="47.2965309345651" lon="-1.8128705684716877"><ele>44.0</ele><time>2026-03-22T08:25:48.991Z</time></trkpt><trkpt lat="47.29651879885873" lon="-1.8130404482079812"><ele>43.0</ele><time>2026-03-22T08:25:49.991Z</time></trkpt><trkpt lat="47.29650184248132" lon="-1.8132090280611524"><ele>42.0</ele><time>2026-03-22T08:25:50.991Z</time></trkpt><trkpt lat="47.296489122578066" lon="-1.8133831287643098"><ele>41.0</ele><time>2026-03-22T08:25:51.991Z</time></trkpt><trkpt lat="47.29646915692849" lon="-1.8135537460035247"><ele>40.0</ele><time>2026-03-22T08:25:52.991Z</time></trkpt><trkpt lat="47.29644338280995" lon="-1.813722910667039"><ele>39.0</ele><time>2026-03-22T08:25:53.991Z</time></trkpt><trkpt lat="47.29641036490392" lon="-1.8138893548853863"><ele>38.0</ele><time>2026-03-22T08:25:54.991Z</time></trkpt><trkpt lat="47.29637702791324" lon="-1.8140484033858262"><ele>37.0</ele><time>2026-03-22T08:25:55.991Z</time></trkpt><trkpt lat="47.29633603180771" lon="-1.8142086075503883"><ele>36.0</ele><time>2026-03-22T08:25:56.991Z</time></trkpt><trkpt lat="47.2962810452797" lon="-1.8143711105849465"><ele>35.0</ele><time>2026-03-22T08:25:57.991Z</time></trkpt><trkpt lat="47.29621866659019" lon="-1.8145298229699167"><ele>34.0</ele><time>2026-03-22T08:25:58.991Z</time></trkpt><trkpt lat="47.2961488852441" lon="-1.8146786873889083"><ele>33.0</ele><time>2026-03-22T08:25:59.991Z</time></trkpt><trkpt lat="47.29607419766195" lon="-1.8148272387217137"><ele>32.0</ele><time>2026-03-22T08:26:00.991Z</time></trkpt><trkpt lat="47.295986630141165" lon="-1.8149672390681495"><ele>32.0</ele><time>2026-03-22T08:26:01.991Z</time></trkpt><trkpt lat="47.2959012099962" lon="-1.8150965436597002"><ele>32.0</ele><time>2026-03-22T08:26:02.991Z</time></trkpt><trkpt lat="47.29580384855269" lon="-1.8152149710664096"><ele>32.0</ele><time>2026-03-22T08:26:03.991Z</time></trkpt><trkpt lat="47.29570192354852" lon="-1.8153379951123632"><ele>32.0</ele><time>2026-03-22T08:26:04.991Z</time></trkpt><trkpt lat="47.295591230300055" lon="-1.815444169422878"><ele>30.25</ele><time>2026-03-22T08:26:05.991Z</time></trkpt><trkpt lat="47.29547368536801" lon="-1.8155406526177307"><ele>28.5</ele><time>2026-03-22T08:26:06.991Z</time></trkpt><trkpt lat="47.29535145719398" lon="-1.8156324808800604"><ele>26.75</ele><time>2026-03-22T08:26:07.991Z</time></trkpt><trkpt lat="47.29523003525967" lon="-1.8157121181078555"><ele>25.0</ele><time>2026-03-22T08:26:08.991Z</time></trkpt><trkpt lat="47.29510553475304" lon="-1.8157896865572727"><ele>25.0</ele><time>2026-03-22T08:26:09.991Z</time></trkpt><trkpt lat="47.294987216446714" lon="-1.8158638633276922"><ele>25.0</ele><time>2026-03-22T08:26:10.991Z</time></trkpt><trkpt lat="47.2948764910156" lon="-1.815935645761765"><ele>25.0</ele><time>2026-03-22T08:26:11.991Z</time></trkpt><trkpt lat="47.29478047313376" lon="-1.8160029218247928"><ele>25.0</ele><time>2026-03-22T08:26:12.991Z</time></trkpt><trkpt lat="47.2946966066012" lon="-1.8160706686965689"><ele>24.000000000000004</ele><time>2026-03-22T08:26:13.991Z</time></trkpt><trkpt lat="47.294623833259045" lon="-1.816134933706255"><ele>23.0</ele><time>2026-03-22T08:26:14.991Z</time></trkpt><trkpt lat="47.29455842842949" lon="-1.8161969392911526"><ele>22.0</ele><time>2026-03-22T08:26:15.991Z</time></trkpt><trkpt lat="47.294501942277975" lon="-1.8162559857846203"><ele>21.0</ele><time>2026-03-22T08:26:16.991Z</time></trkpt><trkpt lat="47.29445143455368" lon="-1.8163177581432288"><ele>20.0</ele><time>2026-03-22T08:26:17.99Z</time></trkpt><trkpt lat="47.29440892158665" lon="-1.816395016794501"><ele>19.0</ele><time>2026-03-22T08:26:18.99Z</time></trkpt><trkpt lat="47.29433663832171" lon="-1.8165350945454413"><ele>19.0</ele><time>2026-03-22T08:26:20.991Z</time></trkpt><trkpt lat="47.294331730194315" lon="-1.816724787173317"><ele>19.0</ele><time>2026-03-22T08:26:22.991Z</time></trkpt><trkpt lat="47.29435716884228" lon="-1.8168179799895854"><ele>19.0</ele><time>2026-03-22T08:26:23.991Z</time></trkpt><trkpt lat="47.29438981798052" lon="-1.816908172737548"><ele>19.0</ele><time>2026-03-22T08:26:24.991Z</time></trkpt><trkpt lat="47.29443129799112" lon="-1.8169899703254688"><ele>19.0</ele><time>2026-03-22T08:26:25.991Z</time></trkpt><trkpt lat="47.29446881660418" lon="-1.8170780331441065"><ele>19.0</ele><time>2026-03-22T08:26:26.991Z</time></trkpt><trkpt lat="47.294503295488404" lon="-1.817174420568692"><ele>18.833333333333332</ele><time>2026-03-22T08:26:27.99Z</time></trkpt><trkpt lat="47.294538311620606" lon="-1.8172734111339974"><ele>18.666666666666664</ele><time>2026-03-22T08:26:28.99Z</time></trkpt><trkpt lat="47.29457021527454" lon="-1.8173731762015477"><ele>18.5</ele><time>2026-03-22T08:26:29.991Z</time></trkpt><trkpt lat="47.29460785304603" lon="-1.817468342074106"><ele>18.333333333333332</ele><time>2026-03-22T08:26:30.991Z</time></trkpt><trkpt lat="47.29464896454751" lon="-1.8175671134800975"><ele>18.166666666666668</ele><time>2026-03-22T08:26:31.991Z</time></trkpt><trkpt lat="47.29469663371084" lon="-1.817663226762354"><ele>18.0</ele><time>2026-03-22T08:26:32.991Z</time></trkpt><trkpt lat="47.29472974985766" lon="-1.8177711513870274"><ele>18.0</ele><time>2026-03-22T08:26:33.991Z</time></trkpt><trkpt lat="47.29476538552802" lon="-1.8178799103891694"><ele>18.0</ele><time>2026-03-22T08:26:34.991Z</time></trkpt><trkpt lat="47.29480082981352" lon="-1.8179890789879305"><ele>18.0</ele><time>2026-03-22T08:26:35.991Z</time></trkpt><trkpt lat="47.29484276123196" lon="-1.818096182457636"><ele>18.0</ele><time>2026-03-22T08:26:36.991Z</time></trkpt><trkpt lat="47.29487932655245" lon="-1.8182015125816244"><ele>18.0</ele><time>2026-03-22T08:26:37.991Z</time></trkpt><trkpt lat="47.29491656326707" lon="-1.8183137477139968"><ele>18.0</ele><time>2026-03-22T08:26:38.991Z</time></trkpt><trkpt lat="47.294955572796454" lon="-1.8184216136820799"><ele>17.5</ele><time>2026-03-22T08:26:39.991Z</time></trkpt><trkpt lat="47.29499580977556" lon="-1.818526932403608"><ele>17.0</ele><time>2026-03-22T08:26:40.991Z</time></trkpt><trkpt lat="47.29503650935396" lon="-1.8186284885243473"><ele>16.5</ele><time>2026-03-22T08:26:41.991Z</time></trkpt><trkpt lat="47.295068701847164" lon="-1.8187417120912082"><ele>16.0</ele><time>2026-03-22T08:26:42.991Z</time></trkpt><trkpt lat="47.295110263635905" lon="-1.8188459577271"><ele>15.5</ele><time>2026-03-22T08:26:43.991Z</time></trkpt><trkpt lat="47.29514088363583" lon="-1.8189519182378542"><ele>15.0</ele><time>2026-03-22T08:26:44.991Z</time></trkpt><trkpt lat="47.295185647861146" lon="-1.819063038866783"><ele>15.0</ele><time>2026-03-22T08:26:45.991Z</time></trkpt><trkpt lat="47.29522025582245" lon="-1.8191794324426245"><ele>15.0</ele><time>2026-03-22T08:26:46.991Z</time></trkpt><trkpt lat="47.29526434832817" lon="-1.8192852075161887"><ele>15.0</ele><time>2026-03-22T08:26:47.991Z</time></trkpt><trkpt lat="47.2953118155233" lon="-1.8194007095444642"><ele>15.0</ele><time>2026-03-22T08:26:48.991Z</time></trkpt><trkpt lat="47.295345062779504" lon="-1.8195116385071761"><ele>15.0</ele><time>2026-03-22T08:26:49.991Z</time></trkpt><trkpt lat="47.295382440916214" lon="-1.8196246860235847"><ele>15.0</ele><time>2026-03-22T08:26:50.991Z</time></trkpt><trkpt lat="47.29542952823567" lon="-1.819738081178582"><ele>14.666666666666666</ele><time>2026-03-22T08:26:51.991Z</time></trkpt><trkpt lat="47.2954689977921" lon="-1.8198542216650584"><ele>14.333333333333332</ele><time>2026-03-22T08:26:52.991Z</time></trkpt><trkpt lat="47.29550719412398" lon="-1.819968826338741"><ele>14.0</ele><time>2026-03-22T08:26:53.991Z</time></trkpt><trkpt lat="47.295548433666085" lon="-1.8200816842392746"><ele>13.666666666666666</ele><time>2026-03-22T08:26:54.991Z</time></trkpt><trkpt lat="47.29559764517106" lon="-1.8201912537122276"><ele>13.333333333333332</ele><time>2026-03-22T08:26:55.991Z</time></trkpt><trkpt lat="47.29563639963242" lon="-1.8202999459779872"><ele>13.0</ele><time>2026-03-22T08:26:56.991Z</time></trkpt><trkpt lat="47.29567532066098" lon="-1.8204124011217697"><ele>12.833333333333332</ele><time>2026-03-22T08:26:57.991Z</time></trkpt><trkpt lat="47.29571359850355" lon="-1.8205196248344995"><ele>12.666666666666666</ele><time>2026-03-22T08:26:58.991Z</time></trkpt><trkpt lat="47.29575164793162" lon="-1.8206250209434982"><ele>12.5</ele><time>2026-03-22T08:26:59.991Z</time></trkpt><trkpt lat="47.295783629546214" lon="-1.820726150370672"><ele>12.333333333333332</ele><time>2026-03-22T08:27:00.991Z</time></trkpt><trkpt lat="47.29580866691393" lon="-1.8208224222722902"><ele>12.166666666666666</ele><time>2026-03-22T08:27:01.991Z</time></trkpt><trkpt lat="47.29582068892955" lon="-1.8209263276572751"><ele>12.0</ele><time>2026-03-22T08:27:02.991Z</time></trkpt><trkpt lat="47.29581046024607" lon="-1.8210367573109834"><ele>11.833333333333334</ele><time>2026-03-22T08:27:03.991Z</time></trkpt><trkpt lat="47.29577690502956" lon="-1.8211453068034016"><ele>11.666666666666666</ele><time>2026-03-22T08:27:04.991Z</time></trkpt><trkpt lat="47.29572348180259" lon="-1.8212365070218386"><ele>11.5</ele><time>2026-03-22T08:27:05.991Z</time></trkpt><trkpt lat="47.29566376637742" lon="-1.821314751902733"><ele>11.333333333333332</ele><time>2026-03-22T08:27:06.991Z</time></trkpt><trkpt lat="47.29560763350779" lon="-1.8213968800857012"><ele>11.166666666666666</ele><time>2026-03-22T08:27:07.991Z</time></trkpt><trkpt lat="47.29555358812457" lon="-1.8214840109572026"><ele>11.0</ele><time>2026-03-22T08:27:08.991Z</time></trkpt><trkpt lat="47.29549794122375" lon="-1.8215713636038489"><ele>10.666666666666666</ele><time>2026-03-22T08:27:09.991Z</time></trkpt><trkpt lat="47.29544170595824" lon="-1.8216619302484598"><ele>10.333333333333332</ele><time>2026-03-22T08:27:10.991Z</time></trkpt><trkpt lat="47.29538648150442" lon="-1.8217554365306583"><ele>10.0</ele><time>2026-03-22T08:27:11.991Z</time></trkpt><trkpt lat="47.29533023670966" lon="-1.8218520937029838"><ele>9.666666666666666</ele><time>2026-03-22T08:27:12.991Z</time></trkpt><trkpt lat="47.295278507671505" lon="-1.8219431302936633"><ele>9.333333333333334</ele><time>2026-03-22T08:27:13.991Z</time></trkpt><trkpt lat="47.29523104805013" lon="-1.8220441272806087"><ele>9.0</ele><time>2026-03-22T08:27:14.991Z</time></trkpt><trkpt lat="47.29518184251286" lon="-1.8221466489170994"><ele>9.0</ele><time>2026-03-22T08:27:15.991Z</time></trkpt><trkpt lat="47.29514500188311" lon="-1.8222501233001132"><ele>9.0</ele><time>2026-03-22T08:27:16.991Z</time></trkpt><trkpt lat="47.295113258533654" lon="-1.8223712785903123"><ele>9.0</ele><time>2026-03-22T08:27:17.99Z</time></trkpt><trkpt lat="47.295086824502654" lon="-1.8224958943584146"><ele>9.0</ele><time>2026-03-22T08:27:18.99Z</time></trkpt><trkpt lat="47.29507300591829" lon="-1.8226147160357897"><ele>9.0</ele><time>2026-03-22T08:27:19.99Z</time></trkpt><trkpt lat="47.29507090093688" lon="-1.8227377271892127"><ele>9.0</ele><time>2026-03-22T08:27:20.99Z</time></trkpt><trkpt lat="47.29508297059971" lon="-1.8228613538145013"><ele>9.0</ele><time>2026-03-22T08:27:21.99Z</time></trkpt><trkpt lat="47.2951055521782" lon="-1.8229795404611162"><ele>9.0</ele><time>2026-03-22T08:27:22.99Z</time></trkpt><trkpt lat="47.29513344199291" lon="-1.8230939871781482"><ele>9.0</ele><time>2026-03-22T08:27:23.99Z</time></trkpt><trkpt lat="47.295158709410074" lon="-1.8232163607925174"><ele>9.0</ele><time>2026-03-22T08:27:24.99Z</time></trkpt><trkpt lat="47.295184052199545" lon="-1.8233274454767832"><ele>9.0</ele><time>2026-03-22T08:27:25.99Z</time></trkpt><trkpt lat="47.29520632965567" lon="-1.823442108801613"><ele>9.0</ele><time>2026-03-22T08:27:26.99Z</time></trkpt><trkpt lat="47.29523636231617" lon="-1.8235570947344955"><ele>9.166666666666666</ele><time>2026-03-22T08:27:27.99Z</time></trkpt><trkpt lat="47.29526429669992" lon="-1.8236712202688632"><ele>9.333333333333334</ele><time>2026-03-22T08:27:28.99Z</time></trkpt><trkpt lat="47.29529021090202" lon="-1.823780564509041"><ele>9.5</ele><time>2026-03-22T08:27:29.99Z</time></trkpt><trkpt lat="47.295312277110725" lon="-1.8238852118458695"><ele>9.666666666666668</ele><time>2026-03-22T08:27:30.99Z</time></trkpt><trkpt lat="47.29534883373747" lon="-1.8239934403611044"><ele>9.833333333333334</ele><time>2026-03-22T08:27:31.99Z</time></trkpt><trkpt lat="47.29537851957564" lon="-1.8240984323377785"><ele>10.0</ele><time>2026-03-22T08:27:32.99Z</time></trkpt><trkpt lat="47.29540289497519" lon="-1.8242092035980864"><ele>9.857142857142858</ele><time>2026-03-22T08:27:33.99Z</time></trkpt><trkpt lat="47.29542300461749" lon="-1.824315112643984"><ele>9.714285714285715</ele><time>2026-03-22T08:27:34.99Z</time></trkpt><trkpt lat="47.295456138255304" lon="-1.8244156190104155"><ele>9.571428571428573</ele><time>2026-03-22T08:27:35.99Z</time></trkpt><trkpt lat="47.29548444060245" lon="-1.8245156036024976"><ele>9.428571428571429</ele><time>2026-03-22T08:27:36.99Z</time></trkpt><trkpt lat="47.29550865850262" lon="-1.8246254474794839"><ele>9.285714285714286</ele><time>2026-03-22T08:27:37.99Z</time></trkpt><trkpt lat="47.295535939450474" lon="-1.8247264626619937"><ele>9.142857142857144</ele><time>2026-03-22T08:27:38.99Z</time></trkpt><trkpt lat="47.2955589638885" lon="-1.8248287380126482"><ele>9.0</ele><time>2026-03-22T08:27:39.99Z</time></trkpt><trkpt lat="47.29557715785284" lon="-1.8249271053916056"><ele>9.0</ele><time>2026-03-22T08:27:40.99Z</time></trkpt><trkpt lat="47.29559332315232" lon="-1.8250306270946135"><ele>9.0</ele><time>2026-03-22T08:27:41.99Z</time></trkpt><trkpt lat="47.295619134274105" lon="-1.8251355170713968"><ele>9.0</ele><time>2026-03-22T08:27:42.99Z</time></trkpt><trkpt lat="47.29563914781152" lon="-1.82523276477737"><ele>9.0</ele><time>2026-03-22T08:27:43.99Z</time></trkpt><trkpt lat="47.29566232178235" lon="-1.8253314672743535"><ele>9.0</ele><time>2026-03-22T08:27:44.99Z</time></trkpt><trkpt lat="47.29567631316141" lon="-1.8254269652812696"><ele>9.0</ele><time>2026-03-22T08:27:45.99Z</time></trkpt><trkpt lat="47.29570325115889" lon="-1.825603314853624"><ele>9.0</ele><time>2026-03-22T08:27:47.99Z</time></trkpt><trkpt lat="47.29571614902642" lon="-1.825695844140555"><ele>9.0</ele><time>2026-03-22T08:27:48.99Z</time></trkpt><trkpt lat="47.29574620789877" lon="-1.825825470224853"><ele>9.0</ele><time>2026-03-22T08:27:50.99Z</time></trkpt><trkpt lat="47.295768239468565" lon="-1.8259527868398842"><ele>9.0</ele><time>2026-03-22T08:27:52.99Z</time></trkpt><trkpt lat="47.29579178191611" lon="-1.8260702974708383"><ele>9.0</ele><time>2026-03-22T08:27:55.99Z</time></trkpt><trkpt lat="47.29573672031239" lon="-1.8261434348296064"><ele>9.0</ele><time>2026-03-22T08:27:57.99Z</time></trkpt><trkpt lat="47.295637667280964" lon="-1.826186693546438"><ele>8.666666666666666</ele><time>2026-03-22T08:27:59.99Z</time></trkpt><trkpt lat="47.295542783466004" lon="-1.82626233802546"><ele>8.333333333333334</ele><time>2026-03-22T08:28:01.99Z</time></trkpt><trkpt lat="47.295437776034824" lon="-1.8263517259779949"><ele>8.0</ele><time>2026-03-22T08:28:03.99Z</time></trkpt><trkpt lat="47.29538091460806" lon="-1.8263976903521568"><ele>7.666666666666667</ele><time>2026-03-22T08:28:04.99Z</time></trkpt><trkpt lat="47.29532333458331" lon="-1.8264474638838568"><ele>7.333333333333334</ele><time>2026-03-22T08:28:05.99Z</time></trkpt><trkpt lat="47.29526843410538" lon="-1.8264988513500546"><ele>7.0</ele><time>2026-03-22T08:28:06.99Z</time></trkpt><trkpt lat="47.295208915084984" lon="-1.8265523511248078"><ele>7.0</ele><time>2026-03-22T08:28:07.99Z</time></trkpt><trkpt lat="47.29514677687892" lon="-1.8266011678359133"><ele>7.0</ele><time>2026-03-22T08:28:08.99Z</time></trkpt><trkpt lat="47.29508327919078" lon="-1.826657695873628"><ele>7.0</ele><time>2026-03-22T08:28:09.99Z</time></trkpt><trkpt lat="47.295020209113" lon="-1.8267091965794766"><ele>7.0</ele><time>2026-03-22T08:28:10.99Z</time></trkpt><trkpt lat="47.29495630390094" lon="-1.8267634480248827"><ele>7.0</ele><time>2026-03-22T08:28:11.99Z</time></trkpt><trkpt lat="47.29489168316919" lon="-1.8268179827656628"><ele>7.0</ele><time>2026-03-22T08:28:12.99Z</time></trkpt><trkpt lat="47.294829538975215" lon="-1.8268624402797102"><ele>7.0</ele><time>2026-03-22T08:28:13.99Z</time></trkpt><trkpt lat="47.29476962018363" lon="-1.826917275996911"><ele>7.166666666666667</ele><time>2026-03-22T08:28:14.99Z</time></trkpt><trkpt lat="47.29470933048939" lon="-1.826971969144374"><ele>7.333333333333334</ele><time>2026-03-22T08:28:15.99Z</time></trkpt><trkpt lat="47.294651037595386" lon="-1.8270230068018583"><ele>7.5</ele><time>2026-03-22T08:28:16.99Z</time></trkpt><trkpt lat="47.29454875215559" lon="-1.8271170964349077"><ele>7.666666666666666</ele><time>2026-03-22T08:28:18.99Z</time></trkpt><trkpt lat="47.29446481582121" lon="-1.82718967823592"><ele>7.833333333333333</ele><time>2026-03-22T08:28:20.99Z</time></trkpt><trkpt lat="47.294404810013155" lon="-1.8272632482979736"><ele>8.0</ele><time>2026-03-22T08:28:24.99Z</time></trkpt><trkpt lat="47.29434188159668" lon="-1.8273253783656949"><ele>8.0</ele><time>2026-03-22T08:28:26.991Z</time></trkpt><trkpt lat="47.29424968678215" lon="-1.8273828417959415"><ele>8.0</ele><time>2026-03-22T08:28:28.99Z</time></trkpt><trkpt lat="47.29414601359835" lon="-1.8274390670167948"><ele>8.0</ele><time>2026-03-22T08:28:30.991Z</time></trkpt><trkpt lat="47.29403732520144" lon="-1.827506699101143"><ele>8.0</ele><time>2026-03-22T08:28:32.991Z</time></trkpt><trkpt lat="47.2939223793923" lon="-1.8275777782318736"><ele>8.0</ele><time>2026-03-22T08:28:34.99Z</time></trkpt><trkpt lat="47.29380414254865" lon="-1.8276508364779571"><ele>8.0</ele><time>2026-03-22T08:28:36.99Z</time></trkpt><trkpt lat="47.29368941089308" lon="-1.827735035959861"><ele>8.0</ele><time>2026-03-22T08:28:38.991Z</time></trkpt><trkpt lat="47.293631357757214" lon="-1.8277810274684756"><ele>8.0</ele><time>2026-03-22T08:28:39.99Z</time></trkpt><trkpt lat="47.29357705255196" lon="-1.8278337408435585"><ele>8.0</ele><time>2026-03-22T08:28:40.99Z</time></trkpt><trkpt lat="47.29352590571994" lon="-1.8278961454623135"><ele>8.0</ele><time>2026-03-22T08:28:41.99Z</time></trkpt><trkpt lat="47.293480370441785" lon="-1.827964010056999"><ele>7.999999999999999</ele><time>2026-03-22T08:28:42.99Z</time></trkpt><trkpt lat="47.29343709109145" lon="-1.828034973346188"><ele>8.0</ele><time>2026-03-22T08:28:43.99Z</time></trkpt><trkpt lat="47.29340155640656" lon="-1.8281136943960565"><ele>8.0</ele><time>2026-03-22T08:28:44.99Z</time></trkpt><trkpt lat="47.29336663633999" lon="-1.8281917106962227"><ele>7.999999999999999</ele><time>2026-03-22T08:28:45.99Z</time></trkpt><trkpt lat="47.2932995465359" lon="-1.8283436170717695"><ele>8.0</ele><time>2026-03-22T08:28:47.99Z</time></trkpt><trkpt lat="47.29326723766087" lon="-1.8284234941292876"><ele>8.0</ele><time>2026-03-22T08:28:48.99Z</time></trkpt><trkpt lat="47.29320252552727" lon="-1.8285678409372363"><ele>8.5</ele><time>2026-03-22T08:28:50.99Z</time></trkpt><trkpt lat="47.293135790369526" lon="-1.8287116929878633"><ele>9.0</ele><time>2026-03-22T08:28:52.99Z</time></trkpt><trkpt lat="47.29307357995222" lon="-1.8288525940849985"><ele>9.5</ele><time>2026-03-22T08:28:54.99Z</time></trkpt><trkpt lat="47.293007531944305" lon="-1.8290041092220248"><ele>10.0</ele><time>2026-03-22T08:28:56.99Z</time></trkpt><trkpt lat="47.29294453841806" lon="-1.8291566796894894"><ele>10.2</ele><time>2026-03-22T08:28:58.99Z</time></trkpt><trkpt lat="47.29288560317769" lon="-1.82931363549616"><ele>10.4</ele><time>2026-03-22T08:29:00.99Z</time></trkpt><trkpt lat="47.29282612008276" lon="-1.829470611520927"><ele>10.600000000000001</ele><time>2026-03-22T08:29:02.99Z</time></trkpt><trkpt lat="47.29279741171427" lon="-1.8295545555316801"><ele>10.8</ele><time>2026-03-22T08:29:03.99Z</time></trkpt><trkpt lat="47.292741804228314" lon="-1.8297132821945055"><ele>11.0</ele><time>2026-03-22T08:29:05.99Z</time></trkpt><trkpt lat="47.29269022406478" lon="-1.8298696648001378"><ele>11.0</ele><time>2026-03-22T08:29:07.99Z</time></trkpt><trkpt lat="47.292658572486125" lon="-1.8299607003646192"><ele>11.0</ele><time>2026-03-22T08:29:08.99Z</time></trkpt><trkpt lat="47.292595518367435" lon="-1.830109418964885"><ele>11.0</ele><time>2026-03-22T08:29:10.99Z</time></trkpt><trkpt lat="47.292560809355585" lon="-1.8301875414262656"><ele>11.0</ele><time>2026-03-22T08:29:11.99Z</time></trkpt><trkpt lat="47.29252783166597" lon="-1.8302673800766804"><ele>11.0</ele><time>2026-03-22T08:29:12.99Z</time></trkpt><trkpt lat="47.292494353097084" lon="-1.8303522214224812"><ele>11.0</ele><time>2026-03-22T08:29:13.99Z</time></trkpt><trkpt lat="47.2924682167393" lon="-1.8304438527810785"><ele>11.0</ele><time>2026-03-22T08:29:14.99Z</time></trkpt><trkpt lat="47.29243374489129" lon="-1.8305276810936344"><ele>11.166666666666666</ele><time>2026-03-22T08:29:15.99Z</time></trkpt><trkpt lat="47.292404871818825" lon="-1.830616153175395"><ele>11.333333333333332</ele><time>2026-03-22T08:29:16.99Z</time></trkpt><trkpt lat="47.29237645633407" lon="-1.8307060208729602"><ele>11.5</ele><time>2026-03-22T08:29:17.99Z</time></trkpt><trkpt lat="47.29236413971264" lon="-1.830808335618685"><ele>11.666666666666666</ele><time>2026-03-22T08:29:18.989Z</time></trkpt><trkpt lat="47.292349088950644" lon="-1.831001913185114"><ele>11.833333333333334</ele><time>2026-03-22T08:29:20.989Z</time></trkpt><trkpt lat="47.29236316903189" lon="-1.8311079389542195"><ele>12.0</ele><time>2026-03-22T08:29:21.989Z</time></trkpt><trkpt lat="47.292380471255626" lon="-1.83121071490238"><ele>11.999999999999998</ele><time>2026-03-22T08:29:22.989Z</time></trkpt><trkpt lat="47.29240713248466" lon="-1.83130751440399"><ele>12.0</ele><time>2026-03-22T08:29:23.989Z</time></trkpt><trkpt lat="47.292436702682984" lon="-1.8314046328280529"><ele>12.0</ele><time>2026-03-22T08:29:24.989Z</time></trkpt><trkpt lat="47.29246441559318" lon="-1.8314957203473992"><ele>12.0</ele><time>2026-03-22T08:29:25.989Z</time></trkpt><trkpt lat="47.29249100421858" lon="-1.8315834394769"><ele>12.0</ele><time>2026-03-22T08:29:26.989Z</time></trkpt><trkpt lat="47.29251963444825" lon="-1.8316751190381104"><ele>11.999999999999998</ele><time>2026-03-22T08:29:27.989Z</time></trkpt><trkpt lat="47.29254963428692" lon="-1.8317610164496692"><ele>12.0</ele><time>2026-03-22T08:29:28.989Z</time></trkpt><trkpt lat="47.292576669644355" lon="-1.831848007245852"><ele>11.75</ele><time>2026-03-22T08:29:29.989Z</time></trkpt><trkpt lat="47.29262711747977" lon="-1.832011990769979"><ele>11.5</ele><time>2026-03-22T08:29:31.989Z</time></trkpt><trkpt lat="47.29267580897413" lon="-1.8321782580921626"><ele>11.25</ele><time>2026-03-22T08:29:33.989Z</time></trkpt><trkpt lat="47.292728323549625" lon="-1.832345605066567"><ele>11.0</ele><time>2026-03-22T08:29:35.989Z</time></trkpt><trkpt lat="47.292777782962446" lon="-1.8325130536317016"><ele>10.8</ele><time>2026-03-22T08:29:37.989Z</time></trkpt><trkpt lat="47.29283997745647" lon="-1.8326704858583276"><ele>10.600000000000001</ele><time>2026-03-22T08:29:39.989Z</time></trkpt><trkpt lat="47.29290101164324" lon="-1.8328222705338133"><ele>10.4</ele><time>2026-03-22T08:29:41.989Z</time></trkpt><trkpt lat="47.29297297066148" lon="-1.8329705831569156"><ele>10.2</ele><time>2026-03-22T08:29:43.989Z</time></trkpt><trkpt lat="47.293012956676634" lon="-1.833044972840966"><ele>10.0</ele><time>2026-03-22T08:29:44.989Z</time></trkpt><trkpt lat="47.29309127074199" lon="-1.8331864653857968"><ele>10.75</ele><time>2026-03-22T08:29:46.989Z</time></trkpt><trkpt lat="47.29317509890622" lon="-1.8333237808988716"><ele>11.5</ele><time>2026-03-22T08:29:48.989Z</time></trkpt><trkpt lat="47.29324102083746" lon="-1.83347089454873"><ele>12.25</ele><time>2026-03-22T08:29:50.989Z</time></trkpt><trkpt lat="47.293320162095895" lon="-1.8336081664712665"><ele>13.0</ele><time>2026-03-22T08:29:52.989Z</time></trkpt><trkpt lat="47.29340074530307" lon="-1.8337460545216828"><ele>13.0</ele><time>2026-03-22T08:29:54.989Z</time></trkpt><trkpt lat="47.293467728259685" lon="-1.8338865343686257"><ele>13.0</ele><time>2026-03-22T08:29:56.989Z</time></trkpt><trkpt lat="47.2935303488726" lon="-1.8340375911700153"><ele>13.0</ele><time>2026-03-22T08:29:58.989Z</time></trkpt><trkpt lat="47.293581825842615" lon="-1.8342006697974096"><ele>13.0</ele><time>2026-03-22T08:30:00.989Z</time></trkpt><trkpt lat="47.29361162886092" lon="-1.8343758131972865"><ele>12.666666666666666</ele><time>2026-03-22T08:30:02.989Z</time></trkpt><trkpt lat="47.29363650061297" lon="-1.8345624592389231"><ele>12.333333333333332</ele><time>2026-03-22T08:30:04.989Z</time></trkpt><trkpt lat="47.29364426719729" lon="-1.8346566680830216"><ele>12.0</ele><time>2026-03-22T08:30:05.989Z</time></trkpt><trkpt lat="47.2936505935363" lon="-1.834756283674257"><ele>11.666666666666666</ele><time>2026-03-22T08:30:06.989Z</time></trkpt><trkpt lat="47.29365299887542" lon="-1.8348548615209586"><ele>11.333333333333332</ele><time>2026-03-22T08:30:07.989Z</time></trkpt><trkpt lat="47.29365383280351" lon="-1.8349588249046813"><ele>11.0</ele><time>2026-03-22T08:30:08.989Z</time></trkpt><trkpt lat="47.293653584843675" lon="-1.8351581403042565"><ele>10.857142857142858</ele><time>2026-03-22T08:30:10.989Z</time></trkpt><trkpt lat="47.29365231548041" lon="-1.835265155141658"><ele>10.714285714285714</ele><time>2026-03-22T08:30:11.989Z</time></trkpt><trkpt lat="47.293643332396556" lon="-1.8353749774076202"><ele>10.571428571428571</ele><time>2026-03-22T08:30:12.989Z</time></trkpt><trkpt lat="47.29363247857265" lon="-1.835477958957561"><ele>10.428571428571429</ele><time>2026-03-22T08:30:13.989Z</time></trkpt><trkpt lat="47.293613039782244" lon="-1.8355807423548272"><ele>10.285714285714286</ele><time>2026-03-22T08:30:14.989Z</time></trkpt><trkpt lat="47.29358894635269" lon="-1.83567622579655"><ele>10.142857142857142</ele><time>2026-03-22T08:30:15.989Z</time></trkpt><trkpt lat="47.293545607628715" lon="-1.8357600382626487"><ele>10.0</ele><time>2026-03-22T08:30:16.989Z</time></trkpt><trkpt lat="47.29350016887206" lon="-1.8358391200822006"><ele>10.0</ele><time>2026-03-22T08:30:17.989Z</time></trkpt><trkpt lat="47.29345276141794" lon="-1.8359105230786439"><ele>10.0</ele><time>2026-03-22T08:30:18.989Z</time></trkpt><trkpt lat="47.2934053525325" lon="-1.8359980967942036"><ele>10.0</ele><time>2026-03-22T08:30:19.989Z</time></trkpt><trkpt lat="47.29337169268167" lon="-1.8360890874413294"><ele>10.0</ele><time>2026-03-22T08:30:20.989Z</time></trkpt><trkpt lat="47.29332872279935" lon="-1.836179210990409"><ele>10.0</ele><time>2026-03-22T08:30:21.989Z</time></trkpt><trkpt lat="47.29328560196272" lon="-1.8362776530206575"><ele>10.0</ele><time>2026-03-22T08:30:22.989Z</time></trkpt><trkpt lat="47.2932423295522" lon="-1.8363641002653386"><ele>10.0</ele><time>2026-03-22T08:30:23.989Z</time></trkpt><trkpt lat="47.29319522891826" lon="-1.8364563669095992"><ele>10.166666666666668</ele><time>2026-03-22T08:30:24.989Z</time></trkpt><trkpt lat="47.293144290625406" lon="-1.8365541870527782"><ele>10.333333333333334</ele><time>2026-03-22T08:30:25.989Z</time></trkpt><trkpt lat="47.29309457609159" lon="-1.836651271299702"><ele>10.5</ele><time>2026-03-22T08:30:26.989Z</time></trkpt><trkpt lat="47.29304256019392" lon="-1.8367478632519272"><ele>10.666666666666666</ele><time>2026-03-22T08:30:27.989Z</time></trkpt><trkpt lat="47.29298830377851" lon="-1.8368379983560184"><ele>10.833333333333332</ele><time>2026-03-22T08:30:28.989Z</time></trkpt><trkpt lat="47.2929407822217" lon="-1.8369261537765555"><ele>11.0</ele><time>2026-03-22T08:30:29.989Z</time></trkpt><trkpt lat="47.29289212211141" lon="-1.8370216541689262"><ele>11.166666666666666</ele><time>2026-03-22T08:30:30.989Z</time></trkpt><trkpt lat="47.2928402782365" lon="-1.8371063039738373"><ele>11.333333333333332</ele><time>2026-03-22T08:30:31.989Z</time></trkpt><trkpt lat="47.292781624040984" lon="-1.8371840998439908"><ele>11.5</ele><time>2026-03-22T08:30:32.99Z</time></trkpt><trkpt lat="47.29272788237087" lon="-1.8372546443250182"><ele>11.666666666666666</ele><time>2026-03-22T08:30:33.99Z</time></trkpt><trkpt lat="47.29267583069971" lon="-1.837332603891305"><ele>11.833333333333334</ele><time>2026-03-22T08:30:34.99Z</time></trkpt><trkpt lat="47.292632955008166" lon="-1.837428186499421"><ele>12.0</ele><time>2026-03-22T08:30:35.991Z</time></trkpt><trkpt lat="47.29259474797278" lon="-1.8375243367286371"><ele>12.0</ele><time>2026-03-22T08:30:36.99Z</time></trkpt><trkpt lat="47.29256525672777" lon="-1.8376296701172616"><ele>12.0</ele><time>2026-03-22T08:30:37.99Z</time></trkpt><trkpt lat="47.292544650896666" lon="-1.837737548284136"><ele>12.0</ele><time>2026-03-22T08:30:38.99Z</time></trkpt><trkpt lat="47.292533244685735" lon="-1.8378474533585107"><ele>12.0</ele><time>2026-03-22T08:30:39.99Z</time></trkpt><trkpt lat="47.29252417087589" lon="-1.8379569250005938"><ele>12.0</ele><time>2026-03-22T08:30:40.99Z</time></trkpt><trkpt lat="47.29251647505817" lon="-1.8380679449014752"><ele>12.0</ele><time>2026-03-22T08:30:41.991Z</time></trkpt><trkpt lat="47.29250959316974" lon="-1.8381746875579976"><ele>11.999999999999998</ele><time>2026-03-22T08:30:42.99Z</time></trkpt><trkpt lat="47.29250173850456" lon="-1.8382807053572767"><ele>12.0</ele><time>2026-03-22T08:30:43.99Z</time></trkpt><trkpt lat="47.29249943193882" lon="-1.838380419873792"><ele>12.0</ele><time>2026-03-22T08:30:44.99Z</time></trkpt><trkpt lat="47.292494587873456" lon="-1.8384820103688415"><ele>12.0</ele><time>2026-03-22T08:30:45.99Z</time></trkpt><trkpt lat="47.292500542682035" lon="-1.838599635091442"><ele>12.0</ele><time>2026-03-22T08:30:46.99Z</time></trkpt><trkpt lat="47.29249222964517" lon="-1.8387010223265885"><ele>11.999999999999998</ele><time>2026-03-22T08:30:47.99Z</time></trkpt><trkpt lat="47.29249131747041" lon="-1.8388112122694453"><ele>12.0</ele><time>2026-03-22T08:30:48.99Z</time></trkpt><trkpt lat="47.292487527361196" lon="-1.838914186699348"><ele>11.999999999999998</ele><time>2026-03-22T08:30:49.99Z</time></trkpt><trkpt lat="47.292488560813304" lon="-1.8390210499895812"><ele>12.0</ele><time>2026-03-22T08:30:50.99Z</time></trkpt><trkpt lat="47.29248643716908" lon="-1.8391261516815214"><ele>12.0</ele><time>2026-03-22T08:30:51.99Z</time></trkpt><trkpt lat="47.29248572602248" lon="-1.8392343843644716"><ele>12.0</ele><time>2026-03-22T08:30:52.99Z</time></trkpt><trkpt lat="47.292482867591254" lon="-1.83933932384154"><ele>12.0</ele><time>2026-03-22T08:30:53.99Z</time></trkpt><trkpt lat="47.292475172608356" lon="-1.839452742458878"><ele>11.999999999999998</ele><time>2026-03-22T08:30:54.99Z</time></trkpt><trkpt lat="47.29246815542627" lon="-1.8395526154935176"><ele>12.0</ele><time>2026-03-22T08:30:55.99Z</time></trkpt><trkpt lat="47.29245978935343" lon="-1.8396562940765622"><ele>11.833333333333334</ele><time>2026-03-22T08:30:56.99Z</time></trkpt><trkpt lat="47.292472252507906" lon="-1.839857444848032"><ele>11.666666666666666</ele><time>2026-03-22T08:30:58.99Z</time></trkpt><trkpt lat="47.29248239350504" lon="-1.8399591952443828"><ele>11.5</ele><time>2026-03-22T08:30:59.99Z</time></trkpt><trkpt lat="47.29249222711815" lon="-1.8400577093425339"><ele>11.333333333333332</ele><time>2026-03-22T08:31:00.99Z</time></trkpt><trkpt lat="47.29251065999967" lon="-1.8401543463011658"><ele>11.166666666666666</ele><time>2026-03-22T08:31:01.99Z</time></trkpt><trkpt lat="47.292523588882354" lon="-1.8402517827498504"><ele>11.0</ele><time>2026-03-22T08:31:02.99Z</time></trkpt><trkpt lat="47.29254589534698" lon="-1.840340916594143"><ele>10.833333333333332</ele><time>2026-03-22T08:31:03.99Z</time></trkpt><trkpt lat="47.29256177101322" lon="-1.840448642371098"><ele>10.666666666666666</ele><time>2026-03-22T08:31:04.99Z</time></trkpt><trkpt lat="47.292581094978196" lon="-1.8405528471033683"><ele>10.5</ele><time>2026-03-22T08:31:05.99Z</time></trkpt><trkpt lat="47.29260300918945" lon="-1.8406709523435159"><ele>10.333333333333334</ele><time>2026-03-22T08:31:06.99Z</time></trkpt><trkpt lat="47.29262237596502" lon="-1.8407715556236823"><ele>10.166666666666668</ele><time>2026-03-22T08:31:07.99Z</time></trkpt><trkpt lat="47.292646668381025" lon="-1.8408888477276837"><ele>10.0</ele><time>2026-03-22T08:31:08.99Z</time></trkpt><trkpt lat="47.292661680479405" lon="-1.8410005492266321"><ele>9.833333333333334</ele><time>2026-03-22T08:31:09.99Z</time></trkpt><trkpt lat="47.29268146780448" lon="-1.8411190608157197"><ele>9.666666666666668</ele><time>2026-03-22T08:31:10.99Z</time></trkpt><trkpt lat="47.292700447125" lon="-1.8412316418744803"><ele>9.5</ele><time>2026-03-22T08:31:11.99Z</time></trkpt><trkpt lat="47.292719218260935" lon="-1.8413509553271827"><ele>9.333333333333334</ele><time>2026-03-22T08:31:12.99Z</time></trkpt><trkpt lat="47.29272941494532" lon="-1.84146650308086"><ele>9.166666666666666</ele><time>2026-03-22T08:31:13.99Z</time></trkpt><trkpt lat="47.292744279346714" lon="-1.8415926586308546"><ele>9.0</ele><time>2026-03-22T08:31:14.99Z</time></trkpt><trkpt lat="47.292755656501" lon="-1.8417062184910056"><ele>8.833333333333334</ele><time>2026-03-22T08:31:15.99Z</time></trkpt><trkpt lat="47.292763124822216" lon="-1.8418258971592962"><ele>8.666666666666666</ele><time>2026-03-22T08:31:16.99Z</time></trkpt><trkpt lat="47.29275911877567" lon="-1.84194161606081"><ele>8.5</ele><time>2026-03-22T08:31:17.99Z</time></trkpt><trkpt lat="47.29275341925786" lon="-1.8420666639965932"><ele>8.333333333333332</ele><time>2026-03-22T08:31:18.99Z</time></trkpt><trkpt lat="47.29275877288146" lon="-1.842182003289383"><ele>8.166666666666666</ele><time>2026-03-22T08:31:19.99Z</time></trkpt><trkpt lat="47.29276397598736" lon="-1.842308219017152"><ele>8.0</ele><time>2026-03-22T08:31:20.99Z</time></trkpt><trkpt lat="47.29277132362254" lon="-1.842437956319823"><ele>8.0</ele><time>2026-03-22T08:31:21.99Z</time></trkpt><trkpt lat="47.29277162112921" lon="-1.842570647171355"><ele>8.0</ele><time>2026-03-22T08:31:22.99Z</time></trkpt><trkpt lat="47.292774983684026" lon="-1.8426922422785939"><ele>8.0</ele><time>2026-03-22T08:31:23.99Z</time></trkpt><trkpt lat="47.29277494931289" lon="-1.84282844272668"><ele>8.0</ele><time>2026-03-22T08:31:24.988Z</time></trkpt><trkpt lat="47.292776341177564" lon="-1.8429661105369426"><ele>8.0</ele><time>2026-03-22T08:31:25.987Z</time></trkpt><trkpt lat="47.292784939987044" lon="-1.8431062455309557"><ele>7.6000000000000005</ele><time>2026-03-22T08:31:26.986Z</time></trkpt><trkpt lat="47.29278782801261" lon="-1.8432438696767075"><ele>7.200000000000001</ele><time>2026-03-22T08:31:27.985Z</time></trkpt><trkpt lat="47.292789913686775" lon="-1.843382194335741"><ele>6.8</ele><time>2026-03-22T08:31:28.985Z</time></trkpt><trkpt lat="47.292795453007926" lon="-1.8435191412553544"><ele>6.4</ele><time>2026-03-22T08:31:29.984Z</time></trkpt><trkpt lat="47.29280009225814" lon="-1.8436613675801548"><ele>6.0</ele><time>2026-03-22T08:31:30.983Z</time></trkpt><trkpt lat="47.29279856590693" lon="-1.8437977351219026"><ele>5.8</ele><time>2026-03-22T08:31:31.982Z</time></trkpt><trkpt lat="47.2927962125944" lon="-1.8439325672537068"><ele>5.6</ele><time>2026-03-22T08:31:32.982Z</time></trkpt><trkpt lat="47.292797217807134" lon="-1.8440687762444652"><ele>5.4</ele><time>2026-03-22T08:31:33.981Z</time></trkpt><trkpt lat="47.292800568337576" lon="-1.8441981477373657"><ele>5.2</ele><time>2026-03-22T08:31:34.98Z</time></trkpt><trkpt lat="47.292809003488216" lon="-1.8443325199669554"><ele>5.0</ele><time>2026-03-22T08:31:35.98Z</time></trkpt><trkpt lat="47.29282252316503" lon="-1.8444639579480022"><ele>5.0</ele><time>2026-03-22T08:31:36.979Z</time></trkpt><trkpt lat="47.29282000338522" lon="-1.8445876079825898"><ele>5.0</ele><time>2026-03-22T08:31:37.979Z</time></trkpt><trkpt lat="47.292817376202244" lon="-1.8447109882925612"><ele>5.0</ele><time>2026-03-22T08:31:38.978Z</time></trkpt><trkpt lat="47.29282067368827" lon="-1.8448277526920327"><ele>5.0</ele><time>2026-03-22T08:31:39.978Z</time></trkpt><trkpt lat="47.292826868752734" lon="-1.844942750157639"><ele>5.0</ele><time>2026-03-22T08:31:40.977Z</time></trkpt><trkpt lat="47.292831987603435" lon="-1.84504956216024"><ele>5.0</ele><time>2026-03-22T08:31:41.977Z</time></trkpt><trkpt lat="47.292834945376825" lon="-1.845158902682974"><ele>5.166666666666667</ele><time>2026-03-22T08:31:42.977Z</time></trkpt><trkpt lat="47.29283877221739" lon="-1.8452670321256592"><ele>5.333333333333334</ele><time>2026-03-22T08:31:43.976Z</time></trkpt><trkpt lat="47.29283815771891" lon="-1.8453704432750666"><ele>5.5</ele><time>2026-03-22T08:31:44.976Z</time></trkpt><trkpt lat="47.29283995539225" lon="-1.8454723463815257"><ele>5.666666666666667</ele><time>2026-03-22T08:31:45.976Z</time></trkpt><trkpt lat="47.292842359579105" lon="-1.8455698043221416"><ele>5.833333333333333</ele><time>2026-03-22T08:31:46.975Z</time></trkpt><trkpt lat="47.29284921115988" lon="-1.8457662722306487"><ele>6.0</ele><time>2026-03-22T08:31:48.975Z</time></trkpt><trkpt lat="47.29285180168789" lon="-1.8459526606095369"><ele>6.142857142857142</ele><time>2026-03-22T08:31:50.974Z</time></trkpt><trkpt lat="47.29285254981205" lon="-1.8460539695101468"><ele>6.285714285714286</ele><time>2026-03-22T08:31:51.974Z</time></trkpt><trkpt lat="47.29285400363218" lon="-1.8461530417605427"><ele>6.428571428571429</ele><time>2026-03-22T08:31:52.974Z</time></trkpt><trkpt lat="47.292858341710755" lon="-1.8462517216872765"><ele>6.571428571428571</ele><time>2026-03-22T08:31:53.974Z</time></trkpt><trkpt lat="47.29286205823215" lon="-1.846347437735192"><ele>6.714285714285714</ele><time>2026-03-22T08:31:54.974Z</time></trkpt><trkpt lat="47.292867358873295" lon="-1.8464498731010404"><ele>6.857142857142857</ele><time>2026-03-22T08:31:55.973Z</time></trkpt><trkpt lat="47.292868186437495" lon="-1.8465502927515913"><ele>7.0</ele><time>2026-03-22T08:31:56.973Z</time></trkpt><trkpt lat="47.29287209886076" lon="-1.8466530212073577"><ele>7.0</ele><time>2026-03-22T08:31:57.973Z</time></trkpt><trkpt lat="47.29287773615439" lon="-1.846758041596204"><ele>7.0</ele><time>2026-03-22T08:31:58.973Z</time></trkpt><trkpt lat="47.292882105718284" lon="-1.8468617612516263"><ele>7.0</ele><time>2026-03-22T08:31:59.973Z</time></trkpt><trkpt lat="47.29288486663932" lon="-1.8469622955517713"><ele>7.0</ele><time>2026-03-22T08:32:00.973Z</time></trkpt><trkpt lat="47.29288517111024" lon="-1.847061142476844"><ele>7.0</ele><time>2026-03-22T08:32:01.973Z</time></trkpt><trkpt lat="47.29289047477838" lon="-1.8471692213291082"><ele>7.0</ele><time>2026-03-22T08:32:02.972Z</time></trkpt><trkpt lat="47.292891689563994" lon="-1.8472690547056783"><ele>7.0</ele><time>2026-03-22T08:32:03.972Z</time></trkpt><trkpt lat="47.292893446469975" lon="-1.8473710665976197"><ele>7.0</ele><time>2026-03-22T08:32:04.972Z</time></trkpt><trkpt lat="47.29289232231641" lon="-1.847472567542535"><ele>7.0</ele><time>2026-03-22T08:32:05.972Z</time></trkpt><trkpt lat="47.292895376646754" lon="-1.847574350211782"><ele>7.0</ele><time>2026-03-22T08:32:06.972Z</time></trkpt><trkpt lat="47.29289922414111" lon="-1.8476762118510102"><ele>7.0</ele><time>2026-03-22T08:32:07.972Z</time></trkpt><trkpt lat="47.29290186615457" lon="-1.847780515148451"><ele>7.0</ele><time>2026-03-22T08:32:08.972Z</time></trkpt><trkpt lat="47.29290704891848" lon="-1.8478838990910378"><ele>7.0</ele><time>2026-03-22T08:32:09.972Z</time></trkpt><trkpt lat="47.29291270841232" lon="-1.8479831773667967"><ele>7.0</ele><time>2026-03-22T08:32:10.972Z</time></trkpt><trkpt lat="47.29291222625429" lon="-1.8480859654341248"><ele>7.0</ele><time>2026-03-22T08:32:11.972Z</time></trkpt><trkpt lat="47.29291507269995" lon="-1.8481877614016051"><ele>7.0</ele><time>2026-03-22T08:32:12.972Z</time></trkpt><trkpt lat="47.292920210567665" lon="-1.8482855183176405"><ele>7.0</ele><time>2026-03-22T08:32:13.972Z</time></trkpt><trkpt lat="47.29292372571449" lon="-1.8483880182423345"><ele>7.0</ele><time>2026-03-22T08:32:14.972Z</time></trkpt><trkpt lat="47.29292369842075" lon="-1.8484858443475831"><ele>7.0</ele><time>2026-03-22T08:32:15.971Z</time></trkpt><trkpt lat="47.2929238940666" lon="-1.848582801990641"><ele>7.0</ele><time>2026-03-22T08:32:16.971Z</time></trkpt><trkpt lat="47.29292779015496" lon="-1.8486844193464462"><ele>7.0</ele><time>2026-03-22T08:32:17.971Z</time></trkpt><trkpt lat="47.29293589792705" lon="-1.8487893327819451"><ele>7.000000000000001</ele><time>2026-03-22T08:32:18.971Z</time></trkpt><trkpt lat="47.292955014466735" lon="-1.848978914567202"><ele>7.0</ele><time>2026-03-22T08:32:20.971Z</time></trkpt><trkpt lat="47.292971018942104" lon="-1.849074285404131"><ele>7.0</ele><time>2026-03-22T08:32:21.971Z</time></trkpt><trkpt lat="47.29298649293739" lon="-1.849172747853864"><ele>7.0</ele><time>2026-03-22T08:32:22.971Z</time></trkpt><trkpt lat="47.29300136874467" lon="-1.8492681538751092"><ele>7.000000000000001</ele><time>2026-03-22T08:32:23.971Z</time></trkpt><trkpt lat="47.29301651288661" lon="-1.8493589766849712"><ele>7.0</ele><time>2026-03-22T08:32:24.971Z</time></trkpt><trkpt lat="47.29303630710967" lon="-1.8494517482131902"><ele>7.0</ele><time>2026-03-22T08:32:25.971Z</time></trkpt><trkpt lat="47.293054133306335" lon="-1.8495409472767452"><ele>6.999999999999999</ele><time>2026-03-22T08:32:26.971Z</time></trkpt><trkpt lat="47.29307955994084" lon="-1.8497170700544128"><ele>6.999999999999999</ele><time>2026-03-22T08:32:28.971Z</time></trkpt><trkpt lat="47.29310655597334" lon="-1.849885575863988"><ele>7.0</ele><time>2026-03-22T08:32:30.971Z</time></trkpt><trkpt lat="47.29311771029649" lon="-1.8499791743718315"><ele>7.0</ele><time>2026-03-22T08:32:31.971Z</time></trkpt><trkpt lat="47.29315014937102" lon="-1.8501562612517586"><ele>7.142857142857142</ele><time>2026-03-22T08:32:33.971Z</time></trkpt><trkpt lat="47.293170612556764" lon="-1.8502489934641473"><ele>7.285714285714286</ele><time>2026-03-22T08:32:34.971Z</time></trkpt><trkpt lat="47.29318672700451" lon="-1.850341236393006"><ele>7.428571428571429</ele><time>2026-03-22T08:32:35.971Z</time></trkpt><trkpt lat="47.2932026316296" lon="-1.8504378672477046"><ele>7.571428571428571</ele><time>2026-03-22T08:32:36.971Z</time></trkpt><trkpt lat="47.293217479685" lon="-1.8505314397833994"><ele>7.7142857142857135</ele><time>2026-03-22T08:32:37.971Z</time></trkpt><trkpt lat="47.29322968284609" lon="-1.8506274182770575"><ele>7.857142857142857</ele><time>2026-03-22T08:32:38.971Z</time></trkpt><trkpt lat="47.29324485952594" lon="-1.8507223009843106"><ele>8.0</ele><time>2026-03-22T08:32:39.971Z</time></trkpt><trkpt lat="47.29327966546076" lon="-1.8509260631936517"><ele>7.833333333333333</ele><time>2026-03-22T08:32:41.971Z</time></trkpt><trkpt lat="47.293313988976344" lon="-1.8511128583372114"><ele>7.666666666666666</ele><time>2026-03-22T08:32:43.971Z</time></trkpt><trkpt lat="47.29333064559994" lon="-1.851204990200529"><ele>7.5</ele><time>2026-03-22T08:32:44.971Z</time></trkpt><trkpt lat="47.293343801469284" lon="-1.8513102125629088"><ele>7.333333333333334</ele><time>2026-03-22T08:32:45.971Z</time></trkpt><trkpt lat="47.29335558653884" lon="-1.8514196267046328"><ele>7.166666666666667</ele><time>2026-03-22T08:32:46.971Z</time></trkpt><trkpt lat="47.2933681790777" lon="-1.851522753365651"><ele>7.0</ele><time>2026-03-22T08:32:47.971Z</time></trkpt><trkpt lat="47.29337425216406" lon="-1.8516211389361343"><ele>7.000000000000001</ele><time>2026-03-22T08:32:48.971Z</time></trkpt><trkpt lat="47.29338069239662" lon="-1.851730623786123"><ele>7.0</ele><time>2026-03-22T08:32:49.971Z</time></trkpt><trkpt lat="47.29337568859359" lon="-1.8518470331340886"><ele>7.0</ele><time>2026-03-22T08:32:50.97Z</time></trkpt><trkpt lat="47.29336399335334" lon="-1.851963768626451"><ele>7.0</ele><time>2026-03-22T08:32:51.971Z</time></trkpt><trkpt lat="47.29335730476895" lon="-1.8520805332009846"><ele>7.000000000000001</ele><time>2026-03-22T08:32:52.971Z</time></trkpt><trkpt lat="47.29335072844073" lon="-1.8521961649580003"><ele>7.0</ele><time>2026-03-22T08:32:53.971Z</time></trkpt><trkpt lat="47.293339144738326" lon="-1.8523045266615112"><ele>7.000000000000001</ele><time>2026-03-22T08:32:54.971Z</time></trkpt><trkpt lat="47.29333113450593" lon="-1.852424046049803"><ele>7.0</ele><time>2026-03-22T08:32:55.971Z</time></trkpt><trkpt lat="47.29332573964693" lon="-1.8525411506124678"><ele>7.0</ele><time>2026-03-22T08:32:56.971Z</time></trkpt><trkpt lat="47.29331172757344" lon="-1.8526577600491791"><ele>7.0</ele><time>2026-03-22T08:32:57.971Z</time></trkpt><trkpt lat="47.2933015724111" lon="-1.8527723792599344"><ele>7.000000000000001</ele><time>2026-03-22T08:32:58.971Z</time></trkpt><trkpt lat="47.293292997731335" lon="-1.8528836832918734"><ele>7.0</ele><time>2026-03-22T08:32:59.971Z</time></trkpt><trkpt lat="47.293279837139195" lon="-1.8530004796823614"><ele>7.0</ele><time>2026-03-22T08:33:00.971Z</time></trkpt><trkpt lat="47.29326717573836" lon="-1.853107298932566"><ele>7.0</ele><time>2026-03-22T08:33:01.971Z</time></trkpt><trkpt lat="47.29325969769538" lon="-1.8532245191203909"><ele>7.0</ele><time>2026-03-22T08:33:02.971Z</time></trkpt><trkpt lat="47.29325308157952" lon="-1.8533319994359543"><ele>7.0</ele><time>2026-03-22T08:33:03.971Z</time></trkpt><trkpt lat="47.29324524644237" lon="-1.8534390912121754"><ele>7.0</ele><time>2026-03-22T08:33:04.971Z</time></trkpt><trkpt lat="47.29323706460915" lon="-1.8535478290099572"><ele>7.0</ele><time>2026-03-22T08:33:05.97Z</time></trkpt><trkpt lat="47.29323384037147" lon="-1.8536558546216704"><ele>7.0</ele><time>2026-03-22T08:33:06.97Z</time></trkpt><trkpt lat="47.293223525135865" lon="-1.8537608681897328"><ele>6.857142857142857</ele><time>2026-03-22T08:33:07.97Z</time></trkpt><trkpt lat="47.293213601394285" lon="-1.8538643106009638"><ele>6.714285714285714</ele><time>2026-03-22T08:33:08.97Z</time></trkpt><trkpt lat="47.29320581540189" lon="-1.8539725956512074"><ele>6.571428571428571</ele><time>2026-03-22T08:33:09.97Z</time></trkpt><trkpt lat="47.29319737602602" lon="-1.854078850758465"><ele>6.428571428571429</ele><time>2026-03-22T08:33:10.97Z</time></trkpt><trkpt lat="47.29318748812618" lon="-1.8541874375313294"><ele>6.285714285714286</ele><time>2026-03-22T08:33:11.97Z</time></trkpt><trkpt lat="47.293180333511316" lon="-1.8542961953686263"><ele>6.142857142857142</ele><time>2026-03-22T08:33:12.97Z</time></trkpt><trkpt lat="47.29317250383124" lon="-1.854405892604965"><ele>6.0</ele><time>2026-03-22T08:33:13.97Z</time></trkpt><trkpt lat="47.29316423203252" lon="-1.8545138799949872"><ele>5.857142857142857</ele><time>2026-03-22T08:33:14.97Z</time></trkpt><trkpt lat="47.29315428257579" lon="-1.8546219056485669"><ele>5.714285714285714</ele><time>2026-03-22T08:33:15.97Z</time></trkpt><trkpt lat="47.29314261888751" lon="-1.8547267945531014"><ele>5.571428571428571</ele><time>2026-03-22T08:33:16.97Z</time></trkpt><trkpt lat="47.29313060031652" lon="-1.8548326956484718"><ele>5.428571428571429</ele><time>2026-03-22T08:33:17.97Z</time></trkpt><trkpt lat="47.29312912466648" lon="-1.8549477226850304"><ele>5.285714285714286</ele><time>2026-03-22T08:33:18.97Z</time></trkpt><trkpt lat="47.29312131702048" lon="-1.8550540364458425"><ele>5.142857142857142</ele><time>2026-03-22T08:33:19.97Z</time></trkpt><trkpt lat="47.29311736566044" lon="-1.8551577942626232"><ele>5.0</ele><time>2026-03-22T08:33:20.97Z</time></trkpt><trkpt lat="47.29311404901876" lon="-1.8552635727941813"><ele>5.0</ele><time>2026-03-22T08:33:21.97Z</time></trkpt><trkpt lat="47.293103852869834" lon="-1.855369712626127"><ele>5.0</ele><time>2026-03-22T08:33:22.97Z</time></trkpt><trkpt lat="47.293094616217495" lon="-1.8554766324338245"><ele>5.0</ele><time>2026-03-22T08:33:23.97Z</time></trkpt><trkpt lat="47.29308441711188" lon="-1.855586968443851"><ele>5.0</ele><time>2026-03-22T08:33:24.97Z</time></trkpt><trkpt lat="47.293074946472814" lon="-1.8557040620663667"><ele>5.0</ele><time>2026-03-22T08:33:25.97Z</time></trkpt><trkpt lat="47.29306230487264" lon="-1.8558206345951178"><ele>5.0</ele><time>2026-03-22T08:33:26.97Z</time></trkpt><trkpt lat="47.29305037934715" lon="-1.8559369090766062"><ele>5.0</ele><time>2026-03-22T08:33:27.97Z</time></trkpt><trkpt lat="47.293039387734815" lon="-1.8560539395885822"><ele>5.0</ele><time>2026-03-22T08:33:28.97Z</time></trkpt><trkpt lat="47.293025714125136" lon="-1.8561705328293157"><ele>5.0</ele><time>2026-03-22T08:33:29.97Z</time></trkpt><trkpt lat="47.29300906897742" lon="-1.8562858717192048"><ele>5.0</ele><time>2026-03-22T08:33:30.97Z</time></trkpt><trkpt lat="47.29298939213943" lon="-1.8563984815237966"><ele>5.0</ele><time>2026-03-22T08:33:31.97Z</time></trkpt><trkpt lat="47.29296328817103" lon="-1.856515036071274"><ele>5.0</ele><time>2026-03-22T08:33:32.97Z</time></trkpt><trkpt lat="47.292930958464865" lon="-1.8566232541184706"><ele>5.0</ele><time>2026-03-22T08:33:33.97Z</time></trkpt><trkpt lat="47.29289793891364" lon="-1.856733213594636"><ele>5.0</ele><time>2026-03-22T08:33:34.97Z</time></trkpt><trkpt lat="47.292863140032665" lon="-1.8568385823149556"><ele>5.0</ele><time>2026-03-22T08:33:35.97Z</time></trkpt><trkpt lat="47.29282067570963" lon="-1.8569395521737153"><ele>5.0</ele><time>2026-03-22T08:33:36.97Z</time></trkpt><trkpt lat="47.29277355521879" lon="-1.8570373792623458"><ele>5.0</ele><time>2026-03-22T08:33:37.97Z</time></trkpt><trkpt lat="47.292731021052546" lon="-1.8571331499851482"><ele>5.0</ele><time>2026-03-22T08:33:38.97Z</time></trkpt><trkpt lat="47.29269149637394" lon="-1.85722871081226"><ele>5.0</ele><time>2026-03-22T08:33:39.97Z</time></trkpt><trkpt lat="47.29264964876675" lon="-1.8573342129936645"><ele>5.0</ele><time>2026-03-22T08:33:40.97Z</time></trkpt><trkpt lat="47.29261323738447" lon="-1.857436448041425"><ele>5.0</ele><time>2026-03-22T08:33:41.97Z</time></trkpt><trkpt lat="47.29258139978318" lon="-1.8575280039361681"><ele>5.0</ele><time>2026-03-22T08:33:42.97Z</time></trkpt><trkpt lat="47.29254794392603" lon="-1.8576113091707096"><ele>5.0</ele><time>2026-03-22T08:33:43.97Z</time></trkpt><trkpt lat="47.292511639490264" lon="-1.8577038724863628"><ele>5.0</ele><time>2026-03-22T08:33:44.97Z</time></trkpt><trkpt lat="47.29247376417614" lon="-1.8577794889751607"><ele>5.0</ele><time>2026-03-22T08:33:45.97Z</time></trkpt><trkpt lat="47.29244225276838" lon="-1.857877991330242"><ele>5.142857142857142</ele><time>2026-03-22T08:33:46.97Z</time></trkpt><trkpt lat="47.29240951401327" lon="-1.8579672242107854"><ele>5.285714285714286</ele><time>2026-03-22T08:33:47.97Z</time></trkpt><trkpt lat="47.292370266217" lon="-1.858059190032288"><ele>5.428571428571429</ele><time>2026-03-22T08:33:48.97Z</time></trkpt><trkpt lat="47.29233478892347" lon="-1.8581543841144537"><ele>5.571428571428571</ele><time>2026-03-22T08:33:49.97Z</time></trkpt><trkpt lat="47.29229138402791" lon="-1.8582545620342645"><ele>5.714285714285714</ele><time>2026-03-22T08:33:50.97Z</time></trkpt><trkpt lat="47.292258429850335" lon="-1.8583474801784672"><ele>5.857142857142857</ele><time>2026-03-22T08:33:51.97Z</time></trkpt><trkpt lat="47.292234462496324" lon="-1.8584545598103726"><ele>6.0</ele><time>2026-03-22T08:33:52.97Z</time></trkpt><trkpt lat="47.292214753732274" lon="-1.8585525699375207"><ele>6.0</ele><time>2026-03-22T08:33:53.97Z</time></trkpt><trkpt lat="47.292201079013104" lon="-1.8586588213733954"><ele>6.0</ele><time>2026-03-22T08:33:54.97Z</time></trkpt><trkpt lat="47.29219554947824" lon="-1.8587611305322982"><ele>6.0</ele><time>2026-03-22T08:33:55.97Z</time></trkpt><trkpt lat="47.29219286893024" lon="-1.8588683860686668"><ele>6.0</ele><time>2026-03-22T08:33:56.97Z</time></trkpt><trkpt lat="47.292186643932816" lon="-1.8590587904221567"><ele>6.0</ele><time>2026-03-22T08:33:58.97Z</time></trkpt><trkpt lat="47.29217602680939" lon="-1.859152811469597"><ele>6.0</ele><time>2026-03-22T08:33:59.97Z</time></trkpt><trkpt lat="47.292171971188445" lon="-1.8592509378528421"><ele>6.0</ele><time>2026-03-22T08:34:00.97Z</time></trkpt><trkpt lat="47.29216476181403" lon="-1.8593441672628914"><ele>6.0</ele><time>2026-03-22T08:34:01.97Z</time></trkpt><trkpt lat="47.29215476232675" lon="-1.8594366184282283"><ele>6.0</ele><time>2026-03-22T08:34:02.97Z</time></trkpt><trkpt lat="47.292134658340586" lon="-1.8596152167543845"><ele>6.0</ele><time>2026-03-22T08:34:04.97Z</time></trkpt><trkpt lat="47.29212076061946" lon="-1.8597922490973708"><ele>6.0</ele><time>2026-03-22T08:34:06.97Z</time></trkpt><trkpt lat="47.292094699979295" lon="-1.859962329810125"><ele>6.0</ele><time>2026-03-22T08:34:08.97Z</time></trkpt><trkpt lat="47.29206379556377" lon="-1.8601196681560883"><ele>6.0</ele><time>2026-03-22T08:34:10.97Z</time></trkpt><trkpt lat="47.29203940936236" lon="-1.860207698142581"><ele>6.0</ele><time>2026-03-22T08:34:11.97Z</time></trkpt><trkpt lat="47.29199524265151" lon="-1.8603600673601213"><ele>6.0</ele><time>2026-03-22T08:34:13.97Z</time></trkpt><trkpt lat="47.2919389616179" lon="-1.8605125593328866"><ele>6.0</ele><time>2026-03-22T08:34:15.97Z</time></trkpt><trkpt lat="47.291882013696195" lon="-1.8606547941541158"><ele>6.0</ele><time>2026-03-22T08:34:17.97Z</time></trkpt><trkpt lat="47.291813982131245" lon="-1.8608016980468916"><ele>6.0</ele><time>2026-03-22T08:34:19.97Z</time></trkpt><trkpt lat="47.29175821679643" lon="-1.8609518814908879"><ele>6.0</ele><time>2026-03-22T08:34:21.969Z</time></trkpt><trkpt lat="47.29169856587118" lon="-1.8610988171728182"><ele>6.0</ele><time>2026-03-22T08:34:23.969Z</time></trkpt><trkpt lat="47.29164676720518" lon="-1.8612367552589844"><ele>6.25</ele><time>2026-03-22T08:34:25.969Z</time></trkpt><trkpt lat="47.29158885764929" lon="-1.8613892546087285"><ele>6.5</ele><time>2026-03-22T08:34:27.969Z</time></trkpt><trkpt lat="47.29152827549887" lon="-1.8615320007065317"><ele>6.75</ele><time>2026-03-22T08:34:29.969Z</time></trkpt><trkpt lat="47.29147515044242" lon="-1.8616933185303068"><ele>7.0</ele><time>2026-03-22T08:34:31.969Z</time></trkpt><trkpt lat="47.29143391261538" lon="-1.861846719272738"><ele>7.3999999999999995</ele><time>2026-03-22T08:34:33.969Z</time></trkpt><trkpt lat="47.291384731076526" lon="-1.8619928949029145"><ele>7.799999999999999</ele><time>2026-03-22T08:34:35.969Z</time></trkpt><trkpt lat="47.291341765954776" lon="-1.862150775287547"><ele>8.2</ele><time>2026-03-22T08:34:37.969Z</time></trkpt><trkpt lat="47.291313795898844" lon="-1.8622379077085185"><ele>8.6</ele><time>2026-03-22T08:34:38.969Z</time></trkpt><trkpt lat="47.291271219140924" lon="-1.8624063806634092"><ele>9.0</ele><time>2026-03-22T08:34:40.969Z</time></trkpt><trkpt lat="47.29122830629686" lon="-1.8625710158028288"><ele>9.25</ele><time>2026-03-22T08:34:42.969Z</time></trkpt><trkpt lat="47.2911859370992" lon="-1.8627310068567193"><ele>9.5</ele><time>2026-03-22T08:34:44.97Z</time></trkpt><trkpt lat="47.29114452934227" lon="-1.862895988937345"><ele>9.75</ele><time>2026-03-22T08:34:46.97Z</time></trkpt><trkpt lat="47.2911088399967" lon="-1.8630601878254593"><ele>10.0</ele><time>2026-03-22T08:34:48.97Z</time></trkpt><trkpt lat="47.291086211492996" lon="-1.863220586971292"><ele>10.0</ele><time>2026-03-22T08:34:50.97Z</time></trkpt><trkpt lat="47.29106481962955" lon="-1.8633882573000673"><ele>10.0</ele><time>2026-03-22T08:34:52.971Z</time></trkpt><trkpt lat="47.2910569605592" lon="-1.8635518879395556"><ele>10.0</ele><time>2026-03-22T08:34:54.97Z</time></trkpt><trkpt lat="47.291067901037074" lon="-1.8637238230195272"><ele>10.0</ele><time>2026-03-22T08:34:56.97Z</time></trkpt><trkpt lat="47.291092442953214" lon="-1.8638956061722949"><ele>10.2</ele><time>2026-03-22T08:34:58.97Z</time></trkpt><trkpt lat="47.291132688737825" lon="-1.864064073909403"><ele>10.4</ele><time>2026-03-22T08:35:00.97Z</time></trkpt><trkpt lat="47.291191656864996" lon="-1.8642264684970256"><ele>10.600000000000001</ele><time>2026-03-22T08:35:02.97Z</time></trkpt><trkpt lat="47.29125177968995" lon="-1.864375497497434"><ele>10.8</ele><time>2026-03-22T08:35:04.97Z</time></trkpt><trkpt lat="47.291284647968325" lon="-1.8644558866461765"><ele>11.0</ele><time>2026-03-22T08:35:05.97Z</time></trkpt><trkpt lat="47.29135513228452" lon="-1.864601954757794"><ele>11.0</ele><time>2026-03-22T08:35:07.97Z</time></trkpt><trkpt lat="47.291391511465136" lon="-1.864680823608745"><ele>11.0</ele><time>2026-03-22T08:35:08.97Z</time></trkpt><trkpt lat="47.291426913721786" lon="-1.8647626898924066"><ele>11.0</ele><time>2026-03-22T08:35:09.97Z</time></trkpt><trkpt lat="47.29146456419759" lon="-1.8648372562991529"><ele>11.0</ele><time>2026-03-22T08:35:10.97Z</time></trkpt><trkpt lat="47.29150273114964" lon="-1.8649196394294052"><ele>11.0</ele><time>2026-03-22T08:35:11.97Z</time></trkpt><trkpt lat="47.29153948347668" lon="-1.864996498963292"><ele>11.0</ele><time>2026-03-22T08:35:12.97Z</time></trkpt><trkpt lat="47.29157691756509" lon="-1.8650727654445285"><ele>11.0</ele><time>2026-03-22T08:35:13.97Z</time></trkpt><trkpt lat="47.2916134119223" lon="-1.865153100048149"><ele>11.333333333333332</ele><time>2026-03-22T08:35:14.97Z</time></trkpt><trkpt lat="47.29167733604711" lon="-1.8653119193214827"><ele>11.666666666666666</ele><time>2026-03-22T08:35:16.97Z</time></trkpt><trkpt lat="47.29171095828559" lon="-1.8653958419842662"><ele>12.0</ele><time>2026-03-22T08:35:17.97Z</time></trkpt><trkpt lat="47.29174330583251" lon="-1.8654787356560831"><ele>12.333333333333332</ele><time>2026-03-22T08:35:18.97Z</time></trkpt><trkpt lat="47.29178780857293" lon="-1.8655535457781665"><ele>12.666666666666666</ele><time>2026-03-22T08:35:19.97Z</time></trkpt><trkpt lat="47.29181201514075" lon="-1.8656535504252814"><ele>13.0</ele><time>2026-03-22T08:35:20.97Z</time></trkpt><trkpt lat="47.291839075114545" lon="-1.865754088754714"><ele>13.0</ele><time>2026-03-22T08:35:21.97Z</time></trkpt><trkpt lat="47.291869144141806" lon="-1.8658465354773084"><ele>13.0</ele><time>2026-03-22T08:35:22.97Z</time></trkpt><trkpt lat="47.29188939544679" lon="-1.8659514023611388"><ele>13.0</ele><time>2026-03-22T08:35:23.97Z</time></trkpt><trkpt lat="47.29191104575409" lon="-1.8660546746686941"><ele>13.0</ele><time>2026-03-22T08:35:24.97Z</time></trkpt><trkpt lat="47.29192739817966" lon="-1.8661594585098944"><ele>13.0</ele><time>2026-03-22T08:35:25.97Z</time></trkpt><trkpt lat="47.291940517750845" lon="-1.866259850439248"><ele>13.0</ele><time>2026-03-22T08:35:26.97Z</time></trkpt><trkpt lat="47.29195272978918" lon="-1.8663662772521252"><ele>13.0</ele><time>2026-03-22T08:35:27.97Z</time></trkpt><trkpt lat="47.291964998943136" lon="-1.866464199009643"><ele>12.714285714285714</ele><time>2026-03-22T08:35:28.97Z</time></trkpt><trkpt lat="47.29197449882337" lon="-1.8665616872316482"><ele>12.428571428571429</ele><time>2026-03-22T08:35:29.97Z</time></trkpt><trkpt lat="47.291978586736164" lon="-1.8666585947655776"><ele>12.142857142857142</ele><time>2026-03-22T08:35:30.97Z</time></trkpt><trkpt lat="47.291980910099184" lon="-1.8667584289242867"><ele>11.857142857142858</ele><time>2026-03-22T08:35:31.97Z</time></trkpt><trkpt lat="47.29197570357839" lon="-1.866853330429044"><ele>11.571428571428571</ele><time>2026-03-22T08:35:32.97Z</time></trkpt><trkpt lat="47.29197716676593" lon="-1.8669547743208863"><ele>11.285714285714286</ele><time>2026-03-22T08:35:33.97Z</time></trkpt><trkpt lat="47.291968545085105" lon="-1.8670592407230673"><ele>11.0</ele><time>2026-03-22T08:35:34.97Z</time></trkpt><trkpt lat="47.29195803579629" lon="-1.8671617692884357"><ele>10.857142857142858</ele><time>2026-03-22T08:35:35.97Z</time></trkpt><trkpt lat="47.29194745411997" lon="-1.8672653848974676"><ele>10.714285714285714</ele><time>2026-03-22T08:35:36.97Z</time></trkpt><trkpt lat="47.29194206454195" lon="-1.8673659611632265"><ele>10.571428571428571</ele><time>2026-03-22T08:35:37.97Z</time></trkpt><trkpt lat="47.291932345472475" lon="-1.8674682776913387"><ele>10.428571428571429</ele><time>2026-03-22T08:35:38.97Z</time></trkpt><trkpt lat="47.29192442517298" lon="-1.8675752793427562"><ele>10.285714285714286</ele><time>2026-03-22T08:35:39.97Z</time></trkpt><trkpt lat="47.291916803923655" lon="-1.8676816203735966"><ele>10.142857142857142</ele><time>2026-03-22T08:35:40.97Z</time></trkpt><trkpt lat="47.29191247433046" lon="-1.8677768985182253"><ele>10.0</ele><time>2026-03-22T08:35:41.97Z</time></trkpt><trkpt lat="47.291902756804255" lon="-1.8678822502598451"><ele>10.0</ele><time>2026-03-22T08:35:42.97Z</time></trkpt><trkpt lat="47.291891249453286" lon="-1.8679796019469281"><ele>10.0</ele><time>2026-03-22T08:35:43.97Z</time></trkpt><trkpt lat="47.29188171426033" lon="-1.8680796758860043"><ele>10.0</ele><time>2026-03-22T08:35:44.97Z</time></trkpt><trkpt lat="47.29187306908746" lon="-1.8681716486233002"><ele>10.0</ele><time>2026-03-22T08:35:45.97Z</time></trkpt><trkpt lat="47.291853665979" lon="-1.8683448212566967"><ele>10.0</ele><time>2026-03-22T08:35:47.97Z</time></trkpt><trkpt lat="47.291863513534906" lon="-1.868461610127993"><ele>10.0</ele><time>2026-03-22T08:35:49.97Z</time></trkpt><trkpt lat="47.29193423087329" lon="-1.8684941419111005"><ele>10.2</ele><time>2026-03-22T08:35:54.97Z</time></trkpt><trkpt lat="47.29191452104923" lon="-1.868641895499741"><ele>10.4</ele><time>2026-03-22T08:35:57.97Z</time></trkpt><trkpt lat="47.29186534650001" lon="-1.8687577680297824"><ele>10.600000000000001</ele><time>2026-03-22T08:35:59.97Z</time></trkpt><trkpt lat="47.29181008493687" lon="-1.8688703639077184"><ele>10.8</ele><time>2026-03-22T08:36:01.97Z</time></trkpt><trkpt lat="47.291752865146336" lon="-1.8689915617063229"><ele>11.0</ele><time>2026-03-22T08:36:03.97Z</time></trkpt><trkpt lat="47.29170005658541" lon="-1.8691107845393096"><ele>11.0</ele><time>2026-03-22T08:36:05.97Z</time></trkpt><trkpt lat="47.29164258238853" lon="-1.8692408819666304"><ele>11.0</ele><time>2026-03-22T08:36:07.97Z</time></trkpt><trkpt lat="47.291591960568695" lon="-1.8693746941411458"><ele>11.0</ele><time>2026-03-22T08:36:09.97Z</time></trkpt><trkpt lat="47.291536153765456" lon="-1.8694971387948365"><ele>11.0</ele><time>2026-03-22T08:36:11.97Z</time></trkpt><trkpt lat="47.29148291471293" lon="-1.8696209025571344"><ele>11.0</ele><time>2026-03-22T08:36:13.97Z</time></trkpt><trkpt lat="47.29143201029935" lon="-1.8697484634511286"><ele>11.4</ele><time>2026-03-22T08:36:15.969Z</time></trkpt><trkpt lat="47.291381695241654" lon="-1.86986386691179"><ele>11.8</ele><time>2026-03-22T08:36:17.969Z</time></trkpt><trkpt lat="47.291334055980194" lon="-1.869987595276442"><ele>12.200000000000001</ele><time>2026-03-22T08:36:19.969Z</time></trkpt><trkpt lat="47.291284632039776" lon="-1.8700888398552291"><ele>12.600000000000001</ele><time>2026-03-22T08:36:21.969Z</time></trkpt><trkpt lat="47.29123478292694" lon="-1.8702016835438438"><ele>13.0</ele><time>2026-03-22T08:36:23.969Z</time></trkpt><trkpt lat="47.29118979137424" lon="-1.8703209730153663"><ele>13.499999999999998</ele><time>2026-03-22T08:36:25.969Z</time></trkpt><trkpt lat="47.291141986109416" lon="-1.8704212227280592"><ele>14.0</ele><time>2026-03-22T08:36:27.969Z</time></trkpt><trkpt lat="47.29109276377736" lon="-1.8705357552687782"><ele>14.5</ele><time>2026-03-22T08:36:29.969Z</time></trkpt><trkpt lat="47.291044591364184" lon="-1.8706501443476553"><ele>15.0</ele><time>2026-03-22T08:36:31.969Z</time></trkpt><trkpt lat="47.2909946168255" lon="-1.8707682605241005"><ele>15.499999999999998</ele><time>2026-03-22T08:36:33.969Z</time></trkpt><trkpt lat="47.29094753359546" lon="-1.870876082922502"><ele>16.0</ele><time>2026-03-22T08:36:35.969Z</time></trkpt><trkpt lat="47.29090074641148" lon="-1.8709868972562183"><ele>16.333333333333332</ele><time>2026-03-22T08:36:37.969Z</time></trkpt><trkpt lat="47.29084807026116" lon="-1.8710938904726775"><ele>16.666666666666664</ele><time>2026-03-22T08:36:39.969Z</time></trkpt><trkpt lat="47.29079952993591" lon="-1.8712065345272464"><ele>17.0</ele><time>2026-03-22T08:36:41.969Z</time></trkpt><trkpt lat="47.29074921894204" lon="-1.8713097642015797"><ele>17.333333333333332</ele><time>2026-03-22T08:36:43.969Z</time></trkpt><trkpt lat="47.290696816695174" lon="-1.8714165418745123"><ele>17.666666666666668</ele><time>2026-03-22T08:36:45.969Z</time></trkpt><trkpt lat="47.29065330788874" lon="-1.87152585223005"><ele>18.0</ele><time>2026-03-22T08:36:47.969Z</time></trkpt><trkpt lat="47.2906134255099" lon="-1.87164203100255"><ele>18.0</ele><time>2026-03-22T08:36:49.969Z</time></trkpt><trkpt lat="47.290579402171645" lon="-1.871757277067784"><ele>18.0</ele><time>2026-03-22T08:36:51.97Z</time></trkpt><trkpt lat="47.29059575540245" lon="-1.8718911071167192"><ele>18.0</ele><time>2026-03-22T08:36:53.969Z</time></trkpt><trkpt lat="47.29065638188173" lon="-1.8719862572765043"><ele>18.0</ele><time>2026-03-22T08:36:55.969Z</time></trkpt><trkpt lat="47.290706686667136" lon="-1.8720819224017595"><ele>18.0</ele><time>2026-03-22T08:36:57.97Z</time></trkpt><trkpt lat="47.29076022885366" lon="-1.872180630709575"><ele>18.0</ele><time>2026-03-22T08:36:59.97Z</time></trkpt><trkpt lat="47.29081144225728" lon="-1.8722934736749608"><ele>18.0</ele><time>2026-03-22T08:37:01.97Z</time></trkpt><trkpt lat="47.290865287840646" lon="-1.8724124887731854"><ele>18.0</ele><time>2026-03-22T08:37:03.969Z</time></trkpt><trkpt lat="47.290911546487095" lon="-1.8725405964845645"><ele>18.0</ele><time>2026-03-22T08:37:05.969Z</time></trkpt><trkpt lat="47.29097007090457" lon="-1.8726709708508218"><ele>18.0</ele><time>2026-03-22T08:37:07.969Z</time></trkpt><trkpt lat="47.2910254890848" lon="-1.8728110855526756"><ele>18.0</ele><time>2026-03-22T08:37:09.969Z</time></trkpt><trkpt lat="47.29108159819249" lon="-1.8729548878248985"><ele>17.5</ele><time>2026-03-22T08:37:11.969Z</time></trkpt><trkpt lat="47.29113831048103" lon="-1.8731104756820736"><ele>17.0</ele><time>2026-03-22T08:37:13.969Z</time></trkpt><trkpt lat="47.29119324119676" lon="-1.8732713724568641"><ele>16.5</ele><time>2026-03-22T08:37:15.969Z</time></trkpt><trkpt lat="47.29125830584681" lon="-1.8734326895274334"><ele>16.0</ele><time>2026-03-22T08:37:17.969Z</time></trkpt><trkpt lat="47.29132507259746" lon="-1.8735881658572642"><ele>15.666666666666666</ele><time>2026-03-22T08:37:19.969Z</time></trkpt><trkpt lat="47.29138401431801" lon="-1.8737536586704233"><ele>15.333333333333332</ele><time>2026-03-22T08:37:21.968Z</time></trkpt><trkpt lat="47.29141935682519" lon="-1.8738428596422956"><ele>15.0</ele><time>2026-03-22T08:37:22.968Z</time></trkpt><trkpt lat="47.291453904873244" lon="-1.8739240039113354"><ele>14.666666666666668</ele><time>2026-03-22T08:37:23.968Z</time></trkpt><trkpt lat="47.29148754629177" lon="-1.874008006029565"><ele>14.333333333333334</ele><time>2026-03-22T08:37:24.968Z</time></trkpt><trkpt lat="47.29151712714916" lon="-1.8740993155410945"><ele>14.0</ele><time>2026-03-22T08:37:25.968Z</time></trkpt><trkpt lat="47.29155108732404" lon="-1.8741902643459831"><ele>14.428571428571429</ele><time>2026-03-22T08:37:26.968Z</time></trkpt><trkpt lat="47.29158609356804" lon="-1.8742794030484176"><ele>14.857142857142858</ele><time>2026-03-22T08:37:27.968Z</time></trkpt><trkpt lat="47.29161901425065" lon="-1.8743703403407834"><ele>15.285714285714285</ele><time>2026-03-22T08:37:28.968Z</time></trkpt><trkpt lat="47.29165840273114" lon="-1.8744601900046403"><ele>15.714285714285714</ele><time>2026-03-22T08:37:29.968Z</time></trkpt><trkpt lat="47.29169055387277" lon="-1.8745528727616028"><ele>16.142857142857142</ele><time>2026-03-22T08:37:30.968Z</time></trkpt><trkpt lat="47.29171921647956" lon="-1.8746473391693903"><ele>16.57142857142857</ele><time>2026-03-22T08:37:31.968Z</time></trkpt><trkpt lat="47.29175589261364" lon="-1.874739173298969"><ele>17.0</ele><time>2026-03-22T08:37:32.968Z</time></trkpt><trkpt lat="47.29179342952534" lon="-1.8748329234202996"><ele>16.999999999999996</ele><time>2026-03-22T08:37:33.968Z</time></trkpt><trkpt lat="47.291831306327175" lon="-1.8749283840327147"><ele>17.0</ele><time>2026-03-22T08:37:34.968Z</time></trkpt><trkpt lat="47.291866494520946" lon="-1.8750250614803075"><ele>17.0</ele><time>2026-03-22T08:37:35.968Z</time></trkpt><trkpt lat="47.29190212233943" lon="-1.875122665052118"><ele>17.0</ele><time>2026-03-22T08:37:36.968Z</time></trkpt><trkpt lat="47.29194043848009" lon="-1.8752141499759654"><ele>17.0</ele><time>2026-03-22T08:37:37.968Z</time></trkpt><trkpt lat="47.291976209256696" lon="-1.875308195249136"><ele>16.999999999999996</ele><time>2026-03-22T08:37:38.968Z</time></trkpt><trkpt lat="47.292007538009514" lon="-1.8754128810199968"><ele>17.0</ele><time>2026-03-22T08:37:39.968Z</time></trkpt><trkpt lat="47.292046196647924" lon="-1.8755024324434943"><ele>16.857142857142854</ele><time>2026-03-22T08:37:40.968Z</time></trkpt><trkpt lat="47.29207615296976" lon="-1.8755981724432655"><ele>16.714285714285715</ele><time>2026-03-22T08:37:41.968Z</time></trkpt><trkpt lat="47.292115387920404" lon="-1.8756872276464187"><ele>16.57142857142857</ele><time>2026-03-22T08:37:42.968Z</time></trkpt><trkpt lat="47.29215074779991" lon="-1.8757803417673664"><ele>16.428571428571427</ele><time>2026-03-22T08:37:43.968Z</time></trkpt><trkpt lat="47.292188269669815" lon="-1.875867977039775"><ele>16.285714285714285</ele><time>2026-03-22T08:37:44.968Z</time></trkpt><trkpt lat="47.29221626364307" lon="-1.8759599224781176"><ele>16.142857142857142</ele><time>2026-03-22T08:37:45.968Z</time></trkpt><trkpt lat="47.29225153151079" lon="-1.8760508303391172"><ele>16.0</ele><time>2026-03-22T08:37:46.968Z</time></trkpt><trkpt lat="47.2922843201381" lon="-1.8761443013280255"><ele>15.833333333333332</ele><time>2026-03-22T08:37:47.968Z</time></trkpt><trkpt lat="47.29231802829353" lon="-1.8762347795599665"><ele>15.666666666666666</ele><time>2026-03-22T08:37:48.968Z</time></trkpt><trkpt lat="47.29235944105306" lon="-1.8763158012117356"><ele>15.5</ele><time>2026-03-22T08:37:49.968Z</time></trkpt><trkpt lat="47.292398285721205" lon="-1.8764874506774285"><ele>15.333333333333332</ele><time>2026-03-22T08:37:51.968Z</time></trkpt><trkpt lat="47.29242225533278" lon="-1.8765795423294096"><ele>15.166666666666666</ele><time>2026-03-22T08:37:52.968Z</time></trkpt><trkpt lat="47.29245247661945" lon="-1.8766717631444072"><ele>15.0</ele><time>2026-03-22T08:37:53.968Z</time></trkpt><trkpt lat="47.292498471229436" lon="-1.8767551950996555"><ele>15.0</ele><time>2026-03-22T08:37:54.968Z</time></trkpt><trkpt lat="47.29254189459254" lon="-1.8768458594749928"><ele>15.0</ele><time>2026-03-22T08:37:55.968Z</time></trkpt><trkpt lat="47.29258216028538" lon="-1.8769305080171232"><ele>15.0</ele><time>2026-03-22T08:37:56.968Z</time></trkpt><trkpt lat="47.292615302047004" lon="-1.8770192832637937"><ele>15.0</ele><time>2026-03-22T08:37:57.968Z</time></trkpt><trkpt lat="47.292644632018124" lon="-1.8771121091836338"><ele>15.0</ele><time>2026-03-22T08:37:58.968Z</time></trkpt><trkpt lat="47.292675865325904" lon="-1.877200448267396"><ele>15.0</ele><time>2026-03-22T08:37:59.968Z</time></trkpt><trkpt lat="47.2927058993784" lon="-1.8772958692864758"><ele>15.0</ele><time>2026-03-22T08:38:00.968Z</time></trkpt><trkpt lat="47.292731363119124" lon="-1.8773869574972402"><ele>15.0</ele><time>2026-03-22T08:38:01.968Z</time></trkpt><trkpt lat="47.29275623600586" lon="-1.877480443311141"><ele>15.0</ele><time>2026-03-22T08:38:02.968Z</time></trkpt><trkpt lat="47.292764328275055" lon="-1.877576296849282"><ele>15.0</ele><time>2026-03-22T08:38:03.968Z</time></trkpt><trkpt lat="47.29274777132686" lon="-1.8776786273337573"><ele>15.0</ele><time>2026-03-22T08:38:04.968Z</time></trkpt><trkpt lat="47.29270814126184" lon="-1.8777624094799665"><ele>15.0</ele><time>2026-03-22T08:38:05.968Z</time></trkpt><trkpt lat="47.29264954614385" lon="-1.8778243192196837"><ele>15.0</ele><time>2026-03-22T08:38:06.968Z</time></trkpt><trkpt lat="47.292520459785585" lon="-1.8779108326138862"><ele>15.142857142857142</ele><time>2026-03-22T08:38:08.968Z</time></trkpt><trkpt lat="47.29246010586857" lon="-1.8779639922604354"><ele>15.285714285714285</ele><time>2026-03-22T08:38:09.968Z</time></trkpt><trkpt lat="47.292403269709446" lon="-1.878024191455004"><ele>15.428571428571427</ele><time>2026-03-22T08:38:10.968Z</time></trkpt><trkpt lat="47.29234726265197" lon="-1.8780889330139081"><ele>15.571428571428571</ele><time>2026-03-22T08:38:11.968Z</time></trkpt><trkpt lat="47.29229191223836" lon="-1.8781552678738855"><ele>15.714285714285712</ele><time>2026-03-22T08:38:12.968Z</time></trkpt><trkpt lat="47.29223976849286" lon="-1.8782204842009644"><ele>15.857142857142856</ele><time>2026-03-22T08:38:13.968Z</time></trkpt><trkpt lat="47.29218930795633" lon="-1.878280810626834"><ele>16.0</ele><time>2026-03-22T08:38:14.968Z</time></trkpt><trkpt lat="47.2920981073349" lon="-1.878387642083829"><ele>16.2</ele><time>2026-03-22T08:38:16.968Z</time></trkpt><trkpt lat="47.29206941637951" lon="-1.8785234869442256"><ele>16.400000000000002</ele><time>2026-03-22T08:38:18.968Z</time></trkpt><trkpt lat="47.292157425413755" lon="-1.8786402651335425"><ele>16.6</ele><time>2026-03-22T08:38:20.968Z</time></trkpt><trkpt lat="47.292217493233565" lon="-1.8786736965763633"><ele>16.8</ele><time>2026-03-22T08:38:21.968Z</time></trkpt><trkpt lat="47.29231486977918" lon="-1.8787840940212186"><ele>17.0</ele><time>2026-03-22T08:38:23.968Z</time></trkpt><trkpt lat="47.29238229103426" lon="-1.8789296574422296"><ele>16.999999999999996</ele><time>2026-03-22T08:38:25.968Z</time></trkpt><trkpt lat="47.29246496756697" lon="-1.8790630114576377"><ele>17.0</ele><time>2026-03-22T08:38:27.968Z</time></trkpt><trkpt lat="47.29250837817837" lon="-1.8791302475228686"><ele>17.0</ele><time>2026-03-22T08:38:28.968Z</time></trkpt><trkpt lat="47.29254977142847" lon="-1.8792056443366905"><ele>17.0</ele><time>2026-03-22T08:38:29.968Z</time></trkpt><trkpt lat="47.29259126196402" lon="-1.879277947111095"><ele>17.0</ele><time>2026-03-22T08:38:30.968Z</time></trkpt><trkpt lat="47.29263731900156" lon="-1.8793424289598661"><ele>16.999999999999996</ele><time>2026-03-22T08:38:31.968Z</time></trkpt><trkpt lat="47.292681941670644" lon="-1.879409562373982"><ele>17.0</ele><time>2026-03-22T08:38:32.968Z</time></trkpt><trkpt lat="47.2927287013662" lon="-1.8794801260306955"><ele>16.857142857142854</ele><time>2026-03-22T08:38:33.968Z</time></trkpt><trkpt lat="47.29277438795229" lon="-1.8795483413414076"><ele>16.714285714285715</ele><time>2026-03-22T08:38:34.968Z</time></trkpt><trkpt lat="47.292821592755956" lon="-1.8796183000602416"><ele>16.57142857142857</ele><time>2026-03-22T08:38:35.968Z</time></trkpt><trkpt lat="47.292873525401454" lon="-1.8796837786398715"><ele>16.428571428571427</ele><time>2026-03-22T08:38:36.968Z</time></trkpt><trkpt lat="47.29292461517005" lon="-1.879748713742409"><ele>16.285714285714285</ele><time>2026-03-22T08:38:37.968Z</time></trkpt><trkpt lat="47.2929812648402" lon="-1.879807862933174"><ele>16.142857142857142</ele><time>2026-03-22T08:38:38.968Z</time></trkpt><trkpt lat="47.29303981702324" lon="-1.8798699633036626"><ele>16.0</ele><time>2026-03-22T08:38:39.967Z</time></trkpt><trkpt lat="47.293097707916935" lon="-1.8799319463439967"><ele>15.499999999999998</ele><time>2026-03-22T08:38:40.967Z</time></trkpt><trkpt lat="47.29316215467124" lon="-1.8799870565467671"><ele>15.0</ele><time>2026-03-22T08:38:41.967Z</time></trkpt><trkpt lat="47.29321765075641" lon="-1.8800535852617435"><ele>14.5</ele><time>2026-03-22T08:38:42.967Z</time></trkpt><trkpt lat="47.29328814967648" lon="-1.8801062157427586"><ele>14.0</ele><time>2026-03-22T08:38:43.967Z</time></trkpt><trkpt lat="47.29335389256223" lon="-1.880162327679001"><ele>13.499999999999998</ele><time>2026-03-22T08:38:44.967Z</time></trkpt><trkpt lat="47.293417652424274" lon="-1.8802179444065819"><ele>13.0</ele><time>2026-03-22T08:38:45.967Z</time></trkpt><trkpt lat="47.2934861612402" lon="-1.8802691302044519"><ele>12.499999999999998</ele><time>2026-03-22T08:38:46.967Z</time></trkpt><trkpt lat="47.293556222289766" lon="-1.8803108968101432"><ele>12.0</ele><time>2026-03-22T08:38:47.967Z</time></trkpt><trkpt lat="47.293630979715886" lon="-1.8803427503944559"><ele>11.5</ele><time>2026-03-22T08:38:48.967Z</time></trkpt><trkpt lat="47.293702616607725" lon="-1.8803773678135167"><ele>11.0</ele><time>2026-03-22T08:38:49.967Z</time></trkpt><trkpt lat="47.29377807577767" lon="-1.8804120341551975"><ele>10.5</ele><time>2026-03-22T08:38:50.967Z</time></trkpt><trkpt lat="47.29385911862989" lon="-1.8804182846758115"><ele>10.0</ele><time>2026-03-22T08:38:51.967Z</time></trkpt><trkpt lat="47.29393547965676" lon="-1.8804180194242648"><ele>9.666666666666668</ele><time>2026-03-22T08:38:52.967Z</time></trkpt><trkpt lat="47.294011170875855" lon="-1.8804037768871535"><ele>9.333333333333334</ele><time>2026-03-22T08:38:53.967Z</time></trkpt><trkpt lat="47.29408966139787" lon="-1.880386536722411"><ele>9.0</ele><time>2026-03-22T08:38:54.967Z</time></trkpt><trkpt lat="47.29416559941744" lon="-1.880369351665449"><ele>8.666666666666666</ele><time>2026-03-22T08:38:55.969Z</time></trkpt><trkpt lat="47.29423938827224" lon="-1.8803491810923603"><ele>8.333333333333332</ele><time>2026-03-22T08:38:56.968Z</time></trkpt><trkpt lat="47.294313105291735" lon="-1.8803314471206032"><ele>8.0</ele><time>2026-03-22T08:38:57.968Z</time></trkpt><trkpt lat="47.294389463401984" lon="-1.880313060603088"><ele>7.999999999999999</ele><time>2026-03-22T08:38:58.969Z</time></trkpt><trkpt lat="47.29446434827441" lon="-1.880298455098473"><ele>8.0</ele><time>2026-03-22T08:38:59.968Z</time></trkpt><trkpt lat="47.294537776752044" lon="-1.8802881868643173"><ele>8.0</ele><time>2026-03-22T08:39:00.968Z</time></trkpt><trkpt lat="47.29461583277493" lon="-1.8802819045371768"><ele>8.0</ele><time>2026-03-22T08:39:01.968Z</time></trkpt><trkpt lat="47.29468994452999" lon="-1.8802999257014432"><ele>7.999999999999999</ele><time>2026-03-22T08:39:02.968Z</time></trkpt><trkpt lat="47.29476028690341" lon="-1.8803416540768982"><ele>8.0</ele><time>2026-03-22T08:39:03.968Z</time></trkpt><trkpt lat="47.294831136285474" lon="-1.8804020589763388"><ele>7.166666666666666</ele><time>2026-03-22T08:39:04.969Z</time></trkpt><trkpt lat="47.29488888164707" lon="-1.8804924187649559"><ele>6.333333333333333</ele><time>2026-03-22T08:39:05.969Z</time></trkpt><trkpt lat="47.294933238414416" lon="-1.8805873375130795"><ele>5.5</ele><time>2026-03-22T08:39:06.969Z</time></trkpt><trkpt lat="47.29497678115182" lon="-1.8806955535153043"><ele>4.666666666666666</ele><time>2026-03-22T08:39:07.969Z</time></trkpt><trkpt lat="47.29501267361068" lon="-1.8807935299792975"><ele>3.833333333333333</ele><time>2026-03-22T08:39:08.968Z</time></trkpt><trkpt lat="47.2950428637817" lon="-1.880914132352719"><ele>3.0</ele><time>2026-03-22T08:39:09.968Z</time></trkpt><trkpt lat="47.29506914224452" lon="-1.8810366419587563"><ele>3.0</ele><time>2026-03-22T08:39:10.968Z</time></trkpt><trkpt lat="47.29509843492154" lon="-1.8811665714350456"><ele>3.0</ele><time>2026-03-22T08:39:11.968Z</time></trkpt><trkpt lat="47.29512575504091" lon="-1.8813047075887526"><ele>3.0</ele><time>2026-03-22T08:39:12.968Z</time></trkpt><trkpt lat="47.29515213500927" lon="-1.8814420770535585"><ele>3.0</ele><time>2026-03-22T08:39:13.968Z</time></trkpt><trkpt lat="47.29516928984125" lon="-1.8815698933847136"><ele>3.0</ele><time>2026-03-22T08:39:14.968Z</time></trkpt><trkpt lat="47.29518241417759" lon="-1.8817004938997097"><ele>3.0</ele><time>2026-03-22T08:39:15.968Z</time></trkpt><trkpt lat="47.295192471311594" lon="-1.8818292013715634"><ele>3.0</ele><time>2026-03-22T08:39:16.968Z</time></trkpt><trkpt lat="47.29519593577531" lon="-1.881950705946697"><ele>3.0</ele><time>2026-03-22T08:39:17.968Z</time></trkpt><trkpt lat="47.29519457553824" lon="-1.8820941375287499"><ele>3.0</ele><time>2026-03-22T08:39:18.968Z</time></trkpt><trkpt lat="47.29519611818587" lon="-1.8822317232666974"><ele>3.0</ele><time>2026-03-22T08:39:19.968Z</time></trkpt><trkpt lat="47.2951877418707" lon="-1.8823570348172582"><ele>3.0</ele><time>2026-03-22T08:39:20.968Z</time></trkpt><trkpt lat="47.29518981932074" lon="-1.8824825641431542"><ele>3.5</ele><time>2026-03-22T08:39:21.968Z</time></trkpt><trkpt lat="47.29519580492948" lon="-1.8826024428839305"><ele>4.0</ele><time>2026-03-22T08:39:22.967Z</time></trkpt><trkpt lat="47.295208288286574" lon="-1.8827217809435095"><ele>4.5</ele><time>2026-03-22T08:39:23.967Z</time></trkpt><trkpt lat="47.295223522543466" lon="-1.8828392004842578"><ele>5.0</ele><time>2026-03-22T08:39:24.967Z</time></trkpt><trkpt lat="47.29523514646776" lon="-1.8829530954781506"><ele>5.5</ele><time>2026-03-22T08:39:25.967Z</time></trkpt><trkpt lat="47.29526012819087" lon="-1.8830587641409597"><ele>6.0</ele><time>2026-03-22T08:39:26.967Z</time></trkpt><trkpt lat="47.29528931855709" lon="-1.8831609892213"><ele>5.999999999999999</ele><time>2026-03-22T08:39:27.967Z</time></trkpt><trkpt lat="47.295313088018496" lon="-1.883256276540942"><ele>6.0</ele><time>2026-03-22T08:39:28.967Z</time></trkpt><trkpt lat="47.29534047933658" lon="-1.8833492494508954"><ele>6.0</ele><time>2026-03-22T08:39:29.967Z</time></trkpt><trkpt lat="47.29537165814867" lon="-1.88343781770874"><ele>6.0</ele><time>2026-03-22T08:39:30.967Z</time></trkpt><trkpt lat="47.29540314088059" lon="-1.8835247044454724"><ele>6.0</ele><time>2026-03-22T08:39:31.967Z</time></trkpt><trkpt lat="47.295433427710904" lon="-1.8836121680589901"><ele>5.999999999999999</ele><time>2026-03-22T08:39:32.967Z</time></trkpt><trkpt lat="47.29546402586035" lon="-1.8837013741344382"><ele>6.0</ele><time>2026-03-22T08:39:33.967Z</time></trkpt><trkpt lat="47.29549437818893" lon="-1.8837855730911732"><ele>6.0</ele><time>2026-03-22T08:39:34.967Z</time></trkpt><trkpt lat="47.29552339121138" lon="-1.8838690099630366"><ele>6.0</ele><time>2026-03-22T08:39:35.967Z</time></trkpt><trkpt lat="47.295573935899526" lon="-1.8840368684564235"><ele>6.0</ele><time>2026-03-22T08:39:37.967Z</time></trkpt><trkpt lat="47.29560004385733" lon="-1.8841267756765472"><ele>6.0</ele><time>2026-03-22T08:39:38.967Z</time></trkpt><trkpt lat="47.29563224100844" lon="-1.8842090147939248"><ele>6.0</ele><time>2026-03-22T08:39:39.967Z</time></trkpt><trkpt lat="47.295687758608686" lon="-1.8843761235238172"><ele>6.0</ele><time>2026-03-22T08:39:41.967Z</time></trkpt><trkpt lat="47.29571865236892" lon="-1.884463866226286"><ele>6.142857142857142</ele><time>2026-03-22T08:39:42.967Z</time></trkpt><trkpt lat="47.29574631900139" lon="-1.8845533886988144"><ele>6.285714285714286</ele><time>2026-03-22T08:39:43.967Z</time></trkpt><trkpt lat="47.29578289578141" lon="-1.8846359040350833"><ele>6.428571428571429</ele><time>2026-03-22T08:39:44.967Z</time></trkpt><trkpt lat="47.295816974717354" lon="-1.8847226196176758"><ele>6.571428571428571</ele><time>2026-03-22T08:39:45.967Z</time></trkpt><trkpt lat="47.295854197115865" lon="-1.8848032390474234"><ele>6.714285714285714</ele><time>2026-03-22T08:39:46.967Z</time></trkpt><trkpt lat="47.29589564937808" lon="-1.8848773434924913"><ele>6.857142857142857</ele><time>2026-03-22T08:39:47.967Z</time></trkpt><trkpt lat="47.29593460854808" lon="-1.88496029261038"><ele>7.0</ele><time>2026-03-22T08:39:48.967Z</time></trkpt><trkpt lat="47.29598012489745" lon="-1.8850358875126174"><ele>7.000000000000001</ele><time>2026-03-22T08:39:49.967Z</time></trkpt><trkpt lat="47.29602371891158" lon="-1.8851090589578845"><ele>7.0</ele><time>2026-03-22T08:39:50.967Z</time></trkpt><trkpt lat="47.29606960014022" lon="-1.885181572971921"><ele>7.0</ele><time>2026-03-22T08:39:51.967Z</time></trkpt><trkpt lat="47.29611567593371" lon="-1.8852520053569193"><ele>7.0</ele><time>2026-03-22T08:39:52.967Z</time></trkpt><trkpt lat="47.29616230105713" lon="-1.8853246723979418"><ele>7.000000000000001</ele><time>2026-03-22T08:39:53.967Z</time></trkpt><trkpt lat="47.2962097963673" lon="-1.8853932910082927"><ele>7.0</ele><time>2026-03-22T08:39:54.967Z</time></trkpt><trkpt lat="47.29630209614555" lon="-1.885526798897899"><ele>7.0</ele><time>2026-03-22T08:39:56.967Z</time></trkpt><trkpt lat="47.296347470647994" lon="-1.8855918855427298"><ele>7.0</ele><time>2026-03-22T08:39:57.967Z</time></trkpt><trkpt lat="47.296391187323266" lon="-1.8856650065865541"><ele>7.0</ele><time>2026-03-22T08:39:58.967Z</time></trkpt><trkpt lat="47.2964379817333" lon="-1.8857326829851648"><ele>7.0</ele><time>2026-03-22T08:39:59.967Z</time></trkpt><trkpt lat="47.29648438832028" lon="-1.8858009212880682"><ele>7.0</ele><time>2026-03-22T08:40:00.967Z</time></trkpt><trkpt lat="47.296530518405895" lon="-1.8858690296396268"><ele>7.0</ele><time>2026-03-22T08:40:01.967Z</time></trkpt><trkpt lat="47.296577093416346" lon="-1.8859348864508407"><ele>7.0</ele><time>2026-03-22T08:40:02.967Z</time></trkpt><trkpt lat="47.29662070123846" lon="-1.886005733427637"><ele>7.333333333333334</ele><time>2026-03-22T08:40:03.967Z</time></trkpt><trkpt lat="47.296666855580156" lon="-1.8860737040225282"><ele>7.666666666666667</ele><time>2026-03-22T08:40:04.967Z</time></trkpt><trkpt lat="47.29671175714792" lon="-1.8861392046709924"><ele>8.0</ele><time>2026-03-22T08:40:05.967Z</time></trkpt><trkpt lat="47.29679848631981" lon="-1.8862706091179682"><ele>8.333333333333334</ele><time>2026-03-22T08:40:07.967Z</time></trkpt><trkpt lat="47.29684408812505" lon="-1.886338062642156"><ele>8.666666666666666</ele><time>2026-03-22T08:40:08.967Z</time></trkpt><trkpt lat="47.296937727069995" lon="-1.8864618854076374"><ele>9.0</ele><time>2026-03-22T08:40:10.967Z</time></trkpt><trkpt lat="47.29702610830407" lon="-1.886593597608559"><ele>9.000000000000002</ele><time>2026-03-22T08:40:12.967Z</time></trkpt><trkpt lat="47.297066064904925" lon="-1.886672529170177"><ele>9.0</ele><time>2026-03-22T08:40:13.967Z</time></trkpt><trkpt lat="47.297112062757954" lon="-1.8867369131904952"><ele>9.0</ele><time>2026-03-22T08:40:14.967Z</time></trkpt><trkpt lat="47.297155447389734" lon="-1.8868044671737836"><ele>9.0</ele><time>2026-03-22T08:40:15.967Z</time></trkpt><trkpt lat="47.29719701069089" lon="-1.8868751866388198"><ele>9.0</ele><time>2026-03-22T08:40:16.967Z</time></trkpt><trkpt lat="47.29724663469946" lon="-1.8869364634874395"><ele>9.000000000000002</ele><time>2026-03-22T08:40:17.967Z</time></trkpt><trkpt lat="47.297297323172685" lon="-1.887001798477514"><ele>9.0</ele><time>2026-03-22T08:40:18.967Z</time></trkpt><trkpt lat="47.29734144088166" lon="-1.8870704996768048"><ele>9.000000000000002</ele><time>2026-03-22T08:40:19.967Z</time></trkpt><trkpt lat="47.29738071516216" lon="-1.8871453448746427"><ele>9.0</ele><time>2026-03-22T08:40:20.967Z</time></trkpt><trkpt lat="47.29742435895696" lon="-1.8872202432131508"><ele>9.0</ele><time>2026-03-22T08:40:21.967Z</time></trkpt><trkpt lat="47.2974624341488" lon="-1.8872982438812829"><ele>9.0</ele><time>2026-03-22T08:40:22.967Z</time></trkpt><trkpt lat="47.297502344812465" lon="-1.8873728176995215"><ele>9.0</ele><time>2026-03-22T08:40:23.967Z</time></trkpt><trkpt lat="47.297544381139524" lon="-1.8874488448406412"><ele>9.000000000000002</ele><time>2026-03-22T08:40:24.967Z</time></trkpt><trkpt lat="47.297583892991476" lon="-1.8875279718463984"><ele>9.0</ele><time>2026-03-22T08:40:25.967Z</time></trkpt><trkpt lat="47.29761970521552" lon="-1.8876085911716816"><ele>9.000000000000002</ele><time>2026-03-22T08:40:26.967Z</time></trkpt><trkpt lat="47.29765140212351" lon="-1.88769334268439"><ele>9.0</ele><time>2026-03-22T08:40:27.967Z</time></trkpt><trkpt lat="47.29768385683593" lon="-1.887777703959517"><ele>9.0</ele><time>2026-03-22T08:40:28.967Z</time></trkpt><trkpt lat="47.29771647070577" lon="-1.887862571184217"><ele>9.0</ele><time>2026-03-22T08:40:29.967Z</time></trkpt><trkpt lat="47.29774416709374" lon="-1.8879463049916083"><ele>9.0</ele><time>2026-03-22T08:40:30.967Z</time></trkpt><trkpt lat="47.29777352206355" lon="-1.8880331774015788"><ele>9.000000000000002</ele><time>2026-03-22T08:40:31.967Z</time></trkpt><trkpt lat="47.29780054243131" lon="-1.888121637857234"><ele>9.0</ele><time>2026-03-22T08:40:32.967Z</time></trkpt><trkpt lat="47.29782733026402" lon="-1.8882087843056654"><ele>9.0</ele><time>2026-03-22T08:40:33.967Z</time></trkpt><trkpt lat="47.29785435401434" lon="-1.8882931915056527"><ele>9.0</ele><time>2026-03-22T08:40:34.967Z</time></trkpt><trkpt lat="47.29788482764435" lon="-1.8883783109688468"><ele>9.0</ele><time>2026-03-22T08:40:35.967Z</time></trkpt><trkpt lat="47.29793413382591" lon="-1.888542561459777"><ele>9.0</ele><time>2026-03-22T08:40:37.967Z</time></trkpt><trkpt lat="47.29796108301951" lon="-1.8886404122751559"><ele>9.0</ele><time>2026-03-22T08:40:38.967Z</time></trkpt><trkpt lat="47.29799176993389" lon="-1.8887273686839692"><ele>9.0</ele><time>2026-03-22T08:40:39.967Z</time></trkpt><trkpt lat="47.29804425842673" lon="-1.8888948856906773"><ele>8.857142857142858</ele><time>2026-03-22T08:40:41.966Z</time></trkpt><trkpt lat="47.298073402972584" lon="-1.8889840128773212"><ele>8.714285714285715</ele><time>2026-03-22T08:40:42.966Z</time></trkpt><trkpt lat="47.298102549688736" lon="-1.8890727548693875"><ele>8.571428571428571</ele><time>2026-03-22T08:40:43.966Z</time></trkpt><trkpt lat="47.29813473080565" lon="-1.889162357677343"><ele>8.428571428571429</ele><time>2026-03-22T08:40:44.966Z</time></trkpt><trkpt lat="47.29816815933881" lon="-1.889249399020601"><ele>8.285714285714285</ele><time>2026-03-22T08:40:45.966Z</time></trkpt><trkpt lat="47.298195925618735" lon="-1.889343196624021"><ele>8.142857142857142</ele><time>2026-03-22T08:40:46.966Z</time></trkpt><trkpt lat="47.29822406794499" lon="-1.889441868508807"><ele>8.0</ele><time>2026-03-22T08:40:47.966Z</time></trkpt><trkpt lat="47.298255046553386" lon="-1.889540115976572"><ele>8.0</ele><time>2026-03-22T08:40:48.966Z</time></trkpt><trkpt lat="47.29828112047277" lon="-1.8896347336157282"><ele>7.999999999999999</ele><time>2026-03-22T08:40:49.966Z</time></trkpt><trkpt lat="47.29831162286465" lon="-1.8897358237312383"><ele>8.0</ele><time>2026-03-22T08:40:50.966Z</time></trkpt><trkpt lat="47.298342877020524" lon="-1.8898376234533802"><ele>8.0</ele><time>2026-03-22T08:40:51.966Z</time></trkpt><trkpt lat="47.29837723413759" lon="-1.8899380803861694"><ele>7.999999999999999</ele><time>2026-03-22T08:40:52.966Z</time></trkpt><trkpt lat="47.29840691728188" lon="-1.8900350623677051"><ele>8.0</ele><time>2026-03-22T08:40:53.966Z</time></trkpt><trkpt lat="47.29844083830516" lon="-1.8901370540891016"><ele>8.0</ele><time>2026-03-22T08:40:54.966Z</time></trkpt><trkpt lat="47.29846625073247" lon="-1.8902419626227507"><ele>7.999999999999999</ele><time>2026-03-22T08:40:55.966Z</time></trkpt><trkpt lat="47.29849587696599" lon="-1.8903499180976984"><ele>8.0</ele><time>2026-03-22T08:40:56.966Z</time></trkpt><trkpt lat="47.29853403538078" lon="-1.8904510218840822"><ele>8.0</ele><time>2026-03-22T08:40:57.966Z</time></trkpt><trkpt lat="47.29856418199159" lon="-1.89056144728693"><ele>8.0</ele><time>2026-03-22T08:40:58.966Z</time></trkpt><trkpt lat="47.29860033913616" lon="-1.890675565877761"><ele>7.999999999999999</ele><time>2026-03-22T08:40:59.966Z</time></trkpt><trkpt lat="47.29863277528259" lon="-1.8907891838718522"><ele>8.0</ele><time>2026-03-22T08:41:00.966Z</time></trkpt><trkpt lat="47.29867069871447" lon="-1.890902937935648"><ele>7.833333333333333</ele><time>2026-03-22T08:41:01.968Z</time></trkpt><trkpt lat="47.29871451685165" lon="-1.8910178418789143"><ele>7.666666666666666</ele><time>2026-03-22T08:41:02.968Z</time></trkpt><trkpt lat="47.29875045412371" lon="-1.8911391736212004"><ele>7.5</ele><time>2026-03-22T08:41:03.968Z</time></trkpt><trkpt lat="47.29878515021865" lon="-1.8912583021167901"><ele>7.333333333333334</ele><time>2026-03-22T08:41:04.967Z</time></trkpt><trkpt lat="47.29882164111113" lon="-1.891376434727349"><ele>7.166666666666667</ele><time>2026-03-22T08:41:05.967Z</time></trkpt><trkpt lat="47.29886771635972" lon="-1.8914968678920487"><ele>7.0</ele><time>2026-03-22T08:41:06.967Z</time></trkpt><trkpt lat="47.2989145623806" lon="-1.8916110198983997"><ele>6.6</ele><time>2026-03-22T08:41:07.967Z</time></trkpt><trkpt lat="47.298961692381816" lon="-1.891728508216928"><ele>6.199999999999999</ele><time>2026-03-22T08:41:08.968Z</time></trkpt><trkpt lat="47.29900592412586" lon="-1.8918507896448702"><ele>5.8</ele><time>2026-03-22T08:41:09.968Z</time></trkpt><trkpt lat="47.299055284134624" lon="-1.8919649962855316"><ele>5.4</ele><time>2026-03-22T08:41:10.967Z</time></trkpt><trkpt lat="47.299103208670374" lon="-1.892072309303572"><ele>5.0</ele><time>2026-03-22T08:41:11.967Z</time></trkpt><trkpt lat="47.29915750198094" lon="-1.8921840352689558"><ele>5.0</ele><time>2026-03-22T08:41:12.967Z</time></trkpt><trkpt lat="47.29921101358633" lon="-1.8922886586325083"><ele>5.0</ele><time>2026-03-22T08:41:13.968Z</time></trkpt><trkpt lat="47.29927554217874" lon="-1.8923813998493684"><ele>5.0</ele><time>2026-03-22T08:41:14.968Z</time></trkpt><trkpt lat="47.29933030247349" lon="-1.8924695982489286"><ele>5.0</ele><time>2026-03-22T08:41:15.968Z</time></trkpt><trkpt lat="47.29940117641203" lon="-1.8925518609250451"><ele>5.0</ele><time>2026-03-22T08:41:16.968Z</time></trkpt><trkpt lat="47.2994682071218" lon="-1.892633016335467"><ele>5.0</ele><time>2026-03-22T08:41:17.968Z</time></trkpt><trkpt lat="47.299534606774415" lon="-1.8927116662588084"><ele>5.0</ele><time>2026-03-22T08:41:18.968Z</time></trkpt><trkpt lat="47.29960370011113" lon="-1.8927822504795733"><ele>5.0</ele><time>2026-03-22T08:41:19.968Z</time></trkpt><trkpt lat="47.299676343612354" lon="-1.892840108103798"><ele>5.0</ele><time>2026-03-22T08:41:20.968Z</time></trkpt><trkpt lat="47.29974329213743" lon="-1.8929084040481743"><ele>5.0</ele><time>2026-03-22T08:41:21.968Z</time></trkpt><trkpt lat="47.299808082560936" lon="-1.8929707559430091"><ele>5.0</ele><time>2026-03-22T08:41:22.968Z</time></trkpt><trkpt lat="47.29987749513983" lon="-1.8930342338191102"><ele>5.0</ele><time>2026-03-22T08:41:23.968Z</time></trkpt><trkpt lat="47.299946486224464" lon="-1.893090240293123"><ele>5.0</ele><time>2026-03-22T08:41:24.968Z</time></trkpt><trkpt lat="47.3000068193293" lon="-1.8931491707972774"><ele>5.0</ele><time>2026-03-22T08:41:25.968Z</time></trkpt><trkpt lat="47.30006609095831" lon="-1.8932207009041528"><ele>5.0</ele><time>2026-03-22T08:41:26.968Z</time></trkpt><trkpt lat="47.30012834702069" lon="-1.8932714446842116"><ele>5.0</ele><time>2026-03-22T08:41:27.968Z</time></trkpt><trkpt lat="47.300190040784024" lon="-1.8933336816669146"><ele>5.0</ele><time>2026-03-22T08:41:28.968Z</time></trkpt><trkpt lat="47.300252034373436" lon="-1.8933952807412826"><ele>5.0</ele><time>2026-03-22T08:41:29.968Z</time></trkpt><trkpt lat="47.30032092712144" lon="-1.8934455636693779"><ele>5.0</ele><time>2026-03-22T08:41:30.968Z</time></trkpt><trkpt lat="47.30038355093521" lon="-1.8934931039109506"><ele>5.333333333333334</ele><time>2026-03-22T08:41:31.968Z</time></trkpt><trkpt lat="47.30045501185359" lon="-1.8935290732507648"><ele>5.666666666666667</ele><time>2026-03-22T08:41:32.968Z</time></trkpt><trkpt lat="47.30051535764092" lon="-1.8935710736161626"><ele>6.0</ele><time>2026-03-22T08:41:33.968Z</time></trkpt><trkpt lat="47.300575749222666" lon="-1.8936164049491082"><ele>6.333333333333334</ele><time>2026-03-22T08:41:34.968Z</time></trkpt><trkpt lat="47.30069584526734" lon="-1.8936724179033015"><ele>6.666666666666667</ele><time>2026-03-22T08:41:36.968Z</time></trkpt><trkpt lat="47.3007623090829" lon="-1.893700821764419"><ele>7.0</ele><time>2026-03-22T08:41:37.968Z</time></trkpt><trkpt lat="47.3008257604518" lon="-1.8937312668862034"><ele>7.000000000000001</ele><time>2026-03-22T08:41:38.968Z</time></trkpt><trkpt lat="47.30089057206959" lon="-1.8937491061514131"><ele>7.0</ele><time>2026-03-22T08:41:39.968Z</time></trkpt><trkpt lat="47.300957895752234" lon="-1.8937766396552118"><ele>7.0</ele><time>2026-03-22T08:41:40.968Z</time></trkpt><trkpt lat="47.30102902865124" lon="-1.893804580832265"><ele>7.0</ele><time>2026-03-22T08:41:41.968Z</time></trkpt><trkpt lat="47.30115314850529" lon="-1.8938578509317952"><ele>7.000000000000001</ele><time>2026-03-22T08:41:43.968Z</time></trkpt><trkpt lat="47.30122135775199" lon="-1.8938911973138646"><ele>7.0</ele><time>2026-03-22T08:41:44.968Z</time></trkpt><trkpt lat="47.30128531626639" lon="-1.8939229987689723"><ele>7.000000000000001</ele><time>2026-03-22T08:41:45.968Z</time></trkpt><trkpt lat="47.30134936965035" lon="-1.8939384698619526"><ele>7.0</ele><time>2026-03-22T08:41:46.968Z</time></trkpt><trkpt lat="47.301411237695945" lon="-1.8939846948502181"><ele>7.0</ele><time>2026-03-22T08:41:47.968Z</time></trkpt><trkpt lat="47.301474786373504" lon="-1.8939951348297879"><ele>7.0</ele><time>2026-03-22T08:41:48.968Z</time></trkpt><trkpt lat="47.301596364853545" lon="-1.8940569147915203"><ele>7.000000000000001</ele><time>2026-03-22T08:41:50.968Z</time></trkpt><trkpt lat="47.30165616327224" lon="-1.8940903516060843"><ele>7.0</ele><time>2026-03-22T08:41:51.968Z</time></trkpt><trkpt lat="47.30171474082442" lon="-1.8941255289398529"><ele>7.0</ele><time>2026-03-22T08:41:52.968Z</time></trkpt><trkpt lat="47.30177653569308" lon="-1.894161895275733"><ele>6.999999999999999</ele><time>2026-03-22T08:41:53.968Z</time></trkpt><trkpt lat="47.3018802018624" lon="-1.8942514529128438"><ele>6.999999999999999</ele><time>2026-03-22T08:41:55.967Z</time></trkpt><trkpt lat="47.30197996992485" lon="-1.8943529347015393"><ele>7.0</ele><time>2026-03-22T08:41:57.967Z</time></trkpt><trkpt lat="47.3020324061884" lon="-1.8944064889882875"><ele>7.0</ele><time>2026-03-22T08:41:58.967Z</time></trkpt><trkpt lat="47.30212863065848" lon="-1.894515933428774"><ele>7.0</ele><time>2026-03-22T08:42:00.967Z</time></trkpt><trkpt lat="47.30220630120272" lon="-1.8946456426437002"><ele>7.0</ele><time>2026-03-22T08:42:02.967Z</time></trkpt><trkpt lat="47.30228152321988" lon="-1.8947809778540392"><ele>7.0</ele><time>2026-03-22T08:42:04.967Z</time></trkpt><trkpt lat="47.30235967350295" lon="-1.8949171157508102"><ele>7.0</ele><time>2026-03-22T08:42:06.967Z</time></trkpt><trkpt lat="47.302429839715316" lon="-1.895053840887405"><ele>7.199999999999999</ele><time>2026-03-22T08:42:08.967Z</time></trkpt><trkpt lat="47.3024958205835" lon="-1.8951832583636525"><ele>7.3999999999999995</ele><time>2026-03-22T08:42:10.967Z</time></trkpt><trkpt lat="47.30255728873982" lon="-1.895314639170306"><ele>7.6000000000000005</ele><time>2026-03-22T08:42:12.967Z</time></trkpt><trkpt lat="47.30262046386574" lon="-1.8954459350064998"><ele>7.800000000000001</ele><time>2026-03-22T08:42:14.967Z</time></trkpt><trkpt lat="47.30268988544303" lon="-1.8955693661744566"><ele>8.0</ele><time>2026-03-22T08:42:16.967Z</time></trkpt><trkpt lat="47.30274296225723" lon="-1.8956920749176192"><ele>8.0</ele><time>2026-03-22T08:42:18.967Z</time></trkpt><trkpt lat="47.30281119466204" lon="-1.895802562569366"><ele>8.0</ele><time>2026-03-22T08:42:20.967Z</time></trkpt><trkpt lat="47.30286795128185" lon="-1.8959050017951247"><ele>8.0</ele><time>2026-03-22T08:42:22.967Z</time></trkpt><trkpt lat="47.3029192792926" lon="-1.8960210765340526"><ele>8.0</ele><time>2026-03-22T08:42:24.967Z</time></trkpt><trkpt lat="47.30298895971697" lon="-1.8961372081546017"><ele>8.0</ele><time>2026-03-22T08:42:26.967Z</time></trkpt><trkpt lat="47.303055650317866" lon="-1.896263367967313"><ele>8.200000000000001</ele><time>2026-03-22T08:42:28.967Z</time></trkpt><trkpt lat="47.30312080061818" lon="-1.896388284351433"><ele>8.4</ele><time>2026-03-22T08:42:30.967Z</time></trkpt><trkpt lat="47.30316899524915" lon="-1.8965068422475193"><ele>8.600000000000001</ele><time>2026-03-22T08:42:32.967Z</time></trkpt><trkpt lat="47.30323195602637" lon="-1.896628873048062"><ele>8.8</ele><time>2026-03-22T08:42:34.967Z</time></trkpt><trkpt lat="47.303294126155706" lon="-1.8967474071484651"><ele>9.0</ele><time>2026-03-22T08:42:36.967Z</time></trkpt><trkpt lat="47.30335710989467" lon="-1.8968565642735555"><ele>9.2</ele><time>2026-03-22T08:42:38.967Z</time></trkpt><trkpt lat="47.30342280909312" lon="-1.8969674829549976"><ele>9.4</ele><time>2026-03-22T08:42:40.967Z</time></trkpt><trkpt lat="47.30350271263385" lon="-1.897063742929167"><ele>9.6</ele><time>2026-03-22T08:42:42.967Z</time></trkpt><trkpt lat="47.30357835177568" lon="-1.897156785575855"><ele>9.8</ele><time>2026-03-22T08:42:44.967Z</time></trkpt><trkpt lat="47.30366203942275" lon="-1.8972403186196896"><ele>10.0</ele><time>2026-03-22T08:42:46.967Z</time></trkpt><trkpt lat="47.30374675380105" lon="-1.8973186802837647"><ele>10.0</ele><time>2026-03-22T08:42:48.967Z</time></trkpt><trkpt lat="47.30383576026079" lon="-1.897385276141075"><ele>10.0</ele><time>2026-03-22T08:42:50.967Z</time></trkpt><trkpt lat="47.303931077864505" lon="-1.8974384995863902"><ele>10.0</ele><time>2026-03-22T08:42:52.967Z</time></trkpt><trkpt lat="47.30402766730722" lon="-1.8974930300675266"><ele>10.0</ele><time>2026-03-22T08:42:54.967Z</time></trkpt><trkpt lat="47.30412295420673" lon="-1.8975534745097768"><ele>10.0</ele><time>2026-03-22T08:42:56.967Z</time></trkpt><trkpt lat="47.30422305486317" lon="-1.8976062062722772"><ele>10.4</ele><time>2026-03-22T08:42:58.967Z</time></trkpt><trkpt lat="47.304325622340066" lon="-1.8976581877475511"><ele>10.8</ele><time>2026-03-22T08:43:00.967Z</time></trkpt><trkpt lat="47.30442592585157" lon="-1.897720996781617"><ele>11.2</ele><time>2026-03-22T08:43:02.967Z</time></trkpt><trkpt lat="47.30453016606919" lon="-1.8977842135779754"><ele>11.6</ele><time>2026-03-22T08:43:04.967Z</time></trkpt><trkpt lat="47.3046345172725" lon="-1.8978372584997694"><ele>12.0</ele><time>2026-03-22T08:43:06.967Z</time></trkpt><trkpt lat="47.30473950244899" lon="-1.897896480006554"><ele>12.0</ele><time>2026-03-22T08:43:08.966Z</time></trkpt><trkpt lat="47.30483910671842" lon="-1.8979616148836829"><ele>12.0</ele><time>2026-03-22T08:43:10.967Z</time></trkpt><trkpt lat="47.30493734331868" lon="-1.8980363557105067"><ele>12.0</ele><time>2026-03-22T08:43:12.967Z</time></trkpt><trkpt lat="47.305037806666114" lon="-1.8981101066651447"><ele>12.0</ele><time>2026-03-22T08:43:14.966Z</time></trkpt><trkpt lat="47.3051356795399" lon="-1.8981891056044085"><ele>12.0</ele><time>2026-03-22T08:43:16.966Z</time></trkpt><trkpt lat="47.30523095733615" lon="-1.8982787953875633"><ele>12.0</ele><time>2026-03-22T08:43:18.967Z</time></trkpt><trkpt lat="47.305315156527904" lon="-1.8983823436196094"><ele>12.0</ele><time>2026-03-22T08:43:20.967Z</time></trkpt><trkpt lat="47.305406672703576" lon="-1.8984818388132643"><ele>12.0</ele><time>2026-03-22T08:43:22.967Z</time></trkpt><trkpt lat="47.3054965622153" lon="-1.8985800621139828"><ele>12.0</ele><time>2026-03-22T08:43:24.967Z</time></trkpt><trkpt lat="47.305582860102426" lon="-1.8986948881207668"><ele>12.25</ele><time>2026-03-22T08:43:26.967Z</time></trkpt><trkpt lat="47.305673753673155" lon="-1.8988044300816538"><ele>12.5</ele><time>2026-03-22T08:43:28.967Z</time></trkpt><trkpt lat="47.30577005832828" lon="-1.8989087413623342"><ele>12.75</ele><time>2026-03-22T08:43:30.967Z</time></trkpt><trkpt lat="47.30586379724783" lon="-1.8990187391516178"><ele>13.0</ele><time>2026-03-22T08:43:32.967Z</time></trkpt><trkpt lat="47.30595225018378" lon="-1.8991309370389151"><ele>13.0</ele><time>2026-03-22T08:43:34.967Z</time></trkpt><trkpt lat="47.30604254247716" lon="-1.8992452152865882"><ele>13.0</ele><time>2026-03-22T08:43:36.967Z</time></trkpt><trkpt lat="47.30612305370633" lon="-1.899362215448065"><ele>13.0</ele><time>2026-03-22T08:43:38.967Z</time></trkpt><trkpt lat="47.30617186885103" lon="-1.899426755363918"><ele>13.0</ele><time>2026-03-22T08:43:39.966Z</time></trkpt><trkpt lat="47.30622115330464" lon="-1.899485049901777"><ele>13.0</ele><time>2026-03-22T08:43:40.966Z</time></trkpt><trkpt lat="47.30631911211357" lon="-1.899599723931199"><ele>12.833333333333332</ele><time>2026-03-22T08:43:42.966Z</time></trkpt><trkpt lat="47.3064163202868" lon="-1.8997111643619053"><ele>12.666666666666666</ele><time>2026-03-22T08:43:44.966Z</time></trkpt><trkpt lat="47.30651065983562" lon="-1.8998309333478294"><ele>12.5</ele><time>2026-03-22T08:43:46.966Z</time></trkpt><trkpt lat="47.30655842031774" lon="-1.899896272298748"><ele>12.333333333333332</ele><time>2026-03-22T08:43:47.966Z</time></trkpt><trkpt lat="47.306610512437565" lon="-1.8999545955414567"><ele>12.166666666666666</ele><time>2026-03-22T08:43:48.966Z</time></trkpt><trkpt lat="47.30665918409032" lon="-1.9000227483489371"><ele>12.0</ele><time>2026-03-22T08:43:49.966Z</time></trkpt><trkpt lat="47.30671561972782" lon="-1.900083867977938"><ele>11.999999999999998</ele><time>2026-03-22T08:43:50.966Z</time></trkpt><trkpt lat="47.30676914450583" lon="-1.900147482356508"><ele>12.0</ele><time>2026-03-22T08:43:51.966Z</time></trkpt><trkpt lat="47.306818117043186" lon="-1.9002175015808482"><ele>12.0</ele><time>2026-03-22T08:43:52.966Z</time></trkpt><trkpt lat="47.306873573824255" lon="-1.9002777768511583"><ele>12.0</ele><time>2026-03-22T08:43:53.966Z</time></trkpt><trkpt lat="47.30692830470951" lon="-1.9003430387484905"><ele>12.0</ele><time>2026-03-22T08:43:54.966Z</time></trkpt><trkpt lat="47.30698696167607" lon="-1.9004021597839869"><ele>11.999999999999998</ele><time>2026-03-22T08:43:55.966Z</time></trkpt><trkpt lat="47.3070407724181" lon="-1.9004664107633138"><ele>12.0</ele><time>2026-03-22T08:43:56.966Z</time></trkpt><trkpt lat="47.307098552316" lon="-1.9005291243774298"><ele>12.0</ele><time>2026-03-22T08:43:57.966Z</time></trkpt><trkpt lat="47.3071553022444" lon="-1.900603178667563"><ele>12.0</ele><time>2026-03-22T08:43:58.966Z</time></trkpt><trkpt lat="47.30721779080345" lon="-1.90066223390646"><ele>12.0</ele><time>2026-03-22T08:43:59.966Z</time></trkpt><trkpt lat="47.307279319177425" lon="-1.9007232615089658"><ele>12.0</ele><time>2026-03-22T08:44:00.966Z</time></trkpt><trkpt lat="47.307345623759176" lon="-1.900783931201404"><ele>12.0</ele><time>2026-03-22T08:44:01.966Z</time></trkpt><trkpt lat="47.30742113934327" lon="-1.9008368086575784"><ele>12.0</ele><time>2026-03-22T08:44:02.966Z</time></trkpt><trkpt lat="47.30749314097852" lon="-1.90089369557674"><ele>11.666666666666666</ele><time>2026-03-22T08:44:03.966Z</time></trkpt><trkpt lat="47.30757137500677" lon="-1.9009465136729131"><ele>11.333333333333334</ele><time>2026-03-22T08:44:04.966Z</time></trkpt><trkpt lat="47.307650161695285" lon="-1.9009966743824787"><ele>11.0</ele><time>2026-03-22T08:44:05.966Z</time></trkpt><trkpt lat="47.30772562200094" lon="-1.9010448803717928"><ele>10.666666666666668</ele><time>2026-03-22T08:44:06.966Z</time></trkpt><trkpt lat="47.30779871618142" lon="-1.9010956581558829"><ele>10.333333333333334</ele><time>2026-03-22T08:44:07.966Z</time></trkpt><trkpt lat="47.30788048237579" lon="-1.901141080027382"><ele>10.0</ele><time>2026-03-22T08:44:08.966Z</time></trkpt><trkpt lat="47.307957482241484" lon="-1.901184301027057"><ele>10.0</ele><time>2026-03-22T08:44:09.966Z</time></trkpt><trkpt lat="47.308038046659995" lon="-1.9012243277686602"><ele>10.0</ele><time>2026-03-22T08:44:10.966Z</time></trkpt><trkpt lat="47.30810449346548" lon="-1.901283883003403"><ele>10.0</ele><time>2026-03-22T08:44:11.966Z</time></trkpt><trkpt lat="47.30818521593962" lon="-1.901337800829204"><ele>10.0</ele><time>2026-03-22T08:44:12.966Z</time></trkpt><trkpt lat="47.30826952601994" lon="-1.9013877392784868"><ele>10.0</ele><time>2026-03-22T08:44:13.966Z</time></trkpt><trkpt lat="47.308352746001205" lon="-1.90143802433339"><ele>10.0</ele><time>2026-03-22T08:44:14.966Z</time></trkpt><trkpt lat="47.30842922983525" lon="-1.901495198814716"><ele>9.333333333333334</ele><time>2026-03-22T08:44:15.966Z</time></trkpt><trkpt lat="47.308514532731664" lon="-1.9015427707215389"><ele>8.666666666666668</ele><time>2026-03-22T08:44:16.966Z</time></trkpt><trkpt lat="47.30859093523878" lon="-1.9016009337523758"><ele>8.0</ele><time>2026-03-22T08:44:17.966Z</time></trkpt><trkpt lat="47.308676981508846" lon="-1.9016457336403974"><ele>7.333333333333334</ele><time>2026-03-22T08:44:18.966Z</time></trkpt><trkpt lat="47.30875739836543" lon="-1.9016986125463657"><ele>6.666666666666667</ele><time>2026-03-22T08:44:19.966Z</time></trkpt><trkpt lat="47.30883989496925" lon="-1.9017497907552265"><ele>6.0</ele><time>2026-03-22T08:44:20.966Z</time></trkpt><trkpt lat="47.30892237267901" lon="-1.9018032481705798"><ele>5.5</ele><time>2026-03-22T08:44:21.966Z</time></trkpt><trkpt lat="47.30900573110247" lon="-1.901849963676641"><ele>5.0</ele><time>2026-03-22T08:44:22.966Z</time></trkpt><trkpt lat="47.30909065229531" lon="-1.9018944357944405"><ele>4.5</ele><time>2026-03-22T08:44:23.966Z</time></trkpt><trkpt lat="47.30917204232205" lon="-1.9019416527301432"><ele>4.0</ele><time>2026-03-22T08:44:24.966Z</time></trkpt><trkpt lat="47.30925334924248" lon="-1.901971691516455"><ele>3.5</ele><time>2026-03-22T08:44:25.966Z</time></trkpt><trkpt lat="47.30933177180611" lon="-1.9020025525987385"><ele>3.0</ele><time>2026-03-22T08:44:26.966Z</time></trkpt><trkpt lat="47.30941062235022" lon="-1.9020301586378707"><ele>2.9999999999999996</ele><time>2026-03-22T08:44:27.966Z</time></trkpt><trkpt lat="47.30948806186655" lon="-1.9020538043415773"><ele>3.0</ele><time>2026-03-22T08:44:28.966Z</time></trkpt><trkpt lat="47.30956011100659" lon="-1.9020823157645905"><ele>3.0</ele><time>2026-03-22T08:44:29.966Z</time></trkpt><trkpt lat="47.309625301094016" lon="-1.9021220359629842"><ele>3.0</ele><time>2026-03-22T08:44:30.966Z</time></trkpt><trkpt lat="47.309692374306046" lon="-1.90215297142303"><ele>3.0</ele><time>2026-03-22T08:44:31.966Z</time></trkpt><trkpt lat="47.30975543299843" lon="-1.9021835444952462"><ele>2.9999999999999996</ele><time>2026-03-22T08:44:32.966Z</time></trkpt><trkpt lat="47.309820234916444" lon="-1.9022057800389494"><ele>3.0</ele><time>2026-03-22T08:44:33.966Z</time></trkpt><trkpt lat="47.30988142375969" lon="-1.9022445080478347"><ele>3.8</ele><time>2026-03-22T08:44:34.966Z</time></trkpt><trkpt lat="47.309990506317355" lon="-1.9023282237281625"><ele>4.6</ele><time>2026-03-22T08:44:36.966Z</time></trkpt><trkpt lat="47.31004585788309" lon="-1.902374028538482"><ele>5.3999999999999995</ele><time>2026-03-22T08:44:37.966Z</time></trkpt><trkpt lat="47.31014065855793" lon="-1.9024774934455608"><ele>6.199999999999999</ele><time>2026-03-22T08:44:39.966Z</time></trkpt><trkpt lat="47.310234692679025" lon="-1.902580017906027"><ele>7.0</ele><time>2026-03-22T08:44:41.966Z</time></trkpt><trkpt lat="47.31033237392486" lon="-1.9026684073264426"><ele>7.0</ele><time>2026-03-22T08:44:43.966Z</time></trkpt><trkpt lat="47.31041946788164" lon="-1.902766014757867"><ele>6.999999999999999</ele><time>2026-03-22T08:44:45.966Z</time></trkpt><trkpt lat="47.3105009512489" lon="-1.9028631315581848"><ele>6.999999999999999</ele><time>2026-03-22T08:44:47.966Z</time></trkpt><trkpt lat="47.310580497196916" lon="-1.9029725044687813"><ele>7.0</ele><time>2026-03-22T08:44:49.966Z</time></trkpt><trkpt lat="47.31066190950587" lon="-1.9030832361621237"><ele>7.0</ele><time>2026-03-22T08:44:51.966Z</time></trkpt><trkpt lat="47.31073600667217" lon="-1.9032103336878454"><ele>7.000000000000001</ele><time>2026-03-22T08:44:53.966Z</time></trkpt><trkpt lat="47.31080226988545" lon="-1.9033560453389202"><ele>7.0</ele><time>2026-03-22T08:44:55.966Z</time></trkpt><trkpt lat="47.31083747501525" lon="-1.9034336507796916"><ele>7.0</ele><time>2026-03-22T08:44:56.965Z</time></trkpt><trkpt lat="47.310904498066236" lon="-1.9035940560387898"><ele>7.0</ele><time>2026-03-22T08:44:58.965Z</time></trkpt><trkpt lat="47.31093668086355" lon="-1.9036767413449702"><ele>7.000000000000001</ele><time>2026-03-22T08:44:59.965Z</time></trkpt><trkpt lat="47.310962712691484" lon="-1.903764246800972"><ele>7.0</ele><time>2026-03-22T08:45:00.965Z</time></trkpt><trkpt lat="47.31099722392836" lon="-1.9038519094976316"><ele>6.857142857142857</ele><time>2026-03-22T08:45:01.965Z</time></trkpt><trkpt lat="47.311027441932104" lon="-1.9039367434711274"><ele>6.714285714285714</ele><time>2026-03-22T08:45:02.965Z</time></trkpt><trkpt lat="47.31105868436638" lon="-1.904027985973834"><ele>6.571428571428571</ele><time>2026-03-22T08:45:03.965Z</time></trkpt><trkpt lat="47.31108941090931" lon="-1.9041141246155837"><ele>6.428571428571429</ele><time>2026-03-22T08:45:04.965Z</time></trkpt><trkpt lat="47.31111721880769" lon="-1.904204382175673"><ele>6.285714285714286</ele><time>2026-03-22T08:45:05.965Z</time></trkpt><trkpt lat="47.31114304340128" lon="-1.9042912044252138"><ele>6.142857142857142</ele><time>2026-03-22T08:45:06.965Z</time></trkpt><trkpt lat="47.311190011144326" lon="-1.9043789954112385"><ele>6.0</ele><time>2026-03-22T08:45:07.965Z</time></trkpt><trkpt lat="47.31122230268614" lon="-1.9044706533894382"><ele>5.857142857142857</ele><time>2026-03-22T08:45:08.965Z</time></trkpt><trkpt lat="47.311255131613386" lon="-1.9045566389175768"><ele>5.714285714285714</ele><time>2026-03-22T08:45:09.965Z</time></trkpt><trkpt lat="47.31129427360815" lon="-1.9046381020257332"><ele>5.571428571428571</ele><time>2026-03-22T08:45:10.965Z</time></trkpt><trkpt lat="47.311334679786455" lon="-1.9047318679968035"><ele>5.428571428571429</ele><time>2026-03-22T08:45:11.965Z</time></trkpt><trkpt lat="47.31136149717254" lon="-1.9048377451103216"><ele>5.285714285714286</ele><time>2026-03-22T08:45:12.965Z</time></trkpt><trkpt lat="47.311392731180106" lon="-1.9049311716909227"><ele>5.142857142857142</ele><time>2026-03-22T08:45:13.966Z</time></trkpt><trkpt lat="47.31143144749584" lon="-1.9050184132634402"><ele>5.0</ele><time>2026-03-22T08:45:14.966Z</time></trkpt><trkpt lat="47.31146736783117" lon="-1.9051201433991731"><ele>4.833333333333334</ele><time>2026-03-22T08:45:15.966Z</time></trkpt><trkpt lat="47.31150386637321" lon="-1.9052124079773896"><ele>4.666666666666667</ele><time>2026-03-22T08:45:16.966Z</time></trkpt><trkpt lat="47.31153994582833" lon="-1.905314362186286"><ele>4.5</ele><time>2026-03-22T08:45:17.966Z</time></trkpt><trkpt lat="47.31157514192144" lon="-1.9054119050648222"><ele>4.333333333333333</ele><time>2026-03-22T08:45:18.966Z</time></trkpt><trkpt lat="47.311613548132684" lon="-1.9055127017592202"><ele>4.166666666666666</ele><time>2026-03-22T08:45:19.965Z</time></trkpt><trkpt lat="47.31164923017671" lon="-1.9056139127525862"><ele>4.0</ele><time>2026-03-22T08:45:20.966Z</time></trkpt><trkpt lat="47.31168901494777" lon="-1.9057162411424304"><ele>3.9999999999999996</ele><time>2026-03-22T08:45:21.966Z</time></trkpt><trkpt lat="47.311723634961076" lon="-1.9058147577857252"><ele>4.0</ele><time>2026-03-22T08:45:22.966Z</time></trkpt><trkpt lat="47.31176150170153" lon="-1.9059115057495306"><ele>4.0</ele><time>2026-03-22T08:45:23.966Z</time></trkpt><trkpt lat="47.31179950554543" lon="-1.906010165180913"><ele>4.0</ele><time>2026-03-22T08:45:24.966Z</time></trkpt><trkpt lat="47.311822753629436" lon="-1.9061121296607026"><ele>3.9999999999999996</ele><time>2026-03-22T08:45:25.966Z</time></trkpt><trkpt lat="47.311863260901156" lon="-1.9062052255598094"><ele>4.0</ele><time>2026-03-22T08:45:26.966Z</time></trkpt><trkpt lat="47.31190421299154" lon="-1.9063037794218791"><ele>4.0</ele><time>2026-03-22T08:45:27.966Z</time></trkpt><trkpt lat="47.31193503133338" lon="-1.9064064223157806"><ele>3.9999999999999996</ele><time>2026-03-22T08:45:28.966Z</time></trkpt><trkpt lat="47.31197068879559" lon="-1.906496792678201"><ele>4.0</ele><time>2026-03-22T08:45:29.966Z</time></trkpt><trkpt lat="47.312000856206026" lon="-1.906593846179899"><ele>4.0</ele><time>2026-03-22T08:45:30.966Z</time></trkpt><trkpt lat="47.31203949063985" lon="-1.9066889614445643"><ele>3.9999999999999996</ele><time>2026-03-22T08:45:31.966Z</time></trkpt><trkpt lat="47.31207563434291" lon="-1.9067821607411652"><ele>4.0</ele><time>2026-03-22T08:45:32.966Z</time></trkpt><trkpt lat="47.31210440570963" lon="-1.906873304457436"><ele>4.0</ele><time>2026-03-22T08:45:33.966Z</time></trkpt><trkpt lat="47.312141313099" lon="-1.9069702358511291"><ele>3.9999999999999996</ele><time>2026-03-22T08:45:34.966Z</time></trkpt><trkpt lat="47.3121758433691" lon="-1.9070650317486961"><ele>4.0</ele><time>2026-03-22T08:45:35.966Z</time></trkpt><trkpt lat="47.31220451504238" lon="-1.9071675341951808"><ele>4.0</ele><time>2026-03-22T08:45:36.966Z</time></trkpt><trkpt lat="47.31227456236959" lon="-1.9073548581975317"><ele>4.0</ele><time>2026-03-22T08:45:38.966Z</time></trkpt><trkpt lat="47.31231282382391" lon="-1.9074439335128088"><ele>3.9999999999999996</ele><time>2026-03-22T08:45:39.966Z</time></trkpt><trkpt lat="47.312342958121874" lon="-1.907540452103766"><ele>4.0</ele><time>2026-03-22T08:45:40.966Z</time></trkpt><trkpt lat="47.31237893305399" lon="-1.9076332231358681"><ele>4.142857142857142</ele><time>2026-03-22T08:45:41.966Z</time></trkpt><trkpt lat="47.3124135460959" lon="-1.9077293050638322"><ele>4.285714285714286</ele><time>2026-03-22T08:45:42.966Z</time></trkpt><trkpt lat="47.31245252798666" lon="-1.9078242231465996"><ele>4.428571428571429</ele><time>2026-03-22T08:45:43.966Z</time></trkpt><trkpt lat="47.31248644886936" lon="-1.9079199665935667"><ele>4.571428571428571</ele><time>2026-03-22T08:45:44.966Z</time></trkpt><trkpt lat="47.31252168797115" lon="-1.9080113132940635"><ele>4.714285714285714</ele><time>2026-03-22T08:45:45.966Z</time></trkpt><trkpt lat="47.31255559084066" lon="-1.908102341924562"><ele>4.857142857142857</ele><time>2026-03-22T08:45:46.966Z</time></trkpt><trkpt lat="47.312593027103986" lon="-1.9081908460158639"><ele>5.0</ele><time>2026-03-22T08:45:47.966Z</time></trkpt><trkpt lat="47.31263058915155" lon="-1.908283046038608"><ele>5.0</ele><time>2026-03-22T08:45:48.966Z</time></trkpt><trkpt lat="47.312660454365066" lon="-1.9083722360975754"><ele>5.0</ele><time>2026-03-22T08:45:49.966Z</time></trkpt><trkpt lat="47.31269437755239" lon="-1.9084572621488176"><ele>5.0</ele><time>2026-03-22T08:45:50.966Z</time></trkpt><trkpt lat="47.31272401161485" lon="-1.9085400526019705"><ele>5.0</ele><time>2026-03-22T08:45:51.966Z</time></trkpt><trkpt lat="47.312759245648955" lon="-1.9086261552322143"><ele>5.0</ele><time>2026-03-22T08:45:52.966Z</time></trkpt><trkpt lat="47.31279116684397" lon="-1.9087105297974987"><ele>5.0</ele><time>2026-03-22T08:45:53.966Z</time></trkpt><trkpt lat="47.31282276215332" lon="-1.9087957486841116"><ele>5.0</ele><time>2026-03-22T08:45:54.966Z</time></trkpt><trkpt lat="47.31285174552011" lon="-1.9088789928513945"><ele>5.333333333333334</ele><time>2026-03-22T08:45:55.966Z</time></trkpt><trkpt lat="47.31287641236886" lon="-1.9089654946892902"><ele>5.666666666666667</ele><time>2026-03-22T08:45:56.966Z</time></trkpt><trkpt lat="47.31290661104314" lon="-1.9090474537899438"><ele>6.0</ele><time>2026-03-22T08:45:57.966Z</time></trkpt><trkpt lat="47.31294040267237" lon="-1.9091342257827588"><ele>6.333333333333334</ele><time>2026-03-22T08:45:58.966Z</time></trkpt><trkpt lat="47.312985807328836" lon="-1.9093066840748403"><ele>6.666666666666667</ele><time>2026-03-22T08:46:00.966Z</time></trkpt><trkpt lat="47.313035867344766" lon="-1.9094763172573237"><ele>7.0</ele><time>2026-03-22T08:46:02.966Z</time></trkpt><trkpt lat="47.313062779527336" lon="-1.9095609372359375"><ele>7.0</ele><time>2026-03-22T08:46:03.966Z</time></trkpt><trkpt lat="47.31310375142583" lon="-1.9097277012893528"><ele>6.999999999999999</ele><time>2026-03-22T08:46:05.966Z</time></trkpt><trkpt lat="47.31312915426184" lon="-1.9098184152924547"><ele>6.999999999999999</ele><time>2026-03-22T08:46:06.966Z</time></trkpt><trkpt lat="47.3131794573093" lon="-1.9099864710117234"><ele>7.0</ele><time>2026-03-22T08:46:08.965Z</time></trkpt><trkpt lat="47.31322443359563" lon="-1.9101564080608395"><ele>7.0</ele><time>2026-03-22T08:46:10.965Z</time></trkpt><trkpt lat="47.31327833242214" lon="-1.9103216640754694"><ele>7.0</ele><time>2026-03-22T08:46:12.965Z</time></trkpt><trkpt lat="47.31333395520503" lon="-1.9104808451929534"><ele>7.0</ele><time>2026-03-22T08:46:14.965Z</time></trkpt><trkpt lat="47.313386896034466" lon="-1.9106384606714388"><ele>7.0</ele><time>2026-03-22T08:46:16.965Z</time></trkpt><trkpt lat="47.31347213823127" lon="-1.9107636493279017"><ele>7.0</ele><time>2026-03-22T08:46:18.965Z</time></trkpt><trkpt lat="47.31358658478485" lon="-1.91080568211232"><ele>7.0</ele><time>2026-03-22T08:46:20.965Z</time></trkpt><trkpt lat="47.31369050486889" lon="-1.9107861356142295"><ele>6.999999999999999</ele><time>2026-03-22T08:46:22.965Z</time></trkpt><trkpt lat="47.31379436677996" lon="-1.9107298222381512"><ele>6.999999999999999</ele><time>2026-03-22T08:46:24.965Z</time></trkpt><trkpt lat="47.31389015536984" lon="-1.910683422425228"><ele>7.0</ele><time>2026-03-22T08:46:26.965Z</time></trkpt><trkpt lat="47.31398639752983" lon="-1.9106378889699873"><ele>7.0</ele><time>2026-03-22T08:46:28.965Z</time></trkpt><trkpt lat="47.31407823930067" lon="-1.9105972867872199"><ele>7.3999999999999995</ele><time>2026-03-22T08:46:30.965Z</time></trkpt><trkpt lat="47.31417170610125" lon="-1.9105526830750406"><ele>7.799999999999999</ele><time>2026-03-22T08:46:32.965Z</time></trkpt><trkpt lat="47.31426371026189" lon="-1.910518286593406"><ele>8.2</ele><time>2026-03-22T08:46:34.965Z</time></trkpt><trkpt lat="47.314358285079436" lon="-1.9104663451833388"><ele>8.6</ele><time>2026-03-22T08:46:36.965Z</time></trkpt><trkpt lat="47.31445781939031" lon="-1.9104312562656869"><ele>9.0</ele><time>2026-03-22T08:46:38.965Z</time></trkpt><trkpt lat="47.314550073438085" lon="-1.910390761638588"><ele>9.0</ele><time>2026-03-22T08:46:40.965Z</time></trkpt><trkpt lat="47.31464539572549" lon="-1.9103404074252777"><ele>9.0</ele><time>2026-03-22T08:46:42.965Z</time></trkpt><trkpt lat="47.31473294838875" lon="-1.9103010611983848"><ele>9.0</ele><time>2026-03-22T08:46:44.965Z</time></trkpt><trkpt lat="47.31482614143215" lon="-1.9102648248878835"><ele>9.0</ele><time>2026-03-22T08:46:46.965Z</time></trkpt><trkpt lat="47.314916784088524" lon="-1.9102353210735474"><ele>9.0</ele><time>2026-03-22T08:46:48.965Z</time></trkpt><trkpt lat="47.3150076032252" lon="-1.9102071886796903"><ele>9.333333333333334</ele><time>2026-03-22T08:46:50.965Z</time></trkpt><trkpt lat="47.31509435652563" lon="-1.9101868990797524"><ele>9.666666666666666</ele><time>2026-03-22T08:46:52.965Z</time></trkpt><trkpt lat="47.315182550224904" lon="-1.9101705471117538"><ele>10.0</ele><time>2026-03-22T08:46:54.965Z</time></trkpt><trkpt lat="47.31527421902416" lon="-1.9101458145951118"><ele>10.333333333333332</ele><time>2026-03-22T08:46:56.965Z</time></trkpt><trkpt lat="47.31536335013342" lon="-1.9101402379713148"><ele>10.666666666666666</ele><time>2026-03-22T08:46:58.965Z</time></trkpt><trkpt lat="47.31544749849251" lon="-1.9101423935234854"><ele>11.0</ele><time>2026-03-22T08:47:00.965Z</time></trkpt><trkpt lat="47.31552291961007" lon="-1.9101417218764092"><ele>11.333333333333332</ele><time>2026-03-22T08:47:02.965Z</time></trkpt><trkpt lat="47.315592458686396" lon="-1.910142230180612"><ele>11.666666666666666</ele><time>2026-03-22T08:47:04.965Z</time></trkpt><trkpt lat="47.315663911336" lon="-1.9101577601005313"><ele>12.0</ele><time>2026-03-22T08:47:06.965Z</time></trkpt><trkpt lat="47.315734818762216" lon="-1.910161835051639"><ele>12.333333333333332</ele><time>2026-03-22T08:47:08.965Z</time></trkpt><trkpt lat="47.31581621595931" lon="-1.9101502148055876"><ele>12.666666666666666</ele><time>2026-03-22T08:47:10.965Z</time></trkpt><trkpt lat="47.315892246680576" lon="-1.91016119509822"><ele>13.0</ele><time>2026-03-22T08:47:12.965Z</time></trkpt><trkpt lat="47.315971940598715" lon="-1.9101630325956396"><ele>12.999999999999998</ele><time>2026-03-22T08:47:14.965Z</time></trkpt><trkpt lat="47.31603899234759" lon="-1.9101670997105802"><ele>13.0</ele><time>2026-03-22T08:47:16.965Z</time></trkpt><trkpt lat="47.316136454641" lon="-1.91019127281424"><ele>13.0</ele><time>2026-03-22T08:47:19.965Z</time></trkpt><trkpt lat="47.31621709331243" lon="-1.9101983584619306"><ele>13.0</ele><time>2026-03-22T08:47:21.965Z</time></trkpt><trkpt lat="47.31629857692278" lon="-1.9102046507679478"><ele>12.999999999999998</ele><time>2026-03-22T08:47:23.965Z</time></trkpt><trkpt lat="47.31638659063062" lon="-1.910196683187556"><ele>13.0</ele><time>2026-03-22T08:47:25.965Z</time></trkpt><trkpt lat="47.3164750141325" lon="-1.9101989384824087"><ele>13.333333333333332</ele><time>2026-03-22T08:47:27.965Z</time></trkpt><trkpt lat="47.31656151165297" lon="-1.9102004755794344"><ele>13.666666666666666</ele><time>2026-03-22T08:47:29.965Z</time></trkpt><trkpt lat="47.316638621599" lon="-1.9101969061512216"><ele>14.0</ele><time>2026-03-22T08:47:31.965Z</time></trkpt><trkpt lat="47.31672207150777" lon="-1.9102123937418996"><ele>14.333333333333332</ele><time>2026-03-22T08:47:33.965Z</time></trkpt><trkpt lat="47.316803581974874" lon="-1.9102070968567229"><ele>14.666666666666666</ele><time>2026-03-22T08:47:35.965Z</time></trkpt><trkpt lat="47.316888606244824" lon="-1.9102133714476779"><ele>15.0</ele><time>2026-03-22T08:47:37.965Z</time></trkpt><trkpt lat="47.31701052193501" lon="-1.91021897882071"><ele>15.0</ele><time>2026-03-22T08:47:40.965Z</time></trkpt><trkpt lat="47.31713803797223" lon="-1.9102334851402516"><ele>15.0</ele><time>2026-03-22T08:47:43.965Z</time></trkpt><trkpt lat="47.31722826104788" lon="-1.9102404524914112"><ele>15.0</ele><time>2026-03-22T08:47:45.965Z</time></trkpt><trkpt lat="47.31732378301971" lon="-1.9102476032808822"><ele>15.0</ele><time>2026-03-22T08:47:47.965Z</time></trkpt><trkpt lat="47.31741679064754" lon="-1.9102566499301896"><ele>15.0</ele><time>2026-03-22T08:47:49.965Z</time></trkpt><trkpt lat="47.31752226653" lon="-1.9102563454849888"><ele>15.4</ele><time>2026-03-22T08:47:51.965Z</time></trkpt><trkpt lat="47.31762475276027" lon="-1.9102575066552856"><ele>15.8</ele><time>2026-03-22T08:47:53.965Z</time></trkpt><trkpt lat="47.317723585339685" lon="-1.9102605617230872"><ele>16.2</ele><time>2026-03-22T08:47:55.965Z</time></trkpt><trkpt lat="47.31782755321252" lon="-1.9102481337250192"><ele>16.6</ele><time>2026-03-22T08:47:57.965Z</time></trkpt><trkpt lat="47.31793030416051" lon="-1.9102379455495404"><ele>17.0</ele><time>2026-03-22T08:47:59.965Z</time></trkpt><trkpt lat="47.318029283173374" lon="-1.9102145275275526"><ele>17.0</ele><time>2026-03-22T08:48:01.965Z</time></trkpt><trkpt lat="47.318138273309565" lon="-1.9101658364485774"><ele>17.0</ele><time>2026-03-22T08:48:03.965Z</time></trkpt><trkpt lat="47.31824580028499" lon="-1.910121608552993"><ele>17.0</ele><time>2026-03-22T08:48:05.965Z</time></trkpt><trkpt lat="47.31835456806565" lon="-1.9100709066334451"><ele>17.0</ele><time>2026-03-22T08:48:07.965Z</time></trkpt><trkpt lat="47.31846845394539" lon="-1.910019807941013"><ele>17.0</ele><time>2026-03-22T08:48:09.965Z</time></trkpt><trkpt lat="47.318575765768315" lon="-1.9099758445514636"><ele>17.0</ele><time>2026-03-22T08:48:11.964Z</time></trkpt><trkpt lat="47.318689017240374" lon="-1.9099243824540215"><ele>17.0</ele><time>2026-03-22T08:48:13.964Z</time></trkpt><trkpt lat="47.318804858605716" lon="-1.9098778667133098"><ele>17.0</ele><time>2026-03-22T08:48:15.964Z</time></trkpt><trkpt lat="47.31891010386827" lon="-1.9098414004586155"><ele>17.4</ele><time>2026-03-22T08:48:17.964Z</time></trkpt><trkpt lat="47.319021614571" lon="-1.9098058129937492"><ele>17.799999999999997</ele><time>2026-03-22T08:48:19.964Z</time></trkpt><trkpt lat="47.319125828880615" lon="-1.909809353323321"><ele>18.2</ele><time>2026-03-22T08:48:21.964Z</time></trkpt><trkpt lat="47.31922759758385" lon="-1.9098555703472162"><ele>18.599999999999998</ele><time>2026-03-22T08:48:23.964Z</time></trkpt><trkpt lat="47.31931815714432" lon="-1.9099313936687172"><ele>19.0</ele><time>2026-03-22T08:48:25.964Z</time></trkpt><trkpt lat="47.319402873339634" lon="-1.91003545287904"><ele>18.8</ele><time>2026-03-22T08:48:27.964Z</time></trkpt><trkpt lat="47.31949308919007" lon="-1.910115732129777"><ele>18.599999999999998</ele><time>2026-03-22T08:48:29.964Z</time></trkpt><trkpt lat="47.31959860353788" lon="-1.9101761547496223"><ele>18.4</ele><time>2026-03-22T08:48:31.964Z</time></trkpt><trkpt lat="47.319703373443645" lon="-1.9102213336738116"><ele>18.2</ele><time>2026-03-22T08:48:33.964Z</time></trkpt><trkpt lat="47.3198128423031" lon="-1.910233770716576"><ele>18.0</ele><time>2026-03-22T08:48:35.964Z</time></trkpt><trkpt lat="47.31992619778935" lon="-1.9102235509175813"><ele>18.0</ele><time>2026-03-22T08:48:37.964Z</time></trkpt><trkpt lat="47.32003456603241" lon="-1.9101879125594337"><ele>18.0</ele><time>2026-03-22T08:48:39.964Z</time></trkpt><trkpt lat="47.320113729474194" lon="-1.9101457030590485"><ele>18.0</ele><time>2026-03-22T08:48:41.964Z</time></trkpt><trkpt lat="47.32017696111204" lon="-1.910147082788595"><ele>18.0</ele><time>2026-03-22T08:48:43.964Z</time></trkpt><trkpt lat="47.32021716190699" lon="-1.910280071936384"><ele>18.0</ele><time>2026-03-22T08:48:45.964Z</time></trkpt><trkpt lat="47.320201328392606" lon="-1.9104573695747447"><ele>18.0</ele><time>2026-03-22T08:48:47.964Z</time></trkpt><trkpt lat="47.320175998776975" lon="-1.910626472565983"><ele>18.0</ele><time>2026-03-22T08:48:49.964Z</time></trkpt><trkpt lat="47.32016557953818" lon="-1.9107863606385536"><ele>18.0</ele><time>2026-03-22T08:48:51.964Z</time></trkpt><trkpt lat="47.32014783249025" lon="-1.9109590321546763"><ele>18.0</ele><time>2026-03-22T08:48:53.964Z</time></trkpt><trkpt lat="47.32012405735467" lon="-1.9111379790781977"><ele>17.857142857142858</ele><time>2026-03-22T08:48:55.964Z</time></trkpt><trkpt lat="47.32011124206532" lon="-1.9112317206538543"><ele>17.714285714285715</ele><time>2026-03-22T08:48:56.964Z</time></trkpt><trkpt lat="47.32009628761459" lon="-1.911325843881875"><ele>17.57142857142857</ele><time>2026-03-22T08:48:57.964Z</time></trkpt><trkpt lat="47.32008261808541" lon="-1.9114297218516167"><ele>17.42857142857143</ele><time>2026-03-22T08:48:58.964Z</time></trkpt><trkpt lat="47.32007145354445" lon="-1.911532088812242"><ele>17.285714285714285</ele><time>2026-03-22T08:48:59.964Z</time></trkpt><trkpt lat="47.32005758577232" lon="-1.911632119761344"><ele>17.142857142857142</ele><time>2026-03-22T08:49:00.964Z</time></trkpt><trkpt lat="47.32004302892329" lon="-1.9117321759716082"><ele>17.0</ele><time>2026-03-22T08:49:01.964Z</time></trkpt><trkpt lat="47.32003468055034" lon="-1.9118395718403225"><ele>16.5</ele><time>2026-03-22T08:49:02.964Z</time></trkpt><trkpt lat="47.320023795816375" lon="-1.9119515304895882"><ele>16.0</ele><time>2026-03-22T08:49:03.964Z</time></trkpt><trkpt lat="47.3200102025477" lon="-1.9120615292522447"><ele>15.5</ele><time>2026-03-22T08:49:04.964Z</time></trkpt><trkpt lat="47.320008323113115" lon="-1.9121830786071359"><ele>15.0</ele><time>2026-03-22T08:49:05.964Z</time></trkpt><trkpt lat="47.31998633561876" lon="-1.9122895825088821"><ele>14.500000000000002</ele><time>2026-03-22T08:49:06.964Z</time></trkpt><trkpt lat="47.31996888209307" lon="-1.9124045485665495"><ele>14.0</ele><time>2026-03-22T08:49:07.964Z</time></trkpt><trkpt lat="47.319955935020275" lon="-1.9125303670290235"><ele>13.399999999999999</ele><time>2026-03-22T08:49:08.964Z</time></trkpt><trkpt lat="47.31994418182797" lon="-1.9126547292889078"><ele>12.799999999999999</ele><time>2026-03-22T08:49:09.964Z</time></trkpt><trkpt lat="47.319923874044505" lon="-1.9127873783247311"><ele>12.2</ele><time>2026-03-22T08:49:10.964Z</time></trkpt><trkpt lat="47.31990544464088" lon="-1.912918133870585"><ele>11.600000000000001</ele><time>2026-03-22T08:49:11.964Z</time></trkpt><trkpt lat="47.31988705007492" lon="-1.9130492414134268"><ele>11.0</ele><time>2026-03-22T08:49:12.964Z</time></trkpt><trkpt lat="47.31987336565191" lon="-1.913189662632928"><ele>11.0</ele><time>2026-03-22T08:49:13.964Z</time></trkpt><trkpt lat="47.319854560632194" lon="-1.9133264418125697"><ele>11.0</ele><time>2026-03-22T08:49:14.964Z</time></trkpt><trkpt lat="47.31983702279359" lon="-1.9134659243060976"><ele>11.0</ele><time>2026-03-22T08:49:15.964Z</time></trkpt><trkpt lat="47.319818575903234" lon="-1.9136081500961424"><ele>11.0</ele><time>2026-03-22T08:49:16.964Z</time></trkpt><trkpt lat="47.319799069975666" lon="-1.9137420694837664"><ele>11.0</ele><time>2026-03-22T08:49:17.964Z</time></trkpt><trkpt lat="47.31977979995677" lon="-1.913882460956285"><ele>11.0</ele><time>2026-03-22T08:49:18.964Z</time></trkpt><trkpt lat="47.31976258980126" lon="-1.9140242832863492"><ele>11.0</ele><time>2026-03-22T08:49:19.964Z</time></trkpt><trkpt lat="47.31974046401834" lon="-1.9141575278874308"><ele>11.0</ele><time>2026-03-22T08:49:20.964Z</time></trkpt><trkpt lat="47.319728170859506" lon="-1.9143060258660531"><ele>11.0</ele><time>2026-03-22T08:49:21.964Z</time></trkpt><trkpt lat="47.31971374080843" lon="-1.9144571556382228"><ele>11.0</ele><time>2026-03-22T08:49:22.964Z</time></trkpt><trkpt lat="47.31969128037393" lon="-1.9146077852451653"><ele>10.8</ele><time>2026-03-22T08:49:23.964Z</time></trkpt><trkpt lat="47.31967422460001" lon="-1.9147439443264114"><ele>10.600000000000001</ele><time>2026-03-22T08:49:24.964Z</time></trkpt><trkpt lat="47.319657487748366" lon="-1.9148761151075722"><ele>10.4</ele><time>2026-03-22T08:49:25.964Z</time></trkpt><trkpt lat="47.31964017789704" lon="-1.9150113033924618"><ele>10.2</ele><time>2026-03-22T08:49:26.964Z</time></trkpt><trkpt lat="47.31961642157173" lon="-1.9151453474920823"><ele>10.0</ele><time>2026-03-22T08:49:27.964Z</time></trkpt><trkpt lat="47.319602122296246" lon="-1.9152823771262655"><ele>9.8</ele><time>2026-03-22T08:49:28.965Z</time></trkpt><trkpt lat="47.319594691131236" lon="-1.9154262259189003"><ele>9.6</ele><time>2026-03-22T08:49:29.964Z</time></trkpt><trkpt lat="47.31958146103307" lon="-1.9155671131267427"><ele>9.4</ele><time>2026-03-22T08:49:30.964Z</time></trkpt><trkpt lat="47.319564023568304" lon="-1.9156990506924005"><ele>9.2</ele><time>2026-03-22T08:49:31.964Z</time></trkpt><trkpt lat="47.3195415853515" lon="-1.915833813839041"><ele>9.0</ele><time>2026-03-22T08:49:32.964Z</time></trkpt><trkpt lat="47.31952573102883" lon="-1.915948244554164"><ele>8.666666666666666</ele><time>2026-03-22T08:49:33.964Z</time></trkpt><trkpt lat="47.31951121684288" lon="-1.9160747518553118"><ele>8.333333333333334</ele><time>2026-03-22T08:49:34.964Z</time></trkpt><trkpt lat="47.31949961100446" lon="-1.916187500129644"><ele>8.0</ele><time>2026-03-22T08:49:35.963Z</time></trkpt><trkpt lat="47.31948392320639" lon="-1.916319797765635"><ele>7.666666666666667</ele><time>2026-03-22T08:49:36.963Z</time></trkpt><trkpt lat="47.31945969853171" lon="-1.9164444405501448"><ele>7.333333333333334</ele><time>2026-03-22T08:49:37.964Z</time></trkpt><trkpt lat="47.31944911062822" lon="-1.9165771821334932"><ele>7.0</ele><time>2026-03-22T08:49:38.963Z</time></trkpt><trkpt lat="47.319433829592384" lon="-1.9167043598208733"><ele>6.6</ele><time>2026-03-22T08:49:39.963Z</time></trkpt><trkpt lat="47.31941506984944" lon="-1.916836178187382"><ele>6.199999999999999</ele><time>2026-03-22T08:49:40.963Z</time></trkpt><trkpt lat="47.31939485658886" lon="-1.9169634819698929"><ele>5.8</ele><time>2026-03-22T08:49:41.963Z</time></trkpt><trkpt lat="47.31937958643174" lon="-1.9170975904161307"><ele>5.4</ele><time>2026-03-22T08:49:42.963Z</time></trkpt><trkpt lat="47.31936471355932" lon="-1.917236879427991"><ele>5.0</ele><time>2026-03-22T08:49:43.963Z</time></trkpt><trkpt lat="47.31934978622247" lon="-1.917376837256217"><ele>5.0</ele><time>2026-03-22T08:49:44.963Z</time></trkpt><trkpt lat="47.319327961646245" lon="-1.9175149148888697"><ele>5.0</ele><time>2026-03-22T08:49:45.963Z</time></trkpt><trkpt lat="47.31931449719196" lon="-1.9176570821111778"><ele>5.0</ele><time>2026-03-22T08:49:46.963Z</time></trkpt><trkpt lat="47.31929682761769" lon="-1.9178030323488306"><ele>5.0</ele><time>2026-03-22T08:49:47.963Z</time></trkpt><trkpt lat="47.31927860179102" lon="-1.9179409880771792"><ele>5.0</ele><time>2026-03-22T08:49:48.963Z</time></trkpt><trkpt lat="47.319262741897695" lon="-1.9180800128651276"><ele>4.8</ele><time>2026-03-22T08:49:49.963Z</time></trkpt><trkpt lat="47.31924678801453" lon="-1.9182211584894366"><ele>4.6</ele><time>2026-03-22T08:49:50.963Z</time></trkpt><trkpt lat="47.31923008547367" lon="-1.918367752901693"><ele>4.4</ele><time>2026-03-22T08:49:51.963Z</time></trkpt><trkpt lat="47.31920523761692" lon="-1.9185050755751092"><ele>4.2</ele><time>2026-03-22T08:49:52.963Z</time></trkpt><trkpt lat="47.31919427337011" lon="-1.918649391439845"><ele>4.0</ele><time>2026-03-22T08:49:53.963Z</time></trkpt><trkpt lat="47.31917598453543" lon="-1.9187911979586818"><ele>3.8000000000000003</ele><time>2026-03-22T08:49:54.963Z</time></trkpt><trkpt lat="47.3191589946803" lon="-1.9189358792770912"><ele>3.6000000000000005</ele><time>2026-03-22T08:49:55.963Z</time></trkpt><trkpt lat="47.31914119439911" lon="-1.9190749126832733"><ele>3.4</ele><time>2026-03-22T08:49:56.963Z</time></trkpt><trkpt lat="47.31913403938113" lon="-1.9192036239581192"><ele>3.2</ele><time>2026-03-22T08:49:57.963Z</time></trkpt><trkpt lat="47.31911504192987" lon="-1.9193424102468757"><ele>3.0</ele><time>2026-03-22T08:49:58.963Z</time></trkpt><trkpt lat="47.319105813515165" lon="-1.9194791042531278"><ele>3.3333333333333335</ele><time>2026-03-22T08:49:59.963Z</time></trkpt><trkpt lat="47.31908687138101" lon="-1.9196094323161885"><ele>3.666666666666667</ele><time>2026-03-22T08:50:00.963Z</time></trkpt><trkpt lat="47.3190700224522" lon="-1.9197370595882073"><ele>4.0</ele><time>2026-03-22T08:50:01.963Z</time></trkpt><trkpt lat="47.31905558868181" lon="-1.9198616396351293"><ele>4.333333333333334</ele><time>2026-03-22T08:50:02.963Z</time></trkpt><trkpt lat="47.31904157191155" lon="-1.919983591826836"><ele>4.666666666666667</ele><time>2026-03-22T08:50:03.963Z</time></trkpt><trkpt lat="47.31902902627689" lon="-1.9201077058035232"><ele>5.0</ele><time>2026-03-22T08:50:04.963Z</time></trkpt><trkpt lat="47.31902235451789" lon="-1.9202196733403385"><ele>5.0</ele><time>2026-03-22T08:50:05.963Z</time></trkpt><trkpt lat="47.319004025329704" lon="-1.9203345586646177"><ele>5.0</ele><time>2026-03-22T08:50:06.963Z</time></trkpt><trkpt lat="47.318989009511434" lon="-1.9204450998744047"><ele>5.0</ele><time>2026-03-22T08:50:07.963Z</time></trkpt><trkpt lat="47.31897600104852" lon="-1.920552188173636"><ele>5.0</ele><time>2026-03-22T08:50:08.963Z</time></trkpt><trkpt lat="47.31895847593752" lon="-1.920660699066137"><ele>5.0</ele><time>2026-03-22T08:50:09.963Z</time></trkpt><trkpt lat="47.318948768486116" lon="-1.920768621288456"><ele>5.0</ele><time>2026-03-22T08:50:10.963Z</time></trkpt><trkpt lat="47.31894259272377" lon="-1.9208713353747704"><ele>5.0</ele><time>2026-03-22T08:50:11.963Z</time></trkpt><trkpt lat="47.31892132297562" lon="-1.9209674720571808"><ele>5.0</ele><time>2026-03-22T08:50:12.963Z</time></trkpt><trkpt lat="47.31890208751664" lon="-1.9210672330773761"><ele>5.0</ele><time>2026-03-22T08:50:13.963Z</time></trkpt><trkpt lat="47.31888944932633" lon="-1.9211583909959502"><ele>5.0</ele><time>2026-03-22T08:50:14.963Z</time></trkpt><trkpt lat="47.31887815668618" lon="-1.9212545622819348"><ele>5.0</ele><time>2026-03-22T08:50:15.963Z</time></trkpt><trkpt lat="47.31886181247712" lon="-1.9213504769362244"><ele>5.0</ele><time>2026-03-22T08:50:16.963Z</time></trkpt><trkpt lat="47.318836889791356" lon="-1.92154740371762"><ele>5.0</ele><time>2026-03-22T08:50:18.963Z</time></trkpt><trkpt lat="47.31881326650362" lon="-1.9217374364833408"><ele>5.0</ele><time>2026-03-22T08:50:20.963Z</time></trkpt><trkpt lat="47.31880238081111" lon="-1.921834428218955"><ele>5.0</ele><time>2026-03-22T08:50:21.963Z</time></trkpt><trkpt lat="47.31878873919109" lon="-1.9219362163863132"><ele>5.0</ele><time>2026-03-22T08:50:22.963Z</time></trkpt><trkpt lat="47.31877953525846" lon="-1.9220318808645418"><ele>5.0</ele><time>2026-03-22T08:50:23.963Z</time></trkpt><trkpt lat="47.318770338011866" lon="-1.9221293386545872"><ele>5.0</ele><time>2026-03-22T08:50:24.963Z</time></trkpt><trkpt lat="47.31876878135396" lon="-1.9222320567727424"><ele>5.0</ele><time>2026-03-22T08:50:25.963Z</time></trkpt><trkpt lat="47.31876176375004" lon="-1.9223331907498415"><ele>5.0</ele><time>2026-03-22T08:50:26.963Z</time></trkpt><trkpt lat="47.318757957060285" lon="-1.9224370900654846"><ele>5.0</ele><time>2026-03-22T08:50:27.963Z</time></trkpt><trkpt lat="47.31875354394296" lon="-1.9225408326085585"><ele>5.0</ele><time>2026-03-22T08:50:28.963Z</time></trkpt><trkpt lat="47.318748023107474" lon="-1.9226447937136213"><ele>5.0</ele><time>2026-03-22T08:50:29.963Z</time></trkpt><trkpt lat="47.31874592810282" lon="-1.9227492944004774"><ele>5.0</ele><time>2026-03-22T08:50:30.963Z</time></trkpt><trkpt lat="47.31874352165999" lon="-1.9228567978674964"><ele>5.0</ele><time>2026-03-22T08:50:31.963Z</time></trkpt><trkpt lat="47.31874618892141" lon="-1.9229666013007238"><ele>5.0</ele><time>2026-03-22T08:50:32.963Z</time></trkpt><trkpt lat="47.31874759949874" lon="-1.9230731686439224"><ele>5.0</ele><time>2026-03-22T08:50:33.962Z</time></trkpt><trkpt lat="47.3187490507313" lon="-1.9231816879002799"><ele>5.0</ele><time>2026-03-22T08:50:34.962Z</time></trkpt><trkpt lat="47.31875133443394" lon="-1.9232947173840933"><ele>5.0</ele><time>2026-03-22T08:50:35.962Z</time></trkpt><trkpt lat="47.318759058608485" lon="-1.9234116066700784"><ele>5.0</ele><time>2026-03-22T08:50:36.962Z</time></trkpt><trkpt lat="47.3187660228824" lon="-1.9235269849729058"><ele>5.0</ele><time>2026-03-22T08:50:37.962Z</time></trkpt><trkpt lat="47.318768441241495" lon="-1.9236383272686959"><ele>5.0</ele><time>2026-03-22T08:50:38.962Z</time></trkpt><trkpt lat="47.318776380204014" lon="-1.923749645825326"><ele>5.0</ele><time>2026-03-22T08:50:39.962Z</time></trkpt><trkpt lat="47.3187883222979" lon="-1.923868183876176"><ele>4.833333333333334</ele><time>2026-03-22T08:50:40.962Z</time></trkpt><trkpt lat="47.31879889741979" lon="-1.923985260951167"><ele>4.666666666666667</ele><time>2026-03-22T08:50:41.962Z</time></trkpt><trkpt lat="47.31880800022622" lon="-1.924098761434982"><ele>4.5</ele><time>2026-03-22T08:50:42.962Z</time></trkpt><trkpt lat="47.318820022333504" lon="-1.9242112591269374"><ele>4.333333333333333</ele><time>2026-03-22T08:50:43.962Z</time></trkpt><trkpt lat="47.31883146085319" lon="-1.9243236893316913"><ele>4.166666666666666</ele><time>2026-03-22T08:50:44.962Z</time></trkpt><trkpt lat="47.31884214272601" lon="-1.9244383216043746"><ele>4.0</ele><time>2026-03-22T08:50:45.962Z</time></trkpt><trkpt lat="47.31885975438001" lon="-1.9245517198039672"><ele>3.9999999999999996</ele><time>2026-03-22T08:50:46.962Z</time></trkpt><trkpt lat="47.31886825761502" lon="-1.9246718690606641"><ele>4.0</ele><time>2026-03-22T08:50:47.962Z</time></trkpt><trkpt lat="47.3188750598703" lon="-1.9247918974895901"><ele>4.0</ele><time>2026-03-22T08:50:48.962Z</time></trkpt><trkpt lat="47.31890360132295" lon="-1.9249007421000468"><ele>4.0</ele><time>2026-03-22T08:50:49.962Z</time></trkpt><trkpt lat="47.31891170585911" lon="-1.9250193584765307"><ele>3.9999999999999996</ele><time>2026-03-22T08:50:50.962Z</time></trkpt><trkpt lat="47.31892406820526" lon="-1.9251359412728073"><ele>4.0</ele><time>2026-03-22T08:50:51.962Z</time></trkpt><trkpt lat="47.318937729031134" lon="-1.9252540486435044"><ele>3.6666666666666665</ele><time>2026-03-22T08:50:52.962Z</time></trkpt><trkpt lat="47.31894897886874" lon="-1.9253716870203093"><ele>3.333333333333333</ele><time>2026-03-22T08:50:53.962Z</time></trkpt><trkpt lat="47.31896236476121" lon="-1.925487848007643"><ele>3.0</ele><time>2026-03-22T08:50:54.962Z</time></trkpt><trkpt lat="47.31897719590401" lon="-1.9256050941867267"><ele>2.6666666666666665</ele><time>2026-03-22T08:50:55.962Z</time></trkpt><trkpt lat="47.318989145002696" lon="-1.9257245711520374"><ele>2.333333333333333</ele><time>2026-03-22T08:50:56.962Z</time></trkpt><trkpt lat="47.31900656697501" lon="-1.925836521585822"><ele>2.0</ele><time>2026-03-22T08:50:57.962Z</time></trkpt><trkpt lat="47.31901753571748" lon="-1.925952553989306"><ele>1.9999999999999998</ele><time>2026-03-22T08:50:58.962Z</time></trkpt><trkpt lat="47.31903034421523" lon="-1.9260659030208038"><ele>2.0</ele><time>2026-03-22T08:50:59.962Z</time></trkpt><trkpt lat="47.31904090977049" lon="-1.9261817707087647"><ele>2.0</ele><time>2026-03-22T08:51:00.962Z</time></trkpt><trkpt lat="47.3190547311905" lon="-1.9262986437785306"><ele>2.0</ele><time>2026-03-22T08:51:01.962Z</time></trkpt><trkpt lat="47.319074151027415" lon="-1.926414586611474"><ele>1.9999999999999998</ele><time>2026-03-22T08:51:02.962Z</time></trkpt><trkpt lat="47.3190867321386" lon="-1.9265239316430083"><ele>2.0</ele><time>2026-03-22T08:51:03.962Z</time></trkpt><trkpt lat="47.319097541396665" lon="-1.9266365255741196"><ele>1.9999999999999998</ele><time>2026-03-22T08:51:04.962Z</time></trkpt><trkpt lat="47.31911020623722" lon="-1.9267491835298913"><ele>2.0</ele><time>2026-03-22T08:51:05.962Z</time></trkpt><trkpt lat="47.319128367894216" lon="-1.9268659255086853"><ele>2.0</ele><time>2026-03-22T08:51:06.962Z</time></trkpt><trkpt lat="47.31914112183001" lon="-1.9269725769255588"><ele>2.0</ele><time>2026-03-22T08:51:07.962Z</time></trkpt><trkpt lat="47.31915890259225" lon="-1.9270839393545502"><ele>1.9999999999999998</ele><time>2026-03-22T08:51:08.962Z</time></trkpt><trkpt lat="47.319174356830544" lon="-1.9271931355865077"><ele>2.0</ele><time>2026-03-22T08:51:09.962Z</time></trkpt><trkpt lat="47.319182623835374" lon="-1.9272982837439827"><ele>2.0</ele><time>2026-03-22T08:51:10.962Z</time></trkpt><trkpt lat="47.31919820534767" lon="-1.927406788253496"><ele>1.9999999999999998</ele><time>2026-03-22T08:51:11.962Z</time></trkpt><trkpt lat="47.31920901269004" lon="-1.9275175448167288"><ele>2.0</ele><time>2026-03-22T08:51:12.962Z</time></trkpt><trkpt lat="47.31922312613166" lon="-1.927621603874535"><ele>2.0</ele><time>2026-03-22T08:51:13.962Z</time></trkpt><trkpt lat="47.319234567324" lon="-1.9277276288666307"><ele>1.9999999999999998</ele><time>2026-03-22T08:51:14.962Z</time></trkpt><trkpt lat="47.31924654573449" lon="-1.9278312538758302"><ele>2.0</ele><time>2026-03-22T08:51:15.962Z</time></trkpt><trkpt lat="47.31925983653765" lon="-1.927933908605061"><ele>2.0</ele><time>2026-03-22T08:51:16.962Z</time></trkpt><trkpt lat="47.319270067079074" lon="-1.9280342261488064"><ele>1.857142857142857</ele><time>2026-03-22T08:51:17.962Z</time></trkpt><trkpt lat="47.31927923567063" lon="-1.928133039007884"><ele>1.714285714285714</ele><time>2026-03-22T08:51:18.962Z</time></trkpt><trkpt lat="47.31930189356499" lon="-1.9282359393594166"><ele>1.5714285714285714</ele><time>2026-03-22T08:51:19.962Z</time></trkpt><trkpt lat="47.31931320946852" lon="-1.9283340027213318"><ele>1.4285714285714284</ele><time>2026-03-22T08:51:20.962Z</time></trkpt><trkpt lat="47.3193210844911" lon="-1.9284396002587023"><ele>1.2857142857142856</ele><time>2026-03-22T08:51:21.962Z</time></trkpt><trkpt lat="47.3193309027967" lon="-1.9285438960817498"><ele>1.1428571428571428</ele><time>2026-03-22T08:51:22.962Z</time></trkpt><trkpt lat="47.31934376631458" lon="-1.9286455978255477"><ele>1.0</ele><time>2026-03-22T08:51:23.962Z</time></trkpt><trkpt lat="47.319357917156765" lon="-1.9287521498138163"><ele>1.0</ele><time>2026-03-22T08:51:24.962Z</time></trkpt><trkpt lat="47.319373071301584" lon="-1.9288542878731072"><ele>0.9999999999999999</ele><time>2026-03-22T08:51:25.962Z</time></trkpt><trkpt lat="47.3193844530058" lon="-1.9289583434635165"><ele>1.0</ele><time>2026-03-22T08:51:26.962Z</time></trkpt><trkpt lat="47.31939663984845" lon="-1.9290635556666684"><ele>1.0</ele><time>2026-03-22T08:51:27.962Z</time></trkpt><trkpt lat="47.31940740805008" lon="-1.9291669670658478"><ele>0.9999999999999999</ele><time>2026-03-22T08:51:28.962Z</time></trkpt><trkpt lat="47.31941895178279" lon="-1.9292802694037081"><ele>1.0</ele><time>2026-03-22T08:51:29.962Z</time></trkpt><trkpt lat="47.31943514222115" lon="-1.929383303520987"><ele>1.0</ele><time>2026-03-22T08:51:30.962Z</time></trkpt><trkpt lat="47.31944677618635" lon="-1.929482008627275"><ele>1.1428571428571428</ele><time>2026-03-22T08:51:31.963Z</time></trkpt><trkpt lat="47.31946031530504" lon="-1.9295785224197957"><ele>1.2857142857142856</ele><time>2026-03-22T08:51:32.963Z</time></trkpt><trkpt lat="47.31946916715547" lon="-1.9296845025594358"><ele>1.4285714285714284</ele><time>2026-03-22T08:51:33.963Z</time></trkpt><trkpt lat="47.31947953821925" lon="-1.92978537189087"><ele>1.5714285714285714</ele><time>2026-03-22T08:51:34.963Z</time></trkpt><trkpt lat="47.31948951212338" lon="-1.92988723580571"><ele>1.714285714285714</ele><time>2026-03-22T08:51:35.963Z</time></trkpt><trkpt lat="47.31949934761776" lon="-1.9299916818666112"><ele>1.857142857142857</ele><time>2026-03-22T08:51:36.963Z</time></trkpt><trkpt lat="47.31951514269366" lon="-1.9300968659693543"><ele>2.0</ele><time>2026-03-22T08:51:37.963Z</time></trkpt><trkpt lat="47.31952480558336" lon="-1.9301962382470088"><ele>2.0</ele><time>2026-03-22T08:51:38.963Z</time></trkpt><trkpt lat="47.3195391421135" lon="-1.9303068278959041"><ele>1.9999999999999998</ele><time>2026-03-22T08:51:39.963Z</time></trkpt><trkpt lat="47.31955229831273" lon="-1.9304030910477923"><ele>2.0</ele><time>2026-03-22T08:51:40.963Z</time></trkpt><trkpt lat="47.319561194759146" lon="-1.9305046908075842"><ele>2.0</ele><time>2026-03-22T08:51:41.963Z</time></trkpt><trkpt lat="47.319574250787895" lon="-1.9306070064098966"><ele>1.9999999999999998</ele><time>2026-03-22T08:51:42.963Z</time></trkpt><trkpt lat="47.319587270005776" lon="-1.9307034297091943"><ele>2.0</ele><time>2026-03-22T08:51:43.963Z</time></trkpt><trkpt lat="47.31959721408271" lon="-1.9308054330254139"><ele>2.0</ele><time>2026-03-22T08:51:44.963Z</time></trkpt><trkpt lat="47.31960948811934" lon="-1.9309044556934702"><ele>1.9999999999999998</ele><time>2026-03-22T08:51:45.963Z</time></trkpt><trkpt lat="47.31962095489748" lon="-1.931001792614949"><ele>2.0</ele><time>2026-03-22T08:51:46.963Z</time></trkpt><trkpt lat="47.31963234649718" lon="-1.9310989636519198"><ele>2.0</ele><time>2026-03-22T08:51:47.963Z</time></trkpt><trkpt lat="47.31963984810778" lon="-1.9312020308958682"><ele>2.0</ele><time>2026-03-22T08:51:48.963Z</time></trkpt><trkpt lat="47.319664756839096" lon="-1.9313905282115436"><ele>1.9999999999999998</ele><time>2026-03-22T08:51:50.963Z</time></trkpt><trkpt lat="47.31967412924166" lon="-1.9314864680580563"><ele>2.0</ele><time>2026-03-22T08:51:51.963Z</time></trkpt><trkpt lat="47.31968323267929" lon="-1.9315791672645883"><ele>2.0</ele><time>2026-03-22T08:51:52.963Z</time></trkpt><trkpt lat="47.319698554460246" lon="-1.9316757738296226"><ele>2.0</ele><time>2026-03-22T08:51:53.963Z</time></trkpt><trkpt lat="47.319715736998" lon="-1.9318656068443592"><ele>2.0</ele><time>2026-03-22T08:51:55.963Z</time></trkpt><trkpt lat="47.31972532701295" lon="-1.9319638395965806"><ele>2.0</ele><time>2026-03-22T08:51:56.963Z</time></trkpt><trkpt lat="47.31973622417004" lon="-1.9320554545497508"><ele>2.0</ele><time>2026-03-22T08:51:57.963Z</time></trkpt><trkpt lat="47.31976272571909" lon="-1.9322389551749484"><ele>2.1666666666666665</ele><time>2026-03-22T08:51:59.963Z</time></trkpt><trkpt lat="47.319775271721305" lon="-1.932337346394941"><ele>2.333333333333333</ele><time>2026-03-22T08:52:00.963Z</time></trkpt><trkpt lat="47.31979993166482" lon="-1.9325224450964609"><ele>2.5</ele><time>2026-03-22T08:52:02.963Z</time></trkpt><trkpt lat="47.319808046951124" lon="-1.9326203962934816"><ele>2.6666666666666665</ele><time>2026-03-22T08:52:03.963Z</time></trkpt><trkpt lat="47.31982131032029" lon="-1.9327157670787702"><ele>2.8333333333333335</ele><time>2026-03-22T08:52:04.963Z</time></trkpt><trkpt lat="47.319830937676194" lon="-1.9328118713416136"><ele>3.0</ele><time>2026-03-22T08:52:05.963Z</time></trkpt><trkpt lat="47.319842660406096" lon="-1.9329140898876238"><ele>3.0</ele><time>2026-03-22T08:52:06.963Z</time></trkpt><trkpt lat="47.31986643397585" lon="-1.933109993109042"><ele>3.0</ele><time>2026-03-22T08:52:08.963Z</time></trkpt><trkpt lat="47.31987885988861" lon="-1.93321371627965"><ele>3.0</ele><time>2026-03-22T08:52:09.963Z</time></trkpt><trkpt lat="47.31989118646677" lon="-1.9333110162773002"><ele>3.0</ele><time>2026-03-22T08:52:10.963Z</time></trkpt><trkpt lat="47.319904726969625" lon="-1.933409463547432"><ele>3.0</ele><time>2026-03-22T08:52:11.963Z</time></trkpt><trkpt lat="47.319916237833844" lon="-1.933506359078632"><ele>3.0</ele><time>2026-03-22T08:52:12.963Z</time></trkpt><trkpt lat="47.31992715659983" lon="-1.9336035041540904"><ele>3.0</ele><time>2026-03-22T08:52:13.963Z</time></trkpt><trkpt lat="47.31994060264115" lon="-1.933699460982718"><ele>3.0</ele><time>2026-03-22T08:52:14.963Z</time></trkpt><trkpt lat="47.31996206715215" lon="-1.9338748323437047"><ele>3.0</ele><time>2026-03-22T08:52:16.963Z</time></trkpt><trkpt lat="47.3199893035366" lon="-1.9340503729611611"><ele>3.0</ele><time>2026-03-22T08:52:18.963Z</time></trkpt><trkpt lat="47.31999859694453" lon="-1.9342281167890445"><ele>3.0</ele><time>2026-03-22T08:52:20.962Z</time></trkpt><trkpt lat="47.320014059285576" lon="-1.9343189085919734"><ele>3.2</ele><time>2026-03-22T08:52:21.962Z</time></trkpt><trkpt lat="47.32003661249582" lon="-1.9344893236980496"><ele>3.4</ele><time>2026-03-22T08:52:23.962Z</time></trkpt><trkpt lat="47.320056988452265" lon="-1.934666946431042"><ele>3.6000000000000005</ele><time>2026-03-22T08:52:25.962Z</time></trkpt><trkpt lat="47.320074867213584" lon="-1.9347572177137504"><ele>3.8000000000000003</ele><time>2026-03-22T08:52:26.962Z</time></trkpt><trkpt lat="47.32009032702521" lon="-1.9349376598210533"><ele>4.0</ele><time>2026-03-22T08:52:28.962Z</time></trkpt><trkpt lat="47.32011335342359" lon="-1.9351175784589343"><ele>4.25</ele><time>2026-03-22T08:52:30.962Z</time></trkpt><trkpt lat="47.32013151701127" lon="-1.9352939035745986"><ele>4.5</ele><time>2026-03-22T08:52:32.962Z</time></trkpt><trkpt lat="47.32015536737646" lon="-1.935456235349448"><ele>4.75</ele><time>2026-03-22T08:52:34.962Z</time></trkpt><trkpt lat="47.32017031586832" lon="-1.9356165133355818"><ele>5.0</ele><time>2026-03-22T08:52:36.962Z</time></trkpt><trkpt lat="47.32019314617733" lon="-1.9357725323401889"><ele>5.2</ele><time>2026-03-22T08:52:38.962Z</time></trkpt><trkpt lat="47.32020861143455" lon="-1.935928807902211"><ele>5.4</ele><time>2026-03-22T08:52:40.962Z</time></trkpt><trkpt lat="47.320224334825525" lon="-1.9360791442230132"><ele>5.6</ele><time>2026-03-22T08:52:42.962Z</time></trkpt><trkpt lat="47.32024122198998" lon="-1.9362348719569684"><ele>5.8</ele><time>2026-03-22T08:52:44.962Z</time></trkpt><trkpt lat="47.32025573106549" lon="-1.9363848684792484"><ele>6.0</ele><time>2026-03-22T08:52:46.962Z</time></trkpt><trkpt lat="47.32027479905529" lon="-1.9365508158712257"><ele>6.0</ele><time>2026-03-22T08:52:48.962Z</time></trkpt><trkpt lat="47.32029304540379" lon="-1.9366854524699457"><ele>6.0</ele><time>2026-03-22T08:52:50.962Z</time></trkpt><trkpt lat="47.32030520221691" lon="-1.9368407802457095"><ele>6.0</ele><time>2026-03-22T08:52:52.962Z</time></trkpt><trkpt lat="47.32032319981714" lon="-1.9369922782077482"><ele>6.0</ele><time>2026-03-22T08:52:54.962Z</time></trkpt><trkpt lat="47.320346882720216" lon="-1.9371451334230014"><ele>6.0</ele><time>2026-03-22T08:52:56.962Z</time></trkpt><trkpt lat="47.320363840168284" lon="-1.9372961894744378"><ele>6.6</ele><time>2026-03-22T08:52:58.962Z</time></trkpt><trkpt lat="47.32038329208742" lon="-1.937457760251015"><ele>7.199999999999999</ele><time>2026-03-22T08:53:00.961Z</time></trkpt><trkpt lat="47.320405101831874" lon="-1.937607767724102"><ele>7.800000000000001</ele><time>2026-03-22T08:53:02.96Z</time></trkpt><trkpt lat="47.32042379071544" lon="-1.9377692491292686"><ele>8.4</ele><time>2026-03-22T08:53:04.959Z</time></trkpt><trkpt lat="47.32044132339541" lon="-1.9379305622047285"><ele>9.0</ele><time>2026-03-22T08:53:06.959Z</time></trkpt><trkpt lat="47.320461013484355" lon="-1.9380910105779645"><ele>9.0</ele><time>2026-03-22T08:53:08.958Z</time></trkpt><trkpt lat="47.32046885788675" lon="-1.9382652461951961"><ele>9.0</ele><time>2026-03-22T08:53:10.957Z</time></trkpt><trkpt lat="47.32046637132483" lon="-1.93844033980219"><ele>9.0</ele><time>2026-03-22T08:53:12.957Z</time></trkpt><trkpt lat="47.320461730771726" lon="-1.938617982393105"><ele>9.0</ele><time>2026-03-22T08:53:14.956Z</time></trkpt><trkpt lat="47.32043123528204" lon="-1.938798830409046"><ele>8.857142857142858</ele><time>2026-03-22T08:53:16.956Z</time></trkpt><trkpt lat="47.32040776783755" lon="-1.9388880243663225"><ele>8.714285714285715</ele><time>2026-03-22T08:53:17.956Z</time></trkpt><trkpt lat="47.32038420420707" lon="-1.9389816380988418"><ele>8.571428571428571</ele><time>2026-03-22T08:53:18.955Z</time></trkpt><trkpt lat="47.320347626830205" lon="-1.9390702757334413"><ele>8.428571428571429</ele><time>2026-03-22T08:53:19.955Z</time></trkpt><trkpt lat="47.320314161572014" lon="-1.9391598902521694"><ele>8.285714285714285</ele><time>2026-03-22T08:53:20.955Z</time></trkpt><trkpt lat="47.32027481477357" lon="-1.9392463810744742"><ele>8.142857142857142</ele><time>2026-03-22T08:53:21.955Z</time></trkpt><trkpt lat="47.32023124788631" lon="-1.9393300777260116"><ele>8.0</ele><time>2026-03-22T08:53:22.955Z</time></trkpt><trkpt lat="47.32018700604623" lon="-1.9394097409046749"><ele>7.857142857142857</ele><time>2026-03-22T08:53:23.955Z</time></trkpt><trkpt lat="47.32013665751198" lon="-1.9394861612025582"><ele>7.7142857142857135</ele><time>2026-03-22T08:53:24.954Z</time></trkpt><trkpt lat="47.320087809348095" lon="-1.9395586275878003"><ele>7.571428571428571</ele><time>2026-03-22T08:53:25.954Z</time></trkpt><trkpt lat="47.320032271141315" lon="-1.9396325898018314"><ele>7.428571428571429</ele><time>2026-03-22T08:53:26.954Z</time></trkpt><trkpt lat="47.31997532090333" lon="-1.9396981040117476"><ele>7.285714285714286</ele><time>2026-03-22T08:53:27.954Z</time></trkpt><trkpt lat="47.31991792903941" lon="-1.9397688330197875"><ele>7.142857142857142</ele><time>2026-03-22T08:53:28.954Z</time></trkpt><trkpt lat="47.31985964702763" lon="-1.9398398039549494"><ele>7.0</ele><time>2026-03-22T08:53:29.954Z</time></trkpt><trkpt lat="47.31980064388807" lon="-1.9399064297792286"><ele>7.000000000000001</ele><time>2026-03-22T08:53:30.954Z</time></trkpt><trkpt lat="47.31974490385632" lon="-1.9399784426291387"><ele>7.0</ele><time>2026-03-22T08:53:31.954Z</time></trkpt><trkpt lat="47.31968996778142" lon="-1.9400466101846916"><ele>7.0</ele><time>2026-03-22T08:53:32.954Z</time></trkpt><trkpt lat="47.31963803511103" lon="-1.9401278023470447"><ele>7.0</ele><time>2026-03-22T08:53:33.954Z</time></trkpt><trkpt lat="47.31958012873715" lon="-1.9401995478761667"><ele>7.000000000000001</ele><time>2026-03-22T08:53:34.953Z</time></trkpt><trkpt lat="47.31952574900991" lon="-1.9402794805760522"><ele>7.0</ele><time>2026-03-22T08:53:35.953Z</time></trkpt><trkpt lat="47.319466799317595" lon="-1.9403514443331087"><ele>6.833333333333334</ele><time>2026-03-22T08:53:36.953Z</time></trkpt><trkpt lat="47.319404791674145" lon="-1.9404255084037976"><ele>6.666666666666667</ele><time>2026-03-22T08:53:37.954Z</time></trkpt><trkpt lat="47.319344373846384" lon="-1.9405031359274243"><ele>6.5</ele><time>2026-03-22T08:53:38.954Z</time></trkpt><trkpt lat="47.31928187838819" lon="-1.9405784220426348"><ele>6.333333333333334</ele><time>2026-03-22T08:53:39.954Z</time></trkpt><trkpt lat="47.31921827637196" lon="-1.9406484328631084"><ele>6.166666666666667</ele><time>2026-03-22T08:53:40.954Z</time></trkpt><trkpt lat="47.31915562995484" lon="-1.940723912802522"><ele>6.0</ele><time>2026-03-22T08:53:41.954Z</time></trkpt><trkpt lat="47.3190953594269" lon="-1.9408022925500747"><ele>6.0</ele><time>2026-03-22T08:53:42.954Z</time></trkpt><trkpt lat="47.3190351752458" lon="-1.940874713521645"><ele>6.0</ele><time>2026-03-22T08:53:43.953Z</time></trkpt><trkpt lat="47.31897515162802" lon="-1.9409449766488363"><ele>6.0</ele><time>2026-03-22T08:53:44.953Z</time></trkpt><trkpt lat="47.31891651460704" lon="-1.941013147379601"><ele>6.0</ele><time>2026-03-22T08:53:45.953Z</time></trkpt><trkpt lat="47.3188604462017" lon="-1.9410856108382413"><ele>6.0</ele><time>2026-03-22T08:53:46.953Z</time></trkpt><trkpt lat="47.31880538079847" lon="-1.9411627429709337"><ele>6.0</ele><time>2026-03-22T08:53:47.954Z</time></trkpt><trkpt lat="47.31875050421119" lon="-1.9412336381672421"><ele>6.0</ele><time>2026-03-22T08:53:48.953Z</time></trkpt><trkpt lat="47.31869488280945" lon="-1.9413006516973703"><ele>6.0</ele><time>2026-03-22T08:53:49.953Z</time></trkpt><trkpt lat="47.31863611738462" lon="-1.9413696103765956"><ele>6.0</ele><time>2026-03-22T08:53:50.953Z</time></trkpt><trkpt lat="47.31857803074838" lon="-1.9414454090767608"><ele>6.0</ele><time>2026-03-22T08:53:51.953Z</time></trkpt><trkpt lat="47.318516587071024" lon="-1.941518213048076"><ele>6.0</ele><time>2026-03-22T08:53:52.953Z</time></trkpt><trkpt lat="47.31845643584581" lon="-1.9415958906912125"><ele>6.0</ele><time>2026-03-22T08:53:53.953Z</time></trkpt><trkpt lat="47.318393871139904" lon="-1.9416755153092935"><ele>5.833333333333333</ele><time>2026-03-22T08:53:54.953Z</time></trkpt><trkpt lat="47.31833122609732" lon="-1.941754538040177"><ele>5.666666666666667</ele><time>2026-03-22T08:53:55.953Z</time></trkpt><trkpt lat="47.31826481339409" lon="-1.941829679304882"><ele>5.5</ele><time>2026-03-22T08:53:56.953Z</time></trkpt><trkpt lat="47.31819805633458" lon="-1.9419098091495022"><ele>5.333333333333334</ele><time>2026-03-22T08:53:57.953Z</time></trkpt><trkpt lat="47.31813375730942" lon="-1.941992020329985"><ele>5.166666666666667</ele><time>2026-03-22T08:53:58.953Z</time></trkpt><trkpt lat="47.3180687938267" lon="-1.9420779934031145"><ele>5.0</ele><time>2026-03-22T08:53:59.953Z</time></trkpt><trkpt lat="47.318003443790026" lon="-1.9421600207293803"><ele>5.0</ele><time>2026-03-22T08:54:00.953Z</time></trkpt><trkpt lat="47.317934518124886" lon="-1.9422388162418365"><ele>5.0</ele><time>2026-03-22T08:54:01.953Z</time></trkpt><trkpt lat="47.31786394482214" lon="-1.9423190808599256"><ele>5.0</ele><time>2026-03-22T08:54:02.953Z</time></trkpt><trkpt lat="47.317798363255065" lon="-1.9424031723694943"><ele>5.0</ele><time>2026-03-22T08:54:03.953Z</time></trkpt><trkpt lat="47.31773214550993" lon="-1.9424880224153482"><ele>5.0</ele><time>2026-03-22T08:54:04.953Z</time></trkpt><trkpt lat="47.31766570700955" lon="-1.9425752856688805"><ele>5.0</ele><time>2026-03-22T08:54:05.952Z</time></trkpt><trkpt lat="47.31760021680812" lon="-1.9426618150435415"><ele>5.0</ele><time>2026-03-22T08:54:06.952Z</time></trkpt><trkpt lat="47.31753724855067" lon="-1.9427526415930765"><ele>5.0</ele><time>2026-03-22T08:54:07.952Z</time></trkpt><trkpt lat="47.317472126287086" lon="-1.9428363868617815"><ele>5.0</ele><time>2026-03-22T08:54:08.952Z</time></trkpt><trkpt lat="47.31741029533754" lon="-1.9429286225468823"><ele>5.0</ele><time>2026-03-22T08:54:09.952Z</time></trkpt><trkpt lat="47.31735759490209" lon="-1.943034619054083"><ele>5.0</ele><time>2026-03-22T08:54:10.952Z</time></trkpt><trkpt lat="47.31730765553732" lon="-1.9431410174308112"><ele>5.0</ele><time>2026-03-22T08:54:11.952Z</time></trkpt><trkpt lat="47.31726357356938" lon="-1.9432499865794588"><ele>4.666666666666667</ele><time>2026-03-22T08:54:12.952Z</time></trkpt><trkpt lat="47.31722024257732" lon="-1.9433571449652547"><ele>4.333333333333334</ele><time>2026-03-22T08:54:13.952Z</time></trkpt><trkpt lat="47.31718162189111" lon="-1.9434659231372475"><ele>4.0</ele><time>2026-03-22T08:54:14.952Z</time></trkpt><trkpt lat="47.31714138293408" lon="-1.9435755093210887"><ele>3.666666666666667</ele><time>2026-03-22T08:54:15.952Z</time></trkpt><trkpt lat="47.317100081812086" lon="-1.9436821698116677"><ele>3.3333333333333335</ele><time>2026-03-22T08:54:16.952Z</time></trkpt><trkpt lat="47.31706280447964" lon="-1.9437907854787373"><ele>3.0</ele><time>2026-03-22T08:54:17.952Z</time></trkpt><trkpt lat="47.31702454015182" lon="-1.9438945338097289"><ele>3.0</ele><time>2026-03-22T08:54:18.952Z</time></trkpt><trkpt lat="47.31699301742078" lon="-1.944002280047606"><ele>3.0</ele><time>2026-03-22T08:54:19.952Z</time></trkpt><trkpt lat="47.31695846788782" lon="-1.9441055020822966"><ele>3.0</ele><time>2026-03-22T08:54:20.952Z</time></trkpt><trkpt lat="47.31691776474351" lon="-1.9442062021116993"><ele>3.0</ele><time>2026-03-22T08:54:21.952Z</time></trkpt><trkpt lat="47.31688450330334" lon="-1.9443121992179142"><ele>3.0</ele><time>2026-03-22T08:54:22.952Z</time></trkpt><trkpt lat="47.31684920490236" lon="-1.9444158868422372"><ele>3.0</ele><time>2026-03-22T08:54:23.952Z</time></trkpt><trkpt lat="47.31681867077548" lon="-1.9445201135425803"><ele>3.1428571428571423</ele><time>2026-03-22T08:54:24.952Z</time></trkpt><trkpt lat="47.31678537297076" lon="-1.9446243639735568"><ele>3.2857142857142856</ele><time>2026-03-22T08:54:25.952Z</time></trkpt><trkpt lat="47.31675125395077" lon="-1.944723070752553"><ele>3.4285714285714284</ele><time>2026-03-22T08:54:26.952Z</time></trkpt><trkpt lat="47.316716908272085" lon="-1.9448126822085259"><ele>3.571428571428571</ele><time>2026-03-22T08:54:27.952Z</time></trkpt><trkpt lat="47.31667958914027" lon="-1.9449100833857464"><ele>3.714285714285714</ele><time>2026-03-22T08:54:28.952Z</time></trkpt><trkpt lat="47.31664578439721" lon="-1.9450096014436071"><ele>3.8571428571428568</ele><time>2026-03-22T08:54:29.952Z</time></trkpt><trkpt lat="47.31661261473608" lon="-1.9451056384134089"><ele>4.0</ele><time>2026-03-22T08:54:30.952Z</time></trkpt><trkpt lat="47.3165791559231" lon="-1.9452041001658271"><ele>4.142857142857142</ele><time>2026-03-22T08:54:31.952Z</time></trkpt><trkpt lat="47.31654182729272" lon="-1.9452961255648378"><ele>4.285714285714286</ele><time>2026-03-22T08:54:32.952Z</time></trkpt><trkpt lat="47.31650901887505" lon="-1.9453918083130497"><ele>4.428571428571429</ele><time>2026-03-22T08:54:33.952Z</time></trkpt><trkpt lat="47.31647752103436" lon="-1.9454896666302235"><ele>4.571428571428571</ele><time>2026-03-22T08:54:34.952Z</time></trkpt><trkpt lat="47.316446880785186" lon="-1.9455872929223217"><ele>4.714285714285714</ele><time>2026-03-22T08:54:35.952Z</time></trkpt><trkpt lat="47.316416180207256" lon="-1.9456835855267325"><ele>4.857142857142857</ele><time>2026-03-22T08:54:36.952Z</time></trkpt><trkpt lat="47.31637869415821" lon="-1.9457741409733975"><ele>5.0</ele><time>2026-03-22T08:54:37.952Z</time></trkpt><trkpt lat="47.316345813078776" lon="-1.9458664754172075"><ele>5.142857142857142</ele><time>2026-03-22T08:54:38.952Z</time></trkpt><trkpt lat="47.31631000566099" lon="-1.9459508164286108"><ele>5.285714285714286</ele><time>2026-03-22T08:54:39.952Z</time></trkpt><trkpt lat="47.31626857087505" lon="-1.946034129538479"><ele>5.428571428571429</ele><time>2026-03-22T08:54:40.952Z</time></trkpt><trkpt lat="47.3162272369795" lon="-1.9461171434092008"><ele>5.571428571428571</ele><time>2026-03-22T08:54:41.952Z</time></trkpt><trkpt lat="47.31618025518651" lon="-1.9461944186741211"><ele>5.714285714285714</ele><time>2026-03-22T08:54:42.952Z</time></trkpt><trkpt lat="47.316131655373894" lon="-1.9462681196564617"><ele>5.857142857142857</ele><time>2026-03-22T08:54:43.952Z</time></trkpt><trkpt lat="47.3160808723476" lon="-1.946343719780206"><ele>6.0</ele><time>2026-03-22T08:54:44.952Z</time></trkpt><trkpt lat="47.31602919066467" lon="-1.9464167948190185"><ele>6.0</ele><time>2026-03-22T08:54:45.952Z</time></trkpt><trkpt lat="47.31597588447286" lon="-1.9464721316411693"><ele>6.0</ele><time>2026-03-22T08:54:46.952Z</time></trkpt><trkpt lat="47.315865471827514" lon="-1.9465779823847296"><ele>6.0</ele><time>2026-03-22T08:54:48.952Z</time></trkpt><trkpt lat="47.31575851449675" lon="-1.9466748771130218"><ele>6.0</ele><time>2026-03-22T08:54:50.952Z</time></trkpt><trkpt lat="47.31564798491384" lon="-1.9467642177415112"><ele>6.0</ele><time>2026-03-22T08:54:52.952Z</time></trkpt><trkpt lat="47.3155328737161" lon="-1.9468409199538486"><ele>6.199999999999999</ele><time>2026-03-22T08:54:54.952Z</time></trkpt><trkpt lat="47.315476242794034" lon="-1.9468864763262543"><ele>6.3999999999999995</ele><time>2026-03-22T08:54:55.952Z</time></trkpt><trkpt lat="47.3153642071715" lon="-1.9469653653659946"><ele>6.6</ele><time>2026-03-22T08:54:57.952Z</time></trkpt><trkpt lat="47.315256200713165" lon="-1.9470359623853428"><ele>6.8</ele><time>2026-03-22T08:54:59.952Z</time></trkpt><trkpt lat="47.315194392458004" lon="-1.947079669121205"><ele>7.0</ele><time>2026-03-22T08:55:00.952Z</time></trkpt><trkpt lat="47.315085161111945" lon="-1.9471564945314275"><ele>7.0</ele><time>2026-03-22T08:55:02.952Z</time></trkpt><trkpt lat="47.314974931896934" lon="-1.9472329686943788"><ele>7.0</ele><time>2026-03-22T08:55:04.951Z</time></trkpt><trkpt lat="47.31486740806925" lon="-1.9473043999955624"><ele>7.0</ele><time>2026-03-22T08:55:06.951Z</time></trkpt><trkpt lat="47.31475768134389" lon="-1.9473738844362953"><ele>7.0</ele><time>2026-03-22T08:55:08.951Z</time></trkpt><trkpt lat="47.31465492743161" lon="-1.947451710147895"><ele>7.199999999999999</ele><time>2026-03-22T08:55:10.951Z</time></trkpt><trkpt lat="47.3145442071254" lon="-1.9475191269928516"><ele>7.3999999999999995</ele><time>2026-03-22T08:55:12.951Z</time></trkpt><trkpt lat="47.314433793842156" lon="-1.947589610062035"><ele>7.6000000000000005</ele><time>2026-03-22T08:55:14.951Z</time></trkpt><trkpt lat="47.31432475254703" lon="-1.9476725951906866"><ele>7.800000000000001</ele><time>2026-03-22T08:55:16.951Z</time></trkpt><trkpt lat="47.314263966111206" lon="-1.947708949637208"><ele>8.0</ele><time>2026-03-22T08:55:17.951Z</time></trkpt><trkpt lat="47.314204869738525" lon="-1.9477425598761564"><ele>8.0</ele><time>2026-03-22T08:55:18.951Z</time></trkpt><trkpt lat="47.31409889374163" lon="-1.9478283402853764"><ele>8.0</ele><time>2026-03-22T08:55:20.951Z</time></trkpt><trkpt lat="47.314039118467484" lon="-1.9478712403808622"><ele>8.0</ele><time>2026-03-22T08:55:21.951Z</time></trkpt><trkpt lat="47.31392371003084" lon="-1.9479439911341156"><ele>8.0</ele><time>2026-03-22T08:55:23.951Z</time></trkpt><trkpt lat="47.313811802857934" lon="-1.9480275856944027"><ele>8.0</ele><time>2026-03-22T08:55:25.951Z</time></trkpt><trkpt lat="47.31369293383024" lon="-1.9481080538379587"><ele>8.0</ele><time>2026-03-22T08:55:27.951Z</time></trkpt><trkpt lat="47.31363671005316" lon="-1.9481532430555177"><ele>7.999999999999999</ele><time>2026-03-22T08:55:28.951Z</time></trkpt><trkpt lat="47.313577520936676" lon="-1.9481892138371557"><ele>8.0</ele><time>2026-03-22T08:55:29.951Z</time></trkpt><trkpt lat="47.313522644054096" lon="-1.9482419033993277"><ele>8.0</ele><time>2026-03-22T08:55:30.951Z</time></trkpt><trkpt lat="47.31346239073221" lon="-1.948286883122819"><ele>7.999999999999999</ele><time>2026-03-22T08:55:31.951Z</time></trkpt><trkpt lat="47.31340132256655" lon="-1.9483260675743208"><ele>8.0</ele><time>2026-03-22T08:55:32.951Z</time></trkpt><trkpt lat="47.31334318427194" lon="-1.9483709433754788"><ele>8.0</ele><time>2026-03-22T08:55:33.951Z</time></trkpt><trkpt lat="47.31328290769614" lon="-1.9484046587625847"><ele>8.0</ele><time>2026-03-22T08:55:34.951Z</time></trkpt><trkpt lat="47.31322121355132" lon="-1.9484393636226056"><ele>7.999999999999999</ele><time>2026-03-22T08:55:35.951Z</time></trkpt><trkpt lat="47.31315417144617" lon="-1.948480033156619"><ele>8.0</ele><time>2026-03-22T08:55:36.951Z</time></trkpt><trkpt lat="47.313089865558275" lon="-1.9485311003089403"><ele>8.0</ele><time>2026-03-22T08:55:37.951Z</time></trkpt><trkpt lat="47.313026353227635" lon="-1.9485791483742967"><ele>7.999999999999999</ele><time>2026-03-22T08:55:38.951Z</time></trkpt><trkpt lat="47.31296050836597" lon="-1.9486277640544398"><ele>8.0</ele><time>2026-03-22T08:55:39.951Z</time></trkpt><trkpt lat="47.312896188204135" lon="-1.9486732529954272"><ele>8.0</ele><time>2026-03-22T08:55:40.951Z</time></trkpt><trkpt lat="47.31283018566975" lon="-1.948722504218434"><ele>8.0</ele><time>2026-03-22T08:55:41.951Z</time></trkpt><trkpt lat="47.31276479317345" lon="-1.948767937216404"><ele>7.999999999999999</ele><time>2026-03-22T08:55:42.951Z</time></trkpt><trkpt lat="47.31270147042606" lon="-1.9488164278709983"><ele>8.0</ele><time>2026-03-22T08:55:43.952Z</time></trkpt><trkpt lat="47.3126399144649" lon="-1.948871654022097"><ele>8.0</ele><time>2026-03-22T08:55:44.951Z</time></trkpt><trkpt lat="47.31257114943529" lon="-1.9489226432260123"><ele>7.999999999999999</ele><time>2026-03-22T08:55:45.951Z</time></trkpt><trkpt lat="47.312509074543044" lon="-1.9489783801432135"><ele>8.0</ele><time>2026-03-22T08:55:46.952Z</time></trkpt><trkpt lat="47.312444664331" lon="-1.949015311506206"><ele>8.0</ele><time>2026-03-22T08:55:47.952Z</time></trkpt><trkpt lat="47.312378201214784" lon="-1.9490617603011866"><ele>8.0</ele><time>2026-03-22T08:55:48.952Z</time></trkpt><trkpt lat="47.31231477358685" lon="-1.9491141374150835"><ele>7.999999999999999</ele><time>2026-03-22T08:55:49.952Z</time></trkpt><trkpt lat="47.31224789767528" lon="-1.9491559089210995"><ele>8.0</ele><time>2026-03-22T08:55:50.952Z</time></trkpt><trkpt lat="47.312176642537985" lon="-1.949210454678531"><ele>8.0</ele><time>2026-03-22T08:55:51.952Z</time></trkpt><trkpt lat="47.312112357726136" lon="-1.9492553530366377"><ele>7.999999999999999</ele><time>2026-03-22T08:55:52.952Z</time></trkpt><trkpt lat="47.31204857238733" lon="-1.949299846800036"><ele>8.0</ele><time>2026-03-22T08:55:53.952Z</time></trkpt><trkpt lat="47.3119787026258" lon="-1.9493503494010918"><ele>8.0</ele><time>2026-03-22T08:55:54.952Z</time></trkpt><trkpt lat="47.31191197236102" lon="-1.9493980637226558"><ele>7.7142857142857135</ele><time>2026-03-22T08:55:55.952Z</time></trkpt><trkpt lat="47.31184546772324" lon="-1.9494437109630596"><ele>7.428571428571428</ele><time>2026-03-22T08:55:56.952Z</time></trkpt><trkpt lat="47.311783706266525" lon="-1.9494843660667784"><ele>7.142857142857142</ele><time>2026-03-22T08:55:57.952Z</time></trkpt><trkpt lat="47.31171674040675" lon="-1.9495390380102493"><ele>6.857142857142857</ele><time>2026-03-22T08:55:58.952Z</time></trkpt><trkpt lat="47.311651968583604" lon="-1.949592783214215"><ele>6.571428571428571</ele><time>2026-03-22T08:55:59.952Z</time></trkpt><trkpt lat="47.31158969743935" lon="-1.9496530003693073"><ele>6.285714285714285</ele><time>2026-03-22T08:56:00.952Z</time></trkpt><trkpt lat="47.31153155855166" lon="-1.949729366038234"><ele>6.0</ele><time>2026-03-22T08:56:01.952Z</time></trkpt><trkpt lat="47.31147615494433" lon="-1.9498000878427437"><ele>6.0</ele><time>2026-03-22T08:56:02.952Z</time></trkpt><trkpt lat="47.31142677013777" lon="-1.949893159049831"><ele>6.0</ele><time>2026-03-22T08:56:03.952Z</time></trkpt><trkpt lat="47.31138796239682" lon="-1.9499968564385544"><ele>6.0</ele><time>2026-03-22T08:56:04.952Z</time></trkpt><trkpt lat="47.311359498098476" lon="-1.950113097218757"><ele>6.0</ele><time>2026-03-22T08:56:05.952Z</time></trkpt><trkpt lat="47.31133760456799" lon="-1.950233637205329"><ele>6.0</ele><time>2026-03-22T08:56:06.952Z</time></trkpt><trkpt lat="47.31133039729245" lon="-1.9503626882973508"><ele>6.0</ele><time>2026-03-22T08:56:07.952Z</time></trkpt><trkpt lat="47.3113300100073" lon="-1.9504890677501443"><ele>6.0</ele><time>2026-03-22T08:56:08.952Z</time></trkpt><trkpt lat="47.31133099215604" lon="-1.950615179574236"><ele>6.0</ele><time>2026-03-22T08:56:09.952Z</time></trkpt><trkpt lat="47.311333925243716" lon="-1.9507425194852506"><ele>6.0</ele><time>2026-03-22T08:56:10.952Z</time></trkpt><trkpt lat="47.311335766440976" lon="-1.950871027283096"><ele>6.0</ele><time>2026-03-22T08:56:11.951Z</time></trkpt><trkpt lat="47.311338492417875" lon="-1.9510008935130252"><ele>6.0</ele><time>2026-03-22T08:56:12.951Z</time></trkpt><trkpt lat="47.31134375260801" lon="-1.951123250603168"><ele>6.0</ele><time>2026-03-22T08:56:13.951Z</time></trkpt><trkpt lat="47.31134796800306" lon="-1.9512516353526823"><ele>5.666666666666667</ele><time>2026-03-22T08:56:14.951Z</time></trkpt><trkpt lat="47.31135308687636" lon="-1.9513817980350694"><ele>5.333333333333333</ele><time>2026-03-22T08:56:15.951Z</time></trkpt><trkpt lat="47.31134557665319" lon="-1.95151573669178"><ele>5.0</ele><time>2026-03-22T08:56:16.951Z</time></trkpt><trkpt lat="47.311354347389525" lon="-1.9516409665418923"><ele>4.666666666666666</ele><time>2026-03-22T08:56:17.951Z</time></trkpt><trkpt lat="47.311360759069274" lon="-1.951771056388527"><ele>4.333333333333333</ele><time>2026-03-22T08:56:18.951Z</time></trkpt><trkpt lat="47.311361851650936" lon="-1.9518952411884565"><ele>4.0</ele><time>2026-03-22T08:56:19.951Z</time></trkpt><trkpt lat="47.311365447876874" lon="-1.9520249395858411"><ele>3.6666666666666665</ele><time>2026-03-22T08:56:20.951Z</time></trkpt><trkpt lat="47.31136780298445" lon="-1.952151378547029"><ele>3.333333333333333</ele><time>2026-03-22T08:56:21.951Z</time></trkpt><trkpt lat="47.31137108398297" lon="-1.9522765056123454"><ele>3.0</ele><time>2026-03-22T08:56:22.951Z</time></trkpt><trkpt lat="47.311369637019055" lon="-1.9523949426734575"><ele>2.6666666666666665</ele><time>2026-03-22T08:56:23.951Z</time></trkpt><trkpt lat="47.31137012167868" lon="-1.952521123826572"><ele>2.333333333333333</ele><time>2026-03-22T08:56:24.951Z</time></trkpt><trkpt lat="47.31137590102595" lon="-1.952629461867944"><ele>2.0</ele><time>2026-03-22T08:56:25.951Z</time></trkpt><trkpt lat="47.31137597136902" lon="-1.952748876303135"><ele>1.9999999999999998</ele><time>2026-03-22T08:56:26.951Z</time></trkpt><trkpt lat="47.311377208972885" lon="-1.9528631696367358"><ele>2.0</ele><time>2026-03-22T08:56:27.951Z</time></trkpt><trkpt lat="47.31138162559284" lon="-1.9529813761787704"><ele>2.0</ele><time>2026-03-22T08:56:28.951Z</time></trkpt><trkpt lat="47.31138500143593" lon="-1.9530916115214507"><ele>2.0</ele><time>2026-03-22T08:56:29.951Z</time></trkpt><trkpt lat="47.31139135549852" lon="-1.9532045298508989"><ele>1.9999999999999998</ele><time>2026-03-22T08:56:30.951Z</time></trkpt><trkpt lat="47.31138922721449" lon="-1.9533197441051848"><ele>2.0</ele><time>2026-03-22T08:56:31.951Z</time></trkpt><trkpt lat="47.3113956912091" lon="-1.9534251509014446"><ele>2.0</ele><time>2026-03-22T08:56:32.951Z</time></trkpt><trkpt lat="47.31139451928304" lon="-1.9535273247860858"><ele>1.9999999999999998</ele><time>2026-03-22T08:56:33.951Z</time></trkpt><trkpt lat="47.3113911184013" lon="-1.953634789210432"><ele>2.0</ele><time>2026-03-22T08:56:34.951Z</time></trkpt><trkpt lat="47.311392561798655" lon="-1.9537476690004982"><ele>2.0</ele><time>2026-03-22T08:56:35.951Z</time></trkpt><trkpt lat="47.31138879489425" lon="-1.9538571813155419"><ele>1.9999999999999998</ele><time>2026-03-22T08:56:36.951Z</time></trkpt><trkpt lat="47.31138606007006" lon="-1.95396560207251"><ele>2.0</ele><time>2026-03-22T08:56:37.951Z</time></trkpt><trkpt lat="47.31138248620878" lon="-1.9540776895740817"><ele>2.0</ele><time>2026-03-22T08:56:38.951Z</time></trkpt><trkpt lat="47.311382998038674" lon="-1.9541899755915804"><ele>2.142857142857143</ele><time>2026-03-22T08:56:39.951Z</time></trkpt><trkpt lat="47.31138003964985" lon="-1.9543024701897138"><ele>2.2857142857142856</ele><time>2026-03-22T08:56:40.951Z</time></trkpt><trkpt lat="47.31137423838867" lon="-1.9544095945072397"><ele>2.4285714285714284</ele><time>2026-03-22T08:56:41.951Z</time></trkpt><trkpt lat="47.31137370002559" lon="-1.9545189155078724"><ele>2.571428571428571</ele><time>2026-03-22T08:56:42.951Z</time></trkpt><trkpt lat="47.311367520383506" lon="-1.95462833119008"><ele>2.7142857142857144</ele><time>2026-03-22T08:56:43.951Z</time></trkpt><trkpt lat="47.31136552032245" lon="-1.9547384181809764"><ele>2.8571428571428568</ele><time>2026-03-22T08:56:44.951Z</time></trkpt><trkpt lat="47.31136131883174" lon="-1.9548378898566674"><ele>3.0</ele><time>2026-03-22T08:56:45.951Z</time></trkpt><trkpt lat="47.31135872532936" lon="-1.9549430535492385"><ele>2.9999999999999996</ele><time>2026-03-22T08:56:46.951Z</time></trkpt><trkpt lat="47.311353976838774" lon="-1.9550432283122958"><ele>3.0</ele><time>2026-03-22T08:56:47.951Z</time></trkpt><trkpt lat="47.31134893745809" lon="-1.955149827920834"><ele>3.0</ele><time>2026-03-22T08:56:48.951Z</time></trkpt><trkpt lat="47.31134022917164" lon="-1.955250656802974"><ele>3.0</ele><time>2026-03-22T08:56:49.951Z</time></trkpt><trkpt lat="47.3113343093226" lon="-1.9553551448542865"><ele>3.0</ele><time>2026-03-22T08:56:50.951Z</time></trkpt><trkpt lat="47.31133025178233" lon="-1.9554602125899276"><ele>2.9999999999999996</ele><time>2026-03-22T08:56:51.951Z</time></trkpt><trkpt lat="47.31133093187368" lon="-1.9555629406189103"><ele>3.0</ele><time>2026-03-22T08:56:52.951Z</time></trkpt><trkpt lat="47.31132629322019" lon="-1.9556610676755137"><ele>2.9999999999999996</ele><time>2026-03-22T08:56:53.951Z</time></trkpt><trkpt lat="47.3113201712023" lon="-1.9557609091955164"><ele>3.0</ele><time>2026-03-22T08:56:54.951Z</time></trkpt><trkpt lat="47.311313922574065" lon="-1.9558641571678845"><ele>3.0</ele><time>2026-03-22T08:56:55.951Z</time></trkpt><trkpt lat="47.31130941452116" lon="-1.9559693653386963"><ele>3.0</ele><time>2026-03-22T08:56:56.951Z</time></trkpt><trkpt lat="47.31130545718922" lon="-1.9560727432639995"><ele>3.0</ele><time>2026-03-22T08:56:57.951Z</time></trkpt><trkpt lat="47.31130027362071" lon="-1.9561743098865705"><ele>2.9999999999999996</ele><time>2026-03-22T08:56:58.951Z</time></trkpt><trkpt lat="47.31129578892726" lon="-1.9562774214222682"><ele>3.0</ele><time>2026-03-22T08:56:59.951Z</time></trkpt><trkpt lat="47.31128995822659" lon="-1.9563768251688267"><ele>2.9999999999999996</ele><time>2026-03-22T08:57:00.951Z</time></trkpt><trkpt lat="47.31128420620647" lon="-1.9564769475725419"><ele>3.0</ele><time>2026-03-22T08:57:01.951Z</time></trkpt><trkpt lat="47.311285491526995" lon="-1.9565838514132523"><ele>3.0</ele><time>2026-03-22T08:57:02.951Z</time></trkpt><trkpt lat="47.31127650254978" lon="-1.9566833770394878"><ele>3.0</ele><time>2026-03-22T08:57:03.951Z</time></trkpt><trkpt lat="47.311272900173805" lon="-1.956785245300443"><ele>3.0</ele><time>2026-03-22T08:57:04.951Z</time></trkpt><trkpt lat="47.3112709908893" lon="-1.956887403723839"><ele>2.9999999999999996</ele><time>2026-03-22T08:57:05.951Z</time></trkpt><trkpt lat="47.311267173199255" lon="-1.956982172485407"><ele>3.0</ele><time>2026-03-22T08:57:06.951Z</time></trkpt><trkpt lat="47.31126158904855" lon="-1.9570842948956888"><ele>2.8571428571428568</ele><time>2026-03-22T08:57:07.951Z</time></trkpt><trkpt lat="47.31125867881015" lon="-1.9571847432945277"><ele>2.7142857142857144</ele><time>2026-03-22T08:57:08.951Z</time></trkpt><trkpt lat="47.31125360227827" lon="-1.9572843685229706"><ele>2.571428571428571</ele><time>2026-03-22T08:57:09.951Z</time></trkpt><trkpt lat="47.31124951124213" lon="-1.9573849694658234"><ele>2.4285714285714284</ele><time>2026-03-22T08:57:10.951Z</time></trkpt><trkpt lat="47.311243257940625" lon="-1.9574784455426115"><ele>2.2857142857142856</ele><time>2026-03-22T08:57:11.951Z</time></trkpt><trkpt lat="47.311238840944505" lon="-1.9575734061915995"><ele>2.142857142857143</ele><time>2026-03-22T08:57:12.951Z</time></trkpt><trkpt lat="47.311236506548475" lon="-1.9576758373667789"><ele>2.0</ele><time>2026-03-22T08:57:13.951Z</time></trkpt><trkpt lat="47.3112319348875" lon="-1.9577770305683952"><ele>2.0</ele><time>2026-03-22T08:57:14.951Z</time></trkpt><trkpt lat="47.31122718084855" lon="-1.9578751531907235"><ele>1.9999999999999998</ele><time>2026-03-22T08:57:15.951Z</time></trkpt><trkpt lat="47.31122157243693" lon="-1.9579748749758052"><ele>2.0</ele><time>2026-03-22T08:57:16.951Z</time></trkpt><trkpt lat="47.31121730302892" lon="-1.958069372446243"><ele>2.0</ele><time>2026-03-22T08:57:17.95Z</time></trkpt><trkpt lat="47.31121994007853" lon="-1.9581732569317043"><ele>1.9999999999999998</ele><time>2026-03-22T08:57:18.95Z</time></trkpt><trkpt lat="47.31120931161391" lon="-1.9582653106779568"><ele>2.0</ele><time>2026-03-22T08:57:19.95Z</time></trkpt><trkpt lat="47.31120354496566" lon="-1.9583644883007778"><ele>2.0</ele><time>2026-03-22T08:57:20.95Z</time></trkpt><trkpt lat="47.311197908524846" lon="-1.9584618060652264"><ele>2.0</ele><time>2026-03-22T08:57:21.95Z</time></trkpt><trkpt lat="47.3111952005029" lon="-1.9585595097848933"><ele>2.0</ele><time>2026-03-22T08:57:22.95Z</time></trkpt><trkpt lat="47.31119071738751" lon="-1.9586545849494639"><ele>2.0</ele><time>2026-03-22T08:57:23.95Z</time></trkpt><trkpt lat="47.311176690049095" lon="-1.9588433044699465"><ele>2.0</ele><time>2026-03-22T08:57:25.95Z</time></trkpt><trkpt lat="47.31117216384536" lon="-1.9589404160370507"><ele>2.0</ele><time>2026-03-22T08:57:26.95Z</time></trkpt><trkpt lat="47.31115400801612" lon="-1.9591224743369062"><ele>2.1666666666666665</ele><time>2026-03-22T08:57:28.95Z</time></trkpt><trkpt lat="47.31114796498583" lon="-1.959221723713285"><ele>2.333333333333333</ele><time>2026-03-22T08:57:29.95Z</time></trkpt><trkpt lat="47.31113950316003" lon="-1.9594146443474698"><ele>2.5</ele><time>2026-03-22T08:57:31.95Z</time></trkpt><trkpt lat="47.31112940491058" lon="-1.9595100532099419"><ele>2.6666666666666665</ele><time>2026-03-22T08:57:32.95Z</time></trkpt><trkpt lat="47.311123173721846" lon="-1.9596043732038555"><ele>2.8333333333333335</ele><time>2026-03-22T08:57:33.95Z</time></trkpt><trkpt lat="47.3111152228235" lon="-1.9596996714568093"><ele>3.0</ele><time>2026-03-22T08:57:34.95Z</time></trkpt><trkpt lat="47.31110319776621" lon="-1.9597992677261329"><ele>2.9999999999999996</ele><time>2026-03-22T08:57:35.95Z</time></trkpt><trkpt lat="47.31108943571471" lon="-1.959893696934997"><ele>3.0</ele><time>2026-03-22T08:57:36.95Z</time></trkpt><trkpt lat="47.31108491703267" lon="-1.959994863037864"><ele>3.0</ele><time>2026-03-22T08:57:37.95Z</time></trkpt><trkpt lat="47.3110761373808" lon="-1.9600877836236286"><ele>3.0</ele><time>2026-03-22T08:57:38.95Z</time></trkpt><trkpt lat="47.31106345939904" lon="-1.9601903512687133"><ele>3.0</ele><time>2026-03-22T08:57:39.95Z</time></trkpt><trkpt lat="47.31105789999842" lon="-1.9602828713684866"><ele>2.9999999999999996</ele><time>2026-03-22T08:57:40.95Z</time></trkpt><trkpt lat="47.311048375947685" lon="-1.960379423879576"><ele>3.0</ele><time>2026-03-22T08:57:41.95Z</time></trkpt><trkpt lat="47.31104258576535" lon="-1.9604828831003402"><ele>2.9999999999999996</ele><time>2026-03-22T08:57:42.95Z</time></trkpt><trkpt lat="47.31102847672228" lon="-1.9605734397032122"><ele>3.0</ele><time>2026-03-22T08:57:43.95Z</time></trkpt><trkpt lat="47.31102190614791" lon="-1.9606728361926562"><ele>3.0</ele><time>2026-03-22T08:57:44.95Z</time></trkpt><trkpt lat="47.311013355250886" lon="-1.9607734446790286"><ele>3.0</ele><time>2026-03-22T08:57:45.95Z</time></trkpt><trkpt lat="47.311002941194765" lon="-1.960876684177008"><ele>3.0</ele><time>2026-03-22T08:57:46.95Z</time></trkpt><trkpt lat="47.310996590879085" lon="-1.960976675740965"><ele>2.9999999999999996</ele><time>2026-03-22T08:57:47.95Z</time></trkpt><trkpt lat="47.3109911719499" lon="-1.9610812733442846"><ele>3.0</ele><time>2026-03-22T08:57:48.95Z</time></trkpt><trkpt lat="47.31098198758622" lon="-1.9611779201418058"><ele>2.9999999999999996</ele><time>2026-03-22T08:57:49.951Z</time></trkpt><trkpt lat="47.3109695477189" lon="-1.961275495963812"><ele>3.0</ele><time>2026-03-22T08:57:50.951Z</time></trkpt><trkpt lat="47.310957740227835" lon="-1.961370626298455"><ele>3.0</ele><time>2026-03-22T08:57:51.951Z</time></trkpt><trkpt lat="47.31094887217154" lon="-1.9614718746440192"><ele>3.0</ele><time>2026-03-22T08:57:52.951Z</time></trkpt><trkpt lat="47.31094007204159" lon="-1.961571912372429"><ele>3.0</ele><time>2026-03-22T08:57:53.951Z</time></trkpt><trkpt lat="47.31092799653271" lon="-1.9616698442401879"><ele>2.9999999999999996</ele><time>2026-03-22T08:57:54.951Z</time></trkpt><trkpt lat="47.31092220574082" lon="-1.961769173285456"><ele>3.0</ele><time>2026-03-22T08:57:55.95Z</time></trkpt><trkpt lat="47.31091328718019" lon="-1.9618691852950376"><ele>3.0</ele><time>2026-03-22T08:57:56.95Z</time></trkpt><trkpt lat="47.3109029819157" lon="-1.961963802645247"><ele>3.0</ele><time>2026-03-22T08:57:57.95Z</time></trkpt><trkpt lat="47.31089376407045" lon="-1.9620643552105472"><ele>3.0</ele><time>2026-03-22T08:57:58.95Z</time></trkpt><trkpt lat="47.31088453573214" lon="-1.9621637001511418"><ele>3.0</ele><time>2026-03-22T08:57:59.951Z</time></trkpt><trkpt lat="47.310877197288185" lon="-1.962268233089401"><ele>3.0</ele><time>2026-03-22T08:58:00.951Z</time></trkpt><trkpt lat="47.31086984618461" lon="-1.9623696701376117"><ele>3.0</ele><time>2026-03-22T08:58:01.951Z</time></trkpt><trkpt lat="47.3108503508588" lon="-1.9625603477889446"><ele>3.1666666666666665</ele><time>2026-03-22T08:58:03.95Z</time></trkpt><trkpt lat="47.310834499033945" lon="-1.9627330111065389"><ele>3.333333333333333</ele><time>2026-03-22T08:58:05.95Z</time></trkpt><trkpt lat="47.31082632419261" lon="-1.9628354473234961"><ele>3.5</ele><time>2026-03-22T08:58:06.95Z</time></trkpt><trkpt lat="47.31081800565749" lon="-1.96294020652765"><ele>3.6666666666666665</ele><time>2026-03-22T08:58:07.95Z</time></trkpt><trkpt lat="47.31080963133444" lon="-1.9630400466996811"><ele>3.833333333333333</ele><time>2026-03-22T08:58:08.95Z</time></trkpt><trkpt lat="47.31079899835239" lon="-1.9631364779134302"><ele>4.0</ele><time>2026-03-22T08:58:09.95Z</time></trkpt><trkpt lat="47.31079015810658" lon="-1.9632350600501745"><ele>4.25</ele><time>2026-03-22T08:58:10.95Z</time></trkpt><trkpt lat="47.31077318637463" lon="-1.9634099868255641"><ele>4.5</ele><time>2026-03-22T08:58:12.95Z</time></trkpt><trkpt lat="47.310752884593505" lon="-1.9635678083028252"><ele>4.75</ele><time>2026-03-22T08:58:14.95Z</time></trkpt><trkpt lat="47.310716605728345" lon="-1.9637302077878966"><ele>5.0</ele><time>2026-03-22T08:58:16.95Z</time></trkpt><trkpt lat="47.310693994625204" lon="-1.9639068450657766"><ele>5.0</ele><time>2026-03-22T08:58:18.95Z</time></trkpt><trkpt lat="47.310671433878476" lon="-1.964073416713576"><ele>5.0</ele><time>2026-03-22T08:58:20.95Z</time></trkpt><trkpt lat="47.31064925425151" lon="-1.9642322296277224"><ele>5.0</ele><time>2026-03-22T08:58:22.95Z</time></trkpt><trkpt lat="47.31063176899792" lon="-1.964378746798243"><ele>5.0</ele><time>2026-03-22T08:58:24.95Z</time></trkpt><trkpt lat="47.31060426256819" lon="-1.964510628544264"><ele>5.0</ele><time>2026-03-22T08:58:26.95Z</time></trkpt><trkpt lat="47.3105777324816" lon="-1.9646355361601984"><ele>5.166666666666667</ele><time>2026-03-22T08:58:28.95Z</time></trkpt><trkpt lat="47.310549094725175" lon="-1.9647573253047301"><ele>5.333333333333334</ele><time>2026-03-22T08:58:30.95Z</time></trkpt><trkpt lat="47.31053184047046" lon="-1.9648570036391084"><ele>5.5</ele><time>2026-03-22T08:58:32.95Z</time></trkpt><trkpt lat="47.310517425268976" lon="-1.9649927351865306"><ele>5.666666666666667</ele><time>2026-03-22T08:58:35.95Z</time></trkpt><trkpt lat="47.31053730656921" lon="-1.965096505561633"><ele>5.833333333333333</ele><time>2026-03-22T08:58:37.95Z</time></trkpt><trkpt lat="47.31059979321629" lon="-1.965151186566468"><ele>6.0</ele><time>2026-03-22T08:58:39.95Z</time></trkpt><trkpt lat="47.31067490343218" lon="-1.9651697776788153"><ele>6.333333333333333</ele><time>2026-03-22T08:58:41.95Z</time></trkpt><trkpt lat="47.310750387737514" lon="-1.9651878039055672"><ele>6.666666666666666</ele><time>2026-03-22T08:58:43.95Z</time></trkpt><trkpt lat="47.31082797908894" lon="-1.9652065942349"><ele>7.0</ele><time>2026-03-22T08:58:45.95Z</time></trkpt><trkpt lat="47.31090810016203" lon="-1.965238507987132"><ele>7.333333333333333</ele><time>2026-03-22T08:58:47.95Z</time></trkpt><trkpt lat="47.310991150171944" lon="-1.9652660996230233"><ele>7.666666666666666</ele><time>2026-03-22T08:58:49.95Z</time></trkpt><trkpt lat="47.31108167164855" lon="-1.9652909888688728"><ele>8.0</ele><time>2026-03-22T08:58:51.95Z</time></trkpt><trkpt lat="47.31117154699359" lon="-1.965328635652309"><ele>8.0</ele><time>2026-03-22T08:58:53.95Z</time></trkpt><trkpt lat="47.31126350310256" lon="-1.965358753651731"><ele>8.0</ele><time>2026-03-22T08:58:55.949Z</time></trkpt><trkpt lat="47.3113637820151" lon="-1.9653869659335301"><ele>8.0</ele><time>2026-03-22T08:58:57.949Z</time></trkpt><trkpt lat="47.31145609624554" lon="-1.9654221615713543"><ele>8.0</ele><time>2026-03-22T08:58:59.949Z</time></trkpt><trkpt lat="47.31155232297036" lon="-1.9654601600749748"><ele>8.0</ele><time>2026-03-22T08:59:01.949Z</time></trkpt><trkpt lat="47.31166048436406" lon="-1.9654879000358423"><ele>8.4</ele><time>2026-03-22T08:59:03.949Z</time></trkpt><trkpt lat="47.311762613259575" lon="-1.9655310433787394"><ele>8.8</ele><time>2026-03-22T08:59:05.949Z</time></trkpt><trkpt lat="47.31186802531908" lon="-1.9655665340764576"><ele>9.2</ele><time>2026-03-22T08:59:07.949Z</time></trkpt><trkpt lat="47.31197280912769" lon="-1.9656063774287973"><ele>9.6</ele><time>2026-03-22T08:59:09.949Z</time></trkpt><trkpt lat="47.31207781323753" lon="-1.96563693963448"><ele>10.0</ele><time>2026-03-22T08:59:11.949Z</time></trkpt><trkpt lat="47.312182183669044" lon="-1.965675772772813"><ele>10.0</ele><time>2026-03-22T08:59:13.949Z</time></trkpt><trkpt lat="47.312288573418016" lon="-1.9657114993036062"><ele>10.0</ele><time>2026-03-22T08:59:15.949Z</time></trkpt><trkpt lat="47.312396091647955" lon="-1.9657410270772424"><ele>10.0</ele><time>2026-03-22T08:59:17.949Z</time></trkpt><trkpt lat="47.31249366895826" lon="-1.9657876338902152"><ele>10.0</ele><time>2026-03-22T08:59:19.949Z</time></trkpt><trkpt lat="47.31259796867131" lon="-1.9658228855840083"><ele>10.0</ele><time>2026-03-22T08:59:21.949Z</time></trkpt><trkpt lat="47.31270640115456" lon="-1.9658578573799488"><ele>9.75</ele><time>2026-03-22T08:59:23.949Z</time></trkpt><trkpt lat="47.31281604056871" lon="-1.9658934584872396"><ele>9.5</ele><time>2026-03-22T08:59:25.949Z</time></trkpt><trkpt lat="47.312927050440635" lon="-1.9659319368265447"><ele>9.25</ele><time>2026-03-22T08:59:27.949Z</time></trkpt><trkpt lat="47.31303845475077" lon="-1.965975630524439"><ele>9.0</ele><time>2026-03-22T08:59:29.949Z</time></trkpt><trkpt lat="47.31315502692114" lon="-1.9660124461418842"><ele>9.0</ele><time>2026-03-22T08:59:31.949Z</time></trkpt><trkpt lat="47.31326963330498" lon="-1.9660572606582052"><ele>9.0</ele><time>2026-03-22T08:59:33.949Z</time></trkpt><trkpt lat="47.313333142906664" lon="-1.9660752928026042"><ele>9.0</ele><time>2026-03-22T08:59:34.949Z</time></trkpt><trkpt lat="47.31344025808617" lon="-1.9661251683518313"><ele>9.0</ele><time>2026-03-22T08:59:36.949Z</time></trkpt><trkpt lat="47.31356034126226" lon="-1.9661682065910837"><ele>9.0</ele><time>2026-03-22T08:59:38.949Z</time></trkpt><trkpt lat="47.31362352735976" lon="-1.9661942469660978"><ele>9.0</ele><time>2026-03-22T08:59:39.949Z</time></trkpt><trkpt lat="47.31369002940772" lon="-1.9662115539360079"><ele>9.0</ele><time>2026-03-22T08:59:40.949Z</time></trkpt><trkpt lat="47.31375636268619" lon="-1.9662222256303525"><ele>9.0</ele><time>2026-03-22T08:59:41.949Z</time></trkpt><trkpt lat="47.31381973024705" lon="-1.9662479966932824"><ele>9.0</ele><time>2026-03-22T08:59:42.949Z</time></trkpt><trkpt lat="47.31394492724065" lon="-1.9663004363717507"><ele>9.0</ele><time>2026-03-22T08:59:44.949Z</time></trkpt><trkpt lat="47.314015982467915" lon="-1.966324030632814"><ele>9.0</ele><time>2026-03-22T08:59:45.949Z</time></trkpt><trkpt lat="47.31414232328099" lon="-1.9663583199357872"><ele>9.0</ele><time>2026-03-22T08:59:47.949Z</time></trkpt><trkpt lat="47.31426701392112" lon="-1.9664053277099702"><ele>9.0</ele><time>2026-03-22T08:59:49.949Z</time></trkpt><trkpt lat="47.31433631555029" lon="-1.9664237084754614"><ele>9.0</ele><time>2026-03-22T08:59:50.949Z</time></trkpt><trkpt lat="47.314450749158254" lon="-1.966463696203395"><ele>9.0</ele><time>2026-03-22T08:59:52.949Z</time></trkpt><trkpt lat="47.31452256791794" lon="-1.9664876012550985"><ele>9.0</ele><time>2026-03-22T08:59:53.949Z</time></trkpt><trkpt lat="47.31458361245241" lon="-1.9665289823729668"><ele>9.0</ele><time>2026-03-22T08:59:54.949Z</time></trkpt><trkpt lat="47.31470409623006" lon="-1.9665720278462484"><ele>9.0</ele><time>2026-03-22T08:59:56.95Z</time></trkpt><trkpt lat="47.314771929979" lon="-1.966591718108346"><ele>9.0</ele><time>2026-03-22T08:59:57.95Z</time></trkpt><trkpt lat="47.314894938306885" lon="-1.9666373523259488"><ele>9.0</ele><time>2026-03-22T08:59:59.949Z</time></trkpt><trkpt lat="47.31496264021816" lon="-1.966658096438491"><ele>9.0</ele><time>2026-03-22T09:00:00.949Z</time></trkpt><trkpt lat="47.3150272067203" lon="-1.9666771112505095"><ele>8.857142857142858</ele><time>2026-03-22T09:00:01.949Z</time></trkpt><trkpt lat="47.31509088885239" lon="-1.9666999952032014"><ele>8.714285714285715</ele><time>2026-03-22T09:00:02.949Z</time></trkpt><trkpt lat="47.31515359839735" lon="-1.9667256627948604"><ele>8.571428571428571</ele><time>2026-03-22T09:00:03.949Z</time></trkpt><trkpt lat="47.31521993542905" lon="-1.9667444495916093"><ele>8.428571428571429</ele><time>2026-03-22T09:00:04.95Z</time></trkpt><trkpt lat="47.31528325160765" lon="-1.9667538252208336"><ele>8.285714285714285</ele><time>2026-03-22T09:00:05.95Z</time></trkpt><trkpt lat="47.315402758608826" lon="-1.9667885018515385"><ele>8.142857142857142</ele><time>2026-03-22T09:00:07.95Z</time></trkpt><trkpt lat="47.315465977069124" lon="-1.9668117255906463"><ele>8.0</ele><time>2026-03-22T09:00:08.95Z</time></trkpt><trkpt lat="47.3155882637388" lon="-1.9668446525145766"><ele>7.833333333333333</ele><time>2026-03-22T09:00:10.95Z</time></trkpt><trkpt lat="47.31565053244895" lon="-1.966861144882301"><ele>7.666666666666666</ele><time>2026-03-22T09:00:11.95Z</time></trkpt><trkpt lat="47.31571544967017" lon="-1.966868139316269"><ele>7.5</ele><time>2026-03-22T09:00:12.95Z</time></trkpt><trkpt lat="47.31577870101855" lon="-1.9668753495953764"><ele>7.333333333333334</ele><time>2026-03-22T09:00:13.95Z</time></trkpt><trkpt lat="47.31590749564762" lon="-1.966907649816804"><ele>7.166666666666667</ele><time>2026-03-22T09:00:15.95Z</time></trkpt><trkpt lat="47.316025692041364" lon="-1.9669387498104962"><ele>7.0</ele><time>2026-03-22T09:00:17.949Z</time></trkpt><trkpt lat="47.31609647370685" lon="-1.9669367070137254"><ele>7.000000000000001</ele><time>2026-03-22T09:00:18.949Z</time></trkpt><trkpt lat="47.31615906097306" lon="-1.9669513741453444"><ele>7.0</ele><time>2026-03-22T09:00:19.949Z</time></trkpt><trkpt lat="47.31622654799119" lon="-1.9669595537323248"><ele>7.0</ele><time>2026-03-22T09:00:20.949Z</time></trkpt><trkpt lat="47.31628957506074" lon="-1.9669627495171293"><ele>7.0</ele><time>2026-03-22T09:00:21.949Z</time></trkpt><trkpt lat="47.316356641093805" lon="-1.966973965203475"><ele>7.000000000000001</ele><time>2026-03-22T09:00:22.949Z</time></trkpt><trkpt lat="47.316489677033616" lon="-1.9669926971817944"><ele>7.0</ele><time>2026-03-22T09:00:24.949Z</time></trkpt><trkpt lat="47.31655826008132" lon="-1.9669944820587275"><ele>7.142857142857142</ele><time>2026-03-22T09:00:25.949Z</time></trkpt><trkpt lat="47.31663203472688" lon="-1.9669983522032763"><ele>7.285714285714286</ele><time>2026-03-22T09:00:26.949Z</time></trkpt><trkpt lat="47.316701576609795" lon="-1.967008543833067"><ele>7.428571428571429</ele><time>2026-03-22T09:00:27.949Z</time></trkpt><trkpt lat="47.3167645137329" lon="-1.967029089655866"><ele>7.571428571428571</ele><time>2026-03-22T09:00:28.949Z</time></trkpt><trkpt lat="47.31683434664567" lon="-1.9670317298853923"><ele>7.7142857142857135</ele><time>2026-03-22T09:00:29.949Z</time></trkpt><trkpt lat="47.316901410241606" lon="-1.9670445188017243"><ele>7.857142857142857</ele><time>2026-03-22T09:00:30.949Z</time></trkpt><trkpt lat="47.316971127304775" lon="-1.9670472572864697"><ele>8.0</ele><time>2026-03-22T09:00:31.949Z</time></trkpt><trkpt lat="47.31704102997472" lon="-1.967055059695307"><ele>8.0</ele><time>2026-03-22T09:00:32.949Z</time></trkpt><trkpt lat="47.31711037573789" lon="-1.9670629037524767"><ele>7.999999999999999</ele><time>2026-03-22T09:00:33.949Z</time></trkpt><trkpt lat="47.31717545583874" lon="-1.9670789799760413"><ele>8.0</ele><time>2026-03-22T09:00:34.949Z</time></trkpt><trkpt lat="47.317247687999426" lon="-1.967087442759153"><ele>8.0</ele><time>2026-03-22T09:00:35.949Z</time></trkpt><trkpt lat="47.31731668482518" lon="-1.967095220427951"><ele>7.999999999999999</ele><time>2026-03-22T09:00:36.949Z</time></trkpt><trkpt lat="47.317379700354124" lon="-1.967109642635402"><ele>8.0</ele><time>2026-03-22T09:00:37.949Z</time></trkpt><trkpt lat="47.317451365563414" lon="-1.9671141587336036"><ele>8.0</ele><time>2026-03-22T09:00:38.949Z</time></trkpt><trkpt lat="47.31752065014379" lon="-1.9671285470676856"><ele>8.333333333333332</ele><time>2026-03-22T09:00:39.949Z</time></trkpt><trkpt lat="47.317588377935415" lon="-1.9671363549116079"><ele>8.666666666666666</ele><time>2026-03-22T09:00:40.949Z</time></trkpt><trkpt lat="47.31765267449098" lon="-1.9671462738867047"><ele>9.0</ele><time>2026-03-22T09:00:41.949Z</time></trkpt><trkpt lat="47.31772028847721" lon="-1.9671464557140634"><ele>9.333333333333334</ele><time>2026-03-22T09:00:42.949Z</time></trkpt><trkpt lat="47.31778768643243" lon="-1.9671579754051152"><ele>9.666666666666668</ele><time>2026-03-22T09:00:43.949Z</time></trkpt><trkpt lat="47.31789929766846" lon="-1.9671792720694095"><ele>10.0</ele><time>2026-03-22T09:00:45.949Z</time></trkpt><trkpt lat="47.318022836356256" lon="-1.967196995833581"><ele>9.8</ele><time>2026-03-22T09:00:47.949Z</time></trkpt><trkpt lat="47.3181330828294" lon="-1.967211648469704"><ele>9.6</ele><time>2026-03-22T09:00:49.949Z</time></trkpt><trkpt lat="47.31824561888562" lon="-1.9672215946705"><ele>9.4</ele><time>2026-03-22T09:00:51.949Z</time></trkpt><trkpt lat="47.31835657982306" lon="-1.9672423781476813"><ele>9.2</ele><time>2026-03-22T09:00:53.949Z</time></trkpt><trkpt lat="47.31846827902183" lon="-1.9672690389932823"><ele>9.0</ele><time>2026-03-22T09:00:55.949Z</time></trkpt><trkpt lat="47.31858258587018" lon="-1.9672765673976633"><ele>9.0</ele><time>2026-03-22T09:00:57.949Z</time></trkpt><trkpt lat="47.31869371134016" lon="-1.9672934263851938"><ele>9.0</ele><time>2026-03-22T09:00:59.949Z</time></trkpt><trkpt lat="47.318811692751154" lon="-1.967301876318183"><ele>9.0</ele><time>2026-03-22T09:01:01.949Z</time></trkpt><trkpt lat="47.318930603586715" lon="-1.967317587433492"><ele>9.0</ele><time>2026-03-22T09:01:03.949Z</time></trkpt><trkpt lat="47.31904483187787" lon="-1.9673326154227377"><ele>9.0</ele><time>2026-03-22T09:01:05.949Z</time></trkpt><trkpt lat="47.31915787426841" lon="-1.9673417405459126"><ele>9.0</ele><time>2026-03-22T09:01:07.949Z</time></trkpt><trkpt lat="47.31928092054877" lon="-1.967353349978365"><ele>9.0</ele><time>2026-03-22T09:01:09.949Z</time></trkpt><trkpt lat="47.31939504185812" lon="-1.9673700342120675"><ele>9.0</ele><time>2026-03-22T09:01:11.949Z</time></trkpt><trkpt lat="47.31950919377034" lon="-1.9673873641425352"><ele>9.0</ele><time>2026-03-22T09:01:13.949Z</time></trkpt><trkpt lat="47.31962125626606" lon="-1.9674057459401542"><ele>9.0</ele><time>2026-03-22T09:01:15.949Z</time></trkpt><trkpt lat="47.31972990979237" lon="-1.9674297290159464"><ele>9.0</ele><time>2026-03-22T09:01:17.949Z</time></trkpt><trkpt lat="47.319839908423305" lon="-1.9674382209405719"><ele>9.0</ele><time>2026-03-22T09:01:19.949Z</time></trkpt><trkpt lat="47.31994922562525" lon="-1.9674486477341613"><ele>9.0</ele><time>2026-03-22T09:01:21.949Z</time></trkpt><trkpt lat="47.3200582332796" lon="-1.9674586164986165"><ele>9.0</ele><time>2026-03-22T09:01:23.948Z</time></trkpt><trkpt lat="47.32015643239991" lon="-1.9674890784048935"><ele>9.0</ele><time>2026-03-22T09:01:25.948Z</time></trkpt><trkpt lat="47.32025586186497" lon="-1.967493479472721"><ele>9.0</ele><time>2026-03-22T09:01:27.948Z</time></trkpt><trkpt lat="47.320355049201254" lon="-1.967503600547535"><ele>9.0</ele><time>2026-03-22T09:01:29.948Z</time></trkpt><trkpt lat="47.3204555154924" lon="-1.967521338771714"><ele>9.0</ele><time>2026-03-22T09:01:31.948Z</time></trkpt><trkpt lat="47.32055246696816" lon="-1.967535144608426"><ele>9.6</ele><time>2026-03-22T09:01:33.948Z</time></trkpt><trkpt lat="47.32065255287552" lon="-1.9675456104911575"><ele>10.2</ele><time>2026-03-22T09:01:35.948Z</time></trkpt><trkpt lat="47.32075122386865" lon="-1.9675569902626846"><ele>10.799999999999999</ele><time>2026-03-22T09:01:37.948Z</time></trkpt><trkpt lat="47.320847966848525" lon="-1.967571889586025"><ele>11.4</ele><time>2026-03-22T09:01:39.948Z</time></trkpt><trkpt lat="47.32094708217291" lon="-1.967581447732368"><ele>12.0</ele><time>2026-03-22T09:01:41.948Z</time></trkpt><trkpt lat="47.3210448321767" lon="-1.9675895771007466"><ele>12.0</ele><time>2026-03-22T09:01:43.948Z</time></trkpt><trkpt lat="47.32113470152923" lon="-1.9676090240949364"><ele>12.0</ele><time>2026-03-22T09:01:45.948Z</time></trkpt><trkpt lat="47.321231351508885" lon="-1.9676271272900068"><ele>12.0</ele><time>2026-03-22T09:01:47.948Z</time></trkpt><trkpt lat="47.321334245752396" lon="-1.9676452571181555"><ele>12.0</ele><time>2026-03-22T09:01:49.948Z</time></trkpt><trkpt lat="47.321436613806014" lon="-1.9676356562654616"><ele>12.0</ele><time>2026-03-22T09:01:51.948Z</time></trkpt><trkpt lat="47.321534233438555" lon="-1.9676426219963843"><ele>12.0</ele><time>2026-03-22T09:01:53.948Z</time></trkpt><trkpt lat="47.321633594542384" lon="-1.9676339386747563"><ele>12.0</ele><time>2026-03-22T09:01:55.948Z</time></trkpt><trkpt lat="47.32173646310484" lon="-1.9676062051010796"><ele>12.0</ele><time>2026-03-22T09:01:57.948Z</time></trkpt><trkpt lat="47.32183672800058" lon="-1.967573016646185"><ele>12.0</ele><time>2026-03-22T09:01:59.948Z</time></trkpt><trkpt lat="47.3219396161863" lon="-1.9675427999373192"><ele>12.0</ele><time>2026-03-22T09:02:01.948Z</time></trkpt><trkpt lat="47.32204305192193" lon="-1.9675039863272903"><ele>12.0</ele><time>2026-03-22T09:02:03.949Z</time></trkpt><trkpt lat="47.32215387509767" lon="-1.9674531653954994"><ele>12.0</ele><time>2026-03-22T09:02:05.948Z</time></trkpt><trkpt lat="47.322259251179986" lon="-1.9674069497198547"><ele>12.0</ele><time>2026-03-22T09:02:07.948Z</time></trkpt><trkpt lat="47.322365657404546" lon="-1.9673567848983244"><ele>12.0</ele><time>2026-03-22T09:02:09.948Z</time></trkpt><trkpt lat="47.322476102026805" lon="-1.9673041442551489"><ele>12.5</ele><time>2026-03-22T09:02:11.948Z</time></trkpt><trkpt lat="47.32258425835651" lon="-1.967258893350196"><ele>13.0</ele><time>2026-03-22T09:02:13.949Z</time></trkpt><trkpt lat="47.32269256720648" lon="-1.9672192170227336"><ele>13.5</ele><time>2026-03-22T09:02:15.948Z</time></trkpt><trkpt lat="47.3228033450923" lon="-1.967170674083764"><ele>14.0</ele><time>2026-03-22T09:02:17.948Z</time></trkpt><trkpt lat="47.32291443830549" lon="-1.9671279478752137"><ele>14.0</ele><time>2026-03-22T09:02:19.948Z</time></trkpt><trkpt lat="47.32302168682416" lon="-1.9670795774847367"><ele>13.999999999999998</ele><time>2026-03-22T09:02:21.948Z</time></trkpt><trkpt lat="47.32313963668808" lon="-1.9670167978237314"><ele>13.999999999999998</ele><time>2026-03-22T09:02:23.948Z</time></trkpt><trkpt lat="47.323203758942796" lon="-1.9669956356544418"><ele>14.0</ele><time>2026-03-22T09:02:24.948Z</time></trkpt><trkpt lat="47.32331293475173" lon="-1.9669517006884025"><ele>14.0</ele><time>2026-03-22T09:02:26.948Z</time></trkpt><trkpt lat="47.3233776131113" lon="-1.9669131791933963"><ele>14.166666666666668</ele><time>2026-03-22T09:02:27.948Z</time></trkpt><trkpt lat="47.323494354624806" lon="-1.9668752689846716"><ele>14.333333333333334</ele><time>2026-03-22T09:02:29.948Z</time></trkpt><trkpt lat="47.32355590405726" lon="-1.9668430960808814"><ele>14.5</ele><time>2026-03-22T09:02:30.947Z</time></trkpt><trkpt lat="47.32361886234146" lon="-1.9668128478291997"><ele>14.666666666666668</ele><time>2026-03-22T09:02:31.947Z</time></trkpt><trkpt lat="47.323679159751876" lon="-1.9667841468396756"><ele>14.833333333333334</ele><time>2026-03-22T09:02:32.947Z</time></trkpt><trkpt lat="47.32379900705175" lon="-1.9667307102157119"><ele>15.0</ele><time>2026-03-22T09:02:34.947Z</time></trkpt><trkpt lat="47.32392234012017" lon="-1.9666784446465786"><ele>14.666666666666666</ele><time>2026-03-22T09:02:36.947Z</time></trkpt><trkpt lat="47.3239823577641" lon="-1.9666480521120675"><ele>14.333333333333332</ele><time>2026-03-22T09:02:37.947Z</time></trkpt><trkpt lat="47.324109616688766" lon="-1.9665851475993543"><ele>14.0</ele><time>2026-03-22T09:02:39.947Z</time></trkpt><trkpt lat="47.324170817676176" lon="-1.966560923481506"><ele>13.666666666666666</ele><time>2026-03-22T09:02:40.947Z</time></trkpt><trkpt lat="47.3242349091841" lon="-1.9665336333994927"><ele>13.333333333333332</ele><time>2026-03-22T09:02:41.947Z</time></trkpt><trkpt lat="47.32429961118595" lon="-1.9665027623625337"><ele>13.0</ele><time>2026-03-22T09:02:42.947Z</time></trkpt><trkpt lat="47.32436731147964" lon="-1.96647192102907"><ele>13.0</ele><time>2026-03-22T09:02:43.947Z</time></trkpt><trkpt lat="47.324437878662636" lon="-1.9664400873126384"><ele>13.0</ele><time>2026-03-22T09:02:44.947Z</time></trkpt><trkpt lat="47.32450258047707" lon="-1.9664174334008995"><ele>13.0</ele><time>2026-03-22T09:02:45.947Z</time></trkpt><trkpt lat="47.324567492315424" lon="-1.9663905488153142"><ele>13.0</ele><time>2026-03-22T09:02:46.947Z</time></trkpt><trkpt lat="47.32463263504247" lon="-1.9663594749307776"><ele>13.0</ele><time>2026-03-22T09:02:47.947Z</time></trkpt><trkpt lat="47.32470295680625" lon="-1.9663235042985703"><ele>13.0</ele><time>2026-03-22T09:02:48.947Z</time></trkpt><trkpt lat="47.324775607172704" lon="-1.9663079567634383"><ele>13.0</ele><time>2026-03-22T09:02:49.947Z</time></trkpt><trkpt lat="47.324847980745524" lon="-1.9662741805350936"><ele>12.714285714285714</ele><time>2026-03-22T09:02:50.947Z</time></trkpt><trkpt lat="47.324918819240175" lon="-1.9662381527113346"><ele>12.428571428571429</ele><time>2026-03-22T09:02:51.947Z</time></trkpt><trkpt lat="47.324990680629746" lon="-1.9662032395478617"><ele>12.142857142857142</ele><time>2026-03-22T09:02:52.947Z</time></trkpt><trkpt lat="47.32505863006906" lon="-1.966172233678169"><ele>11.857142857142858</ele><time>2026-03-22T09:02:53.947Z</time></trkpt><trkpt lat="47.32513450244814" lon="-1.9661342779613047"><ele>11.571428571428571</ele><time>2026-03-22T09:02:54.947Z</time></trkpt><trkpt lat="47.32520115006139" lon="-1.9661077556478097"><ele>11.285714285714286</ele><time>2026-03-22T09:02:55.947Z</time></trkpt><trkpt lat="47.3252698618637" lon="-1.9660830077657967"><ele>11.0</ele><time>2026-03-22T09:02:56.947Z</time></trkpt><trkpt lat="47.325342566799755" lon="-1.9660432899042986"><ele>11.0</ele><time>2026-03-22T09:02:57.947Z</time></trkpt><trkpt lat="47.32541147636844" lon="-1.9660112373030139"><ele>11.0</ele><time>2026-03-22T09:02:58.947Z</time></trkpt><trkpt lat="47.32553520669938" lon="-1.9659713830525456"><ele>11.0</ele><time>2026-03-22T09:03:00.947Z</time></trkpt><trkpt lat="47.325602791681504" lon="-1.9659476385345385"><ele>11.0</ele><time>2026-03-22T09:03:01.947Z</time></trkpt><trkpt lat="47.32567077503954" lon="-1.965912812811504"><ele>11.0</ele><time>2026-03-22T09:03:02.947Z</time></trkpt><trkpt lat="47.32579934245861" lon="-1.965857042764056"><ele>10.666666666666666</ele><time>2026-03-22T09:03:04.947Z</time></trkpt><trkpt lat="47.32586323945943" lon="-1.9658359057927393"><ele>10.333333333333332</ele><time>2026-03-22T09:03:05.947Z</time></trkpt><trkpt lat="47.32592888640076" lon="-1.9658092597376446"><ele>10.0</ele><time>2026-03-22T09:03:06.947Z</time></trkpt><trkpt lat="47.32599033163161" lon="-1.9657861413048412"><ele>9.666666666666666</ele><time>2026-03-22T09:03:07.947Z</time></trkpt><trkpt lat="47.32605481484586" lon="-1.965753997099436"><ele>9.333333333333334</ele><time>2026-03-22T09:03:08.947Z</time></trkpt><trkpt lat="47.32617401798798" lon="-1.965698502036504"><ele>9.0</ele><time>2026-03-22T09:03:10.947Z</time></trkpt><trkpt lat="47.32623604702535" lon="-1.965673057727764"><ele>9.0</ele><time>2026-03-22T09:03:11.947Z</time></trkpt><trkpt lat="47.326299727095055" lon="-1.965641367927502"><ele>9.0</ele><time>2026-03-22T09:03:12.947Z</time></trkpt><trkpt lat="47.32636427177386" lon="-1.9656114214613376"><ele>9.0</ele><time>2026-03-22T09:03:13.947Z</time></trkpt><trkpt lat="47.326483511733215" lon="-1.9655547476680189"><ele>9.0</ele><time>2026-03-22T09:03:15.947Z</time></trkpt><trkpt lat="47.326543810018514" lon="-1.965524472650563"><ele>9.0</ele><time>2026-03-22T09:03:16.947Z</time></trkpt><trkpt lat="47.32666509816372" lon="-1.9654597130002531"><ele>9.333333333333334</ele><time>2026-03-22T09:03:18.947Z</time></trkpt><trkpt lat="47.326774408731865" lon="-1.9653938122943215"><ele>9.666666666666666</ele><time>2026-03-22T09:03:20.947Z</time></trkpt><trkpt lat="47.326833495845115" lon="-1.9653562719029856"><ele>10.0</ele><time>2026-03-22T09:03:21.947Z</time></trkpt><trkpt lat="47.32694611270918" lon="-1.9652853301537447"><ele>10.333333333333332</ele><time>2026-03-22T09:03:23.947Z</time></trkpt><trkpt lat="47.32700341318467" lon="-1.9652312801186027"><ele>10.666666666666666</ele><time>2026-03-22T09:03:24.947Z</time></trkpt><trkpt lat="47.32706028678552" lon="-1.965183291026895"><ele>11.0</ele><time>2026-03-22T09:03:25.947Z</time></trkpt><trkpt lat="47.327116331413436" lon="-1.9651382787876752"><ele>11.0</ele><time>2026-03-22T09:03:26.947Z</time></trkpt><trkpt lat="47.327172750514585" lon="-1.965091371119688"><ele>11.0</ele><time>2026-03-22T09:03:27.947Z</time></trkpt><trkpt lat="47.32728088641438" lon="-1.964996231264336"><ele>11.0</ele><time>2026-03-22T09:03:29.947Z</time></trkpt><trkpt lat="47.327384759456436" lon="-1.9648966159420862"><ele>11.0</ele><time>2026-03-22T09:03:31.947Z</time></trkpt><trkpt lat="47.327492398141516" lon="-1.9647954359919368"><ele>11.0</ele><time>2026-03-22T09:03:33.947Z</time></trkpt><trkpt lat="47.327548491772525" lon="-1.9647432162963225"><ele>10.600000000000001</ele><time>2026-03-22T09:03:34.947Z</time></trkpt><trkpt lat="47.327652413180935" lon="-1.9646471262478564"><ele>10.200000000000001</ele><time>2026-03-22T09:03:36.946Z</time></trkpt><trkpt lat="47.32770720129222" lon="-1.964594193127952"><ele>9.8</ele><time>2026-03-22T09:03:37.946Z</time></trkpt><trkpt lat="47.32776325193793" lon="-1.9645426280716072"><ele>9.4</ele><time>2026-03-22T09:03:38.946Z</time></trkpt><trkpt lat="47.327865087521104" lon="-1.9644446684531385"><ele>9.0</ele><time>2026-03-22T09:03:40.946Z</time></trkpt><trkpt lat="47.32796780676078" lon="-1.9643504896176684"><ele>9.0</ele><time>2026-03-22T09:03:42.946Z</time></trkpt><trkpt lat="47.328072586317475" lon="-1.9642518625593188"><ele>9.0</ele><time>2026-03-22T09:03:44.946Z</time></trkpt><trkpt lat="47.32817919809513" lon="-1.9641624800242004"><ele>9.0</ele><time>2026-03-22T09:03:46.946Z</time></trkpt><trkpt lat="47.328280762684706" lon="-1.9640689704142558"><ele>9.0</ele><time>2026-03-22T09:03:48.946Z</time></trkpt><trkpt lat="47.32838048564434" lon="-1.9639776752627758"><ele>9.0</ele><time>2026-03-22T09:03:50.946Z</time></trkpt><trkpt lat="47.32843222914451" lon="-1.9639228134231672"><ele>9.0</ele><time>2026-03-22T09:03:51.946Z</time></trkpt><trkpt lat="47.32848656533399" lon="-1.963875618805759"><ele>9.0</ele><time>2026-03-22T09:03:52.946Z</time></trkpt><trkpt lat="47.32858838281967" lon="-1.9637777845255038"><ele>9.0</ele><time>2026-03-22T09:03:54.946Z</time></trkpt><trkpt lat="47.32869375629081" lon="-1.963679870166993"><ele>9.0</ele><time>2026-03-22T09:03:56.946Z</time></trkpt><trkpt lat="47.32874864347194" lon="-1.9636334285784836"><ele>9.0</ele><time>2026-03-22T09:03:57.946Z</time></trkpt><trkpt lat="47.32880174811242" lon="-1.9635830994814782"><ele>9.0</ele><time>2026-03-22T09:03:58.946Z</time></trkpt><trkpt lat="47.328905821980406" lon="-1.963489429780221"><ele>9.0</ele><time>2026-03-22T09:04:00.946Z</time></trkpt><trkpt lat="47.329014268820124" lon="-1.9633897918504342"><ele>9.0</ele><time>2026-03-22T09:04:02.946Z</time></trkpt><trkpt lat="47.32911929589121" lon="-1.9632884391728245"><ele>9.0</ele><time>2026-03-22T09:04:04.946Z</time></trkpt><trkpt lat="47.329217014253935" lon="-1.9632072588120677"><ele>9.0</ele><time>2026-03-22T09:04:06.946Z</time></trkpt><trkpt lat="47.32932336121846" lon="-1.9631170727588183"><ele>9.0</ele><time>2026-03-22T09:04:08.947Z</time></trkpt><trkpt lat="47.32942960429481" lon="-1.9630207887416078"><ele>9.0</ele><time>2026-03-22T09:04:10.947Z</time></trkpt><trkpt lat="47.32952762099837" lon="-1.962930723850502"><ele>9.0</ele><time>2026-03-22T09:04:12.948Z</time></trkpt><trkpt lat="47.32958817229923" lon="-1.9628790452961542"><ele>9.0</ele><time>2026-03-22T09:04:13.947Z</time></trkpt><trkpt lat="47.32964178949903" lon="-1.9628270757232935"><ele>9.0</ele><time>2026-03-22T09:04:14.947Z</time></trkpt><trkpt lat="47.3296951886596" lon="-1.9627717441682804"><ele>9.0</ele><time>2026-03-22T09:04:15.947Z</time></trkpt><trkpt lat="47.3297982307743" lon="-1.9626757871769633"><ele>9.0</ele><time>2026-03-22T09:04:17.947Z</time></trkpt><trkpt lat="47.32990248020475" lon="-1.9625913543048903"><ele>9.0</ele><time>2026-03-22T09:04:19.947Z</time></trkpt><trkpt lat="47.32996012080483" lon="-1.962530904315478"><ele>9.0</ele><time>2026-03-22T09:04:20.947Z</time></trkpt><trkpt lat="47.330015011574254" lon="-1.9624756651504227"><ele>9.0</ele><time>2026-03-22T09:04:21.947Z</time></trkpt><trkpt lat="47.33007227809249" lon="-1.962422897478675"><ele>9.000000000000002</ele><time>2026-03-22T09:04:22.947Z</time></trkpt><trkpt lat="47.3301324770274" lon="-1.9623626179557603"><ele>9.0</ele><time>2026-03-22T09:04:23.947Z</time></trkpt><trkpt lat="47.33019050695025" lon="-1.9623013684967168"><ele>9.0</ele><time>2026-03-22T09:04:24.947Z</time></trkpt><trkpt lat="47.33025137971044" lon="-1.9622480564414184"><ele>9.0</ele><time>2026-03-22T09:04:25.947Z</time></trkpt><trkpt lat="47.3303102708202" lon="-1.9621901438256961"><ele>9.0</ele><time>2026-03-22T09:04:26.947Z</time></trkpt><trkpt lat="47.330369423939956" lon="-1.9621367743289972"><ele>9.000000000000002</ele><time>2026-03-22T09:04:27.947Z</time></trkpt><trkpt lat="47.3304314580878" lon="-1.9620806777031417"><ele>9.0</ele><time>2026-03-22T09:04:28.947Z</time></trkpt><trkpt lat="47.330490355202315" lon="-1.962022486163244"><ele>9.000000000000002</ele><time>2026-03-22T09:04:29.947Z</time></trkpt><trkpt lat="47.33055090701514" lon="-1.9619668891146826"><ele>9.0</ele><time>2026-03-22T09:04:30.947Z</time></trkpt><trkpt lat="47.33061290503169" lon="-1.9619142876024454"><ele>9.0</ele><time>2026-03-22T09:04:31.947Z</time></trkpt><trkpt lat="47.33067267135856" lon="-1.9618609806428335"><ele>9.0</ele><time>2026-03-22T09:04:32.947Z</time></trkpt><trkpt lat="47.33073480662205" lon="-1.9618015052440831"><ele>9.0</ele><time>2026-03-22T09:04:33.947Z</time></trkpt><trkpt lat="47.330793651229286" lon="-1.9617431610122675"><ele>9.000000000000002</ele><time>2026-03-22T09:04:34.947Z</time></trkpt><trkpt lat="47.330852450154744" lon="-1.9616905915929883"><ele>9.0</ele><time>2026-03-22T09:04:35.947Z</time></trkpt><trkpt lat="47.330913457678555" lon="-1.961634945287945"><ele>8.571428571428573</ele><time>2026-03-22T09:04:36.947Z</time></trkpt><trkpt lat="47.330972670788086" lon="-1.9615799840939045"><ele>8.142857142857142</ele><time>2026-03-22T09:04:37.947Z</time></trkpt><trkpt lat="47.33103411170589" lon="-1.9615317448753384"><ele>7.714285714285714</ele><time>2026-03-22T09:04:38.947Z</time></trkpt><trkpt lat="47.3310959306274" lon="-1.9614872033056718"><ele>7.2857142857142865</ele><time>2026-03-22T09:04:39.947Z</time></trkpt><trkpt lat="47.33115933275996" lon="-1.9614391201998516"><ele>6.857142857142858</ele><time>2026-03-22T09:04:40.947Z</time></trkpt><trkpt lat="47.33122402271285" lon="-1.961396964860545"><ele>6.428571428571428</ele><time>2026-03-22T09:04:41.947Z</time></trkpt><trkpt lat="47.33128950351171" lon="-1.9613647961608978"><ele>6.0</ele><time>2026-03-22T09:04:42.947Z</time></trkpt><trkpt lat="47.33135546762968" lon="-1.9613231237267883"><ele>5.7142857142857135</ele><time>2026-03-22T09:04:43.947Z</time></trkpt><trkpt lat="47.33141699987665" lon="-1.9612966493836377"><ele>5.428571428571429</ele><time>2026-03-22T09:04:44.947Z</time></trkpt><trkpt lat="47.33148094388615" lon="-1.9612672440359438"><ele>5.142857142857142</ele><time>2026-03-22T09:04:45.947Z</time></trkpt><trkpt lat="47.33154262190534" lon="-1.9612418085704786"><ele>4.857142857142857</ele><time>2026-03-22T09:04:46.947Z</time></trkpt><trkpt lat="47.331606210103814" lon="-1.961220219888431"><ele>4.571428571428571</ele><time>2026-03-22T09:04:47.947Z</time></trkpt><trkpt lat="47.331677898480336" lon="-1.9611924821920454"><ele>4.285714285714286</ele><time>2026-03-22T09:04:48.947Z</time></trkpt><trkpt lat="47.33174388369864" lon="-1.9611849190561605"><ele>4.0</ele><time>2026-03-22T09:04:49.947Z</time></trkpt><trkpt lat="47.33181666854681" lon="-1.9611611156209412"><ele>4.0</ele><time>2026-03-22T09:04:50.947Z</time></trkpt><trkpt lat="47.33188394494643" lon="-1.961156104499168"><ele>3.9999999999999996</ele><time>2026-03-22T09:04:51.946Z</time></trkpt><trkpt lat="47.33195088737048" lon="-1.9611525310548863"><ele>4.0</ele><time>2026-03-22T09:04:52.946Z</time></trkpt><trkpt lat="47.33201645081497" lon="-1.9611478390989088"><ele>4.0</ele><time>2026-03-22T09:04:53.946Z</time></trkpt><trkpt lat="47.33208391951155" lon="-1.9611431894225904"><ele>3.9999999999999996</ele><time>2026-03-22T09:04:54.946Z</time></trkpt><trkpt lat="47.33215178327281" lon="-1.9611354989542846"><ele>4.0</ele><time>2026-03-22T09:04:55.946Z</time></trkpt><trkpt lat="47.3322176356466" lon="-1.9611241211099817"><ele>4.0</ele><time>2026-03-22T09:04:56.946Z</time></trkpt><trkpt lat="47.33228471287232" lon="-1.961121101285348"><ele>3.9999999999999996</ele><time>2026-03-22T09:04:57.946Z</time></trkpt><trkpt lat="47.33234815066162" lon="-1.9611228987076823"><ele>4.0</ele><time>2026-03-22T09:04:58.946Z</time></trkpt><trkpt lat="47.332411167810605" lon="-1.9611202491459538"><ele>4.0</ele><time>2026-03-22T09:04:59.946Z</time></trkpt><trkpt lat="47.33247450391803" lon="-1.9611181031942684"><ele>4.0</ele><time>2026-03-22T09:05:00.946Z</time></trkpt><trkpt lat="47.332591551256996" lon="-1.9611220225576143"><ele>3.9999999999999996</ele><time>2026-03-22T09:05:02.946Z</time></trkpt><trkpt lat="47.33265648532068" lon="-1.9611178580245803"><ele>4.0</ele><time>2026-03-22T09:05:03.946Z</time></trkpt><trkpt lat="47.33277850903755" lon="-1.9611186652897776"><ele>4.0</ele><time>2026-03-22T09:05:05.946Z</time></trkpt><trkpt lat="47.33288593825939" lon="-1.9611196751940774"><ele>4.0</ele><time>2026-03-22T09:05:07.946Z</time></trkpt><trkpt lat="47.333001629435984" lon="-1.9611226824928878"><ele>4.0</ele><time>2026-03-22T09:05:09.946Z</time></trkpt><trkpt lat="47.333122039414114" lon="-1.9611264206235683"><ele>4.0</ele><time>2026-03-22T09:05:11.946Z</time></trkpt><trkpt lat="47.33324352689832" lon="-1.9611198277604573"><ele>4.0</ele><time>2026-03-22T09:05:13.946Z</time></trkpt><trkpt lat="47.33336630884763" lon="-1.9611201258199948"><ele>4.0</ele><time>2026-03-22T09:05:15.946Z</time></trkpt><trkpt lat="47.33342933236407" lon="-1.9611163207738225"><ele>4.0</ele><time>2026-03-22T09:05:16.946Z</time></trkpt><trkpt lat="47.333553649293115" lon="-1.961109183229115"><ele>4.0</ele><time>2026-03-22T09:05:18.946Z</time></trkpt><trkpt lat="47.333675007521705" lon="-1.9611060539421517"><ele>4.0</ele><time>2026-03-22T09:05:20.946Z</time></trkpt><trkpt lat="47.33379819411924" lon="-1.9611026110079661"><ele>4.4</ele><time>2026-03-22T09:05:22.946Z</time></trkpt><trkpt lat="47.3339188304722" lon="-1.9610891581840422"><ele>4.800000000000001</ele><time>2026-03-22T09:05:24.946Z</time></trkpt><trkpt lat="47.333982605147035" lon="-1.9610803164576578"><ele>5.199999999999999</ele><time>2026-03-22T09:05:25.946Z</time></trkpt><trkpt lat="47.334102157799705" lon="-1.9610861980469478"><ele>5.6</ele><time>2026-03-22T09:05:27.946Z</time></trkpt><trkpt lat="47.33422566887374" lon="-1.9610720186085053"><ele>6.0</ele><time>2026-03-22T09:05:29.946Z</time></trkpt><trkpt lat="47.334346974018786" lon="-1.961079516872725"><ele>6.0</ele><time>2026-03-22T09:05:31.946Z</time></trkpt><trkpt lat="47.33447111222853" lon="-1.9610766539584434"><ele>6.0</ele><time>2026-03-22T09:05:33.946Z</time></trkpt><trkpt lat="47.334591585230406" lon="-1.961074284494782"><ele>6.0</ele><time>2026-03-22T09:05:35.946Z</time></trkpt><trkpt lat="47.33471133318398" lon="-1.9610719628467237"><ele>6.0</ele><time>2026-03-22T09:05:37.946Z</time></trkpt><trkpt lat="47.33482401253861" lon="-1.9610813480596438"><ele>5.8</ele><time>2026-03-22T09:05:39.946Z</time></trkpt><trkpt lat="47.33488823039952" lon="-1.9610775945596752"><ele>5.6</ele><time>2026-03-22T09:05:40.946Z</time></trkpt><trkpt lat="47.33499964093384" lon="-1.9610798674540475"><ele>5.4</ele><time>2026-03-22T09:05:42.946Z</time></trkpt><trkpt lat="47.33511732551401" lon="-1.9610714709909547"><ele>5.2</ele><time>2026-03-22T09:05:44.946Z</time></trkpt><trkpt lat="47.335230840893956" lon="-1.961069134428051"><ele>5.0</ele><time>2026-03-22T09:05:46.946Z</time></trkpt><trkpt lat="47.335346238108514" lon="-1.9610598595594666"><ele>5.0</ele><time>2026-03-22T09:05:48.946Z</time></trkpt><trkpt lat="47.33545564999694" lon="-1.9610631983386053"><ele>5.0</ele><time>2026-03-22T09:05:50.946Z</time></trkpt><trkpt lat="47.3355685115334" lon="-1.9610509164895478"><ele>5.0</ele><time>2026-03-22T09:05:52.946Z</time></trkpt><trkpt lat="47.33568164073246" lon="-1.9610402111800198"><ele>5.0</ele><time>2026-03-22T09:05:54.946Z</time></trkpt><trkpt lat="47.33579581280908" lon="-1.9610287545811225"><ele>4.8</ele><time>2026-03-22T09:05:56.946Z</time></trkpt><trkpt lat="47.33590598404442" lon="-1.9610065249468995"><ele>4.6</ele><time>2026-03-22T09:05:58.945Z</time></trkpt><trkpt lat="47.336013484647964" lon="-1.9609943991471495"><ele>4.4</ele><time>2026-03-22T09:06:00.945Z</time></trkpt><trkpt lat="47.33612075411733" lon="-1.9609618827705075"><ele>4.2</ele><time>2026-03-22T09:06:02.945Z</time></trkpt><trkpt lat="47.33622956860184" lon="-1.9609150628195942"><ele>4.0</ele><time>2026-03-22T09:06:04.945Z</time></trkpt><trkpt lat="47.33633896805038" lon="-1.9608665575895896"><ele>4.4</ele><time>2026-03-22T09:06:06.945Z</time></trkpt><trkpt lat="47.33643782423129" lon="-1.9608095131624648"><ele>4.800000000000001</ele><time>2026-03-22T09:06:08.945Z</time></trkpt><trkpt lat="47.33653752959659" lon="-1.9607364536352097"><ele>5.199999999999999</ele><time>2026-03-22T09:06:10.945Z</time></trkpt><trkpt lat="47.336635964545394" lon="-1.9606737034933228"><ele>5.6</ele><time>2026-03-22T09:06:12.945Z</time></trkpt><trkpt lat="47.336732006353834" lon="-1.9605995514214951"><ele>6.0</ele><time>2026-03-22T09:06:14.946Z</time></trkpt><trkpt lat="47.33682410721237" lon="-1.9605208543883883"><ele>6.0</ele><time>2026-03-22T09:06:16.946Z</time></trkpt><trkpt lat="47.3369107428917" lon="-1.9604265511045285"><ele>6.0</ele><time>2026-03-22T09:06:18.946Z</time></trkpt><trkpt lat="47.337008395449864" lon="-1.9603535193236694"><ele>6.0</ele><time>2026-03-22T09:06:20.946Z</time></trkpt><trkpt lat="47.33710115822777" lon="-1.9602709693002174"><ele>6.0</ele><time>2026-03-22T09:06:22.947Z</time></trkpt><trkpt lat="47.33719314469616" lon="-1.960196297054788"><ele>6.0</ele><time>2026-03-22T09:06:24.946Z</time></trkpt><trkpt lat="47.33728523923677" lon="-1.960113079282828"><ele>6.4</ele><time>2026-03-22T09:06:26.946Z</time></trkpt><trkpt lat="47.33737933091617" lon="-1.9600306386302595"><ele>6.8</ele><time>2026-03-22T09:06:28.946Z</time></trkpt><trkpt lat="47.33747796276152" lon="-1.959941836267506"><ele>7.200000000000001</ele><time>2026-03-22T09:06:30.946Z</time></trkpt><trkpt lat="47.337575985771764" lon="-1.95985900129912"><ele>7.6000000000000005</ele><time>2026-03-22T09:06:32.946Z</time></trkpt><trkpt lat="47.337671511339906" lon="-1.9597771162822113"><ele>8.0</ele><time>2026-03-22T09:06:34.946Z</time></trkpt><trkpt lat="47.33776990222428" lon="-1.9596911280409337"><ele>8.0</ele><time>2026-03-22T09:06:36.946Z</time></trkpt><trkpt lat="47.337867496856774" lon="-1.9596066958607776"><ele>8.0</ele><time>2026-03-22T09:06:38.946Z</time></trkpt><trkpt lat="47.33796453756485" lon="-1.959517021477099"><ele>8.0</ele><time>2026-03-22T09:06:40.946Z</time></trkpt><trkpt lat="47.33806330429719" lon="-1.9594256076368064"><ele>8.0</ele><time>2026-03-22T09:06:42.946Z</time></trkpt><trkpt lat="47.338154742559446" lon="-1.959344044778024"><ele>7.75</ele><time>2026-03-22T09:06:44.946Z</time></trkpt><trkpt lat="47.338255829605686" lon="-1.9592616071649465"><ele>7.5</ele><time>2026-03-22T09:06:46.946Z</time></trkpt><trkpt lat="47.33835865535322" lon="-1.959169302875489"><ele>7.25</ele><time>2026-03-22T09:06:48.946Z</time></trkpt><trkpt lat="47.33845542689613" lon="-1.9590849928722398"><ele>7.0</ele><time>2026-03-22T09:06:50.946Z</time></trkpt><trkpt lat="47.338548758504665" lon="-1.9589915666593"><ele>7.0</ele><time>2026-03-22T09:06:52.946Z</time></trkpt><trkpt lat="47.33864569491851" lon="-1.9589135722192441"><ele>6.999999999999999</ele><time>2026-03-22T09:06:54.946Z</time></trkpt><trkpt lat="47.338746641058" lon="-1.958821696620046"><ele>6.999999999999999</ele><time>2026-03-22T09:06:56.946Z</time></trkpt><trkpt lat="47.338845551039796" lon="-1.9587321672882845"><ele>7.0</ele><time>2026-03-22T09:06:58.946Z</time></trkpt><trkpt lat="47.33890100660255" lon="-1.9586862921417971"><ele>7.0</ele><time>2026-03-22T09:06:59.946Z</time></trkpt><trkpt lat="47.339001609820464" lon="-1.9585883739174494"><ele>7.0</ele><time>2026-03-22T09:07:01.946Z</time></trkpt><trkpt lat="47.33905803689299" lon="-1.9585435618203033"><ele>6.999999999999999</ele><time>2026-03-22T09:07:02.946Z</time></trkpt><trkpt lat="47.33916694622804" lon="-1.9584476484370166"><ele>6.999999999999999</ele><time>2026-03-22T09:07:04.946Z</time></trkpt><trkpt lat="47.339269353360265" lon="-1.9583544137542994"><ele>7.0</ele><time>2026-03-22T09:07:06.946Z</time></trkpt><trkpt lat="47.33932568113581" lon="-1.9583061914635742"><ele>7.0</ele><time>2026-03-22T09:07:07.946Z</time></trkpt><trkpt lat="47.339431358490735" lon="-1.958213829662489"><ele>7.166666666666667</ele><time>2026-03-22T09:07:09.946Z</time></trkpt><trkpt lat="47.339540155281455" lon="-1.958118028131927"><ele>7.333333333333334</ele><time>2026-03-22T09:07:11.945Z</time></trkpt><trkpt lat="47.3395964796504" lon="-1.9580717511028196"><ele>7.5</ele><time>2026-03-22T09:07:12.945Z</time></trkpt><trkpt lat="47.33965350120051" lon="-1.9580301095756178"><ele>7.666666666666666</ele><time>2026-03-22T09:07:13.945Z</time></trkpt><trkpt lat="47.33971555413903" lon="-1.957980635285208"><ele>7.833333333333333</ele><time>2026-03-22T09:07:14.945Z</time></trkpt><trkpt lat="47.33977717305648" lon="-1.9579349934893318"><ele>8.0</ele><time>2026-03-22T09:07:15.945Z</time></trkpt><trkpt lat="47.339840165127384" lon="-1.9578861683222284"><ele>7.7142857142857135</ele><time>2026-03-22T09:07:16.945Z</time></trkpt><trkpt lat="47.339902348699475" lon="-1.957840810257825"><ele>7.428571428571428</ele><time>2026-03-22T09:07:17.945Z</time></trkpt><trkpt lat="47.3399617160337" lon="-1.9577803103783038"><ele>7.142857142857142</ele><time>2026-03-22T09:07:18.945Z</time></trkpt><trkpt lat="47.340031519231964" lon="-1.9577488176826423"><ele>6.857142857142857</ele><time>2026-03-22T09:07:19.945Z</time></trkpt><trkpt lat="47.34009165495374" lon="-1.9577083160979105"><ele>6.571428571428571</ele><time>2026-03-22T09:07:20.945Z</time></trkpt><trkpt lat="47.34015007384389" lon="-1.9576544931547646"><ele>6.285714285714285</ele><time>2026-03-22T09:07:21.945Z</time></trkpt><trkpt lat="47.34021369937241" lon="-1.95760864921606"><ele>6.0</ele><time>2026-03-22T09:07:22.945Z</time></trkpt><trkpt lat="47.34027855997277" lon="-1.9575600280018834"><ele>6.333333333333333</ele><time>2026-03-22T09:07:23.945Z</time></trkpt><trkpt lat="47.340345193032" lon="-1.9575039313879001"><ele>6.666666666666666</ele><time>2026-03-22T09:07:24.945Z</time></trkpt><trkpt lat="47.340411735732225" lon="-1.9574562896166916"><ele>7.0</ele><time>2026-03-22T09:07:25.945Z</time></trkpt><trkpt lat="47.34047790283049" lon="-1.9574115586162653"><ele>7.333333333333333</ele><time>2026-03-22T09:07:26.945Z</time></trkpt><trkpt lat="47.340546148089885" lon="-1.957359234908563"><ele>7.666666666666666</ele><time>2026-03-22T09:07:27.945Z</time></trkpt><trkpt lat="47.34061801230048" lon="-1.9573075644773759"><ele>8.0</ele><time>2026-03-22T09:07:28.945Z</time></trkpt><trkpt lat="47.340690382784985" lon="-1.9572580644082163"><ele>7.166666666666666</ele><time>2026-03-22T09:07:29.945Z</time></trkpt><trkpt lat="47.340762658719605" lon="-1.9572100228805445"><ele>6.333333333333333</ele><time>2026-03-22T09:07:30.945Z</time></trkpt><trkpt lat="47.340840856534626" lon="-1.9571531855822673"><ele>5.5</ele><time>2026-03-22T09:07:31.945Z</time></trkpt><trkpt lat="47.340912179124835" lon="-1.9571008762110722"><ele>4.666666666666666</ele><time>2026-03-22T09:07:32.945Z</time></trkpt><trkpt lat="47.34097546255915" lon="-1.9570500706253098"><ele>3.833333333333333</ele><time>2026-03-22T09:07:33.945Z</time></trkpt><trkpt lat="47.341050334267976" lon="-1.9569975299813762"><ele>3.0</ele><time>2026-03-22T09:07:34.945Z</time></trkpt><trkpt lat="47.341114465539555" lon="-1.956944067933631"><ele>2.9999999999999996</ele><time>2026-03-22T09:07:35.945Z</time></trkpt><trkpt lat="47.341175795851434" lon="-1.9569054159964856"><ele>3.0</ele><time>2026-03-22T09:07:36.945Z</time></trkpt><trkpt lat="47.34123993857481" lon="-1.9568581197867843"><ele>3.0</ele><time>2026-03-22T09:07:37.945Z</time></trkpt><trkpt lat="47.341299529801866" lon="-1.9568163186361316"><ele>3.0</ele><time>2026-03-22T09:07:38.945Z</time></trkpt><trkpt lat="47.34135723545753" lon="-1.956766385903183"><ele>3.0</ele><time>2026-03-22T09:07:39.945Z</time></trkpt><trkpt lat="47.34142310101511" lon="-1.9567196663309017"><ele>2.9999999999999996</ele><time>2026-03-22T09:07:40.945Z</time></trkpt><trkpt lat="47.34148767882424" lon="-1.9566768156882774"><ele>3.0</ele><time>2026-03-22T09:07:41.945Z</time></trkpt><trkpt lat="47.34154981764444" lon="-1.9566266510989234"><ele>3.2</ele><time>2026-03-22T09:07:42.945Z</time></trkpt><trkpt lat="47.34160904892414" lon="-1.9565877383382642"><ele>3.4</ele><time>2026-03-22T09:07:43.945Z</time></trkpt><trkpt lat="47.341718836835" lon="-1.956498962224753"><ele>3.6000000000000005</ele><time>2026-03-22T09:07:45.945Z</time></trkpt><trkpt lat="47.341833156585466" lon="-1.956420086469313"><ele>3.8000000000000003</ele><time>2026-03-22T09:07:47.945Z</time></trkpt><trkpt lat="47.341895154192436" lon="-1.9563741104795764"><ele>4.0</ele><time>2026-03-22T09:07:48.945Z</time></trkpt><trkpt lat="47.342008962029055" lon="-1.9563033249355999"><ele>4.0</ele><time>2026-03-22T09:07:50.945Z</time></trkpt><trkpt lat="47.342126992105776" lon="-1.9562426204441605"><ele>4.0</ele><time>2026-03-22T09:07:52.945Z</time></trkpt><trkpt lat="47.342243027434044" lon="-1.956197457572142"><ele>4.0</ele><time>2026-03-22T09:07:54.945Z</time></trkpt><trkpt lat="47.342302368573094" lon="-1.9561645380366"><ele>4.0</ele><time>2026-03-22T09:07:55.945Z</time></trkpt><trkpt lat="47.34242104466571" lon="-1.9561203855698415"><ele>4.0</ele><time>2026-03-22T09:07:57.945Z</time></trkpt><trkpt lat="47.34248470160539" lon="-1.9560942275002253"><ele>3.8000000000000003</ele><time>2026-03-22T09:07:58.945Z</time></trkpt><trkpt lat="47.342602598840635" lon="-1.9560631906566046"><ele>3.6000000000000005</ele><time>2026-03-22T09:08:00.945Z</time></trkpt><trkpt lat="47.34272229085469" lon="-1.956036761795314"><ele>3.4</ele><time>2026-03-22T09:08:02.945Z</time></trkpt><trkpt lat="47.342844887369395" lon="-1.956016397177383"><ele>3.2</ele><time>2026-03-22T09:08:04.945Z</time></trkpt><trkpt lat="47.34290895912482" lon="-1.9559965939363688"><ele>3.0</ele><time>2026-03-22T09:08:05.945Z</time></trkpt><trkpt lat="47.342974469244794" lon="-1.9559749559379762"><ele>3.2</ele><time>2026-03-22T09:08:06.945Z</time></trkpt><trkpt lat="47.34308986399532" lon="-1.95596208119127"><ele>3.4</ele><time>2026-03-22T09:08:08.945Z</time></trkpt><trkpt lat="47.3432108348012" lon="-1.9559319430247581"><ele>3.6000000000000005</ele><time>2026-03-22T09:08:10.945Z</time></trkpt><trkpt lat="47.343274775148195" lon="-1.955910841657753"><ele>3.8000000000000003</ele><time>2026-03-22T09:08:11.945Z</time></trkpt><trkpt lat="47.34339168246706" lon="-1.9558865794817297"><ele>4.0</ele><time>2026-03-22T09:08:13.945Z</time></trkpt><trkpt lat="47.34345409029261" lon="-1.955868986656719"><ele>4.2</ele><time>2026-03-22T09:08:14.945Z</time></trkpt><trkpt lat="47.343573672261044" lon="-1.9558425998953206"><ele>4.4</ele><time>2026-03-22T09:08:16.945Z</time></trkpt><trkpt lat="47.34368672774953" lon="-1.9558207098613967"><ele>4.6</ele><time>2026-03-22T09:08:18.944Z</time></trkpt><trkpt lat="47.343803940289476" lon="-1.955803875771756"><ele>4.8</ele><time>2026-03-22T09:08:20.945Z</time></trkpt><trkpt lat="47.34386860442628" lon="-1.9557846408431152"><ele>5.0</ele><time>2026-03-22T09:08:21.945Z</time></trkpt><trkpt lat="47.343984223680046" lon="-1.955757275662032"><ele>4.6</ele><time>2026-03-22T09:08:23.944Z</time></trkpt><trkpt lat="47.344098065344475" lon="-1.9557328301118275"><ele>4.2</ele><time>2026-03-22T09:08:25.945Z</time></trkpt><trkpt lat="47.344217854415376" lon="-1.9557055881525436"><ele>3.8</ele><time>2026-03-22T09:08:27.944Z</time></trkpt><trkpt lat="47.344335196861245" lon="-1.9556850641370502"><ele>3.4</ele><time>2026-03-22T09:08:29.945Z</time></trkpt><trkpt lat="47.34439882615953" lon="-1.95566765704691"><ele>3.0</ele><time>2026-03-22T09:08:30.945Z</time></trkpt><trkpt lat="47.344507795498025" lon="-1.955645250847329"><ele>3.0</ele><time>2026-03-22T09:08:32.944Z</time></trkpt><trkpt lat="47.34462482520706" lon="-1.9556280243451312"><ele>3.0</ele><time>2026-03-22T09:08:34.944Z</time></trkpt><trkpt lat="47.34473395074878" lon="-1.9556069861945309"><ele>3.0</ele><time>2026-03-22T09:08:36.944Z</time></trkpt><trkpt lat="47.344841782820495" lon="-1.95558633809196"><ele>3.0</ele><time>2026-03-22T09:08:38.944Z</time></trkpt><trkpt lat="47.34490613737986" lon="-1.9555642178671893"><ele>3.0</ele><time>2026-03-22T09:08:39.944Z</time></trkpt><trkpt lat="47.34500067678439" lon="-1.9555409903010494"><ele>3.4</ele><time>2026-03-22T09:08:41.944Z</time></trkpt><trkpt lat="47.34511622333718" lon="-1.9555174108029363"><ele>3.8</ele><time>2026-03-22T09:08:43.944Z</time></trkpt><trkpt lat="47.345226369083655" lon="-1.955496717335926"><ele>4.2</ele><time>2026-03-22T09:08:45.944Z</time></trkpt><trkpt lat="47.34533121176758" lon="-1.9554728273255586"><ele>4.6</ele><time>2026-03-22T09:08:47.944Z</time></trkpt><trkpt lat="47.34543266268768" lon="-1.9554507278209323"><ele>5.0</ele><time>2026-03-22T09:08:49.944Z</time></trkpt><trkpt lat="47.345539991105866" lon="-1.955426821723752"><ele>4.6</ele><time>2026-03-22T09:08:51.944Z</time></trkpt><trkpt lat="47.345639930761365" lon="-1.9554011631175787"><ele>4.2</ele><time>2026-03-22T09:08:53.944Z</time></trkpt><trkpt lat="47.34574534257668" lon="-1.9553818658285502"><ele>3.8</ele><time>2026-03-22T09:08:55.944Z</time></trkpt><trkpt lat="47.34584210804053" lon="-1.9553598457907404"><ele>3.4</ele><time>2026-03-22T09:08:57.944Z</time></trkpt><trkpt lat="47.345941896026886" lon="-1.955342955234991"><ele>3.0</ele><time>2026-03-22T09:08:59.944Z</time></trkpt><trkpt lat="47.34605373284404" lon="-1.9553096054703922"><ele>3.0</ele><time>2026-03-22T09:09:01.944Z</time></trkpt><trkpt lat="47.346154001290095" lon="-1.9552892298181965"><ele>3.0</ele><time>2026-03-22T09:09:03.944Z</time></trkpt><trkpt lat="47.346255238192704" lon="-1.955268248001166"><ele>3.0</ele><time>2026-03-22T09:09:05.944Z</time></trkpt><trkpt lat="47.34635713361" lon="-1.9552462500410408"><ele>3.0</ele><time>2026-03-22T09:09:07.944Z</time></trkpt><trkpt lat="47.346459852625216" lon="-1.9552269745073139"><ele>3.0</ele><time>2026-03-22T09:09:09.944Z</time></trkpt><trkpt lat="47.34656177665797" lon="-1.955197730596008"><ele>3.5</ele><time>2026-03-22T09:09:11.944Z</time></trkpt><trkpt lat="47.346659472597096" lon="-1.9551755424651196"><ele>4.0</ele><time>2026-03-22T09:09:13.944Z</time></trkpt><trkpt lat="47.34676217230545" lon="-1.9551446776313892"><ele>4.5</ele><time>2026-03-22T09:09:15.944Z</time></trkpt><trkpt lat="47.34685864436088" lon="-1.9551261579001187"><ele>5.0</ele><time>2026-03-22T09:09:17.944Z</time></trkpt><trkpt lat="47.34692011551788" lon="-1.9551005189170267"><ele>5.5</ele><time>2026-03-22T09:09:18.944Z</time></trkpt><trkpt lat="47.34700257098933" lon="-1.9550898578354134"><ele>6.0</ele><time>2026-03-22T09:09:20.944Z</time></trkpt><trkpt lat="47.34709716367412" lon="-1.9550660934389432"><ele>6.0</ele><time>2026-03-22T09:09:22.944Z</time></trkpt><trkpt lat="47.347191315393175" lon="-1.9550469414908873"><ele>6.0</ele><time>2026-03-22T09:09:24.943Z</time></trkpt><trkpt lat="47.347284184702154" lon="-1.9550320814627347"><ele>6.0</ele><time>2026-03-22T09:09:26.943Z</time></trkpt><trkpt lat="47.34737650291905" lon="-1.955012505699677"><ele>6.0</ele><time>2026-03-22T09:09:28.943Z</time></trkpt><trkpt lat="47.34746546921487" lon="-1.954988940474675"><ele>6.0</ele><time>2026-03-22T09:09:30.943Z</time></trkpt><trkpt lat="47.34755200900837" lon="-1.954968945112203"><ele>6.666666666666667</ele><time>2026-03-22T09:09:32.943Z</time></trkpt><trkpt lat="47.3476421220456" lon="-1.9549419146948126"><ele>7.333333333333334</ele><time>2026-03-22T09:09:34.943Z</time></trkpt><trkpt lat="47.34772409712158" lon="-1.9549271214107835"><ele>8.0</ele><time>2026-03-22T09:09:36.943Z</time></trkpt><trkpt lat="47.347805029868574" lon="-1.9549068751266683"><ele>8.666666666666668</ele><time>2026-03-22T09:09:38.943Z</time></trkpt><trkpt lat="47.34788551546904" lon="-1.954893858929424"><ele>9.333333333333334</ele><time>2026-03-22T09:09:40.943Z</time></trkpt><trkpt lat="47.34796592651094" lon="-1.9548715032588206"><ele>10.0</ele><time>2026-03-22T09:09:42.943Z</time></trkpt><trkpt lat="47.348034229289055" lon="-1.954849136120912"><ele>9.833333333333334</ele><time>2026-03-22T09:09:44.943Z</time></trkpt><trkpt lat="47.348109246603514" lon="-1.954825071346707"><ele>9.666666666666668</ele><time>2026-03-22T09:09:48.943Z</time></trkpt><trkpt lat="47.34815783937651" lon="-1.9548992680787596"><ele>9.5</ele><time>2026-03-22T09:09:51.943Z</time></trkpt><trkpt lat="47.348170647566306" lon="-1.955027471280398"><ele>9.333333333333334</ele><time>2026-03-22T09:09:53.943Z</time></trkpt><trkpt lat="47.348207892136855" lon="-1.9551537056517216"><ele>9.166666666666666</ele><time>2026-03-22T09:09:55.943Z</time></trkpt><trkpt lat="47.34826639772888" lon="-1.9552696257703381"><ele>9.0</ele><time>2026-03-22T09:09:57.943Z</time></trkpt><trkpt lat="47.34832369837689" lon="-1.955401610337554"><ele>9.0</ele><time>2026-03-22T09:09:59.943Z</time></trkpt><trkpt lat="47.34838850418453" lon="-1.95553478052859"><ele>9.0</ele><time>2026-03-22T09:10:01.943Z</time></trkpt><trkpt lat="47.34845624846676" lon="-1.9556653335512169"><ele>9.0</ele><time>2026-03-22T09:10:03.943Z</time></trkpt><trkpt lat="47.3485177584852" lon="-1.9558063622871842"><ele>9.0</ele><time>2026-03-22T09:10:05.943Z</time></trkpt><trkpt lat="47.34857035078802" lon="-1.9559541504068911"><ele>9.0</ele><time>2026-03-22T09:10:07.943Z</time></trkpt><trkpt lat="47.34861550117003" lon="-1.9561110672396416"><ele>8.8</ele><time>2026-03-22T09:10:09.943Z</time></trkpt><trkpt lat="47.34865044414989" lon="-1.9562595995620695"><ele>8.600000000000001</ele><time>2026-03-22T09:10:11.943Z</time></trkpt><trkpt lat="47.34868249112432" lon="-1.956420546554053"><ele>8.4</ele><time>2026-03-22T09:10:13.943Z</time></trkpt><trkpt lat="47.3486969697627" lon="-1.9565128611698357"><ele>8.200000000000001</ele><time>2026-03-22T09:10:14.943Z</time></trkpt><trkpt lat="47.34871673125844" lon="-1.9566056196507153"><ele>8.0</ele><time>2026-03-22T09:10:15.943Z</time></trkpt><trkpt lat="47.34873513222259" lon="-1.9567793902020734"><ele>8.0</ele><time>2026-03-22T09:10:17.943Z</time></trkpt><trkpt lat="47.34875351085462" lon="-1.95696050676574"><ele>8.0</ele><time>2026-03-22T09:10:19.943Z</time></trkpt><trkpt lat="47.34874738463128" lon="-1.9571272473225712"><ele>8.0</ele><time>2026-03-22T09:10:21.943Z</time></trkpt><trkpt lat="47.348731348268714" lon="-1.9572997346221506"><ele>8.0</ele><time>2026-03-22T09:10:23.943Z</time></trkpt><trkpt lat="47.348725755280164" lon="-1.9573963117917343"><ele>8.0</ele><time>2026-03-22T09:10:24.943Z</time></trkpt><trkpt lat="47.348724520448386" lon="-1.9574937300104192"><ele>8.0</ele><time>2026-03-22T09:10:25.944Z</time></trkpt><trkpt lat="47.34870472865351" lon="-1.9576641749065204"><ele>8.0</ele><time>2026-03-22T09:10:27.944Z</time></trkpt><trkpt lat="47.348704001078" lon="-1.9578176010965762"><ele>8.0</ele><time>2026-03-22T09:10:29.944Z</time></trkpt><trkpt lat="47.348697743341674" lon="-1.957973780763557"><ele>8.0</ele><time>2026-03-22T09:10:31.943Z</time></trkpt><trkpt lat="47.3487041321723" lon="-1.9581085216853429"><ele>8.0</ele><time>2026-03-22T09:10:33.944Z</time></trkpt><trkpt lat="47.348706780902994" lon="-1.958241240625087"><ele>7.999999999999999</ele><time>2026-03-22T09:10:35.944Z</time></trkpt><trkpt lat="47.34872685707483" lon="-1.958361323281381"><ele>8.0</ele><time>2026-03-22T09:10:37.944Z</time></trkpt><trkpt lat="47.348732155161585" lon="-1.958482507289334"><ele>8.0</ele><time>2026-03-22T09:10:40.943Z</time></trkpt><trkpt lat="47.34874213103067" lon="-1.9585998944876921"><ele>8.0</ele><time>2026-03-22T09:10:44.943Z</time></trkpt><trkpt lat="47.34872739628874" lon="-1.9584931239268"><ele>7.999999999999999</ele><time>2026-03-22T09:10:51.943Z</time></trkpt><trkpt lat="47.34871870333798" lon="-1.9583513032406545"><ele>8.0</ele><time>2026-03-22T09:10:53.943Z</time></trkpt><trkpt lat="47.34871178214892" lon="-1.9582089714223698"><ele>8.0</ele><time>2026-03-22T09:10:55.943Z</time></trkpt><trkpt lat="47.348705270348106" lon="-1.958063454902777"><ele>8.0</ele><time>2026-03-22T09:10:57.943Z</time></trkpt><trkpt lat="47.348705253441366" lon="-1.957909260152428"><ele>8.0</ele><time>2026-03-22T09:10:59.943Z</time></trkpt><trkpt lat="47.348711072452566" lon="-1.9577502648888654"><ele>8.0</ele><time>2026-03-22T09:11:01.943Z</time></trkpt><trkpt lat="47.348719855017684" lon="-1.9575883482234884"><ele>8.0</ele><time>2026-03-22T09:11:03.943Z</time></trkpt><trkpt lat="47.34872952927892" lon="-1.9574211478925978"><ele>8.0</ele><time>2026-03-22T09:11:05.943Z</time></trkpt><trkpt lat="47.34873629481983" lon="-1.9572551388062445"><ele>8.0</ele><time>2026-03-22T09:11:07.943Z</time></trkpt><trkpt lat="47.348750953688274" lon="-1.9570810488553605"><ele>8.0</ele><time>2026-03-22T09:11:09.943Z</time></trkpt><trkpt lat="47.34874274485237" lon="-1.956914669477877"><ele>8.0</ele><time>2026-03-22T09:11:11.943Z</time></trkpt><trkpt lat="47.34873478870913" lon="-1.9567432572646715"><ele>8.0</ele><time>2026-03-22T09:11:13.943Z</time></trkpt><trkpt lat="47.348709074701326" lon="-1.9565776999409408"><ele>8.0</ele><time>2026-03-22T09:11:15.943Z</time></trkpt><trkpt lat="47.348667824152734" lon="-1.956425106837296"><ele>8.0</ele><time>2026-03-22T09:11:17.943Z</time></trkpt><trkpt lat="47.348636824297074" lon="-1.9562651419305077"><ele>8.0</ele><time>2026-03-22T09:11:19.943Z</time></trkpt><trkpt lat="47.3485989045985" lon="-1.9561092678372092"><ele>8.0</ele><time>2026-03-22T09:11:21.943Z</time></trkpt><trkpt lat="47.34855777908978" lon="-1.955961571427687"><ele>8.0</ele><time>2026-03-22T09:11:23.943Z</time></trkpt><trkpt lat="47.3485103184664" lon="-1.9558346114985954"><ele>8.0</ele><time>2026-03-22T09:11:25.943Z</time></trkpt><trkpt lat="47.34846277882258" lon="-1.9557195335247113"><ele>8.0</ele><time>2026-03-22T09:11:27.943Z</time></trkpt><trkpt lat="47.34840182980819" lon="-1.9555877297877196"><ele>8.0</ele><time>2026-03-22T09:11:29.943Z</time></trkpt><trkpt lat="47.34833658474067" lon="-1.95545665680178"><ele>8.200000000000001</ele><time>2026-03-22T09:11:31.943Z</time></trkpt><trkpt lat="47.34828133086848" lon="-1.9553265671562496"><ele>8.4</ele><time>2026-03-22T09:11:33.943Z</time></trkpt><trkpt lat="47.34822104900701" lon="-1.9552032061234617"><ele>8.600000000000001</ele><time>2026-03-22T09:11:35.943Z</time></trkpt><trkpt lat="47.34815896415314" lon="-1.9550980402507467"><ele>8.8</ele><time>2026-03-22T09:11:37.943Z</time></trkpt><trkpt lat="47.34812136567556" lon="-1.9550097413310694"><ele>9.0</ele><time>2026-03-22T09:11:39.943Z</time></trkpt><trkpt lat="47.34811431729019" lon="-1.9548946062560253"><ele>9.0</ele><time>2026-03-22T09:11:44.943Z</time></trkpt><trkpt lat="47.348203793219305" lon="-1.9548340872226988"><ele>9.0</ele><time>2026-03-22T09:11:46.942Z</time></trkpt><trkpt lat="47.348293738424765" lon="-1.9548138160587336"><ele>9.0</ele><time>2026-03-22T09:11:48.942Z</time></trkpt><trkpt lat="47.34839290572357" lon="-1.954796804881267"><ele>9.0</ele><time>2026-03-22T09:11:50.942Z</time></trkpt><trkpt lat="47.34849884782164" lon="-1.9547717664637685"><ele>9.0</ele><time>2026-03-22T09:11:52.942Z</time></trkpt><trkpt lat="47.348608718466" lon="-1.9547495125931031"><ele>9.0</ele><time>2026-03-22T09:11:54.942Z</time></trkpt><trkpt lat="47.34871703777256" lon="-1.9547251374798356"><ele>9.0</ele><time>2026-03-22T09:11:56.942Z</time></trkpt><trkpt lat="47.34883004309079" lon="-1.954694740324507"><ele>9.0</ele><time>2026-03-22T09:11:58.942Z</time></trkpt><trkpt lat="47.348939410740876" lon="-1.954663514887665"><ele>9.0</ele><time>2026-03-22T09:12:00.942Z</time></trkpt><trkpt lat="47.349048114641924" lon="-1.9546430461706852"><ele>9.0</ele><time>2026-03-22T09:12:02.942Z</time></trkpt><trkpt lat="47.34916137527556" lon="-1.9546228785320507"><ele>9.2</ele><time>2026-03-22T09:12:04.942Z</time></trkpt><trkpt lat="47.349277513412666" lon="-1.9545977285600087"><ele>9.4</ele><time>2026-03-22T09:12:06.942Z</time></trkpt><trkpt lat="47.34939818073479" lon="-1.9545719612853254"><ele>9.6</ele><time>2026-03-22T09:12:08.942Z</time></trkpt><trkpt lat="47.349516730466206" lon="-1.9545450646176736"><ele>9.8</ele><time>2026-03-22T09:12:10.942Z</time></trkpt><trkpt lat="47.34958409445769" lon="-1.9545265075283276"><ele>10.0</ele><time>2026-03-22T09:12:11.942Z</time></trkpt><trkpt lat="47.34969746384601" lon="-1.954516022163899"><ele>10.0</ele><time>2026-03-22T09:12:13.942Z</time></trkpt><trkpt lat="47.34981530265126" lon="-1.9544917832256152"><ele>10.0</ele><time>2026-03-22T09:12:15.942Z</time></trkpt><trkpt lat="47.34987730444176" lon="-1.9544726484435422"><ele>10.0</ele><time>2026-03-22T09:12:16.942Z</time></trkpt><trkpt lat="47.34994042848798" lon="-1.9544558102764722"><ele>10.0</ele><time>2026-03-22T09:12:17.942Z</time></trkpt><trkpt lat="47.35000319591505" lon="-1.9544403549029892"><ele>10.0</ele><time>2026-03-22T09:12:18.942Z</time></trkpt><trkpt lat="47.35012395474019" lon="-1.9544149152594146"><ele>10.0</ele><time>2026-03-22T09:12:20.942Z</time></trkpt><trkpt lat="47.35018787558492" lon="-1.9543994106383837"><ele>10.0</ele><time>2026-03-22T09:12:21.942Z</time></trkpt><trkpt lat="47.35030613239072" lon="-1.9543697150141892"><ele>10.0</ele><time>2026-03-22T09:12:23.942Z</time></trkpt><trkpt lat="47.35042154215768" lon="-1.954342410153005"><ele>10.0</ele><time>2026-03-22T09:12:25.942Z</time></trkpt><trkpt lat="47.350539458520124" lon="-1.9543179352583657"><ele>10.0</ele><time>2026-03-22T09:12:27.942Z</time></trkpt><trkpt lat="47.35066211673173" lon="-1.9542906071666653"><ele>10.0</ele><time>2026-03-22T09:12:29.942Z</time></trkpt><trkpt lat="47.3507801310079" lon="-1.954259390978957"><ele>10.0</ele><time>2026-03-22T09:12:31.943Z</time></trkpt><trkpt lat="47.35084406315477" lon="-1.9542455036044015"><ele>10.0</ele><time>2026-03-22T09:12:32.943Z</time></trkpt><trkpt lat="47.35096108962121" lon="-1.9542269190108152"><ele>10.0</ele><time>2026-03-22T09:12:34.942Z</time></trkpt><trkpt lat="47.35108334248722" lon="-1.954198395730446"><ele>10.0</ele><time>2026-03-22T09:12:36.942Z</time></trkpt><trkpt lat="47.35120855004214" lon="-1.9541687836249613"><ele>9.6</ele><time>2026-03-22T09:12:38.942Z</time></trkpt><trkpt lat="47.351331471150125" lon="-1.9541427926825494"><ele>9.2</ele><time>2026-03-22T09:12:40.942Z</time></trkpt><trkpt lat="47.35145528208772" lon="-1.9541122409642724"><ele>8.8</ele><time>2026-03-22T09:12:42.943Z</time></trkpt><trkpt lat="47.35151788762087" lon="-1.9540977840677625"><ele>8.4</ele><time>2026-03-22T09:12:43.942Z</time></trkpt><trkpt lat="47.35158328956206" lon="-1.9540810937235442"><ele>8.0</ele><time>2026-03-22T09:12:44.942Z</time></trkpt><trkpt lat="47.35170070530759" lon="-1.9540566775510375"><ele>8.0</ele><time>2026-03-22T09:12:46.942Z</time></trkpt><trkpt lat="47.351829124221794" lon="-1.954029795057251"><ele>8.0</ele><time>2026-03-22T09:12:48.942Z</time></trkpt><trkpt lat="47.35194411333638" lon="-1.9540087084171003"><ele>8.0</ele><time>2026-03-22T09:12:50.942Z</time></trkpt><trkpt lat="47.35205649861744" lon="-1.9539863551795638"><ele>8.0</ele><time>2026-03-22T09:12:52.942Z</time></trkpt><trkpt lat="47.35216890951454" lon="-1.953963494762557"><ele>8.25</ele><time>2026-03-22T09:12:54.942Z</time></trkpt><trkpt lat="47.352283313814" lon="-1.9539409911395476"><ele>8.5</ele><time>2026-03-22T09:12:56.942Z</time></trkpt><trkpt lat="47.35240332493647" lon="-1.9539169326297767"><ele>8.75</ele><time>2026-03-22T09:12:58.942Z</time></trkpt><trkpt lat="47.352516146111476" lon="-1.953889751081019"><ele>9.0</ele><time>2026-03-22T09:13:00.942Z</time></trkpt><trkpt lat="47.3526276888911" lon="-1.953868975856428"><ele>9.0</ele><time>2026-03-22T09:13:02.942Z</time></trkpt><trkpt lat="47.352744350569544" lon="-1.9538377065022237"><ele>9.0</ele><time>2026-03-22T09:13:04.942Z</time></trkpt><trkpt lat="47.35285570619756" lon="-1.9538123031163297"><ele>9.0</ele><time>2026-03-22T09:13:06.942Z</time></trkpt><trkpt lat="47.35296618671296" lon="-1.9537835648860828"><ele>9.0</ele><time>2026-03-22T09:13:08.942Z</time></trkpt><trkpt lat="47.35307832543685" lon="-1.9537640076934164"><ele>9.2</ele><time>2026-03-22T09:13:10.942Z</time></trkpt><trkpt lat="47.353188268341235" lon="-1.953735420052415"><ele>9.4</ele><time>2026-03-22T09:13:12.942Z</time></trkpt><trkpt lat="47.353296372050266" lon="-1.9537125430504032"><ele>9.6</ele><time>2026-03-22T09:13:14.942Z</time></trkpt><trkpt lat="47.35340441994172" lon="-1.9536825824139736"><ele>9.8</ele><time>2026-03-22T09:13:16.942Z</time></trkpt><trkpt lat="47.35351302749477" lon="-1.9536545750419942"><ele>10.0</ele><time>2026-03-22T09:13:18.942Z</time></trkpt><trkpt lat="47.353621392471105" lon="-1.9536374451923826"><ele>10.0</ele><time>2026-03-22T09:13:20.942Z</time></trkpt><trkpt lat="47.353722988659754" lon="-1.9536165827604677"><ele>10.0</ele><time>2026-03-22T09:13:22.942Z</time></trkpt><trkpt lat="47.353826600909194" lon="-1.9535959058573649"><ele>10.0</ele><time>2026-03-22T09:13:24.942Z</time></trkpt><trkpt lat="47.35393321539559" lon="-1.953572760310045"><ele>10.0</ele><time>2026-03-22T09:13:26.942Z</time></trkpt><trkpt lat="47.35404197783259" lon="-1.953558639161237"><ele>10.0</ele><time>2026-03-22T09:13:28.942Z</time></trkpt><trkpt lat="47.35414713129336" lon="-1.9535401969058943"><ele>10.0</ele><time>2026-03-22T09:13:30.942Z</time></trkpt><trkpt lat="47.354252350676305" lon="-1.9535293864399152"><ele>10.0</ele><time>2026-03-22T09:13:32.942Z</time></trkpt><trkpt lat="47.354359544374084" lon="-1.9535346349097382"><ele>10.0</ele><time>2026-03-22T09:13:34.942Z</time></trkpt><trkpt lat="47.354473052092274" lon="-1.9535376778309885"><ele>10.0</ele><time>2026-03-22T09:13:36.942Z</time></trkpt><trkpt lat="47.35458282388208" lon="-1.9535458836032005"><ele>10.0</ele><time>2026-03-22T09:13:38.941Z</time></trkpt><trkpt lat="47.35469489693732" lon="-1.953564283708148"><ele>9.6</ele><time>2026-03-22T09:13:40.941Z</time></trkpt><trkpt lat="47.35480707482543" lon="-1.9535761301708567"><ele>9.2</ele><time>2026-03-22T09:13:42.941Z</time></trkpt><trkpt lat="47.35491125010656" lon="-1.9535908382415863"><ele>8.8</ele><time>2026-03-22T09:13:44.941Z</time></trkpt><trkpt lat="47.35501908060047" lon="-1.9536262732188203"><ele>8.4</ele><time>2026-03-22T09:13:46.941Z</time></trkpt><trkpt lat="47.35513041476979" lon="-1.9536428504607162"><ele>8.0</ele><time>2026-03-22T09:13:48.941Z</time></trkpt><trkpt lat="47.355235326413116" lon="-1.9536847974050127"><ele>8.0</ele><time>2026-03-22T09:13:50.941Z</time></trkpt><trkpt lat="47.3553419178792" lon="-1.9537228934671955"><ele>8.0</ele><time>2026-03-22T09:13:52.941Z</time></trkpt><trkpt lat="47.35544754437225" lon="-1.9537623104596824"><ele>8.0</ele><time>2026-03-22T09:13:54.941Z</time></trkpt><trkpt lat="47.355548954463146" lon="-1.9538050880682265"><ele>8.0</ele><time>2026-03-22T09:13:56.941Z</time></trkpt><trkpt lat="47.355640522404514" lon="-1.953860029108474"><ele>8.0</ele><time>2026-03-22T09:13:58.941Z</time></trkpt><trkpt lat="47.355741264826094" lon="-1.953900414296628"><ele>8.600000000000001</ele><time>2026-03-22T09:14:00.941Z</time></trkpt><trkpt lat="47.35583064822359" lon="-1.9539568303440207"><ele>9.200000000000001</ele><time>2026-03-22T09:14:02.941Z</time></trkpt><trkpt lat="47.35592049773911" lon="-1.9540154328342807"><ele>9.8</ele><time>2026-03-22T09:14:04.941Z</time></trkpt><trkpt lat="47.35601568611274" lon="-1.9540728304671982"><ele>10.4</ele><time>2026-03-22T09:14:06.941Z</time></trkpt><trkpt lat="47.356101502936866" lon="-1.9541361772454489"><ele>11.0</ele><time>2026-03-22T09:14:08.941Z</time></trkpt><trkpt lat="47.35618854010011" lon="-1.9542056655878068"><ele>11.0</ele><time>2026-03-22T09:14:10.941Z</time></trkpt><trkpt lat="47.35627799642145" lon="-1.954271749363936"><ele>11.0</ele><time>2026-03-22T09:14:12.941Z</time></trkpt><trkpt lat="47.35636875550516" lon="-1.9543339708855525"><ele>11.0</ele><time>2026-03-22T09:14:14.941Z</time></trkpt><trkpt lat="47.35646020612363" lon="-1.954404673545851"><ele>11.0</ele><time>2026-03-22T09:14:16.941Z</time></trkpt><trkpt lat="47.356549181112854" lon="-1.954471915148379"><ele>11.0</ele><time>2026-03-22T09:14:18.941Z</time></trkpt><trkpt lat="47.35664003446083" lon="-1.9545438166710452"><ele>11.0</ele><time>2026-03-22T09:14:20.941Z</time></trkpt><trkpt lat="47.35673809379895" lon="-1.9546150696996545"><ele>11.0</ele><time>2026-03-22T09:14:22.941Z</time></trkpt><trkpt lat="47.35683526880788" lon="-1.9546866308863748"><ele>11.0</ele><time>2026-03-22T09:14:24.941Z</time></trkpt><trkpt lat="47.356927802344046" lon="-1.9547557668273527"><ele>11.0</ele><time>2026-03-22T09:14:26.941Z</time></trkpt><trkpt lat="47.357021087065434" lon="-1.9548316197784574"><ele>11.0</ele><time>2026-03-22T09:14:28.941Z</time></trkpt><trkpt lat="47.3571197361175" lon="-1.9549060367138071"><ele>11.0</ele><time>2026-03-22T09:14:30.941Z</time></trkpt><trkpt lat="47.35721180372468" lon="-1.9549805967713731"><ele>11.0</ele><time>2026-03-22T09:14:32.941Z</time></trkpt><trkpt lat="47.35731140253414" lon="-1.9550502003138084"><ele>11.0</ele><time>2026-03-22T09:14:34.941Z</time></trkpt><trkpt lat="47.35740402367869" lon="-1.9551233744160634"><ele>11.0</ele><time>2026-03-22T09:14:36.941Z</time></trkpt><trkpt lat="47.35750397821538" lon="-1.9551916773398845"><ele>11.0</ele><time>2026-03-22T09:14:38.941Z</time></trkpt><trkpt lat="47.35760424989784" lon="-1.9552678824255056"><ele>11.0</ele><time>2026-03-22T09:14:40.941Z</time></trkpt><trkpt lat="47.35771043588638" lon="-1.955333246128377"><ele>11.0</ele><time>2026-03-22T09:14:42.942Z</time></trkpt><trkpt lat="47.35781334164782" lon="-1.9553872363506521"><ele>11.0</ele><time>2026-03-22T09:14:44.942Z</time></trkpt><trkpt lat="47.35791732926607" lon="-1.9554463512618088"><ele>11.0</ele><time>2026-03-22T09:14:46.941Z</time></trkpt><trkpt lat="47.358023887708164" lon="-1.9555056504246722"><ele>11.200000000000001</ele><time>2026-03-22T09:14:48.942Z</time></trkpt><trkpt lat="47.35811840028618" lon="-1.9555509745504749"><ele>11.4</ele><time>2026-03-22T09:14:50.941Z</time></trkpt><trkpt lat="47.35821162331863" lon="-1.9555933614282839"><ele>11.6</ele><time>2026-03-22T09:14:52.941Z</time></trkpt><trkpt lat="47.35831339711072" lon="-1.9556209037105885"><ele>11.8</ele><time>2026-03-22T09:14:54.941Z</time></trkpt><trkpt lat="47.35840355903952" lon="-1.955647295582182"><ele>12.0</ele><time>2026-03-22T09:14:56.941Z</time></trkpt><trkpt lat="47.35848838715929" lon="-1.9556725712232548"><ele>12.0</ele><time>2026-03-22T09:14:58.941Z</time></trkpt><trkpt lat="47.35857027457484" lon="-1.9556847745186672"><ele>12.0</ele><time>2026-03-22T09:15:00.941Z</time></trkpt><trkpt lat="47.35864504596315" lon="-1.955707360980388"><ele>12.0</ele><time>2026-03-22T09:15:02.941Z</time></trkpt><trkpt lat="47.35872155255192" lon="-1.9557296379879723"><ele>12.0</ele><time>2026-03-22T09:15:04.941Z</time></trkpt><trkpt lat="47.35879933954224" lon="-1.9557410785502352"><ele>12.0</ele><time>2026-03-22T09:15:06.941Z</time></trkpt><trkpt lat="47.35886921693877" lon="-1.9557556660382192"><ele>12.0</ele><time>2026-03-22T09:15:08.941Z</time></trkpt><trkpt lat="47.358945027460535" lon="-1.9557724909384884"><ele>12.333333333333334</ele><time>2026-03-22T09:15:10.941Z</time></trkpt><trkpt lat="47.35902225158182" lon="-1.9557762767270765"><ele>12.666666666666668</ele><time>2026-03-22T09:15:12.941Z</time></trkpt><trkpt lat="47.35909732574518" lon="-1.9557833023188456"><ele>13.0</ele><time>2026-03-22T09:15:14.941Z</time></trkpt><trkpt lat="47.35917515733063" lon="-1.9557902209840514"><ele>13.333333333333334</ele><time>2026-03-22T09:15:16.941Z</time></trkpt><trkpt lat="47.35925498875488" lon="-1.9557916466692666"><ele>13.666666666666668</ele><time>2026-03-22T09:15:18.941Z</time></trkpt><trkpt lat="47.35933720823928" lon="-1.955782892947793"><ele>14.0</ele><time>2026-03-22T09:15:20.941Z</time></trkpt><trkpt lat="47.35942023587952" lon="-1.9557767374108217"><ele>14.000000000000002</ele><time>2026-03-22T09:15:22.941Z</time></trkpt><trkpt lat="47.35950357818932" lon="-1.955764363470452"><ele>14.0</ele><time>2026-03-22T09:15:24.941Z</time></trkpt><trkpt lat="47.359594586130264" lon="-1.9557472617738165"><ele>14.0</ele><time>2026-03-22T09:15:26.941Z</time></trkpt><trkpt lat="47.35967810816435" lon="-1.9557473990792325"><ele>14.0</ele><time>2026-03-22T09:15:28.941Z</time></trkpt><trkpt lat="47.35976235941561" lon="-1.9557421791231389"><ele>14.000000000000002</ele><time>2026-03-22T09:15:30.941Z</time></trkpt><trkpt lat="47.359845562717226" lon="-1.9557242068681593"><ele>14.0</ele><time>2026-03-22T09:15:32.941Z</time></trkpt><trkpt lat="47.35993354938293" lon="-1.9557154562645302"><ele>14.500000000000002</ele><time>2026-03-22T09:15:34.941Z</time></trkpt><trkpt lat="47.360012640179754" lon="-1.9557157626224184"><ele>15.0</ele><time>2026-03-22T09:15:36.941Z</time></trkpt><trkpt lat="47.36008825096318" lon="-1.9557036874687552"><ele>15.5</ele><time>2026-03-22T09:15:38.941Z</time></trkpt><trkpt lat="47.360159226918135" lon="-1.9557017017525498"><ele>16.0</ele><time>2026-03-22T09:15:40.941Z</time></trkpt><trkpt lat="47.36022218889469" lon="-1.955692554198396"><ele>16.5</ele><time>2026-03-22T09:15:42.941Z</time></trkpt><trkpt lat="47.36031183337704" lon="-1.9556865159242616"><ele>17.0</ele><time>2026-03-22T09:15:45.941Z</time></trkpt><trkpt lat="47.360387571657725" lon="-1.9556933996242452"><ele>17.0</ele><time>2026-03-22T09:15:47.941Z</time></trkpt><trkpt lat="47.36047868300329" lon="-1.955675463905116"><ele>17.0</ele><time>2026-03-22T09:15:49.941Z</time></trkpt><trkpt lat="47.36056757729244" lon="-1.9556682481377436"><ele>17.0</ele><time>2026-03-22T09:15:51.941Z</time></trkpt><trkpt lat="47.360630378914045" lon="-1.9556448332670724"><ele>17.0</ele><time>2026-03-22T09:15:53.94Z</time></trkpt><trkpt lat="47.3607021241564" lon="-1.9555553837847925"><ele>17.0</ele><time>2026-03-22T09:15:57.94Z</time></trkpt><trkpt lat="47.36073024365811" lon="-1.955413071909648"><ele>17.0</ele><time>2026-03-22T09:15:59.941Z</time></trkpt><trkpt lat="47.360702250015535" lon="-1.955259620004408"><ele>17.0</ele><time>2026-03-22T09:16:01.944Z</time></trkpt><trkpt lat="47.36064326152768" lon="-1.9551154609718249"><ele>17.0</ele><time>2026-03-22T09:16:03.946Z</time></trkpt><trkpt lat="47.36057816394279" lon="-1.9549702451152633"><ele>17.0</ele><time>2026-03-22T09:16:05.949Z</time></trkpt><trkpt lat="47.36050838438575" lon="-1.9548219938375055"><ele>17.0</ele><time>2026-03-22T09:16:07.95Z</time></trkpt><trkpt lat="47.36044476311269" lon="-1.9546695692733278"><ele>16.999999999999996</ele><time>2026-03-22T09:16:09.952Z</time></trkpt><trkpt lat="47.36040913720477" lon="-1.9545888226455177"><ele>17.0</ele><time>2026-03-22T09:16:10.953Z</time></trkpt><trkpt lat="47.360372133909735" lon="-1.954507126863926"><ele>17.0</ele><time>2026-03-22T09:16:11.954Z</time></trkpt><trkpt lat="47.36033575913438" lon="-1.954423488414546"><ele>17.0</ele><time>2026-03-22T09:16:12.954Z</time></trkpt><trkpt lat="47.36030496144969" lon="-1.9543389395730268"><ele>17.0</ele><time>2026-03-22T09:16:13.955Z</time></trkpt><trkpt lat="47.360269418962346" lon="-1.9542583845869135"><ele>16.999999999999996</ele><time>2026-03-22T09:16:14.955Z</time></trkpt><trkpt lat="47.360232200405115" lon="-1.954170299968564"><ele>17.0</ele><time>2026-03-22T09:16:15.956Z</time></trkpt><trkpt lat="47.36019916454902" lon="-1.954086836075976"><ele>17.2</ele><time>2026-03-22T09:16:16.956Z</time></trkpt><trkpt lat="47.360137729586924" lon="-1.953920565955603"><ele>17.4</ele><time>2026-03-22T09:16:18.957Z</time></trkpt><trkpt lat="47.360073134268006" lon="-1.9537625668733714"><ele>17.6</ele><time>2026-03-22T09:16:20.958Z</time></trkpt><trkpt lat="47.36004104983928" lon="-1.9536796984899611"><ele>17.8</ele><time>2026-03-22T09:16:21.958Z</time></trkpt><trkpt lat="47.36000972748693" lon="-1.9535944914005727"><ele>18.0</ele><time>2026-03-22T09:16:22.959Z</time></trkpt><trkpt lat="47.35994603763144" lon="-1.9534343666143623"><ele>17.8</ele><time>2026-03-22T09:16:24.959Z</time></trkpt><trkpt lat="47.359879483037744" lon="-1.9532802561713103"><ele>17.6</ele><time>2026-03-22T09:16:26.96Z</time></trkpt><trkpt lat="47.35981526966827" lon="-1.9531262544567247"><ele>17.4</ele><time>2026-03-22T09:16:28.96Z</time></trkpt><trkpt lat="47.35978015193975" lon="-1.9530472518332178"><ele>17.2</ele><time>2026-03-22T09:16:29.961Z</time></trkpt><trkpt lat="47.359714709262846" lon="-1.952886474642302"><ele>17.0</ele><time>2026-03-22T09:16:31.961Z</time></trkpt><trkpt lat="47.359679046298986" lon="-1.9528095014829117"><ele>17.0</ele><time>2026-03-22T09:16:32.961Z</time></trkpt><trkpt lat="47.35961576627901" lon="-1.952653220120905"><ele>17.0</ele><time>2026-03-22T09:16:34.962Z</time></trkpt><trkpt lat="47.35958292521147" lon="-1.9525738335918388"><ele>17.0</ele><time>2026-03-22T09:16:35.962Z</time></trkpt><trkpt lat="47.359520850384854" lon="-1.9524191434569906"><ele>17.0</ele><time>2026-03-22T09:16:37.962Z</time></trkpt><trkpt lat="47.35945704305006" lon="-1.952259873139085"><ele>17.0</ele><time>2026-03-22T09:16:39.962Z</time></trkpt><trkpt lat="47.35941988693015" lon="-1.9521775428906107"><ele>17.142857142857142</ele><time>2026-03-22T09:16:40.962Z</time></trkpt><trkpt lat="47.35938686297921" lon="-1.9520950988893584"><ele>17.285714285714285</ele><time>2026-03-22T09:16:41.963Z</time></trkpt><trkpt lat="47.35935226589812" lon="-1.9520101235958573"><ele>17.42857142857143</ele><time>2026-03-22T09:16:42.963Z</time></trkpt><trkpt lat="47.35931613935541" lon="-1.951922563158928"><ele>17.57142857142857</ele><time>2026-03-22T09:16:43.963Z</time></trkpt><trkpt lat="47.35928478837488" lon="-1.9518335829652391"><ele>17.714285714285715</ele><time>2026-03-22T09:16:44.963Z</time></trkpt><trkpt lat="47.359257822019494" lon="-1.9517463041243204"><ele>17.857142857142858</ele><time>2026-03-22T09:16:45.963Z</time></trkpt><trkpt lat="47.35921632740363" lon="-1.9516651142928698"><ele>18.0</ele><time>2026-03-22T09:16:46.963Z</time></trkpt><trkpt lat="47.35917694142686" lon="-1.9515833868867316"><ele>18.2</ele><time>2026-03-22T09:16:47.964Z</time></trkpt><trkpt lat="47.359152713037" lon="-1.9514889501948836"><ele>18.4</ele><time>2026-03-22T09:16:48.963Z</time></trkpt><trkpt lat="47.35909144462208" lon="-1.9513380732836876"><ele>18.599999999999998</ele><time>2026-03-22T09:16:50.963Z</time></trkpt><trkpt lat="47.359032401869" lon="-1.9511828014100703"><ele>18.8</ele><time>2026-03-22T09:16:52.963Z</time></trkpt><trkpt lat="47.358965099262605" lon="-1.9510248585116585"><ele>19.0</ele><time>2026-03-22T09:16:54.964Z</time></trkpt><trkpt lat="47.35893017209496" lon="-1.9509388936849172"><ele>19.285714285714285</ele><time>2026-03-22T09:16:55.964Z</time></trkpt><trkpt lat="47.35890377258848" lon="-1.9508484644312183"><ele>19.571428571428573</ele><time>2026-03-22T09:16:56.964Z</time></trkpt><trkpt lat="47.35886320956514" lon="-1.950762341053695"><ele>19.857142857142858</ele><time>2026-03-22T09:16:57.964Z</time></trkpt><trkpt lat="47.35881753914837" lon="-1.9506807376730448"><ele>20.142857142857142</ele><time>2026-03-22T09:16:58.964Z</time></trkpt><trkpt lat="47.358782326653085" lon="-1.9505949945452212"><ele>20.42857142857143</ele><time>2026-03-22T09:16:59.964Z</time></trkpt><trkpt lat="47.35873011173326" lon="-1.9505429232862708"><ele>20.714285714285715</ele><time>2026-03-22T09:17:00.964Z</time></trkpt><trkpt lat="47.35865611975058" lon="-1.9505336663981765"><ele>21.0</ele><time>2026-03-22T09:17:01.964Z</time></trkpt><trkpt lat="47.358592037849895" lon="-1.9503734041904208"><ele>20.400000000000002</ele><time>2026-03-22T09:17:03.964Z</time></trkpt><trkpt lat="47.358603775687136" lon="-1.9502784751574909"><ele>19.8</ele><time>2026-03-22T09:17:04.964Z</time></trkpt><trkpt lat="47.35861710504092" lon="-1.9501501825121008"><ele>19.200000000000003</ele><time>2026-03-22T09:17:06.964Z</time></trkpt><trkpt lat="47.35856166374374" lon="-1.9500168118997414"><ele>18.6</ele><time>2026-03-22T09:17:08.964Z</time></trkpt><trkpt lat="47.3585049589517" lon="-1.9498809375070778"><ele>18.0</ele><time>2026-03-22T09:17:10.964Z</time></trkpt><trkpt lat="47.35845531676551" lon="-1.9497572032869424"><ele>18.0</ele><time>2026-03-22T09:17:12.964Z</time></trkpt><trkpt lat="47.35840498455645" lon="-1.9496306747923033"><ele>18.0</ele><time>2026-03-22T09:17:14.964Z</time></trkpt><trkpt lat="47.358351776539756" lon="-1.9495019712666528"><ele>18.0</ele><time>2026-03-22T09:17:16.964Z</time></trkpt><trkpt lat="47.35830189884824" lon="-1.9493808270509259"><ele>18.0</ele><time>2026-03-22T09:17:18.964Z</time></trkpt><trkpt lat="47.358250203282154" lon="-1.9492569861317297"><ele>18.0</ele><time>2026-03-22T09:17:20.964Z</time></trkpt><trkpt lat="47.358207556502954" lon="-1.9491348129549808"><ele>17.833333333333332</ele><time>2026-03-22T09:17:22.964Z</time></trkpt><trkpt lat="47.35815578481323" lon="-1.9490154401696949"><ele>17.666666666666668</ele><time>2026-03-22T09:17:24.964Z</time></trkpt><trkpt lat="47.35811350080294" lon="-1.9488957236549824"><ele>17.5</ele><time>2026-03-22T09:17:26.964Z</time></trkpt><trkpt lat="47.35806579946967" lon="-1.9487832093188941"><ele>17.333333333333336</ele><time>2026-03-22T09:17:28.964Z</time></trkpt><trkpt lat="47.358031070508524" lon="-1.9486742691499268"><ele>17.166666666666668</ele><time>2026-03-22T09:17:30.964Z</time></trkpt><trkpt lat="47.35800699462373" lon="-1.9485565875063244"><ele>17.0</ele><time>2026-03-22T09:17:32.964Z</time></trkpt><trkpt lat="47.35800759843919" lon="-1.9484327207931036"><ele>18.0</ele><time>2026-03-22T09:17:34.964Z</time></trkpt><trkpt lat="47.358058790690556" lon="-1.948340940918737"><ele>19.0</ele><time>2026-03-22T09:17:36.964Z</time></trkpt><trkpt lat="47.35811516118768" lon="-1.948293277120134"><ele>20.0</ele><time>2026-03-22T09:17:38.964Z</time></trkpt><trkpt lat="47.35817951934285" lon="-1.9482357132751758"><ele>21.0</ele><time>2026-03-22T09:17:41.964Z</time></trkpt><trkpt lat="47.35825313483911" lon="-1.9481587604507233"><ele>22.0</ele><time>2026-03-22T09:17:44.964Z</time></trkpt><trkpt lat="47.358325563527394" lon="-1.9480833316226582"><ele>23.0</ele><time>2026-03-22T09:17:47.964Z</time></trkpt><trkpt lat="47.35839345416405" lon="-1.9480171410096743"><ele>23.0</ele><time>2026-03-22T09:17:50.964Z</time></trkpt><trkpt lat="47.35845319634895" lon="-1.9479424285178195"><ele>23.0</ele><time>2026-03-22T09:17:53.964Z</time></trkpt><trkpt lat="47.3585123326817" lon="-1.9478753714911936"><ele>23.0</ele><time>2026-03-22T09:17:56.964Z</time></trkpt><trkpt lat="47.35857699733477" lon="-1.9478107597181578"><ele>23.0</ele><time>2026-03-22T09:17:59.964Z</time></trkpt><trkpt lat="47.35864363803058" lon="-1.947750156151971"><ele>23.0</ele><time>2026-03-22T09:18:02.964Z</time></trkpt><trkpt lat="47.35870942457181" lon="-1.9476811862682286"><ele>23.0</ele><time>2026-03-22T09:18:05.964Z</time></trkpt><trkpt lat="47.35877223245576" lon="-1.947623028115173"><ele>23.0</ele><time>2026-03-22T09:18:08.964Z</time></trkpt><trkpt lat="47.35883410558668" lon="-1.9475710274334046"><ele>23.0</ele><time>2026-03-22T09:18:11.964Z</time></trkpt><trkpt lat="47.35889135713735" lon="-1.9475152193137157"><ele>23.0</ele><time>2026-03-22T09:18:14.964Z</time></trkpt><trkpt lat="47.3589507460803" lon="-1.947451011724351"><ele>23.0</ele><time>2026-03-22T09:18:17.964Z</time></trkpt><trkpt lat="47.35901615079789" lon="-1.9473861530605903"><ele>23.0</ele><time>2026-03-22T09:18:20.964Z</time></trkpt><trkpt lat="47.359078971088024" lon="-1.9473172201529099"><ele>23.0</ele><time>2026-03-22T09:18:23.964Z</time></trkpt><trkpt lat="47.35914333492364" lon="-1.9472499790254298"><ele>23.0</ele><time>2026-03-22T09:18:26.964Z</time></trkpt><trkpt lat="47.35916827582004" lon="-1.9471377677031425"><ele>24.571428571428573</ele><time>2026-03-22T09:18:29.964Z</time></trkpt><trkpt lat="47.359186649783524" lon="-1.9470350058774077"><ele>26.14285714285714</ele><time>2026-03-22T09:18:32.964Z</time></trkpt><trkpt lat="47.35921060501161" lon="-1.9469230570506024"><ele>27.71428571428571</ele><time>2026-03-22T09:18:35.964Z</time></trkpt><trkpt lat="47.35922068088768" lon="-1.9468164349330805"><ele>29.285714285714285</ele><time>2026-03-22T09:18:38.964Z</time></trkpt><trkpt lat="47.3592438768892" lon="-1.946718070735291"><ele>30.857142857142854</ele><time>2026-03-22T09:18:41.964Z</time></trkpt><trkpt lat="47.359270889404385" lon="-1.9466116066209238"><ele>32.42857142857142</ele><time>2026-03-22T09:18:44.963Z</time></trkpt><trkpt lat="47.35929273891715" lon="-1.9465126644922714"><ele>34.0</ele><time>2026-03-22T09:18:47.964Z</time></trkpt><trkpt lat="47.359318626372975" lon="-1.9464242600315544"><ele>34.57142857142857</ele><time>2026-03-22T09:18:50.964Z</time></trkpt><trkpt lat="47.35938526459145" lon="-1.946368096297078"><ele>35.14285714285714</ele><time>2026-03-22T09:18:53.964Z</time></trkpt><trkpt lat="47.359437010799745" lon="-1.9463098715519094"><ele>35.71428571428571</ele><time>2026-03-22T09:18:56.964Z</time></trkpt><trkpt lat="47.35950620274872" lon="-1.9462717402095049"><ele>36.285714285714285</ele><time>2026-03-22T09:18:59.964Z</time></trkpt><trkpt lat="47.35956491448774" lon="-1.9462228818345866"><ele>36.85714285714286</ele><time>2026-03-22T09:19:02.964Z</time></trkpt><trkpt lat="47.3596302499519" lon="-1.9461731521726908"><ele>37.42857142857142</ele><time>2026-03-22T09:19:05.964Z</time></trkpt><trkpt lat="47.35969715126368" lon="-1.946123338993056"><ele>38.0</ele><time>2026-03-22T09:19:08.964Z</time></trkpt><trkpt lat="47.35975842417764" lon="-1.946078933385285"><ele>39.0</ele><time>2026-03-22T09:19:11.964Z</time></trkpt><trkpt lat="47.359822610891406" lon="-1.9460340659331057"><ele>40.0</ele><time>2026-03-22T09:19:14.964Z</time></trkpt><trkpt lat="47.35988469770805" lon="-1.9460026521728866"><ele>41.0</ele><time>2026-03-22T09:19:17.964Z</time></trkpt><trkpt lat="47.35994943114034" lon="-1.9459380940715816"><ele>42.0</ele><time>2026-03-22T09:19:20.964Z</time></trkpt><trkpt lat="47.36001490694383" lon="-1.9458977958321027"><ele>43.0</ele><time>2026-03-22T09:19:23.963Z</time></trkpt><trkpt lat="47.36007274528355" lon="-1.9458217959219941"><ele>44.0</ele><time>2026-03-22T09:19:26.963Z</time></trkpt><trkpt lat="47.36015407802572" lon="-1.9457875082608864"><ele>45.0</ele><time>2026-03-22T09:19:29.963Z</time></trkpt><trkpt lat="47.36021557074305" lon="-1.9457448347531794"><ele>45.5</ele><time>2026-03-22T09:19:32.963Z</time></trkpt><trkpt lat="47.3602812741011" lon="-1.945700240515691"><ele>46.0</ele><time>2026-03-22T09:19:35.963Z</time></trkpt><trkpt lat="47.3603451219509" lon="-1.945642405007463"><ele>46.5</ele><time>2026-03-22T09:19:38.963Z</time></trkpt><trkpt lat="47.360412786783186" lon="-1.9455930140872961"><ele>47.0</ele><time>2026-03-22T09:19:41.963Z</time></trkpt><trkpt lat="47.36048086296669" lon="-1.945534565561371"><ele>47.5</ele><time>2026-03-22T09:19:44.963Z</time></trkpt><trkpt lat="47.360514473089175" lon="-1.945438423916744"><ele>48.0</ele><time>2026-03-22T09:19:47.963Z</time></trkpt><trkpt lat="47.36054100326267" lon="-1.945326776367854"><ele>48.0</ele><time>2026-03-22T09:19:50.963Z</time></trkpt><trkpt lat="47.360532545211385" lon="-1.945208730826742"><ele>48.0</ele><time>2026-03-22T09:19:53.963Z</time></trkpt><trkpt lat="47.36052675644905" lon="-1.9450903026361794"><ele>48.0</ele><time>2026-03-22T09:19:56.963Z</time></trkpt><trkpt lat="47.36050693958351" lon="-1.944963471255463"><ele>48.0</ele><time>2026-03-22T09:19:59.963Z</time></trkpt><trkpt lat="47.360487308628336" lon="-1.9448388127287224"><ele>48.0</ele><time>2026-03-22T09:20:02.963Z</time></trkpt><trkpt lat="47.360459933107386" lon="-1.9447118799161323"><ele>48.0</ele><time>2026-03-22T09:20:05.963Z</time></trkpt><trkpt lat="47.36042490983989" lon="-1.9445831145315136"><ele>48.166666666666664</ele><time>2026-03-22T09:20:08.963Z</time></trkpt><trkpt lat="47.36039724859445" lon="-1.9444508172515915"><ele>48.33333333333333</ele><time>2026-03-22T09:20:11.963Z</time></trkpt><trkpt lat="47.360375307773715" lon="-1.9443238661020064"><ele>48.5</ele><time>2026-03-22T09:20:14.963Z</time></trkpt><trkpt lat="47.360341127915106" lon="-1.944228672864646"><ele>48.666666666666664</ele><time>2026-03-22T09:20:16.963Z</time></trkpt><trkpt lat="47.36030983818835" lon="-1.9441204876793838"><ele>48.83333333333333</ele><time>2026-03-22T09:20:18.963Z</time></trkpt><trkpt lat="47.36026649759663" lon="-1.94402439722623"><ele>49.0</ele><time>2026-03-22T09:20:20.963Z</time></trkpt><trkpt lat="47.3602365522752" lon="-1.9439168497595842"><ele>49.49999999999999</ele><time>2026-03-22T09:20:22.963Z</time></trkpt><trkpt lat="47.36018877800392" lon="-1.943814028181025"><ele>50.0</ele><time>2026-03-22T09:20:24.963Z</time></trkpt><trkpt lat="47.360153274974024" lon="-1.9437069630144432"><ele>50.5</ele><time>2026-03-22T09:20:26.963Z</time></trkpt><trkpt lat="47.36012334127308" lon="-1.9436004971780003"><ele>51.0</ele><time>2026-03-22T09:20:28.963Z</time></trkpt><trkpt lat="47.360093747382386" lon="-1.943507589735268"><ele>51.49999999999999</ele><time>2026-03-22T09:20:30.963Z</time></trkpt><trkpt lat="47.3600787558558" lon="-1.9433941172907436"><ele>52.0</ele><time>2026-03-22T09:20:32.963Z</time></trkpt><trkpt lat="47.36009059107822" lon="-1.9432694340241445"><ele>52.49999999999999</ele><time>2026-03-22T09:20:34.963Z</time></trkpt><trkpt lat="47.36010026884741" lon="-1.9431561489316036"><ele>53.0</ele><time>2026-03-22T09:20:36.963Z</time></trkpt><trkpt lat="47.36014194423094" lon="-1.9430636711037774"><ele>53.5</ele><time>2026-03-22T09:20:38.963Z</time></trkpt><trkpt lat="47.36018156200277" lon="-1.9429677286106266"><ele>54.0</ele><time>2026-03-22T09:20:40.963Z</time></trkpt><trkpt lat="47.36022850418498" lon="-1.9428673624725719"><ele>54.49999999999999</ele><time>2026-03-22T09:20:42.963Z</time></trkpt><trkpt lat="47.36028637141094" lon="-1.9427833495921534"><ele>55.0</ele><time>2026-03-22T09:20:44.963Z</time></trkpt><trkpt lat="47.36032756779389" lon="-1.9426805299782308"><ele>54.99999999999999</ele><time>2026-03-22T09:20:46.963Z</time></trkpt><trkpt lat="47.36036971921458" lon="-1.9425876596077254"><ele>55.0</ele><time>2026-03-22T09:20:48.963Z</time></trkpt><trkpt lat="47.360401225160935" lon="-1.9424983830644473"><ele>55.0</ele><time>2026-03-22T09:20:50.963Z</time></trkpt><trkpt lat="47.36044680584516" lon="-1.942423427199156"><ele>55.0</ele><time>2026-03-22T09:20:52.963Z</time></trkpt><trkpt lat="47.36050226565152" lon="-1.9423652817448023"><ele>54.99999999999999</ele><time>2026-03-22T09:20:54.963Z</time></trkpt><trkpt lat="47.360580122097346" lon="-1.9423178784803572"><ele>55.0</ele><time>2026-03-22T09:20:56.964Z</time></trkpt><trkpt lat="47.36066278289389" lon="-1.9422673088982314"><ele>55.166666666666664</ele><time>2026-03-22T09:20:58.963Z</time></trkpt><trkpt lat="47.36074759743685" lon="-1.9422213434869986"><ele>55.33333333333333</ele><time>2026-03-22T09:21:00.963Z</time></trkpt><trkpt lat="47.36083183247942" lon="-1.9421707834923911"><ele>55.5</ele><time>2026-03-22T09:21:02.964Z</time></trkpt><trkpt lat="47.36091589683301" lon="-1.9421165407757506"><ele>55.66666666666667</ele><time>2026-03-22T09:21:04.964Z</time></trkpt><trkpt lat="47.36099235087919" lon="-1.9420897505545973"><ele>55.833333333333336</ele><time>2026-03-22T09:21:06.964Z</time></trkpt><trkpt lat="47.361084051055705" lon="-1.9420519997575887"><ele>56.0</ele><time>2026-03-22T09:21:08.964Z</time></trkpt><trkpt lat="47.361176145988836" lon="-1.9420229954093953"><ele>56.0</ele><time>2026-03-22T09:21:10.964Z</time></trkpt><trkpt lat="47.36125958408656" lon="-1.942005233621831"><ele>55.99999999999999</ele><time>2026-03-22T09:21:12.964Z</time></trkpt><trkpt lat="47.361324205043246" lon="-1.9419118117501502"><ele>55.99999999999999</ele><time>2026-03-22T09:21:15.964Z</time></trkpt><trkpt lat="47.3612983981727" lon="-1.941764776583266"><ele>56.0</ele><time>2026-03-22T09:21:17.964Z</time></trkpt><trkpt lat="47.361260262764134" lon="-1.9416193623741504"><ele>56.0</ele><time>2026-03-22T09:21:19.964Z</time></trkpt><trkpt lat="47.36122913575482" lon="-1.9414733678016807"><ele>56.199999999999996</ele><time>2026-03-22T09:21:21.964Z</time></trkpt><trkpt lat="47.36119855215889" lon="-1.9413337406093234"><ele>56.39999999999999</ele><time>2026-03-22T09:21:23.964Z</time></trkpt><trkpt lat="47.36118720606199" lon="-1.9411872209629464"><ele>56.6</ele><time>2026-03-22T09:21:25.964Z</time></trkpt><trkpt lat="47.36116436531039" lon="-1.941042628273579"><ele>56.8</ele><time>2026-03-22T09:21:27.964Z</time></trkpt><trkpt lat="47.3611396790137" lon="-1.9409006349720048"><ele>57.0</ele><time>2026-03-22T09:21:29.964Z</time></trkpt><trkpt lat="47.361116724029905" lon="-1.9407540049432115"><ele>57.0</ele><time>2026-03-22T09:21:31.963Z</time></trkpt><trkpt lat="47.36109020073043" lon="-1.9406154592150349"><ele>57.0</ele><time>2026-03-22T09:21:33.963Z</time></trkpt><trkpt lat="47.36105961597055" lon="-1.9404762299154361"><ele>57.0</ele><time>2026-03-22T09:21:35.963Z</time></trkpt><trkpt lat="47.36103744715591" lon="-1.9403307728436163"><ele>57.0</ele><time>2026-03-22T09:21:37.963Z</time></trkpt><trkpt lat="47.36102988397914" lon="-1.9401875392021923"><ele>57.0</ele><time>2026-03-22T09:21:39.963Z</time></trkpt><trkpt lat="47.36103554914896" lon="-1.940036291907974"><ele>57.333333333333336</ele><time>2026-03-22T09:21:41.963Z</time></trkpt><trkpt lat="47.36102731340174" lon="-1.9398947696672977"><ele>57.66666666666667</ele><time>2026-03-22T09:21:43.963Z</time></trkpt><trkpt lat="47.36102840359445" lon="-1.9397675787085744"><ele>58.0</ele><time>2026-03-22T09:21:45.963Z</time></trkpt><trkpt lat="47.36100714943136" lon="-1.9396747050532892"><ele>58.333333333333336</ele><time>2026-03-22T09:21:47.963Z</time></trkpt><trkpt lat="47.36096660844611" lon="-1.9395955847533222"><ele>58.66666666666667</ele><time>2026-03-22T09:21:50.963Z</time></trkpt><trkpt lat="47.360983495552404" lon="-1.9394867621117617"><ele>59.0</ele><time>2026-03-22T09:21:52.963Z</time></trkpt><trkpt lat="47.361021895560604" lon="-1.9393756400229103"><ele>59.0</ele><time>2026-03-22T09:21:54.963Z</time></trkpt><trkpt lat="47.36104901165604" lon="-1.9392444338702401"><ele>59.00000000000001</ele><time>2026-03-22T09:21:56.963Z</time></trkpt><trkpt lat="47.361060861970834" lon="-1.9391127634813234"><ele>59.00000000000001</ele><time>2026-03-22T09:21:58.963Z</time></trkpt><trkpt lat="47.36109658470217" lon="-1.9389709167168558"><ele>59.0</ele><time>2026-03-22T09:22:00.963Z</time></trkpt><trkpt lat="47.361127964478555" lon="-1.9388361063679411"><ele>59.0</ele><time>2026-03-22T09:22:02.963Z</time></trkpt><trkpt lat="47.361170137863226" lon="-1.938707062767914"><ele>58.833333333333336</ele><time>2026-03-22T09:22:04.963Z</time></trkpt><trkpt lat="47.36121013898457" lon="-1.9385877805322869"><ele>58.66666666666667</ele><time>2026-03-22T09:22:06.963Z</time></trkpt><trkpt lat="47.36125026550406" lon="-1.9384686034832836"><ele>58.5</ele><time>2026-03-22T09:22:08.963Z</time></trkpt><trkpt lat="47.36128222534264" lon="-1.9383459756447163"><ele>58.33333333333333</ele><time>2026-03-22T09:22:10.963Z</time></trkpt><trkpt lat="47.36131398569763" lon="-1.9382291978681223"><ele>58.166666666666664</ele><time>2026-03-22T09:22:12.963Z</time></trkpt><trkpt lat="47.36135064335314" lon="-1.938102163613804"><ele>58.0</ele><time>2026-03-22T09:22:14.963Z</time></trkpt><trkpt lat="47.361371869343" lon="-1.937961552317"><ele>58.599999999999994</ele><time>2026-03-22T09:22:16.963Z</time></trkpt><trkpt lat="47.361399924537906" lon="-1.9378139130831498"><ele>59.199999999999996</ele><time>2026-03-22T09:22:18.963Z</time></trkpt><trkpt lat="47.361442086582265" lon="-1.9376722558658386"><ele>59.8</ele><time>2026-03-22T09:22:20.963Z</time></trkpt><trkpt lat="47.36147166947452" lon="-1.9375172938424547"><ele>60.4</ele><time>2026-03-22T09:22:22.963Z</time></trkpt><trkpt lat="47.361522324508684" lon="-1.9373871320602025"><ele>61.0</ele><time>2026-03-22T09:22:24.963Z</time></trkpt><trkpt lat="47.36158391711283" lon="-1.9372622852140227"><ele>61.0</ele><time>2026-03-22T09:22:26.963Z</time></trkpt><trkpt lat="47.36163959865578" lon="-1.9371418726902006"><ele>60.99999999999999</ele><time>2026-03-22T09:22:28.963Z</time></trkpt><trkpt lat="47.36169981132731" lon="-1.9370109915859295"><ele>60.99999999999999</ele><time>2026-03-22T09:22:30.963Z</time></trkpt><trkpt lat="47.36174861601445" lon="-1.9368587059436382"><ele>61.0</ele><time>2026-03-22T09:22:32.963Z</time></trkpt><trkpt lat="47.36177517593911" lon="-1.9367052608211592"><ele>61.0</ele><time>2026-03-22T09:22:34.963Z</time></trkpt><trkpt lat="47.36181126882756" lon="-1.9365550561973202"><ele>60.75</ele><time>2026-03-22T09:22:36.963Z</time></trkpt><trkpt lat="47.361825317522566" lon="-1.9363834733574459"><ele>60.5</ele><time>2026-03-22T09:22:38.963Z</time></trkpt><trkpt lat="47.36182851032899" lon="-1.936216103849466"><ele>60.25</ele><time>2026-03-22T09:22:40.963Z</time></trkpt><trkpt lat="47.361822352825534" lon="-1.936047349110515"><ele>60.0</ele><time>2026-03-22T09:22:42.963Z</time></trkpt><trkpt lat="47.36180612688755" lon="-1.9358752092572122"><ele>59.75</ele><time>2026-03-22T09:22:44.963Z</time></trkpt><trkpt lat="47.361775552666614" lon="-1.9357273046457768"><ele>59.5</ele><time>2026-03-22T09:22:46.963Z</time></trkpt><trkpt lat="47.36175011243169" lon="-1.935549337266725"><ele>59.25</ele><time>2026-03-22T09:22:48.963Z</time></trkpt><trkpt lat="47.36170742455793" lon="-1.9353962099850845"><ele>59.0</ele><time>2026-03-22T09:22:50.963Z</time></trkpt><trkpt lat="47.36166148459741" lon="-1.935246139557994"><ele>59.00000000000001</ele><time>2026-03-22T09:22:52.963Z</time></trkpt><trkpt lat="47.36160610003038" lon="-1.9351189330347685"><ele>59.0</ele><time>2026-03-22T09:22:54.963Z</time></trkpt><trkpt lat="47.361547870777095" lon="-1.9349821743896447"><ele>59.0</ele><time>2026-03-22T09:22:56.963Z</time></trkpt><trkpt lat="47.36152160896862" lon="-1.9348970504985854"><ele>59.0</ele><time>2026-03-22T09:22:57.963Z</time></trkpt><trkpt lat="47.36151420780372" lon="-1.9348014758472074"><ele>59.00000000000001</ele><time>2026-03-22T09:22:58.963Z</time></trkpt><trkpt lat="47.36150052828269" lon="-1.934650959367988"><ele>59.0</ele><time>2026-03-22T09:23:00.963Z</time></trkpt><trkpt lat="47.36150753779162" lon="-1.9345250556033353"><ele>58.66666666666667</ele><time>2026-03-22T09:23:02.963Z</time></trkpt><trkpt lat="47.3615033667664" lon="-1.9344099544145408"><ele>58.333333333333336</ele><time>2026-03-22T09:23:04.964Z</time></trkpt><trkpt lat="47.36152138160779" lon="-1.9343118370156427"><ele>58.0</ele><time>2026-03-22T09:23:06.963Z</time></trkpt><trkpt lat="47.36157057135887" lon="-1.9342526393803092"><ele>57.66666666666667</ele><time>2026-03-22T09:25:07.963Z</time></trkpt><trkpt lat="47.3616033693169" lon="-1.934132852694058"><ele>57.333333333333336</ele><time>2026-03-22T09:25:10.963Z</time></trkpt><trkpt lat="47.361631323394434" lon="-1.9339971566845566"><ele>57.0</ele><time>2026-03-22T09:25:12.962Z</time></trkpt><trkpt lat="47.36167382308091" lon="-1.9338454432143932"><ele>56.75</ele><time>2026-03-22T09:25:14.962Z</time></trkpt><trkpt lat="47.36171351231432" lon="-1.933685786864119"><ele>56.5</ele><time>2026-03-22T09:25:16.963Z</time></trkpt><trkpt lat="47.36173916546085" lon="-1.933516440791544"><ele>56.25</ele><time>2026-03-22T09:25:18.962Z</time></trkpt><trkpt lat="47.3617750638213" lon="-1.9333525119783805"><ele>56.0</ele><time>2026-03-22T09:25:20.962Z</time></trkpt><trkpt lat="47.361813146793594" lon="-1.933176968973471"><ele>55.599999999999994</ele><time>2026-03-22T09:25:22.962Z</time></trkpt><trkpt lat="47.36183761845973" lon="-1.933011149038903"><ele>55.199999999999996</ele><time>2026-03-22T09:25:24.962Z</time></trkpt><trkpt lat="47.36186342192318" lon="-1.9328527518666219"><ele>54.800000000000004</ele><time>2026-03-22T09:25:26.962Z</time></trkpt><trkpt lat="47.361892278614015" lon="-1.9326798399691119"><ele>54.400000000000006</ele><time>2026-03-22T09:25:28.962Z</time></trkpt><trkpt lat="47.36191059831094" lon="-1.932590029748278"><ele>54.0</ele><time>2026-03-22T09:25:29.962Z</time></trkpt><trkpt lat="47.361923081486324" lon="-1.932495220273644"><ele>53.857142857142854</ele><time>2026-03-22T09:25:30.962Z</time></trkpt><trkpt lat="47.361933329117" lon="-1.932398951459865"><ele>53.71428571428571</ele><time>2026-03-22T09:25:31.962Z</time></trkpt><trkpt lat="47.361964873864224" lon="-1.9323015134438803"><ele>53.57142857142857</ele><time>2026-03-22T09:25:32.962Z</time></trkpt><trkpt lat="47.36200169187553" lon="-1.9322161288533222"><ele>53.42857142857143</ele><time>2026-03-22T09:25:33.962Z</time></trkpt><trkpt lat="47.36203167584568" lon="-1.9321260150672457"><ele>53.285714285714285</ele><time>2026-03-22T09:25:34.962Z</time></trkpt><trkpt lat="47.36204980992584" lon="-1.9320199195402745"><ele>53.142857142857146</ele><time>2026-03-22T09:25:35.962Z</time></trkpt><trkpt lat="47.362063213607996" lon="-1.931925223311265"><ele>53.0</ele><time>2026-03-22T09:25:36.962Z</time></trkpt><trkpt lat="47.36206992078014" lon="-1.9318214208418942"><ele>53.0</ele><time>2026-03-22T09:25:37.962Z</time></trkpt><trkpt lat="47.36205498287565" lon="-1.9317226770325986"><ele>53.0</ele><time>2026-03-22T09:25:38.962Z</time></trkpt><trkpt lat="47.36199655151611" lon="-1.9315702418750242"><ele>53.0</ele><time>2026-03-22T09:25:40.962Z</time></trkpt><trkpt lat="47.36196269619074" lon="-1.931414690794682"><ele>53.0</ele><time>2026-03-22T09:25:42.962Z</time></trkpt><trkpt lat="47.36193103479126" lon="-1.931274735627595"><ele>53.0</ele><time>2026-03-22T09:25:44.962Z</time></trkpt><trkpt lat="47.361875408997975" lon="-1.931150857499169"><ele>53.0</ele><time>2026-03-22T09:25:46.962Z</time></trkpt><trkpt lat="47.361790005770565" lon="-1.9310471510931686"><ele>53.0</ele><time>2026-03-22T09:25:48.962Z</time></trkpt><trkpt lat="47.361709933147864" lon="-1.9309424165967617"><ele>53.0</ele><time>2026-03-22T09:25:50.962Z</time></trkpt><trkpt lat="47.36162417125869" lon="-1.9308424500713215"><ele>53.0</ele><time>2026-03-22T09:25:52.962Z</time></trkpt><trkpt lat="47.36153584604796" lon="-1.9307357816488073"><ele>53.0</ele><time>2026-03-22T09:25:54.962Z</time></trkpt><trkpt lat="47.36144090288679" lon="-1.9306211295461335"><ele>52.85714285714286</ele><time>2026-03-22T09:25:56.962Z</time></trkpt><trkpt lat="47.36138941170702" lon="-1.9305552364307972"><ele>52.71428571428571</ele><time>2026-03-22T09:25:57.962Z</time></trkpt><trkpt lat="47.36133216189565" lon="-1.9304975648328986"><ele>52.57142857142857</ele><time>2026-03-22T09:25:58.962Z</time></trkpt><trkpt lat="47.361276988830824" lon="-1.9304141228155813"><ele>52.42857142857143</ele><time>2026-03-22T09:25:59.962Z</time></trkpt><trkpt lat="47.361221724564984" lon="-1.9303333781235414"><ele>52.28571428571429</ele><time>2026-03-22T09:26:00.962Z</time></trkpt><trkpt lat="47.36115959242496" lon="-1.9302588645036167"><ele>52.14285714285714</ele><time>2026-03-22T09:26:01.962Z</time></trkpt><trkpt lat="47.36110359492721" lon="-1.9301887683490129"><ele>52.0</ele><time>2026-03-22T09:26:02.962Z</time></trkpt><trkpt lat="47.36104791863886" lon="-1.9301230387613"><ele>51.99999999999999</ele><time>2026-03-22T09:26:03.962Z</time></trkpt><trkpt lat="47.36099837418302" lon="-1.9300651687948507"><ele>52.0</ele><time>2026-03-22T09:26:04.962Z</time></trkpt><trkpt lat="47.36090580760445" lon="-1.9299514500187989"><ele>52.0</ele><time>2026-03-22T09:26:06.962Z</time></trkpt><trkpt lat="47.360839457107915" lon="-1.9298846917832082"><ele>52.0</ele><time>2026-03-22T09:26:08.961Z</time></trkpt><trkpt lat="47.36078100751011" lon="-1.9298181104687038"><ele>51.99999999999999</ele><time>2026-03-22T09:26:11.961Z</time></trkpt><trkpt lat="47.36074994055985" lon="-1.9296987554853795"><ele>52.0</ele><time>2026-03-22T09:26:14.961Z</time></trkpt><trkpt lat="47.36078089071974" lon="-1.9295705245928285"><ele>52.2</ele><time>2026-03-22T09:26:16.961Z</time></trkpt><trkpt lat="47.36081521674205" lon="-1.9294283999883983"><ele>52.400000000000006</ele><time>2026-03-22T09:26:18.961Z</time></trkpt><trkpt lat="47.36079832519997" lon="-1.9292937867636972"><ele>52.599999999999994</ele><time>2026-03-22T09:26:20.961Z</time></trkpt><trkpt lat="47.3607935119337" lon="-1.9291664699365259"><ele>52.8</ele><time>2026-03-22T09:26:22.961Z</time></trkpt><trkpt lat="47.36077975837969" lon="-1.929034649682955"><ele>53.0</ele><time>2026-03-22T09:26:24.961Z</time></trkpt><trkpt lat="47.36077350036074" lon="-1.9289051072916226"><ele>53.333333333333336</ele><time>2026-03-22T09:26:26.961Z</time></trkpt><trkpt lat="47.36076921977438" lon="-1.9287785290247628"><ele>53.66666666666667</ele><time>2026-03-22T09:26:28.961Z</time></trkpt><trkpt lat="47.36076398313884" lon="-1.928652530025393"><ele>54.0</ele><time>2026-03-22T09:26:30.961Z</time></trkpt><trkpt lat="47.36074330149503" lon="-1.9285343547626235"><ele>54.33333333333333</ele><time>2026-03-22T09:26:32.961Z</time></trkpt><trkpt lat="47.360731033765056" lon="-1.9284237686967223"><ele>54.666666666666664</ele><time>2026-03-22T09:26:34.961Z</time></trkpt><trkpt lat="47.36073418092405" lon="-1.9283288268969674"><ele>55.0</ele><time>2026-03-22T09:26:36.961Z</time></trkpt><trkpt lat="47.36073335569021" lon="-1.9282190321881716"><ele>55.0</ele><time>2026-03-22T09:26:39.961Z</time></trkpt><trkpt lat="47.360755912793095" lon="-1.928345941936894"><ele>55.0</ele><time>2026-03-22T09:27:02.961Z</time></trkpt><trkpt lat="47.360766435557636" lon="-1.9284995270420757"><ele>55.0</ele><time>2026-03-22T09:27:04.961Z</time></trkpt><trkpt lat="47.36077540540762" lon="-1.9286570623326125"><ele>55.0</ele><time>2026-03-22T09:27:06.961Z</time></trkpt><trkpt lat="47.36078589302627" lon="-1.9288357738707804"><ele>55.0</ele><time>2026-03-22T09:27:08.961Z</time></trkpt><trkpt lat="47.36079308425666" lon="-1.9290206503499907"><ele>54.99999999999999</ele><time>2026-03-22T09:27:10.961Z</time></trkpt><trkpt lat="47.36080023963615" lon="-1.9291208660969559"><ele>55.0</ele><time>2026-03-22T09:27:11.962Z</time></trkpt><trkpt lat="47.36080653896589" lon="-1.929221762896481"><ele>55.0</ele><time>2026-03-22T09:27:12.962Z</time></trkpt><trkpt lat="47.36080979168029" lon="-1.9293196525849787"><ele>55.0</ele><time>2026-03-22T09:27:13.962Z</time></trkpt><trkpt lat="47.36081209928892" lon="-1.9294999343861103"><ele>54.99999999999999</ele><time>2026-03-22T09:27:15.962Z</time></trkpt><trkpt lat="47.36078439957975" lon="-1.9296580247674067"><ele>55.0</ele><time>2026-03-22T09:27:17.962Z</time></trkpt><trkpt lat="47.3607214205745" lon="-1.9298036611256582"><ele>54.666666666666664</ele><time>2026-03-22T09:27:19.963Z</time></trkpt><trkpt lat="47.36067590337382" lon="-1.9298769947748977"><ele>54.33333333333333</ele><time>2026-03-22T09:27:20.962Z</time></trkpt><trkpt lat="47.360620514999496" lon="-1.9299509887427817"><ele>54.0</ele><time>2026-03-22T09:27:21.962Z</time></trkpt><trkpt lat="47.360492738297694" lon="-1.9300718678328435"><ele>53.66666666666667</ele><time>2026-03-22T09:27:23.962Z</time></trkpt><trkpt lat="47.36042158314347" lon="-1.930104575276663"><ele>53.333333333333336</ele><time>2026-03-22T09:27:24.962Z</time></trkpt><trkpt lat="47.36035067174693" lon="-1.9301506058526243"><ele>53.0</ele><time>2026-03-22T09:27:25.962Z</time></trkpt><trkpt lat="47.36027833102746" lon="-1.930193526134218"><ele>52.66666666666667</ele><time>2026-03-22T09:27:26.962Z</time></trkpt><trkpt lat="47.36020967573398" lon="-1.9302435089304042"><ele>52.333333333333336</ele><time>2026-03-22T09:27:27.962Z</time></trkpt><trkpt lat="47.36014208743415" lon="-1.9302944571467886"><ele>52.0</ele><time>2026-03-22T09:27:28.962Z</time></trkpt><trkpt lat="47.360078367504435" lon="-1.9303375470969801"><ele>51.66666666666667</ele><time>2026-03-22T09:27:29.962Z</time></trkpt><trkpt lat="47.35997483993231" lon="-1.9304646347444534"><ele>51.333333333333336</ele><time>2026-03-22T09:27:31.962Z</time></trkpt><trkpt lat="47.35993107457972" lon="-1.9305487928244864"><ele>51.0</ele><time>2026-03-22T09:27:32.962Z</time></trkpt><trkpt lat="47.359892816699926" lon="-1.930637753374074"><ele>51.0</ele><time>2026-03-22T09:27:33.962Z</time></trkpt><trkpt lat="47.35986002331365" lon="-1.9307298858445918"><ele>51.0</ele><time>2026-03-22T09:27:34.962Z</time></trkpt><trkpt lat="47.35982931762895" lon="-1.9308264349107587"><ele>51.0</ele><time>2026-03-22T09:27:35.962Z</time></trkpt><trkpt lat="47.359793994688744" lon="-1.9309132474735855"><ele>51.0</ele><time>2026-03-22T09:27:36.962Z</time></trkpt><trkpt lat="47.35976400087407" lon="-1.9310076806457357"><ele>51.0</ele><time>2026-03-22T09:27:37.962Z</time></trkpt><trkpt lat="47.35972790971149" lon="-1.9310973282772685"><ele>51.0</ele><time>2026-03-22T09:27:38.962Z</time></trkpt><trkpt lat="47.359691285789665" lon="-1.9311908842605654"><ele>51.0</ele><time>2026-03-22T09:27:39.962Z</time></trkpt><trkpt lat="47.35965710663842" lon="-1.931282769113132"><ele>50.714285714285715</ele><time>2026-03-22T09:27:40.962Z</time></trkpt><trkpt lat="47.35962956284098" lon="-1.9313768100559303"><ele>50.42857142857143</ele><time>2026-03-22T09:27:41.962Z</time></trkpt><trkpt lat="47.35959100688476" lon="-1.9314677620110183"><ele>50.14285714285714</ele><time>2026-03-22T09:27:42.962Z</time></trkpt><trkpt lat="47.35955552404695" lon="-1.9315560082715397"><ele>49.85714285714286</ele><time>2026-03-22T09:27:43.962Z</time></trkpt><trkpt lat="47.35952290409767" lon="-1.9316471871393175"><ele>49.57142857142857</ele><time>2026-03-22T09:27:44.962Z</time></trkpt><trkpt lat="47.3594925984013" lon="-1.9317410374952868"><ele>49.285714285714285</ele><time>2026-03-22T09:27:45.962Z</time></trkpt><trkpt lat="47.35946033556593" lon="-1.9318260574596895"><ele>49.0</ele><time>2026-03-22T09:27:46.962Z</time></trkpt><trkpt lat="47.3594274986173" lon="-1.931924826299304"><ele>48.857142857142854</ele><time>2026-03-22T09:27:47.962Z</time></trkpt><trkpt lat="47.359398341928824" lon="-1.9320222580825657"><ele>48.714285714285715</ele><time>2026-03-22T09:27:48.962Z</time></trkpt><trkpt lat="47.35936046099807" lon="-1.9321132587221526"><ele>48.57142857142857</ele><time>2026-03-22T09:27:49.962Z</time></trkpt><trkpt lat="47.35932417397727" lon="-1.9322045975687627"><ele>48.42857142857143</ele><time>2026-03-22T09:27:50.962Z</time></trkpt><trkpt lat="47.35929511148964" lon="-1.932302011878617"><ele>48.285714285714285</ele><time>2026-03-22T09:27:51.962Z</time></trkpt><trkpt lat="47.35927442485335" lon="-1.9324001370452315"><ele>48.14285714285714</ele><time>2026-03-22T09:27:52.962Z</time></trkpt><trkpt lat="47.35925873066626" lon="-1.9325089734400387"><ele>48.0</ele><time>2026-03-22T09:27:53.962Z</time></trkpt><trkpt lat="47.35924890274689" lon="-1.9326193676397994"><ele>47.857142857142854</ele><time>2026-03-22T09:27:54.962Z</time></trkpt><trkpt lat="47.35924723885776" lon="-1.9327267944882038"><ele>47.714285714285715</ele><time>2026-03-22T09:27:55.962Z</time></trkpt><trkpt lat="47.359256355180406" lon="-1.9328328136616562"><ele>47.57142857142857</ele><time>2026-03-22T09:27:56.962Z</time></trkpt><trkpt lat="47.35927421197263" lon="-1.9329443391772636"><ele>47.42857142857143</ele><time>2026-03-22T09:27:57.962Z</time></trkpt><trkpt lat="47.359291719681735" lon="-1.9330373239949559"><ele>47.285714285714285</ele><time>2026-03-22T09:27:58.962Z</time></trkpt><trkpt lat="47.35931891800887" lon="-1.9331256013634763"><ele>47.14285714285714</ele><time>2026-03-22T09:27:59.962Z</time></trkpt><trkpt lat="47.35934380603833" lon="-1.933212979270488"><ele>47.0</ele><time>2026-03-22T09:28:00.962Z</time></trkpt><trkpt lat="47.35937186800657" lon="-1.9333045015166637"><ele>47.5</ele><time>2026-03-22T09:28:01.962Z</time></trkpt><trkpt lat="47.35940189717554" lon="-1.933405946435715"><ele>48.0</ele><time>2026-03-22T09:28:02.962Z</time></trkpt><trkpt lat="47.35943899636984" lon="-1.9334968819539418"><ele>48.5</ele><time>2026-03-22T09:28:03.962Z</time></trkpt><trkpt lat="47.3594708227862" lon="-1.933595998767753"><ele>49.0</ele><time>2026-03-22T09:28:04.962Z</time></trkpt><trkpt lat="47.359499544192175" lon="-1.9337048482075025"><ele>49.50000000000001</ele><time>2026-03-22T09:28:05.962Z</time></trkpt><trkpt lat="47.35952835782073" lon="-1.9337999558997232"><ele>50.0</ele><time>2026-03-22T09:28:06.962Z</time></trkpt><trkpt lat="47.35955804902873" lon="-1.933910473240529"><ele>50.00000000000001</ele><time>2026-03-22T09:28:07.962Z</time></trkpt><trkpt lat="47.35959308335354" lon="-1.9340126691168587"><ele>50.0</ele><time>2026-03-22T09:28:08.962Z</time></trkpt><trkpt lat="47.359626132232314" lon="-1.934109896670601"><ele>50.0</ele><time>2026-03-22T09:28:09.962Z</time></trkpt><trkpt lat="47.35965334781216" lon="-1.9342023617710264"><ele>50.0</ele><time>2026-03-22T09:28:10.962Z</time></trkpt><trkpt lat="47.35968036992752" lon="-1.9342942551577318"><ele>50.0</ele><time>2026-03-22T09:28:11.962Z</time></trkpt><trkpt lat="47.359714707174376" lon="-1.9343819946623817"><ele>50.00000000000001</ele><time>2026-03-22T09:28:12.962Z</time></trkpt><trkpt lat="47.35973667928132" lon="-1.93447472317252"><ele>50.0</ele><time>2026-03-22T09:28:13.962Z</time></trkpt><trkpt lat="47.359760292163315" lon="-1.9345630255026696"><ele>50.5</ele><time>2026-03-22T09:28:14.962Z</time></trkpt><trkpt lat="47.35980536391012" lon="-1.9347300494807034"><ele>51.0</ele><time>2026-03-22T09:28:16.962Z</time></trkpt><trkpt lat="47.35985482459851" lon="-1.9348860998588944"><ele>51.5</ele><time>2026-03-22T09:28:18.962Z</time></trkpt><trkpt lat="47.359886831041734" lon="-1.9350390345680542"><ele>52.0</ele><time>2026-03-22T09:28:20.962Z</time></trkpt><trkpt lat="47.3599103033154" lon="-1.9351929308743607"><ele>52.0</ele><time>2026-03-22T09:28:22.962Z</time></trkpt><trkpt lat="47.3599293376658" lon="-1.9353350742742228"><ele>52.0</ele><time>2026-03-22T09:28:24.962Z</time></trkpt><trkpt lat="47.3599254824122" lon="-1.935467852438567"><ele>52.0</ele><time>2026-03-22T09:28:26.962Z</time></trkpt><trkpt lat="47.35992542629789" lon="-1.9355991462355955"><ele>52.0</ele><time>2026-03-22T09:28:28.962Z</time></trkpt><trkpt lat="47.35993106830687" lon="-1.935738995760367"><ele>52.0</ele><time>2026-03-22T09:28:30.962Z</time></trkpt><trkpt lat="47.359932476702724" lon="-1.9358825627245697"><ele>52.33333333333333</ele><time>2026-03-22T09:28:32.962Z</time></trkpt><trkpt lat="47.35993958942893" lon="-1.936022503340523"><ele>52.666666666666664</ele><time>2026-03-22T09:28:34.962Z</time></trkpt><trkpt lat="47.35994748795822" lon="-1.9361526771044355"><ele>53.0</ele><time>2026-03-22T09:28:36.962Z</time></trkpt><trkpt lat="47.359947208659726" lon="-1.9362652104892715"><ele>53.33333333333333</ele><time>2026-03-22T09:28:38.962Z</time></trkpt><trkpt lat="47.3599675578305" lon="-1.9363783999223685"><ele>53.666666666666664</ele><time>2026-03-22T09:28:40.962Z</time></trkpt><trkpt lat="47.35997642735289" lon="-1.9364976352618597"><ele>54.0</ele><time>2026-03-22T09:28:42.962Z</time></trkpt><trkpt lat="47.35998684104519" lon="-1.9366036799695023"><ele>54.333333333333336</ele><time>2026-03-22T09:28:44.962Z</time></trkpt><trkpt lat="47.36000507581751" lon="-1.9367237603922365"><ele>54.66666666666667</ele><time>2026-03-22T09:28:46.962Z</time></trkpt><trkpt lat="47.3600280315947" lon="-1.936850933384311"><ele>55.0</ele><time>2026-03-22T09:28:48.962Z</time></trkpt><trkpt lat="47.36004949758082" lon="-1.9369737432396659"><ele>55.333333333333336</ele><time>2026-03-22T09:28:50.961Z</time></trkpt><trkpt lat="47.36006565386185" lon="-1.9371016519376092"><ele>55.66666666666667</ele><time>2026-03-22T09:28:52.961Z</time></trkpt><trkpt lat="47.36007306188004" lon="-1.9372205490631154"><ele>56.0</ele><time>2026-03-22T09:28:54.961Z</time></trkpt><trkpt lat="47.36003132690474" lon="-1.9373039292241347"><ele>56.00000000000001</ele><time>2026-03-22T09:28:56.961Z</time></trkpt><trkpt lat="47.359949419008004" lon="-1.9373412091068403"><ele>56.0</ele><time>2026-03-22T09:28:58.961Z</time></trkpt><trkpt lat="47.359862455085334" lon="-1.9373623561658004"><ele>56.0</ele><time>2026-03-22T09:29:00.961Z</time></trkpt><trkpt lat="47.359774871031476" lon="-1.9373835077303767"><ele>56.0</ele><time>2026-03-22T09:29:02.961Z</time></trkpt><trkpt lat="47.35968608071496" lon="-1.93741119413863"><ele>56.00000000000001</ele><time>2026-03-22T09:29:04.961Z</time></trkpt><trkpt lat="47.35959689741201" lon="-1.9374354406510872"><ele>56.0</ele><time>2026-03-22T09:29:06.961Z</time></trkpt><trkpt lat="47.35950760154039" lon="-1.9374535688893888"><ele>56.0</ele><time>2026-03-22T09:29:08.961Z</time></trkpt><trkpt lat="47.359413962180064" lon="-1.9374787847246737"><ele>55.99999999999999</ele><time>2026-03-22T09:29:10.961Z</time></trkpt><trkpt lat="47.35932440667746" lon="-1.9375056285480066"><ele>55.99999999999999</ele><time>2026-03-22T09:29:12.961Z</time></trkpt><trkpt lat="47.359233128564426" lon="-1.9375413310670047"><ele>56.0</ele><time>2026-03-22T09:29:14.961Z</time></trkpt><trkpt lat="47.35914686290562" lon="-1.9375729330466769"><ele>56.0</ele><time>2026-03-22T09:29:16.961Z</time></trkpt><trkpt lat="47.359058836183394" lon="-1.9376155207771248"><ele>56.333333333333336</ele><time>2026-03-22T09:29:18.961Z</time></trkpt><trkpt lat="47.35897099049812" lon="-1.9376429537460509"><ele>56.66666666666667</ele><time>2026-03-22T09:29:20.962Z</time></trkpt><trkpt lat="47.35888488355716" lon="-1.9376831403131707"><ele>57.0</ele><time>2026-03-22T09:29:22.962Z</time></trkpt><trkpt lat="47.35879662244605" lon="-1.9377059778470112"><ele>57.33333333333333</ele><time>2026-03-22T09:29:24.961Z</time></trkpt><trkpt lat="47.35871051282544" lon="-1.9377289913570492"><ele>57.666666666666664</ele><time>2026-03-22T09:29:26.962Z</time></trkpt><trkpt lat="47.358624303100704" lon="-1.9377522917069083"><ele>58.0</ele><time>2026-03-22T09:29:28.962Z</time></trkpt><trkpt lat="47.358536788949664" lon="-1.9377832499758432"><ele>58.166666666666664</ele><time>2026-03-22T09:29:30.961Z</time></trkpt><trkpt lat="47.358451524183046" lon="-1.9378103306626"><ele>58.33333333333333</ele><time>2026-03-22T09:29:32.961Z</time></trkpt><trkpt lat="47.358376337007975" lon="-1.9378223280515934"><ele>58.5</ele><time>2026-03-22T09:29:34.961Z</time></trkpt><trkpt lat="47.35828760845898" lon="-1.9378607248045787"><ele>58.66666666666667</ele><time>2026-03-22T09:29:37.961Z</time></trkpt><trkpt lat="47.35822618122243" lon="-1.937909243869746"><ele>58.833333333333336</ele><time>2026-03-22T09:29:41.961Z</time></trkpt><trkpt lat="47.358165705916775" lon="-1.937788231211562"><ele>59.0</ele><time>2026-03-22T09:29:44.961Z</time></trkpt><trkpt lat="47.35815166328512" lon="-1.9376712197906234"><ele>59.0</ele><time>2026-03-22T09:29:46.961Z</time></trkpt><trkpt lat="47.358124875474644" lon="-1.937537020205916"><ele>59.00000000000001</ele><time>2026-03-22T09:29:48.961Z</time></trkpt><trkpt lat="47.35809923702131" lon="-1.9374056367274817"><ele>59.00000000000001</ele><time>2026-03-22T09:29:50.961Z</time></trkpt><trkpt lat="47.358075522725834" lon="-1.9372645747754789"><ele>59.0</ele><time>2026-03-22T09:29:52.961Z</time></trkpt><trkpt lat="47.35804766486253" lon="-1.937113753689693"><ele>59.0</ele><time>2026-03-22T09:29:54.961Z</time></trkpt><trkpt lat="47.35801752670931" lon="-1.936961828589218"><ele>59.0</ele><time>2026-03-22T09:29:56.961Z</time></trkpt><trkpt lat="47.35798921174512" lon="-1.9367971912197104"><ele>59.00000000000001</ele><time>2026-03-22T09:29:58.961Z</time></trkpt><trkpt lat="47.35795955097964" lon="-1.9366339569122752"><ele>59.00000000000001</ele><time>2026-03-22T09:30:00.961Z</time></trkpt><trkpt lat="47.357933372231656" lon="-1.9364604875500542"><ele>59.0</ele><time>2026-03-22T09:30:02.961Z</time></trkpt><trkpt lat="47.35791547606775" lon="-1.9363686491585061"><ele>59.0</ele><time>2026-03-22T09:30:03.961Z</time></trkpt><trkpt lat="47.35789958688145" lon="-1.9362724337665158"><ele>59.0</ele><time>2026-03-22T09:30:04.961Z</time></trkpt><trkpt lat="47.35787957597328" lon="-1.9361797033258517"><ele>59.0</ele><time>2026-03-22T09:30:05.961Z</time></trkpt><trkpt lat="47.357865256919844" lon="-1.9360790135871326"><ele>59.0</ele><time>2026-03-22T09:30:06.961Z</time></trkpt><trkpt lat="47.35784225325249" lon="-1.9359812921114947"><ele>59.0</ele><time>2026-03-22T09:30:07.961Z</time></trkpt><trkpt lat="47.357823817957716" lon="-1.9358684343322305"><ele>59.0</ele><time>2026-03-22T09:30:08.961Z</time></trkpt><trkpt lat="47.35780051015921" lon="-1.9357548903659745"><ele>59.0</ele><time>2026-03-22T09:30:09.961Z</time></trkpt><trkpt lat="47.35777628852404" lon="-1.9356407763032555"><ele>59.0</ele><time>2026-03-22T09:30:10.961Z</time></trkpt><trkpt lat="47.357753306274276" lon="-1.9355205340263126"><ele>59.0</ele><time>2026-03-22T09:30:11.961Z</time></trkpt><trkpt lat="47.35772141252621" lon="-1.9354010334384486"><ele>59.00000000000001</ele><time>2026-03-22T09:30:12.961Z</time></trkpt><trkpt lat="47.357691568276806" lon="-1.9352723493419541"><ele>59.00000000000001</ele><time>2026-03-22T09:30:13.961Z</time></trkpt><trkpt lat="47.357652807524055" lon="-1.9351451909060915"><ele>59.0</ele><time>2026-03-22T09:30:14.961Z</time></trkpt><trkpt lat="47.35761746898684" lon="-1.935009513296603"><ele>59.0</ele><time>2026-03-22T09:30:15.961Z</time></trkpt><trkpt lat="47.3575866314013" lon="-1.9348717746937"><ele>57.400000000000006</ele><time>2026-03-22T09:30:16.961Z</time></trkpt><trkpt lat="47.35755414747845" lon="-1.934730981283731"><ele>55.800000000000004</ele><time>2026-03-22T09:30:17.961Z</time></trkpt><trkpt lat="47.35752385398779" lon="-1.9345960899614554"><ele>54.2</ele><time>2026-03-22T09:30:18.961Z</time></trkpt><trkpt lat="47.357513945133" lon="-1.934459380325854"><ele>52.599999999999994</ele><time>2026-03-22T09:30:19.961Z</time></trkpt><trkpt lat="47.35749418668647" lon="-1.9343241694329514"><ele>51.0</ele><time>2026-03-22T09:30:20.961Z</time></trkpt><trkpt lat="47.35748231717644" lon="-1.9341829910164345"><ele>50.4</ele><time>2026-03-22T09:30:21.961Z</time></trkpt><trkpt lat="47.35747450182575" lon="-1.9340422394103767"><ele>49.8</ele><time>2026-03-22T09:30:22.961Z</time></trkpt><trkpt lat="47.357474109472165" lon="-1.9339067473685443"><ele>49.199999999999996</ele><time>2026-03-22T09:30:23.961Z</time></trkpt><trkpt lat="47.35747369308951" lon="-1.93376508161246"><ele>48.599999999999994</ele><time>2026-03-22T09:30:24.961Z</time></trkpt><trkpt lat="47.3574593729546" lon="-1.93362187209473"><ele>48.0</ele><time>2026-03-22T09:30:25.961Z</time></trkpt><trkpt lat="47.35745667880454" lon="-1.9334824024982544"><ele>47.599999999999994</ele><time>2026-03-22T09:30:26.961Z</time></trkpt><trkpt lat="47.35745659315056" lon="-1.9333364927042378"><ele>47.199999999999996</ele><time>2026-03-22T09:30:27.961Z</time></trkpt><trkpt lat="47.35746669237909" lon="-1.9331872902207863"><ele>46.8</ele><time>2026-03-22T09:30:28.961Z</time></trkpt><trkpt lat="47.357470267131404" lon="-1.933040754844784"><ele>46.4</ele><time>2026-03-22T09:30:29.961Z</time></trkpt><trkpt lat="47.3574751052107" lon="-1.9328998748461397"><ele>46.0</ele><time>2026-03-22T09:30:30.961Z</time></trkpt><trkpt lat="47.35748376391925" lon="-1.9327672894648462"><ele>46.0</ele><time>2026-03-22T09:30:31.961Z</time></trkpt><trkpt lat="47.35749335358956" lon="-1.9326340036122296"><ele>46.0</ele><time>2026-03-22T09:30:32.961Z</time></trkpt><trkpt lat="47.35751604643944" lon="-1.9325119566750288"><ele>46.0</ele><time>2026-03-22T09:30:33.961Z</time></trkpt><trkpt lat="47.3575456189605" lon="-1.9323947706378126"><ele>46.0</ele><time>2026-03-22T09:30:34.961Z</time></trkpt><trkpt lat="47.357570757746515" lon="-1.932291586615105"><ele>46.0</ele><time>2026-03-22T09:30:35.961Z</time></trkpt><trkpt lat="47.35760709682964" lon="-1.9321906532514577"><ele>46.0</ele><time>2026-03-22T09:30:36.961Z</time></trkpt><trkpt lat="47.35765145288309" lon="-1.9321051454876548"><ele>46.199999999999996</ele><time>2026-03-22T09:30:37.961Z</time></trkpt><trkpt lat="47.35769459773687" lon="-1.9320245444566964"><ele>46.4</ele><time>2026-03-22T09:30:38.961Z</time></trkpt><trkpt lat="47.35773395733572" lon="-1.9319467256381926"><ele>46.6</ele><time>2026-03-22T09:30:39.961Z</time></trkpt><trkpt lat="47.357803465848946" lon="-1.9318168656380268"><ele>46.8</ele><time>2026-03-22T09:30:41.961Z</time></trkpt><trkpt lat="47.35787606928435" lon="-1.9316958425112285"><ele>47.0</ele><time>2026-03-22T09:30:43.961Z</time></trkpt><trkpt lat="47.357942055856356" lon="-1.9315854416996823"><ele>47.5</ele><time>2026-03-22T09:30:45.96Z</time></trkpt><trkpt lat="47.35799386734746" lon="-1.931496298243955"><ele>48.0</ele><time>2026-03-22T09:30:47.96Z</time></trkpt><trkpt lat="47.35805524879872" lon="-1.9313923652044536"><ele>48.5</ele><time>2026-03-22T09:30:49.96Z</time></trkpt><trkpt lat="47.35810459177028" lon="-1.9312863758767849"><ele>49.0</ele><time>2026-03-22T09:30:51.96Z</time></trkpt><trkpt lat="47.358147260894" lon="-1.931189803815723"><ele>49.50000000000001</ele><time>2026-03-22T09:30:53.96Z</time></trkpt><trkpt lat="47.35818128839859" lon="-1.931094444570175"><ele>50.0</ele><time>2026-03-22T09:30:55.96Z</time></trkpt><trkpt lat="47.35821686686971" lon="-1.9309832403962026"><ele>50.66666666666667</ele><time>2026-03-22T09:30:57.96Z</time></trkpt><trkpt lat="47.35824902091648" lon="-1.9308605974616941"><ele>51.333333333333336</ele><time>2026-03-22T09:30:59.96Z</time></trkpt><trkpt lat="47.35827348810646" lon="-1.9307528387179476"><ele>52.0</ele><time>2026-03-22T09:31:01.96Z</time></trkpt><trkpt lat="47.35829035587714" lon="-1.9306539476822424"><ele>52.66666666666667</ele><time>2026-03-22T09:31:03.96Z</time></trkpt><trkpt lat="47.358306834987" lon="-1.9305445677149073"><ele>53.333333333333336</ele><time>2026-03-22T09:31:05.96Z</time></trkpt><trkpt lat="47.35831715675282" lon="-1.930434665032128"><ele>54.0</ele><time>2026-03-22T09:31:07.96Z</time></trkpt><trkpt lat="47.35832839381206" lon="-1.930334874371849"><ele>54.0</ele><time>2026-03-22T09:31:09.96Z</time></trkpt><trkpt lat="47.358325776809615" lon="-1.9302351127418285"><ele>54.0</ele><time>2026-03-22T09:31:11.96Z</time></trkpt><trkpt lat="47.35832948867495" lon="-1.9301359171176546"><ele>54.0</ele><time>2026-03-22T09:31:13.96Z</time></trkpt><trkpt lat="47.35833492746369" lon="-1.930023191611681"><ele>54.0</ele><time>2026-03-22T09:31:15.96Z</time></trkpt><trkpt lat="47.358345110194165" lon="-1.9299213866974707"><ele>54.0</ele><time>2026-03-22T09:31:17.96Z</time></trkpt><trkpt lat="47.358348033734906" lon="-1.929819776470135"><ele>54.0</ele><time>2026-03-22T09:31:19.96Z</time></trkpt><trkpt lat="47.35834642923747" lon="-1.9297149540617256"><ele>54.0</ele><time>2026-03-22T09:31:21.96Z</time></trkpt><trkpt lat="47.35835289011606" lon="-1.9296009614649823"><ele>54.833333333333336</ele><time>2026-03-22T09:31:23.962Z</time></trkpt><trkpt lat="47.3583519312012" lon="-1.9294899785496342"><ele>55.66666666666667</ele><time>2026-03-22T09:31:25.962Z</time></trkpt><trkpt lat="47.358346763867274" lon="-1.9293721395331933"><ele>56.5</ele><time>2026-03-22T09:31:27.961Z</time></trkpt><trkpt lat="47.358351850637675" lon="-1.9292459037835976"><ele>57.333333333333336</ele><time>2026-03-22T09:31:29.961Z</time></trkpt><trkpt lat="47.35836805939184" lon="-1.9291380415068882"><ele>58.16666666666667</ele><time>2026-03-22T09:31:31.962Z</time></trkpt><trkpt lat="47.35836467415943" lon="-1.9290130367356404"><ele>59.0</ele><time>2026-03-22T09:31:33.961Z</time></trkpt><trkpt lat="47.35837624776083" lon="-1.9288735823318888"><ele>59.2</ele><time>2026-03-22T09:31:35.961Z</time></trkpt><trkpt lat="47.35837481574024" lon="-1.9287267053860415"><ele>59.400000000000006</ele><time>2026-03-22T09:31:37.961Z</time></trkpt><trkpt lat="47.358364427456905" lon="-1.9285722778628678"><ele>59.6</ele><time>2026-03-22T09:31:39.961Z</time></trkpt><trkpt lat="47.35835284840824" lon="-1.9284060051539593"><ele>59.8</ele><time>2026-03-22T09:31:41.961Z</time></trkpt><trkpt lat="47.358347317846395" lon="-1.928249184926328"><ele>60.0</ele><time>2026-03-22T09:31:43.961Z</time></trkpt><trkpt lat="47.35832784376602" lon="-1.9280950570255937"><ele>59.4</ele><time>2026-03-22T09:31:45.961Z</time></trkpt><trkpt lat="47.35833016473178" lon="-1.9279518660152337"><ele>58.8</ele><time>2026-03-22T09:31:47.961Z</time></trkpt><trkpt lat="47.35831588352459" lon="-1.9278033102154981"><ele>58.2</ele><time>2026-03-22T09:31:49.961Z</time></trkpt><trkpt lat="47.35830736855499" lon="-1.927663887826942"><ele>57.6</ele><time>2026-03-22T09:31:51.961Z</time></trkpt><trkpt lat="47.35828695172808" lon="-1.9275613877765048"><ele>57.0</ele><time>2026-03-22T09:31:53.961Z</time></trkpt><trkpt lat="47.35827723377859" lon="-1.9274193940725581"><ele>56.400000000000006</ele><time>2026-03-22T09:31:56.961Z</time></trkpt><trkpt lat="47.358252379956696" lon="-1.927292202721413"><ele>55.800000000000004</ele><time>2026-03-22T09:31:58.961Z</time></trkpt><trkpt lat="47.358232083724445" lon="-1.9271325286349312"><ele>55.2</ele><time>2026-03-22T09:32:00.961Z</time></trkpt><trkpt lat="47.35819120895675" lon="-1.9269757297959735"><ele>54.6</ele><time>2026-03-22T09:32:02.961Z</time></trkpt><trkpt lat="47.35816119751789" lon="-1.926891616880825"><ele>54.0</ele><time>2026-03-22T09:32:03.961Z</time></trkpt><trkpt lat="47.358150961359215" lon="-1.9267117008388577"><ele>53.2</ele><time>2026-03-22T09:32:05.961Z</time></trkpt><trkpt lat="47.35815711828802" lon="-1.9265165768104553"><ele>52.400000000000006</ele><time>2026-03-22T09:32:07.961Z</time></trkpt><trkpt lat="47.358122608487534" lon="-1.926337749215385"><ele>51.6</ele><time>2026-03-22T09:32:09.961Z</time></trkpt><trkpt lat="47.358109818225884" lon="-1.9262444615041732"><ele>50.8</ele><time>2026-03-22T09:32:10.961Z</time></trkpt><trkpt lat="47.358095534014836" lon="-1.9261532374738317"><ele>50.0</ele><time>2026-03-22T09:32:11.961Z</time></trkpt><trkpt lat="47.35808396412531" lon="-1.926057397841673"><ele>50.0</ele><time>2026-03-22T09:32:12.961Z</time></trkpt><trkpt lat="47.358049544239314" lon="-1.9258888938440355"><ele>50.0</ele><time>2026-03-22T09:32:14.961Z</time></trkpt><trkpt lat="47.358031785872676" lon="-1.9257173642358292"><ele>50.0</ele><time>2026-03-22T09:32:16.961Z</time></trkpt><trkpt lat="47.35801242318339" lon="-1.9255479444626749"><ele>50.0</ele><time>2026-03-22T09:32:18.961Z</time></trkpt><trkpt lat="47.357993205030915" lon="-1.9253823888604946"><ele>50.333333333333336</ele><time>2026-03-22T09:32:20.961Z</time></trkpt><trkpt lat="47.35798368723905" lon="-1.925289557580855"><ele>50.66666666666667</ele><time>2026-03-22T09:32:21.961Z</time></trkpt><trkpt lat="47.35795664808388" lon="-1.9251124879497659"><ele>51.0</ele><time>2026-03-22T09:32:23.961Z</time></trkpt><trkpt lat="47.35793833609254" lon="-1.9250152322846747"><ele>51.33333333333333</ele><time>2026-03-22T09:32:24.961Z</time></trkpt><trkpt lat="47.35792810605468" lon="-1.924914192641632"><ele>51.666666666666664</ele><time>2026-03-22T09:32:25.961Z</time></trkpt><trkpt lat="47.35791296229537" lon="-1.9248143337749513"><ele>52.0</ele><time>2026-03-22T09:32:26.961Z</time></trkpt><trkpt lat="47.35789352617028" lon="-1.9247043256474403"><ele>51.83333333333333</ele><time>2026-03-22T09:32:27.961Z</time></trkpt><trkpt lat="47.35787739595565" lon="-1.92458586262866"><ele>51.666666666666664</ele><time>2026-03-22T09:32:28.961Z</time></trkpt><trkpt lat="47.357860256401516" lon="-1.9244675992506086"><ele>51.5</ele><time>2026-03-22T09:32:29.961Z</time></trkpt><trkpt lat="47.35784303557636" lon="-1.9243579227887622"><ele>51.33333333333333</ele><time>2026-03-22T09:32:30.961Z</time></trkpt><trkpt lat="47.35782696363532" lon="-1.9242455166689005"><ele>51.166666666666664</ele><time>2026-03-22T09:32:31.961Z</time></trkpt><trkpt lat="47.35780619803385" lon="-1.9241328790376357"><ele>51.0</ele><time>2026-03-22T09:32:32.961Z</time></trkpt><trkpt lat="47.35778761863472" lon="-1.9240152252920104"><ele>51.0</ele><time>2026-03-22T09:32:33.961Z</time></trkpt><trkpt lat="47.35776840642316" lon="-1.923893381548941"><ele>51.0</ele><time>2026-03-22T09:32:34.961Z</time></trkpt><trkpt lat="47.357748211802814" lon="-1.923780799967187"><ele>51.0</ele><time>2026-03-22T09:32:35.961Z</time></trkpt><trkpt lat="47.35772109662744" lon="-1.9236522713146469"><ele>51.0</ele><time>2026-03-22T09:32:36.961Z</time></trkpt><trkpt lat="47.35771492037778" lon="-1.9235167722696607"><ele>51.0</ele><time>2026-03-22T09:32:37.961Z</time></trkpt><trkpt lat="47.357704446521666" lon="-1.9233873669545558"><ele>51.0</ele><time>2026-03-22T09:32:38.961Z</time></trkpt><trkpt lat="47.3576896617972" lon="-1.923250953393152"><ele>50.8</ele><time>2026-03-22T09:32:39.961Z</time></trkpt><trkpt lat="47.3576774326293" lon="-1.9231230231077638"><ele>50.599999999999994</ele><time>2026-03-22T09:32:40.961Z</time></trkpt><trkpt lat="47.35767930715248" lon="-1.9229782491472025"><ele>50.4</ele><time>2026-03-22T09:32:41.961Z</time></trkpt><trkpt lat="47.35768345615578" lon="-1.9228393799003114"><ele>50.2</ele><time>2026-03-22T09:32:42.961Z</time></trkpt><trkpt lat="47.35769256727994" lon="-1.9227090194986416"><ele>50.0</ele><time>2026-03-22T09:32:43.961Z</time></trkpt><trkpt lat="47.357715586031084" lon="-1.9225792558628987"><ele>49.833333333333336</ele><time>2026-03-22T09:32:44.961Z</time></trkpt><trkpt lat="47.35772449243381" lon="-1.922452342089116"><ele>49.66666666666667</ele><time>2026-03-22T09:32:45.961Z</time></trkpt><trkpt lat="47.35770656802545" lon="-1.9223237248750658"><ele>49.5</ele><time>2026-03-22T09:32:46.961Z</time></trkpt><trkpt lat="47.357679605407206" lon="-1.9221992612068048"><ele>49.33333333333333</ele><time>2026-03-22T09:32:47.961Z</time></trkpt><trkpt lat="47.35763632702168" lon="-1.9220916632486758"><ele>49.166666666666664</ele><time>2026-03-22T09:32:48.961Z</time></trkpt><trkpt lat="47.357599176398686" lon="-1.9219892980445004"><ele>49.0</ele><time>2026-03-22T09:32:49.961Z</time></trkpt><trkpt lat="47.357573879946656" lon="-1.9218800112459078"><ele>48.99999999999999</ele><time>2026-03-22T09:32:50.961Z</time></trkpt><trkpt lat="47.357542231450246" lon="-1.9217752314693788"><ele>49.0</ele><time>2026-03-22T09:32:51.961Z</time></trkpt><trkpt lat="47.357511639074374" lon="-1.9216742973233776"><ele>49.0</ele><time>2026-03-22T09:32:52.96Z</time></trkpt><trkpt lat="47.3574757467656" lon="-1.9215785657069617"><ele>49.0</ele><time>2026-03-22T09:32:53.96Z</time></trkpt><trkpt lat="47.357431760065325" lon="-1.921487940283627"><ele>48.99999999999999</ele><time>2026-03-22T09:32:54.96Z</time></trkpt><trkpt lat="47.35738987153909" lon="-1.9213966714920656"><ele>49.0</ele><time>2026-03-22T09:32:55.96Z</time></trkpt><trkpt lat="47.35734854012993" lon="-1.9213081451793006"><ele>48.666666666666664</ele><time>2026-03-22T09:32:56.96Z</time></trkpt><trkpt lat="47.357305533270726" lon="-1.9212252947242898"><ele>48.33333333333333</ele><time>2026-03-22T09:32:57.96Z</time></trkpt><trkpt lat="47.357263259200735" lon="-1.9211399252160382"><ele>48.0</ele><time>2026-03-22T09:32:58.96Z</time></trkpt><trkpt lat="47.3572163226231" lon="-1.9210598652357311"><ele>47.666666666666664</ele><time>2026-03-22T09:32:59.96Z</time></trkpt><trkpt lat="47.3571719492248" lon="-1.9209822705525934"><ele>47.33333333333333</ele><time>2026-03-22T09:33:00.96Z</time></trkpt><trkpt lat="47.357099731381304" lon="-1.9208347262304337"><ele>47.0</ele><time>2026-03-22T09:33:02.96Z</time></trkpt><trkpt lat="47.35703495630342" lon="-1.9207064176435127"><ele>47.0</ele><time>2026-03-22T09:33:04.96Z</time></trkpt><trkpt lat="47.35697236550398" lon="-1.9205981803611456"><ele>47.0</ele><time>2026-03-22T09:33:06.96Z</time></trkpt><trkpt lat="47.35692818559694" lon="-1.9205003273239127"><ele>47.0</ele><time>2026-03-22T09:33:08.96Z</time></trkpt><trkpt lat="47.35687568457505" lon="-1.9204211903762982"><ele>47.0</ele><time>2026-03-22T09:33:10.96Z</time></trkpt><trkpt lat="47.356835519244115" lon="-1.920313940681534"><ele>47.0</ele><time>2026-03-22T09:33:12.96Z</time></trkpt><trkpt lat="47.35679005252185" lon="-1.9202220092674083"><ele>47.0</ele><time>2026-03-22T09:33:14.96Z</time></trkpt><trkpt lat="47.35676011275239" lon="-1.9201294226030114"><ele>47.5</ele><time>2026-03-22T09:33:16.96Z</time></trkpt><trkpt lat="47.356723128363626" lon="-1.9200505019008187"><ele>48.0</ele><time>2026-03-22T09:33:18.96Z</time></trkpt><trkpt lat="47.356692341954414" lon="-1.9199643364043253"><ele>48.5</ele><time>2026-03-22T09:33:20.96Z</time></trkpt><trkpt lat="47.35665379033436" lon="-1.9198880456300462"><ele>49.0</ele><time>2026-03-22T09:33:22.96Z</time></trkpt><trkpt lat="47.3566083807704" lon="-1.9197680797662844"><ele>49.50000000000001</ele><time>2026-03-22T09:33:25.96Z</time></trkpt><trkpt lat="47.35657048195193" lon="-1.9196550888441306"><ele>50.0</ele><time>2026-03-22T09:33:28.961Z</time></trkpt><trkpt lat="47.35653803851982" lon="-1.9195406088594642"><ele>50.00000000000001</ele><time>2026-03-22T09:33:31.961Z</time></trkpt><trkpt lat="47.35651235911158" lon="-1.9194151607719687"><ele>50.0</ele><time>2026-03-22T09:33:34.961Z</time></trkpt><trkpt lat="47.3565008997466" lon="-1.919288179270754"><ele>50.0</ele><time>2026-03-22T09:33:37.962Z</time></trkpt><trkpt lat="47.35650064880811" lon="-1.9191751285260932"><ele>50.0</ele><time>2026-03-22T09:33:40.961Z</time></trkpt><trkpt lat="47.35650858765426" lon="-1.9190546395496841"><ele>50.00000000000001</ele><time>2026-03-22T09:33:43.961Z</time></trkpt><trkpt lat="47.356514936363155" lon="-1.9189361768185547"><ele>50.0</ele><time>2026-03-22T09:33:46.961Z</time></trkpt><trkpt lat="47.35653368689676" lon="-1.9188195187291988"><ele>50.833333333333336</ele><time>2026-03-22T09:33:49.961Z</time></trkpt><trkpt lat="47.356532685862945" lon="-1.9187240712268743"><ele>51.66666666666667</ele><time>2026-03-22T09:33:52.961Z</time></trkpt><trkpt lat="47.356547216617706" lon="-1.918593388975154"><ele>52.5</ele><time>2026-03-22T09:33:55.961Z</time></trkpt><trkpt lat="47.356539029366296" lon="-1.9184887950765923"><ele>53.33333333333333</ele><time>2026-03-22T09:33:58.961Z</time></trkpt><trkpt lat="47.35654470678356" lon="-1.9183661935886696"><ele>54.166666666666664</ele><time>2026-03-22T09:34:01.961Z</time></trkpt><trkpt lat="47.356545738707894" lon="-1.9182556020721895"><ele>55.0</ele><time>2026-03-22T09:34:04.961Z</time></trkpt><trkpt lat="47.356530658483095" lon="-1.9181465277121517"><ele>56.166666666666664</ele><time>2026-03-22T09:34:07.961Z</time></trkpt><trkpt lat="47.356524917884315" lon="-1.9180247802046961"><ele>57.33333333333333</ele><time>2026-03-22T09:34:10.961Z</time></trkpt><trkpt lat="47.35651962505121" lon="-1.9179077238399291"><ele>58.5</ele><time>2026-03-22T09:34:13.961Z</time></trkpt><trkpt lat="47.356499330029706" lon="-1.917781673137274"><ele>59.66666666666667</ele><time>2026-03-22T09:34:16.961Z</time></trkpt><trkpt lat="47.356491253060156" lon="-1.9176729982951657"><ele>60.833333333333336</ele><time>2026-03-22T09:34:19.961Z</time></trkpt><trkpt lat="47.356482056489796" lon="-1.9175561410937034"><ele>62.0</ele><time>2026-03-22T09:34:22.961Z</time></trkpt><trkpt lat="47.35645099990159" lon="-1.917447613386368"><ele>62.00000000000001</ele><time>2026-03-22T09:34:25.961Z</time></trkpt><trkpt lat="47.35642675686078" lon="-1.9173343531697409"><ele>62.0</ele><time>2026-03-22T09:34:28.961Z</time></trkpt><trkpt lat="47.356392994042004" lon="-1.9172285367801847"><ele>62.0</ele><time>2026-03-22T09:34:31.961Z</time></trkpt><trkpt lat="47.35636770172029" lon="-1.9171182577658061"><ele>62.0</ele><time>2026-03-22T09:34:34.961Z</time></trkpt><trkpt lat="47.35635285440393" lon="-1.9170078209809422"><ele>62.00000000000001</ele><time>2026-03-22T09:34:37.961Z</time></trkpt><trkpt lat="47.35632912393263" lon="-1.916893204050272"><ele>62.0</ele><time>2026-03-22T09:34:40.96Z</time></trkpt><trkpt lat="47.356302991399886" lon="-1.916783422844176"><ele>62.50000000000001</ele><time>2026-03-22T09:34:43.96Z</time></trkpt><trkpt lat="47.35627358497491" lon="-1.9166725381887464"><ele>63.0</ele><time>2026-03-22T09:34:46.96Z</time></trkpt><trkpt lat="47.35625269967606" lon="-1.9165530666547634"><ele>63.5</ele><time>2026-03-22T09:34:49.96Z</time></trkpt><trkpt lat="47.356236297169815" lon="-1.9164331804812236"><ele>64.0</ele><time>2026-03-22T09:34:52.96Z</time></trkpt><trkpt lat="47.356201337937236" lon="-1.916326352208895"><ele>64.5</ele><time>2026-03-22T09:34:55.96Z</time></trkpt><trkpt lat="47.3561768719471" lon="-1.9162152901607823"><ele>65.0</ele><time>2026-03-22T09:34:58.96Z</time></trkpt><trkpt lat="47.3561554708329" lon="-1.9161005982187513"><ele>65.0</ele><time>2026-03-22T09:35:01.96Z</time></trkpt><trkpt lat="47.35613122000323" lon="-1.9159796948830954"><ele>65.0</ele><time>2026-03-22T09:35:04.96Z</time></trkpt><trkpt lat="47.35610517164538" lon="-1.9158435314741968"><ele>65.0</ele><time>2026-03-22T09:35:07.96Z</time></trkpt><trkpt lat="47.35608286549792" lon="-1.915747095279666"><ele>65.0</ele><time>2026-03-22T09:35:09.96Z</time></trkpt><trkpt lat="47.35607115730983" lon="-1.9156501980818104"><ele>65.0</ele><time>2026-03-22T09:35:11.96Z</time></trkpt><trkpt lat="47.3560530271445" lon="-1.9155474595855777"><ele>65.0</ele><time>2026-03-22T09:35:13.96Z</time></trkpt><trkpt lat="47.35604022533672" lon="-1.915441605236015"><ele>65.28571428571429</ele><time>2026-03-22T09:35:15.96Z</time></trkpt><trkpt lat="47.356024224854956" lon="-1.9153390605986753"><ele>65.57142857142857</ele><time>2026-03-22T09:35:17.96Z</time></trkpt><trkpt lat="47.35601526696467" lon="-1.9152291824171281"><ele>65.85714285714286</ele><time>2026-03-22T09:35:19.96Z</time></trkpt><trkpt lat="47.35598410071191" lon="-1.9151279799415037"><ele>66.14285714285714</ele><time>2026-03-22T09:35:21.96Z</time></trkpt><trkpt lat="47.35596371191093" lon="-1.9150202955890787"><ele>66.42857142857143</ele><time>2026-03-22T09:35:23.96Z</time></trkpt><trkpt lat="47.35595938005012" lon="-1.9149077863188593"><ele>66.71428571428572</ele><time>2026-03-22T09:35:25.96Z</time></trkpt><trkpt lat="47.35594174913634" lon="-1.9147995840061856"><ele>67.0</ele><time>2026-03-22T09:35:27.96Z</time></trkpt><trkpt lat="47.35594968049347" lon="-1.9146857258392658"><ele>67.33333333333333</ele><time>2026-03-22T09:35:29.96Z</time></trkpt><trkpt lat="47.35596239014335" lon="-1.9145692031640946"><ele>67.66666666666666</ele><time>2026-03-22T09:35:31.96Z</time></trkpt><trkpt lat="47.35598309663782" lon="-1.9144521935179752"><ele>68.0</ele><time>2026-03-22T09:35:33.96Z</time></trkpt><trkpt lat="47.356009947895664" lon="-1.914330229195608"><ele>68.33333333333333</ele><time>2026-03-22T09:35:35.96Z</time></trkpt><trkpt lat="47.35604222250173" lon="-1.91421711943375"><ele>68.66666666666667</ele><time>2026-03-22T09:35:37.961Z</time></trkpt><trkpt lat="47.356084187671726" lon="-1.914094863061568"><ele>69.0</ele><time>2026-03-22T09:35:39.96Z</time></trkpt><trkpt lat="47.35612728900543" lon="-1.9139697618664369"><ele>69.0</ele><time>2026-03-22T09:35:41.961Z</time></trkpt><trkpt lat="47.35616394412621" lon="-1.9138436900645666"><ele>69.0</ele><time>2026-03-22T09:35:43.961Z</time></trkpt><trkpt lat="47.35620785596476" lon="-1.9137145271900156"><ele>69.0</ele><time>2026-03-22T09:35:45.96Z</time></trkpt><trkpt lat="47.356237448980714" lon="-1.9135882513447298"><ele>69.0</ele><time>2026-03-22T09:35:47.961Z</time></trkpt><trkpt lat="47.35625500078933" lon="-1.913450556361367"><ele>69.0</ele><time>2026-03-22T09:35:49.961Z</time></trkpt><trkpt lat="47.3562797285709" lon="-1.9133062779008543"><ele>69.2</ele><time>2026-03-22T09:35:51.961Z</time></trkpt><trkpt lat="47.35629449913676" lon="-1.913164720889666"><ele>69.4</ele><time>2026-03-22T09:35:53.961Z</time></trkpt><trkpt lat="47.35629462737737" lon="-1.9130150981325489"><ele>69.6</ele><time>2026-03-22T09:35:55.961Z</time></trkpt><trkpt lat="47.35629477308907" lon="-1.9128817394271884"><ele>69.8</ele><time>2026-03-22T09:35:57.961Z</time></trkpt><trkpt lat="47.35627328558753" lon="-1.9127427258233964"><ele>70.0</ele><time>2026-03-22T09:35:59.961Z</time></trkpt><trkpt lat="47.356248822063804" lon="-1.9125940704904747"><ele>70.2</ele><time>2026-03-22T09:36:01.961Z</time></trkpt><trkpt lat="47.35622579623746" lon="-1.9124491488783355"><ele>70.4</ele><time>2026-03-22T09:36:03.961Z</time></trkpt><trkpt lat="47.35621070289234" lon="-1.9123089217995821"><ele>70.6</ele><time>2026-03-22T09:36:05.961Z</time></trkpt><trkpt lat="47.35618516749053" lon="-1.9121523108599028"><ele>70.8</ele><time>2026-03-22T09:36:07.961Z</time></trkpt><trkpt lat="47.356149027338354" lon="-1.9119933073602768"><ele>71.0</ele><time>2026-03-22T09:36:09.961Z</time></trkpt><trkpt lat="47.356123278866626" lon="-1.911823901086828"><ele>70.85714285714286</ele><time>2026-03-22T09:36:11.961Z</time></trkpt><trkpt lat="47.35611121718782" lon="-1.9117324699593699"><ele>70.71428571428571</ele><time>2026-03-22T09:36:12.961Z</time></trkpt><trkpt lat="47.35609784002245" lon="-1.9116402751360184"><ele>70.57142857142857</ele><time>2026-03-22T09:36:13.961Z</time></trkpt><trkpt lat="47.35608798818796" lon="-1.9115452218391797"><ele>70.42857142857143</ele><time>2026-03-22T09:36:14.961Z</time></trkpt><trkpt lat="47.35608191457057" lon="-1.9114506985577155"><ele>70.28571428571428</ele><time>2026-03-22T09:36:15.961Z</time></trkpt><trkpt lat="47.35607060000545" lon="-1.9113569275756939"><ele>70.14285714285714</ele><time>2026-03-22T09:36:16.96Z</time></trkpt><trkpt lat="47.35606714951685" lon="-1.9112612524947001"><ele>70.0</ele><time>2026-03-22T09:36:17.96Z</time></trkpt><trkpt lat="47.35608292891481" lon="-1.9110827347410984"><ele>70.0</ele><time>2026-03-22T09:36:19.96Z</time></trkpt><trkpt lat="47.35610847943315" lon="-1.910983525151311"><ele>70.0</ele><time>2026-03-22T09:36:20.96Z</time></trkpt><trkpt lat="47.356135455458" lon="-1.910896620775772"><ele>70.0</ele><time>2026-03-22T09:36:21.96Z</time></trkpt><trkpt lat="47.35616814329916" lon="-1.9108054651844821"><ele>70.0</ele><time>2026-03-22T09:36:22.96Z</time></trkpt><trkpt lat="47.35620683808462" lon="-1.9107240266071988"><ele>70.0</ele><time>2026-03-22T09:36:23.96Z</time></trkpt><trkpt lat="47.3562548073097" lon="-1.9106535317424485"><ele>70.0</ele><time>2026-03-22T09:36:24.96Z</time></trkpt><trkpt lat="47.356297985159124" lon="-1.9105706494798405"><ele>70.0</ele><time>2026-03-22T09:36:25.96Z</time></trkpt><trkpt lat="47.35634524028494" lon="-1.9104997011256537"><ele>70.0</ele><time>2026-03-22T09:36:26.96Z</time></trkpt><trkpt lat="47.35638780653353" lon="-1.9104231924346409"><ele>70.0</ele><time>2026-03-22T09:36:27.96Z</time></trkpt><trkpt lat="47.356430987814406" lon="-1.9103481401116913"><ele>70.0</ele><time>2026-03-22T09:36:28.96Z</time></trkpt><trkpt lat="47.356471418760606" lon="-1.9102707496143994"><ele>70.0</ele><time>2026-03-22T09:36:29.96Z</time></trkpt><trkpt lat="47.35651368182491" lon="-1.9101914049085882"><ele>70.0</ele><time>2026-03-22T09:36:30.96Z</time></trkpt><trkpt lat="47.356546137578135" lon="-1.910103829161112"><ele>70.0</ele><time>2026-03-22T09:36:31.96Z</time></trkpt><trkpt lat="47.35657387272647" lon="-1.9100151237971745"><ele>70.0</ele><time>2026-03-22T09:36:32.96Z</time></trkpt><trkpt lat="47.35660382586949" lon="-1.9099303359265878"><ele>70.0</ele><time>2026-03-22T09:36:33.96Z</time></trkpt><trkpt lat="47.35662718903056" lon="-1.9098434678933596"><ele>70.0</ele><time>2026-03-22T09:36:34.96Z</time></trkpt><trkpt lat="47.35666456900454" lon="-1.9096724268595224"><ele>70.0</ele><time>2026-03-22T09:36:36.96Z</time></trkpt><trkpt lat="47.35668994846011" lon="-1.9094956656805215"><ele>70.0</ele><time>2026-03-22T09:36:38.96Z</time></trkpt><trkpt lat="47.35671296663855" lon="-1.9093237083988042"><ele>70.0</ele><time>2026-03-22T09:36:40.96Z</time></trkpt><trkpt lat="47.35672890800135" lon="-1.909152127545016"><ele>70.2</ele><time>2026-03-22T09:36:42.96Z</time></trkpt><trkpt lat="47.35674424540481" lon="-1.9089818853351177"><ele>70.4</ele><time>2026-03-22T09:36:44.96Z</time></trkpt><trkpt lat="47.356760014816906" lon="-1.908821531999523"><ele>70.6</ele><time>2026-03-22T09:36:46.96Z</time></trkpt><trkpt lat="47.356768462417506" lon="-1.9086553057765725"><ele>70.8</ele><time>2026-03-22T09:36:48.96Z</time></trkpt><trkpt lat="47.35678460271273" lon="-1.9085073304176272"><ele>71.0</ele><time>2026-03-22T09:36:50.96Z</time></trkpt><trkpt lat="47.35679827331075" lon="-1.9083498573024507"><ele>71.39999999999999</ele><time>2026-03-22T09:36:52.96Z</time></trkpt><trkpt lat="47.35680983210172" lon="-1.9082005600916323"><ele>71.8</ele><time>2026-03-22T09:36:54.96Z</time></trkpt><trkpt lat="47.356823251976806" lon="-1.9080536964221573"><ele>72.19999999999999</ele><time>2026-03-22T09:36:56.96Z</time></trkpt><trkpt lat="47.356839840090565" lon="-1.9079072790259635"><ele>72.6</ele><time>2026-03-22T09:36:58.96Z</time></trkpt><trkpt lat="47.356854876680345" lon="-1.9077646137430213"><ele>73.0</ele><time>2026-03-22T09:37:00.96Z</time></trkpt><trkpt lat="47.356855069237746" lon="-1.9076275551491029"><ele>73.4</ele><time>2026-03-22T09:37:02.96Z</time></trkpt><trkpt lat="47.356860849500094" lon="-1.9074759281358193"><ele>73.8</ele><time>2026-03-22T09:37:04.96Z</time></trkpt><trkpt lat="47.356881120652815" lon="-1.9073484606123985"><ele>74.2</ele><time>2026-03-22T09:37:06.96Z</time></trkpt><trkpt lat="47.356889600132696" lon="-1.9072265584870016"><ele>74.6</ele><time>2026-03-22T09:37:08.96Z</time></trkpt><trkpt lat="47.35689381470892" lon="-1.9070948112109474"><ele>75.0</ele><time>2026-03-22T09:37:10.96Z</time></trkpt><trkpt lat="47.356899810053434" lon="-1.9069638610713597"><ele>75.0</ele><time>2026-03-22T09:37:12.96Z</time></trkpt><trkpt lat="47.356919276830254" lon="-1.9068230929942125"><ele>75.0</ele><time>2026-03-22T09:37:14.96Z</time></trkpt><trkpt lat="47.35692550689384" lon="-1.9066833501302982"><ele>75.0</ele><time>2026-03-22T09:37:16.96Z</time></trkpt><trkpt lat="47.35693329775127" lon="-1.906548008162235"><ele>75.0</ele><time>2026-03-22T09:37:18.96Z</time></trkpt><trkpt lat="47.35694328677525" lon="-1.9064145583086023"><ele>75.0</ele><time>2026-03-22T09:37:20.96Z</time></trkpt><trkpt lat="47.356952206863134" lon="-1.9062842885902318"><ele>75.4</ele><time>2026-03-22T09:37:22.96Z</time></trkpt><trkpt lat="47.35696420634296" lon="-1.9061457080838828"><ele>75.8</ele><time>2026-03-22T09:37:24.96Z</time></trkpt><trkpt lat="47.35696503182884" lon="-1.9060185045631977"><ele>76.2</ele><time>2026-03-22T09:37:26.96Z</time></trkpt><trkpt lat="47.3569785171871" lon="-1.9058790565756514"><ele>76.6</ele><time>2026-03-22T09:37:28.96Z</time></trkpt><trkpt lat="47.356988387137584" lon="-1.9057401169284192"><ele>77.0</ele><time>2026-03-22T09:37:30.96Z</time></trkpt><trkpt lat="47.35700040574582" lon="-1.9055992483784518"><ele>77.4</ele><time>2026-03-22T09:37:32.96Z</time></trkpt><trkpt lat="47.357018292495795" lon="-1.9054632155244158"><ele>77.80000000000001</ele><time>2026-03-22T09:37:34.96Z</time></trkpt><trkpt lat="47.35703615429971" lon="-1.905318499991712"><ele>78.2</ele><time>2026-03-22T09:37:36.96Z</time></trkpt><trkpt lat="47.35705184210725" lon="-1.90518441453648"><ele>78.60000000000001</ele><time>2026-03-22T09:37:38.96Z</time></trkpt><trkpt lat="47.35707134004787" lon="-1.9050484646388326"><ele>79.0</ele><time>2026-03-22T09:37:40.96Z</time></trkpt><trkpt lat="47.35709145818084" lon="-1.9049109372123014"><ele>79.2</ele><time>2026-03-22T09:37:42.96Z</time></trkpt><trkpt lat="47.357097934266214" lon="-1.9047603842159377"><ele>79.4</ele><time>2026-03-22T09:37:44.96Z</time></trkpt><trkpt lat="47.357084041779515" lon="-1.904626296544168"><ele>79.6</ele><time>2026-03-22T09:37:46.96Z</time></trkpt><trkpt lat="47.35709089466417" lon="-1.9044728157972786"><ele>79.8</ele><time>2026-03-22T09:37:48.96Z</time></trkpt><trkpt lat="47.35708350182768" lon="-1.9043224741656684"><ele>80.0</ele><time>2026-03-22T09:37:50.96Z</time></trkpt><trkpt lat="47.357087593347266" lon="-1.9041851555969371"><ele>80.4</ele><time>2026-03-22T09:37:52.96Z</time></trkpt><trkpt lat="47.35708132915494" lon="-1.9040387217018906"><ele>80.8</ele><time>2026-03-22T09:37:54.96Z</time></trkpt><trkpt lat="47.35707205135105" lon="-1.9038827152848912"><ele>81.19999999999999</ele><time>2026-03-22T09:37:56.96Z</time></trkpt><trkpt lat="47.3570528042913" lon="-1.9037321646687762"><ele>81.6</ele><time>2026-03-22T09:37:58.96Z</time></trkpt><trkpt lat="47.35705447008504" lon="-1.9035764906586987"><ele>82.0</ele><time>2026-03-22T09:38:00.96Z</time></trkpt><trkpt lat="47.35704540779814" lon="-1.9034354545281182"><ele>81.8</ele><time>2026-03-22T09:38:02.96Z</time></trkpt><trkpt lat="47.3570310314159" lon="-1.903282919068528"><ele>81.6</ele><time>2026-03-22T09:38:04.96Z</time></trkpt><trkpt lat="47.35700866008388" lon="-1.903136474562864"><ele>81.39999999999999</ele><time>2026-03-22T09:38:06.96Z</time></trkpt><trkpt lat="47.35700529587419" lon="-1.902990758470854"><ele>81.19999999999999</ele><time>2026-03-22T09:38:08.961Z</time></trkpt><trkpt lat="47.356994792438506" lon="-1.9028524792320594"><ele>81.0</ele><time>2026-03-22T09:38:10.962Z</time></trkpt><trkpt lat="47.3569833998031" lon="-1.9027060829971796"><ele>81.0</ele><time>2026-03-22T09:38:12.963Z</time></trkpt><trkpt lat="47.3569738889814" lon="-1.902559125153227"><ele>81.0</ele><time>2026-03-22T09:38:14.964Z</time></trkpt><trkpt lat="47.356967686089554" lon="-1.902396949386458"><ele>81.0</ele><time>2026-03-22T09:38:16.964Z</time></trkpt><trkpt lat="47.35694006978689" lon="-1.9022377429531496"><ele>81.0</ele><time>2026-03-22T09:38:18.965Z</time></trkpt><trkpt lat="47.35694230805406" lon="-1.9020897828113503"><ele>81.0</ele><time>2026-03-22T09:38:20.965Z</time></trkpt><trkpt lat="47.35693504529672" lon="-1.9019331702624254"><ele>81.0</ele><time>2026-03-22T09:38:22.966Z</time></trkpt><trkpt lat="47.35692037585099" lon="-1.9017871476588193"><ele>81.0</ele><time>2026-03-22T09:38:24.966Z</time></trkpt><trkpt lat="47.356906732220544" lon="-1.9016294774627047"><ele>81.0</ele><time>2026-03-22T09:38:26.967Z</time></trkpt><trkpt lat="47.356889197176464" lon="-1.9014811732845938"><ele>81.0</ele><time>2026-03-22T09:38:28.967Z</time></trkpt><trkpt lat="47.356870546686494" lon="-1.9013184002219377"><ele>81.0</ele><time>2026-03-22T09:38:30.967Z</time></trkpt><trkpt lat="47.35684424784056" lon="-1.9011595618678128"><ele>81.25</ele><time>2026-03-22T09:38:32.968Z</time></trkpt><trkpt lat="47.356810868514" lon="-1.9009981958565023"><ele>81.5</ele><time>2026-03-22T09:38:34.968Z</time></trkpt><trkpt lat="47.356785697495184" lon="-1.900839209640204"><ele>81.75</ele><time>2026-03-22T09:38:36.968Z</time></trkpt><trkpt lat="47.356742726144226" lon="-1.9006794908525362"><ele>82.0</ele><time>2026-03-22T09:38:38.968Z</time></trkpt><trkpt lat="47.35670821029752" lon="-1.9005226897013419"><ele>82.25</ele><time>2026-03-22T09:38:40.968Z</time></trkpt><trkpt lat="47.35667362693645" lon="-1.9003577231176305"><ele>82.5</ele><time>2026-03-22T09:38:42.968Z</time></trkpt><trkpt lat="47.356651579859765" lon="-1.900189515945915"><ele>82.75</ele><time>2026-03-22T09:38:44.969Z</time></trkpt><trkpt lat="47.35660489177159" lon="-1.9000330761929878"><ele>83.0</ele><time>2026-03-22T09:38:46.969Z</time></trkpt><trkpt lat="47.35656904287873" lon="-1.8998740642089764"><ele>83.25</ele><time>2026-03-22T09:38:48.969Z</time></trkpt><trkpt lat="47.35653589616575" lon="-1.8997058204013593"><ele>83.5</ele><time>2026-03-22T09:38:50.969Z</time></trkpt><trkpt lat="47.35649388328646" lon="-1.8995552399403164"><ele>83.75</ele><time>2026-03-22T09:38:52.969Z</time></trkpt><trkpt lat="47.3564655147008" lon="-1.8993975492147135"><ele>84.0</ele><time>2026-03-22T09:38:54.969Z</time></trkpt><trkpt lat="47.35642599465728" lon="-1.899233622569036"><ele>84.25</ele><time>2026-03-22T09:38:56.969Z</time></trkpt><trkpt lat="47.35638886516705" lon="-1.8990732849746128"><ele>84.5</ele><time>2026-03-22T09:38:58.969Z</time></trkpt><trkpt lat="47.35636229960347" lon="-1.8989066963099175"><ele>84.75</ele><time>2026-03-22T09:39:00.969Z</time></trkpt><trkpt lat="47.356339659233456" lon="-1.8987427209423853"><ele>85.0</ele><time>2026-03-22T09:39:02.969Z</time></trkpt><trkpt lat="47.35631847624491" lon="-1.8985762903146064"><ele>85.0</ele><time>2026-03-22T09:39:04.969Z</time></trkpt><trkpt lat="47.3562952544263" lon="-1.898413030533997"><ele>85.0</ele><time>2026-03-22T09:39:06.969Z</time></trkpt><trkpt lat="47.35626802124618" lon="-1.8982432044404411"><ele>85.0</ele><time>2026-03-22T09:39:08.969Z</time></trkpt><trkpt lat="47.35625866028048" lon="-1.8980751716432633"><ele>85.0</ele><time>2026-03-22T09:39:10.969Z</time></trkpt><trkpt lat="47.3562352319692" lon="-1.8979057832421204"><ele>85.0</ele><time>2026-03-22T09:39:12.969Z</time></trkpt><trkpt lat="47.356213386689745" lon="-1.8977351438630208"><ele>85.0</ele><time>2026-03-22T09:39:14.969Z</time></trkpt><trkpt lat="47.35619593147991" lon="-1.8975697262751978"><ele>85.0</ele><time>2026-03-22T09:39:16.969Z</time></trkpt><trkpt lat="47.35616765837858" lon="-1.897405377310968"><ele>85.0</ele><time>2026-03-22T09:39:18.969Z</time></trkpt><trkpt lat="47.35615841855777" lon="-1.8972386693976584"><ele>85.0</ele><time>2026-03-22T09:39:20.969Z</time></trkpt><trkpt lat="47.356136784559986" lon="-1.8970748408413636"><ele>85.0</ele><time>2026-03-22T09:39:22.969Z</time></trkpt><trkpt lat="47.35611960358362" lon="-1.8969034650520693"><ele>85.0</ele><time>2026-03-22T09:39:24.969Z</time></trkpt><trkpt lat="47.35609676395026" lon="-1.896731482029129"><ele>85.0</ele><time>2026-03-22T09:39:26.969Z</time></trkpt><trkpt lat="47.3560751997798" lon="-1.8965586077603185"><ele>85.0</ele><time>2026-03-22T09:39:28.969Z</time></trkpt><trkpt lat="47.3560575167665" lon="-1.8963822836467765"><ele>85.0</ele><time>2026-03-22T09:39:30.969Z</time></trkpt><trkpt lat="47.35603047656764" lon="-1.8962099487478845"><ele>85.0</ele><time>2026-03-22T09:39:32.969Z</time></trkpt><trkpt lat="47.35601053668591" lon="-1.896035831007189"><ele>85.0</ele><time>2026-03-22T09:39:34.969Z</time></trkpt><trkpt lat="47.35599157023937" lon="-1.8958617998333815"><ele>85.0</ele><time>2026-03-22T09:39:36.969Z</time></trkpt><trkpt lat="47.3559939661139" lon="-1.8957672690722507"><ele>85.0</ele><time>2026-03-22T09:39:37.969Z</time></trkpt><trkpt lat="47.3559576108268" lon="-1.8956133761705187"><ele>85.0</ele><time>2026-03-22T09:39:39.969Z</time></trkpt><trkpt lat="47.35593759584043" lon="-1.8954471038331455"><ele>85.0</ele><time>2026-03-22T09:39:41.969Z</time></trkpt><trkpt lat="47.35591757031721" lon="-1.8952825151479236"><ele>85.0</ele><time>2026-03-22T09:39:43.969Z</time></trkpt><trkpt lat="47.35589490772709" lon="-1.8951195947341173"><ele>85.4</ele><time>2026-03-22T09:39:45.969Z</time></trkpt><trkpt lat="47.35587739108704" lon="-1.8949529936819844"><ele>85.8</ele><time>2026-03-22T09:39:47.97Z</time></trkpt><trkpt lat="47.35586088585585" lon="-1.8947985589331873"><ele>86.19999999999999</ele><time>2026-03-22T09:39:49.97Z</time></trkpt><trkpt lat="47.35583425323492" lon="-1.8946464972245596"><ele>86.6</ele><time>2026-03-22T09:39:51.97Z</time></trkpt><trkpt lat="47.355805593708574" lon="-1.8945127714220626"><ele>87.0</ele><time>2026-03-22T09:39:53.97Z</time></trkpt><trkpt lat="47.35578777063459" lon="-1.8943788823013235"><ele>87.0</ele><time>2026-03-22T09:39:55.97Z</time></trkpt><trkpt lat="47.355763661323785" lon="-1.8942555397157028"><ele>87.0</ele><time>2026-03-22T09:39:57.969Z</time></trkpt><trkpt lat="47.35574176302524" lon="-1.894130669099515"><ele>87.0</ele><time>2026-03-22T09:39:59.97Z</time></trkpt><trkpt lat="47.35571765188823" lon="-1.8940176762610352"><ele>87.0</ele><time>2026-03-22T09:40:01.97Z</time></trkpt><trkpt lat="47.35569392060997" lon="-1.8938955426325115"><ele>87.0</ele><time>2026-03-22T09:40:03.97Z</time></trkpt><trkpt lat="47.35566467315159" lon="-1.8937852690598653"><ele>87.0</ele><time>2026-03-22T09:40:05.97Z</time></trkpt><trkpt lat="47.355632119203044" lon="-1.893659220710361"><ele>86.83333333333333</ele><time>2026-03-22T09:40:07.97Z</time></trkpt><trkpt lat="47.355592492540794" lon="-1.893543849796262"><ele>86.66666666666667</ele><time>2026-03-22T09:40:09.97Z</time></trkpt><trkpt lat="47.35555157589944" lon="-1.8934337137574735"><ele>86.5</ele><time>2026-03-22T09:40:11.97Z</time></trkpt><trkpt lat="47.35550518635249" lon="-1.893322402905572"><ele>86.33333333333334</ele><time>2026-03-22T09:40:13.97Z</time></trkpt><trkpt lat="47.35545178175912" lon="-1.8932110195638547"><ele>86.16666666666667</ele><time>2026-03-22T09:40:15.97Z</time></trkpt><trkpt lat="47.35538428737662" lon="-1.8931210084375862"><ele>86.0</ele><time>2026-03-22T09:40:17.97Z</time></trkpt><trkpt lat="47.35526354257127" lon="-1.8929876526078264"><ele>86.0</ele><time>2026-03-22T09:40:20.97Z</time></trkpt><trkpt lat="47.35522113023655" lon="-1.8928515763448441"><ele>86.0</ele><time>2026-03-22T09:40:22.97Z</time></trkpt><trkpt lat="47.3552199382298" lon="-1.8927007522665635"><ele>86.0</ele><time>2026-03-22T09:40:24.97Z</time></trkpt><trkpt lat="47.3552508579826" lon="-1.8925581390917068"><ele>86.0</ele><time>2026-03-22T09:40:26.97Z</time></trkpt><trkpt lat="47.35531939583546" lon="-1.8924497866007952"><ele>86.0</ele><time>2026-03-22T09:40:28.97Z</time></trkpt><trkpt lat="47.35540896066852" lon="-1.892373288098959"><ele>86.0</ele><time>2026-03-22T09:40:30.97Z</time></trkpt><trkpt lat="47.35550509598123" lon="-1.892316514649955"><ele>86.0</ele><time>2026-03-22T09:40:32.97Z</time></trkpt><trkpt lat="47.35559994220352" lon="-1.8922317572587968"><ele>86.0</ele><time>2026-03-22T09:40:34.97Z</time></trkpt><trkpt lat="47.35567082947728" lon="-1.8921194958774046"><ele>86.0</ele><time>2026-03-22T09:40:36.97Z</time></trkpt><trkpt lat="47.35572918755159" lon="-1.891987448133261"><ele>86.0</ele><time>2026-03-22T09:40:38.97Z</time></trkpt><trkpt lat="47.35578515924688" lon="-1.8918577791293805"><ele>85.6</ele><time>2026-03-22T09:40:40.97Z</time></trkpt><trkpt lat="47.35583892759731" lon="-1.8917270151358478"><ele>85.19999999999999</ele><time>2026-03-22T09:40:42.97Z</time></trkpt><trkpt lat="47.35588447689459" lon="-1.8915833147446415"><ele>84.80000000000001</ele><time>2026-03-22T09:40:44.97Z</time></trkpt><trkpt lat="47.35593907406076" lon="-1.8914520126837524"><ele>84.4</ele><time>2026-03-22T09:40:46.97Z</time></trkpt><trkpt lat="47.35599605770759" lon="-1.8913241459517014"><ele>84.0</ele><time>2026-03-22T09:40:48.97Z</time></trkpt><trkpt lat="47.35604258530225" lon="-1.8911907249553646"><ele>84.0</ele><time>2026-03-22T09:40:50.97Z</time></trkpt><trkpt lat="47.35609347551613" lon="-1.8910553893523876"><ele>84.0</ele><time>2026-03-22T09:40:52.97Z</time></trkpt><trkpt lat="47.35614546257014" lon="-1.890909160155743"><ele>84.0</ele><time>2026-03-22T09:40:54.97Z</time></trkpt><trkpt lat="47.356205818425295" lon="-1.890761606719369"><ele>84.0</ele><time>2026-03-22T09:40:56.97Z</time></trkpt><trkpt lat="47.35626658049614" lon="-1.8906034382447454"><ele>84.0</ele><time>2026-03-22T09:40:58.97Z</time></trkpt><trkpt lat="47.35632526157876" lon="-1.8904511311181837"><ele>84.0</ele><time>2026-03-22T09:41:00.97Z</time></trkpt><trkpt lat="47.356382635994294" lon="-1.8902913659314462"><ele>84.0</ele><time>2026-03-22T09:41:02.97Z</time></trkpt><trkpt lat="47.356410441184295" lon="-1.8902075992384832"><ele>84.0</ele><time>2026-03-22T09:41:03.969Z</time></trkpt><trkpt lat="47.35644955181399" lon="-1.8900377122777658"><ele>84.0</ele><time>2026-03-22T09:41:05.969Z</time></trkpt><trkpt lat="47.35645553286826" lon="-1.8898511546711767"><ele>84.4</ele><time>2026-03-22T09:41:07.969Z</time></trkpt><trkpt lat="47.3564441059847" lon="-1.8896764935817352"><ele>84.80000000000001</ele><time>2026-03-22T09:41:09.969Z</time></trkpt><trkpt lat="47.35645899292617" lon="-1.889501058530343"><ele>85.19999999999999</ele><time>2026-03-22T09:41:11.969Z</time></trkpt><trkpt lat="47.35652757468628" lon="-1.8893511637129132"><ele>85.6</ele><time>2026-03-22T09:41:13.969Z</time></trkpt><trkpt lat="47.356580194986286" lon="-1.8892941347338212"><ele>86.0</ele><time>2026-03-22T09:41:14.969Z</time></trkpt><trkpt lat="47.356697679983284" lon="-1.8892417772642938"><ele>86.0</ele><time>2026-03-22T09:41:16.969Z</time></trkpt><trkpt lat="47.35682045448944" lon="-1.889273677260131"><ele>86.0</ele><time>2026-03-22T09:41:18.969Z</time></trkpt><trkpt lat="47.35693932212073" lon="-1.889316681442634"><ele>86.0</ele><time>2026-03-22T09:41:20.969Z</time></trkpt><trkpt lat="47.35700253699504" lon="-1.8892968462220674"><ele>86.0</ele><time>2026-03-22T09:41:21.969Z</time></trkpt><trkpt lat="47.357065172148204" lon="-1.8892505290021762"><ele>86.0</ele><time>2026-03-22T09:41:22.969Z</time></trkpt><trkpt lat="47.35716739055238" lon="-1.8891181374182928"><ele>86.14285714285715</ele><time>2026-03-22T09:41:24.969Z</time></trkpt><trkpt lat="47.357213400427966" lon="-1.8890387659574528"><ele>86.28571428571429</ele><time>2026-03-22T09:41:25.969Z</time></trkpt><trkpt lat="47.35725199831604" lon="-1.888945908110787"><ele>86.42857142857143</ele><time>2026-03-22T09:41:26.969Z</time></trkpt><trkpt lat="47.357284141733444" lon="-1.8888567414299713"><ele>86.57142857142858</ele><time>2026-03-22T09:41:27.969Z</time></trkpt><trkpt lat="47.35730918811642" lon="-1.8887527095660468"><ele>86.71428571428572</ele><time>2026-03-22T09:41:28.969Z</time></trkpt><trkpt lat="47.357329774915186" lon="-1.8886466952648309"><ele>86.85714285714286</ele><time>2026-03-22T09:41:29.969Z</time></trkpt><trkpt lat="47.35733813146771" lon="-1.8885369951472804"><ele>87.0</ele><time>2026-03-22T09:41:30.969Z</time></trkpt><trkpt lat="47.357345809528525" lon="-1.8884222572904177"><ele>87.0</ele><time>2026-03-22T09:41:31.969Z</time></trkpt><trkpt lat="47.35734613541291" lon="-1.8883071192465817"><ele>87.0</ele><time>2026-03-22T09:41:32.969Z</time></trkpt><trkpt lat="47.35734004150371" lon="-1.8881906213958723"><ele>87.0</ele><time>2026-03-22T09:41:33.969Z</time></trkpt><trkpt lat="47.35733591066755" lon="-1.8880770635595245"><ele>87.0</ele><time>2026-03-22T09:41:34.969Z</time></trkpt><trkpt lat="47.357325886383116" lon="-1.887960573387905"><ele>87.0</ele><time>2026-03-22T09:41:35.969Z</time></trkpt><trkpt lat="47.35732209256201" lon="-1.8878477290999924"><ele>87.0</ele><time>2026-03-22T09:41:36.969Z</time></trkpt><trkpt lat="47.35731636443189" lon="-1.8877307465662994"><ele>87.0</ele><time>2026-03-22T09:41:37.969Z</time></trkpt><trkpt lat="47.357314173277686" lon="-1.8876160733141134"><ele>87.0</ele><time>2026-03-22T09:41:38.969Z</time></trkpt><trkpt lat="47.35730784358519" lon="-1.887502199518266"><ele>87.0</ele><time>2026-03-22T09:41:39.969Z</time></trkpt><trkpt lat="47.357299501370115" lon="-1.887392262663625"><ele>87.0</ele><time>2026-03-22T09:41:40.969Z</time></trkpt><trkpt lat="47.3572872451644" lon="-1.887280529725695"><ele>87.0</ele><time>2026-03-22T09:41:41.969Z</time></trkpt><trkpt lat="47.35728407532884" lon="-1.887170435373608"><ele>87.0</ele><time>2026-03-22T09:41:42.969Z</time></trkpt><trkpt lat="47.3572774608873" lon="-1.8870505758297786"><ele>87.0</ele><time>2026-03-22T09:41:43.969Z</time></trkpt><trkpt lat="47.35727363060202" lon="-1.8869442034868673"><ele>87.0</ele><time>2026-03-22T09:41:44.969Z</time></trkpt><trkpt lat="47.357269173792396" lon="-1.8868337995740319"><ele>87.0</ele><time>2026-03-22T09:41:45.969Z</time></trkpt><trkpt lat="47.35726369503547" lon="-1.8867222746982466"><ele>87.0</ele><time>2026-03-22T09:41:46.969Z</time></trkpt><trkpt lat="47.35725135693954" lon="-1.886615457676482"><ele>87.0</ele><time>2026-03-22T09:41:47.969Z</time></trkpt><trkpt lat="47.357242555463124" lon="-1.886495250822177"><ele>87.0</ele><time>2026-03-22T09:41:48.969Z</time></trkpt><trkpt lat="47.35723498844679" lon="-1.8863967841459832"><ele>87.0</ele><time>2026-03-22T09:41:49.969Z</time></trkpt><trkpt lat="47.357229565504774" lon="-1.886285023007115"><ele>86.85714285714286</ele><time>2026-03-22T09:41:50.969Z</time></trkpt><trkpt lat="47.35722912216397" lon="-1.88616874958579"><ele>86.71428571428572</ele><time>2026-03-22T09:41:51.969Z</time></trkpt><trkpt lat="47.357222812809006" lon="-1.8860638582392373"><ele>86.57142857142858</ele><time>2026-03-22T09:41:52.97Z</time></trkpt><trkpt lat="47.35721389445951" lon="-1.8859539270277574"><ele>86.42857142857143</ele><time>2026-03-22T09:41:53.97Z</time></trkpt><trkpt lat="47.35720864163653" lon="-1.8858445376397117"><ele>86.28571428571429</ele><time>2026-03-22T09:41:54.97Z</time></trkpt><trkpt lat="47.3572036763334" lon="-1.885733666165738"><ele>86.14285714285715</ele><time>2026-03-22T09:41:55.97Z</time></trkpt><trkpt lat="47.35718995308718" lon="-1.8856305763752141"><ele>86.0</ele><time>2026-03-22T09:41:56.97Z</time></trkpt><trkpt lat="47.35718841101634" lon="-1.8855212188147827"><ele>85.85714285714286</ele><time>2026-03-22T09:41:57.97Z</time></trkpt><trkpt lat="47.357184092682814" lon="-1.8854128964185848"><ele>85.71428571428572</ele><time>2026-03-22T09:41:58.97Z</time></trkpt><trkpt lat="47.35717757823973" lon="-1.8853081690443048"><ele>85.57142857142858</ele><time>2026-03-22T09:41:59.97Z</time></trkpt><trkpt lat="47.357170923986864" lon="-1.885198117213833"><ele>85.42857142857143</ele><time>2026-03-22T09:42:00.97Z</time></trkpt><trkpt lat="47.35716417643184" lon="-1.8850889896879297"><ele>85.28571428571428</ele><time>2026-03-22T09:42:01.97Z</time></trkpt><trkpt lat="47.35716235519132" lon="-1.8849823861729638"><ele>85.14285714285715</ele><time>2026-03-22T09:42:02.97Z</time></trkpt><trkpt lat="47.35716680215558" lon="-1.8848769930667246"><ele>85.0</ele><time>2026-03-22T09:42:03.97Z</time></trkpt><trkpt lat="47.3571526504788" lon="-1.884772834566455"><ele>85.0</ele><time>2026-03-22T09:42:04.97Z</time></trkpt><trkpt lat="47.35714569113029" lon="-1.8846623351172112"><ele>85.0</ele><time>2026-03-22T09:42:05.97Z</time></trkpt><trkpt lat="47.357141393998994" lon="-1.8845558413458354"><ele>85.0</ele><time>2026-03-22T09:42:06.97Z</time></trkpt><trkpt lat="47.35713741912951" lon="-1.8844509008408339"><ele>85.0</ele><time>2026-03-22T09:42:07.97Z</time></trkpt><trkpt lat="47.357128397026685" lon="-1.8843416011626841"><ele>85.0</ele><time>2026-03-22T09:42:08.97Z</time></trkpt><trkpt lat="47.357117003659674" lon="-1.8842302842251906"><ele>85.0</ele><time>2026-03-22T09:42:09.97Z</time></trkpt><trkpt lat="47.35711137097258" lon="-1.884123103578453"><ele>85.0</ele><time>2026-03-22T09:42:10.97Z</time></trkpt><trkpt lat="47.35710478847079" lon="-1.884011322351027"><ele>85.0</ele><time>2026-03-22T09:42:11.97Z</time></trkpt><trkpt lat="47.357102978026525" lon="-1.8838994099297137"><ele>85.0</ele><time>2026-03-22T09:42:12.97Z</time></trkpt><trkpt lat="47.35709389405142" lon="-1.8837888544092802"><ele>85.0</ele><time>2026-03-22T09:42:13.97Z</time></trkpt><trkpt lat="47.3570894257857" lon="-1.8836776846013163"><ele>85.0</ele><time>2026-03-22T09:42:14.97Z</time></trkpt><trkpt lat="47.35708208138915" lon="-1.8835613119231833"><ele>85.0</ele><time>2026-03-22T09:42:15.97Z</time></trkpt><trkpt lat="47.35707515956253" lon="-1.8834541006056869"><ele>85.0</ele><time>2026-03-22T09:42:16.97Z</time></trkpt><trkpt lat="47.35707571804765" lon="-1.883346741123893"><ele>85.0</ele><time>2026-03-22T09:42:17.97Z</time></trkpt><trkpt lat="47.357074812521766" lon="-1.8832321235239073"><ele>85.0</ele><time>2026-03-22T09:42:18.97Z</time></trkpt><trkpt lat="47.3570640300375" lon="-1.8831207099088125"><ele>85.0</ele><time>2026-03-22T09:42:19.97Z</time></trkpt><trkpt lat="47.35705904778864" lon="-1.8830140060217602"><ele>85.0</ele><time>2026-03-22T09:42:20.97Z</time></trkpt><trkpt lat="47.357055369587" lon="-1.882899291093182"><ele>85.0</ele><time>2026-03-22T09:42:21.97Z</time></trkpt><trkpt lat="47.35704942402264" lon="-1.882784822371585"><ele>85.0</ele><time>2026-03-22T09:42:22.97Z</time></trkpt><trkpt lat="47.35704960169342" lon="-1.8826747127154437"><ele>84.83333333333333</ele><time>2026-03-22T09:42:23.97Z</time></trkpt><trkpt lat="47.35703562458596" lon="-1.8825607578827728"><ele>84.66666666666666</ele><time>2026-03-22T09:42:24.97Z</time></trkpt><trkpt lat="47.35702950515403" lon="-1.8824494171260662"><ele>84.5</ele><time>2026-03-22T09:42:25.97Z</time></trkpt><trkpt lat="47.35702016045926" lon="-1.882336995396682"><ele>84.33333333333333</ele><time>2026-03-22T09:42:26.97Z</time></trkpt><trkpt lat="47.357013889725906" lon="-1.8822246078347236"><ele>84.16666666666667</ele><time>2026-03-22T09:42:27.97Z</time></trkpt><trkpt lat="47.35700420634915" lon="-1.8821142630460612"><ele>84.0</ele><time>2026-03-22T09:42:28.97Z</time></trkpt><trkpt lat="47.35699839877981" lon="-1.8820037655666393"><ele>84.0</ele><time>2026-03-22T09:42:29.97Z</time></trkpt><trkpt lat="47.356999406956895" lon="-1.8818947959171777"><ele>84.0</ele><time>2026-03-22T09:42:30.97Z</time></trkpt><trkpt lat="47.356990800038716" lon="-1.8817845481173416"><ele>84.0</ele><time>2026-03-22T09:42:31.97Z</time></trkpt><trkpt lat="47.3569844728044" lon="-1.8816714527232021"><ele>84.0</ele><time>2026-03-22T09:42:32.97Z</time></trkpt><trkpt lat="47.35697114758048" lon="-1.8815634797777911"><ele>84.0</ele><time>2026-03-22T09:42:33.97Z</time></trkpt><trkpt lat="47.356965008914976" lon="-1.8814613327612135"><ele>84.0</ele><time>2026-03-22T09:42:34.97Z</time></trkpt><trkpt lat="47.356962799834015" lon="-1.8813504140000088"><ele>84.0</ele><time>2026-03-22T09:42:35.97Z</time></trkpt><trkpt lat="47.35695836916019" lon="-1.881242925390062"><ele>84.0</ele><time>2026-03-22T09:42:36.97Z</time></trkpt><trkpt lat="47.35694636417945" lon="-1.881129903429885"><ele>84.0</ele><time>2026-03-22T09:42:37.97Z</time></trkpt><trkpt lat="47.356944012881726" lon="-1.8810239535284548"><ele>84.0</ele><time>2026-03-22T09:42:38.97Z</time></trkpt><trkpt lat="47.356932852087326" lon="-1.8809140338308747"><ele>84.0</ele><time>2026-03-22T09:42:39.97Z</time></trkpt><trkpt lat="47.356925594379575" lon="-1.8808057386781116"><ele>84.0</ele><time>2026-03-22T09:42:40.97Z</time></trkpt><trkpt lat="47.356920755283085" lon="-1.880698225447761"><ele>84.0</ele><time>2026-03-22T09:42:41.97Z</time></trkpt><trkpt lat="47.3569106647848" lon="-1.88058863563898"><ele>84.0</ele><time>2026-03-22T09:42:42.97Z</time></trkpt><trkpt lat="47.356901120986215" lon="-1.8804791845229183"><ele>84.0</ele><time>2026-03-22T09:42:43.97Z</time></trkpt><trkpt lat="47.3568900284312" lon="-1.8803744463126768"><ele>84.0</ele><time>2026-03-22T09:42:44.97Z</time></trkpt><trkpt lat="47.35687518673918" lon="-1.8802636206589267"><ele>84.0</ele><time>2026-03-22T09:42:45.97Z</time></trkpt><trkpt lat="47.356861447224844" lon="-1.8801525282675728"><ele>84.0</ele><time>2026-03-22T09:42:46.97Z</time></trkpt><trkpt lat="47.35684467210267" lon="-1.8800444101480538"><ele>84.0</ele><time>2026-03-22T09:42:47.97Z</time></trkpt><trkpt lat="47.35683667118327" lon="-1.87993426405539"><ele>84.0</ele><time>2026-03-22T09:42:48.97Z</time></trkpt><trkpt lat="47.356824492955" lon="-1.8798225826677646"><ele>84.16666666666667</ele><time>2026-03-22T09:42:49.97Z</time></trkpt><trkpt lat="47.356806463932195" lon="-1.879710959402087"><ele>84.33333333333333</ele><time>2026-03-22T09:42:50.97Z</time></trkpt><trkpt lat="47.35679646392985" lon="-1.8796017090524064"><ele>84.5</ele><time>2026-03-22T09:42:51.97Z</time></trkpt><trkpt lat="47.35678674379628" lon="-1.8794951201163472"><ele>84.66666666666666</ele><time>2026-03-22T09:42:52.97Z</time></trkpt><trkpt lat="47.35676838797581" lon="-1.879384859389875"><ele>84.83333333333333</ele><time>2026-03-22T09:42:53.97Z</time></trkpt><trkpt lat="47.35675471711484" lon="-1.8792759447300607"><ele>85.0</ele><time>2026-03-22T09:42:54.97Z</time></trkpt><trkpt lat="47.3567406478518" lon="-1.8791654303602423"><ele>85.0</ele><time>2026-03-22T09:42:55.97Z</time></trkpt><trkpt lat="47.35672435198009" lon="-1.879060843800094"><ele>85.0</ele><time>2026-03-22T09:42:56.97Z</time></trkpt><trkpt lat="47.35672045981158" lon="-1.8789518695490517"><ele>85.0</ele><time>2026-03-22T09:42:57.97Z</time></trkpt><trkpt lat="47.35670629090133" lon="-1.8788381041750613"><ele>85.0</ele><time>2026-03-22T09:42:58.97Z</time></trkpt><trkpt lat="47.35669141761896" lon="-1.8787277040597694"><ele>85.0</ele><time>2026-03-22T09:42:59.97Z</time></trkpt><trkpt lat="47.35667908424846" lon="-1.8786219093942935"><ele>85.0</ele><time>2026-03-22T09:43:00.97Z</time></trkpt><trkpt lat="47.356671810680005" lon="-1.8785110657396247"><ele>85.0</ele><time>2026-03-22T09:43:01.97Z</time></trkpt><trkpt lat="47.35666482575438" lon="-1.8784028903659966"><ele>84.66666666666666</ele><time>2026-03-22T09:43:02.97Z</time></trkpt><trkpt lat="47.35666575697447" lon="-1.87829294320848"><ele>84.33333333333333</ele><time>2026-03-22T09:43:03.97Z</time></trkpt><trkpt lat="47.35666250703789" lon="-1.8781840287490301"><ele>84.0</ele><time>2026-03-22T09:43:04.97Z</time></trkpt><trkpt lat="47.35665323617428" lon="-1.878076232986866"><ele>83.66666666666667</ele><time>2026-03-22T09:43:05.97Z</time></trkpt><trkpt lat="47.35664683585972" lon="-1.8779674152091808"><ele>83.33333333333334</ele><time>2026-03-22T09:43:06.97Z</time></trkpt><trkpt lat="47.356633041196524" lon="-1.8778517570357927"><ele>83.0</ele><time>2026-03-22T09:43:07.97Z</time></trkpt><trkpt lat="47.35662964183731" lon="-1.8777344300540284"><ele>83.0</ele><time>2026-03-22T09:43:08.97Z</time></trkpt><trkpt lat="47.356629240011586" lon="-1.8776241375587237"><ele>83.0</ele><time>2026-03-22T09:43:09.97Z</time></trkpt><trkpt lat="47.356623674487714" lon="-1.877512678096014"><ele>83.0</ele><time>2026-03-22T09:43:10.97Z</time></trkpt><trkpt lat="47.35660747069713" lon="-1.8773959044890287"><ele>83.0</ele><time>2026-03-22T09:43:11.97Z</time></trkpt><trkpt lat="47.356605130937126" lon="-1.8772829674155092"><ele>83.0</ele><time>2026-03-22T09:43:12.97Z</time></trkpt><trkpt lat="47.35659670118552" lon="-1.877164762900169"><ele>83.0</ele><time>2026-03-22T09:43:13.97Z</time></trkpt><trkpt lat="47.35658801307434" lon="-1.8770481339232334"><ele>83.0</ele><time>2026-03-22T09:43:14.97Z</time></trkpt><trkpt lat="47.35658696629898" lon="-1.876933085163834"><ele>83.0</ele><time>2026-03-22T09:43:15.97Z</time></trkpt><trkpt lat="47.35657629449442" lon="-1.876815403025997"><ele>83.0</ele><time>2026-03-22T09:43:16.97Z</time></trkpt><trkpt lat="47.35657382547022" lon="-1.8766946432131966"><ele>83.0</ele><time>2026-03-22T09:43:17.97Z</time></trkpt><trkpt lat="47.35656133947178" lon="-1.876571330466788"><ele>83.0</ele><time>2026-03-22T09:43:18.97Z</time></trkpt><trkpt lat="47.356554865395786" lon="-1.8764493367047874"><ele>83.0</ele><time>2026-03-22T09:43:19.97Z</time></trkpt><trkpt lat="47.35654937374281" lon="-1.8763250261258162"><ele>83.0</ele><time>2026-03-22T09:43:20.97Z</time></trkpt><trkpt lat="47.35654299411675" lon="-1.8761969824703615"><ele>83.0</ele><time>2026-03-22T09:43:21.97Z</time></trkpt><trkpt lat="47.356532031838114" lon="-1.8760677271396085"><ele>83.0</ele><time>2026-03-22T09:43:22.97Z</time></trkpt><trkpt lat="47.35652015461399" lon="-1.8759421977694044"><ele>83.0</ele><time>2026-03-22T09:43:23.97Z</time></trkpt><trkpt lat="47.35650634272653" lon="-1.875813327254951"><ele>83.0</ele><time>2026-03-22T09:43:24.97Z</time></trkpt><trkpt lat="47.356499818894484" lon="-1.8756820629490565"><ele>83.0</ele><time>2026-03-22T09:43:25.97Z</time></trkpt><trkpt lat="47.356500805786055" lon="-1.8755423272438843"><ele>83.0</ele><time>2026-03-22T09:43:26.97Z</time></trkpt><trkpt lat="47.356494379411814" lon="-1.8754093874155362"><ele>83.0</ele><time>2026-03-22T09:43:27.97Z</time></trkpt><trkpt lat="47.35648278353621" lon="-1.8752842384057087"><ele>83.0</ele><time>2026-03-22T09:43:28.97Z</time></trkpt><trkpt lat="47.35646530423485" lon="-1.8751466057403563"><ele>83.0</ele><time>2026-03-22T09:43:29.97Z</time></trkpt><trkpt lat="47.35646705033037" lon="-1.8750153564201988"><ele>83.0</ele><time>2026-03-22T09:43:30.97Z</time></trkpt><trkpt lat="47.35646793109051" lon="-1.8748856849787265"><ele>83.0</ele><time>2026-03-22T09:43:31.97Z</time></trkpt><trkpt lat="47.35646561640407" lon="-1.874746886558091"><ele>82.2</ele><time>2026-03-22T09:43:32.97Z</time></trkpt><trkpt lat="47.35645896642747" lon="-1.8746137389195991"><ele>81.4</ele><time>2026-03-22T09:43:33.97Z</time></trkpt><trkpt lat="47.35645250125538" lon="-1.8744800339774506"><ele>80.60000000000001</ele><time>2026-03-22T09:43:34.97Z</time></trkpt><trkpt lat="47.356453339947095" lon="-1.8743487294788181"><ele>79.80000000000001</ele><time>2026-03-22T09:43:35.97Z</time></trkpt><trkpt lat="47.35644954222904" lon="-1.8742163736506108"><ele>79.0</ele><time>2026-03-22T09:43:36.97Z</time></trkpt><trkpt lat="47.35644665596308" lon="-1.874084076988743"><ele>78.5</ele><time>2026-03-22T09:43:37.97Z</time></trkpt><trkpt lat="47.356444187996196" lon="-1.8739523750824374"><ele>78.0</ele><time>2026-03-22T09:43:38.97Z</time></trkpt><trkpt lat="47.35644478782116" lon="-1.8738206617061495"><ele>77.5</ele><time>2026-03-22T09:43:39.97Z</time></trkpt><trkpt lat="47.35644352504798" lon="-1.8736875146679994"><ele>77.0</ele><time>2026-03-22T09:43:40.97Z</time></trkpt><trkpt lat="47.35643943639405" lon="-1.873555200540834"><ele>76.5</ele><time>2026-03-22T09:43:41.97Z</time></trkpt><trkpt lat="47.35643562328245" lon="-1.873421119942431"><ele>76.0</ele><time>2026-03-22T09:43:42.97Z</time></trkpt><trkpt lat="47.35643176541669" lon="-1.8732879246907341"><ele>75.6</ele><time>2026-03-22T09:43:43.97Z</time></trkpt><trkpt lat="47.3564296821017" lon="-1.8731537553179065"><ele>75.19999999999999</ele><time>2026-03-22T09:43:44.97Z</time></trkpt><trkpt lat="47.356422542449465" lon="-1.873014051312433"><ele>74.80000000000001</ele><time>2026-03-22T09:43:45.97Z</time></trkpt><trkpt lat="47.35641765277763" lon="-1.872874184081661"><ele>74.4</ele><time>2026-03-22T09:43:46.97Z</time></trkpt><trkpt lat="47.35641755440721" lon="-1.8727342756534753"><ele>74.0</ele><time>2026-03-22T09:43:47.97Z</time></trkpt><trkpt lat="47.356421257215246" lon="-1.8725889177167858"><ele>73.60000000000001</ele><time>2026-03-22T09:43:48.97Z</time></trkpt><trkpt lat="47.35643058362733" lon="-1.8724438869994013"><ele>73.2</ele><time>2026-03-22T09:43:49.97Z</time></trkpt><trkpt lat="47.356435460419036" lon="-1.8722932134103303"><ele>72.80000000000001</ele><time>2026-03-22T09:43:50.97Z</time></trkpt><trkpt lat="47.35645129805744" lon="-1.872147485983531"><ele>72.4</ele><time>2026-03-22T09:43:51.97Z</time></trkpt><trkpt lat="47.356467422793955" lon="-1.8720000815188367"><ele>72.0</ele><time>2026-03-22T09:43:52.97Z</time></trkpt><trkpt lat="47.35649884876381" lon="-1.8718650800326122"><ele>72.16666666666667</ele><time>2026-03-22T09:43:53.97Z</time></trkpt><trkpt lat="47.35653449458579" lon="-1.8717431550031494"><ele>72.33333333333333</ele><time>2026-03-22T09:43:54.97Z</time></trkpt><trkpt lat="47.3565768211701" lon="-1.8716324972756027"><ele>72.5</ele><time>2026-03-22T09:43:55.97Z</time></trkpt><trkpt lat="47.35662609209553" lon="-1.871539128582304"><ele>72.66666666666666</ele><time>2026-03-22T09:43:56.97Z</time></trkpt><trkpt lat="47.3566792295832" lon="-1.8714477536176182"><ele>72.83333333333333</ele><time>2026-03-22T09:43:57.97Z</time></trkpt><trkpt lat="47.356735736202296" lon="-1.8713580682076052"><ele>73.0</ele><time>2026-03-22T09:43:58.969Z</time></trkpt><trkpt lat="47.3567845021141" lon="-1.8712744318307684"><ele>73.0</ele><time>2026-03-22T09:43:59.97Z</time></trkpt><trkpt lat="47.35683627445128" lon="-1.8711904941547648"><ele>73.0</ele><time>2026-03-22T09:44:00.97Z</time></trkpt><trkpt lat="47.35688711035669" lon="-1.8710959517166958"><ele>73.0</ele><time>2026-03-22T09:44:01.97Z</time></trkpt><trkpt lat="47.356925378771464" lon="-1.8709971759425543"><ele>73.0</ele><time>2026-03-22T09:44:02.97Z</time></trkpt><trkpt lat="47.356960670639566" lon="-1.870891323287164"><ele>73.0</ele><time>2026-03-22T09:44:03.97Z</time></trkpt><trkpt lat="47.35698511332179" lon="-1.8707846559713885"><ele>73.0</ele><time>2026-03-22T09:44:04.97Z</time></trkpt><trkpt lat="47.357010193753915" lon="-1.8706802867429981"><ele>73.5</ele><time>2026-03-22T09:44:05.97Z</time></trkpt><trkpt lat="47.35702586894281" lon="-1.8705746082798365"><ele>74.0</ele><time>2026-03-22T09:44:06.97Z</time></trkpt><trkpt lat="47.35705076307638" lon="-1.8704617884564936"><ele>74.5</ele><time>2026-03-22T09:44:07.97Z</time></trkpt><trkpt lat="47.35706710955616" lon="-1.8703524686133175"><ele>75.0</ele><time>2026-03-22T09:44:08.97Z</time></trkpt><trkpt lat="47.35708667494136" lon="-1.8702462796420216"><ele>75.5</ele><time>2026-03-22T09:44:09.97Z</time></trkpt><trkpt lat="47.35710286555282" lon="-1.8701343268321018"><ele>76.0</ele><time>2026-03-22T09:44:10.97Z</time></trkpt><trkpt lat="47.35712553790374" lon="-1.8700223563091312"><ele>76.16666666666666</ele><time>2026-03-22T09:44:11.97Z</time></trkpt><trkpt lat="47.35714088705656" lon="-1.8699084555398806"><ele>76.33333333333333</ele><time>2026-03-22T09:44:12.97Z</time></trkpt><trkpt lat="47.35715212726116" lon="-1.8697985167399682"><ele>76.5</ele><time>2026-03-22T09:44:13.97Z</time></trkpt><trkpt lat="47.357176479947434" lon="-1.8696775738578186"><ele>76.66666666666667</ele><time>2026-03-22T09:44:14.97Z</time></trkpt><trkpt lat="47.3571978603799" lon="-1.8695599743188904"><ele>76.83333333333334</ele><time>2026-03-22T09:44:15.97Z</time></trkpt><trkpt lat="47.357218739185804" lon="-1.8694420925729796"><ele>77.0</ele><time>2026-03-22T09:44:16.97Z</time></trkpt><trkpt lat="47.357249264749406" lon="-1.8693288842572902"><ele>76.0</ele><time>2026-03-22T09:44:17.97Z</time></trkpt><trkpt lat="47.35728486219741" lon="-1.8692255178357728"><ele>75.0</ele><time>2026-03-22T09:44:18.97Z</time></trkpt><trkpt lat="47.35731830481433" lon="-1.869124600381385"><ele>74.0</ele><time>2026-03-22T09:44:19.97Z</time></trkpt><trkpt lat="47.3573611751913" lon="-1.869018258889423"><ele>73.0</ele><time>2026-03-22T09:44:20.97Z</time></trkpt><trkpt lat="47.35740473483478" lon="-1.8689124688451457"><ele>72.0</ele><time>2026-03-22T09:44:21.97Z</time></trkpt><trkpt lat="47.35744510338567" lon="-1.868814903278025"><ele>71.0</ele><time>2026-03-22T09:44:22.97Z</time></trkpt><trkpt lat="47.35748930785613" lon="-1.8687145980874893"><ele>71.0</ele><time>2026-03-22T09:44:23.97Z</time></trkpt><trkpt lat="47.3575331721901" lon="-1.868617259123727"><ele>71.0</ele><time>2026-03-22T09:44:24.97Z</time></trkpt><trkpt lat="47.357568330889116" lon="-1.8685249145309184"><ele>71.0</ele><time>2026-03-22T09:44:25.97Z</time></trkpt><trkpt lat="47.357611300368454" lon="-1.868429271840147"><ele>71.0</ele><time>2026-03-22T09:44:26.97Z</time></trkpt><trkpt lat="47.35765050045325" lon="-1.8683349405236975"><ele>71.0</ele><time>2026-03-22T09:44:27.97Z</time></trkpt><trkpt lat="47.35769309622086" lon="-1.8682440749908118"><ele>71.0</ele><time>2026-03-22T09:44:28.97Z</time></trkpt><trkpt lat="47.35773180306784" lon="-1.868170499801"><ele>71.0</ele><time>2026-03-22T09:44:29.97Z</time></trkpt><trkpt lat="47.35777564739387" lon="-1.86808164793203"><ele>71.14285714285714</ele><time>2026-03-22T09:44:30.97Z</time></trkpt><trkpt lat="47.35781314113986" lon="-1.8679928695494"><ele>71.28571428571428</ele><time>2026-03-22T09:44:31.97Z</time></trkpt><trkpt lat="47.35785453897308" lon="-1.8678998463799552"><ele>71.42857142857143</ele><time>2026-03-22T09:44:32.97Z</time></trkpt><trkpt lat="47.35789081948589" lon="-1.8678141186937827"><ele>71.57142857142857</ele><time>2026-03-22T09:44:33.97Z</time></trkpt><trkpt lat="47.35792982601309" lon="-1.8677234105911906"><ele>71.71428571428572</ele><time>2026-03-22T09:44:34.97Z</time></trkpt><trkpt lat="47.35797299795587" lon="-1.8676361487730475"><ele>71.85714285714286</ele><time>2026-03-22T09:44:35.97Z</time></trkpt><trkpt lat="47.35802164940163" lon="-1.8675545177588162"><ele>72.0</ele><time>2026-03-22T09:44:36.97Z</time></trkpt><trkpt lat="47.358068134965755" lon="-1.8674783717291108"><ele>72.00000000000001</ele><time>2026-03-22T09:44:37.97Z</time></trkpt><trkpt lat="47.358107506828716" lon="-1.8674026689238976"><ele>72.0</ele><time>2026-03-22T09:44:38.97Z</time></trkpt><trkpt lat="47.3581630045197" lon="-1.8673268988693774"><ele>72.0</ele><time>2026-03-22T09:44:39.97Z</time></trkpt><trkpt lat="47.35821700668601" lon="-1.867263722778074"><ele>72.0</ele><time>2026-03-22T09:44:40.97Z</time></trkpt><trkpt lat="47.35827764282522" lon="-1.8672037777513686"><ele>72.0</ele><time>2026-03-22T09:44:41.97Z</time></trkpt><trkpt lat="47.35832531405915" lon="-1.867142561700907"><ele>72.00000000000001</ele><time>2026-03-22T09:44:42.97Z</time></trkpt><trkpt lat="47.35838043657764" lon="-1.867081130203032"><ele>72.0</ele><time>2026-03-22T09:44:43.97Z</time></trkpt><trkpt lat="47.35843336104646" lon="-1.8670304228900783"><ele>72.0</ele><time>2026-03-22T09:44:44.97Z</time></trkpt><trkpt lat="47.35854322592929" lon="-1.8669186739935084"><ele>72.0</ele><time>2026-03-22T09:44:46.97Z</time></trkpt><trkpt lat="47.35860038820565" lon="-1.8668630804589388"><ele>72.0</ele><time>2026-03-22T09:44:47.97Z</time></trkpt><trkpt lat="47.35864822022531" lon="-1.8667953631008154"><ele>72.0</ele><time>2026-03-22T09:44:48.97Z</time></trkpt><trkpt lat="47.3587027189253" lon="-1.8667432985196788"><ele>72.0</ele><time>2026-03-22T09:44:49.97Z</time></trkpt><trkpt lat="47.35875375102554" lon="-1.8666771886811067"><ele>72.0</ele><time>2026-03-22T09:44:50.97Z</time></trkpt><trkpt lat="47.35880824475669" lon="-1.8666090008179692"><ele>71.83333333333333</ele><time>2026-03-22T09:44:51.97Z</time></trkpt><trkpt lat="47.35887193439192" lon="-1.8665384619911523"><ele>71.66666666666667</ele><time>2026-03-22T09:44:52.97Z</time></trkpt><trkpt lat="47.35893732593339" lon="-1.8664660979197605"><ele>71.5</ele><time>2026-03-22T09:44:53.97Z</time></trkpt><trkpt lat="47.358999373139724" lon="-1.8663826835262698"><ele>71.33333333333334</ele><time>2026-03-22T09:44:54.969Z</time></trkpt><trkpt lat="47.35906561071666" lon="-1.8663178517251457"><ele>71.16666666666667</ele><time>2026-03-22T09:44:55.969Z</time></trkpt><trkpt lat="47.35913076170648" lon="-1.8662410240963296"><ele>71.0</ele><time>2026-03-22T09:44:56.969Z</time></trkpt><trkpt lat="47.359197254135445" lon="-1.8661703411307409"><ele>71.0</ele><time>2026-03-22T09:44:57.969Z</time></trkpt><trkpt lat="47.359264288632374" lon="-1.8660944934792545"><ele>71.0</ele><time>2026-03-22T09:44:58.969Z</time></trkpt><trkpt lat="47.35932706741092" lon="-1.8660140318290148"><ele>71.0</ele><time>2026-03-22T09:44:59.969Z</time></trkpt><trkpt lat="47.35938687228048" lon="-1.8659265850915712"><ele>71.0</ele><time>2026-03-22T09:45:00.969Z</time></trkpt><trkpt lat="47.35944124733495" lon="-1.8658354473832055"><ele>71.0</ele><time>2026-03-22T09:45:01.969Z</time></trkpt><trkpt lat="47.35947837319283" lon="-1.8657451818114306"><ele>71.0</ele><time>2026-03-22T09:45:02.969Z</time></trkpt><trkpt lat="47.35950865296426" lon="-1.865641157511804"><ele>71.14285714285714</ele><time>2026-03-22T09:45:03.969Z</time></trkpt><trkpt lat="47.359533806650504" lon="-1.865549329893764"><ele>71.28571428571428</ele><time>2026-03-22T09:45:04.969Z</time></trkpt><trkpt lat="47.35956257916667" lon="-1.8654491729407845"><ele>71.42857142857143</ele><time>2026-03-22T09:45:05.969Z</time></trkpt><trkpt lat="47.35958885195272" lon="-1.8653516821890486"><ele>71.57142857142857</ele><time>2026-03-22T09:45:06.969Z</time></trkpt><trkpt lat="47.359603661087114" lon="-1.8652463396679875"><ele>71.71428571428572</ele><time>2026-03-22T09:45:07.969Z</time></trkpt><trkpt lat="47.359621832733815" lon="-1.8651487443055543"><ele>71.85714285714286</ele><time>2026-03-22T09:45:08.969Z</time></trkpt><trkpt lat="47.359641117067355" lon="-1.8650496008626694"><ele>72.0</ele><time>2026-03-22T09:45:09.969Z</time></trkpt><trkpt lat="47.359654124927054" lon="-1.8649543925869927"><ele>72.0</ele><time>2026-03-22T09:45:10.969Z</time></trkpt><trkpt lat="47.35966914570421" lon="-1.864863772404267"><ele>72.0</ele><time>2026-03-22T09:45:11.969Z</time></trkpt><trkpt lat="47.359690966813666" lon="-1.8646907348786284"><ele>72.0</ele><time>2026-03-22T09:45:13.969Z</time></trkpt><trkpt lat="47.3597155779243" lon="-1.8645325603491385"><ele>72.0</ele><time>2026-03-22T09:45:15.969Z</time></trkpt><trkpt lat="47.35973730153493" lon="-1.8643829474123348"><ele>72.0</ele><time>2026-03-22T09:45:17.969Z</time></trkpt><trkpt lat="47.35975688263098" lon="-1.8642488371750228"><ele>72.00000000000001</ele><time>2026-03-22T09:45:19.969Z</time></trkpt><trkpt lat="47.35977487990208" lon="-1.8641185243530605"><ele>72.0</ele><time>2026-03-22T09:45:21.969Z</time></trkpt><trkpt lat="47.35978963618471" lon="-1.8640134101488743"><ele>72.0</ele><time>2026-03-22T09:45:23.969Z</time></trkpt><trkpt lat="47.35979778007058" lon="-1.8638986563997977"><ele>72.0</ele><time>2026-03-22T09:45:25.969Z</time></trkpt><trkpt lat="47.35981756509255" lon="-1.8637993697629518"><ele>72.0</ele><time>2026-03-22T09:45:27.969Z</time></trkpt><trkpt lat="47.35983047454948" lon="-1.8637057151946694"><ele>72.00000000000001</ele><time>2026-03-22T09:45:29.969Z</time></trkpt><trkpt lat="47.359854042961466" lon="-1.8636140987454655"><ele>72.0</ele><time>2026-03-22T09:45:31.969Z</time></trkpt><trkpt lat="47.35987833226477" lon="-1.8635254690027612"><ele>72.66666666666667</ele><time>2026-03-22T09:45:33.969Z</time></trkpt><trkpt lat="47.35991072536278" lon="-1.8634351727630563"><ele>73.33333333333333</ele><time>2026-03-22T09:45:35.969Z</time></trkpt><trkpt lat="47.359952945735" lon="-1.8633135995100725"><ele>74.0</ele><time>2026-03-22T09:45:38.969Z</time></trkpt><trkpt lat="47.35996972568423" lon="-1.863211217971351"><ele>74.66666666666666</ele><time>2026-03-22T09:45:41.969Z</time></trkpt><trkpt lat="47.36002325767424" lon="-1.8631618824594205"><ele>75.33333333333333</ele><time>2026-03-22T09:45:43.969Z</time></trkpt><trkpt lat="47.36009662096264" lon="-1.8631547635672596"><ele>76.0</ele><time>2026-03-22T09:45:45.969Z</time></trkpt><trkpt lat="47.360180647378414" lon="-1.863142942638635"><ele>76.0</ele><time>2026-03-22T09:45:47.969Z</time></trkpt><trkpt lat="47.36026906057657" lon="-1.8631301164429195"><ele>76.0</ele><time>2026-03-22T09:45:49.969Z</time></trkpt><trkpt lat="47.360361518889725" lon="-1.8631245363523836"><ele>76.0</ele><time>2026-03-22T09:45:51.969Z</time></trkpt><trkpt lat="47.36045919764338" lon="-1.863116895325341"><ele>76.0</ele><time>2026-03-22T09:45:53.969Z</time></trkpt><trkpt lat="47.36054662467518" lon="-1.863115650286758"><ele>76.0</ele><time>2026-03-22T09:45:55.969Z</time></trkpt><trkpt lat="47.360629274943" lon="-1.8631116896538795"><ele>76.0</ele><time>2026-03-22T09:45:57.969Z</time></trkpt><trkpt lat="47.36070839324505" lon="-1.8631250258862941"><ele>75.66666666666666</ele><time>2026-03-22T09:45:59.969Z</time></trkpt><trkpt lat="47.3607754833391" lon="-1.8631384890701972"><ele>75.33333333333333</ele><time>2026-03-22T09:46:01.969Z</time></trkpt><trkpt lat="47.36083765038863" lon="-1.863193182422281"><ele>75.0</ele><time>2026-03-22T09:46:04.97Z</time></trkpt><trkpt lat="47.36092196264171" lon="-1.8632258700622533"><ele>74.66666666666667</ele><time>2026-03-22T09:46:19.97Z</time></trkpt><trkpt lat="47.36101210871747" lon="-1.863275803201219"><ele>74.33333333333334</ele><time>2026-03-22T09:46:22.97Z</time></trkpt><trkpt lat="47.36109134146775" lon="-1.8633200588032939"><ele>74.0</ele><time>2026-03-22T09:46:24.97Z</time></trkpt><trkpt lat="47.361186942410065" lon="-1.863373435785505"><ele>74.0</ele><time>2026-03-22T09:46:26.97Z</time></trkpt><trkpt lat="47.361289135922924" lon="-1.8633924597244949"><ele>74.0</ele><time>2026-03-22T09:46:28.97Z</time></trkpt><trkpt lat="47.361384508779786" lon="-1.863377057259282"><ele>74.0</ele><time>2026-03-22T09:46:30.97Z</time></trkpt><trkpt lat="47.36146751424291" lon="-1.8633232041902668"><ele>74.0</ele><time>2026-03-22T09:46:32.97Z</time></trkpt><trkpt lat="47.36149993403177" lon="-1.8631792211055178"><ele>74.0</ele><time>2026-03-22T09:46:34.97Z</time></trkpt><trkpt lat="47.361470674466" lon="-1.863021229039142"><ele>74.0</ele><time>2026-03-22T09:46:36.97Z</time></trkpt><trkpt lat="47.36142557488929" lon="-1.8628998084673278"><ele>74.0</ele><time>2026-03-22T09:46:38.97Z</time></trkpt><trkpt lat="47.36138872747017" lon="-1.862777315168708"><ele>74.0</ele><time>2026-03-22T09:46:40.97Z</time></trkpt><trkpt lat="47.36134775910687" lon="-1.8626552753118606"><ele>74.0</ele><time>2026-03-22T09:46:42.97Z</time></trkpt><trkpt lat="47.361320988894114" lon="-1.8625439052248958"><ele>74.0</ele><time>2026-03-22T09:46:44.97Z</time></trkpt><trkpt lat="47.36130179068533" lon="-1.8624226255222034"><ele>74.0</ele><time>2026-03-22T09:46:46.97Z</time></trkpt><trkpt lat="47.36129272818675" lon="-1.8622904726946414"><ele>74.8</ele><time>2026-03-22T09:46:48.97Z</time></trkpt><trkpt lat="47.36128178680017" lon="-1.8621618627179508"><ele>75.60000000000001</ele><time>2026-03-22T09:46:50.97Z</time></trkpt><trkpt lat="47.3612737194879" lon="-1.8620298247639955"><ele>76.4</ele><time>2026-03-22T09:46:52.97Z</time></trkpt><trkpt lat="47.36127161314947" lon="-1.8618924378255708"><ele>77.2</ele><time>2026-03-22T09:46:54.97Z</time></trkpt><trkpt lat="47.3612653471066" lon="-1.8617593616787964"><ele>78.0</ele><time>2026-03-22T09:46:56.969Z</time></trkpt><trkpt lat="47.361265630462256" lon="-1.8616187273630156"><ele>78.0</ele><time>2026-03-22T09:46:58.969Z</time></trkpt><trkpt lat="47.36126576877817" lon="-1.8614764399946835"><ele>78.0</ele><time>2026-03-22T09:47:00.969Z</time></trkpt><trkpt lat="47.3612573636445" lon="-1.8613321204984146"><ele>78.0</ele><time>2026-03-22T09:47:02.969Z</time></trkpt><trkpt lat="47.36125325003927" lon="-1.8611895369918563"><ele>78.0</ele><time>2026-03-22T09:47:04.969Z</time></trkpt><trkpt lat="47.36124434685613" lon="-1.861037141712225"><ele>78.0</ele><time>2026-03-22T09:47:06.969Z</time></trkpt><trkpt lat="47.36123227834818" lon="-1.8608861276760824"><ele>78.2</ele><time>2026-03-22T09:47:08.969Z</time></trkpt><trkpt lat="47.36122562972455" lon="-1.8607288942285674"><ele>78.4</ele><time>2026-03-22T09:47:10.969Z</time></trkpt><trkpt lat="47.36121828346499" lon="-1.8605775150995694"><ele>78.60000000000001</ele><time>2026-03-22T09:47:12.969Z</time></trkpt><trkpt lat="47.361213045430034" lon="-1.8604123824632313"><ele>78.8</ele><time>2026-03-22T09:47:14.969Z</time></trkpt><trkpt lat="47.36120900125137" lon="-1.8602591003843854"><ele>79.0</ele><time>2026-03-22T09:47:16.969Z</time></trkpt><trkpt lat="47.36121166832934" lon="-1.8600856099674075"><ele>79.2</ele><time>2026-03-22T09:47:18.969Z</time></trkpt><trkpt lat="47.3612071968178" lon="-1.859926804846617"><ele>79.4</ele><time>2026-03-22T09:47:20.969Z</time></trkpt><trkpt lat="47.3612141873831" lon="-1.8597703812474031"><ele>79.6</ele><time>2026-03-22T09:47:22.969Z</time></trkpt><trkpt lat="47.36122478253164" lon="-1.8596014652883552"><ele>79.8</ele><time>2026-03-22T09:47:24.969Z</time></trkpt><trkpt lat="47.36121409541614" lon="-1.8594302434878038"><ele>80.0</ele><time>2026-03-22T09:47:26.969Z</time></trkpt><trkpt lat="47.36118534268071" lon="-1.8592645708058575"><ele>79.2</ele><time>2026-03-22T09:47:28.969Z</time></trkpt><trkpt lat="47.36114903919979" lon="-1.8590986549100417"><ele>78.4</ele><time>2026-03-22T09:47:30.969Z</time></trkpt><trkpt lat="47.36117377706686" lon="-1.858903515371601"><ele>77.6</ele><time>2026-03-22T09:47:32.969Z</time></trkpt><trkpt lat="47.3611711375693" lon="-1.8588027980570982"><ele>76.8</ele><time>2026-03-22T09:47:33.969Z</time></trkpt><trkpt lat="47.36118555069505" lon="-1.8586975026445962"><ele>76.0</ele><time>2026-03-22T09:47:34.969Z</time></trkpt><trkpt lat="47.36119717751227" lon="-1.8585881652951792"><ele>76.0</ele><time>2026-03-22T09:47:35.969Z</time></trkpt><trkpt lat="47.361213876842434" lon="-1.8584728960449624"><ele>76.0</ele><time>2026-03-22T09:47:36.969Z</time></trkpt><trkpt lat="47.3612270719704" lon="-1.8583492007965123"><ele>76.0</ele><time>2026-03-22T09:47:37.969Z</time></trkpt><trkpt lat="47.36123355226392" lon="-1.8582310855242878"><ele>76.0</ele><time>2026-03-22T09:47:38.969Z</time></trkpt><trkpt lat="47.361243451567766" lon="-1.858107956466268"><ele>76.0</ele><time>2026-03-22T09:47:39.969Z</time></trkpt><trkpt lat="47.361260795192045" lon="-1.8579784571797546"><ele>76.0</ele><time>2026-03-22T09:47:40.969Z</time></trkpt><trkpt lat="47.36128161612446" lon="-1.8578384017740261"><ele>75.39999999999999</ele><time>2026-03-22T09:47:41.969Z</time></trkpt><trkpt lat="47.36128639744152" lon="-1.8577097771471622"><ele>74.8</ele><time>2026-03-22T09:47:42.969Z</time></trkpt><trkpt lat="47.36130414187149" lon="-1.8575696582578691"><ele>74.19999999999999</ele><time>2026-03-22T09:47:43.969Z</time></trkpt><trkpt lat="47.36131958865527" lon="-1.8574293699027007"><ele>73.6</ele><time>2026-03-22T09:47:44.969Z</time></trkpt><trkpt lat="47.36134123922649" lon="-1.8572804587105962"><ele>73.0</ele><time>2026-03-22T09:47:45.969Z</time></trkpt><trkpt lat="47.361358666219786" lon="-1.857135029240223"><ele>72.4</ele><time>2026-03-22T09:47:46.969Z</time></trkpt><trkpt lat="47.361376102376106" lon="-1.8569952247603307"><ele>71.8</ele><time>2026-03-22T09:47:47.969Z</time></trkpt><trkpt lat="47.36138322073527" lon="-1.8568546467762497"><ele>71.2</ele><time>2026-03-22T09:47:48.969Z</time></trkpt><trkpt lat="47.36140294134051" lon="-1.856727869369698"><ele>70.6</ele><time>2026-03-22T09:47:49.969Z</time></trkpt><trkpt lat="47.361419582534374" lon="-1.8565960322181927"><ele>70.0</ele><time>2026-03-22T09:47:50.969Z</time></trkpt><trkpt lat="47.36143517572964" lon="-1.856464217734893"><ele>69.66666666666666</ele><time>2026-03-22T09:47:51.969Z</time></trkpt><trkpt lat="47.36144974479753" lon="-1.8563371604749432"><ele>69.33333333333333</ele><time>2026-03-22T09:47:52.969Z</time></trkpt><trkpt lat="47.36146073283155" lon="-1.8562101746444817"><ele>69.0</ele><time>2026-03-22T09:47:53.969Z</time></trkpt><trkpt lat="47.361474443374256" lon="-1.8560859127112597"><ele>68.66666666666667</ele><time>2026-03-22T09:47:54.969Z</time></trkpt><trkpt lat="47.36148643895151" lon="-1.8559694779000613"><ele>68.33333333333334</ele><time>2026-03-22T09:47:55.969Z</time></trkpt><trkpt lat="47.3614967583269" lon="-1.8558516834202636"><ele>68.0</ele><time>2026-03-22T09:47:56.969Z</time></trkpt><trkpt lat="47.361511267827694" lon="-1.8557417450192075"><ele>67.99999999999999</ele><time>2026-03-22T09:47:57.969Z</time></trkpt><trkpt lat="47.361524687782676" lon="-1.8556291906692555"><ele>68.0</ele><time>2026-03-22T09:47:58.969Z</time></trkpt><trkpt lat="47.36152613851249" lon="-1.8555237869725065"><ele>68.0</ele><time>2026-03-22T09:47:59.969Z</time></trkpt><trkpt lat="47.36153679590007" lon="-1.8554228799927666"><ele>68.0</ele><time>2026-03-22T09:48:00.969Z</time></trkpt><trkpt lat="47.36155586370251" lon="-1.855325767689539"><ele>68.0</ele><time>2026-03-22T09:48:01.969Z</time></trkpt><trkpt lat="47.361574912063205" lon="-1.8552257973417223"><ele>67.99999999999999</ele><time>2026-03-22T09:48:02.969Z</time></trkpt><trkpt lat="47.36159888572791" lon="-1.8551241615255756"><ele>68.0</ele><time>2026-03-22T09:48:03.969Z</time></trkpt><trkpt lat="47.36162874141295" lon="-1.8550201561222615"><ele>68.33333333333334</ele><time>2026-03-22T09:48:04.969Z</time></trkpt><trkpt lat="47.36166541115282" lon="-1.8549144322448914"><ele>68.66666666666667</ele><time>2026-03-22T09:48:05.969Z</time></trkpt><trkpt lat="47.3616946795013" lon="-1.8547969473226817"><ele>69.0</ele><time>2026-03-22T09:48:06.969Z</time></trkpt><trkpt lat="47.36173145742338" lon="-1.854685750941327"><ele>69.33333333333333</ele><time>2026-03-22T09:48:07.969Z</time></trkpt><trkpt lat="47.361768169396065" lon="-1.8545685537569252"><ele>69.66666666666666</ele><time>2026-03-22T09:48:08.969Z</time></trkpt><trkpt lat="47.36181403758543" lon="-1.8544515420957777"><ele>70.0</ele><time>2026-03-22T09:48:09.969Z</time></trkpt><trkpt lat="47.36185969589156" lon="-1.8543298570813902"><ele>69.4</ele><time>2026-03-22T09:48:10.97Z</time></trkpt><trkpt lat="47.361906051450994" lon="-1.8542064946936843"><ele>68.8</ele><time>2026-03-22T09:48:11.969Z</time></trkpt><trkpt lat="47.361948760473425" lon="-1.8540783573508042"><ele>68.2</ele><time>2026-03-22T09:48:12.969Z</time></trkpt><trkpt lat="47.36199587129797" lon="-1.8539461633289187"><ele>67.6</ele><time>2026-03-22T09:48:13.97Z</time></trkpt><trkpt lat="47.36204649037533" lon="-1.8538162779174945"><ele>67.0</ele><time>2026-03-22T09:48:14.97Z</time></trkpt><trkpt lat="47.362088640431836" lon="-1.8536769176281198"><ele>67.0</ele><time>2026-03-22T09:48:15.97Z</time></trkpt><trkpt lat="47.36213937314298" lon="-1.8535403920175988"><ele>67.0</ele><time>2026-03-22T09:48:16.97Z</time></trkpt><trkpt lat="47.362186600737985" lon="-1.8533978647752454"><ele>67.0</ele><time>2026-03-22T09:48:17.969Z</time></trkpt><trkpt lat="47.36224273536334" lon="-1.8532654329330016"><ele>67.0</ele><time>2026-03-22T09:48:18.969Z</time></trkpt><trkpt lat="47.36228405381939" lon="-1.8531341601441913"><ele>67.0</ele><time>2026-03-22T09:48:19.97Z</time></trkpt><trkpt lat="47.36232992479907" lon="-1.852994854493846"><ele>65.8</ele><time>2026-03-22T09:48:20.969Z</time></trkpt><trkpt lat="47.36237865004373" lon="-1.8528500955214293"><ele>64.6</ele><time>2026-03-22T09:48:21.969Z</time></trkpt><trkpt lat="47.36242908847033" lon="-1.8527078132866008"><ele>63.39999999999999</ele><time>2026-03-22T09:48:22.969Z</time></trkpt><trkpt lat="47.362478288690546" lon="-1.8525629764758755"><ele>62.199999999999996</ele><time>2026-03-22T09:48:23.97Z</time></trkpt><trkpt lat="47.36252096589034" lon="-1.852421154477152"><ele>61.0</ele><time>2026-03-22T09:48:24.97Z</time></trkpt><trkpt lat="47.36256406707894" lon="-1.852291903057245"><ele>60.666666666666664</ele><time>2026-03-22T09:48:25.97Z</time></trkpt><trkpt lat="47.36261107681657" lon="-1.852171553906117"><ele>60.33333333333333</ele><time>2026-03-22T09:48:26.97Z</time></trkpt><trkpt lat="47.36266943545092" lon="-1.8520594968684896"><ele>60.0</ele><time>2026-03-22T09:48:27.97Z</time></trkpt><trkpt lat="47.3627276795776" lon="-1.8519762407037064"><ele>59.66666666666667</ele><time>2026-03-22T09:48:28.97Z</time></trkpt><trkpt lat="47.36278099869619" lon="-1.8519040054012803"><ele>59.333333333333336</ele><time>2026-03-22T09:48:29.97Z</time></trkpt><trkpt lat="47.3628372548278" lon="-1.8518419796832644"><ele>59.0</ele><time>2026-03-22T09:48:30.97Z</time></trkpt><trkpt lat="47.36290190719409" lon="-1.8518005833873943"><ele>59.400000000000006</ele><time>2026-03-22T09:48:31.97Z</time></trkpt><trkpt lat="47.36300197198254" lon="-1.8517280145921895"><ele>59.800000000000004</ele><time>2026-03-22T09:48:33.97Z</time></trkpt><trkpt lat="47.363090298205414" lon="-1.8516604756979442"><ele>60.199999999999996</ele><time>2026-03-22T09:48:35.97Z</time></trkpt><trkpt lat="47.36316892648745" lon="-1.8516049715295053"><ele>60.599999999999994</ele><time>2026-03-22T09:48:37.97Z</time></trkpt><trkpt lat="47.36324049694623" lon="-1.8515588081574132"><ele>61.0</ele><time>2026-03-22T09:48:39.97Z</time></trkpt><trkpt lat="47.36331099006469" lon="-1.8514980953098321"><ele>61.83333333333333</ele><time>2026-03-22T09:48:41.97Z</time></trkpt><trkpt lat="47.36337692640333" lon="-1.851445430722896"><ele>62.666666666666664</ele><time>2026-03-22T09:48:43.97Z</time></trkpt><trkpt lat="47.363434692502345" lon="-1.8513804966203753"><ele>63.5</ele><time>2026-03-22T09:48:45.97Z</time></trkpt><trkpt lat="47.36348577335733" lon="-1.8513249760025696"><ele>64.33333333333333</ele><time>2026-03-22T09:48:47.97Z</time></trkpt><trkpt lat="47.36355699908227" lon="-1.8512401199750939"><ele>65.16666666666667</ele><time>2026-03-22T09:48:50.97Z</time></trkpt><trkpt lat="47.36362852584127" lon="-1.85114956311944"><ele>66.0</ele><time>2026-03-22T09:48:53.97Z</time></trkpt><trkpt lat="47.36367666267054" lon="-1.8510863239630544"><ele>66.0</ele><time>2026-03-22T09:48:55.97Z</time></trkpt><trkpt lat="47.363747579196094" lon="-1.8509903676348052"><ele>66.0</ele><time>2026-03-22T09:48:58.97Z</time></trkpt><trkpt lat="47.36380565949016" lon="-1.8509028576047168"><ele>66.0</ele><time>2026-03-22T09:49:01.97Z</time></trkpt><trkpt lat="47.36386898084844" lon="-1.850817006579646"><ele>66.0</ele><time>2026-03-22T09:49:04.97Z</time></trkpt><trkpt lat="47.36392999883915" lon="-1.850735584295946"><ele>66.0</ele><time>2026-03-22T09:49:07.97Z</time></trkpt><trkpt lat="47.36398994623676" lon="-1.8506557498759129"><ele>66.0</ele><time>2026-03-22T09:49:10.97Z</time></trkpt><trkpt lat="47.364049440275856" lon="-1.8505788304733917"><ele>66.83333333333333</ele><time>2026-03-22T09:49:13.97Z</time></trkpt><trkpt lat="47.36409423324857" lon="-1.8505099678128394"><ele>67.66666666666667</ele><time>2026-03-22T09:49:16.97Z</time></trkpt><trkpt lat="47.364147649412416" lon="-1.8504515376985067"><ele>68.5</ele><time>2026-03-22T09:49:19.97Z</time></trkpt><trkpt lat="47.36420561754484" lon="-1.8503440619956422"><ele>69.33333333333334</ele><time>2026-03-22T09:49:22.97Z</time></trkpt><trkpt lat="47.36427614375548" lon="-1.8502544319757999"><ele>70.16666666666667</ele><time>2026-03-22T09:49:25.97Z</time></trkpt><trkpt lat="47.364327135188454" lon="-1.850176301659042"><ele>71.0</ele><time>2026-03-22T09:49:27.97Z</time></trkpt><trkpt lat="47.364391960113494" lon="-1.8500797647047678"><ele>71.33333333333334</ele><time>2026-03-22T09:49:30.97Z</time></trkpt><trkpt lat="47.3644593051367" lon="-1.8499869725522278"><ele>71.66666666666667</ele><time>2026-03-22T09:49:33.97Z</time></trkpt><trkpt lat="47.364507859514184" lon="-1.8499259142086948"><ele>72.0</ele><time>2026-03-22T09:49:35.97Z</time></trkpt><trkpt lat="47.36456915368841" lon="-1.8498330206779865"><ele>72.33333333333333</ele><time>2026-03-22T09:49:38.97Z</time></trkpt><trkpt lat="47.36463219833594" lon="-1.849728487129532"><ele>72.66666666666666</ele><time>2026-03-22T09:49:41.97Z</time></trkpt><trkpt lat="47.36469117210566" lon="-1.8496257981781754"><ele>73.0</ele><time>2026-03-22T09:49:44.97Z</time></trkpt><trkpt lat="47.36473352329564" lon="-1.8495484064887353"><ele>74.28571428571428</ele><time>2026-03-22T09:49:46.97Z</time></trkpt><trkpt lat="47.364761515431546" lon="-1.8494613893139475"><ele>75.57142857142857</ele><time>2026-03-22T09:49:48.97Z</time></trkpt><trkpt lat="47.3647875538556" lon="-1.8493598193088152"><ele>76.85714285714286</ele><time>2026-03-22T09:49:50.97Z</time></trkpt><trkpt lat="47.364805655116456" lon="-1.849262577491404"><ele>78.14285714285714</ele><time>2026-03-22T09:49:52.97Z</time></trkpt><trkpt lat="47.36481458707552" lon="-1.8491534750224428"><ele>79.42857142857143</ele><time>2026-03-22T09:49:54.97Z</time></trkpt><trkpt lat="47.36481258473428" lon="-1.8490495367091186"><ele>80.71428571428571</ele><time>2026-03-22T09:49:56.97Z</time></trkpt><trkpt lat="47.36480242696462" lon="-1.8489298872932167"><ele>82.0</ele><time>2026-03-22T09:49:58.97Z</time></trkpt><trkpt lat="47.36477307301424" lon="-1.8488326317083443"><ele>82.39999999999999</ele><time>2026-03-22T09:50:00.97Z</time></trkpt><trkpt lat="47.36473746532439" lon="-1.8487170948184082"><ele>82.8</ele><time>2026-03-22T09:50:02.969Z</time></trkpt><trkpt lat="47.36468405585494" lon="-1.8485854169305642"><ele>83.2</ele><time>2026-03-22T09:50:04.969Z</time></trkpt><trkpt lat="47.36462953457762" lon="-1.8484641778895856"><ele>83.6</ele><time>2026-03-22T09:50:06.969Z</time></trkpt><trkpt lat="47.36455353692242" lon="-1.8483354016548743"><ele>84.0</ele><time>2026-03-22T09:50:08.969Z</time></trkpt><trkpt lat="47.364490657347304" lon="-1.8482253013110526"><ele>82.2</ele><time>2026-03-22T09:50:10.969Z</time></trkpt><trkpt lat="47.3644197569123" lon="-1.8480774382016605"><ele>80.4</ele><time>2026-03-22T09:50:12.969Z</time></trkpt><trkpt lat="47.36433813237374" lon="-1.8479315491051123"><ele>78.6</ele><time>2026-03-22T09:50:14.969Z</time></trkpt><trkpt lat="47.36429881564799" lon="-1.847856520148832"><ele>76.8</ele><time>2026-03-22T09:50:15.969Z</time></trkpt><trkpt lat="47.36426014340085" lon="-1.8477827346992655"><ele>75.0</ele><time>2026-03-22T09:50:16.97Z</time></trkpt><trkpt lat="47.36419517258043" lon="-1.8476367959913265"><ele>74.8</ele><time>2026-03-22T09:50:18.969Z</time></trkpt><trkpt lat="47.36414166375764" lon="-1.84747391429203"><ele>74.6</ele><time>2026-03-22T09:50:20.969Z</time></trkpt><trkpt lat="47.3641154998895" lon="-1.8473886020860235"><ele>74.4</ele><time>2026-03-22T09:50:21.969Z</time></trkpt><trkpt lat="47.3640883810319" lon="-1.8473029904731342"><ele>74.2</ele><time>2026-03-22T09:50:22.969Z</time></trkpt><trkpt lat="47.36405473205119" lon="-1.847132515641353"><ele>74.0</ele><time>2026-03-22T09:50:24.97Z</time></trkpt><trkpt lat="47.36402579520651" lon="-1.8469617158113827"><ele>74.5</ele><time>2026-03-22T09:50:26.969Z</time></trkpt><trkpt lat="47.36399181635838" lon="-1.846789154603161"><ele>75.0</ele><time>2026-03-22T09:50:28.97Z</time></trkpt><trkpt lat="47.363960142413674" lon="-1.8466262570138554"><ele>75.5</ele><time>2026-03-22T09:50:30.97Z</time></trkpt><trkpt lat="47.36395632415064" lon="-1.8464671907338577"><ele>76.0</ele><time>2026-03-22T09:50:32.97Z</time></trkpt><trkpt lat="47.3639278512939" lon="-1.8463166313901282"><ele>76.0</ele><time>2026-03-22T09:50:34.97Z</time></trkpt><trkpt lat="47.36390574687718" lon="-1.8461683030413236"><ele>76.0</ele><time>2026-03-22T09:50:36.97Z</time></trkpt><trkpt lat="47.36389338499803" lon="-1.8460295808511218"><ele>76.0</ele><time>2026-03-22T09:50:38.97Z</time></trkpt><trkpt lat="47.36388067589321" lon="-1.8458940947473554"><ele>76.0</ele><time>2026-03-22T09:50:40.97Z</time></trkpt><trkpt lat="47.363886875371946" lon="-1.845760216569956"><ele>76.0</ele><time>2026-03-22T09:50:42.97Z</time></trkpt><trkpt lat="47.363908267575184" lon="-1.8456181661787718"><ele>76.6</ele><time>2026-03-22T09:50:44.97Z</time></trkpt><trkpt lat="47.36394086568751" lon="-1.8454790041634488"><ele>77.19999999999999</ele><time>2026-03-22T09:50:46.97Z</time></trkpt><trkpt lat="47.36399715919261" lon="-1.8453429580164773"><ele>77.80000000000001</ele><time>2026-03-22T09:50:48.97Z</time></trkpt><trkpt lat="47.3640617943843" lon="-1.8452506560936663"><ele>78.4</ele><time>2026-03-22T09:50:50.97Z</time></trkpt><trkpt lat="47.364133511053595" lon="-1.84515447941238"><ele>79.0</ele><time>2026-03-22T09:50:52.97Z</time></trkpt><trkpt lat="47.364205514244965" lon="-1.845063844767664"><ele>79.0</ele><time>2026-03-22T09:50:54.97Z</time></trkpt><trkpt lat="47.36428372489951" lon="-1.8449641670508814"><ele>79.0</ele><time>2026-03-22T09:50:56.97Z</time></trkpt><trkpt lat="47.36435723091043" lon="-1.8448535541437852"><ele>79.0</ele><time>2026-03-22T09:50:58.97Z</time></trkpt><trkpt lat="47.36443974231771" lon="-1.844761067539163"><ele>79.0</ele><time>2026-03-22T09:51:00.97Z</time></trkpt><trkpt lat="47.36452548470445" lon="-1.844672234460377"><ele>79.0</ele><time>2026-03-22T09:51:02.969Z</time></trkpt><trkpt lat="47.36459146146096" lon="-1.8445769966806624"><ele>79.0</ele><time>2026-03-22T09:51:04.969Z</time></trkpt><trkpt lat="47.36467761341173" lon="-1.8444747827021835"><ele>79.0</ele><time>2026-03-22T09:51:06.969Z</time></trkpt><trkpt lat="47.36476191615892" lon="-1.8443815558847503"><ele>79.0</ele><time>2026-03-22T09:51:08.969Z</time></trkpt><trkpt lat="47.364843905521525" lon="-1.8442768341407505"><ele>79.0</ele><time>2026-03-22T09:51:10.969Z</time></trkpt><trkpt lat="47.364926229424874" lon="-1.8441697367774232"><ele>79.0</ele><time>2026-03-22T09:51:12.969Z</time></trkpt><trkpt lat="47.365011201235276" lon="-1.844066066617423"><ele>79.75</ele><time>2026-03-22T09:51:14.969Z</time></trkpt><trkpt lat="47.36510381111691" lon="-1.8439591572397616"><ele>80.5</ele><time>2026-03-22T09:51:16.969Z</time></trkpt><trkpt lat="47.36519365608611" lon="-1.8438586169657574"><ele>81.25</ele><time>2026-03-22T09:51:18.969Z</time></trkpt><trkpt lat="47.36527565913909" lon="-1.8437454620171596"><ele>82.0</ele><time>2026-03-22T09:51:20.969Z</time></trkpt><trkpt lat="47.365364137462144" lon="-1.8436448142484405"><ele>82.0</ele><time>2026-03-22T09:51:22.969Z</time></trkpt><trkpt lat="47.36540960436281" lon="-1.8435737045710636"><ele>82.0</ele><time>2026-03-22T09:51:23.969Z</time></trkpt><trkpt lat="47.36549534878929" lon="-1.8434449990201718"><ele>82.0</ele><time>2026-03-22T09:51:25.969Z</time></trkpt><trkpt lat="47.365539638223176" lon="-1.843371364158475"><ele>82.0</ele><time>2026-03-22T09:51:26.969Z</time></trkpt><trkpt lat="47.36561599592721" lon="-1.8432356458955135"><ele>82.0</ele><time>2026-03-22T09:51:28.969Z</time></trkpt><trkpt lat="47.365652429789904" lon="-1.843159485225143"><ele>82.0</ele><time>2026-03-22T09:51:29.969Z</time></trkpt><trkpt lat="47.36571620260717" lon="-1.8430000131031155"><ele>82.16666666666666</ele><time>2026-03-22T09:51:31.969Z</time></trkpt><trkpt lat="47.36574568709835" lon="-1.8429148174616177"><ele>82.33333333333333</ele><time>2026-03-22T09:51:32.969Z</time></trkpt><trkpt lat="47.365769937235704" lon="-1.8428240334703951"><ele>82.5</ele><time>2026-03-22T09:51:33.969Z</time></trkpt><trkpt lat="47.36582137043502" lon="-1.8426521855555187"><ele>82.66666666666667</ele><time>2026-03-22T09:51:35.969Z</time></trkpt><trkpt lat="47.365844985813126" lon="-1.8425582755241796"><ele>82.83333333333334</ele><time>2026-03-22T09:51:36.969Z</time></trkpt><trkpt lat="47.3658665852262" lon="-1.8424708235948186"><ele>83.0</ele><time>2026-03-22T09:51:37.969Z</time></trkpt><trkpt lat="47.36587468556669" lon="-1.8423770289584238"><ele>82.66666666666667</ele><time>2026-03-22T09:51:38.969Z</time></trkpt><trkpt lat="47.365932632152" lon="-1.8422101740464996"><ele>82.33333333333334</ele><time>2026-03-22T09:51:40.969Z</time></trkpt><trkpt lat="47.36597350297079" lon="-1.842047451159044"><ele>82.0</ele><time>2026-03-22T09:51:42.969Z</time></trkpt><trkpt lat="47.365998167903626" lon="-1.8419541745252426"><ele>81.66666666666667</ele><time>2026-03-22T09:51:43.969Z</time></trkpt><trkpt lat="47.36601099696171" lon="-1.8418595506861974"><ele>81.33333333333333</ele><time>2026-03-22T09:51:44.969Z</time></trkpt><trkpt lat="47.366028753844596" lon="-1.841763903759603"><ele>81.0</ele><time>2026-03-22T09:51:45.969Z</time></trkpt><trkpt lat="47.36605909760497" lon="-1.8416614443154817"><ele>81.0</ele><time>2026-03-22T09:51:46.969Z</time></trkpt><trkpt lat="47.366087064855215" lon="-1.8415596760728896"><ele>81.0</ele><time>2026-03-22T09:51:47.969Z</time></trkpt><trkpt lat="47.36610084758317" lon="-1.841455960854521"><ele>81.0</ele><time>2026-03-22T09:51:48.969Z</time></trkpt><trkpt lat="47.36611450786508" lon="-1.8413543042758196"><ele>81.0</ele><time>2026-03-22T09:51:49.969Z</time></trkpt><trkpt lat="47.36613553592723" lon="-1.8412469231657913"><ele>81.0</ele><time>2026-03-22T09:51:50.969Z</time></trkpt><trkpt lat="47.36614896728619" lon="-1.841126152830958"><ele>81.0</ele><time>2026-03-22T09:51:51.969Z</time></trkpt><trkpt lat="47.36614771394629" lon="-1.8410110530821413"><ele>80.66666666666667</ele><time>2026-03-22T09:51:52.969Z</time></trkpt><trkpt lat="47.36614725525841" lon="-1.840886385487527"><ele>80.33333333333333</ele><time>2026-03-22T09:51:53.969Z</time></trkpt><trkpt lat="47.36613958108549" lon="-1.8407705117817388"><ele>80.0</ele><time>2026-03-22T09:51:54.969Z</time></trkpt><trkpt lat="47.366134062280686" lon="-1.840653438569361"><ele>79.66666666666666</ele><time>2026-03-22T09:51:55.969Z</time></trkpt><trkpt lat="47.36612145347778" lon="-1.840517555635141"><ele>79.33333333333333</ele><time>2026-03-22T09:51:56.969Z</time></trkpt><trkpt lat="47.36612599026525" lon="-1.8403991446819405"><ele>79.0</ele><time>2026-03-22T09:51:57.969Z</time></trkpt><trkpt lat="47.36611616228736" lon="-1.8402698609952297"><ele>79.0</ele><time>2026-03-22T09:51:58.969Z</time></trkpt><trkpt lat="47.366114914450364" lon="-1.8401485538715656"><ele>79.0</ele><time>2026-03-22T09:51:59.969Z</time></trkpt><trkpt lat="47.36611178998478" lon="-1.840031412446391"><ele>79.0</ele><time>2026-03-22T09:52:00.969Z</time></trkpt><trkpt lat="47.366103048793455" lon="-1.8399131272446854"><ele>79.0</ele><time>2026-03-22T09:52:01.969Z</time></trkpt><trkpt lat="47.36608389557644" lon="-1.8396853354464526"><ele>79.0</ele><time>2026-03-22T09:52:03.969Z</time></trkpt><trkpt lat="47.36608072306594" lon="-1.8395754995774356"><ele>78.85714285714286</ele><time>2026-03-22T09:52:04.969Z</time></trkpt><trkpt lat="47.36608105631878" lon="-1.8394636674886378"><ele>78.71428571428572</ele><time>2026-03-22T09:52:05.969Z</time></trkpt><trkpt lat="47.36607617630745" lon="-1.8393585043200629"><ele>78.57142857142858</ele><time>2026-03-22T09:52:06.969Z</time></trkpt><trkpt lat="47.366074106947295" lon="-1.8392552708891887"><ele>78.42857142857143</ele><time>2026-03-22T09:52:07.969Z</time></trkpt><trkpt lat="47.36607327395416" lon="-1.8391541896358046"><ele>78.28571428571428</ele><time>2026-03-22T09:52:08.969Z</time></trkpt><trkpt lat="47.36606728495944" lon="-1.8390514096172597"><ele>78.14285714285715</ele><time>2026-03-22T09:52:09.969Z</time></trkpt><trkpt lat="47.36606544292422" lon="-1.838955098084187"><ele>78.0</ele><time>2026-03-22T09:52:10.969Z</time></trkpt><trkpt lat="47.366062860958756" lon="-1.8388602502284477"><ele>78.0</ele><time>2026-03-22T09:52:11.969Z</time></trkpt><trkpt lat="47.36605565254112" lon="-1.8387608698398654"><ele>78.0</ele><time>2026-03-22T09:52:12.969Z</time></trkpt><trkpt lat="47.366055671028754" lon="-1.8386588654309621"><ele>78.0</ele><time>2026-03-22T09:52:13.969Z</time></trkpt><trkpt lat="47.366056768648136" lon="-1.8385604921226886"><ele>78.0</ele><time>2026-03-22T09:52:14.969Z</time></trkpt><trkpt lat="47.366054337660046" lon="-1.8383732549431877"><ele>78.0</ele><time>2026-03-22T09:52:16.969Z</time></trkpt><trkpt lat="47.366049174616975" lon="-1.8382785381641904"><ele>78.0</ele><time>2026-03-22T09:52:17.969Z</time></trkpt><trkpt lat="47.36604696178928" lon="-1.8380801840303522"><ele>78.0</ele><time>2026-03-22T09:52:19.969Z</time></trkpt><trkpt lat="47.3660398367702" lon="-1.8378968277269128"><ele>78.0</ele><time>2026-03-22T09:52:21.969Z</time></trkpt><trkpt lat="47.36603304130727" lon="-1.837703550801323"><ele>78.0</ele><time>2026-03-22T09:52:23.97Z</time></trkpt><trkpt lat="47.36602422513693" lon="-1.8376114158642993"><ele>78.0</ele><time>2026-03-22T09:52:24.97Z</time></trkpt><trkpt lat="47.3660251304516" lon="-1.8374309876129216"><ele>78.0</ele><time>2026-03-22T09:52:26.97Z</time></trkpt><trkpt lat="47.36602012877437" lon="-1.8373314145482162"><ele>78.0</ele><time>2026-03-22T09:52:27.97Z</time></trkpt><trkpt lat="47.366019721589744" lon="-1.8372354538642486"><ele>78.0</ele><time>2026-03-22T09:52:28.97Z</time></trkpt><trkpt lat="47.366020923411185" lon="-1.837048572635393"><ele>78.0</ele><time>2026-03-22T09:52:30.97Z</time></trkpt><trkpt lat="47.36603082907001" lon="-1.8369515461026305"><ele>78.0</ele><time>2026-03-22T09:52:31.97Z</time></trkpt><trkpt lat="47.36603131880826" lon="-1.8368563173011752"><ele>78.0</ele><time>2026-03-22T09:52:32.97Z</time></trkpt><trkpt lat="47.366023780322486" lon="-1.83667628008084"><ele>78.0</ele><time>2026-03-22T09:52:34.969Z</time></trkpt><trkpt lat="47.36602142489213" lon="-1.8365750469096864"><ele>78.33333333333333</ele><time>2026-03-22T09:52:35.969Z</time></trkpt><trkpt lat="47.36601604572685" lon="-1.8364795222749288"><ele>78.66666666666667</ele><time>2026-03-22T09:52:36.969Z</time></trkpt><trkpt lat="47.36601127754605" lon="-1.8363758446647462"><ele>79.0</ele><time>2026-03-22T09:52:37.969Z</time></trkpt><trkpt lat="47.36601027643913" lon="-1.8362798277240522"><ele>79.33333333333334</ele><time>2026-03-22T09:52:38.969Z</time></trkpt><trkpt lat="47.36600620107135" lon="-1.836086684450688"><ele>79.66666666666667</ele><time>2026-03-22T09:52:40.969Z</time></trkpt><trkpt lat="47.36600075704489" lon="-1.8359861136415385"><ele>80.0</ele><time>2026-03-22T09:52:41.969Z</time></trkpt><trkpt lat="47.36599781499049" lon="-1.8358838006579048"><ele>80.14285714285714</ele><time>2026-03-22T09:52:42.969Z</time></trkpt><trkpt lat="47.36599039528957" lon="-1.8357839989875941"><ele>80.28571428571429</ele><time>2026-03-22T09:52:43.969Z</time></trkpt><trkpt lat="47.36599175035517" lon="-1.835686326657798"><ele>80.42857142857143</ele><time>2026-03-22T09:52:44.969Z</time></trkpt><trkpt lat="47.365985277663384" lon="-1.8355834330336431"><ele>80.57142857142857</ele><time>2026-03-22T09:52:45.969Z</time></trkpt><trkpt lat="47.36598351061329" lon="-1.8354712308916286"><ele>80.71428571428571</ele><time>2026-03-22T09:52:46.969Z</time></trkpt><trkpt lat="47.36598365698338" lon="-1.8353720584546538"><ele>80.85714285714286</ele><time>2026-03-22T09:52:47.969Z</time></trkpt><trkpt lat="47.36598778551538" lon="-1.8352691525126958"><ele>81.0</ele><time>2026-03-22T09:52:48.969Z</time></trkpt><trkpt lat="47.36598377920885" lon="-1.8351689165781093"><ele>80.71428571428572</ele><time>2026-03-22T09:52:49.969Z</time></trkpt><trkpt lat="47.36597908445214" lon="-1.8350647197786927"><ele>80.42857142857143</ele><time>2026-03-22T09:52:50.969Z</time></trkpt><trkpt lat="47.36597445732374" lon="-1.8349568844138235"><ele>80.14285714285714</ele><time>2026-03-22T09:52:51.969Z</time></trkpt><trkpt lat="47.36597589216878" lon="-1.8348567304832943"><ele>79.85714285714286</ele><time>2026-03-22T09:52:52.969Z</time></trkpt><trkpt lat="47.36598584002284" lon="-1.8347600177127046"><ele>79.57142857142857</ele><time>2026-03-22T09:52:53.969Z</time></trkpt><trkpt lat="47.36599599943205" lon="-1.8346609163042142"><ele>79.28571428571429</ele><time>2026-03-22T09:52:54.969Z</time></trkpt><trkpt lat="47.366031211587675" lon="-1.8345690264360328"><ele>79.0</ele><time>2026-03-22T09:52:55.969Z</time></trkpt><trkpt lat="47.36613813586302" lon="-1.8344364667428845"><ele>79.00000000000001</ele><time>2026-03-22T09:52:57.969Z</time></trkpt><trkpt lat="47.36619856256455" lon="-1.8343901030527412"><ele>79.0</ele><time>2026-03-22T09:52:58.969Z</time></trkpt><trkpt lat="47.36626653427606" lon="-1.8343641454557418"><ele>79.0</ele><time>2026-03-22T09:52:59.969Z</time></trkpt><trkpt lat="47.3663333877993" lon="-1.8343563683362571"><ele>79.0</ele><time>2026-03-22T09:53:00.969Z</time></trkpt><trkpt lat="47.36640247418668" lon="-1.8343477652197298"><ele>79.0</ele><time>2026-03-22T09:53:01.969Z</time></trkpt><trkpt lat="47.36646877014468" lon="-1.834337734614738"><ele>79.00000000000001</ele><time>2026-03-22T09:53:02.969Z</time></trkpt><trkpt lat="47.366531929656446" lon="-1.8343365629019508"><ele>79.0</ele><time>2026-03-22T09:53:03.969Z</time></trkpt><trkpt lat="47.36660309107612" lon="-1.834315871821308"><ele>79.00000000000001</ele><time>2026-03-22T09:53:04.969Z</time></trkpt><trkpt lat="47.3666678694685" lon="-1.8343118692100464"><ele>79.0</ele><time>2026-03-22T09:53:05.969Z</time></trkpt><trkpt lat="47.36673241345619" lon="-1.8343047947498927"><ele>79.0</ele><time>2026-03-22T09:53:06.969Z</time></trkpt><trkpt lat="47.366800132455126" lon="-1.8342987343743378"><ele>79.0</ele><time>2026-03-22T09:53:07.969Z</time></trkpt><trkpt lat="47.366869503642796" lon="-1.8342913135064443"><ele>79.0</ele><time>2026-03-22T09:53:08.969Z</time></trkpt><trkpt lat="47.36693903993927" lon="-1.8342761300791712"><ele>79.00000000000001</ele><time>2026-03-22T09:53:09.969Z</time></trkpt><trkpt lat="47.367006147438666" lon="-1.8342663687285532"><ele>79.0</ele><time>2026-03-22T09:53:10.969Z</time></trkpt><trkpt lat="47.3670746954989" lon="-1.8342552978515354"><ele>79.00000000000001</ele><time>2026-03-22T09:53:11.969Z</time></trkpt><trkpt lat="47.367143614992784" lon="-1.8342512752819375"><ele>79.0</ele><time>2026-03-22T09:53:12.969Z</time></trkpt><trkpt lat="47.36721672956534" lon="-1.8342357727663687"><ele>79.0</ele><time>2026-03-22T09:53:13.969Z</time></trkpt><trkpt lat="47.36728427486717" lon="-1.8342239724989897"><ele>79.0</ele><time>2026-03-22T09:53:14.969Z</time></trkpt><trkpt lat="47.367359248752365" lon="-1.8342118273563999"><ele>79.0</ele><time>2026-03-22T09:53:15.969Z</time></trkpt><trkpt lat="47.36742935218379" lon="-1.8341954031211563"><ele>79.00000000000001</ele><time>2026-03-22T09:53:16.969Z</time></trkpt><trkpt lat="47.36749994303216" lon="-1.8341863997697085"><ele>79.0</ele><time>2026-03-22T09:53:17.969Z</time></trkpt><trkpt lat="47.367573703816944" lon="-1.8341724112640247"><ele>78.85714285714286</ele><time>2026-03-22T09:53:18.969Z</time></trkpt><trkpt lat="47.36764470966322" lon="-1.8341575302784205"><ele>78.71428571428572</ele><time>2026-03-22T09:53:19.969Z</time></trkpt><trkpt lat="47.36772007908627" lon="-1.8341412073463612"><ele>78.57142857142858</ele><time>2026-03-22T09:53:20.969Z</time></trkpt><trkpt lat="47.36779084471694" lon="-1.83413357822261"><ele>78.42857142857143</ele><time>2026-03-22T09:53:21.969Z</time></trkpt><trkpt lat="47.367861788842774" lon="-1.8341266224830644"><ele>78.28571428571428</ele><time>2026-03-22T09:53:22.969Z</time></trkpt><trkpt lat="47.367932050923564" lon="-1.8341169261258532"><ele>78.14285714285715</ele><time>2026-03-22T09:53:23.969Z</time></trkpt><trkpt lat="47.368002992288055" lon="-1.8341028100110286"><ele>78.0</ele><time>2026-03-22T09:53:24.969Z</time></trkpt><trkpt lat="47.36807608551659" lon="-1.834091223945651"><ele>77.66666666666667</ele><time>2026-03-22T09:53:25.969Z</time></trkpt><trkpt lat="47.36814921914857" lon="-1.8340787713224158"><ele>77.33333333333333</ele><time>2026-03-22T09:53:26.969Z</time></trkpt><trkpt lat="47.368223484835795" lon="-1.8340646990858493"><ele>77.0</ele><time>2026-03-22T09:53:27.969Z</time></trkpt><trkpt lat="47.36829719682661" lon="-1.8340545234930774"><ele>76.66666666666666</ele><time>2026-03-22T09:53:28.969Z</time></trkpt><trkpt lat="47.3683736056126" lon="-1.8340355545327451"><ele>76.33333333333333</ele><time>2026-03-22T09:53:29.969Z</time></trkpt><trkpt lat="47.368448776410915" lon="-1.8340234738806473"><ele>76.0</ele><time>2026-03-22T09:53:30.969Z</time></trkpt><trkpt lat="47.36852594330022" lon="-1.834007412646142"><ele>76.0</ele><time>2026-03-22T09:53:31.969Z</time></trkpt><trkpt lat="47.36860372334828" lon="-1.8339925580293375"><ele>76.0</ele><time>2026-03-22T09:53:32.969Z</time></trkpt><trkpt lat="47.368680262753315" lon="-1.8339804867338168"><ele>76.0</ele><time>2026-03-22T09:53:33.969Z</time></trkpt><trkpt lat="47.36876075973457" lon="-1.8339683588872657"><ele>76.0</ele><time>2026-03-22T09:53:34.969Z</time></trkpt><trkpt lat="47.36883960531882" lon="-1.8339589711670679"><ele>76.0</ele><time>2026-03-22T09:53:35.969Z</time></trkpt><trkpt lat="47.368918510581274" lon="-1.8339463364532445"><ele>76.0</ele><time>2026-03-22T09:53:36.969Z</time></trkpt><trkpt lat="47.36900086857815" lon="-1.8339326813564931"><ele>75.5</ele><time>2026-03-22T09:53:37.969Z</time></trkpt><trkpt lat="47.36908162380791" lon="-1.833927610209641"><ele>75.0</ele><time>2026-03-22T09:53:38.969Z</time></trkpt><trkpt lat="47.36916881561996" lon="-1.8339180407618294"><ele>74.5</ele><time>2026-03-22T09:53:39.969Z</time></trkpt><trkpt lat="47.369254996430065" lon="-1.8338942549390105"><ele>74.0</ele><time>2026-03-22T09:53:40.969Z</time></trkpt><trkpt lat="47.369337509552004" lon="-1.8338792869803107"><ele>73.5</ele><time>2026-03-22T09:53:41.969Z</time></trkpt><trkpt lat="47.3694221048376" lon="-1.833868667065272"><ele>73.0</ele><time>2026-03-22T09:53:42.969Z</time></trkpt><trkpt lat="47.36950896933817" lon="-1.8338538297939406"><ele>73.0</ele><time>2026-03-22T09:53:43.969Z</time></trkpt><trkpt lat="47.36959424198867" lon="-1.8338409856242444"><ele>73.0</ele><time>2026-03-22T09:53:44.969Z</time></trkpt><trkpt lat="47.36967997593459" lon="-1.8338253689429707"><ele>73.0</ele><time>2026-03-22T09:53:45.969Z</time></trkpt><trkpt lat="47.369764635537614" lon="-1.8338075332532517"><ele>73.0</ele><time>2026-03-22T09:53:46.969Z</time></trkpt><trkpt lat="47.369848086988725" lon="-1.8337835092658905"><ele>73.0</ele><time>2026-03-22T09:53:47.969Z</time></trkpt><trkpt lat="47.36993015972722" lon="-1.8337525173247633"><ele>73.0</ele><time>2026-03-22T09:53:48.969Z</time></trkpt><trkpt lat="47.37000754748237" lon="-1.8337161853476394"><ele>73.0</ele><time>2026-03-22T09:53:49.969Z</time></trkpt><trkpt lat="47.37007946552642" lon="-1.833673791700954"><ele>73.0</ele><time>2026-03-22T09:53:50.969Z</time></trkpt><trkpt lat="47.37015523300889" lon="-1.8336231615845864"><ele>73.0</ele><time>2026-03-22T09:53:51.969Z</time></trkpt><trkpt lat="47.37022558908237" lon="-1.8335621665256037"><ele>73.0</ele><time>2026-03-22T09:53:52.969Z</time></trkpt><trkpt lat="47.370293249412455" lon="-1.8335096846885066"><ele>73.0</ele><time>2026-03-22T09:53:53.969Z</time></trkpt><trkpt lat="47.370352062524276" lon="-1.8334456684932015"><ele>73.0</ele><time>2026-03-22T09:53:54.969Z</time></trkpt><trkpt lat="47.37041906108432" lon="-1.833389072462453"><ele>73.14285714285714</ele><time>2026-03-22T09:53:55.969Z</time></trkpt><trkpt lat="47.370481838527716" lon="-1.8333421617084453"><ele>73.28571428571429</ele><time>2026-03-22T09:53:56.969Z</time></trkpt><trkpt lat="47.370544105579505" lon="-1.833292072634505"><ele>73.42857142857143</ele><time>2026-03-22T09:53:57.969Z</time></trkpt><trkpt lat="47.37061444021338" lon="-1.8332413968656116"><ele>73.57142857142857</ele><time>2026-03-22T09:53:58.969Z</time></trkpt><trkpt lat="47.370670004948266" lon="-1.8331909550868788"><ele>73.71428571428571</ele><time>2026-03-22T09:53:59.969Z</time></trkpt><trkpt lat="47.370730315835445" lon="-1.8331586119465344"><ele>73.85714285714286</ele><time>2026-03-22T09:54:00.969Z</time></trkpt><trkpt lat="47.37079290321895" lon="-1.8331186340672203"><ele>74.0</ele><time>2026-03-22T09:54:01.969Z</time></trkpt><trkpt lat="47.370860701744" lon="-1.8330617435394434"><ele>74.14285714285714</ele><time>2026-03-22T09:54:02.968Z</time></trkpt><trkpt lat="47.37092276161145" lon="-1.833000462574787"><ele>74.28571428571428</ele><time>2026-03-22T09:54:03.968Z</time></trkpt><trkpt lat="47.37098529637632" lon="-1.8329658542766656"><ele>74.42857142857142</ele><time>2026-03-22T09:54:04.968Z</time></trkpt><trkpt lat="47.37104547931404" lon="-1.8329225781698208"><ele>74.57142857142857</ele><time>2026-03-22T09:54:05.968Z</time></trkpt><trkpt lat="47.37110724257614" lon="-1.8328786554275547"><ele>74.71428571428571</ele><time>2026-03-22T09:54:06.968Z</time></trkpt><trkpt lat="47.371174752784896" lon="-1.832839182215685"><ele>74.85714285714285</ele><time>2026-03-22T09:54:07.968Z</time></trkpt><trkpt lat="47.37124270514607" lon="-1.8328044317955348"><ele>75.0</ele><time>2026-03-22T09:54:08.968Z</time></trkpt><trkpt lat="47.37130619919247" lon="-1.8327525968348302"><ele>75.0</ele><time>2026-03-22T09:54:09.968Z</time></trkpt><trkpt lat="47.37137083928468" lon="-1.8327075870597962"><ele>75.0</ele><time>2026-03-22T09:54:10.968Z</time></trkpt><trkpt lat="47.37143054060751" lon="-1.8326571547138153"><ele>75.0</ele><time>2026-03-22T09:54:11.968Z</time></trkpt><trkpt lat="47.37149247703771" lon="-1.8326115937608998"><ele>75.0</ele><time>2026-03-22T09:54:12.968Z</time></trkpt><trkpt lat="47.37155214603172" lon="-1.8325670266583953"><ele>75.0</ele><time>2026-03-22T09:54:13.968Z</time></trkpt><trkpt lat="47.37166610596852" lon="-1.832473806931097"><ele>75.0</ele><time>2026-03-22T09:54:15.968Z</time></trkpt><trkpt lat="47.371732955235785" lon="-1.832428075895306"><ele>75.33333333333333</ele><time>2026-03-22T09:54:16.968Z</time></trkpt><trkpt lat="47.37178764318688" lon="-1.8323679665344492"><ele>75.66666666666667</ele><time>2026-03-22T09:54:17.968Z</time></trkpt><trkpt lat="47.37184809594598" lon="-1.8322936225201474"><ele>76.0</ele><time>2026-03-22T09:54:18.968Z</time></trkpt><trkpt lat="47.37191165927029" lon="-1.832233612742653"><ele>76.33333333333334</ele><time>2026-03-22T09:54:19.968Z</time></trkpt><trkpt lat="47.371983023718215" lon="-1.8321579311470824"><ele>76.66666666666667</ele><time>2026-03-22T09:54:20.968Z</time></trkpt><trkpt lat="47.37204199460014" lon="-1.8320886611634748"><ele>77.0</ele><time>2026-03-22T09:54:21.968Z</time></trkpt><trkpt lat="47.37210431110893" lon="-1.8320276810556988"><ele>77.0</ele><time>2026-03-22T09:54:22.968Z</time></trkpt><trkpt lat="47.37217259900263" lon="-1.8319717105423963"><ele>77.0</ele><time>2026-03-22T09:54:23.968Z</time></trkpt><trkpt lat="47.37224208888318" lon="-1.8319200431364482"><ele>77.0</ele><time>2026-03-22T09:54:24.968Z</time></trkpt><trkpt lat="47.37231720549011" lon="-1.8318684472236713"><ele>77.0</ele><time>2026-03-22T09:54:25.968Z</time></trkpt><trkpt lat="47.37239954617614" lon="-1.8318333524189385"><ele>77.0</ele><time>2026-03-22T09:54:26.968Z</time></trkpt><trkpt lat="47.372489242441425" lon="-1.8317990110476148"><ele>77.0</ele><time>2026-03-22T09:54:27.968Z</time></trkpt><trkpt lat="47.37257622527415" lon="-1.8317738391587914"><ele>75.8</ele><time>2026-03-22T09:54:28.97Z</time></trkpt><trkpt lat="47.372672376619995" lon="-1.8317579477575405"><ele>74.6</ele><time>2026-03-22T09:54:29.969Z</time></trkpt><trkpt lat="47.37275948217773" lon="-1.8317589587787946"><ele>73.39999999999999</ele><time>2026-03-22T09:54:30.969Z</time></trkpt><trkpt lat="47.37285399568838" lon="-1.8317594011079765"><ele>72.2</ele><time>2026-03-22T09:54:31.969Z</time></trkpt><trkpt lat="47.372952017496935" lon="-1.8317512459365957"><ele>71.0</ele><time>2026-03-22T09:54:32.969Z</time></trkpt><trkpt lat="47.373043291047786" lon="-1.8317428857674218"><ele>70.5</ele><time>2026-03-22T09:54:33.969Z</time></trkpt><trkpt lat="47.3731369673013" lon="-1.8317347304379907"><ele>70.0</ele><time>2026-03-22T09:54:34.969Z</time></trkpt><trkpt lat="47.37322110553424" lon="-1.8317371185902334"><ele>69.5</ele><time>2026-03-22T09:54:35.97Z</time></trkpt><trkpt lat="47.373306535786234" lon="-1.8317412487964968"><ele>69.0</ele><time>2026-03-22T09:54:36.97Z</time></trkpt><trkpt lat="47.373392747123944" lon="-1.8317412904504053"><ele>68.5</ele><time>2026-03-22T09:54:37.969Z</time></trkpt><trkpt lat="47.37348392141392" lon="-1.831733339501282"><ele>68.0</ele><time>2026-03-22T09:54:38.969Z</time></trkpt><trkpt lat="47.37357379013003" lon="-1.8317277531980234"><ele>68.0</ele><time>2026-03-22T09:54:39.969Z</time></trkpt><trkpt lat="47.37366119865448" lon="-1.8317237365128762"><ele>68.0</ele><time>2026-03-22T09:54:40.969Z</time></trkpt><trkpt lat="47.373746578297286" lon="-1.8317149799506662"><ele>68.0</ele><time>2026-03-22T09:54:41.97Z</time></trkpt><trkpt lat="47.373838915217675" lon="-1.8317000245558275"><ele>68.0</ele><time>2026-03-22T09:54:42.97Z</time></trkpt><trkpt lat="47.37392844430429" lon="-1.8316949855235933"><ele>68.0</ele><time>2026-03-22T09:54:43.97Z</time></trkpt><trkpt lat="47.37401627000037" lon="-1.8316859296023782"><ele>68.0</ele><time>2026-03-22T09:54:44.97Z</time></trkpt><trkpt lat="47.374107699208345" lon="-1.831674194052732"><ele>67.2</ele><time>2026-03-22T09:54:45.97Z</time></trkpt><trkpt lat="47.374193518175595" lon="-1.831682549042693"><ele>66.4</ele><time>2026-03-22T09:54:46.97Z</time></trkpt><trkpt lat="47.37428892393245" lon="-1.8316664231694348"><ele>65.60000000000001</ele><time>2026-03-22T09:54:47.97Z</time></trkpt><trkpt lat="47.37438298032688" lon="-1.8316507423488"><ele>64.8</ele><time>2026-03-22T09:54:48.97Z</time></trkpt><trkpt lat="47.37447319554802" lon="-1.831647861247137"><ele>64.0</ele><time>2026-03-22T09:54:49.97Z</time></trkpt><trkpt lat="47.37456449644733" lon="-1.831639801680019"><ele>64.0</ele><time>2026-03-22T09:54:50.97Z</time></trkpt><trkpt lat="47.37465764166605" lon="-1.8316256253369567"><ele>64.0</ele><time>2026-03-22T09:54:51.97Z</time></trkpt><trkpt lat="47.37475025202798" lon="-1.831613828448287"><ele>64.0</ele><time>2026-03-22T09:54:52.97Z</time></trkpt><trkpt lat="47.37484195784112" lon="-1.831605204348383"><ele>64.0</ele><time>2026-03-22T09:54:53.97Z</time></trkpt><trkpt lat="47.374932406363634" lon="-1.8315949043244806"><ele>64.0</ele><time>2026-03-22T09:54:54.97Z</time></trkpt><trkpt lat="47.375024766068" lon="-1.8315870692196707"><ele>63.83333333333333</ele><time>2026-03-22T09:54:55.97Z</time></trkpt><trkpt lat="47.375114263628646" lon="-1.831581367315985"><ele>63.666666666666664</ele><time>2026-03-22T09:54:56.97Z</time></trkpt><trkpt lat="47.37520419002872" lon="-1.8315758512365041"><ele>63.5</ele><time>2026-03-22T09:54:57.97Z</time></trkpt><trkpt lat="47.3752934986338" lon="-1.8315638584814427"><ele>63.33333333333333</ele><time>2026-03-22T09:54:58.97Z</time></trkpt><trkpt lat="47.375377305778265" lon="-1.831557706940467"><ele>63.166666666666664</ele><time>2026-03-22T09:54:59.97Z</time></trkpt><trkpt lat="47.37546611573282" lon="-1.8315472799889145"><ele>63.0</ele><time>2026-03-22T09:55:00.97Z</time></trkpt><trkpt lat="47.37555377539394" lon="-1.831540885872974"><ele>62.666666666666664</ele><time>2026-03-22T09:55:01.97Z</time></trkpt><trkpt lat="47.37564093213115" lon="-1.8315355629510601"><ele>62.33333333333333</ele><time>2026-03-22T09:55:02.969Z</time></trkpt><trkpt lat="47.375728651459305" lon="-1.8315272424109905"><ele>62.0</ele><time>2026-03-22T09:55:03.969Z</time></trkpt><trkpt lat="47.37581672425135" lon="-1.8315186672512147"><ele>61.666666666666664</ele><time>2026-03-22T09:55:04.969Z</time></trkpt><trkpt lat="47.37590479986962" lon="-1.8315114398380188"><ele>61.33333333333333</ele><time>2026-03-22T09:55:05.969Z</time></trkpt><trkpt lat="47.37599344292584" lon="-1.8315044438121395"><ele>61.0</ele><time>2026-03-22T09:55:06.969Z</time></trkpt><trkpt lat="47.376080000043544" lon="-1.831497805449338"><ele>60.99999999999999</ele><time>2026-03-22T09:55:07.969Z</time></trkpt><trkpt lat="47.37616772380313" lon="-1.8314896824734046"><ele>61.0</ele><time>2026-03-22T09:55:08.969Z</time></trkpt><trkpt lat="47.37625435887818" lon="-1.8314837404412223"><ele>61.0</ele><time>2026-03-22T09:55:09.969Z</time></trkpt><trkpt lat="47.37633881938081" lon="-1.8314770802574178"><ele>61.0</ele><time>2026-03-22T09:55:10.969Z</time></trkpt><trkpt lat="47.37642026035507" lon="-1.831472008054699"><ele>60.99999999999999</ele><time>2026-03-22T09:55:11.969Z</time></trkpt><trkpt lat="47.37650249011357" lon="-1.8314592156291678"><ele>61.0</ele><time>2026-03-22T09:55:12.969Z</time></trkpt><trkpt lat="47.37658039087025" lon="-1.8314550490967947"><ele>60.666666666666664</ele><time>2026-03-22T09:55:13.969Z</time></trkpt><trkpt lat="47.37665993231551" lon="-1.8314443881375788"><ele>60.33333333333333</ele><time>2026-03-22T09:55:14.969Z</time></trkpt><trkpt lat="47.37674013468036" lon="-1.8314268967288978"><ele>60.0</ele><time>2026-03-22T09:55:15.969Z</time></trkpt><trkpt lat="47.37682010124946" lon="-1.8314057805437924"><ele>59.66666666666667</ele><time>2026-03-22T09:55:16.969Z</time></trkpt><trkpt lat="47.37689580817794" lon="-1.8313818064381249"><ele>59.333333333333336</ele><time>2026-03-22T09:55:17.969Z</time></trkpt><trkpt lat="47.37697638257283" lon="-1.831327849420613"><ele>59.0</ele><time>2026-03-22T09:55:18.969Z</time></trkpt><trkpt lat="47.3770465394574" lon="-1.831291728006739"><ele>59.00000000000001</ele><time>2026-03-22T09:55:19.969Z</time></trkpt><trkpt lat="47.37711518767986" lon="-1.8312379255575582"><ele>59.0</ele><time>2026-03-22T09:55:20.969Z</time></trkpt><trkpt lat="47.37718341995904" lon="-1.8311628359264647"><ele>59.0</ele><time>2026-03-22T09:55:21.969Z</time></trkpt><trkpt lat="47.37724556847655" lon="-1.8310943991326485"><ele>59.0</ele><time>2026-03-22T09:55:22.969Z</time></trkpt><trkpt lat="47.37730461609039" lon="-1.8310221915125309"><ele>59.00000000000001</ele><time>2026-03-22T09:55:23.969Z</time></trkpt><trkpt lat="47.37735557821408" lon="-1.8309500736035682"><ele>59.0</ele><time>2026-03-22T09:55:24.969Z</time></trkpt><trkpt lat="47.37741316549425" lon="-1.8308734911435174"><ele>58.833333333333336</ele><time>2026-03-22T09:55:25.969Z</time></trkpt><trkpt lat="47.37746578244736" lon="-1.8307851304111178"><ele>58.66666666666667</ele><time>2026-03-22T09:55:26.969Z</time></trkpt><trkpt lat="47.37752165148746" lon="-1.8306992775762245"><ele>58.5</ele><time>2026-03-22T09:55:27.969Z</time></trkpt><trkpt lat="47.37757660998941" lon="-1.8306179282540593"><ele>58.33333333333333</ele><time>2026-03-22T09:55:28.969Z</time></trkpt><trkpt lat="47.37763103692088" lon="-1.8305350441965833"><ele>58.166666666666664</ele><time>2026-03-22T09:55:29.969Z</time></trkpt><trkpt lat="47.37767713567103" lon="-1.8304479363304573"><ele>58.0</ele><time>2026-03-22T09:55:30.969Z</time></trkpt><trkpt lat="47.377725452559304" lon="-1.830353222831746"><ele>57.99999999999999</ele><time>2026-03-22T09:55:31.969Z</time></trkpt><trkpt lat="47.37777511515202" lon="-1.8302613526619769"><ele>58.0</ele><time>2026-03-22T09:55:32.969Z</time></trkpt><trkpt lat="47.377818998766564" lon="-1.8301697575376792"><ele>58.0</ele><time>2026-03-22T09:55:33.969Z</time></trkpt><trkpt lat="47.37785780845692" lon="-1.8300759408676026"><ele>58.0</ele><time>2026-03-22T09:55:34.969Z</time></trkpt><trkpt lat="47.37789211640036" lon="-1.8299753436341966"><ele>57.99999999999999</ele><time>2026-03-22T09:55:35.969Z</time></trkpt><trkpt lat="47.37792324998814" lon="-1.8298708150523004"><ele>58.0</ele><time>2026-03-22T09:55:36.969Z</time></trkpt><trkpt lat="47.3779465466567" lon="-1.8297638109104493"><ele>57.666666666666664</ele><time>2026-03-22T09:55:37.969Z</time></trkpt><trkpt lat="47.3779745123405" lon="-1.8296616640326793"><ele>57.33333333333333</ele><time>2026-03-22T09:55:38.969Z</time></trkpt><trkpt lat="47.37800555287049" lon="-1.829559429361068"><ele>57.0</ele><time>2026-03-22T09:55:39.969Z</time></trkpt><trkpt lat="47.37803180466708" lon="-1.8294496818025807"><ele>56.66666666666667</ele><time>2026-03-22T09:55:40.969Z</time></trkpt><trkpt lat="47.37805943890816" lon="-1.8293419090380387"><ele>56.333333333333336</ele><time>2026-03-22T09:55:41.969Z</time></trkpt><trkpt lat="47.37808483222914" lon="-1.8292374726634022"><ele>56.0</ele><time>2026-03-22T09:55:42.969Z</time></trkpt><trkpt lat="47.378108016617816" lon="-1.8291320884195421"><ele>56.66666666666667</ele><time>2026-03-22T09:55:43.969Z</time></trkpt><trkpt lat="47.378134321346074" lon="-1.8290282131824565"><ele>57.333333333333336</ele><time>2026-03-22T09:55:44.969Z</time></trkpt><trkpt lat="47.378158283269364" lon="-1.828924952606864"><ele>58.0</ele><time>2026-03-22T09:55:45.969Z</time></trkpt><trkpt lat="47.37819253057005" lon="-1.8288255724331146"><ele>58.66666666666667</ele><time>2026-03-22T09:55:46.969Z</time></trkpt><trkpt lat="47.37822418893331" lon="-1.8287277588182551"><ele>59.333333333333336</ele><time>2026-03-22T09:55:47.969Z</time></trkpt><trkpt lat="47.37826372149086" lon="-1.828619453784035"><ele>60.0</ele><time>2026-03-22T09:55:48.969Z</time></trkpt><trkpt lat="47.37830529315509" lon="-1.828528741080261"><ele>59.833333333333336</ele><time>2026-03-22T09:55:49.969Z</time></trkpt><trkpt lat="47.378343542625466" lon="-1.8284331599906105"><ele>59.66666666666667</ele><time>2026-03-22T09:55:50.969Z</time></trkpt><trkpt lat="47.378381801547626" lon="-1.8283382152480063"><ele>59.5</ele><time>2026-03-22T09:55:51.969Z</time></trkpt><trkpt lat="47.378420947419876" lon="-1.8282436371376076"><ele>59.333333333333336</ele><time>2026-03-22T09:55:52.969Z</time></trkpt><trkpt lat="47.37845768886189" lon="-1.8281483627973585"><ele>59.16666666666667</ele><time>2026-03-22T09:55:53.969Z</time></trkpt><trkpt lat="47.37849811871152" lon="-1.8280524251192771"><ele>59.0</ele><time>2026-03-22T09:55:54.969Z</time></trkpt><trkpt lat="47.378543672934825" lon="-1.8279478003005336"><ele>59.00000000000001</ele><time>2026-03-22T09:55:55.969Z</time></trkpt><trkpt lat="47.3785896654168" lon="-1.8278496456072457"><ele>59.0</ele><time>2026-03-22T09:55:56.969Z</time></trkpt><trkpt lat="47.37863213816783" lon="-1.8277408264166963"><ele>59.0</ele><time>2026-03-22T09:55:57.969Z</time></trkpt><trkpt lat="47.37867560911833" lon="-1.8276373581908354"><ele>59.0</ele><time>2026-03-22T09:55:58.969Z</time></trkpt><trkpt lat="47.378724751900194" lon="-1.8275224012398297"><ele>59.00000000000001</ele><time>2026-03-22T09:55:59.969Z</time></trkpt><trkpt lat="47.37877633151765" lon="-1.8274152513408835"><ele>59.0</ele><time>2026-03-22T09:56:00.969Z</time></trkpt><trkpt lat="47.37883153211852" lon="-1.8272963492554315"><ele>58.400000000000006</ele><time>2026-03-22T09:56:01.969Z</time></trkpt><trkpt lat="47.3788796787366" lon="-1.8271726550183491"><ele>57.800000000000004</ele><time>2026-03-22T09:56:02.969Z</time></trkpt><trkpt lat="47.37893601188888" lon="-1.8270388101407034"><ele>57.199999999999996</ele><time>2026-03-22T09:56:03.969Z</time></trkpt><trkpt lat="47.378990449399566" lon="-1.8269134258809627"><ele>56.599999999999994</ele><time>2026-03-22T09:56:04.969Z</time></trkpt><trkpt lat="47.379033948347775" lon="-1.8267901442638448"><ele>56.0</ele><time>2026-03-22T09:56:05.969Z</time></trkpt><trkpt lat="47.37909357432263" lon="-1.826682050576794"><ele>56.00000000000001</ele><time>2026-03-22T09:56:06.969Z</time></trkpt><trkpt lat="47.37912583884223" lon="-1.826577023218427"><ele>56.0</ele><time>2026-03-22T09:56:07.969Z</time></trkpt><trkpt lat="47.379165282079654" lon="-1.8264936962638776"><ele>56.0</ele><time>2026-03-22T09:56:08.969Z</time></trkpt><trkpt lat="47.37920314904411" lon="-1.82639872351843"><ele>56.0</ele><time>2026-03-22T09:56:09.969Z</time></trkpt><trkpt lat="47.37923906075748" lon="-1.8263094756349005"><ele>56.00000000000001</ele><time>2026-03-22T09:56:10.969Z</time></trkpt><trkpt lat="47.37928847265946" lon="-1.8261784728732042"><ele>56.0</ele><time>2026-03-22T09:56:12.969Z</time></trkpt><trkpt lat="47.379345067356816" lon="-1.8260655150709038"><ele>56.599999999999994</ele><time>2026-03-22T09:56:14.969Z</time></trkpt><trkpt lat="47.37940947918422" lon="-1.8259462676883056"><ele>57.199999999999996</ele><time>2026-03-22T09:56:16.969Z</time></trkpt><trkpt lat="47.37947313305932" lon="-1.8258162079937459"><ele>57.800000000000004</ele><time>2026-03-22T09:56:18.969Z</time></trkpt><trkpt lat="47.37952091460285" lon="-1.8257158178125057"><ele>58.400000000000006</ele><time>2026-03-22T09:56:20.969Z</time></trkpt><trkpt lat="47.379567765256226" lon="-1.8256011767577225"><ele>59.0</ele><time>2026-03-22T09:56:22.969Z</time></trkpt><trkpt lat="47.379611972548346" lon="-1.8255107022980166"><ele>59.00000000000001</ele><time>2026-03-22T09:56:24.969Z</time></trkpt><trkpt lat="47.37965906434864" lon="-1.8253998324191099"><ele>59.0</ele><time>2026-03-22T09:56:26.969Z</time></trkpt><trkpt lat="47.37971019936434" lon="-1.8252873695589829"><ele>59.0</ele><time>2026-03-22T09:56:28.969Z</time></trkpt><trkpt lat="47.37974884875728" lon="-1.8251818391331287"><ele>59.0</ele><time>2026-03-22T09:56:30.969Z</time></trkpt><trkpt lat="47.37979323733183" lon="-1.8250962174624261"><ele>59.00000000000001</ele><time>2026-03-22T09:56:32.969Z</time></trkpt><trkpt lat="47.379835497335236" lon="-1.8250012112935596"><ele>59.0</ele><time>2026-03-22T09:56:34.969Z</time></trkpt><trkpt lat="47.379885636561" lon="-1.8248872431849337"><ele>59.400000000000006</ele><time>2026-03-22T09:56:36.969Z</time></trkpt><trkpt lat="47.37992737174985" lon="-1.8247887431412755"><ele>59.800000000000004</ele><time>2026-03-22T09:56:38.969Z</time></trkpt><trkpt lat="47.37996803614587" lon="-1.8246802485845417"><ele>60.199999999999996</ele><time>2026-03-22T09:56:40.969Z</time></trkpt><trkpt lat="47.38002292599205" lon="-1.824563272730338"><ele>60.599999999999994</ele><time>2026-03-22T09:56:42.969Z</time></trkpt><trkpt lat="47.380082850489586" lon="-1.8244411534064147"><ele>61.0</ele><time>2026-03-22T09:56:44.969Z</time></trkpt><trkpt lat="47.38013282421051" lon="-1.8243178951220875"><ele>61.199999999999996</ele><time>2026-03-22T09:56:46.969Z</time></trkpt><trkpt lat="47.380188495239494" lon="-1.8241894938384555"><ele>61.39999999999999</ele><time>2026-03-22T09:56:48.969Z</time></trkpt><trkpt lat="47.38024366529955" lon="-1.8240603513603002"><ele>61.6</ele><time>2026-03-22T09:56:50.969Z</time></trkpt><trkpt lat="47.38030356640226" lon="-1.8239392192044896"><ele>61.8</ele><time>2026-03-22T09:56:52.969Z</time></trkpt><trkpt lat="47.38034840357126" lon="-1.8238319586800522"><ele>62.0</ele><time>2026-03-22T09:56:54.969Z</time></trkpt><trkpt lat="47.38039438365881" lon="-1.8237120195066288"><ele>62.00000000000001</ele><time>2026-03-22T09:56:56.969Z</time></trkpt><trkpt lat="47.380466066982216" lon="-1.8235640760797756"><ele>62.0</ele><time>2026-03-22T09:56:58.969Z</time></trkpt><trkpt lat="47.380499193678986" lon="-1.823483411131164"><ele>62.0</ele><time>2026-03-22T09:56:59.969Z</time></trkpt><trkpt lat="47.38056501583198" lon="-1.8233268679894625"><ele>62.0</ele><time>2026-03-22T09:57:01.969Z</time></trkpt><trkpt lat="47.380598938720354" lon="-1.8232467349908033"><ele>62.00000000000001</ele><time>2026-03-22T09:57:02.969Z</time></trkpt><trkpt lat="47.38063542366774" lon="-1.823166144097776"><ele>62.0</ele><time>2026-03-22T09:57:03.969Z</time></trkpt><trkpt lat="47.380704199014986" lon="-1.8230198325943536"><ele>61.833333333333336</ele><time>2026-03-22T09:57:05.969Z</time></trkpt><trkpt lat="47.380756799100276" lon="-1.8228784725088598"><ele>61.66666666666667</ele><time>2026-03-22T09:57:07.969Z</time></trkpt><trkpt lat="47.38080328756068" lon="-1.8227662401222329"><ele>61.5</ele><time>2026-03-22T09:57:09.969Z</time></trkpt><trkpt lat="47.38085115472116" lon="-1.822668479476373"><ele>61.33333333333333</ele><time>2026-03-22T09:57:11.969Z</time></trkpt><trkpt lat="47.38089354999662" lon="-1.8225749703458196"><ele>61.166666666666664</ele><time>2026-03-22T09:57:13.969Z</time></trkpt><trkpt lat="47.38093425288694" lon="-1.8224641327578412"><ele>61.0</ele><time>2026-03-22T09:57:15.969Z</time></trkpt><trkpt lat="47.38096727967597" lon="-1.8223758626393851"><ele>61.33333333333333</ele><time>2026-03-22T09:57:17.969Z</time></trkpt><trkpt lat="47.38101699819387" lon="-1.8222594104690675"><ele>61.666666666666664</ele><time>2026-03-22T09:57:20.969Z</time></trkpt><trkpt lat="47.38105388719986" lon="-1.8221800009997837"><ele>62.0</ele><time>2026-03-22T09:57:22.969Z</time></trkpt><trkpt lat="47.381091348086244" lon="-1.8220683469080379"><ele>62.33333333333333</ele><time>2026-03-22T09:57:25.969Z</time></trkpt><trkpt lat="47.381127392626475" lon="-1.8219744796751152"><ele>62.666666666666664</ele><time>2026-03-22T09:57:28.969Z</time></trkpt><trkpt lat="47.38117641948025" lon="-1.821877765559646"><ele>63.0</ele><time>2026-03-22T09:57:31.969Z</time></trkpt><trkpt lat="47.38120867692028" lon="-1.821783947238577"><ele>63.666666666666664</ele><time>2026-03-22T09:57:34.969Z</time></trkpt><trkpt lat="47.38126120979983" lon="-1.8217001379810849"><ele>64.33333333333333</ele><time>2026-03-22T09:57:37.969Z</time></trkpt><trkpt lat="47.381300827564836" lon="-1.821608439096642"><ele>65.0</ele><time>2026-03-22T09:57:40.969Z</time></trkpt><trkpt lat="47.38135243268468" lon="-1.8214920953426341"><ele>65.66666666666666</ele><time>2026-03-22T09:57:43.969Z</time></trkpt><trkpt lat="47.38140243952095" lon="-1.8213781179720048"><ele>66.33333333333333</ele><time>2026-03-22T09:57:46.969Z</time></trkpt><trkpt lat="47.38143821203763" lon="-1.8212992018504357"><ele>67.0</ele><time>2026-03-22T09:57:48.969Z</time></trkpt><trkpt lat="47.38147717268807" lon="-1.8212125535305574"><ele>67.0</ele><time>2026-03-22T09:57:50.969Z</time></trkpt><trkpt lat="47.38150882637896" lon="-1.8211207491184516"><ele>67.0</ele><time>2026-03-22T09:57:52.969Z</time></trkpt><trkpt lat="47.381543078998256" lon="-1.8210261735987057"><ele>67.0</ele><time>2026-03-22T09:57:54.969Z</time></trkpt><trkpt lat="47.38157829490575" lon="-1.82094055100491"><ele>67.0</ele><time>2026-03-22T09:57:56.969Z</time></trkpt><trkpt lat="47.38161734724218" lon="-1.8208532650731795"><ele>67.0</ele><time>2026-03-22T09:57:58.969Z</time></trkpt><trkpt lat="47.38166436142857" lon="-1.8207658535477385"><ele>67.0</ele><time>2026-03-22T09:58:00.969Z</time></trkpt><trkpt lat="47.38170361389558" lon="-1.8206651351037881"><ele>67.0</ele><time>2026-03-22T09:58:02.969Z</time></trkpt><trkpt lat="47.38174602634083" lon="-1.820561163293819"><ele>67.5</ele><time>2026-03-22T09:58:04.969Z</time></trkpt><trkpt lat="47.381785368133826" lon="-1.820457719408331"><ele>68.0</ele><time>2026-03-22T09:58:06.969Z</time></trkpt><trkpt lat="47.38183371734573" lon="-1.820343500436139"><ele>68.5</ele><time>2026-03-22T09:58:08.969Z</time></trkpt><trkpt lat="47.38188108530448" lon="-1.820244073003598"><ele>69.0</ele><time>2026-03-22T09:58:10.969Z</time></trkpt><trkpt lat="47.381922241010514" lon="-1.820137657462019"><ele>69.5</ele><time>2026-03-22T09:58:12.969Z</time></trkpt><trkpt lat="47.381966058965496" lon="-1.8200294600728204"><ele>70.0</ele><time>2026-03-22T09:58:14.969Z</time></trkpt><trkpt lat="47.38201560478973" lon="-1.8199168192101554"><ele>70.0</ele><time>2026-03-22T09:58:16.969Z</time></trkpt><trkpt lat="47.38206141091419" lon="-1.8198068856259475"><ele>70.0</ele><time>2026-03-22T09:58:18.969Z</time></trkpt><trkpt lat="47.38210955751703" lon="-1.8196934323513818"><ele>70.0</ele><time>2026-03-22T09:58:20.969Z</time></trkpt><trkpt lat="47.382160737806956" lon="-1.819581338418256"><ele>70.0</ele><time>2026-03-22T09:58:22.969Z</time></trkpt><trkpt lat="47.38220000431226" lon="-1.8194744692847524"><ele>70.0</ele><time>2026-03-22T09:58:24.969Z</time></trkpt><trkpt lat="47.38223990472633" lon="-1.8193702510607592"><ele>70.0</ele><time>2026-03-22T09:58:26.969Z</time></trkpt><trkpt lat="47.382283121944226" lon="-1.8192660710044486"><ele>70.2</ele><time>2026-03-22T09:58:28.969Z</time></trkpt><trkpt lat="47.38233479335163" lon="-1.8191469960070668"><ele>70.4</ele><time>2026-03-22T09:58:30.969Z</time></trkpt><trkpt lat="47.38238666893398" lon="-1.8190358570289538"><ele>70.6</ele><time>2026-03-22T09:58:32.969Z</time></trkpt><trkpt lat="47.382432153636756" lon="-1.8189167276356693"><ele>70.8</ele><time>2026-03-22T09:58:34.969Z</time></trkpt><trkpt lat="47.38249673832782" lon="-1.8187920514868825"><ele>71.0</ele><time>2026-03-22T09:58:36.969Z</time></trkpt><trkpt lat="47.382551750919106" lon="-1.8186534442647937"><ele>71.0</ele><time>2026-03-22T09:58:38.969Z</time></trkpt><trkpt lat="47.382614367453414" lon="-1.8185138663243692"><ele>71.0</ele><time>2026-03-22T09:58:40.969Z</time></trkpt><trkpt lat="47.38267638113699" lon="-1.8183803301996222"><ele>71.0</ele><time>2026-03-22T09:58:42.969Z</time></trkpt><trkpt lat="47.38273238636471" lon="-1.8182509415049295"><ele>71.0</ele><time>2026-03-22T09:58:44.969Z</time></trkpt><trkpt lat="47.38279591285742" lon="-1.8181149077907686"><ele>71.0</ele><time>2026-03-22T09:58:46.97Z</time></trkpt><trkpt lat="47.382849597268915" lon="-1.8179687899407868"><ele>71.0</ele><time>2026-03-22T09:58:48.969Z</time></trkpt><trkpt lat="47.38290415873636" lon="-1.817830578266443"><ele>71.0</ele><time>2026-03-22T09:58:50.969Z</time></trkpt><trkpt lat="47.38295762042383" lon="-1.817688985300487"><ele>71.0</ele><time>2026-03-22T09:58:52.968Z</time></trkpt><trkpt lat="47.383025239147976" lon="-1.817540177711739"><ele>71.0</ele><time>2026-03-22T09:58:54.969Z</time></trkpt><trkpt lat="47.383062085339205" lon="-1.8174646009964528"><ele>71.0</ele><time>2026-03-22T09:58:55.969Z</time></trkpt><trkpt lat="47.38312857715962" lon="-1.8173081782942462"><ele>71.0</ele><time>2026-03-22T09:58:57.969Z</time></trkpt><trkpt lat="47.383163263731696" lon="-1.8172292091946824"><ele>71.0</ele><time>2026-03-22T09:58:58.969Z</time></trkpt><trkpt lat="47.38319791257361" lon="-1.8171491037802427"><ele>71.0</ele><time>2026-03-22T09:58:59.969Z</time></trkpt><trkpt lat="47.383268231403974" lon="-1.8169961247321418"><ele>71.0</ele><time>2026-03-22T09:59:01.969Z</time></trkpt><trkpt lat="47.383333323651435" lon="-1.816851942610748"><ele>71.0</ele><time>2026-03-22T09:59:03.969Z</time></trkpt><trkpt lat="47.38340740420423" lon="-1.8167120233136806"><ele>71.0</ele><time>2026-03-22T09:59:05.969Z</time></trkpt><trkpt lat="47.38349197279422" lon="-1.816578082431084"><ele>71.0</ele><time>2026-03-22T09:59:07.969Z</time></trkpt><trkpt lat="47.383543035766294" lon="-1.8165201575514407"><ele>71.0</ele><time>2026-03-22T09:59:08.969Z</time></trkpt><trkpt lat="47.38359890344024" lon="-1.8164739893863695"><ele>71.0</ele><time>2026-03-22T09:59:09.969Z</time></trkpt><trkpt lat="47.38365938722144" lon="-1.8164408713107698"><ele>71.0</ele><time>2026-03-22T09:59:10.969Z</time></trkpt><trkpt lat="47.38372175947939" lon="-1.8164178400346773"><ele>71.0</ele><time>2026-03-22T09:59:11.969Z</time></trkpt><trkpt lat="47.38384312687677" lon="-1.8163836155381945"><ele>70.83333333333334</ele><time>2026-03-22T09:59:13.969Z</time></trkpt><trkpt lat="47.38396902943967" lon="-1.816365949717492"><ele>70.66666666666667</ele><time>2026-03-22T09:59:15.969Z</time></trkpt><trkpt lat="47.384034555523144" lon="-1.8163471664724113"><ele>70.5</ele><time>2026-03-22T09:59:16.969Z</time></trkpt><trkpt lat="47.38409962074945" lon="-1.816337492791771"><ele>70.33333333333333</ele><time>2026-03-22T09:59:17.969Z</time></trkpt><trkpt lat="47.384166731934926" lon="-1.8163123909269254"><ele>70.16666666666666</ele><time>2026-03-22T09:59:18.969Z</time></trkpt><trkpt lat="47.38423451839006" lon="-1.8163111082646675"><ele>70.0</ele><time>2026-03-22T09:59:19.969Z</time></trkpt><trkpt lat="47.38430239791378" lon="-1.816294036597233"><ele>70.0</ele><time>2026-03-22T09:59:20.969Z</time></trkpt><trkpt lat="47.384370413519264" lon="-1.8162780639832075"><ele>70.0</ele><time>2026-03-22T09:59:21.969Z</time></trkpt><trkpt lat="47.384437738192275" lon="-1.8162610579815412"><ele>70.0</ele><time>2026-03-22T09:59:22.969Z</time></trkpt><trkpt lat="47.38450473704733" lon="-1.8162392953140463"><ele>70.0</ele><time>2026-03-22T09:59:23.969Z</time></trkpt><trkpt lat="47.384571086502746" lon="-1.8162130636621125"><ele>70.0</ele><time>2026-03-22T09:59:24.969Z</time></trkpt><trkpt lat="47.384636858223146" lon="-1.816183429478684"><ele>70.0</ele><time>2026-03-22T09:59:25.969Z</time></trkpt><trkpt lat="47.38470238464878" lon="-1.8161473441561735"><ele>70.0</ele><time>2026-03-22T09:59:26.969Z</time></trkpt><trkpt lat="47.38476736647132" lon="-1.8161097592871775"><ele>70.0</ele><time>2026-03-22T09:59:27.969Z</time></trkpt><trkpt lat="47.38482979279242" lon="-1.8160689005916861"><ele>70.0</ele><time>2026-03-22T09:59:28.969Z</time></trkpt><trkpt lat="47.38489042883791" lon="-1.816018764989646"><ele>70.0</ele><time>2026-03-22T09:59:29.969Z</time></trkpt><trkpt lat="47.38495034264514" lon="-1.8159688437916504"><ele>70.0</ele><time>2026-03-22T09:59:30.969Z</time></trkpt><trkpt lat="47.385009644128054" lon="-1.8159103976219293"><ele>70.0</ele><time>2026-03-22T09:59:31.969Z</time></trkpt><trkpt lat="47.38506617672108" lon="-1.815855653762987"><ele>70.0</ele><time>2026-03-22T09:59:32.969Z</time></trkpt><trkpt lat="47.385121422473965" lon="-1.8157975162240614"><ele>70.0</ele><time>2026-03-22T09:59:33.969Z</time></trkpt><trkpt lat="47.38517784709321" lon="-1.8157403763773736"><ele>70.0</ele><time>2026-03-22T09:59:34.969Z</time></trkpt><trkpt lat="47.38523415270277" lon="-1.8156906978001262"><ele>70.0</ele><time>2026-03-22T09:59:35.969Z</time></trkpt><trkpt lat="47.385288187017736" lon="-1.8156293913582453"><ele>70.0</ele><time>2026-03-22T09:59:36.969Z</time></trkpt><trkpt lat="47.38533953835351" lon="-1.8155603738886197"><ele>70.0</ele><time>2026-03-22T09:59:37.969Z</time></trkpt><trkpt lat="47.38539149857466" lon="-1.8154906502331283"><ele>70.0</ele><time>2026-03-22T09:59:38.969Z</time></trkpt><trkpt lat="47.385442688397646" lon="-1.815417735418735"><ele>70.0</ele><time>2026-03-22T09:59:39.969Z</time></trkpt><trkpt lat="47.38548794230783" lon="-1.8153375574652961"><ele>70.0</ele><time>2026-03-22T09:59:40.969Z</time></trkpt><trkpt lat="47.38553060152019" lon="-1.8152541404546148"><ele>70.14285714285714</ele><time>2026-03-22T09:59:41.969Z</time></trkpt><trkpt lat="47.38557335021053" lon="-1.815171862632508"><ele>70.28571428571428</ele><time>2026-03-22T09:59:42.969Z</time></trkpt><trkpt lat="47.38561793309914" lon="-1.815091387085929"><ele>70.42857142857143</ele><time>2026-03-22T09:59:43.969Z</time></trkpt><trkpt lat="47.38566086709573" lon="-1.815013106772559"><ele>70.57142857142857</ele><time>2026-03-22T09:59:44.969Z</time></trkpt><trkpt lat="47.38570796563602" lon="-1.8149392987243618"><ele>70.71428571428571</ele><time>2026-03-22T09:59:45.969Z</time></trkpt><trkpt lat="47.38575543882604" lon="-1.8148665714195673"><ele>70.85714285714286</ele><time>2026-03-22T09:59:46.969Z</time></trkpt><trkpt lat="47.38579933819391" lon="-1.8147905486598692"><ele>71.0</ele><time>2026-03-22T09:59:47.969Z</time></trkpt><trkpt lat="47.3858557098624" lon="-1.814707601335366"><ele>71.0</ele><time>2026-03-22T09:59:48.969Z</time></trkpt><trkpt lat="47.38590952897367" lon="-1.8146407294490587"><ele>71.0</ele><time>2026-03-22T09:59:49.969Z</time></trkpt><trkpt lat="47.385967474419104" lon="-1.814569793210255"><ele>71.0</ele><time>2026-03-22T09:59:50.969Z</time></trkpt><trkpt lat="47.38603067280045" lon="-1.8145006683900031"><ele>71.0</ele><time>2026-03-22T09:59:51.969Z</time></trkpt><trkpt lat="47.38608836991219" lon="-1.8144321409462043"><ele>71.0</ele><time>2026-03-22T09:59:52.969Z</time></trkpt><trkpt lat="47.38614970791288" lon="-1.814362917340606"><ele>71.0</ele><time>2026-03-22T09:59:53.969Z</time></trkpt><trkpt lat="47.38620865976965" lon="-1.814293449316957"><ele>71.14285714285714</ele><time>2026-03-22T09:59:54.969Z</time></trkpt><trkpt lat="47.38626620373225" lon="-1.8142212823599895"><ele>71.28571428571428</ele><time>2026-03-22T09:59:55.969Z</time></trkpt><trkpt lat="47.38632504615828" lon="-1.8141539735996999"><ele>71.42857142857143</ele><time>2026-03-22T09:59:56.969Z</time></trkpt><trkpt lat="47.38638361338668" lon="-1.8140863223089372"><ele>71.57142857142857</ele><time>2026-03-22T09:59:57.969Z</time></trkpt><trkpt lat="47.386441151780645" lon="-1.8140195741603227"><ele>71.71428571428572</ele><time>2026-03-22T09:59:58.969Z</time></trkpt><trkpt lat="47.38649903545683" lon="-1.813957063278104"><ele>71.85714285714286</ele><time>2026-03-22T09:59:59.969Z</time></trkpt><trkpt lat="47.386556365877034" lon="-1.8138936106406132"><ele>72.0</ele><time>2026-03-22T10:00:00.969Z</time></trkpt><trkpt lat="47.38661265274805" lon="-1.8138248727735573"><ele>71.57142857142858</ele><time>2026-03-22T10:00:01.969Z</time></trkpt><trkpt lat="47.38666791824816" lon="-1.8137600455897793"><ele>71.14285714285714</ele><time>2026-03-22T10:00:02.969Z</time></trkpt><trkpt lat="47.38672784049555" lon="-1.8136955864804034"><ele>70.71428571428572</ele><time>2026-03-22T10:00:03.969Z</time></trkpt><trkpt lat="47.386791050549675" lon="-1.8136422553546838"><ele>70.28571428571429</ele><time>2026-03-22T10:00:04.969Z</time></trkpt><trkpt lat="47.386851669311" lon="-1.813582772184282"><ele>69.85714285714286</ele><time>2026-03-22T10:00:05.969Z</time></trkpt><trkpt lat="47.38691730918481" lon="-1.8135364243015824"><ele>69.42857142857143</ele><time>2026-03-22T10:00:06.969Z</time></trkpt><trkpt lat="47.38698449395062" lon="-1.8134980320219545"><ele>69.0</ele><time>2026-03-22T10:00:07.969Z</time></trkpt><trkpt lat="47.387054445751744" lon="-1.813461489357629"><ele>69.0</ele><time>2026-03-22T10:00:08.969Z</time></trkpt><trkpt lat="47.3871248441991" lon="-1.813434873708421"><ele>69.0</ele><time>2026-03-22T10:00:09.969Z</time></trkpt><trkpt lat="47.387193599185785" lon="-1.8134088859005948"><ele>69.0</ele><time>2026-03-22T10:00:10.969Z</time></trkpt><trkpt lat="47.38726309701139" lon="-1.8133870040160276"><ele>69.0</ele><time>2026-03-22T10:00:11.969Z</time></trkpt><trkpt lat="47.38733056312291" lon="-1.8133530566386131"><ele>69.0</ele><time>2026-03-22T10:00:12.969Z</time></trkpt><trkpt lat="47.387399393608206" lon="-1.8133171853474346"><ele>69.0</ele><time>2026-03-22T10:00:13.969Z</time></trkpt><trkpt lat="47.38746473276914" lon="-1.8132777291384545"><ele>69.0</ele><time>2026-03-22T10:00:14.969Z</time></trkpt><trkpt lat="47.38753144906614" lon="-1.8132278079515483"><ele>68.71428571428572</ele><time>2026-03-22T10:00:15.969Z</time></trkpt><trkpt lat="47.3875933604723" lon="-1.8131672552049052"><ele>68.42857142857143</ele><time>2026-03-22T10:00:16.969Z</time></trkpt><trkpt lat="47.38764512564272" lon="-1.813093253421615"><ele>68.14285714285714</ele><time>2026-03-22T10:00:17.969Z</time></trkpt><trkpt lat="47.38770468844893" lon="-1.8130241380568923"><ele>67.85714285714286</ele><time>2026-03-22T10:00:18.969Z</time></trkpt><trkpt lat="47.38776520927031" lon="-1.8129529648218736"><ele>67.57142857142857</ele><time>2026-03-22T10:00:19.969Z</time></trkpt><trkpt lat="47.3878227937616" lon="-1.81288807118203"><ele>67.28571428571429</ele><time>2026-03-22T10:00:20.969Z</time></trkpt><trkpt lat="47.38788062833153" lon="-1.81281172908554"><ele>67.0</ele><time>2026-03-22T10:00:21.969Z</time></trkpt><trkpt lat="47.38794144065203" lon="-1.8127492522594149"><ele>67.0</ele><time>2026-03-22T10:00:22.969Z</time></trkpt><trkpt lat="47.3880038465777" lon="-1.8126876610543534"><ele>67.0</ele><time>2026-03-22T10:00:23.969Z</time></trkpt><trkpt lat="47.3880585889898" lon="-1.8126190271633615"><ele>67.0</ele><time>2026-03-22T10:00:24.969Z</time></trkpt><trkpt lat="47.38811833641089" lon="-1.8125540946334406"><ele>67.0</ele><time>2026-03-22T10:00:25.968Z</time></trkpt><trkpt lat="47.38818092980811" lon="-1.8124945090536906"><ele>67.0</ele><time>2026-03-22T10:00:26.968Z</time></trkpt><trkpt lat="47.38824578851378" lon="-1.8124387064274379"><ele>67.0</ele><time>2026-03-22T10:00:27.968Z</time></trkpt><trkpt lat="47.38831297848444" lon="-1.8123868218854375"><ele>67.0</ele><time>2026-03-22T10:00:28.968Z</time></trkpt><trkpt lat="47.38838107441062" lon="-1.8123437791269152"><ele>66.83333333333333</ele><time>2026-03-22T10:00:29.968Z</time></trkpt><trkpt lat="47.38845173159543" lon="-1.8122949656635183"><ele>66.66666666666666</ele><time>2026-03-22T10:00:30.968Z</time></trkpt><trkpt lat="47.38852400277697" lon="-1.8122518134108874"><ele>66.5</ele><time>2026-03-22T10:00:31.968Z</time></trkpt><trkpt lat="47.388595435969144" lon="-1.812213293938706"><ele>66.33333333333333</ele><time>2026-03-22T10:00:32.968Z</time></trkpt><trkpt lat="47.38866749570288" lon="-1.8121690205948697"><ele>66.16666666666667</ele><time>2026-03-22T10:00:33.968Z</time></trkpt><trkpt lat="47.388740497918306" lon="-1.8121151493631331"><ele>66.0</ele><time>2026-03-22T10:00:34.968Z</time></trkpt><trkpt lat="47.388815760402004" lon="-1.812086354557606"><ele>66.0</ele><time>2026-03-22T10:00:35.968Z</time></trkpt><trkpt lat="47.388890491171274" lon="-1.8120399575067334"><ele>66.0</ele><time>2026-03-22T10:00:36.968Z</time></trkpt><trkpt lat="47.38896572359991" lon="-1.8119975786454297"><ele>66.0</ele><time>2026-03-22T10:00:37.968Z</time></trkpt><trkpt lat="47.389040791843684" lon="-1.811956963140129"><ele>66.0</ele><time>2026-03-22T10:00:38.968Z</time></trkpt><trkpt lat="47.38911316993594" lon="-1.8119125569452177"><ele>66.0</ele><time>2026-03-22T10:00:39.968Z</time></trkpt><trkpt lat="47.38918869554656" lon="-1.811879377137095"><ele>66.0</ele><time>2026-03-22T10:00:40.968Z</time></trkpt><trkpt lat="47.38926093532066" lon="-1.8118384486978893"><ele>65.85714285714286</ele><time>2026-03-22T10:00:41.968Z</time></trkpt><trkpt lat="47.38933383901653" lon="-1.8117972449875919"><ele>65.71428571428572</ele><time>2026-03-22T10:00:42.968Z</time></trkpt><trkpt lat="47.38940482435388" lon="-1.8117613247310802"><ele>65.57142857142858</ele><time>2026-03-22T10:00:43.968Z</time></trkpt><trkpt lat="47.3894765439242" lon="-1.8117315912537382"><ele>65.42857142857143</ele><time>2026-03-22T10:00:44.968Z</time></trkpt><trkpt lat="47.38954468619725" lon="-1.8117065531240772"><ele>65.28571428571429</ele><time>2026-03-22T10:00:45.968Z</time></trkpt><trkpt lat="47.389614659203936" lon="-1.8116808291663082"><ele>65.14285714285715</ele><time>2026-03-22T10:00:46.97Z</time></trkpt><trkpt lat="47.38968142743349" lon="-1.8116555551420042"><ele>65.0</ele><time>2026-03-22T10:00:47.969Z</time></trkpt><trkpt lat="47.389750687604945" lon="-1.8116365810198798"><ele>65.0</ele><time>2026-03-22T10:00:48.969Z</time></trkpt><trkpt lat="47.389818787633445" lon="-1.811604582107687"><ele>65.0</ele><time>2026-03-22T10:00:49.969Z</time></trkpt><trkpt lat="47.389952099381105" lon="-1.8115806832905401"><ele>65.0</ele><time>2026-03-22T10:00:51.969Z</time></trkpt><trkpt lat="47.39001780960902" lon="-1.8115605814150852"><ele>65.0</ele><time>2026-03-22T10:00:52.969Z</time></trkpt><trkpt lat="47.39008346642403" lon="-1.8115441827305647"><ele>65.0</ele><time>2026-03-22T10:00:53.969Z</time></trkpt><trkpt lat="47.39014914782427" lon="-1.8115317314105663"><ele>65.0</ele><time>2026-03-22T10:00:54.969Z</time></trkpt><trkpt lat="47.390215917860985" lon="-1.8115059577307657"><ele>65.00000000000001</ele><time>2026-03-22T10:00:55.97Z</time></trkpt><trkpt lat="47.39028317779873" lon="-1.8114838595349658"><ele>65.0</ele><time>2026-03-22T10:00:56.969Z</time></trkpt><trkpt lat="47.39035007049551" lon="-1.8114584341815072"><ele>65.0</ele><time>2026-03-22T10:00:57.969Z</time></trkpt><trkpt lat="47.39041302064663" lon="-1.811438878606359"><ele>65.0</ele><time>2026-03-22T10:00:58.969Z</time></trkpt><trkpt lat="47.39047516601575" lon="-1.8114195315802173"><ele>65.0</ele><time>2026-03-22T10:00:59.969Z</time></trkpt><trkpt lat="47.390540615465405" lon="-1.8113967028815252"><ele>65.00000000000001</ele><time>2026-03-22T10:01:00.969Z</time></trkpt><trkpt lat="47.390606835169244" lon="-1.8113553244853573"><ele>65.0</ele><time>2026-03-22T10:01:01.969Z</time></trkpt><trkpt lat="47.39066664905985" lon="-1.8113240614679038"><ele>65.0</ele><time>2026-03-22T10:01:02.969Z</time></trkpt><trkpt lat="47.39072837627153" lon="-1.811285771621637"><ele>65.0</ele><time>2026-03-22T10:01:03.969Z</time></trkpt><trkpt lat="47.39079131881843" lon="-1.8112461675150469"><ele>65.0</ele><time>2026-03-22T10:01:04.969Z</time></trkpt><trkpt lat="47.39085223494207" lon="-1.8112183011484482"><ele>65.0</ele><time>2026-03-22T10:01:05.969Z</time></trkpt><trkpt lat="47.39097983724756" lon="-1.811149531385072"><ele>65.0</ele><time>2026-03-22T10:01:07.969Z</time></trkpt><trkpt lat="47.39104246604422" lon="-1.8111125891679638"><ele>65.0</ele><time>2026-03-22T10:01:08.969Z</time></trkpt><trkpt lat="47.391107759833496" lon="-1.8110748018288845"><ele>65.0</ele><time>2026-03-22T10:01:09.969Z</time></trkpt><trkpt lat="47.391229532828696" lon="-1.8110090430898678"><ele>65.0</ele><time>2026-03-22T10:01:11.969Z</time></trkpt><trkpt lat="47.39129314356884" lon="-1.8109709679981163"><ele>65.0</ele><time>2026-03-22T10:01:12.969Z</time></trkpt><trkpt lat="47.39135892470089" lon="-1.8109293991369388"><ele>65.0</ele><time>2026-03-22T10:01:13.969Z</time></trkpt><trkpt lat="47.39142159709661" lon="-1.81088904354914"><ele>65.0</ele><time>2026-03-22T10:01:14.969Z</time></trkpt><trkpt lat="47.39148402572504" lon="-1.8108593729054854"><ele>65.0</ele><time>2026-03-22T10:01:15.969Z</time></trkpt><trkpt lat="47.39154792643899" lon="-1.8108172669595217"><ele>64.71428571428572</ele><time>2026-03-22T10:01:16.969Z</time></trkpt><trkpt lat="47.39160878768756" lon="-1.8107847167831475"><ele>64.42857142857143</ele><time>2026-03-22T10:01:17.969Z</time></trkpt><trkpt lat="47.391672225487376" lon="-1.8107517510875575"><ele>64.14285714285714</ele><time>2026-03-22T10:01:18.969Z</time></trkpt><trkpt lat="47.391731643546755" lon="-1.8107125999567188"><ele>63.85714285714286</ele><time>2026-03-22T10:01:19.969Z</time></trkpt><trkpt lat="47.391791520837145" lon="-1.8106682554147873"><ele>63.57142857142857</ele><time>2026-03-22T10:01:20.969Z</time></trkpt><trkpt lat="47.391850524603356" lon="-1.8106317947997772"><ele>63.285714285714285</ele><time>2026-03-22T10:01:21.969Z</time></trkpt><trkpt lat="47.39191360757227" lon="-1.8105898748167735"><ele>63.0</ele><time>2026-03-22T10:01:22.969Z</time></trkpt><trkpt lat="47.39197385795465" lon="-1.8105625781776882"><ele>63.0</ele><time>2026-03-22T10:01:23.969Z</time></trkpt><trkpt lat="47.39203445209174" lon="-1.8105251118774612"><ele>63.0</ele><time>2026-03-22T10:01:24.969Z</time></trkpt><trkpt lat="47.39209733006992" lon="-1.8104793289790655"><ele>63.0</ele><time>2026-03-22T10:01:25.969Z</time></trkpt><trkpt lat="47.39215486157739" lon="-1.8104176016084024"><ele>63.0</ele><time>2026-03-22T10:01:26.969Z</time></trkpt><trkpt lat="47.392204083519324" lon="-1.810351415651029"><ele>63.0</ele><time>2026-03-22T10:01:27.969Z</time></trkpt><trkpt lat="47.3922524818875" lon="-1.81027066573231"><ele>63.0</ele><time>2026-03-22T10:01:28.969Z</time></trkpt><trkpt lat="47.392293274349825" lon="-1.8101905738362256"><ele>63.0</ele><time>2026-03-22T10:01:29.969Z</time></trkpt><trkpt lat="47.39232123170371" lon="-1.8100867083334506"><ele>63.0</ele><time>2026-03-22T10:01:30.969Z</time></trkpt><trkpt lat="47.392336219034405" lon="-1.8099830292371706"><ele>63.0</ele><time>2026-03-22T10:01:31.969Z</time></trkpt><trkpt lat="47.39234194856671" lon="-1.8098675423307176"><ele>63.0</ele><time>2026-03-22T10:01:32.969Z</time></trkpt><trkpt lat="47.39235318264562" lon="-1.8097606295945448"><ele>63.0</ele><time>2026-03-22T10:01:33.969Z</time></trkpt><trkpt lat="47.39234592952831" lon="-1.8096433418845537"><ele>63.0</ele><time>2026-03-22T10:01:34.969Z</time></trkpt><trkpt lat="47.3923360234259" lon="-1.809531231189346"><ele>63.0</ele><time>2026-03-22T10:01:35.969Z</time></trkpt><trkpt lat="47.392329764488956" lon="-1.8094100770029826"><ele>62.8</ele><time>2026-03-22T10:01:36.969Z</time></trkpt><trkpt lat="47.392297481560874" lon="-1.8092964764841901"><ele>62.599999999999994</ele><time>2026-03-22T10:01:37.969Z</time></trkpt><trkpt lat="47.392270408870736" lon="-1.8090546390245463"><ele>62.400000000000006</ele><time>2026-03-22T10:01:39.969Z</time></trkpt><trkpt lat="47.392256299540705" lon="-1.8089343005771852"><ele>62.2</ele><time>2026-03-22T10:01:40.969Z</time></trkpt><trkpt lat="47.392248254675444" lon="-1.8088243157796402"><ele>62.0</ele><time>2026-03-22T10:01:41.969Z</time></trkpt><trkpt lat="47.392229553929354" lon="-1.8087178803929145"><ele>62.0</ele><time>2026-03-22T10:01:42.969Z</time></trkpt><trkpt lat="47.39221715872287" lon="-1.808599716034309"><ele>62.0</ele><time>2026-03-22T10:01:43.969Z</time></trkpt><trkpt lat="47.392200667550924" lon="-1.808389354990324"><ele>62.0</ele><time>2026-03-22T10:01:45.969Z</time></trkpt><trkpt lat="47.392175382303144" lon="-1.8082819026113126"><ele>62.0</ele><time>2026-03-22T10:01:46.969Z</time></trkpt><trkpt lat="47.3921448329611" lon="-1.8081598343990666"><ele>62.0</ele><time>2026-03-22T10:01:47.969Z</time></trkpt><trkpt lat="47.392113657792635" lon="-1.8080408779142279"><ele>61.2</ele><time>2026-03-22T10:01:48.969Z</time></trkpt><trkpt lat="47.39207929310376" lon="-1.8079219225188994"><ele>60.400000000000006</ele><time>2026-03-22T10:01:49.969Z</time></trkpt><trkpt lat="47.3920363474214" lon="-1.8078061740249478"><ele>59.599999999999994</ele><time>2026-03-22T10:01:50.969Z</time></trkpt><trkpt lat="47.39198980742568" lon="-1.8076900604860657"><ele>58.8</ele><time>2026-03-22T10:01:51.969Z</time></trkpt><trkpt lat="47.39194043080246" lon="-1.8075700440578204"><ele>58.0</ele><time>2026-03-22T10:01:52.969Z</time></trkpt><trkpt lat="47.39189470531313" lon="-1.8074484724576572"><ele>57.599999999999994</ele><time>2026-03-22T10:01:53.969Z</time></trkpt><trkpt lat="47.391853007911585" lon="-1.80732208282242"><ele>57.199999999999996</ele><time>2026-03-22T10:01:54.969Z</time></trkpt><trkpt lat="47.391821149502476" lon="-1.8071873972667893"><ele>56.8</ele><time>2026-03-22T10:01:55.969Z</time></trkpt><trkpt lat="47.39177729333927" lon="-1.8070641869459516"><ele>56.4</ele><time>2026-03-22T10:01:56.969Z</time></trkpt><trkpt lat="47.39174115604254" lon="-1.8069255894453746"><ele>56.0</ele><time>2026-03-22T10:01:57.969Z</time></trkpt><trkpt lat="47.391708517457936" lon="-1.8067873697551369"><ele>55.4</ele><time>2026-03-22T10:01:58.969Z</time></trkpt><trkpt lat="47.39168136002452" lon="-1.8066474544057467"><ele>54.8</ele><time>2026-03-22T10:01:59.969Z</time></trkpt><trkpt lat="47.39165724390679" lon="-1.806504740073678"><ele>54.199999999999996</ele><time>2026-03-22T10:02:00.969Z</time></trkpt><trkpt lat="47.391637097256805" lon="-1.8063642074664508"><ele>53.599999999999994</ele><time>2026-03-22T10:02:01.969Z</time></trkpt><trkpt lat="47.39162341147344" lon="-1.8062182946304952"><ele>53.0</ele><time>2026-03-22T10:02:02.969Z</time></trkpt><trkpt lat="47.3916106968704" lon="-1.806076044715823"><ele>52.599999999999994</ele><time>2026-03-22T10:02:03.969Z</time></trkpt><trkpt lat="47.39159437299452" lon="-1.8059312282821502"><ele>52.199999999999996</ele><time>2026-03-22T10:02:04.969Z</time></trkpt><trkpt lat="47.39158249852163" lon="-1.8057956716849264"><ele>51.8</ele><time>2026-03-22T10:02:05.969Z</time></trkpt><trkpt lat="47.39156030483683" lon="-1.805660794152907"><ele>51.4</ele><time>2026-03-22T10:02:06.969Z</time></trkpt><trkpt lat="47.3915458566941" lon="-1.805535681398146"><ele>51.0</ele><time>2026-03-22T10:02:07.969Z</time></trkpt><trkpt lat="47.39152906254101" lon="-1.8054168054745523"><ele>51.0</ele><time>2026-03-22T10:02:08.969Z</time></trkpt><trkpt lat="47.391514331691674" lon="-1.8053078497289077"><ele>51.0</ele><time>2026-03-22T10:02:09.969Z</time></trkpt><trkpt lat="47.39150123152861" lon="-1.8052052069047861"><ele>51.0</ele><time>2026-03-22T10:02:10.969Z</time></trkpt><trkpt lat="47.39148559377135" lon="-1.8051084109963902"><ele>51.0</ele><time>2026-03-22T10:02:11.969Z</time></trkpt><trkpt lat="47.3914613444119" lon="-1.8049314665570728"><ele>51.0</ele><time>2026-03-22T10:02:13.969Z</time></trkpt><trkpt lat="47.391435165558974" lon="-1.8047677487800453"><ele>51.0</ele><time>2026-03-22T10:02:15.969Z</time></trkpt><trkpt lat="47.391421438335755" lon="-1.8046178926338448"><ele>51.4</ele><time>2026-03-22T10:02:17.969Z</time></trkpt><trkpt lat="47.39140324410734" lon="-1.8044855353745843"><ele>51.8</ele><time>2026-03-22T10:02:19.969Z</time></trkpt><trkpt lat="47.39138655222267" lon="-1.8043533571830395"><ele>52.199999999999996</ele><time>2026-03-22T10:02:21.969Z</time></trkpt><trkpt lat="47.39136328953276" lon="-1.804210997599174"><ele>52.599999999999994</ele><time>2026-03-22T10:02:23.969Z</time></trkpt><trkpt lat="47.39135610378622" lon="-1.8040727119473754"><ele>53.0</ele><time>2026-03-22T10:02:25.969Z</time></trkpt><trkpt lat="47.39141816735342" lon="-1.8039720954226162"><ele>53.599999999999994</ele><time>2026-03-22T10:02:27.969Z</time></trkpt><trkpt lat="47.39151473773574" lon="-1.8039349488359844"><ele>54.199999999999996</ele><time>2026-03-22T10:02:29.969Z</time></trkpt><trkpt lat="47.39160701451567" lon="-1.8038873065670145"><ele>54.8</ele><time>2026-03-22T10:02:31.969Z</time></trkpt><trkpt lat="47.39169587072667" lon="-1.8038435306779046"><ele>55.4</ele><time>2026-03-22T10:02:33.969Z</time></trkpt><trkpt lat="47.3917875005772" lon="-1.8037953213955922"><ele>56.0</ele><time>2026-03-22T10:02:35.969Z</time></trkpt><trkpt lat="47.39188017806675" lon="-1.8037521238321754"><ele>56.0</ele><time>2026-03-22T10:02:37.969Z</time></trkpt><trkpt lat="47.39197416246996" lon="-1.8037106120423598"><ele>55.99999999999999</ele><time>2026-03-22T10:02:39.969Z</time></trkpt><trkpt lat="47.392074203076696" lon="-1.8036675674437181"><ele>55.99999999999999</ele><time>2026-03-22T10:02:41.969Z</time></trkpt><trkpt lat="47.39217342761039" lon="-1.8036273214775393"><ele>56.0</ele><time>2026-03-22T10:02:43.969Z</time></trkpt><trkpt lat="47.39227614415659" lon="-1.8035783557354816"><ele>56.0</ele><time>2026-03-22T10:02:45.969Z</time></trkpt><trkpt lat="47.39238115908832" lon="-1.8035215542504235"><ele>56.16666666666667</ele><time>2026-03-22T10:02:47.969Z</time></trkpt><trkpt lat="47.39248620618951" lon="-1.803482174108844"><ele>56.333333333333336</ele><time>2026-03-22T10:02:49.969Z</time></trkpt><trkpt lat="47.392598306939576" lon="-1.803423149182445"><ele>56.5</ele><time>2026-03-22T10:02:51.969Z</time></trkpt><trkpt lat="47.39266084213801" lon="-1.8033953074776088"><ele>56.66666666666667</ele><time>2026-03-22T10:02:52.969Z</time></trkpt><trkpt lat="47.392722971514324" lon="-1.8033709750418834"><ele>56.833333333333336</ele><time>2026-03-22T10:02:53.97Z</time></trkpt><trkpt lat="47.39278636312812" lon="-1.8033319560016976"><ele>57.0</ele><time>2026-03-22T10:02:54.97Z</time></trkpt><trkpt lat="47.39284824245188" lon="-1.8033032792743249"><ele>57.0</ele><time>2026-03-22T10:02:55.969Z</time></trkpt><trkpt lat="47.39290946440051" lon="-1.8032761888626878"><ele>56.99999999999999</ele><time>2026-03-22T10:02:56.969Z</time></trkpt><trkpt lat="47.39297803596086" lon="-1.8032467132739685"><ele>57.0</ele><time>2026-03-22T10:02:57.969Z</time></trkpt><trkpt lat="47.393049502191325" lon="-1.803210261587235"><ele>57.0</ele><time>2026-03-22T10:02:58.969Z</time></trkpt><trkpt lat="47.3931183812945" lon="-1.8031892921683867"><ele>56.99999999999999</ele><time>2026-03-22T10:02:59.969Z</time></trkpt><trkpt lat="47.39318704082963" lon="-1.8031546722625478"><ele>57.0</ele><time>2026-03-22T10:03:00.969Z</time></trkpt><trkpt lat="47.39325464877803" lon="-1.803122157984612"><ele>57.0</ele><time>2026-03-22T10:03:01.969Z</time></trkpt><trkpt lat="47.393323600578555" lon="-1.803090407386562"><ele>56.5</ele><time>2026-03-22T10:03:02.969Z</time></trkpt><trkpt lat="47.393398869142715" lon="-1.803047714291188"><ele>56.0</ele><time>2026-03-22T10:03:03.969Z</time></trkpt><trkpt lat="47.39347564471886" lon="-1.8030176172292902"><ele>55.5</ele><time>2026-03-22T10:03:04.969Z</time></trkpt><trkpt lat="47.39355041751105" lon="-1.8029805407987038"><ele>55.0</ele><time>2026-03-22T10:03:05.97Z</time></trkpt><trkpt lat="47.39362342072191" lon="-1.8029468145589362"><ele>54.5</ele><time>2026-03-22T10:03:06.97Z</time></trkpt><trkpt lat="47.39369646694295" lon="-1.802921562900596"><ele>54.0</ele><time>2026-03-22T10:03:07.97Z</time></trkpt><trkpt lat="47.39378195783751" lon="-1.802878593014956"><ele>53.333333333333336</ele><time>2026-03-22T10:03:08.97Z</time></trkpt><trkpt lat="47.39385752643287" lon="-1.8028582450157853"><ele>52.66666666666667</ele><time>2026-03-22T10:03:09.97Z</time></trkpt><trkpt lat="47.39394180203345" lon="-1.8028252868408796"><ele>52.0</ele><time>2026-03-22T10:03:10.97Z</time></trkpt><trkpt lat="47.39402175423109" lon="-1.8028053958544812"><ele>51.333333333333336</ele><time>2026-03-22T10:03:11.97Z</time></trkpt><trkpt lat="47.39410401910167" lon="-1.8027891249363823"><ele>50.66666666666667</ele><time>2026-03-22T10:03:12.97Z</time></trkpt><trkpt lat="47.394186640709364" lon="-1.8027592160811015"><ele>50.0</ele><time>2026-03-22T10:03:13.97Z</time></trkpt><trkpt lat="47.39428109885702" lon="-1.8027314853931036"><ele>50.0</ele><time>2026-03-22T10:03:14.97Z</time></trkpt><trkpt lat="47.394368694268486" lon="-1.802720545604922"><ele>50.0</ele><time>2026-03-22T10:03:15.97Z</time></trkpt><trkpt lat="47.39445864553645" lon="-1.8027027949016525"><ele>50.0</ele><time>2026-03-22T10:03:16.97Z</time></trkpt><trkpt lat="47.3945477508424" lon="-1.802679938700142"><ele>50.0</ele><time>2026-03-22T10:03:17.969Z</time></trkpt><trkpt lat="47.394641744488084" lon="-1.8026474950995728"><ele>50.0</ele><time>2026-03-22T10:03:18.969Z</time></trkpt><trkpt lat="47.394731952925895" lon="-1.8026169505724694"><ele>49.8</ele><time>2026-03-22T10:03:19.969Z</time></trkpt><trkpt lat="47.39481913650958" lon="-1.8025718567641438"><ele>49.6</ele><time>2026-03-22T10:03:20.969Z</time></trkpt><trkpt lat="47.394907289716194" lon="-1.8025219245926487"><ele>49.400000000000006</ele><time>2026-03-22T10:03:21.969Z</time></trkpt><trkpt lat="47.3949941309129" lon="-1.8024694763975926"><ele>49.2</ele><time>2026-03-22T10:03:22.969Z</time></trkpt><trkpt lat="47.395077929017056" lon="-1.8024181755798154"><ele>49.0</ele><time>2026-03-22T10:03:23.969Z</time></trkpt><trkpt lat="47.39515778612587" lon="-1.8023615741343741"><ele>49.0</ele><time>2026-03-22T10:03:24.969Z</time></trkpt><trkpt lat="47.39524531634074" lon="-1.8022791493981758"><ele>49.0</ele><time>2026-03-22T10:03:25.969Z</time></trkpt><trkpt lat="47.395317285894805" lon="-1.8022129147361532"><ele>49.0</ele><time>2026-03-22T10:03:26.969Z</time></trkpt><trkpt lat="47.39539215028004" lon="-1.802142051840356"><ele>49.0</ele><time>2026-03-22T10:03:27.969Z</time></trkpt><trkpt lat="47.39546734150642" lon="-1.8020597685529665"><ele>49.0</ele><time>2026-03-22T10:03:28.969Z</time></trkpt><trkpt lat="47.395536397701456" lon="-1.8019685792603382"><ele>48.666666666666664</ele><time>2026-03-22T10:03:29.969Z</time></trkpt><trkpt lat="47.395601328391976" lon="-1.8018756264500722"><ele>48.33333333333333</ele><time>2026-03-22T10:03:30.969Z</time></trkpt><trkpt lat="47.39566197523571" lon="-1.801770873226609"><ele>48.0</ele><time>2026-03-22T10:03:31.969Z</time></trkpt><trkpt lat="47.39571990877392" lon="-1.80167171049939"><ele>47.666666666666664</ele><time>2026-03-22T10:03:32.969Z</time></trkpt><trkpt lat="47.395772232399345" lon="-1.8015642626093435"><ele>47.33333333333333</ele><time>2026-03-22T10:03:33.969Z</time></trkpt><trkpt lat="47.39582686313606" lon="-1.801469445660739"><ele>47.0</ele><time>2026-03-22T10:03:34.969Z</time></trkpt><trkpt lat="47.39587939144314" lon="-1.8013681418227974"><ele>47.0</ele><time>2026-03-22T10:03:35.969Z</time></trkpt><trkpt lat="47.39593219025172" lon="-1.8012837726692086"><ele>47.0</ele><time>2026-03-22T10:03:36.969Z</time></trkpt><trkpt lat="47.39598797844186" lon="-1.8012066470746504"><ele>47.0</ele><time>2026-03-22T10:03:37.969Z</time></trkpt><trkpt lat="47.39605016030942" lon="-1.8011436068099054"><ele>47.0</ele><time>2026-03-22T10:03:38.969Z</time></trkpt><trkpt lat="47.396107077188596" lon="-1.8010813055710262"><ele>47.0</ele><time>2026-03-22T10:03:39.969Z</time></trkpt><trkpt lat="47.396166699116044" lon="-1.8010303940863137"><ele>47.0</ele><time>2026-03-22T10:03:40.969Z</time></trkpt><trkpt lat="47.3962271052203" lon="-1.8009857289351903"><ele>47.0</ele><time>2026-03-22T10:03:41.969Z</time></trkpt><trkpt lat="47.396292098631" lon="-1.800949969814344"><ele>47.33333333333333</ele><time>2026-03-22T10:03:42.969Z</time></trkpt><trkpt lat="47.396358392310766" lon="-1.8009199660589934"><ele>47.666666666666664</ele><time>2026-03-22T10:03:43.969Z</time></trkpt><trkpt lat="47.396424955331085" lon="-1.800899194960416"><ele>48.0</ele><time>2026-03-22T10:03:44.969Z</time></trkpt><trkpt lat="47.39648981417028" lon="-1.8008817725728414"><ele>48.33333333333333</ele><time>2026-03-22T10:03:45.969Z</time></trkpt><trkpt lat="47.396609586512746" lon="-1.8008633091482744"><ele>48.666666666666664</ele><time>2026-03-22T10:03:47.969Z</time></trkpt><trkpt lat="47.39667638340391" lon="-1.8008357531199717"><ele>49.0</ele><time>2026-03-22T10:03:48.969Z</time></trkpt><trkpt lat="47.39674037470368" lon="-1.8008213404746254"><ele>48.99999999999999</ele><time>2026-03-22T10:03:49.969Z</time></trkpt><trkpt lat="47.39680561450625" lon="-1.8008023802037654"><ele>49.0</ele><time>2026-03-22T10:03:50.969Z</time></trkpt><trkpt lat="47.39693033254362" lon="-1.8007701209073297"><ele>49.0</ele><time>2026-03-22T10:03:52.969Z</time></trkpt><trkpt lat="47.39699314922046" lon="-1.800749242200733"><ele>49.0</ele><time>2026-03-22T10:03:53.969Z</time></trkpt><trkpt lat="47.39705855419297" lon="-1.8007244696306712"><ele>48.99999999999999</ele><time>2026-03-22T10:03:54.969Z</time></trkpt><trkpt lat="47.397119880336945" lon="-1.8007003864619708"><ele>49.0</ele><time>2026-03-22T10:03:55.969Z</time></trkpt><trkpt lat="47.397183166991674" lon="-1.800667410181585"><ele>48.857142857142854</ele><time>2026-03-22T10:03:56.969Z</time></trkpt><trkpt lat="47.39724842277666" lon="-1.8006303175002192"><ele>48.714285714285715</ele><time>2026-03-22T10:03:57.969Z</time></trkpt><trkpt lat="47.39731156682402" lon="-1.8005991330719398"><ele>48.57142857142857</ele><time>2026-03-22T10:03:58.969Z</time></trkpt><trkpt lat="47.397378427543174" lon="-1.8005581577835272"><ele>48.42857142857143</ele><time>2026-03-22T10:03:59.969Z</time></trkpt><trkpt lat="47.39744425834841" lon="-1.8005304057467109"><ele>48.285714285714285</ele><time>2026-03-22T10:04:00.969Z</time></trkpt><trkpt lat="47.397507775432196" lon="-1.8004920800832116"><ele>48.14285714285714</ele><time>2026-03-22T10:04:01.969Z</time></trkpt><trkpt lat="47.39757543206768" lon="-1.800452878511554"><ele>48.0</ele><time>2026-03-22T10:04:02.969Z</time></trkpt><trkpt lat="47.397640361341914" lon="-1.8004124582162258"><ele>47.99999999999999</ele><time>2026-03-22T10:04:03.969Z</time></trkpt><trkpt lat="47.3977058684538" lon="-1.8003791772954"><ele>48.0</ele><time>2026-03-22T10:04:04.969Z</time></trkpt><trkpt lat="47.39777284663521" lon="-1.8003438881161933"><ele>48.0</ele><time>2026-03-22T10:04:05.969Z</time></trkpt><trkpt lat="47.397845976464566" lon="-1.800315043001943"><ele>48.0</ele><time>2026-03-22T10:04:06.969Z</time></trkpt><trkpt lat="47.397916919926395" lon="-1.8002845258977536"><ele>48.0</ele><time>2026-03-22T10:04:07.969Z</time></trkpt><trkpt lat="47.397983145426664" lon="-1.8002579858982706"><ele>47.99999999999999</ele><time>2026-03-22T10:04:08.969Z</time></trkpt><trkpt lat="47.39805002712392" lon="-1.8002368999064788"><ele>48.0</ele><time>2026-03-22T10:04:09.969Z</time></trkpt><trkpt lat="47.39812211323457" lon="-1.8002167840549044"><ele>47.5</ele><time>2026-03-22T10:04:10.969Z</time></trkpt><trkpt lat="47.39819131272835" lon="-1.800205700232969"><ele>47.0</ele><time>2026-03-22T10:04:11.969Z</time></trkpt><trkpt lat="47.398257999719696" lon="-1.8001973826479396"><ele>46.5</ele><time>2026-03-22T10:04:12.969Z</time></trkpt><trkpt lat="47.398323840908155" lon="-1.800193984825102"><ele>46.0</ele><time>2026-03-22T10:04:13.969Z</time></trkpt><trkpt lat="47.39839445340702" lon="-1.800182370450771"><ele>45.5</ele><time>2026-03-22T10:04:14.969Z</time></trkpt><trkpt lat="47.39845763016392" lon="-1.8001862702394342"><ele>45.0</ele><time>2026-03-22T10:04:15.969Z</time></trkpt><trkpt lat="47.398585672455745" lon="-1.8001849806745631"><ele>45.0</ele><time>2026-03-22T10:04:17.969Z</time></trkpt><trkpt lat="47.39864984329313" lon="-1.8001670689565168"><ele>45.0</ele><time>2026-03-22T10:04:18.969Z</time></trkpt><trkpt lat="47.39871373316981" lon="-1.800149093691549"><ele>45.0</ele><time>2026-03-22T10:04:19.969Z</time></trkpt><trkpt lat="47.39877484862215" lon="-1.8001131427065042"><ele>45.0</ele><time>2026-03-22T10:04:20.969Z</time></trkpt><trkpt lat="47.39883591447501" lon="-1.80006773460934"><ele>45.0</ele><time>2026-03-22T10:04:21.969Z</time></trkpt><trkpt lat="47.39889058337598" lon="-1.8000187709160331"><ele>45.0</ele><time>2026-03-22T10:04:22.969Z</time></trkpt><trkpt lat="47.398983150875225" lon="-1.7998998785407159"><ele>45.4</ele><time>2026-03-22T10:04:24.969Z</time></trkpt><trkpt lat="47.39905697182777" lon="-1.7997641532544677"><ele>45.8</ele><time>2026-03-22T10:04:26.969Z</time></trkpt><trkpt lat="47.39911020351744" lon="-1.7996178002749188"><ele>46.2</ele><time>2026-03-22T10:04:28.969Z</time></trkpt><trkpt lat="47.39914677117311" lon="-1.7994672556574876"><ele>46.6</ele><time>2026-03-22T10:04:30.969Z</time></trkpt><trkpt lat="47.39916873900786" lon="-1.799324206422305"><ele>47.0</ele><time>2026-03-22T10:04:32.969Z</time></trkpt><trkpt lat="47.399198381779506" lon="-1.7991854476113551"><ele>47.400000000000006</ele><time>2026-03-22T10:04:34.969Z</time></trkpt><trkpt lat="47.39922475994773" lon="-1.7990499146868755"><ele>47.800000000000004</ele><time>2026-03-22T10:04:36.969Z</time></trkpt><trkpt lat="47.399245244074045" lon="-1.7989299190909425"><ele>48.2</ele><time>2026-03-22T10:04:38.969Z</time></trkpt><trkpt lat="47.39926571768168" lon="-1.7988004627020597"><ele>48.6</ele><time>2026-03-22T10:04:40.969Z</time></trkpt><trkpt lat="47.39929285611442" lon="-1.7986742166363245"><ele>49.0</ele><time>2026-03-22T10:04:42.969Z</time></trkpt><trkpt lat="47.39931750617122" lon="-1.7985453058906424"><ele>49.49999999999999</ele><time>2026-03-22T10:04:44.969Z</time></trkpt><trkpt lat="47.399347378539744" lon="-1.7984244105712461"><ele>50.0</ele><time>2026-03-22T10:04:46.969Z</time></trkpt><trkpt lat="47.399377413942936" lon="-1.7983029018792993"><ele>50.5</ele><time>2026-03-22T10:04:48.969Z</time></trkpt><trkpt lat="47.399421391936905" lon="-1.7981980547596448"><ele>51.0</ele><time>2026-03-22T10:04:50.969Z</time></trkpt><trkpt lat="47.39946278275407" lon="-1.7980980087968284"><ele>51.49999999999999</ele><time>2026-03-22T10:04:52.969Z</time></trkpt><trkpt lat="47.39950771250668" lon="-1.798010997884965"><ele>52.0</ele><time>2026-03-22T10:04:54.969Z</time></trkpt><trkpt lat="47.39955775743685" lon="-1.797928816258161"><ele>51.99999999999999</ele><time>2026-03-22T10:04:56.969Z</time></trkpt><trkpt lat="47.39961150751421" lon="-1.7978500260993533"><ele>52.0</ele><time>2026-03-22T10:04:58.969Z</time></trkpt><trkpt lat="47.399670058572084" lon="-1.7977813115391172"><ele>52.0</ele><time>2026-03-22T10:05:00.969Z</time></trkpt><trkpt lat="47.399738947704435" lon="-1.7977290268761317"><ele>52.0</ele><time>2026-03-22T10:05:02.969Z</time></trkpt><trkpt lat="47.399800555440564" lon="-1.7976736365288708"><ele>51.99999999999999</ele><time>2026-03-22T10:05:04.969Z</time></trkpt><trkpt lat="47.399865654587714" lon="-1.7976322513548337"><ele>52.0</ele><time>2026-03-22T10:05:06.969Z</time></trkpt><trkpt lat="47.3999460465088" lon="-1.7976033955412072"><ele>52.33333333333333</ele><time>2026-03-22T10:05:08.969Z</time></trkpt><trkpt lat="47.400016199293" lon="-1.7975838227674306"><ele>52.666666666666664</ele><time>2026-03-22T10:05:10.968Z</time></trkpt><trkpt lat="47.400089860232804" lon="-1.7975611744700744"><ele>53.0</ele><time>2026-03-22T10:05:12.969Z</time></trkpt><trkpt lat="47.40016678089329" lon="-1.7975354596962296"><ele>53.33333333333333</ele><time>2026-03-22T10:05:14.969Z</time></trkpt><trkpt lat="47.400240801080315" lon="-1.7975151610681683"><ele>53.666666666666664</ele><time>2026-03-22T10:05:16.969Z</time></trkpt><trkpt lat="47.400319815746556" lon="-1.7974889359562767"><ele>54.0</ele><time>2026-03-22T10:05:18.969Z</time></trkpt><trkpt lat="47.40040133137651" lon="-1.7974740225145955"><ele>54.0</ele><time>2026-03-22T10:05:20.969Z</time></trkpt><trkpt lat="47.40047909863508" lon="-1.7974624723828774"><ele>54.0</ele><time>2026-03-22T10:05:22.969Z</time></trkpt><trkpt lat="47.40055986253828" lon="-1.7974427621541385"><ele>54.0</ele><time>2026-03-22T10:05:24.969Z</time></trkpt><trkpt lat="47.40063613391405" lon="-1.7974256521068364"><ele>54.0</ele><time>2026-03-22T10:05:26.969Z</time></trkpt><trkpt lat="47.40071761638953" lon="-1.797409792043509"><ele>54.0</ele><time>2026-03-22T10:05:28.969Z</time></trkpt><trkpt lat="47.40079538719298" lon="-1.7973859665913614"><ele>54.0</ele><time>2026-03-22T10:05:30.969Z</time></trkpt><trkpt lat="47.40088082451446" lon="-1.797375982449096"><ele>54.5</ele><time>2026-03-22T10:05:32.969Z</time></trkpt><trkpt lat="47.40095920581548" lon="-1.7973582741994212"><ele>55.0</ele><time>2026-03-22T10:05:34.969Z</time></trkpt><trkpt lat="47.401044875766615" lon="-1.7973272732838381"><ele>55.5</ele><time>2026-03-22T10:05:36.969Z</time></trkpt><trkpt lat="47.40112663909442" lon="-1.7973083710843822"><ele>56.0</ele><time>2026-03-22T10:05:38.969Z</time></trkpt><trkpt lat="47.40120855300832" lon="-1.797285406340723"><ele>56.5</ele><time>2026-03-22T10:05:40.969Z</time></trkpt><trkpt lat="47.40128909652788" lon="-1.7972614404893803"><ele>57.0</ele><time>2026-03-22T10:05:42.969Z</time></trkpt><trkpt lat="47.401375855253185" lon="-1.7972333210470832"><ele>57.400000000000006</ele><time>2026-03-22T10:05:44.969Z</time></trkpt><trkpt lat="47.40146248417674" lon="-1.797217838941588"><ele>57.800000000000004</ele><time>2026-03-22T10:05:46.969Z</time></trkpt><trkpt lat="47.40155779631463" lon="-1.797189164729532"><ele>58.2</ele><time>2026-03-22T10:05:48.969Z</time></trkpt><trkpt lat="47.401646245040894" lon="-1.7971636533526991"><ele>58.6</ele><time>2026-03-22T10:05:50.969Z</time></trkpt><trkpt lat="47.40174475916965" lon="-1.7971454512215599"><ele>59.0</ele><time>2026-03-22T10:05:52.969Z</time></trkpt><trkpt lat="47.40183531912839" lon="-1.7971247823714358"><ele>59.0</ele><time>2026-03-22T10:05:54.969Z</time></trkpt><trkpt lat="47.40192417717754" lon="-1.7971138669006748"><ele>59.00000000000001</ele><time>2026-03-22T10:05:56.969Z</time></trkpt><trkpt lat="47.40202209049486" lon="-1.797078004828299"><ele>59.00000000000001</ele><time>2026-03-22T10:05:58.969Z</time></trkpt><trkpt lat="47.402115570894004" lon="-1.797063824736028"><ele>59.0</ele><time>2026-03-22T10:06:00.969Z</time></trkpt><trkpt lat="47.40221198650147" lon="-1.7970369428976627"><ele>59.0</ele><time>2026-03-22T10:06:02.969Z</time></trkpt><trkpt lat="47.402307830172006" lon="-1.7970035100115826"><ele>59.2</ele><time>2026-03-22T10:06:04.969Z</time></trkpt><trkpt lat="47.402401812686904" lon="-1.7969828871461064"><ele>59.400000000000006</ele><time>2026-03-22T10:06:06.969Z</time></trkpt><trkpt lat="47.40249177933583" lon="-1.7969518830576294"><ele>59.6</ele><time>2026-03-22T10:06:08.969Z</time></trkpt><trkpt lat="47.402582532864066" lon="-1.796934407658146"><ele>59.8</ele><time>2026-03-22T10:06:10.969Z</time></trkpt><trkpt lat="47.40267146363935" lon="-1.7969095317267394"><ele>60.0</ele><time>2026-03-22T10:06:12.969Z</time></trkpt><trkpt lat="47.40276058277599" lon="-1.7968835490794282"><ele>60.0</ele><time>2026-03-22T10:06:14.969Z</time></trkpt><trkpt lat="47.4028484958431" lon="-1.796862746519001"><ele>60.0</ele><time>2026-03-22T10:06:16.969Z</time></trkpt><trkpt lat="47.40293921611477" lon="-1.7968374006791248"><ele>60.0</ele><time>2026-03-22T10:06:18.969Z</time></trkpt><trkpt lat="47.403027297645274" lon="-1.7968187698994829"><ele>60.0</ele><time>2026-03-22T10:06:20.969Z</time></trkpt><trkpt lat="47.40311333325311" lon="-1.7967941951416135"><ele>60.0</ele><time>2026-03-22T10:06:22.969Z</time></trkpt><trkpt lat="47.403195739919106" lon="-1.7967746925992765"><ele>60.0</ele><time>2026-03-22T10:06:24.969Z</time></trkpt><trkpt lat="47.40328016192272" lon="-1.796756710170285"><ele>60.666666666666664</ele><time>2026-03-22T10:06:26.969Z</time></trkpt><trkpt lat="47.40336700086634" lon="-1.7967429272115336"><ele>61.33333333333333</ele><time>2026-03-22T10:06:28.969Z</time></trkpt><trkpt lat="47.403453691759864" lon="-1.7967330176293994"><ele>62.0</ele><time>2026-03-22T10:06:30.969Z</time></trkpt><trkpt lat="47.403541077118746" lon="-1.7967081901700266"><ele>62.666666666666664</ele><time>2026-03-22T10:06:32.969Z</time></trkpt><trkpt lat="47.403633474240564" lon="-1.796701215636063"><ele>63.33333333333333</ele><time>2026-03-22T10:06:34.969Z</time></trkpt><trkpt lat="47.40372571247211" lon="-1.7966769892419188"><ele>64.0</ele><time>2026-03-22T10:06:36.969Z</time></trkpt><trkpt lat="47.403819191106166" lon="-1.7966600421569012"><ele>64.0</ele><time>2026-03-22T10:06:38.969Z</time></trkpt><trkpt lat="47.40391453961868" lon="-1.796637151760043"><ele>64.0</ele><time>2026-03-22T10:06:40.968Z</time></trkpt><trkpt lat="47.404010248974714" lon="-1.7966125824321604"><ele>64.0</ele><time>2026-03-22T10:06:42.968Z</time></trkpt><trkpt lat="47.40409792526907" lon="-1.7966209395157728"><ele>64.0</ele><time>2026-03-22T10:06:44.968Z</time></trkpt><trkpt lat="47.40420077143229" lon="-1.7965892629338345"><ele>64.0</ele><time>2026-03-22T10:06:46.968Z</time></trkpt><trkpt lat="47.40428897093605" lon="-1.7965549333695177"><ele>63.99999999999999</ele><time>2026-03-22T10:06:48.968Z</time></trkpt><trkpt lat="47.40436665696953" lon="-1.796555208675612"><ele>64.0</ele><time>2026-03-22T10:06:50.968Z</time></trkpt><trkpt lat="47.40443880787718" lon="-1.7964912718426045"><ele>64.0</ele><time>2026-03-22T10:06:53.968Z</time></trkpt><trkpt lat="47.40445807164637" lon="-1.796372382467741"><ele>64.0</ele><time>2026-03-22T10:06:55.968Z</time></trkpt><trkpt lat="47.40448617474445" lon="-1.7962568894141868"><ele>63.99999999999999</ele><time>2026-03-22T10:06:57.968Z</time></trkpt><trkpt lat="47.40457894406567" lon="-1.7962766834810484"><ele>64.0</ele><time>2026-03-22T10:06:59.968Z</time></trkpt><trkpt lat="47.40467410712285" lon="-1.7963544935720697"><ele>63.6</ele><time>2026-03-22T10:07:01.968Z</time></trkpt><trkpt lat="47.40476967772453" lon="-1.7964022551209244"><ele>63.2</ele><time>2026-03-22T10:07:03.968Z</time></trkpt><trkpt lat="47.404878162138715" lon="-1.79642807123555"><ele>62.800000000000004</ele><time>2026-03-22T10:07:05.969Z</time></trkpt><trkpt lat="47.40498253176858" lon="-1.7964519903914982"><ele>62.400000000000006</ele><time>2026-03-22T10:07:07.969Z</time></trkpt><trkpt lat="47.405092661137104" lon="-1.7964519006927318"><ele>62.0</ele><time>2026-03-22T10:07:09.969Z</time></trkpt><trkpt lat="47.40520120585841" lon="-1.7964409876494913"><ele>62.0</ele><time>2026-03-22T10:07:11.969Z</time></trkpt><trkpt lat="47.40531224833557" lon="-1.7964380774390416"><ele>62.0</ele><time>2026-03-22T10:07:13.969Z</time></trkpt><trkpt lat="47.40542219486465" lon="-1.796433202122806"><ele>62.0</ele><time>2026-03-22T10:07:15.969Z</time></trkpt><trkpt lat="47.405529789548595" lon="-1.796427464010754"><ele>62.0</ele><time>2026-03-22T10:07:17.969Z</time></trkpt><trkpt lat="47.40563385898927" lon="-1.7964222913396157"><ele>62.0</ele><time>2026-03-22T10:07:19.969Z</time></trkpt><trkpt lat="47.405752561046924" lon="-1.7964067947746947"><ele>62.0</ele><time>2026-03-22T10:07:21.969Z</time></trkpt><trkpt lat="47.40586856352147" lon="-1.7964011932148392"><ele>62.0</ele><time>2026-03-22T10:07:23.969Z</time></trkpt><trkpt lat="47.405985376912334" lon="-1.7963933120047393"><ele>62.0</ele><time>2026-03-22T10:07:25.969Z</time></trkpt><trkpt lat="47.4060484533131" lon="-1.796379537856002"><ele>62.0</ele><time>2026-03-22T10:07:26.969Z</time></trkpt><trkpt lat="47.40616788262279" lon="-1.7963641078927397"><ele>62.0</ele><time>2026-03-22T10:07:28.969Z</time></trkpt><trkpt lat="47.40627838565535" lon="-1.796360416316757"><ele>62.2</ele><time>2026-03-22T10:07:30.969Z</time></trkpt><trkpt lat="47.40635170896848" lon="-1.7963631473832538"><ele>62.400000000000006</ele><time>2026-03-22T10:07:31.969Z</time></trkpt><trkpt lat="47.406473609573084" lon="-1.7963444911433446"><ele>62.599999999999994</ele><time>2026-03-22T10:07:33.969Z</time></trkpt><trkpt lat="47.40659799170873" lon="-1.7963327732136731"><ele>62.8</ele><time>2026-03-22T10:07:35.969Z</time></trkpt><trkpt lat="47.406663473582334" lon="-1.796327914036104"><ele>63.0</ele><time>2026-03-22T10:07:36.969Z</time></trkpt><trkpt lat="47.40679206937627" lon="-1.7963180019056553"><ele>63.0</ele><time>2026-03-22T10:07:38.969Z</time></trkpt><trkpt lat="47.406914052349954" lon="-1.796309310955643"><ele>63.0</ele><time>2026-03-22T10:07:40.969Z</time></trkpt><trkpt lat="47.4070302354334" lon="-1.7962989195837347"><ele>63.0</ele><time>2026-03-22T10:07:42.969Z</time></trkpt><trkpt lat="47.40714441638479" lon="-1.796288700496157"><ele>63.0</ele><time>2026-03-22T10:07:44.969Z</time></trkpt><trkpt lat="47.40721789814748" lon="-1.7962688301400913"><ele>63.0</ele><time>2026-03-22T10:07:45.969Z</time></trkpt><trkpt lat="47.40728265070544" lon="-1.7962470806179895"><ele>62.5</ele><time>2026-03-22T10:07:46.969Z</time></trkpt><trkpt lat="47.40735076658906" lon="-1.7962056619158135"><ele>62.0</ele><time>2026-03-22T10:07:47.969Z</time></trkpt><trkpt lat="47.4074196088438" lon="-1.7961694114342948"><ele>61.5</ele><time>2026-03-22T10:07:48.969Z</time></trkpt><trkpt lat="47.40755540581209" lon="-1.7961541265093601"><ele>61.0</ele><time>2026-03-22T10:07:50.969Z</time></trkpt><trkpt lat="47.40762899404014" lon="-1.79616546504604"><ele>60.5</ele><time>2026-03-22T10:07:51.969Z</time></trkpt><trkpt lat="47.407705455068815" lon="-1.7961627988207185"><ele>60.0</ele><time>2026-03-22T10:07:52.969Z</time></trkpt><trkpt lat="47.4077770186615" lon="-1.7961561588376533"><ele>60.0</ele><time>2026-03-22T10:07:53.969Z</time></trkpt><trkpt lat="47.407847103964826" lon="-1.7961353948643726"><ele>60.0</ele><time>2026-03-22T10:07:54.969Z</time></trkpt><trkpt lat="47.40791678802179" lon="-1.7961103801902516"><ele>60.0</ele><time>2026-03-22T10:07:55.969Z</time></trkpt><trkpt lat="47.40799139291355" lon="-1.7960833341104232"><ele>60.0</ele><time>2026-03-22T10:07:56.969Z</time></trkpt><trkpt lat="47.408064251682475" lon="-1.7960562533575888"><ele>60.0</ele><time>2026-03-22T10:07:57.969Z</time></trkpt><trkpt lat="47.4081357222973" lon="-1.7960291248691127"><ele>60.0</ele><time>2026-03-22T10:07:58.969Z</time></trkpt><trkpt lat="47.40820656566417" lon="-1.7960073074721168"><ele>60.0</ele><time>2026-03-22T10:07:59.969Z</time></trkpt><trkpt lat="47.408275183902184" lon="-1.7959774600244487"><ele>59.5</ele><time>2026-03-22T10:08:00.969Z</time></trkpt><trkpt lat="47.408347925152675" lon="-1.7959403231066067"><ele>59.0</ele><time>2026-03-22T10:08:01.969Z</time></trkpt><trkpt lat="47.40842622234646" lon="-1.795903056538389"><ele>58.5</ele><time>2026-03-22T10:08:02.969Z</time></trkpt><trkpt lat="47.40850337977562" lon="-1.7958735953412261"><ele>58.0</ele><time>2026-03-22T10:08:03.969Z</time></trkpt><trkpt lat="47.408577005410415" lon="-1.795838716923985"><ele>57.5</ele><time>2026-03-22T10:08:04.969Z</time></trkpt><trkpt lat="47.408651182243474" lon="-1.7958077304971503"><ele>57.0</ele><time>2026-03-22T10:08:05.969Z</time></trkpt><trkpt lat="47.40872953620134" lon="-1.795773972663513"><ele>57.0</ele><time>2026-03-22T10:08:06.969Z</time></trkpt><trkpt lat="47.40880985882071" lon="-1.795734150885279"><ele>57.0</ele><time>2026-03-22T10:08:07.969Z</time></trkpt><trkpt lat="47.408881602333096" lon="-1.7956962531591447"><ele>57.0</ele><time>2026-03-22T10:08:08.969Z</time></trkpt><trkpt lat="47.408962135231" lon="-1.7956686319846364"><ele>57.0</ele><time>2026-03-22T10:08:09.969Z</time></trkpt><trkpt lat="47.409039340963666" lon="-1.7956295822159318"><ele>57.0</ele><time>2026-03-22T10:08:10.969Z</time></trkpt><trkpt lat="47.40911827789766" lon="-1.7955898023532768"><ele>57.0</ele><time>2026-03-22T10:08:11.969Z</time></trkpt><trkpt lat="47.4091916619713" lon="-1.7955575905916872"><ele>56.833333333333336</ele><time>2026-03-22T10:08:12.969Z</time></trkpt><trkpt lat="47.409263305293585" lon="-1.7955162264125328"><ele>56.66666666666667</ele><time>2026-03-22T10:08:13.969Z</time></trkpt><trkpt lat="47.409337370463064" lon="-1.7954771191442158"><ele>56.5</ele><time>2026-03-22T10:08:14.969Z</time></trkpt><trkpt lat="47.40940786911779" lon="-1.7954453102854517"><ele>56.333333333333336</ele><time>2026-03-22T10:08:15.969Z</time></trkpt><trkpt lat="47.409480500527415" lon="-1.7954136431556782"><ele>56.16666666666667</ele><time>2026-03-22T10:08:16.969Z</time></trkpt><trkpt lat="47.40955714774272" lon="-1.7953968623935403"><ele>56.0</ele><time>2026-03-22T10:08:17.969Z</time></trkpt><trkpt lat="47.40963701467814" lon="-1.7953515355507677"><ele>55.66666666666667</ele><time>2026-03-22T10:08:18.969Z</time></trkpt><trkpt lat="47.40970794738064" lon="-1.7953190830470644"><ele>55.333333333333336</ele><time>2026-03-22T10:08:19.969Z</time></trkpt><trkpt lat="47.409784419012226" lon="-1.7952763621235839"><ele>55.0</ele><time>2026-03-22T10:08:20.969Z</time></trkpt><trkpt lat="47.409861509233124" lon="-1.795246462745398"><ele>54.66666666666667</ele><time>2026-03-22T10:08:21.969Z</time></trkpt><trkpt lat="47.40993900163717" lon="-1.7952175314067387"><ele>54.333333333333336</ele><time>2026-03-22T10:08:22.969Z</time></trkpt><trkpt lat="47.41001547787392" lon="-1.7951821325167923"><ele>54.0</ele><time>2026-03-22T10:08:23.969Z</time></trkpt><trkpt lat="47.41009251515836" lon="-1.7951401890584708"><ele>54.0</ele><time>2026-03-22T10:08:24.969Z</time></trkpt><trkpt lat="47.41016955797241" lon="-1.7951057314880912"><ele>54.0</ele><time>2026-03-22T10:08:25.969Z</time></trkpt><trkpt lat="47.41024509699028" lon="-1.7950818398135766"><ele>54.0</ele><time>2026-03-22T10:08:26.968Z</time></trkpt><trkpt lat="47.41031634959798" lon="-1.7950383961515788"><ele>54.0</ele><time>2026-03-22T10:08:27.968Z</time></trkpt><trkpt lat="47.41038935147953" lon="-1.7950043353695726"><ele>54.0</ele><time>2026-03-22T10:08:28.968Z</time></trkpt><trkpt lat="47.4104620345125" lon="-1.7949780709312921"><ele>54.0</ele><time>2026-03-22T10:08:29.968Z</time></trkpt><trkpt lat="47.41053482832139" lon="-1.7949306838411228"><ele>53.666666666666664</ele><time>2026-03-22T10:08:30.968Z</time></trkpt><trkpt lat="47.41061103653428" lon="-1.7949102019132612"><ele>53.33333333333333</ele><time>2026-03-22T10:08:31.968Z</time></trkpt><trkpt lat="47.41068977702588" lon="-1.7948688426618764"><ele>53.0</ele><time>2026-03-22T10:08:32.968Z</time></trkpt><trkpt lat="47.410763284418245" lon="-1.7948472082585474"><ele>52.666666666666664</ele><time>2026-03-22T10:08:33.968Z</time></trkpt><trkpt lat="47.41083882168057" lon="-1.7948115122387551"><ele>52.33333333333333</ele><time>2026-03-22T10:08:34.968Z</time></trkpt><trkpt lat="47.410914943995714" lon="-1.794775908935005"><ele>52.0</ele><time>2026-03-22T10:08:35.968Z</time></trkpt><trkpt lat="47.410991542976966" lon="-1.7947355184332785"><ele>51.99999999999999</ele><time>2026-03-22T10:08:36.968Z</time></trkpt><trkpt lat="47.411064743761216" lon="-1.7946989218279326"><ele>52.0</ele><time>2026-03-22T10:08:37.968Z</time></trkpt><trkpt lat="47.41113670551493" lon="-1.7946590788978432"><ele>52.0</ele><time>2026-03-22T10:08:38.968Z</time></trkpt><trkpt lat="47.41120553486257" lon="-1.794611567219554"><ele>52.0</ele><time>2026-03-22T10:08:39.968Z</time></trkpt><trkpt lat="47.41127347175678" lon="-1.7945628516246015"><ele>51.99999999999999</ele><time>2026-03-22T10:08:40.968Z</time></trkpt><trkpt lat="47.411342819642115" lon="-1.794515329053405"><ele>52.0</ele><time>2026-03-22T10:08:41.968Z</time></trkpt><trkpt lat="47.411417929885786" lon="-1.7944809771850023"><ele>51.857142857142854</ele><time>2026-03-22T10:08:42.968Z</time></trkpt><trkpt lat="47.411491453627306" lon="-1.7944590967743423"><ele>51.714285714285715</ele><time>2026-03-22T10:08:43.968Z</time></trkpt><trkpt lat="47.411563872914854" lon="-1.7944381716734603"><ele>51.57142857142857</ele><time>2026-03-22T10:08:44.968Z</time></trkpt><trkpt lat="47.41163497846295" lon="-1.7944055413917448"><ele>51.42857142857143</ele><time>2026-03-22T10:08:45.968Z</time></trkpt><trkpt lat="47.41170147324464" lon="-1.7943607819632617"><ele>51.28571428571429</ele><time>2026-03-22T10:08:46.968Z</time></trkpt><trkpt lat="47.411769343124504" lon="-1.7943285967848344"><ele>51.142857142857146</ele><time>2026-03-22T10:08:47.968Z</time></trkpt><trkpt lat="47.411841386405165" lon="-1.7942802780865477"><ele>51.0</ele><time>2026-03-22T10:08:48.968Z</time></trkpt><trkpt lat="47.41190675488831" lon="-1.7942651280684363"><ele>51.0</ele><time>2026-03-22T10:08:49.968Z</time></trkpt><trkpt lat="47.41197409641047" lon="-1.7942217610885904"><ele>51.0</ele><time>2026-03-22T10:08:50.968Z</time></trkpt><trkpt lat="47.41204045955375" lon="-1.794183314782773"><ele>51.0</ele><time>2026-03-22T10:08:51.968Z</time></trkpt><trkpt lat="47.412111470447606" lon="-1.794139125887313"><ele>51.0</ele><time>2026-03-22T10:08:52.968Z</time></trkpt><trkpt lat="47.41217739907545" lon="-1.7940998990508874"><ele>51.0</ele><time>2026-03-22T10:08:53.968Z</time></trkpt><trkpt lat="47.41224674345677" lon="-1.7940663919963191"><ele>51.0</ele><time>2026-03-22T10:08:54.968Z</time></trkpt><trkpt lat="47.4123153870203" lon="-1.794026719125717"><ele>51.0</ele><time>2026-03-22T10:08:55.968Z</time></trkpt><trkpt lat="47.412384206280144" lon="-1.7939862072963904"><ele>50.833333333333336</ele><time>2026-03-22T10:08:56.968Z</time></trkpt><trkpt lat="47.412451379140805" lon="-1.793946611247658"><ele>50.66666666666667</ele><time>2026-03-22T10:08:57.968Z</time></trkpt><trkpt lat="47.41252292294724" lon="-1.7939125888753384"><ele>50.5</ele><time>2026-03-22T10:08:58.968Z</time></trkpt><trkpt lat="47.41259274818937" lon="-1.7938723155639094"><ele>50.333333333333336</ele><time>2026-03-22T10:08:59.968Z</time></trkpt><trkpt lat="47.41266594291301" lon="-1.7938269018366955"><ele>50.16666666666667</ele><time>2026-03-22T10:09:00.968Z</time></trkpt><trkpt lat="47.41273487650268" lon="-1.7937913631409137"><ele>50.0</ele><time>2026-03-22T10:09:01.968Z</time></trkpt><trkpt lat="47.41280489451769" lon="-1.7937495057512178"><ele>50.00000000000001</ele><time>2026-03-22T10:09:02.969Z</time></trkpt><trkpt lat="47.41287308809228" lon="-1.7937066540458868"><ele>50.0</ele><time>2026-03-22T10:09:03.969Z</time></trkpt><trkpt lat="47.41294371372355" lon="-1.793667013940098"><ele>50.0</ele><time>2026-03-22T10:09:04.97Z</time></trkpt><trkpt lat="47.41301217460039" lon="-1.7936302544279812"><ele>50.0</ele><time>2026-03-22T10:09:05.971Z</time></trkpt><trkpt lat="47.413081466543304" lon="-1.7935845346926051"><ele>50.0</ele><time>2026-03-22T10:09:06.971Z</time></trkpt><trkpt lat="47.41314934836556" lon="-1.7935347066243592"><ele>50.00000000000001</ele><time>2026-03-22T10:09:07.972Z</time></trkpt><trkpt lat="47.41321551408019" lon="-1.793482320013064"><ele>50.0</ele><time>2026-03-22T10:09:08.972Z</time></trkpt><trkpt lat="47.41328204993849" lon="-1.7934289932068612"><ele>50.00000000000001</ele><time>2026-03-22T10:09:09.973Z</time></trkpt><trkpt lat="47.413343090740604" lon="-1.7933698996784524"><ele>50.0</ele><time>2026-03-22T10:09:10.974Z</time></trkpt><trkpt lat="47.41340775031172" lon="-1.79331024067278"><ele>50.0</ele><time>2026-03-22T10:09:11.974Z</time></trkpt><trkpt lat="47.41346299928479" lon="-1.7932544350933532"><ele>50.0</ele><time>2026-03-22T10:09:12.975Z</time></trkpt><trkpt lat="47.413525654246044" lon="-1.793196713345489"><ele>50.0</ele><time>2026-03-22T10:09:13.975Z</time></trkpt><trkpt lat="47.413581930540836" lon="-1.7931365155937753"><ele>50.00000000000001</ele><time>2026-03-22T10:09:14.975Z</time></trkpt><trkpt lat="47.413637468226405" lon="-1.7930721243653436"><ele>50.0</ele><time>2026-03-22T10:09:15.975Z</time></trkpt><trkpt lat="47.41368786484363" lon="-1.7930003604921956"><ele>50.00000000000001</ele><time>2026-03-22T10:09:16.976Z</time></trkpt><trkpt lat="47.41373935379828" lon="-1.7929359278125971"><ele>50.0</ele><time>2026-03-22T10:09:17.976Z</time></trkpt><trkpt lat="47.413793883615035" lon="-1.7928541304633328"><ele>50.0</ele><time>2026-03-22T10:09:18.976Z</time></trkpt><trkpt lat="47.41384602635857" lon="-1.7927868964004474"><ele>50.0</ele><time>2026-03-22T10:09:19.977Z</time></trkpt><trkpt lat="47.4138978386845" lon="-1.792718235599417"><ele>50.0</ele><time>2026-03-22T10:09:20.976Z</time></trkpt><trkpt lat="47.41394546689671" lon="-1.7926454103222231"><ele>50.00000000000001</ele><time>2026-03-22T10:09:21.977Z</time></trkpt><trkpt lat="47.413993629667495" lon="-1.7925793197722473"><ele>50.0</ele><time>2026-03-22T10:09:22.978Z</time></trkpt><trkpt lat="47.41403887071488" lon="-1.7925047189245729"><ele>49.8</ele><time>2026-03-22T10:09:23.978Z</time></trkpt><trkpt lat="47.41408641531679" lon="-1.7924370356269792"><ele>49.6</ele><time>2026-03-22T10:09:24.978Z</time></trkpt><trkpt lat="47.41413196205178" lon="-1.7923659719703966"><ele>49.400000000000006</ele><time>2026-03-22T10:09:25.978Z</time></trkpt><trkpt lat="47.414226082330444" lon="-1.7922470694255754"><ele>49.2</ele><time>2026-03-22T10:09:27.979Z</time></trkpt><trkpt lat="47.41434406112004" lon="-1.7921876768835103"><ele>49.0</ele><time>2026-03-22T10:09:29.979Z</time></trkpt><trkpt lat="47.41446529961445" lon="-1.792171931064746"><ele>48.99999999999999</ele><time>2026-03-22T10:09:31.979Z</time></trkpt><trkpt lat="47.41453413871335" lon="-1.7921651670038268"><ele>49.0</ele><time>2026-03-22T10:09:32.979Z</time></trkpt><trkpt lat="47.41460229194138" lon="-1.7921644634312186"><ele>49.0</ele><time>2026-03-22T10:09:33.979Z</time></trkpt><trkpt lat="47.41466597686628" lon="-1.7921620099969713"><ele>49.0</ele><time>2026-03-22T10:09:34.979Z</time></trkpt><trkpt lat="47.414782818631636" lon="-1.792147757429055"><ele>48.99999999999999</ele><time>2026-03-22T10:09:36.98Z</time></trkpt><trkpt lat="47.41489061504585" lon="-1.7920796048332734"><ele>49.0</ele><time>2026-03-22T10:09:38.98Z</time></trkpt><trkpt lat="47.4149770654809" lon="-1.7920230046606174"><ele>48.83333333333333</ele><time>2026-03-22T10:09:40.98Z</time></trkpt><trkpt lat="47.41503981885398" lon="-1.7919940229368023"><ele>48.666666666666664</ele><time>2026-03-22T10:09:42.98Z</time></trkpt><trkpt lat="47.415106975870756" lon="-1.7918971086597906"><ele>48.5</ele><time>2026-03-22T10:09:45.98Z</time></trkpt><trkpt lat="47.4151025119097" lon="-1.7917837107771533"><ele>48.33333333333333</ele><time>2026-03-22T10:09:47.98Z</time></trkpt><trkpt lat="47.41510223418321" lon="-1.7916517545550756"><ele>48.166666666666664</ele><time>2026-03-22T10:09:49.98Z</time></trkpt><trkpt lat="47.41508685591152" lon="-1.791509167959597"><ele>48.0</ele><time>2026-03-22T10:09:51.98Z</time></trkpt><trkpt lat="47.41507930211079" lon="-1.7913645459847058"><ele>47.8</ele><time>2026-03-22T10:09:53.98Z</time></trkpt><trkpt lat="47.41506285145376" lon="-1.7912119829986157"><ele>47.599999999999994</ele><time>2026-03-22T10:09:55.98Z</time></trkpt><trkpt lat="47.41504552932772" lon="-1.7910733629311564"><ele>47.400000000000006</ele><time>2026-03-22T10:09:57.98Z</time></trkpt><trkpt lat="47.41503659872546" lon="-1.790945718061696"><ele>47.2</ele><time>2026-03-22T10:09:59.98Z</time></trkpt><trkpt lat="47.41501741441502" lon="-1.7907969948178393"><ele>47.0</ele><time>2026-03-22T10:10:01.98Z</time></trkpt><trkpt lat="47.41500813820115" lon="-1.7906338854336252"><ele>46.6</ele><time>2026-03-22T10:10:03.98Z</time></trkpt><trkpt lat="47.41499742240072" lon="-1.7904509181914716"><ele>46.2</ele><time>2026-03-22T10:10:05.98Z</time></trkpt><trkpt lat="47.4149837668277" lon="-1.7903527434682422"><ele>45.8</ele><time>2026-03-22T10:10:06.98Z</time></trkpt><trkpt lat="47.41497319578367" lon="-1.7902602725788468"><ele>45.4</ele><time>2026-03-22T10:10:07.98Z</time></trkpt><trkpt lat="47.41496368002275" lon="-1.7900713904830676"><ele>45.0</ele><time>2026-03-22T10:10:09.98Z</time></trkpt><trkpt lat="47.41495187390523" lon="-1.7899716600561595"><ele>44.714285714285715</ele><time>2026-03-22T10:10:10.98Z</time></trkpt><trkpt lat="47.41495005038262" lon="-1.7898773005318394"><ele>44.42857142857143</ele><time>2026-03-22T10:10:11.98Z</time></trkpt><trkpt lat="47.41494461462617" lon="-1.789779698898177"><ele>44.142857142857146</ele><time>2026-03-22T10:10:12.98Z</time></trkpt><trkpt lat="47.41494378536807" lon="-1.7896758413762681"><ele>43.85714285714286</ele><time>2026-03-22T10:10:13.98Z</time></trkpt><trkpt lat="47.41494864366107" lon="-1.7895762296999609"><ele>43.57142857142857</ele><time>2026-03-22T10:10:14.98Z</time></trkpt><trkpt lat="47.41495122023677" lon="-1.7894699757780457"><ele>43.28571428571429</ele><time>2026-03-22T10:10:15.98Z</time></trkpt><trkpt lat="47.41494901001644" lon="-1.789359577176389"><ele>43.0</ele><time>2026-03-22T10:10:16.98Z</time></trkpt><trkpt lat="47.41495679453565" lon="-1.7892472105572133"><ele>42.66666666666667</ele><time>2026-03-22T10:10:17.98Z</time></trkpt><trkpt lat="47.41495753311352" lon="-1.7891304560736645"><ele>42.333333333333336</ele><time>2026-03-22T10:10:18.98Z</time></trkpt><trkpt lat="47.41496656648872" lon="-1.7890175790326965"><ele>42.0</ele><time>2026-03-22T10:10:19.98Z</time></trkpt><trkpt lat="47.41496422278615" lon="-1.7888971371407383"><ele>41.666666666666664</ele><time>2026-03-22T10:10:20.98Z</time></trkpt><trkpt lat="47.414964749296566" lon="-1.788777773036473"><ele>41.33333333333333</ele><time>2026-03-22T10:10:21.98Z</time></trkpt><trkpt lat="47.41496425425863" lon="-1.7886575044923994"><ele>41.0</ele><time>2026-03-22T10:10:22.98Z</time></trkpt><trkpt lat="47.414970253730296" lon="-1.7885363461556"><ele>40.33333333333333</ele><time>2026-03-22T10:10:23.98Z</time></trkpt><trkpt lat="47.41496950899682" lon="-1.7884142027096537"><ele>39.666666666666664</ele><time>2026-03-22T10:10:24.98Z</time></trkpt><trkpt lat="47.414968412176215" lon="-1.7882910661038618"><ele>39.0</ele><time>2026-03-22T10:10:25.98Z</time></trkpt><trkpt lat="47.41496703920812" lon="-1.788167880866821"><ele>38.333333333333336</ele><time>2026-03-22T10:10:26.98Z</time></trkpt><trkpt lat="47.41496106678443" lon="-1.788045617662921"><ele>37.66666666666667</ele><time>2026-03-22T10:10:27.98Z</time></trkpt><trkpt lat="47.414955520316596" lon="-1.7879223578446117"><ele>37.0</ele><time>2026-03-22T10:10:28.98Z</time></trkpt><trkpt lat="47.41494081003272" lon="-1.787798410739244"><ele>37.0</ele><time>2026-03-22T10:10:29.98Z</time></trkpt><trkpt lat="47.414930289901925" lon="-1.7876825374721717"><ele>37.0</ele><time>2026-03-22T10:10:30.98Z</time></trkpt><trkpt lat="47.414917823660836" lon="-1.7875702511347291"><ele>37.0</ele><time>2026-03-22T10:10:31.98Z</time></trkpt><trkpt lat="47.41490129714066" lon="-1.787463168665186"><ele>37.0</ele><time>2026-03-22T10:10:32.98Z</time></trkpt><trkpt lat="47.41488579453165" lon="-1.7873626774448694"><ele>37.0</ele><time>2026-03-22T10:10:33.98Z</time></trkpt><trkpt lat="47.41487660815109" lon="-1.787267292254735"><ele>37.0</ele><time>2026-03-22T10:10:34.98Z</time></trkpt><trkpt lat="47.41486551843298" lon="-1.7871733274328108"><ele>37.0</ele><time>2026-03-22T10:10:35.98Z</time></trkpt><trkpt lat="47.414837011289286" lon="-1.7869903604778923"><ele>37.0</ele><time>2026-03-22T10:10:37.98Z</time></trkpt><trkpt lat="47.41482217078178" lon="-1.7868943106846684"><ele>37.0</ele><time>2026-03-22T10:10:38.98Z</time></trkpt><trkpt lat="47.41480776807981" lon="-1.7867958654798126"><ele>37.0</ele><time>2026-03-22T10:10:39.98Z</time></trkpt><trkpt lat="47.4147962804915" lon="-1.7866960189961358"><ele>37.0</ele><time>2026-03-22T10:10:40.98Z</time></trkpt><trkpt lat="47.41478539983822" lon="-1.7866002300308943"><ele>37.0</ele><time>2026-03-22T10:10:41.98Z</time></trkpt><trkpt lat="47.414772611185896" lon="-1.7865038419805714"><ele>37.0</ele><time>2026-03-22T10:10:42.98Z</time></trkpt><trkpt lat="47.41474900807391" lon="-1.7863295297156452"><ele>37.0</ele><time>2026-03-22T10:10:44.98Z</time></trkpt><trkpt lat="47.41472170535995" lon="-1.7861572932724945"><ele>37.0</ele><time>2026-03-22T10:10:46.98Z</time></trkpt><trkpt lat="47.41469597650929" lon="-1.7859845241737085"><ele>37.0</ele><time>2026-03-22T10:10:48.98Z</time></trkpt><trkpt lat="47.41466967897329" lon="-1.7858163842290402"><ele>37.0</ele><time>2026-03-22T10:10:50.98Z</time></trkpt><trkpt lat="47.41466021192168" lon="-1.7857227023570261"><ele>37.0</ele><time>2026-03-22T10:10:51.98Z</time></trkpt><trkpt lat="47.41464801105222" lon="-1.7855514951491438"><ele>37.0</ele><time>2026-03-22T10:10:53.98Z</time></trkpt><trkpt lat="47.41463210498529" lon="-1.7854194953458"><ele>37.0</ele><time>2026-03-22T10:10:55.98Z</time></trkpt><trkpt lat="47.414643946622135" lon="-1.7853203318251913"><ele>37.0</ele><time>2026-03-22T10:10:57.98Z</time></trkpt><trkpt lat="47.41471385006911" lon="-1.785333849631126"><ele>37.0</ele><time>2026-03-22T10:10:59.98Z</time></trkpt><trkpt lat="47.414716116114825" lon="-1.7854405328030492"><ele>37.0</ele><time>2026-03-22T10:11:01.98Z</time></trkpt><trkpt lat="47.41467066873236" lon="-1.7855488201297405"><ele>37.0</ele><time>2026-03-22T10:12:13.98Z</time></trkpt><trkpt lat="47.41467837217811" lon="-1.7856440295701936"><ele>37.0</ele><time>2026-03-22T10:12:15.98Z</time></trkpt><trkpt lat="47.414677569008944" lon="-1.7857824519832144"><ele>37.0</ele><time>2026-03-22T10:12:18.98Z</time></trkpt><trkpt lat="47.41462097790783" lon="-1.7858314729215403"><ele>37.0</ele><time>2026-03-22T10:12:20.98Z</time></trkpt><trkpt lat="47.41455354430695" lon="-1.7858493065734367"><ele>37.0</ele><time>2026-03-22T10:12:22.98Z</time></trkpt><trkpt lat="47.414481062897586" lon="-1.7858572203979763"><ele>37.0</ele><time>2026-03-22T10:12:24.98Z</time></trkpt><trkpt lat="47.414392338855" lon="-1.7858780719539762"><ele>37.0</ele><time>2026-03-22T10:12:26.98Z</time></trkpt><trkpt lat="47.41429155886572" lon="-1.7859040492824672"><ele>37.0</ele><time>2026-03-22T10:12:28.98Z</time></trkpt><trkpt lat="47.41418903672703" lon="-1.7859541982030465"><ele>37.0</ele><time>2026-03-22T10:12:30.98Z</time></trkpt><trkpt lat="47.4140839079923" lon="-1.7860000155366222"><ele>37.0</ele><time>2026-03-22T10:12:32.98Z</time></trkpt><trkpt lat="47.413986497061465" lon="-1.7860684440774142"><ele>37.0</ele><time>2026-03-22T10:12:34.98Z</time></trkpt><trkpt lat="47.41389454614357" lon="-1.7861606110050932"><ele>37.0</ele><time>2026-03-22T10:12:36.98Z</time></trkpt><trkpt lat="47.41380311893296" lon="-1.7862647314388156"><ele>37.0</ele><time>2026-03-22T10:12:38.98Z</time></trkpt><trkpt lat="47.413720329529475" lon="-1.7863854986084902"><ele>37.0</ele><time>2026-03-22T10:12:40.98Z</time></trkpt><trkpt lat="47.4136338402312" lon="-1.7865111392289885"><ele>37.0</ele><time>2026-03-22T10:12:42.98Z</time></trkpt><trkpt lat="47.41354201337858" lon="-1.786630688309135"><ele>37.0</ele><time>2026-03-22T10:12:44.98Z</time></trkpt><trkpt lat="47.413449852974004" lon="-1.786736072013307"><ele>37.0</ele><time>2026-03-22T10:12:46.98Z</time></trkpt><trkpt lat="47.41336191366836" lon="-1.7868365245050948"><ele>37.0</ele><time>2026-03-22T10:12:48.98Z</time></trkpt><trkpt lat="47.41327656174797" lon="-1.7869321610963136"><ele>37.0</ele><time>2026-03-22T10:12:50.98Z</time></trkpt><trkpt lat="47.413192705517815" lon="-1.7870623897064382"><ele>37.0</ele><time>2026-03-22T10:12:52.98Z</time></trkpt><trkpt lat="47.413107062652635" lon="-1.787175102606339"><ele>37.4</ele><time>2026-03-22T10:12:54.98Z</time></trkpt><trkpt lat="47.41305983005481" lon="-1.7872378817729997"><ele>37.800000000000004</ele><time>2026-03-22T10:12:55.98Z</time></trkpt><trkpt lat="47.41295743521268" lon="-1.7873341812211943"><ele>38.2</ele><time>2026-03-22T10:12:57.98Z</time></trkpt><trkpt lat="47.41284922909442" lon="-1.7874125515162722"><ele>38.6</ele><time>2026-03-22T10:12:59.98Z</time></trkpt><trkpt lat="47.41274231653441" lon="-1.7874862813617165"><ele>39.0</ele><time>2026-03-22T10:13:01.98Z</time></trkpt><trkpt lat="47.41268215400365" lon="-1.7875216977495212"><ele>39.2</ele><time>2026-03-22T10:13:02.98Z</time></trkpt><trkpt lat="47.41258082104625" lon="-1.787599987414771"><ele>39.4</ele><time>2026-03-22T10:13:04.98Z</time></trkpt><trkpt lat="47.41251598473467" lon="-1.7876316728365602"><ele>39.6</ele><time>2026-03-22T10:13:05.98Z</time></trkpt><trkpt lat="47.41240750724872" lon="-1.7876894843184439"><ele>39.8</ele><time>2026-03-22T10:13:07.98Z</time></trkpt><trkpt lat="47.41229459582454" lon="-1.7877523807608113"><ele>40.0</ele><time>2026-03-22T10:13:09.98Z</time></trkpt><trkpt lat="47.41223298128458" lon="-1.7877788177577858"><ele>40.333333333333336</ele><time>2026-03-22T10:13:10.98Z</time></trkpt><trkpt lat="47.4121241734741" lon="-1.7878387320840907"><ele>40.66666666666667</ele><time>2026-03-22T10:13:12.98Z</time></trkpt><trkpt lat="47.412064184963796" lon="-1.787872910148703"><ele>41.0</ele><time>2026-03-22T10:13:13.98Z</time></trkpt><trkpt lat="47.41200388069126" lon="-1.7879101739676793"><ele>41.333333333333336</ele><time>2026-03-22T10:13:14.98Z</time></trkpt><trkpt lat="47.41194033391294" lon="-1.787941735909993"><ele>41.666666666666664</ele><time>2026-03-22T10:13:15.98Z</time></trkpt><trkpt lat="47.41183584790234" lon="-1.787989796223972"><ele>42.0</ele><time>2026-03-22T10:13:17.98Z</time></trkpt><trkpt lat="47.41172890466644" lon="-1.788043266876752"><ele>42.0</ele><time>2026-03-22T10:13:19.98Z</time></trkpt><trkpt lat="47.41164036578455" lon="-1.788097304584876"><ele>42.0</ele><time>2026-03-22T10:13:21.98Z</time></trkpt><trkpt lat="47.411568336636606" lon="-1.788128396359621"><ele>42.0</ele><time>2026-03-22T10:13:24.981Z</time></trkpt><trkpt lat="47.41149921176449" lon="-1.7881644734289146"><ele>42.0</ele><time>2026-03-22T10:14:00.981Z</time></trkpt><trkpt lat="47.41142045926644" lon="-1.7881427480469414"><ele>42.0</ele><time>2026-03-22T10:14:04.981Z</time></trkpt><trkpt lat="47.41135728752951" lon="-1.7880488224143212"><ele>42.0</ele><time>2026-03-22T10:14:06.981Z</time></trkpt><trkpt lat="47.41128612109673" lon="-1.7879489895346437"><ele>41.8</ele><time>2026-03-22T10:14:08.981Z</time></trkpt><trkpt lat="47.41121266079983" lon="-1.7878457551559392"><ele>41.6</ele><time>2026-03-22T10:14:10.981Z</time></trkpt><trkpt lat="47.411129776668545" lon="-1.7877411375010126"><ele>41.4</ele><time>2026-03-22T10:14:12.981Z</time></trkpt><trkpt lat="47.41104324811377" lon="-1.7876373190459747"><ele>41.199999999999996</ele><time>2026-03-22T10:14:14.981Z</time></trkpt><trkpt lat="47.410956650253866" lon="-1.7875272974901921"><ele>41.0</ele><time>2026-03-22T10:14:16.981Z</time></trkpt><trkpt lat="47.410867613785584" lon="-1.7874107524975609"><ele>40.75</ele><time>2026-03-22T10:14:18.981Z</time></trkpt><trkpt lat="47.410772656114446" lon="-1.7872938278876611"><ele>40.5</ele><time>2026-03-22T10:14:20.981Z</time></trkpt><trkpt lat="47.410681568483604" lon="-1.787177290705357"><ele>40.25</ele><time>2026-03-22T10:14:22.981Z</time></trkpt><trkpt lat="47.41059677872803" lon="-1.787047556388377"><ele>40.0</ele><time>2026-03-22T10:14:24.981Z</time></trkpt><trkpt lat="47.41049746666183" lon="-1.7869382844932065"><ele>40.4</ele><time>2026-03-22T10:14:26.981Z</time></trkpt><trkpt lat="47.41040424703852" lon="-1.7868166757828905"><ele>40.8</ele><time>2026-03-22T10:14:28.981Z</time></trkpt><trkpt lat="47.41035805705508" lon="-1.7867521376549098"><ele>41.2</ele><time>2026-03-22T10:14:29.981Z</time></trkpt><trkpt lat="47.4102657528869" lon="-1.7866332311902502"><ele>41.6</ele><time>2026-03-22T10:14:31.981Z</time></trkpt><trkpt lat="47.41021345999328" lon="-1.7865696201555294"><ele>42.0</ele><time>2026-03-22T10:14:32.981Z</time></trkpt><trkpt lat="47.41012050733026" lon="-1.7864435658708753"><ele>42.0</ele><time>2026-03-22T10:14:34.981Z</time></trkpt><trkpt lat="47.41002572989727" lon="-1.786324852167858"><ele>42.0</ele><time>2026-03-22T10:14:36.981Z</time></trkpt><trkpt lat="47.40993304929131" lon="-1.7862114372535862"><ele>42.0</ele><time>2026-03-22T10:14:38.981Z</time></trkpt><trkpt lat="47.409841902582684" lon="-1.7860809193525984"><ele>42.0</ele><time>2026-03-22T10:14:40.981Z</time></trkpt><trkpt lat="47.40975756666512" lon="-1.7859605866980284"><ele>42.400000000000006</ele><time>2026-03-22T10:14:42.981Z</time></trkpt><trkpt lat="47.40970568488363" lon="-1.785901620165226"><ele>42.800000000000004</ele><time>2026-03-22T10:14:43.981Z</time></trkpt><trkpt lat="47.40961586984713" lon="-1.7857768121151845"><ele>43.2</ele><time>2026-03-22T10:14:45.981Z</time></trkpt><trkpt lat="47.40951918014945" lon="-1.7856592660721993"><ele>43.6</ele><time>2026-03-22T10:14:47.981Z</time></trkpt><trkpt lat="47.40942868907189" lon="-1.7855449519104196"><ele>44.0</ele><time>2026-03-22T10:14:49.981Z</time></trkpt><trkpt lat="47.40933659304653" lon="-1.7854297234641108"><ele>44.0</ele><time>2026-03-22T10:14:51.981Z</time></trkpt><trkpt lat="47.409249523077726" lon="-1.7853182947096804"><ele>44.0</ele><time>2026-03-22T10:14:53.981Z</time></trkpt><trkpt lat="47.40916834582624" lon="-1.785219340131804"><ele>44.0</ele><time>2026-03-22T10:14:55.981Z</time></trkpt><trkpt lat="47.40909041755462" lon="-1.7851187788375056"><ele>44.0</ele><time>2026-03-22T10:14:57.981Z</time></trkpt><trkpt lat="47.40901487364947" lon="-1.7850295283396502"><ele>44.0</ele><time>2026-03-22T10:14:59.981Z</time></trkpt><trkpt lat="47.40894804909491" lon="-1.7849392750550537"><ele>44.166666666666664</ele><time>2026-03-22T10:15:01.981Z</time></trkpt><trkpt lat="47.408877907928094" lon="-1.7848444347889387"><ele>44.33333333333333</ele><time>2026-03-22T10:15:03.981Z</time></trkpt><trkpt lat="47.408809680638676" lon="-1.7847629412661756"><ele>44.5</ele><time>2026-03-22T10:15:05.981Z</time></trkpt><trkpt lat="47.408748680677995" lon="-1.7846765135352114"><ele>44.666666666666664</ele><time>2026-03-22T10:15:07.981Z</time></trkpt><trkpt lat="47.408680209094626" lon="-1.784594522593694"><ele>44.833333333333336</ele><time>2026-03-22T10:15:09.981Z</time></trkpt><trkpt lat="47.40861813537663" lon="-1.784514309553049"><ele>45.0</ele><time>2026-03-22T10:15:11.981Z</time></trkpt><trkpt lat="47.408558720874524" lon="-1.7844330031153022"><ele>45.833333333333336</ele><time>2026-03-22T10:15:13.981Z</time></trkpt><trkpt lat="47.40849719709024" lon="-1.784355759174965"><ele>46.66666666666667</ele><time>2026-03-22T10:15:15.981Z</time></trkpt><trkpt lat="47.40843448524986" lon="-1.7842788140392867"><ele>47.5</ele><time>2026-03-22T10:15:17.981Z</time></trkpt><trkpt lat="47.40837290806745" lon="-1.7842039852236273"><ele>48.333333333333336</ele><time>2026-03-22T10:15:19.981Z</time></trkpt><trkpt lat="47.408319447961226" lon="-1.7841223260814905"><ele>49.16666666666667</ele><time>2026-03-22T10:15:21.981Z</time></trkpt><trkpt lat="47.40825292006961" lon="-1.7840442244849095"><ele>50.0</ele><time>2026-03-22T10:15:23.981Z</time></trkpt><trkpt lat="47.40819452040629" lon="-1.7839593441012542"><ele>50.333333333333336</ele><time>2026-03-22T10:15:25.981Z</time></trkpt><trkpt lat="47.40813490259326" lon="-1.783881053145125"><ele>50.66666666666667</ele><time>2026-03-22T10:15:27.981Z</time></trkpt><trkpt lat="47.40806888995814" lon="-1.7837948607201823"><ele>51.0</ele><time>2026-03-22T10:15:29.981Z</time></trkpt><trkpt lat="47.408002718117906" lon="-1.7837166658179207"><ele>51.33333333333333</ele><time>2026-03-22T10:15:31.981Z</time></trkpt><trkpt lat="47.40793735955606" lon="-1.7836358367657141"><ele>51.666666666666664</ele><time>2026-03-22T10:15:33.981Z</time></trkpt><trkpt lat="47.40787530067425" lon="-1.7835544650984791"><ele>52.0</ele><time>2026-03-22T10:15:35.981Z</time></trkpt><trkpt lat="47.4078132071227" lon="-1.783473392479947"><ele>52.166666666666664</ele><time>2026-03-22T10:15:37.981Z</time></trkpt><trkpt lat="47.40775293622508" lon="-1.7833942807350238"><ele>52.33333333333333</ele><time>2026-03-22T10:15:39.981Z</time></trkpt><trkpt lat="47.40769163753947" lon="-1.7833148875701013"><ele>52.5</ele><time>2026-03-22T10:15:41.981Z</time></trkpt><trkpt lat="47.40762950584927" lon="-1.7832358098986336"><ele>52.66666666666667</ele><time>2026-03-22T10:15:43.981Z</time></trkpt><trkpt lat="47.40756982641593" lon="-1.7831536689244354"><ele>52.833333333333336</ele><time>2026-03-22T10:15:45.981Z</time></trkpt><trkpt lat="47.40750645824984" lon="-1.7830736654444992"><ele>53.0</ele><time>2026-03-22T10:15:47.981Z</time></trkpt><trkpt lat="47.40744371108196" lon="-1.7829994393926598"><ele>53.00000000000001</ele><time>2026-03-22T10:15:49.981Z</time></trkpt><trkpt lat="47.40738101642215" lon="-1.7829141634937544"><ele>53.0</ele><time>2026-03-22T10:15:51.981Z</time></trkpt><trkpt lat="47.40731473131726" lon="-1.782832408638526"><ele>53.0</ele><time>2026-03-22T10:15:53.981Z</time></trkpt><trkpt lat="47.40724822274255" lon="-1.7827472805410025"><ele>53.0</ele><time>2026-03-22T10:15:55.981Z</time></trkpt><trkpt lat="47.40717763305649" lon="-1.7826626359591629"><ele>53.00000000000001</ele><time>2026-03-22T10:15:57.981Z</time></trkpt><trkpt lat="47.4071078326529" lon="-1.7825715696083921"><ele>53.0</ele><time>2026-03-22T10:15:59.981Z</time></trkpt><trkpt lat="47.407042687110895" lon="-1.7824799439490737"><ele>53.8</ele><time>2026-03-22T10:16:01.981Z</time></trkpt><trkpt lat="47.4069662419139" lon="-1.7823914068626865"><ele>54.599999999999994</ele><time>2026-03-22T10:16:03.981Z</time></trkpt><trkpt lat="47.40689024662474" lon="-1.7822915468938634"><ele>55.400000000000006</ele><time>2026-03-22T10:16:05.981Z</time></trkpt><trkpt lat="47.40681093576286" lon="-1.7821935509218716"><ele>56.2</ele><time>2026-03-22T10:16:07.981Z</time></trkpt><trkpt lat="47.406732230864414" lon="-1.7820947534668956"><ele>57.0</ele><time>2026-03-22T10:16:09.981Z</time></trkpt><trkpt lat="47.406651378838255" lon="-1.781982522276567"><ele>57.0</ele><time>2026-03-22T10:16:11.981Z</time></trkpt><trkpt lat="47.40657189789548" lon="-1.7818759493492629"><ele>57.0</ele><time>2026-03-22T10:16:13.981Z</time></trkpt><trkpt lat="47.40648271647368" lon="-1.7817697546075697"><ele>57.0</ele><time>2026-03-22T10:16:15.981Z</time></trkpt><trkpt lat="47.406400165538045" lon="-1.781661175617065"><ele>57.0</ele><time>2026-03-22T10:16:17.981Z</time></trkpt><trkpt lat="47.40630702147846" lon="-1.7815540939309358"><ele>56.8</ele><time>2026-03-22T10:16:19.981Z</time></trkpt><trkpt lat="47.40622402348538" lon="-1.7814397148187238"><ele>56.6</ele><time>2026-03-22T10:16:21.981Z</time></trkpt><trkpt lat="47.40613119986303" lon="-1.7813261049479212"><ele>56.39999999999999</ele><time>2026-03-22T10:16:23.981Z</time></trkpt><trkpt lat="47.40603559940619" lon="-1.7812044697890883"><ele>56.199999999999996</ele><time>2026-03-22T10:16:25.981Z</time></trkpt><trkpt lat="47.4059861494264" lon="-1.7811429330533595"><ele>56.0</ele><time>2026-03-22T10:16:26.981Z</time></trkpt><trkpt lat="47.405938278000875" lon="-1.781079408755155"><ele>56.0</ele><time>2026-03-22T10:16:27.981Z</time></trkpt><trkpt lat="47.40588997139291" lon="-1.7810165664762707"><ele>56.0</ele><time>2026-03-22T10:16:28.981Z</time></trkpt><trkpt lat="47.40584688384887" lon="-1.780944535399337"><ele>56.0</ele><time>2026-03-22T10:16:29.981Z</time></trkpt><trkpt lat="47.40579197488482" lon="-1.78087879580076"><ele>56.0</ele><time>2026-03-22T10:16:30.981Z</time></trkpt><trkpt lat="47.40573792518293" lon="-1.780812091193308"><ele>56.0</ele><time>2026-03-22T10:16:31.981Z</time></trkpt><trkpt lat="47.405682163834484" lon="-1.7807414077857393"><ele>56.0</ele><time>2026-03-22T10:16:32.981Z</time></trkpt><trkpt lat="47.40562910296954" lon="-1.780669699819123"><ele>56.0</ele><time>2026-03-22T10:16:33.981Z</time></trkpt><trkpt lat="47.40557100701682" lon="-1.7806020977700467"><ele>56.00000000000001</ele><time>2026-03-22T10:16:34.981Z</time></trkpt><trkpt lat="47.40551337908238" lon="-1.7805323628497818"><ele>56.0</ele><time>2026-03-22T10:16:35.981Z</time></trkpt><trkpt lat="47.405453380540706" lon="-1.7804627673099476"><ele>56.0</ele><time>2026-03-22T10:16:36.981Z</time></trkpt><trkpt lat="47.405393491741705" lon="-1.7803937539806423"><ele>56.0</ele><time>2026-03-22T10:16:37.981Z</time></trkpt><trkpt lat="47.40533146266779" lon="-1.780323455778372"><ele>56.00000000000001</ele><time>2026-03-22T10:16:38.981Z</time></trkpt><trkpt lat="47.40526950649256" lon="-1.7802531371216432"><ele>56.0</ele><time>2026-03-22T10:16:39.981Z</time></trkpt><trkpt lat="47.40520427555515" lon="-1.7801839049798647"><ele>55.66666666666667</ele><time>2026-03-22T10:16:40.981Z</time></trkpt><trkpt lat="47.4051374263103" lon="-1.7801174110776699"><ele>55.333333333333336</ele><time>2026-03-22T10:16:41.981Z</time></trkpt><trkpt lat="47.40507310271278" lon="-1.7800545949766953"><ele>55.0</ele><time>2026-03-22T10:16:42.981Z</time></trkpt><trkpt lat="47.40500238380201" lon="-1.77998753007266"><ele>54.66666666666667</ele><time>2026-03-22T10:16:43.981Z</time></trkpt><trkpt lat="47.40493314747807" lon="-1.7799201609238453"><ele>54.333333333333336</ele><time>2026-03-22T10:16:44.981Z</time></trkpt><trkpt lat="47.404858382473385" lon="-1.7798627649845875"><ele>54.0</ele><time>2026-03-22T10:16:45.981Z</time></trkpt><trkpt lat="47.40478609371524" lon="-1.7798035775254506"><ele>54.0</ele><time>2026-03-22T10:16:46.981Z</time></trkpt><trkpt lat="47.40471245173382" lon="-1.7797456802829084"><ele>54.0</ele><time>2026-03-22T10:16:47.981Z</time></trkpt><trkpt lat="47.40463083881706" lon="-1.7796855978170507"><ele>54.0</ele><time>2026-03-22T10:16:48.981Z</time></trkpt><trkpt lat="47.404551811531945" lon="-1.7796301918403339"><ele>54.0</ele><time>2026-03-22T10:16:49.981Z</time></trkpt><trkpt lat="47.40447173740352" lon="-1.7795753152941745"><ele>54.0</ele><time>2026-03-22T10:16:50.981Z</time></trkpt><trkpt lat="47.40439038500878" lon="-1.779526778359967"><ele>54.0</ele><time>2026-03-22T10:16:51.981Z</time></trkpt><trkpt lat="47.40430332343576" lon="-1.7794768663403313"><ele>54.0</ele><time>2026-03-22T10:16:52.981Z</time></trkpt><trkpt lat="47.404217104497" lon="-1.7794275522567404"><ele>54.00000000000001</ele><time>2026-03-22T10:16:53.981Z</time></trkpt><trkpt lat="47.40412860787371" lon="-1.7793806488924866"><ele>54.00000000000001</ele><time>2026-03-22T10:16:54.981Z</time></trkpt><trkpt lat="47.40404003779849" lon="-1.7793367393815418"><ele>54.0</ele><time>2026-03-22T10:16:55.981Z</time></trkpt><trkpt lat="47.40395187334559" lon="-1.7792887734029623"><ele>54.0</ele><time>2026-03-22T10:16:56.981Z</time></trkpt><trkpt lat="47.403861920867485" lon="-1.7792443678962264"><ele>53.6</ele><time>2026-03-22T10:16:57.981Z</time></trkpt><trkpt lat="47.403771507194996" lon="-1.7791985096015963"><ele>53.2</ele><time>2026-03-22T10:16:58.981Z</time></trkpt><trkpt lat="47.40367972194721" lon="-1.7791552382181577"><ele>52.800000000000004</ele><time>2026-03-22T10:16:59.981Z</time></trkpt><trkpt lat="47.40358983326772" lon="-1.7791081079835198"><ele>52.400000000000006</ele><time>2026-03-22T10:17:00.981Z</time></trkpt><trkpt lat="47.40349646710702" lon="-1.7790651532124657"><ele>52.0</ele><time>2026-03-22T10:17:01.981Z</time></trkpt><trkpt lat="47.40340516995341" lon="-1.7790154947300951"><ele>52.0</ele><time>2026-03-22T10:17:02.981Z</time></trkpt><trkpt lat="47.403317299861186" lon="-1.778971761242026"><ele>52.0</ele><time>2026-03-22T10:17:03.981Z</time></trkpt><trkpt lat="47.40322542028429" lon="-1.7789278020218016"><ele>52.0</ele><time>2026-03-22T10:17:04.981Z</time></trkpt><trkpt lat="47.40313130485722" lon="-1.7788875526425005"><ele>52.0</ele><time>2026-03-22T10:17:05.981Z</time></trkpt><trkpt lat="47.403040328598664" lon="-1.7788330711251827"><ele>52.0</ele><time>2026-03-22T10:17:06.981Z</time></trkpt><trkpt lat="47.402946581974746" lon="-1.778785196692446"><ele>51.400000000000006</ele><time>2026-03-22T10:17:07.981Z</time></trkpt><trkpt lat="47.402854688736966" lon="-1.7787429185764874"><ele>50.800000000000004</ele><time>2026-03-22T10:17:08.981Z</time></trkpt><trkpt lat="47.40276099264231" lon="-1.7786957537502277"><ele>50.2</ele><time>2026-03-22T10:17:09.981Z</time></trkpt><trkpt lat="47.402667807901125" lon="-1.7786474302126645"><ele>49.6</ele><time>2026-03-22T10:17:10.981Z</time></trkpt><trkpt lat="47.40257550944406" lon="-1.7785978669576628"><ele>49.0</ele><time>2026-03-22T10:17:11.981Z</time></trkpt><trkpt lat="47.402479194402666" lon="-1.7785493202936429"><ele>48.800000000000004</ele><time>2026-03-22T10:17:12.981Z</time></trkpt><trkpt lat="47.402383395787396" lon="-1.7785000442952712"><ele>48.6</ele><time>2026-03-22T10:17:13.981Z</time></trkpt><trkpt lat="47.40228253738145" lon="-1.7784528446439933"><ele>48.4</ele><time>2026-03-22T10:17:14.981Z</time></trkpt><trkpt lat="47.40218192773294" lon="-1.778402961986546"><ele>48.2</ele><time>2026-03-22T10:17:15.981Z</time></trkpt><trkpt lat="47.40208159296416" lon="-1.7783506932320277"><ele>48.0</ele><time>2026-03-22T10:17:16.981Z</time></trkpt><trkpt lat="47.401978918327046" lon="-1.7782979184426513"><ele>47.0</ele><time>2026-03-22T10:17:17.981Z</time></trkpt><trkpt lat="47.401873533055586" lon="-1.7782497430574091"><ele>46.0</ele><time>2026-03-22T10:17:18.981Z</time></trkpt><trkpt lat="47.40176273738453" lon="-1.778200604248831"><ele>45.0</ele><time>2026-03-22T10:17:19.981Z</time></trkpt><trkpt lat="47.40166090321883" lon="-1.77813643175063"><ele>44.0</ele><time>2026-03-22T10:17:20.981Z</time></trkpt><trkpt lat="47.40155005231622" lon="-1.778083924971053"><ele>44.0</ele><time>2026-03-22T10:17:21.981Z</time></trkpt><trkpt lat="47.401439592327215" lon="-1.7780279177670142"><ele>44.0</ele><time>2026-03-22T10:17:22.981Z</time></trkpt><trkpt lat="47.40132438315036" lon="-1.7779704709177195"><ele>44.0</ele><time>2026-03-22T10:17:23.981Z</time></trkpt><trkpt lat="47.40121177444112" lon="-1.7779134350927546"><ele>44.0</ele><time>2026-03-22T10:17:24.981Z</time></trkpt><trkpt lat="47.40109889757602" lon="-1.7778553692403136"><ele>43.0</ele><time>2026-03-22T10:17:25.981Z</time></trkpt><trkpt lat="47.4009804627496" lon="-1.7777976098204695"><ele>42.0</ele><time>2026-03-22T10:17:26.981Z</time></trkpt><trkpt lat="47.400865706974244" lon="-1.7777396417985896"><ele>41.0</ele><time>2026-03-22T10:17:27.981Z</time></trkpt><trkpt lat="47.40075170399211" lon="-1.7776846420914514"><ele>40.0</ele><time>2026-03-22T10:17:28.981Z</time></trkpt><trkpt lat="47.400641958975406" lon="-1.777627579773714"><ele>39.8</ele><time>2026-03-22T10:17:29.981Z</time></trkpt><trkpt lat="47.40053656167998" lon="-1.7775770354958542"><ele>39.6</ele><time>2026-03-22T10:17:30.981Z</time></trkpt><trkpt lat="47.40043535714732" lon="-1.7775293913190309"><ele>39.4</ele><time>2026-03-22T10:17:31.981Z</time></trkpt><trkpt lat="47.400338666077914" lon="-1.7774801430508906"><ele>39.2</ele><time>2026-03-22T10:17:32.981Z</time></trkpt><trkpt lat="47.40024878924942" lon="-1.777432160503676"><ele>39.0</ele><time>2026-03-22T10:17:33.981Z</time></trkpt><trkpt lat="47.40016431629761" lon="-1.7773858740013537"><ele>39.5</ele><time>2026-03-22T10:17:34.981Z</time></trkpt><trkpt lat="47.400083030019786" lon="-1.7773430296538828"><ele>40.0</ele><time>2026-03-22T10:17:35.982Z</time></trkpt><trkpt lat="47.40000027448618" lon="-1.7773049959829872"><ele>40.5</ele><time>2026-03-22T10:17:36.982Z</time></trkpt><trkpt lat="47.39992743639632" lon="-1.7772640551335566"><ele>41.0</ele><time>2026-03-22T10:17:37.981Z</time></trkpt><trkpt lat="47.399857039258535" lon="-1.7772203632371009"><ele>41.5</ele><time>2026-03-22T10:17:38.981Z</time></trkpt><trkpt lat="47.39978639087905" lon="-1.7771864478270325"><ele>42.0</ele><time>2026-03-22T10:17:39.981Z</time></trkpt><trkpt lat="47.399716799861444" lon="-1.7771573822492033"><ele>42.833333333333336</ele><time>2026-03-22T10:17:40.981Z</time></trkpt><trkpt lat="47.39965245223771" lon="-1.7771273967352308"><ele>43.666666666666664</ele><time>2026-03-22T10:17:41.981Z</time></trkpt><trkpt lat="47.399589057850264" lon="-1.7770950351136137"><ele>44.5</ele><time>2026-03-22T10:17:42.981Z</time></trkpt><trkpt lat="47.39952669808078" lon="-1.777063629027176"><ele>45.33333333333333</ele><time>2026-03-22T10:17:43.982Z</time></trkpt><trkpt lat="47.3994671332744" lon="-1.7770328949667489"><ele>46.166666666666664</ele><time>2026-03-22T10:17:44.981Z</time></trkpt><trkpt lat="47.399407079303444" lon="-1.7770029010586568"><ele>47.0</ele><time>2026-03-22T10:17:45.981Z</time></trkpt><trkpt lat="47.399289760556" lon="-1.776934587838945"><ele>47.0</ele><time>2026-03-22T10:17:47.981Z</time></trkpt><trkpt lat="47.39917303474925" lon="-1.7768787941454742"><ele>47.0</ele><time>2026-03-22T10:17:49.981Z</time></trkpt><trkpt lat="47.39905960053393" lon="-1.7768088509029625"><ele>47.0</ele><time>2026-03-22T10:17:51.981Z</time></trkpt><trkpt lat="47.398947462209996" lon="-1.776740413154276"><ele>47.0</ele><time>2026-03-22T10:17:53.981Z</time></trkpt><trkpt lat="47.39884076918864" lon="-1.7766602778911684"><ele>47.400000000000006</ele><time>2026-03-22T10:17:55.981Z</time></trkpt><trkpt lat="47.39873357503694" lon="-1.776570816480276"><ele>47.800000000000004</ele><time>2026-03-22T10:17:57.981Z</time></trkpt><trkpt lat="47.3986271094622" lon="-1.7764772226638725"><ele>48.2</ele><time>2026-03-22T10:17:59.981Z</time></trkpt><trkpt lat="47.398527736012305" lon="-1.776366415942353"><ele>48.6</ele><time>2026-03-22T10:18:01.981Z</time></trkpt><trkpt lat="47.39847602991213" lon="-1.77630972712234"><ele>49.0</ele><time>2026-03-22T10:18:02.981Z</time></trkpt><trkpt lat="47.39842404549727" lon="-1.7762494084891893"><ele>49.0</ele><time>2026-03-22T10:18:03.981Z</time></trkpt><trkpt lat="47.39837453758805" lon="-1.7761892198743903"><ele>49.0</ele><time>2026-03-22T10:18:04.981Z</time></trkpt><trkpt lat="47.398321917854204" lon="-1.7761288423113617"><ele>49.0</ele><time>2026-03-22T10:18:05.981Z</time></trkpt><trkpt lat="47.398267800142776" lon="-1.776070675986807"><ele>49.0</ele><time>2026-03-22T10:18:06.981Z</time></trkpt><trkpt lat="47.398215446080265" lon="-1.7760104895572377"><ele>49.0</ele><time>2026-03-22T10:18:07.981Z</time></trkpt><trkpt lat="47.398161287554466" lon="-1.7759550452587465"><ele>49.0</ele><time>2026-03-22T10:18:08.981Z</time></trkpt><trkpt lat="47.39810805632311" lon="-1.7758916470084383"><ele>49.0</ele><time>2026-03-22T10:18:09.981Z</time></trkpt><trkpt lat="47.39805521259394" lon="-1.7758319591094371"><ele>49.0</ele><time>2026-03-22T10:18:10.981Z</time></trkpt><trkpt lat="47.398001069540825" lon="-1.7757709619861328"><ele>49.0</ele><time>2026-03-22T10:18:11.981Z</time></trkpt><trkpt lat="47.39794671653683" lon="-1.7757117083052791"><ele>49.0</ele><time>2026-03-22T10:18:12.981Z</time></trkpt><trkpt lat="47.3978974155575" lon="-1.775650936987721"><ele>49.0</ele><time>2026-03-22T10:18:13.981Z</time></trkpt><trkpt lat="47.397840769808965" lon="-1.7755923184567164"><ele>49.0</ele><time>2026-03-22T10:18:14.981Z</time></trkpt><trkpt lat="47.39778705730663" lon="-1.7755320229952571"><ele>49.0</ele><time>2026-03-22T10:18:15.981Z</time></trkpt><trkpt lat="47.39773691142927" lon="-1.7754754010935052"><ele>49.0</ele><time>2026-03-22T10:18:16.981Z</time></trkpt><trkpt lat="47.397680559207764" lon="-1.7754154570500154"><ele>49.0</ele><time>2026-03-22T10:18:17.981Z</time></trkpt><trkpt lat="47.397626818185344" lon="-1.7753549185984179"><ele>49.0</ele><time>2026-03-22T10:18:18.981Z</time></trkpt><trkpt lat="47.397573147370736" lon="-1.7752966848818834"><ele>49.0</ele><time>2026-03-22T10:18:19.981Z</time></trkpt><trkpt lat="47.39752228433801" lon="-1.775232621685214"><ele>49.0</ele><time>2026-03-22T10:18:20.981Z</time></trkpt><trkpt lat="47.397470750789886" lon="-1.7751704900011251"><ele>49.0</ele><time>2026-03-22T10:18:21.981Z</time></trkpt><trkpt lat="47.397409935873746" lon="-1.7751079332457824"><ele>49.0</ele><time>2026-03-22T10:18:22.981Z</time></trkpt><trkpt lat="47.39735413827825" lon="-1.7750447527854771"><ele>49.0</ele><time>2026-03-22T10:18:23.981Z</time></trkpt><trkpt lat="47.397299318929115" lon="-1.7749956366642876"><ele>49.0</ele><time>2026-03-22T10:18:24.981Z</time></trkpt><trkpt lat="47.39724813021373" lon="-1.7749299224190722"><ele>49.0</ele><time>2026-03-22T10:18:25.981Z</time></trkpt><trkpt lat="47.39719857348228" lon="-1.7748618983149667"><ele>49.0</ele><time>2026-03-22T10:18:26.981Z</time></trkpt><trkpt lat="47.397144329141035" lon="-1.7748060659604679"><ele>49.0</ele><time>2026-03-22T10:18:27.981Z</time></trkpt><trkpt lat="47.39709088513164" lon="-1.7747478091205988"><ele>49.0</ele><time>2026-03-22T10:18:28.981Z</time></trkpt><trkpt lat="47.397041578729734" lon="-1.7746864947578287"><ele>49.0</ele><time>2026-03-22T10:18:29.981Z</time></trkpt><trkpt lat="47.396991532971306" lon="-1.7746290347545997"><ele>49.0</ele><time>2026-03-22T10:18:30.981Z</time></trkpt><trkpt lat="47.39693778185992" lon="-1.774564534684526"><ele>49.0</ele><time>2026-03-22T10:18:31.981Z</time></trkpt><trkpt lat="47.39689088519333" lon="-1.7745023988570197"><ele>49.0</ele><time>2026-03-22T10:18:32.981Z</time></trkpt><trkpt lat="47.396846961355116" lon="-1.7744343753045124"><ele>49.0</ele><time>2026-03-22T10:18:33.981Z</time></trkpt><trkpt lat="47.396797571653835" lon="-1.7743648375903411"><ele>49.0</ele><time>2026-03-22T10:18:34.981Z</time></trkpt><trkpt lat="47.39675062113401" lon="-1.7742956337335491"><ele>49.0</ele><time>2026-03-22T10:18:35.981Z</time></trkpt><trkpt lat="47.39670291279723" lon="-1.7742279594675703"><ele>49.0</ele><time>2026-03-22T10:18:36.981Z</time></trkpt><trkpt lat="47.39665517863681" lon="-1.7741564413040594"><ele>49.0</ele><time>2026-03-22T10:18:37.981Z</time></trkpt><trkpt lat="47.396610720603775" lon="-1.7740875538742655"><ele>49.142857142857146</ele><time>2026-03-22T10:18:38.981Z</time></trkpt><trkpt lat="47.39656409673195" lon="-1.7740136333121275"><ele>49.285714285714285</ele><time>2026-03-22T10:18:39.981Z</time></trkpt><trkpt lat="47.39651748105022" lon="-1.7739413281952459"><ele>49.42857142857143</ele><time>2026-03-22T10:18:40.981Z</time></trkpt><trkpt lat="47.396473120506386" lon="-1.7738669734121382"><ele>49.57142857142857</ele><time>2026-03-22T10:18:41.981Z</time></trkpt><trkpt lat="47.3964264528739" lon="-1.7737953874087806"><ele>49.714285714285715</ele><time>2026-03-22T10:18:42.981Z</time></trkpt><trkpt lat="47.39637675332732" lon="-1.7737135176956405"><ele>49.85714285714286</ele><time>2026-03-22T10:18:43.981Z</time></trkpt><trkpt lat="47.39633275617816" lon="-1.7736449767729932"><ele>50.0</ele><time>2026-03-22T10:18:44.981Z</time></trkpt><trkpt lat="47.39628973334432" lon="-1.7735728799615815"><ele>50.50000000000001</ele><time>2026-03-22T10:18:45.981Z</time></trkpt><trkpt lat="47.39624463420493" lon="-1.7734967752912103"><ele>51.0</ele><time>2026-03-22T10:18:46.981Z</time></trkpt><trkpt lat="47.396196647766146" lon="-1.7734235284860183"><ele>51.5</ele><time>2026-03-22T10:18:47.981Z</time></trkpt><trkpt lat="47.39614532781287" lon="-1.7733522136022393"><ele>52.0</ele><time>2026-03-22T10:18:48.981Z</time></trkpt><trkpt lat="47.396104060783976" lon="-1.7732730315587892"><ele>52.50000000000001</ele><time>2026-03-22T10:18:49.981Z</time></trkpt><trkpt lat="47.396059682116835" lon="-1.7731925401822164"><ele>53.0</ele><time>2026-03-22T10:18:50.981Z</time></trkpt><trkpt lat="47.395964991074386" lon="-1.7730576208541995"><ele>53.0</ele><time>2026-03-22T10:18:52.981Z</time></trkpt><trkpt lat="47.395922122958254" lon="-1.7729812186290483"><ele>53.0</ele><time>2026-03-22T10:18:53.981Z</time></trkpt><trkpt lat="47.39587086189222" lon="-1.772907976306332"><ele>53.0</ele><time>2026-03-22T10:18:54.981Z</time></trkpt><trkpt lat="47.39582839812855" lon="-1.772824813172627"><ele>53.0</ele><time>2026-03-22T10:18:55.981Z</time></trkpt><trkpt lat="47.395779924738754" lon="-1.772761441747303"><ele>53.0</ele><time>2026-03-22T10:18:56.981Z</time></trkpt><trkpt lat="47.39572261223333" lon="-1.7726975294072287"><ele>53.0</ele><time>2026-03-22T10:18:57.981Z</time></trkpt><trkpt lat="47.39566721642829" lon="-1.7726395421963104"><ele>53.0</ele><time>2026-03-22T10:18:58.981Z</time></trkpt><trkpt lat="47.39560611150991" lon="-1.7725815919136365"><ele>53.0</ele><time>2026-03-22T10:18:59.981Z</time></trkpt><trkpt lat="47.39554426323375" lon="-1.7725279511744403"><ele>53.0</ele><time>2026-03-22T10:19:00.981Z</time></trkpt><trkpt lat="47.39548382290577" lon="-1.7724847615718191"><ele>53.0</ele><time>2026-03-22T10:19:01.981Z</time></trkpt><trkpt lat="47.39541983278766" lon="-1.7724400028727247"><ele>53.0</ele><time>2026-03-22T10:19:02.981Z</time></trkpt><trkpt lat="47.3953564802707" lon="-1.7723979386162305"><ele>53.0</ele><time>2026-03-22T10:19:03.981Z</time></trkpt><trkpt lat="47.395290796260994" lon="-1.7723612025200914"><ele>53.0</ele><time>2026-03-22T10:19:04.981Z</time></trkpt><trkpt lat="47.39522709731278" lon="-1.7723203442824773"><ele>53.0</ele><time>2026-03-22T10:19:05.981Z</time></trkpt><trkpt lat="47.395161040106395" lon="-1.7722801834884583"><ele>53.0</ele><time>2026-03-22T10:19:06.981Z</time></trkpt><trkpt lat="47.39509916119549" lon="-1.7722430997958252"><ele>53.0</ele><time>2026-03-22T10:19:07.981Z</time></trkpt><trkpt lat="47.395035140200974" lon="-1.7722020561937217"><ele>53.0</ele><time>2026-03-22T10:19:08.981Z</time></trkpt><trkpt lat="47.39497008490124" lon="-1.772163772385367"><ele>53.0</ele><time>2026-03-22T10:19:09.981Z</time></trkpt><trkpt lat="47.39490744164721" lon="-1.7721189843605536"><ele>53.0</ele><time>2026-03-22T10:19:10.981Z</time></trkpt><trkpt lat="47.39484737186414" lon="-1.7720707069981931"><ele>53.0</ele><time>2026-03-22T10:19:11.981Z</time></trkpt><trkpt lat="47.39478735938896" lon="-1.7720266362198527"><ele>53.0</ele><time>2026-03-22T10:19:12.981Z</time></trkpt><trkpt lat="47.39468374166901" lon="-1.7719232330847023"><ele>53.142857142857146</ele><time>2026-03-22T10:19:14.981Z</time></trkpt><trkpt lat="47.39462218396968" lon="-1.7718663906259837"><ele>53.285714285714285</ele><time>2026-03-22T10:19:15.981Z</time></trkpt><trkpt lat="47.39456577379726" lon="-1.771818474840196"><ele>53.42857142857143</ele><time>2026-03-22T10:19:16.981Z</time></trkpt><trkpt lat="47.394512199165725" lon="-1.7717596840021548"><ele>53.57142857142857</ele><time>2026-03-22T10:19:17.981Z</time></trkpt><trkpt lat="47.394450812797714" lon="-1.7716985621780854"><ele>53.71428571428571</ele><time>2026-03-22T10:19:18.981Z</time></trkpt><trkpt lat="47.394391934428015" lon="-1.771644569776783"><ele>53.857142857142854</ele><time>2026-03-22T10:19:19.981Z</time></trkpt><trkpt lat="47.39433748450586" lon="-1.771583868332609"><ele>54.0</ele><time>2026-03-22T10:19:20.981Z</time></trkpt><trkpt lat="47.39427735228984" lon="-1.771528968016692"><ele>54.0</ele><time>2026-03-22T10:19:21.981Z</time></trkpt><trkpt lat="47.39422313801271" lon="-1.7714687233180657"><ele>54.0</ele><time>2026-03-22T10:19:22.981Z</time></trkpt><trkpt lat="47.394161205257525" lon="-1.7714163239092242"><ele>54.0</ele><time>2026-03-22T10:19:23.981Z</time></trkpt><trkpt lat="47.39410005769537" lon="-1.7713666982589003"><ele>54.0</ele><time>2026-03-22T10:19:24.981Z</time></trkpt><trkpt lat="47.39404426429464" lon="-1.7713017974513248"><ele>54.0</ele><time>2026-03-22T10:19:25.981Z</time></trkpt><trkpt lat="47.393984474135024" lon="-1.7712414213342509"><ele>54.0</ele><time>2026-03-22T10:19:26.981Z</time></trkpt><trkpt lat="47.39393257232366" lon="-1.7711810779024004"><ele>54.0</ele><time>2026-03-22T10:19:27.981Z</time></trkpt><trkpt lat="47.393870568278885" lon="-1.771124284527267"><ele>54.14285714285714</ele><time>2026-03-22T10:19:28.981Z</time></trkpt><trkpt lat="47.39380948323088" lon="-1.7710591922576326"><ele>54.285714285714285</ele><time>2026-03-22T10:19:29.981Z</time></trkpt><trkpt lat="47.393757221023826" lon="-1.7710023740985459"><ele>54.42857142857143</ele><time>2026-03-22T10:19:30.981Z</time></trkpt><trkpt lat="47.393694825606765" lon="-1.7709389981866432"><ele>54.57142857142857</ele><time>2026-03-22T10:19:31.981Z</time></trkpt><trkpt lat="47.393634034507706" lon="-1.7708796116704197"><ele>54.714285714285715</ele><time>2026-03-22T10:19:32.981Z</time></trkpt><trkpt lat="47.393575346906154" lon="-1.7708196631819912"><ele>54.857142857142854</ele><time>2026-03-22T10:19:33.981Z</time></trkpt><trkpt lat="47.39351892754997" lon="-1.7707575652369265"><ele>55.0</ele><time>2026-03-22T10:19:34.981Z</time></trkpt><trkpt lat="47.39345621620659" lon="-1.770700601695824"><ele>54.71428571428571</ele><time>2026-03-22T10:19:35.981Z</time></trkpt><trkpt lat="47.39339562649105" lon="-1.770640961978464"><ele>54.42857142857143</ele><time>2026-03-22T10:19:36.981Z</time></trkpt><trkpt lat="47.3933367315423" lon="-1.7705875173306191"><ele>54.14285714285714</ele><time>2026-03-22T10:19:37.981Z</time></trkpt><trkpt lat="47.39327932574277" lon="-1.7705217556649533"><ele>53.857142857142854</ele><time>2026-03-22T10:19:38.981Z</time></trkpt><trkpt lat="47.39322363085622" lon="-1.7704601370973954"><ele>53.57142857142857</ele><time>2026-03-22T10:19:39.981Z</time></trkpt><trkpt lat="47.39316402406772" lon="-1.7703986902504387"><ele>53.285714285714285</ele><time>2026-03-22T10:19:40.981Z</time></trkpt><trkpt lat="47.393106898217226" lon="-1.770343465298503"><ele>53.0</ele><time>2026-03-22T10:19:41.981Z</time></trkpt><trkpt lat="47.39304661481734" lon="-1.770286818592356"><ele>53.142857142857146</ele><time>2026-03-22T10:19:42.981Z</time></trkpt><trkpt lat="47.39298784719434" lon="-1.7702299103688006"><ele>53.285714285714285</ele><time>2026-03-22T10:19:43.982Z</time></trkpt><trkpt lat="47.39292895425273" lon="-1.7701746815271127"><ele>53.42857142857143</ele><time>2026-03-22T10:19:44.981Z</time></trkpt><trkpt lat="47.39287148142357" lon="-1.7701152599265817"><ele>53.57142857142857</ele><time>2026-03-22T10:19:45.981Z</time></trkpt><trkpt lat="47.39281410599282" lon="-1.7700627539119527"><ele>53.71428571428571</ele><time>2026-03-22T10:19:46.981Z</time></trkpt><trkpt lat="47.39276058914578" lon="-1.770001646159967"><ele>53.857142857142854</ele><time>2026-03-22T10:19:47.981Z</time></trkpt><trkpt lat="47.392701916028535" lon="-1.7699504908115329"><ele>54.0</ele><time>2026-03-22T10:19:48.981Z</time></trkpt><trkpt lat="47.3926475952176" lon="-1.7698934571316858"><ele>54.0</ele><time>2026-03-22T10:19:49.982Z</time></trkpt><trkpt lat="47.39259218052323" lon="-1.7698382413219498"><ele>54.0</ele><time>2026-03-22T10:19:50.981Z</time></trkpt><trkpt lat="47.392538288560324" lon="-1.7697754403263937"><ele>54.0</ele><time>2026-03-22T10:19:51.981Z</time></trkpt><trkpt lat="47.39247940205362" lon="-1.769712102344869"><ele>54.0</ele><time>2026-03-22T10:19:52.982Z</time></trkpt><trkpt lat="47.39241786558057" lon="-1.7696497062587346"><ele>54.0</ele><time>2026-03-22T10:19:53.982Z</time></trkpt><trkpt lat="47.39235583890082" lon="-1.769573526909708"><ele>54.0</ele><time>2026-03-22T10:19:54.982Z</time></trkpt><trkpt lat="47.3922883263956" lon="-1.769507925318537"><ele>54.0</ele><time>2026-03-22T10:19:55.982Z</time></trkpt><trkpt lat="47.3922167970978" lon="-1.7694486082007144"><ele>54.5</ele><time>2026-03-22T10:19:56.982Z</time></trkpt><trkpt lat="47.39214851991765" lon="-1.7693939343733054"><ele>55.0</ele><time>2026-03-22T10:19:57.982Z</time></trkpt><trkpt lat="47.39208763072291" lon="-1.7693337175182302"><ele>55.5</ele><time>2026-03-22T10:19:58.982Z</time></trkpt><trkpt lat="47.39202207174825" lon="-1.7692657382196393"><ele>56.0</ele><time>2026-03-22T10:19:59.982Z</time></trkpt><trkpt lat="47.39195268370518" lon="-1.7692031772650485"><ele>56.5</ele><time>2026-03-22T10:20:00.982Z</time></trkpt><trkpt lat="47.39189304008941" lon="-1.7691379328026786"><ele>57.0</ele><time>2026-03-22T10:20:01.982Z</time></trkpt><trkpt lat="47.391831962153184" lon="-1.769078650140963"><ele>57.0</ele><time>2026-03-22T10:20:02.982Z</time></trkpt><trkpt lat="47.39177073849416" lon="-1.7690179597003401"><ele>56.99999999999999</ele><time>2026-03-22T10:20:03.982Z</time></trkpt><trkpt lat="47.39170973643421" lon="-1.7689557716676385"><ele>57.0</ele><time>2026-03-22T10:20:04.982Z</time></trkpt><trkpt lat="47.39165438301132" lon="-1.7688953848216744"><ele>57.0</ele><time>2026-03-22T10:20:05.982Z</time></trkpt><trkpt lat="47.39159543714283" lon="-1.7688377340091093"><ele>56.99999999999999</ele><time>2026-03-22T10:20:06.982Z</time></trkpt><trkpt lat="47.39153855387523" lon="-1.7687731914910265"><ele>57.0</ele><time>2026-03-22T10:20:07.982Z</time></trkpt><trkpt lat="47.391474403084096" lon="-1.7687162614675618"><ele>57.0</ele><time>2026-03-22T10:20:08.982Z</time></trkpt><trkpt lat="47.39141578156171" lon="-1.7686566146881615"><ele>57.0</ele><time>2026-03-22T10:20:09.982Z</time></trkpt><trkpt lat="47.391355623591004" lon="-1.7685937579901236"><ele>56.99999999999999</ele><time>2026-03-22T10:20:10.982Z</time></trkpt><trkpt lat="47.39129373797097" lon="-1.7685378829454859"><ele>57.0</ele><time>2026-03-22T10:20:11.982Z</time></trkpt><trkpt lat="47.39123908976245" lon="-1.7684746103920872"><ele>57.0</ele><time>2026-03-22T10:20:12.982Z</time></trkpt><trkpt lat="47.39117928411474" lon="-1.7684138659185695"><ele>56.99999999999999</ele><time>2026-03-22T10:20:13.982Z</time></trkpt><trkpt lat="47.391122705555524" lon="-1.7683458792016942"><ele>57.0</ele><time>2026-03-22T10:20:14.982Z</time></trkpt><trkpt lat="47.391062948574344" lon="-1.7682842633930986"><ele>57.0</ele><time>2026-03-22T10:20:15.982Z</time></trkpt><trkpt lat="47.39100215418043" lon="-1.7682209031947367"><ele>57.0</ele><time>2026-03-22T10:20:16.982Z</time></trkpt><trkpt lat="47.39094315664643" lon="-1.768154885069803"><ele>57.0</ele><time>2026-03-22T10:20:17.982Z</time></trkpt><trkpt lat="47.390884803028406" lon="-1.7680836113267573"><ele>57.0</ele><time>2026-03-22T10:20:18.982Z</time></trkpt><trkpt lat="47.39082423362124" lon="-1.7680124757692832"><ele>57.0</ele><time>2026-03-22T10:20:19.982Z</time></trkpt><trkpt lat="47.39076260922824" lon="-1.7679455263810346"><ele>57.0</ele><time>2026-03-22T10:20:20.982Z</time></trkpt><trkpt lat="47.390700502631894" lon="-1.7678712762359947"><ele>57.0</ele><time>2026-03-22T10:20:21.982Z</time></trkpt><trkpt lat="47.39064404553069" lon="-1.767799313637772"><ele>57.0</ele><time>2026-03-22T10:20:22.982Z</time></trkpt><trkpt lat="47.390582872745114" lon="-1.7677265310628847"><ele>57.0</ele><time>2026-03-22T10:20:23.982Z</time></trkpt><trkpt lat="47.39052263957486" lon="-1.7676533904104825"><ele>57.0</ele><time>2026-03-22T10:20:24.982Z</time></trkpt><trkpt lat="47.3904635685134" lon="-1.7675827523132213"><ele>57.0</ele><time>2026-03-22T10:20:25.982Z</time></trkpt><trkpt lat="47.39039831495082" lon="-1.7675125277117856"><ele>57.0</ele><time>2026-03-22T10:20:26.982Z</time></trkpt><trkpt lat="47.390336984456084" lon="-1.767442942243319"><ele>57.0</ele><time>2026-03-22T10:20:27.982Z</time></trkpt><trkpt lat="47.39027450215287" lon="-1.767367347468759"><ele>57.166666666666664</ele><time>2026-03-22T10:20:28.982Z</time></trkpt><trkpt lat="47.39021548154376" lon="-1.767296232291832"><ele>57.33333333333333</ele><time>2026-03-22T10:20:29.982Z</time></trkpt><trkpt lat="47.39015358438175" lon="-1.7672212057251564"><ele>57.5</ele><time>2026-03-22T10:20:30.982Z</time></trkpt><trkpt lat="47.390092556957704" lon="-1.7671439594604785"><ele>57.666666666666664</ele><time>2026-03-22T10:20:31.982Z</time></trkpt><trkpt lat="47.39003116110113" lon="-1.7670700983996954"><ele>57.83333333333333</ele><time>2026-03-22T10:20:32.982Z</time></trkpt><trkpt lat="47.38997323584989" lon="-1.7669961737467887"><ele>58.0</ele><time>2026-03-22T10:20:33.982Z</time></trkpt><trkpt lat="47.38991562800697" lon="-1.7669228610549434"><ele>57.83333333333333</ele><time>2026-03-22T10:20:34.982Z</time></trkpt><trkpt lat="47.38985678919102" lon="-1.7668493390794289"><ele>57.666666666666664</ele><time>2026-03-22T10:20:35.982Z</time></trkpt><trkpt lat="47.38979292957289" lon="-1.766778915836237"><ele>57.5</ele><time>2026-03-22T10:20:36.982Z</time></trkpt><trkpt lat="47.3897331096513" lon="-1.7667103273083964"><ele>57.33333333333333</ele><time>2026-03-22T10:20:37.982Z</time></trkpt><trkpt lat="47.389673515356556" lon="-1.7666369684568322"><ele>57.166666666666664</ele><time>2026-03-22T10:20:38.982Z</time></trkpt><trkpt lat="47.38961243627811" lon="-1.766567378850076"><ele>57.0</ele><time>2026-03-22T10:20:39.982Z</time></trkpt><trkpt lat="47.389557052566694" lon="-1.7664956903440245"><ele>57.0</ele><time>2026-03-22T10:20:40.982Z</time></trkpt><trkpt lat="47.38949966696153" lon="-1.7664279461410948"><ele>57.0</ele><time>2026-03-22T10:20:41.982Z</time></trkpt><trkpt lat="47.38944344853556" lon="-1.7663521544331942"><ele>57.0</ele><time>2026-03-22T10:20:42.982Z</time></trkpt><trkpt lat="47.38938147206963" lon="-1.7662851520165668"><ele>57.0</ele><time>2026-03-22T10:20:43.982Z</time></trkpt><trkpt lat="47.389319978511566" lon="-1.766215166003155"><ele>57.0</ele><time>2026-03-22T10:20:44.982Z</time></trkpt><trkpt lat="47.3892615900544" lon="-1.7661471005106604"><ele>57.0</ele><time>2026-03-22T10:20:45.982Z</time></trkpt><trkpt lat="47.38920798477471" lon="-1.7660766928500693"><ele>56.666666666666664</ele><time>2026-03-22T10:20:46.982Z</time></trkpt><trkpt lat="47.389148745415525" lon="-1.7660060418914325"><ele>56.33333333333333</ele><time>2026-03-22T10:20:47.982Z</time></trkpt><trkpt lat="47.38908544632709" lon="-1.765932007031608"><ele>56.0</ele><time>2026-03-22T10:20:48.982Z</time></trkpt><trkpt lat="47.38902972398995" lon="-1.7658667151828888"><ele>55.666666666666664</ele><time>2026-03-22T10:20:49.982Z</time></trkpt><trkpt lat="47.38897094210334" lon="-1.7658006097370438"><ele>55.33333333333333</ele><time>2026-03-22T10:20:50.982Z</time></trkpt><trkpt lat="47.388913622239535" lon="-1.7657337868062684"><ele>55.0</ele><time>2026-03-22T10:20:51.982Z</time></trkpt><trkpt lat="47.38885619467312" lon="-1.765662135636587"><ele>55.28571428571428</ele><time>2026-03-22T10:20:52.982Z</time></trkpt><trkpt lat="47.38879857837493" lon="-1.765591935080207"><ele>55.57142857142857</ele><time>2026-03-22T10:20:53.982Z</time></trkpt><trkpt lat="47.38874326322399" lon="-1.7655218460762447"><ele>55.857142857142854</ele><time>2026-03-22T10:20:54.982Z</time></trkpt><trkpt lat="47.38868885597718" lon="-1.765452800075242"><ele>56.14285714285714</ele><time>2026-03-22T10:20:55.982Z</time></trkpt><trkpt lat="47.388635170100756" lon="-1.7653840814757507"><ele>56.42857142857142</ele><time>2026-03-22T10:20:56.982Z</time></trkpt><trkpt lat="47.38857583191522" lon="-1.765318576304142"><ele>56.71428571428571</ele><time>2026-03-22T10:20:57.982Z</time></trkpt><trkpt lat="47.38851766308174" lon="-1.7652561665385167"><ele>57.0</ele><time>2026-03-22T10:20:58.982Z</time></trkpt><trkpt lat="47.38845943473984" lon="-1.7651870077319973"><ele>57.14285714285714</ele><time>2026-03-22T10:20:59.982Z</time></trkpt><trkpt lat="47.38840775252447" lon="-1.7651185146982526"><ele>57.28571428571428</ele><time>2026-03-22T10:21:00.981Z</time></trkpt><trkpt lat="47.388346646289115" lon="-1.7650488452104645"><ele>57.42857142857143</ele><time>2026-03-22T10:21:01.981Z</time></trkpt><trkpt lat="47.38828795520481" lon="-1.7649834205578565"><ele>57.57142857142857</ele><time>2026-03-22T10:21:02.981Z</time></trkpt><trkpt lat="47.38823288175316" lon="-1.7649207207804682"><ele>57.714285714285715</ele><time>2026-03-22T10:21:03.981Z</time></trkpt><trkpt lat="47.3881734043342" lon="-1.7648527623247197"><ele>57.85714285714286</ele><time>2026-03-22T10:21:04.981Z</time></trkpt><trkpt lat="47.388114237993555" lon="-1.7647857033853054"><ele>58.00000000000001</ele><time>2026-03-22T10:21:05.981Z</time></trkpt><trkpt lat="47.388064548831316" lon="-1.764716335996775"><ele>57.99999999999999</ele><time>2026-03-22T10:21:06.981Z</time></trkpt><trkpt lat="47.388003289582066" lon="-1.7646519397346694"><ele>58.0</ele><time>2026-03-22T10:21:07.981Z</time></trkpt><trkpt lat="47.387946570919" lon="-1.7645775445699186"><ele>58.0</ele><time>2026-03-22T10:21:08.981Z</time></trkpt><trkpt lat="47.38788660944053" lon="-1.7645099008527554"><ele>58.0</ele><time>2026-03-22T10:21:09.981Z</time></trkpt><trkpt lat="47.38782568217203" lon="-1.7644373082777896"><ele>57.99999999999999</ele><time>2026-03-22T10:21:10.981Z</time></trkpt><trkpt lat="47.38776799065337" lon="-1.7643726265131503"><ele>58.0</ele><time>2026-03-22T10:21:11.981Z</time></trkpt><trkpt lat="47.38770680188997" lon="-1.7643064972167863"><ele>57.99999999999999</ele><time>2026-03-22T10:21:12.981Z</time></trkpt><trkpt lat="47.387649247755206" lon="-1.7642383200467382"><ele>58.0</ele><time>2026-03-22T10:21:13.981Z</time></trkpt><trkpt lat="47.387591767031545" lon="-1.764166337687154"><ele>58.0</ele><time>2026-03-22T10:21:14.981Z</time></trkpt><trkpt lat="47.38753115458305" lon="-1.7641022308070966"><ele>58.0</ele><time>2026-03-22T10:21:15.981Z</time></trkpt><trkpt lat="47.38747168635719" lon="-1.7640341050417454"><ele>57.99999999999999</ele><time>2026-03-22T10:21:16.981Z</time></trkpt><trkpt lat="47.38741076045268" lon="-1.7639675277828861"><ele>58.0</ele><time>2026-03-22T10:21:17.981Z</time></trkpt><trkpt lat="47.38734533740949" lon="-1.7639086631835017"><ele>57.99999999999999</ele><time>2026-03-22T10:21:18.981Z</time></trkpt><trkpt lat="47.38728047745413" lon="-1.763841698015847"><ele>58.0</ele><time>2026-03-22T10:21:19.981Z</time></trkpt><trkpt lat="47.387223228388486" lon="-1.7637768990763312"><ele>58.0</ele><time>2026-03-22T10:21:20.981Z</time></trkpt><trkpt lat="47.38716026836942" lon="-1.76371717248876"><ele>58.0</ele><time>2026-03-22T10:21:21.981Z</time></trkpt><trkpt lat="47.38709645047965" lon="-1.763657701397824"><ele>57.99999999999999</ele><time>2026-03-22T10:21:22.981Z</time></trkpt><trkpt lat="47.387033167218156" lon="-1.7635997303930318"><ele>58.0</ele><time>2026-03-22T10:21:23.981Z</time></trkpt><trkpt lat="47.38697160193487" lon="-1.7635366632178848"><ele>58.14285714285715</ele><time>2026-03-22T10:21:24.981Z</time></trkpt><trkpt lat="47.38691144813738" lon="-1.7634775992154657"><ele>58.28571428571429</ele><time>2026-03-22T10:21:25.981Z</time></trkpt><trkpt lat="47.38684939703051" lon="-1.7634165226875038"><ele>58.42857142857143</ele><time>2026-03-22T10:21:26.981Z</time></trkpt><trkpt lat="47.38678949260549" lon="-1.7633588902330166"><ele>58.57142857142858</ele><time>2026-03-22T10:21:27.981Z</time></trkpt><trkpt lat="47.38672577988802" lon="-1.763304900159106"><ele>58.71428571428572</ele><time>2026-03-22T10:21:28.981Z</time></trkpt><trkpt lat="47.38666192158922" lon="-1.7632411328177988"><ele>58.857142857142854</ele><time>2026-03-22T10:21:29.981Z</time></trkpt><trkpt lat="47.38660165924158" lon="-1.763188280822226"><ele>59.0</ele><time>2026-03-22T10:21:30.981Z</time></trkpt><trkpt lat="47.38653900291529" lon="-1.7631340124004171"><ele>59.0</ele><time>2026-03-22T10:21:31.981Z</time></trkpt><trkpt lat="47.38647812147566" lon="-1.763079806274336"><ele>59.0</ele><time>2026-03-22T10:21:32.981Z</time></trkpt><trkpt lat="47.38641048845284" lon="-1.7630169582067912"><ele>59.0</ele><time>2026-03-22T10:21:33.981Z</time></trkpt><trkpt lat="47.38634395294466" lon="-1.7629550617421152"><ele>59.0</ele><time>2026-03-22T10:21:34.981Z</time></trkpt><trkpt lat="47.386285171113485" lon="-1.7628979493983932"><ele>59.0</ele><time>2026-03-22T10:21:35.981Z</time></trkpt><trkpt lat="47.38622357820404" lon="-1.7628384992896615"><ele>59.0</ele><time>2026-03-22T10:21:36.981Z</time></trkpt><trkpt lat="47.38616290733419" lon="-1.7627833717933281"><ele>59.0</ele><time>2026-03-22T10:21:37.981Z</time></trkpt><trkpt lat="47.386102857587325" lon="-1.7627220018598282"><ele>59.14285714285714</ele><time>2026-03-22T10:21:38.981Z</time></trkpt><trkpt lat="47.38604212437323" lon="-1.7626591616107259"><ele>59.28571428571429</ele><time>2026-03-22T10:21:39.981Z</time></trkpt><trkpt lat="47.38598127002551" lon="-1.7625979378028007"><ele>59.42857142857143</ele><time>2026-03-22T10:21:40.981Z</time></trkpt><trkpt lat="47.3859198683527" lon="-1.7625414151571495"><ele>59.57142857142857</ele><time>2026-03-22T10:21:41.981Z</time></trkpt><trkpt lat="47.385867659645" lon="-1.762472019112815"><ele>59.71428571428571</ele><time>2026-03-22T10:21:42.981Z</time></trkpt><trkpt lat="47.385814267752885" lon="-1.7624017639932408"><ele>59.85714285714286</ele><time>2026-03-22T10:21:43.981Z</time></trkpt><trkpt lat="47.38576006841808" lon="-1.7623307395170333"><ele>60.0</ele><time>2026-03-22T10:21:44.981Z</time></trkpt><trkpt lat="47.3857019308087" lon="-1.762262178747605"><ele>60.0</ele><time>2026-03-22T10:21:45.981Z</time></trkpt><trkpt lat="47.385647977711145" lon="-1.762191818540892"><ele>60.0</ele><time>2026-03-22T10:21:46.982Z</time></trkpt><trkpt lat="47.38559638171744" lon="-1.7621158477000227"><ele>60.0</ele><time>2026-03-22T10:21:47.982Z</time></trkpt><trkpt lat="47.38554359191488" lon="-1.7620439961960996"><ele>60.0</ele><time>2026-03-22T10:21:48.982Z</time></trkpt><trkpt lat="47.385497296851234" lon="-1.761964259435293"><ele>60.0</ele><time>2026-03-22T10:21:49.982Z</time></trkpt><trkpt lat="47.3854500841171" lon="-1.7618874797444264"><ele>60.0</ele><time>2026-03-22T10:21:50.982Z</time></trkpt><trkpt lat="47.3853983983644" lon="-1.7618108990772845"><ele>60.0</ele><time>2026-03-22T10:21:51.982Z</time></trkpt><trkpt lat="47.38535237813161" lon="-1.7617313499558056"><ele>60.142857142857146</ele><time>2026-03-22T10:21:52.982Z</time></trkpt><trkpt lat="47.38530512649115" lon="-1.761654814990927"><ele>60.28571428571428</ele><time>2026-03-22T10:21:53.982Z</time></trkpt><trkpt lat="47.38525545947534" lon="-1.7615750582759044"><ele>60.42857142857142</ele><time>2026-03-22T10:21:54.982Z</time></trkpt><trkpt lat="47.38520733955749" lon="-1.761498780575206"><ele>60.57142857142857</ele><time>2026-03-22T10:21:55.981Z</time></trkpt><trkpt lat="47.38516498913635" lon="-1.7614203737267629"><ele>60.71428571428571</ele><time>2026-03-22T10:21:56.982Z</time></trkpt><trkpt lat="47.385122822305114" lon="-1.7613416698573692"><ele>60.85714285714285</ele><time>2026-03-22T10:21:57.982Z</time></trkpt><trkpt lat="47.38507628192974" lon="-1.7612646364334563"><ele>60.99999999999999</ele><time>2026-03-22T10:21:58.982Z</time></trkpt><trkpt lat="47.38503303659293" lon="-1.761187078671615"><ele>60.99999999999999</ele><time>2026-03-22T10:21:59.981Z</time></trkpt><trkpt lat="47.38498799680012" lon="-1.7611090161201308"><ele>61.0</ele><time>2026-03-22T10:22:00.981Z</time></trkpt><trkpt lat="47.38494031724097" lon="-1.7610373470594274"><ele>60.99999999999999</ele><time>2026-03-22T10:22:01.981Z</time></trkpt><trkpt lat="47.38489020960818" lon="-1.7609610576219772"><ele>60.99999999999999</ele><time>2026-03-22T10:22:02.981Z</time></trkpt><trkpt lat="47.384845088035924" lon="-1.7608840488286803"><ele>61.0</ele><time>2026-03-22T10:22:03.981Z</time></trkpt><trkpt lat="47.384799651464206" lon="-1.760806328778439"><ele>60.99999999999999</ele><time>2026-03-22T10:22:04.981Z</time></trkpt><trkpt lat="47.384753167718245" lon="-1.7607273440467075"><ele>60.99999999999999</ele><time>2026-03-22T10:22:05.981Z</time></trkpt><trkpt lat="47.384705532160254" lon="-1.76065196316272"><ele>60.99999999999999</ele><time>2026-03-22T10:22:06.981Z</time></trkpt><trkpt lat="47.38466726293756" lon="-1.7605708214719407"><ele>61.0</ele><time>2026-03-22T10:22:07.981Z</time></trkpt><trkpt lat="47.38461367881614" lon="-1.7605001986316433"><ele>60.99999999999999</ele><time>2026-03-22T10:22:08.981Z</time></trkpt><trkpt lat="47.38456914240289" lon="-1.760415261415692"><ele>60.99999999999999</ele><time>2026-03-22T10:22:09.981Z</time></trkpt><trkpt lat="47.384521522855614" lon="-1.7603383425730057"><ele>61.0</ele><time>2026-03-22T10:22:10.981Z</time></trkpt><trkpt lat="47.38447392541397" lon="-1.7602518614777642"><ele>60.99999999999999</ele><time>2026-03-22T10:22:11.981Z</time></trkpt><trkpt lat="47.38442788057727" lon="-1.7601763854138663"><ele>60.99999999999999</ele><time>2026-03-22T10:22:12.981Z</time></trkpt><trkpt lat="47.38438478681274" lon="-1.7600964599914932"><ele>60.99999999999999</ele><time>2026-03-22T10:22:13.981Z</time></trkpt><trkpt lat="47.384335533577016" lon="-1.760021607366123"><ele>61.0</ele><time>2026-03-22T10:22:14.981Z</time></trkpt><trkpt lat="47.38428552335134" lon="-1.759941067364287"><ele>60.99999999999999</ele><time>2026-03-22T10:22:15.981Z</time></trkpt><trkpt lat="47.384239339942155" lon="-1.7598594617385261"><ele>60.99999999999999</ele><time>2026-03-22T10:22:16.981Z</time></trkpt><trkpt lat="47.38418998006483" lon="-1.7597806662272746"><ele>61.0</ele><time>2026-03-22T10:22:17.981Z</time></trkpt><trkpt lat="47.38414517315452" lon="-1.759700538608523"><ele>60.99999999999999</ele><time>2026-03-22T10:22:18.981Z</time></trkpt><trkpt lat="47.38409429795799" lon="-1.7596227775323443"><ele>60.99999999999999</ele><time>2026-03-22T10:22:19.981Z</time></trkpt><trkpt lat="47.384054420725654" lon="-1.7595426676854324"><ele>60.99999999999999</ele><time>2026-03-22T10:22:20.981Z</time></trkpt><trkpt lat="47.38400230023092" lon="-1.7594619807699856"><ele>61.0</ele><time>2026-03-22T10:22:21.981Z</time></trkpt><trkpt lat="47.383949976914174" lon="-1.7593845717742027"><ele>60.99999999999999</ele><time>2026-03-22T10:22:22.981Z</time></trkpt><trkpt lat="47.383906446946945" lon="-1.7592988438121213"><ele>60.99999999999999</ele><time>2026-03-22T10:22:23.981Z</time></trkpt><trkpt lat="47.38386106110502" lon="-1.759219306354508"><ele>61.0</ele><time>2026-03-22T10:22:24.981Z</time></trkpt><trkpt lat="47.38381224485448" lon="-1.7591407699163832"><ele>60.99999999999999</ele><time>2026-03-22T10:22:25.981Z</time></trkpt><trkpt lat="47.38376585419195" lon="-1.7590574614109515"><ele>60.99999999999999</ele><time>2026-03-22T10:22:26.981Z</time></trkpt><trkpt lat="47.383716998594366" lon="-1.75897713090643"><ele>60.99999999999999</ele><time>2026-03-22T10:22:27.981Z</time></trkpt><trkpt lat="47.383668175121244" lon="-1.7588950475051772"><ele>61.0</ele><time>2026-03-22T10:22:28.981Z</time></trkpt><trkpt lat="47.38362155725013" lon="-1.7588146362703865"><ele>60.99999999999999</ele><time>2026-03-22T10:22:29.981Z</time></trkpt><trkpt lat="47.38356836469836" lon="-1.7587324778661282"><ele>60.99999999999999</ele><time>2026-03-22T10:22:30.981Z</time></trkpt><trkpt lat="47.38352026738914" lon="-1.7586501097492644"><ele>61.0</ele><time>2026-03-22T10:22:31.981Z</time></trkpt><trkpt lat="47.38347165306375" lon="-1.7585706446392475"><ele>60.99999999999999</ele><time>2026-03-22T10:22:32.981Z</time></trkpt><trkpt lat="47.38342394908519" lon="-1.7584867314679242"><ele>60.99999999999999</ele><time>2026-03-22T10:22:33.981Z</time></trkpt><trkpt lat="47.38337325320169" lon="-1.7584011584008328"><ele>60.71428571428571</ele><time>2026-03-22T10:22:34.981Z</time></trkpt><trkpt lat="47.38332484464669" lon="-1.7583238910553287"><ele>60.42857142857143</ele><time>2026-03-22T10:22:35.981Z</time></trkpt><trkpt lat="47.383268421460784" lon="-1.758239290569796"><ele>60.14285714285714</ele><time>2026-03-22T10:22:36.981Z</time></trkpt><trkpt lat="47.38322871639921" lon="-1.7581595372014902"><ele>59.857142857142854</ele><time>2026-03-22T10:22:37.981Z</time></trkpt><trkpt lat="47.38317827046502" lon="-1.7580741852863264"><ele>59.57142857142857</ele><time>2026-03-22T10:22:38.981Z</time></trkpt><trkpt lat="47.38312492782231" lon="-1.7579916956897939"><ele>59.285714285714285</ele><time>2026-03-22T10:22:39.981Z</time></trkpt><trkpt lat="47.38307427715831" lon="-1.7579077962561662"><ele>59.0</ele><time>2026-03-22T10:22:40.981Z</time></trkpt><trkpt lat="47.38302552700669" lon="-1.7578216138484857"><ele>59.00000000000001</ele><time>2026-03-22T10:22:41.981Z</time></trkpt><trkpt lat="47.3829768350283" lon="-1.7577332063457631"><ele>59.0</ele><time>2026-03-22T10:22:42.981Z</time></trkpt><trkpt lat="47.382923271404636" lon="-1.7576472303282176"><ele>59.0</ele><time>2026-03-22T10:22:43.981Z</time></trkpt><trkpt lat="47.38287507393276" lon="-1.7575614984167622"><ele>59.0</ele><time>2026-03-22T10:22:44.981Z</time></trkpt><trkpt lat="47.38282272993268" lon="-1.757475482575471"><ele>59.00000000000001</ele><time>2026-03-22T10:22:45.981Z</time></trkpt><trkpt lat="47.3827722336728" lon="-1.7573873167368124"><ele>59.0</ele><time>2026-03-22T10:22:46.981Z</time></trkpt><trkpt lat="47.38272165661728" lon="-1.7572947142587396"><ele>59.00000000000001</ele><time>2026-03-22T10:22:47.981Z</time></trkpt><trkpt lat="47.38266831997734" lon="-1.7572068921258186"><ele>59.0</ele><time>2026-03-22T10:22:48.981Z</time></trkpt><trkpt lat="47.38261544573513" lon="-1.7571184251774328"><ele>59.0</ele><time>2026-03-22T10:22:49.981Z</time></trkpt><trkpt lat="47.382563705806305" lon="-1.757026816450291"><ele>59.0</ele><time>2026-03-22T10:22:50.981Z</time></trkpt><trkpt lat="47.38251390535592" lon="-1.7569365750348105"><ele>59.00000000000001</ele><time>2026-03-22T10:22:51.981Z</time></trkpt><trkpt lat="47.382456323133795" lon="-1.7568506890784334"><ele>59.0</ele><time>2026-03-22T10:22:52.981Z</time></trkpt><trkpt lat="47.38240040905345" lon="-1.7567585780250994"><ele>59.00000000000001</ele><time>2026-03-22T10:22:53.981Z</time></trkpt><trkpt lat="47.38234551654977" lon="-1.7566651414961771"><ele>59.0</ele><time>2026-03-22T10:22:54.981Z</time></trkpt><trkpt lat="47.38229214679493" lon="-1.756575004258584"><ele>59.0</ele><time>2026-03-22T10:22:55.981Z</time></trkpt><trkpt lat="47.382241609776194" lon="-1.756481878248942"><ele>59.0</ele><time>2026-03-22T10:22:56.981Z</time></trkpt><trkpt lat="47.38218225961236" lon="-1.7563893478737325"><ele>59.00000000000001</ele><time>2026-03-22T10:22:57.981Z</time></trkpt><trkpt lat="47.38212729958919" lon="-1.756298393160195"><ele>59.0</ele><time>2026-03-22T10:22:58.981Z</time></trkpt><trkpt lat="47.38207334939351" lon="-1.7562039873305266"><ele>58.833333333333336</ele><time>2026-03-22T10:22:59.981Z</time></trkpt><trkpt lat="47.38201461332875" lon="-1.756109030172288"><ele>58.66666666666667</ele><time>2026-03-22T10:23:00.981Z</time></trkpt><trkpt lat="47.38195571273598" lon="-1.756015907135123"><ele>58.5</ele><time>2026-03-22T10:23:01.981Z</time></trkpt><trkpt lat="47.381895648408914" lon="-1.755921618451347"><ele>58.33333333333333</ele><time>2026-03-22T10:23:02.981Z</time></trkpt><trkpt lat="47.38184452508398" lon="-1.7558261661188808"><ele>58.166666666666664</ele><time>2026-03-22T10:23:03.981Z</time></trkpt><trkpt lat="47.381789855913304" lon="-1.755730866947151"><ele>58.0</ele><time>2026-03-22T10:23:04.981Z</time></trkpt><trkpt lat="47.381734347146335" lon="-1.7556405004941829"><ele>58.666666666666664</ele><time>2026-03-22T10:23:05.981Z</time></trkpt><trkpt lat="47.38167929811751" lon="-1.755544876495528"><ele>59.33333333333333</ele><time>2026-03-22T10:23:06.981Z</time></trkpt><trkpt lat="47.38162139112085" lon="-1.7554522366010064"><ele>60.0</ele><time>2026-03-22T10:23:07.981Z</time></trkpt><trkpt lat="47.38156350760984" lon="-1.7553550986693034"><ele>60.66666666666667</ele><time>2026-03-22T10:23:08.981Z</time></trkpt><trkpt lat="47.381506225388776" lon="-1.755259634581339"><ele>61.333333333333336</ele><time>2026-03-22T10:23:09.981Z</time></trkpt><trkpt lat="47.381447804282566" lon="-1.7551622233965143"><ele>62.0</ele><time>2026-03-22T10:23:10.981Z</time></trkpt><trkpt lat="47.381389907420015" lon="-1.7550619470036495"><ele>61.00000000000001</ele><time>2026-03-22T10:23:11.981Z</time></trkpt><trkpt lat="47.381336627232486" lon="-1.7549635555420868"><ele>60.0</ele><time>2026-03-22T10:23:12.981Z</time></trkpt><trkpt lat="47.38128150872629" lon="-1.7548659044581825"><ele>59.0</ele><time>2026-03-22T10:23:13.981Z</time></trkpt><trkpt lat="47.38122209396842" lon="-1.7547678513262144"><ele>58.0</ele><time>2026-03-22T10:23:14.981Z</time></trkpt><trkpt lat="47.381164452884455" lon="-1.7546663219050147"><ele>57.00000000000001</ele><time>2026-03-22T10:23:15.981Z</time></trkpt><trkpt lat="47.38109868538266" lon="-1.7545729430235935"><ele>56.0</ele><time>2026-03-22T10:23:16.981Z</time></trkpt><trkpt lat="47.381045979085584" lon="-1.7544729207882566"><ele>56.0</ele><time>2026-03-22T10:23:17.981Z</time></trkpt><trkpt lat="47.38097828366712" lon="-1.7543716995238292"><ele>55.99999999999999</ele><time>2026-03-22T10:23:18.981Z</time></trkpt><trkpt lat="47.3809250249283" lon="-1.7542710971502558"><ele>55.99999999999999</ele><time>2026-03-22T10:23:19.981Z</time></trkpt><trkpt lat="47.38086416100077" lon="-1.754176047477276"><ele>56.0</ele><time>2026-03-22T10:23:20.981Z</time></trkpt><trkpt lat="47.38080077884305" lon="-1.7540752123840164"><ele>56.0</ele><time>2026-03-22T10:23:21.981Z</time></trkpt><trkpt lat="47.38074018566268" lon="-1.7539780924611321"><ele>55.8</ele><time>2026-03-22T10:23:22.981Z</time></trkpt><trkpt lat="47.380675992945264" lon="-1.7538753055003982"><ele>55.599999999999994</ele><time>2026-03-22T10:23:23.981Z</time></trkpt><trkpt lat="47.380618438394315" lon="-1.7537671963821049"><ele>55.4</ele><time>2026-03-22T10:23:24.981Z</time></trkpt><trkpt lat="47.38056064684566" lon="-1.7536621268821255"><ele>55.2</ele><time>2026-03-22T10:23:25.981Z</time></trkpt><trkpt lat="47.38049643365386" lon="-1.7535621707759665"><ele>55.0</ele><time>2026-03-22T10:23:26.981Z</time></trkpt><trkpt lat="47.38043769396022" lon="-1.7534601280418598"><ele>54.4</ele><time>2026-03-22T10:23:27.981Z</time></trkpt><trkpt lat="47.380370466446166" lon="-1.7533562900090223"><ele>53.8</ele><time>2026-03-22T10:23:28.981Z</time></trkpt><trkpt lat="47.38030797436442" lon="-1.7532521682288607"><ele>53.2</ele><time>2026-03-22T10:23:29.981Z</time></trkpt><trkpt lat="47.38025110967851" lon="-1.7531445425535452"><ele>52.6</ele><time>2026-03-22T10:23:30.981Z</time></trkpt><trkpt lat="47.38018678089505" lon="-1.7530353734081456"><ele>52.0</ele><time>2026-03-22T10:23:31.981Z</time></trkpt><trkpt lat="47.380121015559965" lon="-1.7529329341860436"><ele>52.0</ele><time>2026-03-22T10:23:32.981Z</time></trkpt><trkpt lat="47.38005854411725" lon="-1.752823336133532"><ele>52.0</ele><time>2026-03-22T10:23:33.981Z</time></trkpt><trkpt lat="47.37999453627002" lon="-1.7527147196764659"><ele>52.0</ele><time>2026-03-22T10:23:34.981Z</time></trkpt><trkpt lat="47.37993232832577" lon="-1.7526059469248585"><ele>52.0</ele><time>2026-03-22T10:23:35.981Z</time></trkpt><trkpt lat="47.379868468756506" lon="-1.7524904191400272"><ele>52.0</ele><time>2026-03-22T10:23:36.981Z</time></trkpt><trkpt lat="47.37981089949984" lon="-1.7523751197367874"><ele>51.8</ele><time>2026-03-22T10:23:37.981Z</time></trkpt><trkpt lat="47.37974952880471" lon="-1.7522496389894033"><ele>51.6</ele><time>2026-03-22T10:23:38.981Z</time></trkpt><trkpt lat="47.3796888785471" lon="-1.7521238505114742"><ele>51.4</ele><time>2026-03-22T10:23:39.981Z</time></trkpt><trkpt lat="47.37963300236524" lon="-1.7519904008435285"><ele>51.199999999999996</ele><time>2026-03-22T10:23:40.981Z</time></trkpt><trkpt lat="47.379577756461366" lon="-1.7518536626856949"><ele>51.0</ele><time>2026-03-22T10:23:41.981Z</time></trkpt><trkpt lat="47.379523300858715" lon="-1.7517139364594063"><ele>50.199999999999996</ele><time>2026-03-22T10:23:42.981Z</time></trkpt><trkpt lat="47.37946872381036" lon="-1.7515748614388416"><ele>49.4</ele><time>2026-03-22T10:23:43.981Z</time></trkpt><trkpt lat="47.37941018308133" lon="-1.7514337176250356"><ele>48.6</ele><time>2026-03-22T10:23:44.981Z</time></trkpt><trkpt lat="47.3793598410877" lon="-1.7512840978388136"><ele>47.8</ele><time>2026-03-22T10:23:45.981Z</time></trkpt><trkpt lat="47.37930615291259" lon="-1.7511373115038358"><ele>47.0</ele><time>2026-03-22T10:23:46.981Z</time></trkpt><trkpt lat="47.37924674102072" lon="-1.7509888779517788"><ele>46.6</ele><time>2026-03-22T10:23:47.981Z</time></trkpt><trkpt lat="47.379189632633185" lon="-1.750843166301206"><ele>46.2</ele><time>2026-03-22T10:23:48.981Z</time></trkpt><trkpt lat="47.3791399823977" lon="-1.7507009621711078"><ele>45.8</ele><time>2026-03-22T10:23:49.981Z</time></trkpt><trkpt lat="47.37908996038335" lon="-1.7505593240067072"><ele>45.4</ele><time>2026-03-22T10:23:50.981Z</time></trkpt><trkpt lat="47.37903590993856" lon="-1.750415355514456"><ele>45.0</ele><time>2026-03-22T10:23:51.981Z</time></trkpt><trkpt lat="47.37898312763923" lon="-1.7502726477158874"><ele>44.6</ele><time>2026-03-22T10:23:52.982Z</time></trkpt><trkpt lat="47.378933397987126" lon="-1.7501294453952319"><ele>44.2</ele><time>2026-03-22T10:23:53.982Z</time></trkpt><trkpt lat="47.37887873632402" lon="-1.7499913441765882"><ele>43.8</ele><time>2026-03-22T10:23:54.982Z</time></trkpt><trkpt lat="47.378826920040254" lon="-1.7498551082147187"><ele>43.4</ele><time>2026-03-22T10:23:55.982Z</time></trkpt><trkpt lat="47.37877595704034" lon="-1.7497244710967386"><ele>43.0</ele><time>2026-03-22T10:23:56.982Z</time></trkpt><trkpt lat="47.37871813077054" lon="-1.7495896789174594"><ele>42.8</ele><time>2026-03-22T10:23:57.982Z</time></trkpt><trkpt lat="47.37867419030302" lon="-1.749457121583968"><ele>42.599999999999994</ele><time>2026-03-22T10:23:58.982Z</time></trkpt><trkpt lat="47.3786303411708" lon="-1.749328657475177"><ele>42.400000000000006</ele><time>2026-03-22T10:23:59.982Z</time></trkpt><trkpt lat="47.37858660164403" lon="-1.7492004618492576"><ele>42.2</ele><time>2026-03-22T10:24:00.982Z</time></trkpt><trkpt lat="47.37853551293584" lon="-1.7490832875149533"><ele>42.0</ele><time>2026-03-22T10:24:01.982Z</time></trkpt><trkpt lat="47.37848888252675" lon="-1.748963047320843"><ele>42.0</ele><time>2026-03-22T10:24:02.982Z</time></trkpt><trkpt lat="47.37844849097397" lon="-1.7488469995924547"><ele>42.0</ele><time>2026-03-22T10:24:03.982Z</time></trkpt><trkpt lat="47.378410672837774" lon="-1.7487361188413713"><ele>42.0</ele><time>2026-03-22T10:24:04.982Z</time></trkpt><trkpt lat="47.37837714294757" lon="-1.7486311464754054"><ele>42.0</ele><time>2026-03-22T10:24:05.981Z</time></trkpt><trkpt lat="47.37833828163371" lon="-1.7485235824863856"><ele>42.0</ele><time>2026-03-22T10:24:06.981Z</time></trkpt><trkpt lat="47.37830435367602" lon="-1.7484174980986449"><ele>42.0</ele><time>2026-03-22T10:24:07.981Z</time></trkpt><trkpt lat="47.37826618329449" lon="-1.7483233372079412"><ele>42.5</ele><time>2026-03-22T10:24:08.981Z</time></trkpt><trkpt lat="47.3782352241802" lon="-1.7482301229606252"><ele>43.0</ele><time>2026-03-22T10:24:09.981Z</time></trkpt><trkpt lat="47.37819814883811" lon="-1.748140308132765"><ele>43.5</ele><time>2026-03-22T10:24:10.981Z</time></trkpt><trkpt lat="47.37816583296022" lon="-1.7480545458949341"><ele>44.0</ele><time>2026-03-22T10:24:11.981Z</time></trkpt><trkpt lat="47.37813738429746" lon="-1.7479699577953474"><ele>44.5</ele><time>2026-03-22T10:24:12.981Z</time></trkpt><trkpt lat="47.37810623094843" lon="-1.7478880017274385"><ele>45.0</ele><time>2026-03-22T10:24:13.981Z</time></trkpt><trkpt lat="47.37805323849231" lon="-1.7477281199165053"><ele>46.0</ele><time>2026-03-22T10:24:15.981Z</time></trkpt><trkpt lat="47.37799979271326" lon="-1.7475841583554086"><ele>47.0</ele><time>2026-03-22T10:24:17.981Z</time></trkpt><trkpt lat="47.37794516152171" lon="-1.7474398993256297"><ele>48.0</ele><time>2026-03-22T10:24:19.981Z</time></trkpt><trkpt lat="47.377893410152595" lon="-1.7473061836932426"><ele>49.0</ele><time>2026-03-22T10:24:21.981Z</time></trkpt><trkpt lat="47.37784704907782" lon="-1.74717398655317"><ele>50.0</ele><time>2026-03-22T10:24:23.981Z</time></trkpt><trkpt lat="47.377796654100436" lon="-1.7470400587666526"><ele>50.0</ele><time>2026-03-22T10:24:25.981Z</time></trkpt><trkpt lat="47.377747501187436" lon="-1.7469234164298288"><ele>50.0</ele><time>2026-03-22T10:24:27.981Z</time></trkpt><trkpt lat="47.37770894640526" lon="-1.7467961305140087"><ele>50.0</ele><time>2026-03-22T10:24:29.981Z</time></trkpt><trkpt lat="47.37766451798541" lon="-1.7466749681497558"><ele>50.0</ele><time>2026-03-22T10:24:31.981Z</time></trkpt><trkpt lat="47.37761742043771" lon="-1.7465630860598527"><ele>50.0</ele><time>2026-03-22T10:24:33.981Z</time></trkpt><trkpt lat="47.37757275843849" lon="-1.7464507991615765"><ele>50.16666666666667</ele><time>2026-03-22T10:24:35.981Z</time></trkpt><trkpt lat="47.37753464536356" lon="-1.7463384979349523"><ele>50.333333333333336</ele><time>2026-03-22T10:24:37.981Z</time></trkpt><trkpt lat="47.37749048906489" lon="-1.7462268266161294"><ele>50.5</ele><time>2026-03-22T10:24:39.981Z</time></trkpt><trkpt lat="47.37745273927537" lon="-1.7461166627241662"><ele>50.66666666666667</ele><time>2026-03-22T10:24:41.981Z</time></trkpt><trkpt lat="47.37740972833259" lon="-1.7460104246489139"><ele>50.833333333333336</ele><time>2026-03-22T10:24:43.981Z</time></trkpt><trkpt lat="47.37736956958473" lon="-1.745899954877351"><ele>51.0</ele><time>2026-03-22T10:24:45.981Z</time></trkpt><trkpt lat="47.37732156521557" lon="-1.7457945893358433"><ele>51.0</ele><time>2026-03-22T10:24:47.981Z</time></trkpt><trkpt lat="47.377285873244624" lon="-1.7456839721972104"><ele>51.0</ele><time>2026-03-22T10:24:49.981Z</time></trkpt><trkpt lat="47.377244706437786" lon="-1.7455815972572246"><ele>51.0</ele><time>2026-03-22T10:24:51.981Z</time></trkpt><trkpt lat="47.37720523897099" lon="-1.7454776142514152"><ele>51.0</ele><time>2026-03-22T10:24:53.981Z</time></trkpt><trkpt lat="47.37716770582049" lon="-1.7453711745059217"><ele>51.0</ele><time>2026-03-22T10:24:55.981Z</time></trkpt><trkpt lat="47.377129503392254" lon="-1.7452672850722568"><ele>51.0</ele><time>2026-03-22T10:24:57.981Z</time></trkpt><trkpt lat="47.377092146441775" lon="-1.7451686432474358"><ele>51.833333333333336</ele><time>2026-03-22T10:24:59.981Z</time></trkpt><trkpt lat="47.377049934176256" lon="-1.74506148192806"><ele>52.66666666666667</ele><time>2026-03-22T10:25:01.981Z</time></trkpt><trkpt lat="47.377013826506435" lon="-1.7449602649593363"><ele>53.5</ele><time>2026-03-22T10:25:03.981Z</time></trkpt><trkpt lat="47.376976773529954" lon="-1.7448577944429986"><ele>54.333333333333336</ele><time>2026-03-22T10:25:05.981Z</time></trkpt><trkpt lat="47.376935736346226" lon="-1.744757604109078"><ele>55.16666666666667</ele><time>2026-03-22T10:25:07.981Z</time></trkpt><trkpt lat="47.37689511057045" lon="-1.7446590269345084"><ele>56.0</ele><time>2026-03-22T10:25:09.981Z</time></trkpt><trkpt lat="47.37686016578038" lon="-1.744555857353326"><ele>56.00000000000001</ele><time>2026-03-22T10:25:11.981Z</time></trkpt><trkpt lat="47.37681951843497" lon="-1.7444581638211398"><ele>56.0</ele><time>2026-03-22T10:25:13.981Z</time></trkpt><trkpt lat="47.37678436148404" lon="-1.7443583780088376"><ele>56.0</ele><time>2026-03-22T10:25:15.981Z</time></trkpt><trkpt lat="47.37675275722357" lon="-1.7442612787355132"><ele>56.0</ele><time>2026-03-22T10:25:17.981Z</time></trkpt><trkpt lat="47.376710436048" lon="-1.7441676320247534"><ele>56.00000000000001</ele><time>2026-03-22T10:25:19.981Z</time></trkpt><trkpt lat="47.37667813468896" lon="-1.7440637152481013"><ele>56.0</ele><time>2026-03-22T10:25:21.981Z</time></trkpt><trkpt lat="47.376636097076236" lon="-1.7439661328609355"><ele>56.50000000000001</ele><time>2026-03-22T10:25:23.981Z</time></trkpt><trkpt lat="47.37659952332379" lon="-1.743861031932534"><ele>57.0</ele><time>2026-03-22T10:25:25.981Z</time></trkpt><trkpt lat="47.376565291117245" lon="-1.7437526753163612"><ele>57.5</ele><time>2026-03-22T10:25:27.981Z</time></trkpt><trkpt lat="47.37652588821354" lon="-1.7436461874418292"><ele>58.0</ele><time>2026-03-22T10:25:29.981Z</time></trkpt><trkpt lat="47.376488563976565" lon="-1.7435316482179635"><ele>58.50000000000001</ele><time>2026-03-22T10:25:31.981Z</time></trkpt><trkpt lat="47.37644149842787" lon="-1.743423804210812"><ele>59.0</ele><time>2026-03-22T10:25:33.981Z</time></trkpt><trkpt lat="47.37639775006479" lon="-1.7433139420468682"><ele>59.400000000000006</ele><time>2026-03-22T10:25:35.981Z</time></trkpt><trkpt lat="47.37636203457122" lon="-1.7431980637338178"><ele>59.800000000000004</ele><time>2026-03-22T10:25:37.981Z</time></trkpt><trkpt lat="47.37632023892851" lon="-1.7430808055656206"><ele>60.199999999999996</ele><time>2026-03-22T10:25:39.981Z</time></trkpt><trkpt lat="47.37627768825944" lon="-1.7429634245790628"><ele>60.599999999999994</ele><time>2026-03-22T10:25:41.981Z</time></trkpt><trkpt lat="47.37623266431577" lon="-1.7428419724211095"><ele>61.0</ele><time>2026-03-22T10:25:43.981Z</time></trkpt><trkpt lat="47.37618836910903" lon="-1.7427209564367379"><ele>61.0</ele><time>2026-03-22T10:25:45.981Z</time></trkpt><trkpt lat="47.37613315450544" lon="-1.7425841085629308"><ele>60.99999999999999</ele><time>2026-03-22T10:25:47.981Z</time></trkpt><trkpt lat="47.376085392585544" lon="-1.7424478172029383"><ele>60.99999999999999</ele><time>2026-03-22T10:25:49.981Z</time></trkpt><trkpt lat="47.37604025291058" lon="-1.7423086762212947"><ele>61.0</ele><time>2026-03-22T10:25:51.981Z</time></trkpt><trkpt lat="47.37598162732848" lon="-1.7421552339821345"><ele>61.0</ele><time>2026-03-22T10:25:53.981Z</time></trkpt><trkpt lat="47.375918747908116" lon="-1.7420151005853064"><ele>61.0</ele><time>2026-03-22T10:25:55.981Z</time></trkpt><trkpt lat="47.37589077066846" lon="-1.741924977909423"><ele>60.99999999999999</ele><time>2026-03-22T10:25:56.981Z</time></trkpt><trkpt lat="47.37584160236116" lon="-1.7417601082513305"><ele>60.99999999999999</ele><time>2026-03-22T10:25:58.982Z</time></trkpt><trkpt lat="47.375804286896376" lon="-1.74167735852978"><ele>61.0</ele><time>2026-03-22T10:25:59.982Z</time></trkpt><trkpt lat="47.37574316249455" lon="-1.7415100579146174"><ele>61.0</ele><time>2026-03-22T10:26:01.983Z</time></trkpt><trkpt lat="47.37570765692608" lon="-1.7414244713095657"><ele>60.99999999999999</ele><time>2026-03-22T10:26:02.982Z</time></trkpt><trkpt lat="47.37567435700583" lon="-1.7413365449372407"><ele>61.0</ele><time>2026-03-22T10:26:03.982Z</time></trkpt><trkpt lat="47.37564271725893" lon="-1.7412477009250216"><ele>60.99999999999999</ele><time>2026-03-22T10:26:04.982Z</time></trkpt><trkpt lat="47.37560779535627" lon="-1.7411599040819894"><ele>60.99999999999999</ele><time>2026-03-22T10:26:05.982Z</time></trkpt><trkpt lat="47.37557938411458" lon="-1.7410719345849417"><ele>61.0</ele><time>2026-03-22T10:26:06.982Z</time></trkpt><trkpt lat="47.37554645934978" lon="-1.7409831696467775"><ele>60.99999999999999</ele><time>2026-03-22T10:26:07.983Z</time></trkpt><trkpt lat="47.37551278245514" lon="-1.7408949004258873"><ele>60.99999999999999</ele><time>2026-03-22T10:26:08.982Z</time></trkpt><trkpt lat="47.37547982706804" lon="-1.7408078185494391"><ele>61.14285714285714</ele><time>2026-03-22T10:26:09.982Z</time></trkpt><trkpt lat="47.37544383478297" lon="-1.7407178316306195"><ele>61.285714285714285</ele><time>2026-03-22T10:26:10.982Z</time></trkpt><trkpt lat="47.375415877357355" lon="-1.740629341636117"><ele>61.42857142857143</ele><time>2026-03-22T10:26:11.982Z</time></trkpt><trkpt lat="47.37538150144995" lon="-1.7405373650444032"><ele>61.57142857142857</ele><time>2026-03-22T10:26:12.982Z</time></trkpt><trkpt lat="47.37534583992072" lon="-1.7404432823938623"><ele>61.71428571428572</ele><time>2026-03-22T10:26:13.982Z</time></trkpt><trkpt lat="47.375313864637704" lon="-1.7403498935483517"><ele>61.85714285714286</ele><time>2026-03-22T10:26:14.982Z</time></trkpt><trkpt lat="47.37527583054793" lon="-1.7402573066108769"><ele>62.0</ele><time>2026-03-22T10:26:15.982Z</time></trkpt><trkpt lat="47.37524580092133" lon="-1.740163128278873"><ele>61.714285714285715</ele><time>2026-03-22T10:26:16.982Z</time></trkpt><trkpt lat="47.375206357914735" lon="-1.7400690719825331"><ele>61.42857142857143</ele><time>2026-03-22T10:26:17.982Z</time></trkpt><trkpt lat="47.37516769733808" lon="-1.739970038715816"><ele>61.142857142857146</ele><time>2026-03-22T10:26:18.982Z</time></trkpt><trkpt lat="47.37512965086834" lon="-1.7398766258756106"><ele>60.85714285714286</ele><time>2026-03-22T10:26:19.982Z</time></trkpt><trkpt lat="47.37509409865392" lon="-1.7397835378681756"><ele>60.57142857142857</ele><time>2026-03-22T10:26:20.982Z</time></trkpt><trkpt lat="47.375056493729446" lon="-1.7396911183772825"><ele>60.28571428571429</ele><time>2026-03-22T10:26:21.982Z</time></trkpt><trkpt lat="47.37501707547616" lon="-1.7395960682274352"><ele>60.0</ele><time>2026-03-22T10:26:22.982Z</time></trkpt><trkpt lat="47.3749716655297" lon="-1.7394977772053546"><ele>60.0</ele><time>2026-03-22T10:26:23.982Z</time></trkpt><trkpt lat="47.374925125119894" lon="-1.7394011387502142"><ele>60.0</ele><time>2026-03-22T10:26:24.982Z</time></trkpt><trkpt lat="47.37488417229554" lon="-1.7393034024440446"><ele>60.0</ele><time>2026-03-22T10:26:25.982Z</time></trkpt><trkpt lat="47.37484651239276" lon="-1.7392049905976559"><ele>60.0</ele><time>2026-03-22T10:26:26.982Z</time></trkpt><trkpt lat="47.374802546944785" lon="-1.7391058148495484"><ele>60.0</ele><time>2026-03-22T10:26:27.982Z</time></trkpt><trkpt lat="47.37475429517527" lon="-1.7390119453673283"><ele>60.0</ele><time>2026-03-22T10:26:28.982Z</time></trkpt><trkpt lat="47.37470721056027" lon="-1.738916507062691"><ele>60.166666666666664</ele><time>2026-03-22T10:26:29.982Z</time></trkpt><trkpt lat="47.37465962317649" lon="-1.7388248240644206"><ele>60.33333333333333</ele><time>2026-03-22T10:26:30.982Z</time></trkpt><trkpt lat="47.37461530729934" lon="-1.7387280596522867"><ele>60.5</ele><time>2026-03-22T10:26:31.982Z</time></trkpt><trkpt lat="47.374566395794744" lon="-1.7386336507456683"><ele>60.666666666666664</ele><time>2026-03-22T10:26:32.982Z</time></trkpt><trkpt lat="47.37451578011858" lon="-1.7385367725006422"><ele>60.83333333333333</ele><time>2026-03-22T10:26:33.982Z</time></trkpt><trkpt lat="47.37446500942179" lon="-1.7384374716961564"><ele>61.0</ele><time>2026-03-22T10:26:34.982Z</time></trkpt><trkpt lat="47.374407555771114" lon="-1.7383404036942383"><ele>60.49999999999999</ele><time>2026-03-22T10:26:35.982Z</time></trkpt><trkpt lat="47.374360071554094" lon="-1.7382413223933018"><ele>60.0</ele><time>2026-03-22T10:26:36.982Z</time></trkpt><trkpt lat="47.37430576502495" lon="-1.7381413480185002"><ele>59.5</ele><time>2026-03-22T10:26:37.982Z</time></trkpt><trkpt lat="47.37425088665512" lon="-1.7380387292245363"><ele>59.0</ele><time>2026-03-22T10:26:38.982Z</time></trkpt><trkpt lat="47.37418826801362" lon="-1.737940072786755"><ele>58.49999999999999</ele><time>2026-03-22T10:26:39.982Z</time></trkpt><trkpt lat="47.3741266339396" lon="-1.7378461420677542"><ele>58.0</ele><time>2026-03-22T10:26:40.982Z</time></trkpt><trkpt lat="47.37406152815234" lon="-1.7377522388924305"><ele>58.166666666666664</ele><time>2026-03-22T10:26:41.982Z</time></trkpt><trkpt lat="47.37400583471911" lon="-1.7376526804216241"><ele>58.33333333333333</ele><time>2026-03-22T10:26:42.982Z</time></trkpt><trkpt lat="47.37394520547502" lon="-1.7375572335731657"><ele>58.5</ele><time>2026-03-22T10:26:43.982Z</time></trkpt><trkpt lat="47.37388610583535" lon="-1.7374597765862774"><ele>58.66666666666667</ele><time>2026-03-22T10:26:44.982Z</time></trkpt><trkpt lat="47.37382304768062" lon="-1.7373630626126342"><ele>58.833333333333336</ele><time>2026-03-22T10:26:45.982Z</time></trkpt><trkpt lat="47.373766468529666" lon="-1.7372637723629885"><ele>59.0</ele><time>2026-03-22T10:26:46.982Z</time></trkpt><trkpt lat="47.37370550336577" lon="-1.7371652289065194"><ele>59.0</ele><time>2026-03-22T10:26:47.982Z</time></trkpt><trkpt lat="47.37363810325089" lon="-1.7370711108771089"><ele>59.00000000000001</ele><time>2026-03-22T10:26:48.982Z</time></trkpt><trkpt lat="47.3735817703597" lon="-1.7369608356791186"><ele>59.00000000000001</ele><time>2026-03-22T10:26:49.982Z</time></trkpt><trkpt lat="47.37352045948867" lon="-1.7368620239799355"><ele>59.0</ele><time>2026-03-22T10:26:50.982Z</time></trkpt><trkpt lat="47.37345742441939" lon="-1.736763566250087"><ele>59.0</ele><time>2026-03-22T10:26:51.982Z</time></trkpt><trkpt lat="47.373394328870255" lon="-1.7366631624729472"><ele>58.333333333333336</ele><time>2026-03-22T10:26:52.982Z</time></trkpt><trkpt lat="47.37333475231825" lon="-1.7365586439429066"><ele>57.66666666666667</ele><time>2026-03-22T10:26:53.982Z</time></trkpt><trkpt lat="47.37327575671824" lon="-1.736459458973173"><ele>57.0</ele><time>2026-03-22T10:26:54.982Z</time></trkpt><trkpt lat="47.373211216154246" lon="-1.736368169407725"><ele>56.33333333333333</ele><time>2026-03-22T10:26:55.982Z</time></trkpt><trkpt lat="47.373147085193864" lon="-1.7362724473239401"><ele>55.666666666666664</ele><time>2026-03-22T10:26:56.982Z</time></trkpt><trkpt lat="47.37309573422595" lon="-1.7361747415514874"><ele>55.0</ele><time>2026-03-22T10:26:57.982Z</time></trkpt><trkpt lat="47.37303480950323" lon="-1.736080209636009"><ele>55.33333333333333</ele><time>2026-03-22T10:26:58.982Z</time></trkpt><trkpt lat="47.372978795264146" lon="-1.7359893380006859"><ele>55.666666666666664</ele><time>2026-03-22T10:26:59.982Z</time></trkpt><trkpt lat="47.37292412412429" lon="-1.7358998667848253"><ele>56.0</ele><time>2026-03-22T10:27:00.982Z</time></trkpt><trkpt lat="47.37286833371701" lon="-1.7358094962352923"><ele>56.33333333333333</ele><time>2026-03-22T10:27:01.982Z</time></trkpt><trkpt lat="47.372810199751235" lon="-1.735722421067187"><ele>56.666666666666664</ele><time>2026-03-22T10:27:02.982Z</time></trkpt><trkpt lat="47.372758354733556" lon="-1.7356353803919873"><ele>57.0</ele><time>2026-03-22T10:27:03.982Z</time></trkpt><trkpt lat="47.37270484270738" lon="-1.7355522788777134"><ele>57.0</ele><time>2026-03-22T10:27:04.982Z</time></trkpt><trkpt lat="47.372656569162764" lon="-1.7354672654486571"><ele>56.99999999999999</ele><time>2026-03-22T10:27:05.982Z</time></trkpt><trkpt lat="47.37260621548794" lon="-1.735388004513127"><ele>57.0</ele><time>2026-03-22T10:27:06.982Z</time></trkpt><trkpt lat="47.37256001342703" lon="-1.7353032663255354"><ele>57.0</ele><time>2026-03-22T10:27:07.982Z</time></trkpt><trkpt lat="47.372512813440906" lon="-1.7352219483147284"><ele>56.99999999999999</ele><time>2026-03-22T10:27:08.982Z</time></trkpt><trkpt lat="47.37246694875209" lon="-1.7351413946913639"><ele>57.0</ele><time>2026-03-22T10:27:09.982Z</time></trkpt><trkpt lat="47.37241754470278" lon="-1.7350666004116735"><ele>57.0</ele><time>2026-03-22T10:27:10.982Z</time></trkpt><trkpt lat="47.37236901877552" lon="-1.7349899284806947"><ele>57.14285714285714</ele><time>2026-03-22T10:27:11.982Z</time></trkpt><trkpt lat="47.37232513065595" lon="-1.7349156140805222"><ele>57.28571428571428</ele><time>2026-03-22T10:27:12.982Z</time></trkpt><trkpt lat="47.37227828359366" lon="-1.734842172236796"><ele>57.42857142857143</ele><time>2026-03-22T10:27:13.982Z</time></trkpt><trkpt lat="47.37222816111108" lon="-1.7347690006792718"><ele>57.57142857142857</ele><time>2026-03-22T10:27:14.982Z</time></trkpt><trkpt lat="47.372185484641115" lon="-1.734698510555625"><ele>57.714285714285715</ele><time>2026-03-22T10:27:15.982Z</time></trkpt><trkpt lat="47.37214160267884" lon="-1.7346272304046129"><ele>57.85714285714286</ele><time>2026-03-22T10:27:16.982Z</time></trkpt><trkpt lat="47.37209903525643" lon="-1.734557829228884"><ele>58.00000000000001</ele><time>2026-03-22T10:27:17.982Z</time></trkpt><trkpt lat="47.372053478601515" lon="-1.7344836141461226"><ele>58.0</ele><time>2026-03-22T10:27:18.982Z</time></trkpt><trkpt lat="47.37197354275303" lon="-1.734337591497084"><ele>58.0</ele><time>2026-03-22T10:27:20.982Z</time></trkpt><trkpt lat="47.37189050002033" lon="-1.734202447581373"><ele>58.0</ele><time>2026-03-22T10:27:22.982Z</time></trkpt><trkpt lat="47.37181365264872" lon="-1.7340599189957504"><ele>58.0</ele><time>2026-03-22T10:27:24.982Z</time></trkpt><trkpt lat="47.37176367994084" lon="-1.7339971183372862"><ele>58.0</ele><time>2026-03-22T10:27:25.982Z</time></trkpt><trkpt lat="47.371714759833665" lon="-1.733929311451566"><ele>58.0</ele><time>2026-03-22T10:27:26.982Z</time></trkpt><trkpt lat="47.371667381439906" lon="-1.7338599125968432"><ele>58.0</ele><time>2026-03-22T10:27:27.982Z</time></trkpt><trkpt lat="47.37162515468669" lon="-1.733789245913338"><ele>58.0</ele><time>2026-03-22T10:27:28.982Z</time></trkpt><trkpt lat="47.37150263913655" lon="-1.7335860640531577"><ele>58.0</ele><time>2026-03-22T10:27:31.982Z</time></trkpt><trkpt lat="47.37141730217585" lon="-1.7334531300379648"><ele>58.0</ele><time>2026-03-22T10:27:33.982Z</time></trkpt><trkpt lat="47.371366474728106" lon="-1.733393453791225"><ele>58.4</ele><time>2026-03-22T10:27:34.982Z</time></trkpt><trkpt lat="47.37132029599572" lon="-1.733327325050021"><ele>58.8</ele><time>2026-03-22T10:27:35.982Z</time></trkpt><trkpt lat="47.37122829521569" lon="-1.733207484523165"><ele>59.2</ele><time>2026-03-22T10:27:37.982Z</time></trkpt><trkpt lat="47.37113556984655" lon="-1.7330928555137268"><ele>59.6</ele><time>2026-03-22T10:27:39.982Z</time></trkpt><trkpt lat="47.37104307033775" lon="-1.7329804181989887"><ele>60.0</ele><time>2026-03-22T10:27:41.982Z</time></trkpt><trkpt lat="47.37094792955414" lon="-1.7328783423203498"><ele>60.0</ele><time>2026-03-22T10:27:43.982Z</time></trkpt><trkpt lat="47.370851085293594" lon="-1.7327810195812658"><ele>60.0</ele><time>2026-03-22T10:27:45.981Z</time></trkpt><trkpt lat="47.37075710981195" lon="-1.7326879661875512"><ele>60.0</ele><time>2026-03-22T10:27:47.981Z</time></trkpt><trkpt lat="47.37065923924576" lon="-1.732594961665353"><ele>60.0</ele><time>2026-03-22T10:27:49.981Z</time></trkpt><trkpt lat="47.370559027392225" lon="-1.7325058291283972"><ele>60.25</ele><time>2026-03-22T10:27:51.981Z</time></trkpt><trkpt lat="47.37046810089404" lon="-1.7324175869397673"><ele>60.5</ele><time>2026-03-22T10:27:53.981Z</time></trkpt><trkpt lat="47.37036968202524" lon="-1.7323281996245354"><ele>60.75</ele><time>2026-03-22T10:27:55.981Z</time></trkpt><trkpt lat="47.3702714247366" lon="-1.732235452505261"><ele>61.0</ele><time>2026-03-22T10:27:57.981Z</time></trkpt><trkpt lat="47.37017311614087" lon="-1.7321451301683428"><ele>61.0</ele><time>2026-03-22T10:27:59.981Z</time></trkpt><trkpt lat="47.370075865060166" lon="-1.7320499659670885"><ele>61.0</ele><time>2026-03-22T10:28:01.981Z</time></trkpt><trkpt lat="47.36997337620322" lon="-1.7319616564913423"><ele>61.0</ele><time>2026-03-22T10:28:03.981Z</time></trkpt><trkpt lat="47.36987428500899" lon="-1.7318604291957331"><ele>61.0</ele><time>2026-03-22T10:28:05.982Z</time></trkpt><trkpt lat="47.369771907136624" lon="-1.7317708714588758"><ele>61.0</ele><time>2026-03-22T10:28:07.982Z</time></trkpt><trkpt lat="47.36971383461002" lon="-1.73173379685124"><ele>60.99999999999999</ele><time>2026-03-22T10:28:08.982Z</time></trkpt><trkpt lat="47.36961716371748" lon="-1.731629877529116"><ele>60.99999999999999</ele><time>2026-03-22T10:28:10.982Z</time></trkpt><trkpt lat="47.36951509318942" lon="-1.7315386893812603"><ele>61.0</ele><time>2026-03-22T10:28:12.982Z</time></trkpt><trkpt lat="47.36941286542787" lon="-1.7314385064911026"><ele>61.0</ele><time>2026-03-22T10:28:14.982Z</time></trkpt><trkpt lat="47.369360097278914" lon="-1.7313858318947593"><ele>61.199999999999996</ele><time>2026-03-22T10:28:15.982Z</time></trkpt><trkpt lat="47.36925313995356" lon="-1.7312869915857525"><ele>61.39999999999999</ele><time>2026-03-22T10:28:17.982Z</time></trkpt><trkpt lat="47.36915535431008" lon="-1.7311908336148891"><ele>61.6</ele><time>2026-03-22T10:28:19.982Z</time></trkpt><trkpt lat="47.36910176170707" lon="-1.7311379777340548"><ele>61.8</ele><time>2026-03-22T10:28:20.982Z</time></trkpt><trkpt lat="47.3689934751651" lon="-1.7310438498708343"><ele>62.0</ele><time>2026-03-22T10:28:22.982Z</time></trkpt><trkpt lat="47.3689373651817" lon="-1.7309920821212246"><ele>61.57142857142858</ele><time>2026-03-22T10:28:23.982Z</time></trkpt><trkpt lat="47.3688817124742" lon="-1.730940365998376"><ele>61.14285714285715</ele><time>2026-03-22T10:28:24.982Z</time></trkpt><trkpt lat="47.36882573132056" lon="-1.7308885120942286"><ele>60.714285714285715</ele><time>2026-03-22T10:28:25.982Z</time></trkpt><trkpt lat="47.36876883622592" lon="-1.7308312662980954"><ele>60.28571428571429</ele><time>2026-03-22T10:28:26.982Z</time></trkpt><trkpt lat="47.36870704470156" lon="-1.7307707329777349"><ele>59.85714285714286</ele><time>2026-03-22T10:28:27.982Z</time></trkpt><trkpt lat="47.368650706501825" lon="-1.7307132785723396"><ele>59.42857142857143</ele><time>2026-03-22T10:28:28.982Z</time></trkpt><trkpt lat="47.368590461586294" lon="-1.7306594977682517"><ele>59.0</ele><time>2026-03-22T10:28:29.982Z</time></trkpt><trkpt lat="47.36852935683462" lon="-1.7305970366178918"><ele>59.0</ele><time>2026-03-22T10:28:30.982Z</time></trkpt><trkpt lat="47.368465744403295" lon="-1.7305482888879165"><ele>59.0</ele><time>2026-03-22T10:28:31.982Z</time></trkpt><trkpt lat="47.36840316486014" lon="-1.730492568839177"><ele>59.0</ele><time>2026-03-22T10:28:32.982Z</time></trkpt><trkpt lat="47.36834336778947" lon="-1.7304325970956056"><ele>59.0</ele><time>2026-03-22T10:28:33.982Z</time></trkpt><trkpt lat="47.36827932898071" lon="-1.7303693324324767"><ele>59.0</ele><time>2026-03-22T10:28:34.982Z</time></trkpt><trkpt lat="47.36821658699661" lon="-1.7303080722217985"><ele>59.0</ele><time>2026-03-22T10:28:35.982Z</time></trkpt><trkpt lat="47.368151374145036" lon="-1.7302531839384157"><ele>59.0</ele><time>2026-03-22T10:28:36.982Z</time></trkpt><trkpt lat="47.368096391248294" lon="-1.730200536654071"><ele>59.00000000000001</ele><time>2026-03-22T10:28:37.982Z</time></trkpt><trkpt lat="47.36803579552706" lon="-1.7301501715649974"><ele>59.0</ele><time>2026-03-22T10:28:38.982Z</time></trkpt><trkpt lat="47.36797991189327" lon="-1.730095528946176"><ele>59.0</ele><time>2026-03-22T10:28:39.982Z</time></trkpt><trkpt lat="47.36792934126596" lon="-1.7300363273204502"><ele>59.0</ele><time>2026-03-22T10:28:40.982Z</time></trkpt><trkpt lat="47.36787509102058" lon="-1.7299853288645417"><ele>59.00000000000001</ele><time>2026-03-22T10:28:41.982Z</time></trkpt><trkpt lat="47.36777507266896" lon="-1.7298818644006013"><ele>59.0</ele><time>2026-03-22T10:28:43.982Z</time></trkpt><trkpt lat="47.36768148055467" lon="-1.7297832788619165"><ele>59.0</ele><time>2026-03-22T10:28:45.982Z</time></trkpt><trkpt lat="47.36758705176527" lon="-1.7297058801570333"><ele>59.00000000000001</ele><time>2026-03-22T10:28:47.982Z</time></trkpt><trkpt lat="47.367496476173216" lon="-1.7296179042365811"><ele>59.00000000000001</ele><time>2026-03-22T10:28:49.982Z</time></trkpt><trkpt lat="47.367419137583234" lon="-1.729534165473173"><ele>59.0</ele><time>2026-03-22T10:28:51.982Z</time></trkpt><trkpt lat="47.367335867401394" lon="-1.7294679248782454"><ele>59.0</ele><time>2026-03-22T10:28:53.982Z</time></trkpt><trkpt lat="47.367271208644205" lon="-1.7294001831815256"><ele>59.0</ele><time>2026-03-22T10:28:55.982Z</time></trkpt><trkpt lat="47.367207039720924" lon="-1.7293715217912227"><ele>59.00000000000001</ele><time>2026-03-22T10:28:57.982Z</time></trkpt><trkpt lat="47.367152926751196" lon="-1.72928836000167"><ele>59.00000000000001</ele><time>2026-03-22T10:29:00.982Z</time></trkpt><trkpt lat="47.36724475503045" lon="-1.729359679790538"><ele>59.0</ele><time>2026-03-22T10:29:03.982Z</time></trkpt><trkpt lat="47.367334077036595" lon="-1.729457002110971"><ele>59.0</ele><time>2026-03-22T10:29:05.982Z</time></trkpt><trkpt lat="47.367429748602945" lon="-1.7295368695859545"><ele>59.0</ele><time>2026-03-22T10:29:07.982Z</time></trkpt><trkpt lat="47.367525498664065" lon="-1.7296210587930263"><ele>59.00000000000001</ele><time>2026-03-22T10:29:09.982Z</time></trkpt><trkpt lat="47.36759945733154" lon="-1.7297061861752427"><ele>59.00000000000001</ele><time>2026-03-22T10:29:11.982Z</time></trkpt><trkpt lat="47.367683304755346" lon="-1.7297743932519276"><ele>59.0</ele><time>2026-03-22T10:29:13.982Z</time></trkpt><trkpt lat="47.367771125292265" lon="-1.7297844695380438"><ele>59.0</ele><time>2026-03-22T10:29:15.982Z</time></trkpt><trkpt lat="47.3678216981803" lon="-1.7297288100020667"><ele>59.0</ele><time>2026-03-22T10:29:16.982Z</time></trkpt><trkpt lat="47.367884725971194" lon="-1.729558101002409"><ele>59.00000000000001</ele><time>2026-03-22T10:29:18.982Z</time></trkpt><trkpt lat="47.36793968522999" lon="-1.729411375325801"><ele>59.00000000000001</ele><time>2026-03-22T10:29:20.982Z</time></trkpt><trkpt lat="47.3679968837034" lon="-1.7292818135900407"><ele>59.0</ele><time>2026-03-22T10:29:22.982Z</time></trkpt><trkpt lat="47.36802453554742" lon="-1.7291818665488259"><ele>59.0</ele><time>2026-03-22T10:29:24.982Z</time></trkpt><trkpt lat="47.36799469669618" lon="-1.7292935298883558"><ele>59.00000000000001</ele><time>2026-03-22T10:30:06.982Z</time></trkpt><trkpt lat="47.36795887173076" lon="-1.7293726545674197"><ele>59.0</ele><time>2026-03-22T10:30:08.982Z</time></trkpt><trkpt lat="47.36792086894954" lon="-1.7294740321403348"><ele>59.0</ele><time>2026-03-22T10:30:10.982Z</time></trkpt><trkpt lat="47.36788215923796" lon="-1.7295775255417987"><ele>59.0</ele><time>2026-03-22T10:30:12.983Z</time></trkpt><trkpt lat="47.3678434504446" lon="-1.729675334577502"><ele>59.00000000000001</ele><time>2026-03-22T10:30:14.982Z</time></trkpt><trkpt lat="47.3678155188027" lon="-1.7297682242447423"><ele>59.0</ele><time>2026-03-22T10:30:16.983Z</time></trkpt><trkpt lat="47.36772746564395" lon="-1.7298302340076486"><ele>59.0</ele><time>2026-03-22T10:30:20.983Z</time></trkpt><trkpt lat="47.36766363722557" lon="-1.7298101504114536"><ele>59.00000000000001</ele><time>2026-03-22T10:30:21.983Z</time></trkpt><trkpt lat="47.36755664010953" lon="-1.729835952050962"><ele>59.00000000000001</ele><time>2026-03-22T10:30:23.982Z</time></trkpt><trkpt lat="47.367439260386924" lon="-1.729852619773418"><ele>59.0</ele><time>2026-03-22T10:30:25.982Z</time></trkpt><trkpt lat="47.36732000453388" lon="-1.7298359617939367"><ele>59.0</ele><time>2026-03-22T10:30:27.982Z</time></trkpt><trkpt lat="47.36719729871167" lon="-1.7298237363228277"><ele>59.16666666666667</ele><time>2026-03-22T10:30:29.982Z</time></trkpt><trkpt lat="47.367132805134474" lon="-1.7298115211899416"><ele>59.333333333333336</ele><time>2026-03-22T10:30:30.982Z</time></trkpt><trkpt lat="47.36700807961187" lon="-1.7297957256682246"><ele>59.5</ele><time>2026-03-22T10:30:32.982Z</time></trkpt><trkpt lat="47.366943009826784" lon="-1.7297883996896486"><ele>59.66666666666667</ele><time>2026-03-22T10:30:33.982Z</time></trkpt><trkpt lat="47.36687869648184" lon="-1.7297855546324763"><ele>59.833333333333336</ele><time>2026-03-22T10:30:34.982Z</time></trkpt><trkpt lat="47.3667541520626" lon="-1.7297723195195833"><ele>60.0</ele><time>2026-03-22T10:30:36.982Z</time></trkpt><trkpt lat="47.36669115403475" lon="-1.7297685678907213"><ele>60.0</ele><time>2026-03-22T10:30:37.982Z</time></trkpt><trkpt lat="47.36656946110494" lon="-1.729755154914834"><ele>60.0</ele><time>2026-03-22T10:30:39.982Z</time></trkpt><trkpt lat="47.3665056585965" lon="-1.729747243910959"><ele>60.0</ele><time>2026-03-22T10:30:40.982Z</time></trkpt><trkpt lat="47.3663834284562" lon="-1.7297342191686669"><ele>60.0</ele><time>2026-03-22T10:30:42.982Z</time></trkpt><trkpt lat="47.36626541930902" lon="-1.7297178092765513"><ele>60.0</ele><time>2026-03-22T10:30:44.982Z</time></trkpt><trkpt lat="47.36614676630499" lon="-1.7297014298973292"><ele>60.25</ele><time>2026-03-22T10:30:46.982Z</time></trkpt><trkpt lat="47.36603243862248" lon="-1.7296897888003808"><ele>60.5</ele><time>2026-03-22T10:30:48.982Z</time></trkpt><trkpt lat="47.365915651106576" lon="-1.7296693912146166"><ele>60.75</ele><time>2026-03-22T10:30:50.982Z</time></trkpt><trkpt lat="47.36580340527068" lon="-1.72964844937917"><ele>61.0</ele><time>2026-03-22T10:30:52.982Z</time></trkpt><trkpt lat="47.36569132952789" lon="-1.7296300982459132"><ele>61.0</ele><time>2026-03-22T10:30:54.982Z</time></trkpt><trkpt lat="47.36558299173115" lon="-1.7296152766755493"><ele>60.99999999999999</ele><time>2026-03-22T10:30:56.982Z</time></trkpt><trkpt lat="47.36547058148348" lon="-1.729601828468886"><ele>60.99999999999999</ele><time>2026-03-22T10:30:58.982Z</time></trkpt><trkpt lat="47.36536369469128" lon="-1.7295914389234717"><ele>61.0</ele><time>2026-03-22T10:31:00.982Z</time></trkpt><trkpt lat="47.36526342751767" lon="-1.7295802042847261"><ele>61.0</ele><time>2026-03-22T10:31:02.982Z</time></trkpt><trkpt lat="47.36516268888193" lon="-1.7295701885502843"><ele>61.8</ele><time>2026-03-22T10:31:04.982Z</time></trkpt><trkpt lat="47.36506600289848" lon="-1.729555693929645"><ele>62.599999999999994</ele><time>2026-03-22T10:31:06.982Z</time></trkpt><trkpt lat="47.364972789043115" lon="-1.7295468378300456"><ele>63.4</ele><time>2026-03-22T10:31:08.982Z</time></trkpt><trkpt lat="47.364881502875875" lon="-1.7295268721994306"><ele>64.2</ele><time>2026-03-22T10:31:10.982Z</time></trkpt><trkpt lat="47.364784084914476" lon="-1.7295128128848918"><ele>65.0</ele><time>2026-03-22T10:31:12.982Z</time></trkpt><trkpt lat="47.3647000712902" lon="-1.7295041521998449"><ele>65.4</ele><time>2026-03-22T10:31:14.982Z</time></trkpt><trkpt lat="47.364598555568456" lon="-1.729495286632817"><ele>65.8</ele><time>2026-03-22T10:31:16.982Z</time></trkpt><trkpt lat="47.3645072780463" lon="-1.7294832393879993"><ele>66.2</ele><time>2026-03-22T10:31:18.982Z</time></trkpt><trkpt lat="47.36440694115464" lon="-1.7294756501923114"><ele>66.6</ele><time>2026-03-22T10:31:20.982Z</time></trkpt><trkpt lat="47.36430809544828" lon="-1.7294623479083842"><ele>67.0</ele><time>2026-03-22T10:31:22.982Z</time></trkpt><trkpt lat="47.36420012803184" lon="-1.7294505933570798"><ele>67.0</ele><time>2026-03-22T10:31:24.982Z</time></trkpt><trkpt lat="47.36409258579966" lon="-1.7294382391295309"><ele>67.0</ele><time>2026-03-22T10:31:26.982Z</time></trkpt><trkpt lat="47.36398591454123" lon="-1.7294199697906836"><ele>67.0</ele><time>2026-03-22T10:31:28.982Z</time></trkpt><trkpt lat="47.36387410808515" lon="-1.7294130560811523"><ele>67.0</ele><time>2026-03-22T10:31:30.982Z</time></trkpt><trkpt lat="47.36376058636148" lon="-1.729393571682472"><ele>67.0</ele><time>2026-03-22T10:31:32.982Z</time></trkpt><trkpt lat="47.36365291722997" lon="-1.729377724180897"><ele>67.6</ele><time>2026-03-22T10:31:34.982Z</time></trkpt><trkpt lat="47.36354308314938" lon="-1.7293512868563223"><ele>68.2</ele><time>2026-03-22T10:31:36.982Z</time></trkpt><trkpt lat="47.36347887137382" lon="-1.729358848112355"><ele>68.8</ele><time>2026-03-22T10:31:37.982Z</time></trkpt><trkpt lat="47.36337818973185" lon="-1.7293335489624977"><ele>69.4</ele><time>2026-03-22T10:31:39.982Z</time></trkpt><trkpt lat="47.36326743064703" lon="-1.729316200842473"><ele>70.0</ele><time>2026-03-22T10:31:41.982Z</time></trkpt><trkpt lat="47.36316161173345" lon="-1.7292992230957631"><ele>70.0</ele><time>2026-03-22T10:31:43.982Z</time></trkpt><trkpt lat="47.363055167713476" lon="-1.7292838051768344"><ele>70.0</ele><time>2026-03-22T10:31:45.982Z</time></trkpt><trkpt lat="47.362952864525056" lon="-1.7292715654614996"><ele>70.0</ele><time>2026-03-22T10:31:47.982Z</time></trkpt><trkpt lat="47.362851330524734" lon="-1.7292586382841129"><ele>70.0</ele><time>2026-03-22T10:31:49.982Z</time></trkpt><trkpt lat="47.36274925975131" lon="-1.7292509005251946"><ele>70.0</ele><time>2026-03-22T10:31:51.982Z</time></trkpt><trkpt lat="47.36265038449231" lon="-1.7292478343041024"><ele>70.4</ele><time>2026-03-22T10:31:53.982Z</time></trkpt><trkpt lat="47.36255009176568" lon="-1.7292444224256283"><ele>70.8</ele><time>2026-03-22T10:31:55.982Z</time></trkpt><trkpt lat="47.36244664101048" lon="-1.7292180452517765"><ele>71.2</ele><time>2026-03-22T10:31:57.982Z</time></trkpt><trkpt lat="47.362343589116186" lon="-1.7292179640931662"><ele>71.6</ele><time>2026-03-22T10:31:59.982Z</time></trkpt><trkpt lat="47.36223642277056" lon="-1.729203985892757"><ele>72.0</ele><time>2026-03-22T10:32:01.982Z</time></trkpt><trkpt lat="47.362131518691015" lon="-1.7291879232632852"><ele>72.2</ele><time>2026-03-22T10:32:03.982Z</time></trkpt><trkpt lat="47.362029152996115" lon="-1.72918177339802"><ele>72.4</ele><time>2026-03-22T10:32:05.982Z</time></trkpt><trkpt lat="47.361924015738715" lon="-1.7291522578941847"><ele>72.6</ele><time>2026-03-22T10:32:07.982Z</time></trkpt><trkpt lat="47.36181470703535" lon="-1.7291444479018203"><ele>72.8</ele><time>2026-03-22T10:32:09.982Z</time></trkpt><trkpt lat="47.361704590229486" lon="-1.7291332426080397"><ele>73.0</ele><time>2026-03-22T10:32:11.982Z</time></trkpt><trkpt lat="47.361597964148785" lon="-1.729122293044858"><ele>73.0</ele><time>2026-03-22T10:32:13.982Z</time></trkpt><trkpt lat="47.36148664209875" lon="-1.729108091264636"><ele>73.0</ele><time>2026-03-22T10:32:15.982Z</time></trkpt><trkpt lat="47.36137164388528" lon="-1.7290926208650343"><ele>73.0</ele><time>2026-03-22T10:32:17.983Z</time></trkpt><trkpt lat="47.36126245483602" lon="-1.729081137201059"><ele>73.0</ele><time>2026-03-22T10:32:19.983Z</time></trkpt><trkpt lat="47.3611463637764" lon="-1.7290729003676844"><ele>73.0</ele><time>2026-03-22T10:32:21.983Z</time></trkpt><trkpt lat="47.36103061145129" lon="-1.7290487034320774"><ele>73.0</ele><time>2026-03-22T10:32:23.983Z</time></trkpt><trkpt lat="47.360917702748964" lon="-1.7290369361737434"><ele>73.0</ele><time>2026-03-22T10:32:25.983Z</time></trkpt><trkpt lat="47.36079770005046" lon="-1.729022523611431"><ele>73.0</ele><time>2026-03-22T10:32:27.983Z</time></trkpt><trkpt lat="47.36067551552193" lon="-1.7289945644107962"><ele>73.0</ele><time>2026-03-22T10:32:29.983Z</time></trkpt><trkpt lat="47.360611289416994" lon="-1.7289869842172614"><ele>73.0</ele><time>2026-03-22T10:32:30.983Z</time></trkpt><trkpt lat="47.36050081514957" lon="-1.7289679332031167"><ele>73.0</ele><time>2026-03-22T10:32:32.983Z</time></trkpt><trkpt lat="47.36043677533406" lon="-1.7289509285717881"><ele>73.0</ele><time>2026-03-22T10:32:33.983Z</time></trkpt><trkpt lat="47.360372717549645" lon="-1.7289456627291337"><ele>73.0</ele><time>2026-03-22T10:32:34.983Z</time></trkpt><trkpt lat="47.36030179516419" lon="-1.7289372131525336"><ele>73.0</ele><time>2026-03-22T10:32:35.983Z</time></trkpt><trkpt lat="47.36023300182908" lon="-1.7289345466470223"><ele>73.0</ele><time>2026-03-22T10:32:36.983Z</time></trkpt><trkpt lat="47.360167293205734" lon="-1.7289258298537775"><ele>73.0</ele><time>2026-03-22T10:32:37.983Z</time></trkpt><trkpt lat="47.3601026224185" lon="-1.7289226617682794"><ele>73.0</ele><time>2026-03-22T10:32:38.983Z</time></trkpt><trkpt lat="47.36003732046083" lon="-1.728917701734456"><ele>73.0</ele><time>2026-03-22T10:32:39.983Z</time></trkpt><trkpt lat="47.35997191190253" lon="-1.7289113781678995"><ele>73.0</ele><time>2026-03-22T10:32:40.983Z</time></trkpt><trkpt lat="47.359905284831655" lon="-1.7289028225768013"><ele>73.0</ele><time>2026-03-22T10:32:41.983Z</time></trkpt><trkpt lat="47.35983574365266" lon="-1.7288919383508092"><ele>73.0</ele><time>2026-03-22T10:32:42.983Z</time></trkpt><trkpt lat="47.35976898036473" lon="-1.728882934587229"><ele>73.0</ele><time>2026-03-22T10:32:43.983Z</time></trkpt><trkpt lat="47.35970204000856" lon="-1.72888365929042"><ele>73.14285714285714</ele><time>2026-03-22T10:32:44.983Z</time></trkpt><trkpt lat="47.35963311891213" lon="-1.728889441063539"><ele>73.28571428571429</ele><time>2026-03-22T10:32:45.983Z</time></trkpt><trkpt lat="47.35956459788781" lon="-1.728878926890945"><ele>73.42857142857143</ele><time>2026-03-22T10:32:46.983Z</time></trkpt><trkpt lat="47.359498290400815" lon="-1.7288759868295862"><ele>73.57142857142857</ele><time>2026-03-22T10:32:47.983Z</time></trkpt><trkpt lat="47.35943139156719" lon="-1.7288831255833605"><ele>73.71428571428571</ele><time>2026-03-22T10:32:48.983Z</time></trkpt><trkpt lat="47.359361819406814" lon="-1.728882776467752"><ele>73.85714285714286</ele><time>2026-03-22T10:32:49.983Z</time></trkpt><trkpt lat="47.35929535498666" lon="-1.7288811823709056"><ele>74.0</ele><time>2026-03-22T10:32:50.983Z</time></trkpt><trkpt lat="47.35922804733153" lon="-1.7288898458538682"><ele>74.0</ele><time>2026-03-22T10:32:51.983Z</time></trkpt><trkpt lat="47.35915665008187" lon="-1.7288984220518846"><ele>74.0</ele><time>2026-03-22T10:32:52.983Z</time></trkpt><trkpt lat="47.35908995253908" lon="-1.7288989470721803"><ele>74.0</ele><time>2026-03-22T10:32:53.983Z</time></trkpt><trkpt lat="47.359021349433" lon="-1.7288980421528135"><ele>74.0</ele><time>2026-03-22T10:32:54.983Z</time></trkpt><trkpt lat="47.358953402919354" lon="-1.7289059989359383"><ele>74.0</ele><time>2026-03-22T10:32:55.983Z</time></trkpt><trkpt lat="47.358888150313064" lon="-1.7289191164501998"><ele>74.0</ele><time>2026-03-22T10:32:56.983Z</time></trkpt><trkpt lat="47.35881714183166" lon="-1.7289209405281174"><ele>74.0</ele><time>2026-03-22T10:32:57.983Z</time></trkpt><trkpt lat="47.35874766357937" lon="-1.7289283661869976"><ele>73.85714285714286</ele><time>2026-03-22T10:32:58.983Z</time></trkpt><trkpt lat="47.358679111633094" lon="-1.7289435326556817"><ele>73.71428571428571</ele><time>2026-03-22T10:32:59.983Z</time></trkpt><trkpt lat="47.35861208413772" lon="-1.7289459796723456"><ele>73.57142857142857</ele><time>2026-03-22T10:33:00.983Z</time></trkpt><trkpt lat="47.35854355976109" lon="-1.728954203957222"><ele>73.42857142857143</ele><time>2026-03-22T10:33:01.983Z</time></trkpt><trkpt lat="47.358472507247775" lon="-1.7289609561561687"><ele>73.28571428571429</ele><time>2026-03-22T10:33:02.983Z</time></trkpt><trkpt lat="47.35840511124398" lon="-1.728973521356554"><ele>73.14285714285714</ele><time>2026-03-22T10:33:03.983Z</time></trkpt><trkpt lat="47.358336641728584" lon="-1.7289781017468357"><ele>73.0</ele><time>2026-03-22T10:33:04.983Z</time></trkpt><trkpt lat="47.35826889279253" lon="-1.7289868268524624"><ele>73.0</ele><time>2026-03-22T10:33:05.983Z</time></trkpt><trkpt lat="47.3582028309156" lon="-1.7289987498560435"><ele>73.0</ele><time>2026-03-22T10:33:06.983Z</time></trkpt><trkpt lat="47.35813515921197" lon="-1.7290184574141327"><ele>73.0</ele><time>2026-03-22T10:33:07.983Z</time></trkpt><trkpt lat="47.35806838223669" lon="-1.7290280850346826"><ele>73.0</ele><time>2026-03-22T10:33:08.983Z</time></trkpt><trkpt lat="47.35799868356044" lon="-1.7290250459229142"><ele>73.0</ele><time>2026-03-22T10:33:09.983Z</time></trkpt><trkpt lat="47.35793188808396" lon="-1.729037493285857"><ele>73.0</ele><time>2026-03-22T10:33:10.983Z</time></trkpt><trkpt lat="47.357861698812435" lon="-1.7290470138987948"><ele>73.0</ele><time>2026-03-22T10:33:11.983Z</time></trkpt><trkpt lat="47.35779486483974" lon="-1.7290569476708562"><ele>73.33333333333333</ele><time>2026-03-22T10:33:12.983Z</time></trkpt><trkpt lat="47.35772891978683" lon="-1.7290614114166316"><ele>73.66666666666666</ele><time>2026-03-22T10:33:13.983Z</time></trkpt><trkpt lat="47.35766251931898" lon="-1.7290737524469326"><ele>74.0</ele><time>2026-03-22T10:33:14.983Z</time></trkpt><trkpt lat="47.35759066700618" lon="-1.7290825375041763"><ele>74.33333333333333</ele><time>2026-03-22T10:33:15.983Z</time></trkpt><trkpt lat="47.35745650744345" lon="-1.7290939053364096"><ele>74.66666666666667</ele><time>2026-03-22T10:33:17.983Z</time></trkpt><trkpt lat="47.35738721645526" lon="-1.7291146210769306"><ele>75.0</ele><time>2026-03-22T10:33:18.983Z</time></trkpt><trkpt lat="47.35732081636498" lon="-1.7291032067710241"><ele>74.99999999999999</ele><time>2026-03-22T10:33:19.983Z</time></trkpt><trkpt lat="47.35725430804893" lon="-1.7291104082224853"><ele>75.0</ele><time>2026-03-22T10:33:20.983Z</time></trkpt><trkpt lat="47.35718545934237" lon="-1.7291222404238233"><ele>75.0</ele><time>2026-03-22T10:33:21.983Z</time></trkpt><trkpt lat="47.35711724286491" lon="-1.7291301412473414"><ele>75.0</ele><time>2026-03-22T10:33:22.983Z</time></trkpt><trkpt lat="47.3570478764587" lon="-1.7291366684643288"><ele>75.0</ele><time>2026-03-22T10:33:23.983Z</time></trkpt><trkpt lat="47.356979432335244" lon="-1.7291441851889018"><ele>74.99999999999999</ele><time>2026-03-22T10:33:24.983Z</time></trkpt><trkpt lat="47.356909084455616" lon="-1.7291484088318194"><ele>75.0</ele><time>2026-03-22T10:33:25.983Z</time></trkpt><trkpt lat="47.35684278516296" lon="-1.7291605097413225"><ele>75.14285714285714</ele><time>2026-03-22T10:33:26.983Z</time></trkpt><trkpt lat="47.356772344236234" lon="-1.7291724094879712"><ele>75.28571428571428</ele><time>2026-03-22T10:33:27.983Z</time></trkpt><trkpt lat="47.35670040832555" lon="-1.7291790262977293"><ele>75.42857142857142</ele><time>2026-03-22T10:33:28.983Z</time></trkpt><trkpt lat="47.35663155085319" lon="-1.7291830233695347"><ele>75.57142857142857</ele><time>2026-03-22T10:33:29.983Z</time></trkpt><trkpt lat="47.35656169446312" lon="-1.729197009267926"><ele>75.71428571428572</ele><time>2026-03-22T10:33:30.983Z</time></trkpt><trkpt lat="47.356491023075556" lon="-1.7292095741777147"><ele>75.85714285714285</ele><time>2026-03-22T10:33:31.983Z</time></trkpt><trkpt lat="47.35641882829979" lon="-1.72921899098754"><ele>76.0</ele><time>2026-03-22T10:33:32.983Z</time></trkpt><trkpt lat="47.35634702442802" lon="-1.7292238039532593"><ele>76.0</ele><time>2026-03-22T10:33:33.983Z</time></trkpt><trkpt lat="47.35627513118358" lon="-1.7292389582654113"><ele>76.0</ele><time>2026-03-22T10:33:34.983Z</time></trkpt><trkpt lat="47.35620545947676" lon="-1.729251688241086"><ele>76.0</ele><time>2026-03-22T10:33:35.983Z</time></trkpt><trkpt lat="47.35613383693108" lon="-1.729259944687388"><ele>76.0</ele><time>2026-03-22T10:33:36.983Z</time></trkpt><trkpt lat="47.356062319196035" lon="-1.7292705171420302"><ele>76.0</ele><time>2026-03-22T10:33:37.983Z</time></trkpt><trkpt lat="47.35599160933403" lon="-1.7292813269604952"><ele>76.0</ele><time>2026-03-22T10:33:38.983Z</time></trkpt><trkpt lat="47.355921322642295" lon="-1.7292902250959792"><ele>76.0</ele><time>2026-03-22T10:33:39.983Z</time></trkpt><trkpt lat="47.35585110681427" lon="-1.7292987188103772"><ele>76.0</ele><time>2026-03-22T10:33:40.983Z</time></trkpt><trkpt lat="47.35578072310887" lon="-1.7293069189039108"><ele>76.0</ele><time>2026-03-22T10:33:41.983Z</time></trkpt><trkpt lat="47.35570702048503" lon="-1.7293122227424456"><ele>76.0</ele><time>2026-03-22T10:33:42.983Z</time></trkpt><trkpt lat="47.35563687125419" lon="-1.7293279794364584"><ele>76.0</ele><time>2026-03-22T10:33:43.983Z</time></trkpt><trkpt lat="47.35556443464615" lon="-1.7293376672501664"><ele>76.0</ele><time>2026-03-22T10:33:44.983Z</time></trkpt><trkpt lat="47.355496444737774" lon="-1.729350996696016"><ele>76.0</ele><time>2026-03-22T10:33:45.983Z</time></trkpt><trkpt lat="47.355422705094064" lon="-1.7293522526723002"><ele>76.0</ele><time>2026-03-22T10:33:46.983Z</time></trkpt><trkpt lat="47.355289471062335" lon="-1.7293699481123175"><ele>76.0</ele><time>2026-03-22T10:33:48.983Z</time></trkpt><trkpt lat="47.35521350382294" lon="-1.7293760277630912"><ele>76.0</ele><time>2026-03-22T10:33:49.983Z</time></trkpt><trkpt lat="47.35513860400335" lon="-1.7293847376170874"><ele>76.0</ele><time>2026-03-22T10:33:50.983Z</time></trkpt><trkpt lat="47.35506580699201" lon="-1.729392769019947"><ele>76.0</ele><time>2026-03-22T10:33:51.983Z</time></trkpt><trkpt lat="47.35499159173442" lon="-1.7293966835873387"><ele>76.0</ele><time>2026-03-22T10:33:52.983Z</time></trkpt><trkpt lat="47.35492031301231" lon="-1.7294094967458224"><ele>76.0</ele><time>2026-03-22T10:33:53.983Z</time></trkpt><trkpt lat="47.35485102721218" lon="-1.7294229301010273"><ele>76.0</ele><time>2026-03-22T10:33:54.982Z</time></trkpt><trkpt lat="47.35477737946463" lon="-1.729430254972309"><ele>76.0</ele><time>2026-03-22T10:33:55.982Z</time></trkpt><trkpt lat="47.354708932322254" lon="-1.729420428926193"><ele>76.0</ele><time>2026-03-22T10:33:56.982Z</time></trkpt><trkpt lat="47.354640387568494" lon="-1.7294247490646977"><ele>76.0</ele><time>2026-03-22T10:33:57.982Z</time></trkpt><trkpt lat="47.35456593941102" lon="-1.729443878705177"><ele>76.0</ele><time>2026-03-22T10:33:58.982Z</time></trkpt><trkpt lat="47.35449433569549" lon="-1.7294491576434095"><ele>76.0</ele><time>2026-03-22T10:33:59.982Z</time></trkpt><trkpt lat="47.35441999197186" lon="-1.72946155594358"><ele>76.0</ele><time>2026-03-22T10:34:00.982Z</time></trkpt><trkpt lat="47.354344246654016" lon="-1.7294774835090667"><ele>76.0</ele><time>2026-03-22T10:34:01.982Z</time></trkpt><trkpt lat="47.35427350585946" lon="-1.72948880347019"><ele>76.14285714285714</ele><time>2026-03-22T10:34:02.982Z</time></trkpt><trkpt lat="47.354200918219995" lon="-1.7294920578336144"><ele>76.28571428571429</ele><time>2026-03-22T10:34:03.982Z</time></trkpt><trkpt lat="47.35412878805089" lon="-1.7294949605016718"><ele>76.42857142857143</ele><time>2026-03-22T10:34:04.982Z</time></trkpt><trkpt lat="47.35405888482202" lon="-1.7295084324673196"><ele>76.57142857142857</ele><time>2026-03-22T10:34:05.982Z</time></trkpt><trkpt lat="47.35398983415119" lon="-1.7295297838909791"><ele>76.71428571428572</ele><time>2026-03-22T10:34:06.982Z</time></trkpt><trkpt lat="47.35392070534787" lon="-1.729553828472081"><ele>76.85714285714286</ele><time>2026-03-22T10:34:07.982Z</time></trkpt><trkpt lat="47.35385060350553" lon="-1.7295751584487726"><ele>77.0</ele><time>2026-03-22T10:34:08.982Z</time></trkpt><trkpt lat="47.353786366677184" lon="-1.7295955056477355"><ele>77.14285714285714</ele><time>2026-03-22T10:34:09.982Z</time></trkpt><trkpt lat="47.35371637768826" lon="-1.7296153095355182"><ele>77.28571428571428</ele><time>2026-03-22T10:34:10.982Z</time></trkpt><trkpt lat="47.35364988040212" lon="-1.7296368120977956"><ele>77.42857142857143</ele><time>2026-03-22T10:34:11.982Z</time></trkpt><trkpt lat="47.3535847699888" lon="-1.729663522564862"><ele>77.57142857142857</ele><time>2026-03-22T10:34:12.982Z</time></trkpt><trkpt lat="47.353521567452006" lon="-1.7296894916957612"><ele>77.71428571428571</ele><time>2026-03-22T10:34:13.982Z</time></trkpt><trkpt lat="47.35345411853742" lon="-1.729715103765934"><ele>77.85714285714286</ele><time>2026-03-22T10:34:14.982Z</time></trkpt><trkpt lat="47.3533897848586" lon="-1.7297392047921472"><ele>78.0</ele><time>2026-03-22T10:34:15.982Z</time></trkpt><trkpt lat="47.353323412916545" lon="-1.7297604171175187"><ele>78.0</ele><time>2026-03-22T10:34:16.982Z</time></trkpt><trkpt lat="47.353258851755086" lon="-1.7297796376789059"><ele>78.0</ele><time>2026-03-22T10:34:17.982Z</time></trkpt><trkpt lat="47.35319651789973" lon="-1.7298193306518548"><ele>78.0</ele><time>2026-03-22T10:34:18.982Z</time></trkpt><trkpt lat="47.35313293376126" lon="-1.7298355530349625"><ele>78.0</ele><time>2026-03-22T10:34:19.982Z</time></trkpt><trkpt lat="47.353065596092044" lon="-1.72985664910945"><ele>78.0</ele><time>2026-03-22T10:34:20.982Z</time></trkpt><trkpt lat="47.35300115789373" lon="-1.729883897100179"><ele>78.0</ele><time>2026-03-22T10:34:21.983Z</time></trkpt><trkpt lat="47.352936728889816" lon="-1.7299135337588216"><ele>78.0</ele><time>2026-03-22T10:34:22.982Z</time></trkpt><trkpt lat="47.35287072482336" lon="-1.729928761553019"><ele>77.85714285714286</ele><time>2026-03-22T10:34:23.982Z</time></trkpt><trkpt lat="47.35280510581624" lon="-1.7299439382649824"><ele>77.71428571428571</ele><time>2026-03-22T10:34:24.984Z</time></trkpt><trkpt lat="47.35273827927125" lon="-1.7299756840140317"><ele>77.57142857142857</ele><time>2026-03-22T10:34:25.983Z</time></trkpt><trkpt lat="47.35267214498183" lon="-1.7299955598740726"><ele>77.42857142857143</ele><time>2026-03-22T10:34:26.983Z</time></trkpt><trkpt lat="47.35260709728477" lon="-1.7300244057631153"><ele>77.28571428571428</ele><time>2026-03-22T10:34:27.984Z</time></trkpt><trkpt lat="47.35254068464294" lon="-1.730051481487299"><ele>77.14285714285714</ele><time>2026-03-22T10:34:28.983Z</time></trkpt><trkpt lat="47.35247650520773" lon="-1.7300760564337114"><ele>77.0</ele><time>2026-03-22T10:34:29.983Z</time></trkpt><trkpt lat="47.3524078931818" lon="-1.730090571086371"><ele>77.0</ele><time>2026-03-22T10:34:30.983Z</time></trkpt><trkpt lat="47.35234366401555" lon="-1.7301018777914696"><ele>77.0</ele><time>2026-03-22T10:34:31.983Z</time></trkpt><trkpt lat="47.35227951334528" lon="-1.7301097136716586"><ele>77.0</ele><time>2026-03-22T10:34:32.983Z</time></trkpt><trkpt lat="47.3522110148696" lon="-1.7301256936671745"><ele>77.0</ele><time>2026-03-22T10:34:33.983Z</time></trkpt><trkpt lat="47.352142793250515" lon="-1.7301384191602258"><ele>77.0</ele><time>2026-03-22T10:34:34.984Z</time></trkpt><trkpt lat="47.35207663081909" lon="-1.7301507171799062"><ele>77.0</ele><time>2026-03-22T10:34:35.984Z</time></trkpt><trkpt lat="47.352008909502224" lon="-1.7301618645783798"><ele>77.0</ele><time>2026-03-22T10:34:36.984Z</time></trkpt><trkpt lat="47.35194167351251" lon="-1.7301683585672227"><ele>77.28571428571429</ele><time>2026-03-22T10:34:37.984Z</time></trkpt><trkpt lat="47.351873676587054" lon="-1.7301822123046635"><ele>77.57142857142857</ele><time>2026-03-22T10:34:38.984Z</time></trkpt><trkpt lat="47.35180275924781" lon="-1.7301911460205543"><ele>77.85714285714286</ele><time>2026-03-22T10:34:39.984Z</time></trkpt><trkpt lat="47.35173387913279" lon="-1.7302064457323725"><ele>78.14285714285714</ele><time>2026-03-22T10:34:40.984Z</time></trkpt><trkpt lat="47.351664113435675" lon="-1.7302179018266262"><ele>78.42857142857143</ele><time>2026-03-22T10:34:41.984Z</time></trkpt><trkpt lat="47.351594854690475" lon="-1.7302288918141433"><ele>78.71428571428572</ele><time>2026-03-22T10:34:42.984Z</time></trkpt><trkpt lat="47.351527661763726" lon="-1.7302438177097472"><ele>79.0</ele><time>2026-03-22T10:34:43.984Z</time></trkpt><trkpt lat="47.3514548594326" lon="-1.7302523540220878"><ele>79.00000000000001</ele><time>2026-03-22T10:34:44.984Z</time></trkpt><trkpt lat="47.35138211631542" lon="-1.7302622248961665"><ele>79.0</ele><time>2026-03-22T10:34:45.984Z</time></trkpt><trkpt lat="47.351310063374896" lon="-1.730277834556039"><ele>79.0</ele><time>2026-03-22T10:34:46.984Z</time></trkpt><trkpt lat="47.35123537588171" lon="-1.7302849833172018"><ele>79.0</ele><time>2026-03-22T10:34:47.984Z</time></trkpt><trkpt lat="47.35116175471121" lon="-1.7302970152582995"><ele>79.0</ele><time>2026-03-22T10:34:48.984Z</time></trkpt><trkpt lat="47.35109396774561" lon="-1.7302988442567018"><ele>79.00000000000001</ele><time>2026-03-22T10:34:49.984Z</time></trkpt><trkpt lat="47.35101912257429" lon="-1.7303173404508903"><ele>79.0</ele><time>2026-03-22T10:34:50.984Z</time></trkpt><trkpt lat="47.35093934555223" lon="-1.7303308985365382"><ele>80.33333333333333</ele><time>2026-03-22T10:34:51.984Z</time></trkpt><trkpt lat="47.35086603905214" lon="-1.7303397130031735"><ele>81.66666666666666</ele><time>2026-03-22T10:34:52.984Z</time></trkpt><trkpt lat="47.35079364162746" lon="-1.7303530062792238"><ele>83.0</ele><time>2026-03-22T10:34:53.984Z</time></trkpt><trkpt lat="47.35071743661363" lon="-1.7303709792484228"><ele>84.33333333333333</ele><time>2026-03-22T10:34:54.984Z</time></trkpt><trkpt lat="47.350638770260225" lon="-1.7303865223428454"><ele>85.66666666666667</ele><time>2026-03-22T10:34:55.984Z</time></trkpt><trkpt lat="47.35055842653637" lon="-1.730402574189666"><ele>87.0</ele><time>2026-03-22T10:34:56.984Z</time></trkpt><trkpt lat="47.3504803228791" lon="-1.7304056465210162"><ele>87.16666666666667</ele><time>2026-03-22T10:34:57.984Z</time></trkpt><trkpt lat="47.35040088635185" lon="-1.7304183995397089"><ele>87.33333333333333</ele><time>2026-03-22T10:34:58.984Z</time></trkpt><trkpt lat="47.35032492726165" lon="-1.730441198132346"><ele>87.5</ele><time>2026-03-22T10:34:59.984Z</time></trkpt><trkpt lat="47.35025048323932" lon="-1.7304636238457893"><ele>87.66666666666666</ele><time>2026-03-22T10:35:00.984Z</time></trkpt><trkpt lat="47.35017289101457" lon="-1.7304751827420959"><ele>87.83333333333333</ele><time>2026-03-22T10:35:01.984Z</time></trkpt><trkpt lat="47.35009791131736" lon="-1.730481874943359"><ele>88.0</ele><time>2026-03-22T10:35:02.984Z</time></trkpt><trkpt lat="47.350018525664595" lon="-1.7304908004733843"><ele>88.0</ele><time>2026-03-22T10:35:03.984Z</time></trkpt><trkpt lat="47.349937842604554" lon="-1.7305099966581559"><ele>88.0</ele><time>2026-03-22T10:35:04.984Z</time></trkpt><trkpt lat="47.34986139849487" lon="-1.7305260055931013"><ele>88.0</ele><time>2026-03-22T10:35:05.984Z</time></trkpt><trkpt lat="47.34978084860907" lon="-1.7305335507593107"><ele>88.0</ele><time>2026-03-22T10:35:06.984Z</time></trkpt><trkpt lat="47.34970166251262" lon="-1.730547084179255"><ele>88.0</ele><time>2026-03-22T10:35:07.984Z</time></trkpt><trkpt lat="47.349622752766535" lon="-1.7305623062529103"><ele>88.0</ele><time>2026-03-22T10:35:08.984Z</time></trkpt><trkpt lat="47.34954821172417" lon="-1.7305764487784372"><ele>87.33333333333333</ele><time>2026-03-22T10:35:09.984Z</time></trkpt><trkpt lat="47.3494689986415" lon="-1.7305918346992144"><ele>86.66666666666666</ele><time>2026-03-22T10:35:10.984Z</time></trkpt><trkpt lat="47.349392699912244" lon="-1.7306092148778744"><ele>86.0</ele><time>2026-03-22T10:35:11.984Z</time></trkpt><trkpt lat="47.349315403654" lon="-1.7306252510798645"><ele>85.33333333333333</ele><time>2026-03-22T10:35:12.984Z</time></trkpt><trkpt lat="47.3492409855615" lon="-1.73064210655776"><ele>84.66666666666667</ele><time>2026-03-22T10:35:13.984Z</time></trkpt><trkpt lat="47.34916410777618" lon="-1.7306595844649981"><ele>84.0</ele><time>2026-03-22T10:35:14.984Z</time></trkpt><trkpt lat="47.34908971347955" lon="-1.7306754263343223"><ele>84.0</ele><time>2026-03-22T10:35:15.984Z</time></trkpt><trkpt lat="47.34901200104947" lon="-1.7306793236015208"><ele>84.0</ele><time>2026-03-22T10:35:16.984Z</time></trkpt><trkpt lat="47.34894164632691" lon="-1.7306956422069422"><ele>84.0</ele><time>2026-03-22T10:35:17.984Z</time></trkpt><trkpt lat="47.34887086348114" lon="-1.7307150241201366"><ele>84.0</ele><time>2026-03-22T10:35:18.984Z</time></trkpt><trkpt lat="47.34879907064396" lon="-1.7307203506468556"><ele>84.0</ele><time>2026-03-22T10:35:19.983Z</time></trkpt><trkpt lat="47.348729481254615" lon="-1.7307385881642372"><ele>84.0</ele><time>2026-03-22T10:35:20.983Z</time></trkpt><trkpt lat="47.348662457865984" lon="-1.7307513255419822"><ele>84.0</ele><time>2026-03-22T10:35:21.983Z</time></trkpt><trkpt lat="47.348596111181394" lon="-1.7307623815112918"><ele>83.57142857142857</ele><time>2026-03-22T10:35:22.983Z</time></trkpt><trkpt lat="47.348528031224916" lon="-1.7307724901903234"><ele>83.14285714285714</ele><time>2026-03-22T10:35:23.983Z</time></trkpt><trkpt lat="47.34846147395032" lon="-1.7307727503931065"><ele>82.71428571428572</ele><time>2026-03-22T10:35:24.983Z</time></trkpt><trkpt lat="47.34839702385682" lon="-1.7307734491316065"><ele>82.28571428571428</ele><time>2026-03-22T10:35:25.983Z</time></trkpt><trkpt lat="47.34832954688578" lon="-1.7307866294064889"><ele>81.85714285714286</ele><time>2026-03-22T10:35:26.983Z</time></trkpt><trkpt lat="47.3482590751249" lon="-1.7307914609483288"><ele>81.42857142857143</ele><time>2026-03-22T10:35:27.983Z</time></trkpt><trkpt lat="47.34819567495198" lon="-1.7307934514087389"><ele>81.0</ele><time>2026-03-22T10:35:28.983Z</time></trkpt><trkpt lat="47.348071006350445" lon="-1.7308083264605532"><ele>80.5</ele><time>2026-03-22T10:35:30.983Z</time></trkpt><trkpt lat="47.34794699493053" lon="-1.7308204488028114"><ele>80.0</ele><time>2026-03-22T10:35:32.983Z</time></trkpt><trkpt lat="47.3478841019646" lon="-1.7308267082764608"><ele>79.5</ele><time>2026-03-22T10:35:33.983Z</time></trkpt><trkpt lat="47.34781955016308" lon="-1.730826024986914"><ele>79.0</ele><time>2026-03-22T10:35:34.983Z</time></trkpt><trkpt lat="47.34775346945295" lon="-1.730830357593628"><ele>78.5</ele><time>2026-03-22T10:35:35.983Z</time></trkpt><trkpt lat="47.34763040831998" lon="-1.7308309550713825"><ele>78.0</ele><time>2026-03-22T10:35:37.983Z</time></trkpt><trkpt lat="47.347513026322325" lon="-1.7308348286146842"><ele>78.0</ele><time>2026-03-22T10:35:39.983Z</time></trkpt><trkpt lat="47.347416335571054" lon="-1.7308368321233514"><ele>78.0</ele><time>2026-03-22T10:35:41.983Z</time></trkpt><trkpt lat="47.34732248679804" lon="-1.7308421610806954"><ele>78.0</ele><time>2026-03-22T10:35:43.983Z</time></trkpt><trkpt lat="47.347217661224306" lon="-1.730846364776446"><ele>78.0</ele><time>2026-03-22T10:35:45.983Z</time></trkpt><trkpt lat="47.34709963801816" lon="-1.7308352151692885"><ele>78.0</ele><time>2026-03-22T10:35:47.983Z</time></trkpt><trkpt lat="47.347034580020754" lon="-1.730862368937514"><ele>78.33333333333333</ele><time>2026-03-22T10:35:48.983Z</time></trkpt><trkpt lat="47.34690822614501" lon="-1.7308539660371716"><ele>78.66666666666667</ele><time>2026-03-22T10:35:50.983Z</time></trkpt><trkpt lat="47.346842439740634" lon="-1.730857409606079"><ele>79.0</ele><time>2026-03-22T10:35:51.983Z</time></trkpt><trkpt lat="47.34677501955169" lon="-1.7308606641128308"><ele>79.33333333333334</ele><time>2026-03-22T10:35:52.983Z</time></trkpt><trkpt lat="47.34670789850419" lon="-1.7308760725137566"><ele>79.66666666666667</ele><time>2026-03-22T10:35:53.983Z</time></trkpt><trkpt lat="47.34663448075989" lon="-1.7308733617669798"><ele>80.0</ele><time>2026-03-22T10:35:54.983Z</time></trkpt><trkpt lat="47.34656347412855" lon="-1.730877929733795"><ele>80.0</ele><time>2026-03-22T10:35:55.983Z</time></trkpt><trkpt lat="47.34649068830206" lon="-1.7308755454232443"><ele>80.0</ele><time>2026-03-22T10:35:56.983Z</time></trkpt><trkpt lat="47.346420987539844" lon="-1.7308839146547714"><ele>80.0</ele><time>2026-03-22T10:35:57.983Z</time></trkpt><trkpt lat="47.34634710792276" lon="-1.7308884626303813"><ele>80.0</ele><time>2026-03-22T10:35:58.983Z</time></trkpt><trkpt lat="47.34627060273792" lon="-1.7308926612426736"><ele>80.0</ele><time>2026-03-22T10:35:59.983Z</time></trkpt><trkpt lat="47.3461989385219" lon="-1.7308927778831966"><ele>80.0</ele><time>2026-03-22T10:36:00.983Z</time></trkpt><trkpt lat="47.346120959511666" lon="-1.7309025454232108"><ele>80.0</ele><time>2026-03-22T10:36:01.983Z</time></trkpt><trkpt lat="47.34603950797987" lon="-1.7309090591206424"><ele>80.33333333333334</ele><time>2026-03-22T10:36:02.983Z</time></trkpt><trkpt lat="47.3459633019388" lon="-1.7309148741004816"><ele>80.66666666666667</ele><time>2026-03-22T10:36:03.983Z</time></trkpt><trkpt lat="47.34588851454321" lon="-1.7309295781299066"><ele>81.0</ele><time>2026-03-22T10:36:04.983Z</time></trkpt><trkpt lat="47.34581731492948" lon="-1.730947728826617"><ele>81.33333333333333</ele><time>2026-03-22T10:36:05.983Z</time></trkpt><trkpt lat="47.34573871796918" lon="-1.730947768156203"><ele>81.66666666666666</ele><time>2026-03-22T10:36:06.983Z</time></trkpt><trkpt lat="47.34566440353224" lon="-1.7309485210131608"><ele>82.0</ele><time>2026-03-22T10:36:07.983Z</time></trkpt><trkpt lat="47.34558188880158" lon="-1.7309494875217517"><ele>81.83333333333333</ele><time>2026-03-22T10:36:08.983Z</time></trkpt><trkpt lat="47.34550676199505" lon="-1.7309568653333656"><ele>81.66666666666666</ele><time>2026-03-22T10:36:09.983Z</time></trkpt><trkpt lat="47.34543324093447" lon="-1.7309592162843523"><ele>81.5</ele><time>2026-03-22T10:36:10.983Z</time></trkpt><trkpt lat="47.34535352688526" lon="-1.7309564193011784"><ele>81.33333333333333</ele><time>2026-03-22T10:36:11.983Z</time></trkpt><trkpt lat="47.345266184551775" lon="-1.7309671127976993"><ele>81.16666666666667</ele><time>2026-03-22T10:36:12.983Z</time></trkpt><trkpt lat="47.34518569321968" lon="-1.7309602208874637"><ele>81.0</ele><time>2026-03-22T10:36:13.983Z</time></trkpt><trkpt lat="47.34509843294513" lon="-1.730981118383037"><ele>81.0</ele><time>2026-03-22T10:36:14.983Z</time></trkpt><trkpt lat="47.34501322954982" lon="-1.730989189793997"><ele>81.0</ele><time>2026-03-22T10:36:15.983Z</time></trkpt><trkpt lat="47.344922921590445" lon="-1.7309984232517504"><ele>81.0</ele><time>2026-03-22T10:36:16.983Z</time></trkpt><trkpt lat="47.344835145381545" lon="-1.7309978155873602"><ele>81.0</ele><time>2026-03-22T10:36:17.983Z</time></trkpt><trkpt lat="47.34474859954242" lon="-1.731017856252938"><ele>81.0</ele><time>2026-03-22T10:36:18.983Z</time></trkpt><trkpt lat="47.34466103609139" lon="-1.7310237662532577"><ele>81.0</ele><time>2026-03-22T10:36:19.983Z</time></trkpt><trkpt lat="47.3445646112049" lon="-1.7310246089751395"><ele>80.39999999999999</ele><time>2026-03-22T10:36:20.983Z</time></trkpt><trkpt lat="47.34446927018043" lon="-1.7310336955640724"><ele>79.8</ele><time>2026-03-22T10:36:21.983Z</time></trkpt><trkpt lat="47.34437713101288" lon="-1.731043564318015"><ele>79.19999999999999</ele><time>2026-03-22T10:36:22.983Z</time></trkpt><trkpt lat="47.344275607599606" lon="-1.7310535942122856"><ele>78.6</ele><time>2026-03-22T10:36:23.983Z</time></trkpt><trkpt lat="47.344172605148515" lon="-1.7310599097122212"><ele>78.0</ele><time>2026-03-22T10:36:24.983Z</time></trkpt><trkpt lat="47.3440707937053" lon="-1.7310703213066294"><ele>76.8</ele><time>2026-03-22T10:36:25.983Z</time></trkpt><trkpt lat="47.3439701308727" lon="-1.731080249325096"><ele>75.6</ele><time>2026-03-22T10:36:26.983Z</time></trkpt><trkpt lat="47.34386719260407" lon="-1.7310834658187917"><ele>74.4</ele><time>2026-03-22T10:36:27.984Z</time></trkpt><trkpt lat="47.34376370521083" lon="-1.731090706275413"><ele>73.2</ele><time>2026-03-22T10:36:28.984Z</time></trkpt><trkpt lat="47.34365655460584" lon="-1.731097872878223"><ele>72.0</ele><time>2026-03-22T10:36:29.984Z</time></trkpt><trkpt lat="47.343551821983354" lon="-1.731099354743118"><ele>71.0</ele><time>2026-03-22T10:36:30.984Z</time></trkpt><trkpt lat="47.34345168968132" lon="-1.7311076246772699"><ele>70.0</ele><time>2026-03-22T10:36:31.983Z</time></trkpt><trkpt lat="47.34334696677975" lon="-1.7311207777157929"><ele>69.0</ele><time>2026-03-22T10:36:32.983Z</time></trkpt><trkpt lat="47.34324375812056" lon="-1.7311361281457869"><ele>68.0</ele><time>2026-03-22T10:36:33.983Z</time></trkpt><trkpt lat="47.343137342861375" lon="-1.7311467899269921"><ele>67.0</ele><time>2026-03-22T10:36:34.983Z</time></trkpt><trkpt lat="47.34303758967232" lon="-1.73114492045006"><ele>66.0</ele><time>2026-03-22T10:36:35.983Z</time></trkpt><trkpt lat="47.34292139543991" lon="-1.7311474266181106"><ele>65.0</ele><time>2026-03-22T10:36:36.983Z</time></trkpt><trkpt lat="47.34282026803484" lon="-1.7311571965880164"><ele>64.0</ele><time>2026-03-22T10:36:37.983Z</time></trkpt><trkpt lat="47.342718986126656" lon="-1.7311692237082053"><ele>63.0</ele><time>2026-03-22T10:36:38.983Z</time></trkpt><trkpt lat="47.34260760877985" lon="-1.7311735311740621"><ele>62.0</ele><time>2026-03-22T10:36:39.983Z</time></trkpt><trkpt lat="47.34250245806982" lon="-1.7311806353631307"><ele>62.0</ele><time>2026-03-22T10:36:40.983Z</time></trkpt><trkpt lat="47.342399318149255" lon="-1.7311844325880077"><ele>62.0</ele><time>2026-03-22T10:36:41.983Z</time></trkpt><trkpt lat="47.34229521794218" lon="-1.731184723718716"><ele>62.0</ele><time>2026-03-22T10:36:42.983Z</time></trkpt><trkpt lat="47.34219233542579" lon="-1.7311912669976002"><ele>62.0</ele><time>2026-03-22T10:36:43.983Z</time></trkpt><trkpt lat="47.34208138553376" lon="-1.7312013491636418"><ele>62.0</ele><time>2026-03-22T10:36:44.983Z</time></trkpt><trkpt lat="47.34197675464599" lon="-1.7312110478449867"><ele>62.0</ele><time>2026-03-22T10:36:45.983Z</time></trkpt><trkpt lat="47.341874860786554" lon="-1.7312292053202567"><ele>62.0</ele><time>2026-03-22T10:36:46.983Z</time></trkpt><trkpt lat="47.34177258391051" lon="-1.7312420714443684"><ele>62.0</ele><time>2026-03-22T10:36:47.983Z</time></trkpt><trkpt lat="47.34166989837685" lon="-1.7312601945206405"><ele>62.0</ele><time>2026-03-22T10:36:48.983Z</time></trkpt><trkpt lat="47.34157011677903" lon="-1.7312596033511731"><ele>62.0</ele><time>2026-03-22T10:36:49.983Z</time></trkpt><trkpt lat="47.34147299064952" lon="-1.7312649896263055"><ele>62.833333333333336</ele><time>2026-03-22T10:36:50.983Z</time></trkpt><trkpt lat="47.341381878200764" lon="-1.7312751626265888"><ele>63.66666666666667</ele><time>2026-03-22T10:36:51.983Z</time></trkpt><trkpt lat="47.341296329919345" lon="-1.731298135741162"><ele>64.5</ele><time>2026-03-22T10:36:52.983Z</time></trkpt><trkpt lat="47.341215989816895" lon="-1.7313227981446206"><ele>65.33333333333333</ele><time>2026-03-22T10:36:53.983Z</time></trkpt><trkpt lat="47.34114089735623" lon="-1.7313355198865026"><ele>66.16666666666666</ele><time>2026-03-22T10:36:54.983Z</time></trkpt><trkpt lat="47.34106615138734" lon="-1.7313684159845408"><ele>67.0</ele><time>2026-03-22T10:36:55.983Z</time></trkpt><trkpt lat="47.34099884390612" lon="-1.7313956617663213"><ele>67.0</ele><time>2026-03-22T10:36:56.983Z</time></trkpt><trkpt lat="47.34087736671712" lon="-1.7314526987117682"><ele>67.0</ele><time>2026-03-22T10:36:58.983Z</time></trkpt><trkpt lat="47.34081459936819" lon="-1.73148780191346"><ele>67.0</ele><time>2026-03-22T10:36:59.983Z</time></trkpt><trkpt lat="47.340752150703814" lon="-1.731529978351809"><ele>67.0</ele><time>2026-03-22T10:37:00.983Z</time></trkpt><trkpt lat="47.3406355118391" lon="-1.73158764775727"><ele>67.0</ele><time>2026-03-22T10:37:02.983Z</time></trkpt><trkpt lat="47.34052226313292" lon="-1.7316476831617849"><ele>67.4</ele><time>2026-03-22T10:37:04.983Z</time></trkpt><trkpt lat="47.34042808446919" lon="-1.7317021978152407"><ele>67.80000000000001</ele><time>2026-03-22T10:37:06.983Z</time></trkpt><trkpt lat="47.340336672643765" lon="-1.7317529359984662"><ele>68.2</ele><time>2026-03-22T10:37:08.983Z</time></trkpt><trkpt lat="47.3402541457084" lon="-1.7318140190599736"><ele>68.60000000000001</ele><time>2026-03-22T10:37:10.983Z</time></trkpt><trkpt lat="47.340173213111" lon="-1.7318651134579577"><ele>69.0</ele><time>2026-03-22T10:37:12.983Z</time></trkpt><trkpt lat="47.34008877964133" lon="-1.7319146166809962"><ele>69.33333333333333</ele><time>2026-03-22T10:37:14.983Z</time></trkpt><trkpt lat="47.34000806440756" lon="-1.7319642568295046"><ele>69.66666666666667</ele><time>2026-03-22T10:37:16.983Z</time></trkpt><trkpt lat="47.33992839761111" lon="-1.7320238531746834"><ele>70.0</ele><time>2026-03-22T10:37:18.983Z</time></trkpt><trkpt lat="47.33984974955593" lon="-1.732081773618079"><ele>70.33333333333334</ele><time>2026-03-22T10:37:20.983Z</time></trkpt><trkpt lat="47.33977067880015" lon="-1.7321396161434068"><ele>70.66666666666667</ele><time>2026-03-22T10:37:22.983Z</time></trkpt><trkpt lat="47.33969016725199" lon="-1.7322004714162398"><ele>71.0</ele><time>2026-03-22T10:37:24.983Z</time></trkpt><trkpt lat="47.339605987890074" lon="-1.73225268895707"><ele>71.2</ele><time>2026-03-22T10:37:26.983Z</time></trkpt><trkpt lat="47.339523047731966" lon="-1.7323127766205786"><ele>71.39999999999999</ele><time>2026-03-22T10:37:28.983Z</time></trkpt><trkpt lat="47.339438923111835" lon="-1.7323703462570261"><ele>71.6</ele><time>2026-03-22T10:37:30.983Z</time></trkpt><trkpt lat="47.339347864355894" lon="-1.7324204855664316"><ele>71.8</ele><time>2026-03-22T10:37:32.983Z</time></trkpt><trkpt lat="47.33925460553911" lon="-1.7324694462170456"><ele>72.0</ele><time>2026-03-22T10:37:34.983Z</time></trkpt><trkpt lat="47.33915905543492" lon="-1.7325215395667997"><ele>72.0</ele><time>2026-03-22T10:37:36.983Z</time></trkpt><trkpt lat="47.33905835762684" lon="-1.7325830205934853"><ele>72.0</ele><time>2026-03-22T10:37:38.983Z</time></trkpt><trkpt lat="47.338952143202235" lon="-1.7326284582468126"><ele>72.0</ele><time>2026-03-22T10:37:40.983Z</time></trkpt><trkpt lat="47.338847183146335" lon="-1.732677446748756"><ele>72.0</ele><time>2026-03-22T10:37:42.983Z</time></trkpt><trkpt lat="47.33873574816492" lon="-1.7327117547209887"><ele>72.0</ele><time>2026-03-22T10:37:44.983Z</time></trkpt><trkpt lat="47.33862157837289" lon="-1.7327630312054223"><ele>72.4</ele><time>2026-03-22T10:37:46.983Z</time></trkpt><trkpt lat="47.33851222008847" lon="-1.7328064574493216"><ele>72.80000000000001</ele><time>2026-03-22T10:37:48.983Z</time></trkpt><trkpt lat="47.338401162769955" lon="-1.732841755351582"><ele>73.2</ele><time>2026-03-22T10:37:50.983Z</time></trkpt><trkpt lat="47.338338104811406" lon="-1.7328551445287472"><ele>73.60000000000001</ele><time>2026-03-22T10:37:51.983Z</time></trkpt><trkpt lat="47.33822557022496" lon="-1.732885420628947"><ele>74.0</ele><time>2026-03-22T10:37:53.983Z</time></trkpt><trkpt lat="47.33810740348829" lon="-1.7329281782317119"><ele>74.2</ele><time>2026-03-22T10:37:55.983Z</time></trkpt><trkpt lat="47.33799919040473" lon="-1.7329589435064057"><ele>74.4</ele><time>2026-03-22T10:37:57.983Z</time></trkpt><trkpt lat="47.337887446959805" lon="-1.7329873436642627"><ele>74.6</ele><time>2026-03-22T10:37:59.983Z</time></trkpt><trkpt lat="47.33778811551063" lon="-1.7330229844568907"><ele>74.8</ele><time>2026-03-22T10:38:01.983Z</time></trkpt><trkpt lat="47.33767755943365" lon="-1.733059006308602"><ele>75.0</ele><time>2026-03-22T10:38:03.983Z</time></trkpt><trkpt lat="47.337560381275566" lon="-1.7330848413164044"><ele>75.0</ele><time>2026-03-22T10:38:05.983Z</time></trkpt><trkpt lat="47.33744106580858" lon="-1.733116251192646"><ele>75.0</ele><time>2026-03-22T10:38:07.983Z</time></trkpt><trkpt lat="47.33733178698482" lon="-1.7331445161503651"><ele>75.0</ele><time>2026-03-22T10:38:09.983Z</time></trkpt><trkpt lat="47.337219304809864" lon="-1.7331810242721726"><ele>75.0</ele><time>2026-03-22T10:38:11.983Z</time></trkpt><trkpt lat="47.33711222372724" lon="-1.7332149756050814"><ele>75.4</ele><time>2026-03-22T10:38:13.983Z</time></trkpt><trkpt lat="47.33698911654982" lon="-1.7332277673213752"><ele>75.8</ele><time>2026-03-22T10:38:15.983Z</time></trkpt><trkpt lat="47.33688120314938" lon="-1.733267626795069"><ele>76.2</ele><time>2026-03-22T10:38:17.983Z</time></trkpt><trkpt lat="47.3367754089803" lon="-1.733290957896617"><ele>76.6</ele><time>2026-03-22T10:38:19.983Z</time></trkpt><trkpt lat="47.336678222780826" lon="-1.733324231677382"><ele>77.0</ele><time>2026-03-22T10:38:21.983Z</time></trkpt><trkpt lat="47.336610601927475" lon="-1.733341162371197"><ele>77.0</ele><time>2026-03-22T10:38:22.983Z</time></trkpt><trkpt lat="47.33654662853452" lon="-1.7333449266402494"><ele>77.0</ele><time>2026-03-22T10:38:23.983Z</time></trkpt><trkpt lat="47.33648170943409" lon="-1.7333701380648752"><ele>77.0</ele><time>2026-03-22T10:38:24.983Z</time></trkpt><trkpt lat="47.336407297648" lon="-1.7333978208278127"><ele>77.0</ele><time>2026-03-22T10:38:25.983Z</time></trkpt><trkpt lat="47.33633661599336" lon="-1.7334279513647748"><ele>77.0</ele><time>2026-03-22T10:38:26.983Z</time></trkpt><trkpt lat="47.33627058520623" lon="-1.7334497067467023"><ele>77.0</ele><time>2026-03-22T10:38:27.983Z</time></trkpt><trkpt lat="47.33620015905308" lon="-1.7334841229643208"><ele>77.0</ele><time>2026-03-22T10:38:28.983Z</time></trkpt><trkpt lat="47.33613713507178" lon="-1.7335189790240322"><ele>76.83333333333334</ele><time>2026-03-22T10:38:29.983Z</time></trkpt><trkpt lat="47.336068951535935" lon="-1.7335434134974865"><ele>76.66666666666667</ele><time>2026-03-22T10:38:30.983Z</time></trkpt><trkpt lat="47.33598720854236" lon="-1.7335603454468025"><ele>76.5</ele><time>2026-03-22T10:38:31.983Z</time></trkpt><trkpt lat="47.3359196201235" lon="-1.733595573364244"><ele>76.33333333333333</ele><time>2026-03-22T10:38:32.983Z</time></trkpt><trkpt lat="47.33584464334507" lon="-1.7336314852986106"><ele>76.16666666666666</ele><time>2026-03-22T10:38:33.985Z</time></trkpt><trkpt lat="47.33576783398321" lon="-1.7336603150737102"><ele>76.0</ele><time>2026-03-22T10:38:34.984Z</time></trkpt><trkpt lat="47.33569093560404" lon="-1.7336934698601218"><ele>75.16666666666666</ele><time>2026-03-22T10:38:35.984Z</time></trkpt><trkpt lat="47.33561284266076" lon="-1.733736533873041"><ele>74.33333333333333</ele><time>2026-03-22T10:38:36.984Z</time></trkpt><trkpt lat="47.33553719468728" lon="-1.7337823795560072"><ele>73.5</ele><time>2026-03-22T10:38:37.984Z</time></trkpt><trkpt lat="47.335464141948684" lon="-1.7338315384725889"><ele>72.66666666666667</ele><time>2026-03-22T10:38:38.984Z</time></trkpt><trkpt lat="47.33539674470103" lon="-1.7338861614142445"><ele>71.83333333333334</ele><time>2026-03-22T10:38:39.984Z</time></trkpt><trkpt lat="47.33532512210337" lon="-1.733937308399971"><ele>71.0</ele><time>2026-03-22T10:38:40.984Z</time></trkpt><trkpt lat="47.33526692241307" lon="-1.7339747309370472"><ele>70.83333333333334</ele><time>2026-03-22T10:38:41.984Z</time></trkpt><trkpt lat="47.33519583365815" lon="-1.7340159820440024"><ele>70.66666666666667</ele><time>2026-03-22T10:38:42.984Z</time></trkpt><trkpt lat="47.33512276374273" lon="-1.7340766612940266"><ele>70.5</ele><time>2026-03-22T10:38:43.984Z</time></trkpt><trkpt lat="47.33505221063117" lon="-1.73412525292717"><ele>70.33333333333333</ele><time>2026-03-22T10:38:44.984Z</time></trkpt><trkpt lat="47.33499558433777" lon="-1.734177261718727"><ele>70.16666666666666</ele><time>2026-03-22T10:38:45.984Z</time></trkpt><trkpt lat="47.33492857120283" lon="-1.73423445189015"><ele>70.0</ele><time>2026-03-22T10:38:46.984Z</time></trkpt><trkpt lat="47.33485965668662" lon="-1.7342779053780037"><ele>70.0</ele><time>2026-03-22T10:38:47.984Z</time></trkpt><trkpt lat="47.33478662225992" lon="-1.7343262549068224"><ele>70.0</ele><time>2026-03-22T10:38:48.984Z</time></trkpt><trkpt lat="47.33471869144972" lon="-1.7343729800343533"><ele>70.0</ele><time>2026-03-22T10:38:49.984Z</time></trkpt><trkpt lat="47.33464996309718" lon="-1.7344271944461525"><ele>70.0</ele><time>2026-03-22T10:38:50.984Z</time></trkpt><trkpt lat="47.33458496740105" lon="-1.7344861497367328"><ele>70.0</ele><time>2026-03-22T10:38:51.984Z</time></trkpt><trkpt lat="47.33451394474335" lon="-1.7345376173578237"><ele>70.0</ele><time>2026-03-22T10:38:52.984Z</time></trkpt><trkpt lat="47.3344415128123" lon="-1.7345867910711583"><ele>70.16666666666666</ele><time>2026-03-22T10:38:53.984Z</time></trkpt><trkpt lat="47.33436719829915" lon="-1.7346372576683657"><ele>70.33333333333333</ele><time>2026-03-22T10:38:54.984Z</time></trkpt><trkpt lat="47.33429530698635" lon="-1.7346884603532624"><ele>70.5</ele><time>2026-03-22T10:38:55.984Z</time></trkpt><trkpt lat="47.334222421436536" lon="-1.7347395732419693"><ele>70.66666666666667</ele><time>2026-03-22T10:38:56.984Z</time></trkpt><trkpt lat="47.3341462384414" lon="-1.734781833888736"><ele>70.83333333333334</ele><time>2026-03-22T10:38:57.984Z</time></trkpt><trkpt lat="47.334070475490655" lon="-1.7348196243638239"><ele>71.0</ele><time>2026-03-22T10:38:58.984Z</time></trkpt><trkpt lat="47.33399710242551" lon="-1.7348640779810596"><ele>71.0</ele><time>2026-03-22T10:38:59.984Z</time></trkpt><trkpt lat="47.333915706256676" lon="-1.7349080349408568"><ele>71.0</ele><time>2026-03-22T10:39:00.984Z</time></trkpt><trkpt lat="47.33383639607637" lon="-1.734941217612525"><ele>71.0</ele><time>2026-03-22T10:39:01.984Z</time></trkpt><trkpt lat="47.3337497007802" lon="-1.7349975457571598"><ele>71.0</ele><time>2026-03-22T10:39:02.984Z</time></trkpt><trkpt lat="47.333660874065295" lon="-1.7350416405972227"><ele>71.0</ele><time>2026-03-22T10:39:03.984Z</time></trkpt><trkpt lat="47.33357299280799" lon="-1.735094400753272"><ele>69.8</ele><time>2026-03-22T10:39:04.984Z</time></trkpt><trkpt lat="47.3334867489237" lon="-1.735144780573749"><ele>68.6</ele><time>2026-03-22T10:39:05.984Z</time></trkpt><trkpt lat="47.3333944648146" lon="-1.7351886881462537"><ele>67.4</ele><time>2026-03-22T10:39:06.984Z</time></trkpt><trkpt lat="47.33330092884029" lon="-1.7352376623168848"><ele>66.2</ele><time>2026-03-22T10:39:07.984Z</time></trkpt><trkpt lat="47.33320965126939" lon="-1.7352904788315604"><ele>65.0</ele><time>2026-03-22T10:39:08.984Z</time></trkpt><trkpt lat="47.33311563794512" lon="-1.7353422881689098"><ele>64.0</ele><time>2026-03-22T10:39:09.984Z</time></trkpt><trkpt lat="47.33302003579785" lon="-1.7353906536934278"><ele>63.0</ele><time>2026-03-22T10:39:10.984Z</time></trkpt><trkpt lat="47.33291969205027" lon="-1.7354528707465646"><ele>62.0</ele><time>2026-03-22T10:39:11.984Z</time></trkpt><trkpt lat="47.332824989649545" lon="-1.7354984614172702"><ele>61.0</ele><time>2026-03-22T10:39:12.984Z</time></trkpt><trkpt lat="47.33272486139765" lon="-1.7355377065538806"><ele>60.0</ele><time>2026-03-22T10:39:13.984Z</time></trkpt><trkpt lat="47.33262651259458" lon="-1.7355856845446078"><ele>60.0</ele><time>2026-03-22T10:39:14.984Z</time></trkpt><trkpt lat="47.33252848645397" lon="-1.7356081142683875"><ele>60.0</ele><time>2026-03-22T10:39:15.984Z</time></trkpt><trkpt lat="47.33242690161437" lon="-1.7356345772850303"><ele>60.0</ele><time>2026-03-22T10:39:16.984Z</time></trkpt><trkpt lat="47.33231447303252" lon="-1.7356427305415567"><ele>60.0</ele><time>2026-03-22T10:39:17.984Z</time></trkpt><trkpt lat="47.33220074410527" lon="-1.7356468187268164"><ele>60.0</ele><time>2026-03-22T10:39:18.984Z</time></trkpt><trkpt lat="47.332088959089916" lon="-1.7356681453140308"><ele>58.25</ele><time>2026-03-22T10:39:19.984Z</time></trkpt><trkpt lat="47.33197721325844" lon="-1.7356796799197243"><ele>56.5</ele><time>2026-03-22T10:39:20.984Z</time></trkpt><trkpt lat="47.33186201773748" lon="-1.7356912914744431"><ele>54.75</ele><time>2026-03-22T10:39:21.984Z</time></trkpt><trkpt lat="47.33174775880968" lon="-1.7356976322794826"><ele>53.0</ele><time>2026-03-22T10:39:22.984Z</time></trkpt><trkpt lat="47.33163027502707" lon="-1.7357100701469381"><ele>53.0</ele><time>2026-03-22T10:39:23.984Z</time></trkpt><trkpt lat="47.331510631653614" lon="-1.735721124474698"><ele>53.0</ele><time>2026-03-22T10:39:24.984Z</time></trkpt><trkpt lat="47.3313928973558" lon="-1.7357340193617803"><ele>53.0</ele><time>2026-03-22T10:39:25.984Z</time></trkpt><trkpt lat="47.33127016005328" lon="-1.7357514494583797"><ele>53.0</ele><time>2026-03-22T10:39:26.984Z</time></trkpt><trkpt lat="47.331151185195736" lon="-1.7357543478250186"><ele>51.75</ele><time>2026-03-22T10:39:27.984Z</time></trkpt><trkpt lat="47.331034049903145" lon="-1.7357410525537826"><ele>50.5</ele><time>2026-03-22T10:39:28.984Z</time></trkpt><trkpt lat="47.33091591619989" lon="-1.735704613444586"><ele>49.25</ele><time>2026-03-22T10:39:29.984Z</time></trkpt><trkpt lat="47.33079857181257" lon="-1.7356488914453656"><ele>48.0</ele><time>2026-03-22T10:39:30.984Z</time></trkpt><trkpt lat="47.330680591950475" lon="-1.735584060184184"><ele>48.0</ele><time>2026-03-22T10:39:31.984Z</time></trkpt><trkpt lat="47.33056662949932" lon="-1.7355132032428122"><ele>48.0</ele><time>2026-03-22T10:39:32.984Z</time></trkpt><trkpt lat="47.33045594759274" lon="-1.7354520126545672"><ele>48.0</ele><time>2026-03-22T10:39:33.984Z</time></trkpt><trkpt lat="47.330348469102574" lon="-1.7354079219711562"><ele>48.0</ele><time>2026-03-22T10:39:34.984Z</time></trkpt><trkpt lat="47.33024035746336" lon="-1.7353956225922382"><ele>48.0</ele><time>2026-03-22T10:39:35.984Z</time></trkpt><trkpt lat="47.3301318168891" lon="-1.7354129004485774"><ele>48.0</ele><time>2026-03-22T10:39:36.984Z</time></trkpt><trkpt lat="47.3300280398983" lon="-1.7354568414328124"><ele>48.0</ele><time>2026-03-22T10:39:37.984Z</time></trkpt><trkpt lat="47.32993050680765" lon="-1.7355191730494925"><ele>48.0</ele><time>2026-03-22T10:39:38.984Z</time></trkpt><trkpt lat="47.32984794864764" lon="-1.7355823005590745"><ele>48.0</ele><time>2026-03-22T10:39:39.984Z</time></trkpt><trkpt lat="47.329766586862334" lon="-1.735650448524226"><ele>48.833333333333336</ele><time>2026-03-22T10:39:40.984Z</time></trkpt><trkpt lat="47.329690201436605" lon="-1.7357105405182425"><ele>49.66666666666667</ele><time>2026-03-22T10:39:41.984Z</time></trkpt><trkpt lat="47.32962142282467" lon="-1.735786546101226"><ele>50.5</ele><time>2026-03-22T10:39:42.984Z</time></trkpt><trkpt lat="47.329564011453606" lon="-1.735875562967716"><ele>51.333333333333336</ele><time>2026-03-22T10:39:43.984Z</time></trkpt><trkpt lat="47.329512357986125" lon="-1.7359552095481887"><ele>52.16666666666667</ele><time>2026-03-22T10:39:44.984Z</time></trkpt><trkpt lat="47.32946123026226" lon="-1.7360304979051264"><ele>53.0</ele><time>2026-03-22T10:39:45.984Z</time></trkpt><trkpt lat="47.3294132287398" lon="-1.7361030485552447"><ele>53.4</ele><time>2026-03-22T10:39:46.984Z</time></trkpt><trkpt lat="47.32936548969702" lon="-1.7361708590278557"><ele>53.8</ele><time>2026-03-22T10:39:47.984Z</time></trkpt><trkpt lat="47.3293216039427" lon="-1.7362402863218291"><ele>54.2</ele><time>2026-03-22T10:39:48.984Z</time></trkpt><trkpt lat="47.32923538404969" lon="-1.7363677019727373"><ele>54.6</ele><time>2026-03-22T10:39:50.984Z</time></trkpt><trkpt lat="47.329141357272015" lon="-1.7364739922245829"><ele>55.0</ele><time>2026-03-22T10:39:52.984Z</time></trkpt><trkpt lat="47.329048714485914" lon="-1.7365719317025514"><ele>54.99999999999999</ele><time>2026-03-22T10:39:54.984Z</time></trkpt><trkpt lat="47.328997399165154" lon="-1.736636754376089"><ele>55.0</ele><time>2026-03-22T10:39:55.984Z</time></trkpt><trkpt lat="47.32894056969812" lon="-1.7366881280433695"><ele>55.0</ele><time>2026-03-22T10:39:56.984Z</time></trkpt><trkpt lat="47.32888215543689" lon="-1.7367228190211013"><ele>55.0</ele><time>2026-03-22T10:39:57.984Z</time></trkpt><trkpt lat="47.32877720472979" lon="-1.736773079143004"><ele>54.99999999999999</ele><time>2026-03-22T10:39:59.984Z</time></trkpt><trkpt lat="47.328688869364306" lon="-1.7368521490346258"><ele>55.0</ele><time>2026-03-22T10:40:01.984Z</time></trkpt><trkpt lat="47.32861321645314" lon="-1.7369189494149184"><ele>55.666666666666664</ele><time>2026-03-22T10:40:03.984Z</time></trkpt><trkpt lat="47.328535527365666" lon="-1.7369761433734427"><ele>56.33333333333333</ele><time>2026-03-22T10:40:05.984Z</time></trkpt><trkpt lat="47.32845943247154" lon="-1.7370228926880587"><ele>57.0</ele><time>2026-03-22T10:40:07.984Z</time></trkpt><trkpt lat="47.32838916759691" lon="-1.7370593165162704"><ele>57.66666666666667</ele><time>2026-03-22T10:40:09.984Z</time></trkpt><trkpt lat="47.32832471699232" lon="-1.737100001228183"><ele>58.333333333333336</ele><time>2026-03-22T10:40:11.984Z</time></trkpt><trkpt lat="47.32825795891872" lon="-1.7371427179762438"><ele>59.0</ele><time>2026-03-22T10:40:13.984Z</time></trkpt><trkpt lat="47.32819554616905" lon="-1.7372000667155592"><ele>59.0</ele><time>2026-03-22T10:40:15.984Z</time></trkpt><trkpt lat="47.32813699148999" lon="-1.7372429042587483"><ele>59.0</ele><time>2026-03-22T10:40:17.984Z</time></trkpt><trkpt lat="47.328076237176816" lon="-1.7372784644606905"><ele>59.0</ele><time>2026-03-22T10:40:19.984Z</time></trkpt><trkpt lat="47.328015753293236" lon="-1.7373271588025594"><ele>59.0</ele><time>2026-03-22T10:40:21.984Z</time></trkpt><trkpt lat="47.32795387134754" lon="-1.7373617277008455"><ele>59.0</ele><time>2026-03-22T10:40:23.984Z</time></trkpt><trkpt lat="47.327893307849564" lon="-1.7373985211501226"><ele>59.0</ele><time>2026-03-22T10:40:25.984Z</time></trkpt><trkpt lat="47.32780275500135" lon="-1.7374460032684125"><ele>59.0</ele><time>2026-03-22T10:40:28.984Z</time></trkpt><trkpt lat="47.32774264948877" lon="-1.7374855217778031"><ele>59.71428571428571</ele><time>2026-03-22T10:40:30.984Z</time></trkpt><trkpt lat="47.32769005546338" lon="-1.7375388259707674"><ele>60.42857142857143</ele><time>2026-03-22T10:40:32.984Z</time></trkpt><trkpt lat="47.327632765806996" lon="-1.7375842998487143"><ele>61.14285714285714</ele><time>2026-03-22T10:40:34.984Z</time></trkpt><trkpt lat="47.32757753627774" lon="-1.7376447020906236"><ele>61.857142857142854</ele><time>2026-03-22T10:40:36.984Z</time></trkpt><trkpt lat="47.32750346591956" lon="-1.7376968795101047"><ele>62.57142857142857</ele><time>2026-03-22T10:40:39.985Z</time></trkpt><trkpt lat="47.32743732191247" lon="-1.7377646830795845"><ele>63.285714285714285</ele><time>2026-03-22T10:40:42.985Z</time></trkpt><trkpt lat="47.327373952345745" lon="-1.7378490392382246"><ele>64.0</ele><time>2026-03-22T10:40:45.985Z</time></trkpt><trkpt lat="47.32730704830066" lon="-1.7379308055482017"><ele>64.16666666666666</ele><time>2026-03-22T10:40:48.985Z</time></trkpt><trkpt lat="47.32724604163118" lon="-1.7380042766898616"><ele>64.33333333333333</ele><time>2026-03-22T10:40:51.985Z</time></trkpt><trkpt lat="47.327172044287956" lon="-1.738043399960857"><ele>64.5</ele><time>2026-03-22T10:40:54.985Z</time></trkpt><trkpt lat="47.32709228588728" lon="-1.7380806583519677"><ele>64.66666666666667</ele><time>2026-03-22T10:40:57.985Z</time></trkpt><trkpt lat="47.3270038668783" lon="-1.7380890435288048"><ele>64.83333333333334</ele><time>2026-03-22T10:41:00.985Z</time></trkpt><trkpt lat="47.326940870801735" lon="-1.738087188236941"><ele>65.0</ele><time>2026-03-22T10:41:02.985Z</time></trkpt><trkpt lat="47.326868646942806" lon="-1.738104342842623"><ele>65.66666666666667</ele><time>2026-03-22T10:41:05.985Z</time></trkpt><trkpt lat="47.32680049995502" lon="-1.7381960455580303"><ele>66.33333333333334</ele><time>2026-03-22T10:41:08.985Z</time></trkpt><trkpt lat="47.32680923137916" lon="-1.7383121039443399"><ele>67.0</ele><time>2026-03-22T10:41:10.985Z</time></trkpt><trkpt lat="47.32681609309928" lon="-1.7384328734913224"><ele>67.66666666666667</ele><time>2026-03-22T10:41:12.985Z</time></trkpt><trkpt lat="47.32683773663558" lon="-1.7385505483267334"><ele>68.33333333333333</ele><time>2026-03-22T10:41:14.985Z</time></trkpt><trkpt lat="47.326863621670526" lon="-1.7386742709010699"><ele>69.0</ele><time>2026-03-22T10:41:16.985Z</time></trkpt><trkpt lat="47.32688113757713" lon="-1.7388059656382824"><ele>69.33333333333333</ele><time>2026-03-22T10:41:18.985Z</time></trkpt><trkpt lat="47.326892435710654" lon="-1.738928409787137"><ele>69.66666666666667</ele><time>2026-03-22T10:41:20.985Z</time></trkpt><trkpt lat="47.32690218735804" lon="-1.7390578418316023"><ele>70.0</ele><time>2026-03-22T10:41:22.985Z</time></trkpt><trkpt lat="47.32691735514579" lon="-1.7391813719100755"><ele>70.33333333333334</ele><time>2026-03-22T10:41:24.985Z</time></trkpt><trkpt lat="47.326916808143466" lon="-1.7392997620620445"><ele>70.66666666666667</ele><time>2026-03-22T10:41:26.985Z</time></trkpt><trkpt lat="47.32691459920938" lon="-1.73942515922987"><ele>71.0</ele><time>2026-03-22T10:41:28.985Z</time></trkpt><trkpt lat="47.32692092594642" lon="-1.7395475967641463"><ele>71.28571428571428</ele><time>2026-03-22T10:41:30.985Z</time></trkpt><trkpt lat="47.326910540590205" lon="-1.7396621831941155"><ele>71.57142857142857</ele><time>2026-03-22T10:41:32.985Z</time></trkpt><trkpt lat="47.326881091492496" lon="-1.7397700735296533"><ele>71.85714285714286</ele><time>2026-03-22T10:41:34.985Z</time></trkpt><trkpt lat="47.326855107513964" lon="-1.739872660080416"><ele>72.14285714285714</ele><time>2026-03-22T10:41:36.984Z</time></trkpt><trkpt lat="47.32683586401474" lon="-1.7399786446301002"><ele>72.42857142857143</ele><time>2026-03-22T10:41:38.984Z</time></trkpt><trkpt lat="47.326811447022514" lon="-1.7400744896407503"><ele>72.71428571428571</ele><time>2026-03-22T10:41:40.984Z</time></trkpt><trkpt lat="47.326789013638944" lon="-1.7401761903638746"><ele>73.0</ele><time>2026-03-22T10:41:42.984Z</time></trkpt><trkpt lat="47.32676591584955" lon="-1.7402778011591606"><ele>73.28571428571428</ele><time>2026-03-22T10:41:44.984Z</time></trkpt><trkpt lat="47.32674463758915" lon="-1.7403775851987258"><ele>73.57142857142857</ele><time>2026-03-22T10:41:46.984Z</time></trkpt><trkpt lat="47.32672244175033" lon="-1.7404809038757938"><ele>73.85714285714286</ele><time>2026-03-22T10:41:48.984Z</time></trkpt><trkpt lat="47.32670064644155" lon="-1.7405810248000744"><ele>74.14285714285714</ele><time>2026-03-22T10:41:50.984Z</time></trkpt><trkpt lat="47.32667421630062" lon="-1.7406793965855258"><ele>74.42857142857143</ele><time>2026-03-22T10:41:52.984Z</time></trkpt><trkpt lat="47.32665156823445" lon="-1.7407839594361054"><ele>74.71428571428571</ele><time>2026-03-22T10:41:54.984Z</time></trkpt><trkpt lat="47.3266355254473" lon="-1.7408900638672067"><ele>75.0</ele><time>2026-03-22T10:41:56.984Z</time></trkpt><trkpt lat="47.32660101900827" lon="-1.7409829714369416"><ele>75.14285714285714</ele><time>2026-03-22T10:41:58.984Z</time></trkpt><trkpt lat="47.32658077626593" lon="-1.7410771872355357"><ele>75.28571428571428</ele><time>2026-03-22T10:42:00.984Z</time></trkpt><trkpt lat="47.326554921009006" lon="-1.7411801996195457"><ele>75.42857142857142</ele><time>2026-03-22T10:42:02.984Z</time></trkpt><trkpt lat="47.32653329758342" lon="-1.7412691772186104"><ele>75.57142857142857</ele><time>2026-03-22T10:42:04.984Z</time></trkpt><trkpt lat="47.326508712899646" lon="-1.7413626651889167"><ele>75.71428571428572</ele><time>2026-03-22T10:42:06.984Z</time></trkpt><trkpt lat="47.32647933635075" lon="-1.7414458750075656"><ele>75.85714285714285</ele><time>2026-03-22T10:42:08.984Z</time></trkpt><trkpt lat="47.326451086497634" lon="-1.7415410696898157"><ele>76.0</ele><time>2026-03-22T10:42:10.984Z</time></trkpt><trkpt lat="47.32642883959944" lon="-1.741643117566384"><ele>76.0</ele><time>2026-03-22T10:42:12.984Z</time></trkpt><trkpt lat="47.32640423669787" lon="-1.7417390500074816"><ele>76.0</ele><time>2026-03-22T10:42:14.984Z</time></trkpt><trkpt lat="47.32638054322162" lon="-1.7418446108699674"><ele>76.0</ele><time>2026-03-22T10:42:16.984Z</time></trkpt><trkpt lat="47.326355773966576" lon="-1.7419488274104815"><ele>76.0</ele><time>2026-03-22T10:42:18.984Z</time></trkpt><trkpt lat="47.326329466950305" lon="-1.7420412248056523"><ele>76.0</ele><time>2026-03-22T10:42:20.984Z</time></trkpt><trkpt lat="47.32629631382712" lon="-1.742181878322852"><ele>76.0</ele><time>2026-03-22T10:42:23.984Z</time></trkpt><trkpt lat="47.32626830934496" lon="-1.7422741232366545"><ele>76.5</ele><time>2026-03-22T10:42:25.984Z</time></trkpt><trkpt lat="47.32624129448475" lon="-1.7423763812021673"><ele>77.0</ele><time>2026-03-22T10:42:27.984Z</time></trkpt><trkpt lat="47.32621058247975" lon="-1.7424739288320954"><ele>77.5</ele><time>2026-03-22T10:42:29.984Z</time></trkpt><trkpt lat="47.32618646700745" lon="-1.7425778687693982"><ele>78.0</ele><time>2026-03-22T10:42:31.984Z</time></trkpt><trkpt lat="47.326160843409916" lon="-1.7426903890958254"><ele>78.5</ele><time>2026-03-22T10:42:33.984Z</time></trkpt><trkpt lat="47.326136887840896" lon="-1.742798737981552"><ele>79.0</ele><time>2026-03-22T10:42:35.984Z</time></trkpt><trkpt lat="47.32611126980123" lon="-1.7429038127227592"><ele>79.16666666666666</ele><time>2026-03-22T10:42:37.984Z</time></trkpt><trkpt lat="47.32607936822815" lon="-1.7430081225127863"><ele>79.33333333333333</ele><time>2026-03-22T10:42:39.984Z</time></trkpt><trkpt lat="47.32604320773319" lon="-1.7431068879499625"><ele>79.5</ele><time>2026-03-22T10:42:41.984Z</time></trkpt><trkpt lat="47.325998214015115" lon="-1.743204871425046"><ele>79.66666666666667</ele><time>2026-03-22T10:42:43.984Z</time></trkpt><trkpt lat="47.325969995394445" lon="-1.7433274409047905"><ele>79.83333333333334</ele><time>2026-03-22T10:42:45.985Z</time></trkpt><trkpt lat="47.325915453271605" lon="-1.7434371526478378"><ele>80.0</ele><time>2026-03-22T10:42:47.985Z</time></trkpt><trkpt lat="47.32587477660432" lon="-1.7435424199621472"><ele>79.8</ele><time>2026-03-22T10:42:49.985Z</time></trkpt><trkpt lat="47.3258294060597" lon="-1.743655181406587"><ele>79.6</ele><time>2026-03-22T10:42:51.985Z</time></trkpt><trkpt lat="47.3257867441969" lon="-1.7437700143753188"><ele>79.4</ele><time>2026-03-22T10:42:53.985Z</time></trkpt><trkpt lat="47.32573576346529" lon="-1.7438587270728045"><ele>79.2</ele><time>2026-03-22T10:42:55.984Z</time></trkpt><trkpt lat="47.32568167443192" lon="-1.7439819240271706"><ele>79.0</ele><time>2026-03-22T10:42:57.985Z</time></trkpt><trkpt lat="47.32563436834031" lon="-1.744104994107146"><ele>79.0</ele><time>2026-03-22T10:42:59.985Z</time></trkpt><trkpt lat="47.32558441893219" lon="-1.7442241124661404"><ele>79.0</ele><time>2026-03-22T10:43:01.985Z</time></trkpt><trkpt lat="47.32553801218999" lon="-1.7443371404310843"><ele>79.0</ele><time>2026-03-22T10:43:03.985Z</time></trkpt><trkpt lat="47.3254774103903" lon="-1.7444636282656445"><ele>79.0</ele><time>2026-03-22T10:43:05.985Z</time></trkpt><trkpt lat="47.325430638375686" lon="-1.7445753798449222"><ele>79.0</ele><time>2026-03-22T10:43:07.985Z</time></trkpt><trkpt lat="47.325379662275665" lon="-1.7446960099293098"><ele>79.4</ele><time>2026-03-22T10:43:09.985Z</time></trkpt><trkpt lat="47.32532742240049" lon="-1.7448165261119088"><ele>79.80000000000001</ele><time>2026-03-22T10:43:11.985Z</time></trkpt><trkpt lat="47.32527245659203" lon="-1.74494426096674"><ele>80.19999999999999</ele><time>2026-03-22T10:43:13.985Z</time></trkpt><trkpt lat="47.32521875344692" lon="-1.745070553894943"><ele>80.6</ele><time>2026-03-22T10:43:15.985Z</time></trkpt><trkpt lat="47.32516641870588" lon="-1.745210991231016"><ele>81.0</ele><time>2026-03-22T10:43:17.985Z</time></trkpt><trkpt lat="47.325112714959396" lon="-1.7453447867519836"><ele>81.6</ele><time>2026-03-22T10:43:19.985Z</time></trkpt><trkpt lat="47.32506001624665" lon="-1.7454764723573866"><ele>82.19999999999999</ele><time>2026-03-22T10:43:21.985Z</time></trkpt><trkpt lat="47.32500901617092" lon="-1.7456199429610852"><ele>82.80000000000001</ele><time>2026-03-22T10:43:23.985Z</time></trkpt><trkpt lat="47.32495210482251" lon="-1.7457509220860794"><ele>83.4</ele><time>2026-03-22T10:43:25.985Z</time></trkpt><trkpt lat="47.32489679915576" lon="-1.745881948605154"><ele>84.0</ele><time>2026-03-22T10:43:27.985Z</time></trkpt><trkpt lat="47.32484269806508" lon="-1.7460130668959573"><ele>83.6</ele><time>2026-03-22T10:43:29.985Z</time></trkpt><trkpt lat="47.324783597708816" lon="-1.7461352857364194"><ele>83.2</ele><time>2026-03-22T10:43:31.985Z</time></trkpt><trkpt lat="47.32472686934796" lon="-1.7462599282148088"><ele>82.8</ele><time>2026-03-22T10:43:33.985Z</time></trkpt><trkpt lat="47.32466075010133" lon="-1.746374180903405"><ele>82.39999999999999</ele><time>2026-03-22T10:43:35.985Z</time></trkpt><trkpt lat="47.32460263459436" lon="-1.746486630524284"><ele>82.0</ele><time>2026-03-22T10:43:37.985Z</time></trkpt><trkpt lat="47.324537730895415" lon="-1.7466191668178948"><ele>82.0</ele><time>2026-03-22T10:43:39.985Z</time></trkpt><trkpt lat="47.324479820017515" lon="-1.7467579721361624"><ele>82.0</ele><time>2026-03-22T10:43:41.985Z</time></trkpt><trkpt lat="47.32441563221228" lon="-1.7468698819984838"><ele>82.0</ele><time>2026-03-22T10:43:43.985Z</time></trkpt><trkpt lat="47.324335570185184" lon="-1.7469845136343884"><ele>82.0</ele><time>2026-03-22T10:43:45.985Z</time></trkpt><trkpt lat="47.324263803299" lon="-1.7471044419083128"><ele>82.0</ele><time>2026-03-22T10:43:47.985Z</time></trkpt><trkpt lat="47.32420158819533" lon="-1.7472259484157837"><ele>82.0</ele><time>2026-03-22T10:43:49.985Z</time></trkpt><trkpt lat="47.324123968346534" lon="-1.7473509738688842"><ele>82.0</ele><time>2026-03-22T10:43:51.985Z</time></trkpt><trkpt lat="47.32404664128959" lon="-1.7474668004088403"><ele>82.0</ele><time>2026-03-22T10:43:53.985Z</time></trkpt><trkpt lat="47.323986353323846" lon="-1.7476056184058957"><ele>82.0</ele><time>2026-03-22T10:43:55.985Z</time></trkpt><trkpt lat="47.323911537784056" lon="-1.747727116669931"><ele>82.0</ele><time>2026-03-22T10:43:57.985Z</time></trkpt><trkpt lat="47.323837631783135" lon="-1.7478461022188896"><ele>82.0</ele><time>2026-03-22T10:43:59.985Z</time></trkpt><trkpt lat="47.32375662988164" lon="-1.747964492201443"><ele>82.0</ele><time>2026-03-22T10:44:01.985Z</time></trkpt><trkpt lat="47.323688735750615" lon="-1.7480980528973413"><ele>82.0</ele><time>2026-03-22T10:44:03.985Z</time></trkpt><trkpt lat="47.323622700137506" lon="-1.7482334187847013"><ele>82.0</ele><time>2026-03-22T10:44:05.985Z</time></trkpt><trkpt lat="47.32355351287422" lon="-1.7483698540570873"><ele>82.0</ele><time>2026-03-22T10:44:07.985Z</time></trkpt><trkpt lat="47.32348168756873" lon="-1.7484971338270587"><ele>82.0</ele><time>2026-03-22T10:44:09.985Z</time></trkpt><trkpt lat="47.3234106745776" lon="-1.7486289838488178"><ele>82.0</ele><time>2026-03-22T10:44:11.985Z</time></trkpt><trkpt lat="47.3233379544998" lon="-1.7487536796303653"><ele>82.0</ele><time>2026-03-22T10:44:13.985Z</time></trkpt><trkpt lat="47.32326594550319" lon="-1.7488898752130257"><ele>82.0</ele><time>2026-03-22T10:44:15.985Z</time></trkpt><trkpt lat="47.32319759926295" lon="-1.7490134196929235"><ele>82.0</ele><time>2026-03-22T10:44:17.985Z</time></trkpt><trkpt lat="47.32312917615612" lon="-1.7491327839489939"><ele>82.0</ele><time>2026-03-22T10:44:19.985Z</time></trkpt><trkpt lat="47.32305599662939" lon="-1.7492449116599242"><ele>82.0</ele><time>2026-03-22T10:44:21.985Z</time></trkpt><trkpt lat="47.32298172401758" lon="-1.7493526178540795"><ele>82.0</ele><time>2026-03-22T10:44:23.985Z</time></trkpt><trkpt lat="47.322920556648995" lon="-1.7494645386333383"><ele>82.0</ele><time>2026-03-22T10:44:25.985Z</time></trkpt><trkpt lat="47.3228554168469" lon="-1.7495752079387816"><ele>82.0</ele><time>2026-03-22T10:44:27.985Z</time></trkpt><trkpt lat="47.32279169736035" lon="-1.749687143859559"><ele>82.0</ele><time>2026-03-22T10:44:29.985Z</time></trkpt><trkpt lat="47.32272484663297" lon="-1.7497940987397673"><ele>82.0</ele><time>2026-03-22T10:44:31.985Z</time></trkpt><trkpt lat="47.32266387925581" lon="-1.749915908231028"><ele>82.0</ele><time>2026-03-22T10:44:33.985Z</time></trkpt><trkpt lat="47.32260166337835" lon="-1.7500325573942808"><ele>82.0</ele><time>2026-03-22T10:44:35.985Z</time></trkpt><trkpt lat="47.32253701865641" lon="-1.7501313238787874"><ele>82.0</ele><time>2026-03-22T10:44:37.984Z</time></trkpt><trkpt lat="47.32249701342567" lon="-1.750230153532474"><ele>82.0</ele><time>2026-03-22T10:44:39.984Z</time></trkpt><trkpt lat="47.3224344397229" lon="-1.750323794583448"><ele>82.0</ele><time>2026-03-22T10:44:41.984Z</time></trkpt><trkpt lat="47.32236318023982" lon="-1.7504259066387229"><ele>82.0</ele><time>2026-03-22T10:44:43.984Z</time></trkpt><trkpt lat="47.322285835682656" lon="-1.750518368316679"><ele>82.0</ele><time>2026-03-22T10:44:45.984Z</time></trkpt><trkpt lat="47.32220348897701" lon="-1.7505472302662453"><ele>82.0</ele><time>2026-03-22T10:44:47.984Z</time></trkpt><trkpt lat="47.32213055949316" lon="-1.7504408869234134"><ele>82.0</ele><time>2026-03-22T10:44:49.984Z</time></trkpt><trkpt lat="47.32208550061081" lon="-1.750342620823685"><ele>82.0</ele><time>2026-03-22T10:44:51.985Z</time></trkpt><trkpt lat="47.32203807151862" lon="-1.7502651707189443"><ele>82.0</ele><time>2026-03-22T10:44:53.984Z</time></trkpt><trkpt lat="47.32198250183111" lon="-1.7501903625626802"><ele>82.0</ele><time>2026-03-22T10:44:55.985Z</time></trkpt><trkpt lat="47.32193697571209" lon="-1.7501175014755528"><ele>82.0</ele><time>2026-03-22T10:44:57.986Z</time></trkpt><trkpt lat="47.32188316864785" lon="-1.7500218015082503"><ele>82.0</ele><time>2026-03-22T10:45:00.985Z</time></trkpt><trkpt lat="47.32183573812875" lon="-1.7499477407465163"><ele>82.0</ele><time>2026-03-22T10:45:03.985Z</time></trkpt><trkpt lat="47.321855068274004" lon="-1.7498413189575925"><ele>82.0</ele><time>2026-03-22T10:45:07.985Z</time></trkpt><trkpt lat="47.32189020507439" lon="-1.7497635032196257"><ele>82.0</ele><time>2026-03-22T10:45:13.985Z</time></trkpt></trkseg></trk></gpx>